<?xml version="1.0" encoding="UTF-8"?>
<gpx xmlns="http://www.topografix.com/GPX/1/1"
     creator="GpsDumpMac 0.29"
     version="1.1"
     xmlns:xsi="http://www.w3.org/2001/XMLSchema-instance"
     xsi:schemaLocation="http://www.topografix.com/GPX/1/1 http://www.topografix.com/GPX/1/1/gpx.xsd">
  <metadata>
    <link href="http://www.gethome.no/stein.sorensen/">
      <text>GPS dump for www.flightlog.org</text>
    </link>
    <time>2018-09-04T07:43:54Z</time>
    <bounds minlat="40.417883" minlon="-5.322817" maxlat="40.513133" maxlon="-5.190250"/>
  </metadata>
  <trk>
    <name>Track 001</name>
    <trkseg>
      <trkpt lat="40.421800" lon="-5.301617">
        <ele>1925.0</ele>
        <time>2018-07-28T11:54:41Z</time>
      </trkpt>
      <trkpt lat="40.421833" lon="-5.301650">
        <ele>1925.0</ele>
        <time>2018-07-28T11:54:42Z</time>
      </trkpt>
      <trkpt lat="40.421883" lon="-5.301683">
        <ele>1925.0</ele>
        <time>2018-07-28T11:54:43Z</time>
      </trkpt>
      <trkpt lat="40.421917" lon="-5.301717">
        <ele>1925.0</ele>
        <time>2018-07-28T11:54:44Z</time>
      </trkpt>
      <trkpt lat="40.421967" lon="-5.301733">
        <ele>1924.0</ele>
        <time>2018-07-28T11:54:45Z</time>
      </trkpt>
      <trkpt lat="40.422033" lon="-5.301767">
        <ele>1923.0</ele>
        <time>2018-07-28T11:54:46Z</time>
      </trkpt>
      <trkpt lat="40.422083" lon="-5.301800">
        <ele>1922.0</ele>
        <time>2018-07-28T11:54:47Z</time>
      </trkpt>
      <trkpt lat="40.422133" lon="-5.301833">
        <ele>1921.0</ele>
        <time>2018-07-28T11:54:48Z</time>
      </trkpt>
      <trkpt lat="40.422183" lon="-5.301867">
        <ele>1920.0</ele>
        <time>2018-07-28T11:54:49Z</time>
      </trkpt>
      <trkpt lat="40.422233" lon="-5.301900">
        <ele>1920.0</ele>
        <time>2018-07-28T11:54:50Z</time>
      </trkpt>
      <trkpt lat="40.422283" lon="-5.301933">
        <ele>1919.0</ele>
        <time>2018-07-28T11:54:51Z</time>
      </trkpt>
      <trkpt lat="40.422333" lon="-5.301950">
        <ele>1918.0</ele>
        <time>2018-07-28T11:54:52Z</time>
      </trkpt>
      <trkpt lat="40.422383" lon="-5.301983">
        <ele>1918.0</ele>
        <time>2018-07-28T11:54:53Z</time>
      </trkpt>
      <trkpt lat="40.422433" lon="-5.302033">
        <ele>1917.0</ele>
        <time>2018-07-28T11:54:54Z</time>
      </trkpt>
      <trkpt lat="40.422467" lon="-5.302100">
        <ele>1915.0</ele>
        <time>2018-07-28T11:54:55Z</time>
      </trkpt>
      <trkpt lat="40.422517" lon="-5.302150">
        <ele>1915.0</ele>
        <time>2018-07-28T11:54:56Z</time>
      </trkpt>
      <trkpt lat="40.422583" lon="-5.302200">
        <ele>1915.0</ele>
        <time>2018-07-28T11:54:57Z</time>
      </trkpt>
      <trkpt lat="40.422633" lon="-5.302217">
        <ele>1914.0</ele>
        <time>2018-07-28T11:54:58Z</time>
      </trkpt>
      <trkpt lat="40.422700" lon="-5.302233">
        <ele>1913.0</ele>
        <time>2018-07-28T11:54:59Z</time>
      </trkpt>
      <trkpt lat="40.422767" lon="-5.302217">
        <ele>1912.0</ele>
        <time>2018-07-28T11:55:00Z</time>
      </trkpt>
      <trkpt lat="40.422833" lon="-5.302183">
        <ele>1911.0</ele>
        <time>2018-07-28T11:55:01Z</time>
      </trkpt>
      <trkpt lat="40.422900" lon="-5.302117">
        <ele>1909.0</ele>
        <time>2018-07-28T11:55:02Z</time>
      </trkpt>
      <trkpt lat="40.422950" lon="-5.302033">
        <ele>1906.0</ele>
        <time>2018-07-28T11:55:03Z</time>
      </trkpt>
      <trkpt lat="40.423000" lon="-5.301933">
        <ele>1905.0</ele>
        <time>2018-07-28T11:55:04Z</time>
      </trkpt>
      <trkpt lat="40.423050" lon="-5.301817">
        <ele>1904.0</ele>
        <time>2018-07-28T11:55:05Z</time>
      </trkpt>
      <trkpt lat="40.423083" lon="-5.301700">
        <ele>1903.0</ele>
        <time>2018-07-28T11:55:06Z</time>
      </trkpt>
      <trkpt lat="40.423150" lon="-5.301583">
        <ele>1902.0</ele>
        <time>2018-07-28T11:55:07Z</time>
      </trkpt>
      <trkpt lat="40.423217" lon="-5.301467">
        <ele>1900.0</ele>
        <time>2018-07-28T11:55:08Z</time>
      </trkpt>
      <trkpt lat="40.423283" lon="-5.301383">
        <ele>1899.0</ele>
        <time>2018-07-28T11:55:09Z</time>
      </trkpt>
      <trkpt lat="40.423350" lon="-5.301283">
        <ele>1899.0</ele>
        <time>2018-07-28T11:55:10Z</time>
      </trkpt>
      <trkpt lat="40.423433" lon="-5.301233">
        <ele>1899.0</ele>
        <time>2018-07-28T11:55:11Z</time>
      </trkpt>
      <trkpt lat="40.423533" lon="-5.301183">
        <ele>1899.0</ele>
        <time>2018-07-28T11:55:12Z</time>
      </trkpt>
      <trkpt lat="40.423617" lon="-5.301150">
        <ele>1899.0</ele>
        <time>2018-07-28T11:55:13Z</time>
      </trkpt>
      <trkpt lat="40.423700" lon="-5.301150">
        <ele>1900.0</ele>
        <time>2018-07-28T11:55:14Z</time>
      </trkpt>
      <trkpt lat="40.423783" lon="-5.301183">
        <ele>1903.0</ele>
        <time>2018-07-28T11:55:15Z</time>
      </trkpt>
      <trkpt lat="40.423817" lon="-5.301233">
        <ele>1904.0</ele>
        <time>2018-07-28T11:55:16Z</time>
      </trkpt>
      <trkpt lat="40.423833" lon="-5.301300">
        <ele>1904.0</ele>
        <time>2018-07-28T11:55:17Z</time>
      </trkpt>
      <trkpt lat="40.423833" lon="-5.301383">
        <ele>1903.0</ele>
        <time>2018-07-28T11:55:18Z</time>
      </trkpt>
      <trkpt lat="40.423800" lon="-5.301483">
        <ele>1900.0</ele>
        <time>2018-07-28T11:55:19Z</time>
      </trkpt>
      <trkpt lat="40.423717" lon="-5.301583">
        <ele>1897.0</ele>
        <time>2018-07-28T11:55:20Z</time>
      </trkpt>
      <trkpt lat="40.423617" lon="-5.301633">
        <ele>1895.0</ele>
        <time>2018-07-28T11:55:21Z</time>
      </trkpt>
      <trkpt lat="40.423483" lon="-5.301683">
        <ele>1895.0</ele>
        <time>2018-07-28T11:55:22Z</time>
      </trkpt>
      <trkpt lat="40.423367" lon="-5.301750">
        <ele>1896.0</ele>
        <time>2018-07-28T11:55:23Z</time>
      </trkpt>
      <trkpt lat="40.423267" lon="-5.301800">
        <ele>1898.0</ele>
        <time>2018-07-28T11:55:24Z</time>
      </trkpt>
      <trkpt lat="40.423200" lon="-5.301867">
        <ele>1900.0</ele>
        <time>2018-07-28T11:55:25Z</time>
      </trkpt>
      <trkpt lat="40.423133" lon="-5.301917">
        <ele>1900.0</ele>
        <time>2018-07-28T11:55:26Z</time>
      </trkpt>
      <trkpt lat="40.423067" lon="-5.301950">
        <ele>1899.0</ele>
        <time>2018-07-28T11:55:27Z</time>
      </trkpt>
      <trkpt lat="40.423000" lon="-5.302000">
        <ele>1897.0</ele>
        <time>2018-07-28T11:55:28Z</time>
      </trkpt>
      <trkpt lat="40.422933" lon="-5.302067">
        <ele>1894.0</ele>
        <time>2018-07-28T11:55:29Z</time>
      </trkpt>
      <trkpt lat="40.422867" lon="-5.302150">
        <ele>1891.0</ele>
        <time>2018-07-28T11:55:30Z</time>
      </trkpt>
      <trkpt lat="40.422800" lon="-5.302250">
        <ele>1889.0</ele>
        <time>2018-07-28T11:55:31Z</time>
      </trkpt>
      <trkpt lat="40.422767" lon="-5.302367">
        <ele>1887.0</ele>
        <time>2018-07-28T11:55:32Z</time>
      </trkpt>
      <trkpt lat="40.422717" lon="-5.302500">
        <ele>1885.0</ele>
        <time>2018-07-28T11:55:33Z</time>
      </trkpt>
      <trkpt lat="40.422683" lon="-5.302617">
        <ele>1885.0</ele>
        <time>2018-07-28T11:55:34Z</time>
      </trkpt>
      <trkpt lat="40.422633" lon="-5.302717">
        <ele>1885.0</ele>
        <time>2018-07-28T11:55:35Z</time>
      </trkpt>
      <trkpt lat="40.422617" lon="-5.302817">
        <ele>1885.0</ele>
        <time>2018-07-28T11:55:36Z</time>
      </trkpt>
      <trkpt lat="40.422583" lon="-5.302917">
        <ele>1884.0</ele>
        <time>2018-07-28T11:55:37Z</time>
      </trkpt>
      <trkpt lat="40.422583" lon="-5.303033">
        <ele>1882.0</ele>
        <time>2018-07-28T11:55:38Z</time>
      </trkpt>
      <trkpt lat="40.422567" lon="-5.303150">
        <ele>1880.0</ele>
        <time>2018-07-28T11:55:39Z</time>
      </trkpt>
      <trkpt lat="40.422583" lon="-5.303267">
        <ele>1878.0</ele>
        <time>2018-07-28T11:55:40Z</time>
      </trkpt>
      <trkpt lat="40.422600" lon="-5.303400">
        <ele>1876.0</ele>
        <time>2018-07-28T11:55:41Z</time>
      </trkpt>
      <trkpt lat="40.422617" lon="-5.303517">
        <ele>1874.0</ele>
        <time>2018-07-28T11:55:42Z</time>
      </trkpt>
      <trkpt lat="40.422650" lon="-5.303650">
        <ele>1872.0</ele>
        <time>2018-07-28T11:55:43Z</time>
      </trkpt>
      <trkpt lat="40.422683" lon="-5.303767">
        <ele>1871.0</ele>
        <time>2018-07-28T11:55:44Z</time>
      </trkpt>
      <trkpt lat="40.422750" lon="-5.303883">
        <ele>1871.0</ele>
        <time>2018-07-28T11:55:45Z</time>
      </trkpt>
      <trkpt lat="40.422800" lon="-5.303983">
        <ele>1872.0</ele>
        <time>2018-07-28T11:55:46Z</time>
      </trkpt>
      <trkpt lat="40.422867" lon="-5.304067">
        <ele>1873.0</ele>
        <time>2018-07-28T11:55:47Z</time>
      </trkpt>
      <trkpt lat="40.422917" lon="-5.304167">
        <ele>1875.0</ele>
        <time>2018-07-28T11:55:48Z</time>
      </trkpt>
      <trkpt lat="40.422950" lon="-5.304267">
        <ele>1877.0</ele>
        <time>2018-07-28T11:55:49Z</time>
      </trkpt>
      <trkpt lat="40.422983" lon="-5.304350">
        <ele>1880.0</ele>
        <time>2018-07-28T11:55:50Z</time>
      </trkpt>
      <trkpt lat="40.423017" lon="-5.304400">
        <ele>1882.0</ele>
        <time>2018-07-28T11:55:51Z</time>
      </trkpt>
      <trkpt lat="40.423067" lon="-5.304400">
        <ele>1882.0</ele>
        <time>2018-07-28T11:55:52Z</time>
      </trkpt>
      <trkpt lat="40.423117" lon="-5.304383">
        <ele>1881.0</ele>
        <time>2018-07-28T11:55:53Z</time>
      </trkpt>
      <trkpt lat="40.423183" lon="-5.304300">
        <ele>1880.0</ele>
        <time>2018-07-28T11:55:54Z</time>
      </trkpt>
      <trkpt lat="40.423200" lon="-5.304167">
        <ele>1880.0</ele>
        <time>2018-07-28T11:55:55Z</time>
      </trkpt>
      <trkpt lat="40.423183" lon="-5.304017">
        <ele>1881.0</ele>
        <time>2018-07-28T11:55:56Z</time>
      </trkpt>
      <trkpt lat="40.423133" lon="-5.303883">
        <ele>1882.0</ele>
        <time>2018-07-28T11:55:57Z</time>
      </trkpt>
      <trkpt lat="40.423033" lon="-5.303800">
        <ele>1883.0</ele>
        <time>2018-07-28T11:55:58Z</time>
      </trkpt>
      <trkpt lat="40.422917" lon="-5.303750">
        <ele>1883.0</ele>
        <time>2018-07-28T11:55:59Z</time>
      </trkpt>
      <trkpt lat="40.422800" lon="-5.303733">
        <ele>1883.0</ele>
        <time>2018-07-28T11:56:00Z</time>
      </trkpt>
      <trkpt lat="40.422683" lon="-5.303750">
        <ele>1885.0</ele>
        <time>2018-07-28T11:56:01Z</time>
      </trkpt>
      <trkpt lat="40.422567" lon="-5.303800">
        <ele>1887.0</ele>
        <time>2018-07-28T11:56:02Z</time>
      </trkpt>
      <trkpt lat="40.422483" lon="-5.303883">
        <ele>1889.0</ele>
        <time>2018-07-28T11:56:03Z</time>
      </trkpt>
      <trkpt lat="40.422417" lon="-5.303967">
        <ele>1890.0</ele>
        <time>2018-07-28T11:56:04Z</time>
      </trkpt>
      <trkpt lat="40.422350" lon="-5.304067">
        <ele>1890.0</ele>
        <time>2018-07-28T11:56:05Z</time>
      </trkpt>
      <trkpt lat="40.422317" lon="-5.304183">
        <ele>1889.0</ele>
        <time>2018-07-28T11:56:06Z</time>
      </trkpt>
      <trkpt lat="40.422283" lon="-5.304317">
        <ele>1888.0</ele>
        <time>2018-07-28T11:56:07Z</time>
      </trkpt>
      <trkpt lat="40.422267" lon="-5.304467">
        <ele>1887.0</ele>
        <time>2018-07-28T11:56:08Z</time>
      </trkpt>
      <trkpt lat="40.422250" lon="-5.304617">
        <ele>1888.0</ele>
        <time>2018-07-28T11:56:09Z</time>
      </trkpt>
      <trkpt lat="40.422250" lon="-5.304733">
        <ele>1890.0</ele>
        <time>2018-07-28T11:56:10Z</time>
      </trkpt>
      <trkpt lat="40.422267" lon="-5.304850">
        <ele>1891.0</ele>
        <time>2018-07-28T11:56:11Z</time>
      </trkpt>
      <trkpt lat="40.422283" lon="-5.304933">
        <ele>1892.0</ele>
        <time>2018-07-28T11:56:12Z</time>
      </trkpt>
      <trkpt lat="40.422317" lon="-5.305033">
        <ele>1891.0</ele>
        <time>2018-07-28T11:56:13Z</time>
      </trkpt>
      <trkpt lat="40.422350" lon="-5.305133">
        <ele>1891.0</ele>
        <time>2018-07-28T11:56:14Z</time>
      </trkpt>
      <trkpt lat="40.422383" lon="-5.305233">
        <ele>1890.0</ele>
        <time>2018-07-28T11:56:15Z</time>
      </trkpt>
      <trkpt lat="40.422433" lon="-5.305333">
        <ele>1890.0</ele>
        <time>2018-07-28T11:56:16Z</time>
      </trkpt>
      <trkpt lat="40.422483" lon="-5.305433">
        <ele>1891.0</ele>
        <time>2018-07-28T11:56:17Z</time>
      </trkpt>
      <trkpt lat="40.422500" lon="-5.305533">
        <ele>1892.0</ele>
        <time>2018-07-28T11:56:18Z</time>
      </trkpt>
      <trkpt lat="40.422517" lon="-5.305633">
        <ele>1893.0</ele>
        <time>2018-07-28T11:56:19Z</time>
      </trkpt>
      <trkpt lat="40.422517" lon="-5.305750">
        <ele>1892.0</ele>
        <time>2018-07-28T11:56:20Z</time>
      </trkpt>
      <trkpt lat="40.422533" lon="-5.305867">
        <ele>1892.0</ele>
        <time>2018-07-28T11:56:21Z</time>
      </trkpt>
      <trkpt lat="40.422550" lon="-5.305983">
        <ele>1891.0</ele>
        <time>2018-07-28T11:56:22Z</time>
      </trkpt>
      <trkpt lat="40.422567" lon="-5.306083">
        <ele>1890.0</ele>
        <time>2018-07-28T11:56:23Z</time>
      </trkpt>
      <trkpt lat="40.422583" lon="-5.306167">
        <ele>1890.0</ele>
        <time>2018-07-28T11:56:24Z</time>
      </trkpt>
      <trkpt lat="40.422600" lon="-5.306267">
        <ele>1889.0</ele>
        <time>2018-07-28T11:56:25Z</time>
      </trkpt>
      <trkpt lat="40.422583" lon="-5.306383">
        <ele>1888.0</ele>
        <time>2018-07-28T11:56:26Z</time>
      </trkpt>
      <trkpt lat="40.422567" lon="-5.306500">
        <ele>1888.0</ele>
        <time>2018-07-28T11:56:27Z</time>
      </trkpt>
      <trkpt lat="40.422533" lon="-5.306633">
        <ele>1886.0</ele>
        <time>2018-07-28T11:56:28Z</time>
      </trkpt>
      <trkpt lat="40.422483" lon="-5.306767">
        <ele>1884.0</ele>
        <time>2018-07-28T11:56:29Z</time>
      </trkpt>
      <trkpt lat="40.422433" lon="-5.306883">
        <ele>1884.0</ele>
        <time>2018-07-28T11:56:30Z</time>
      </trkpt>
      <trkpt lat="40.422400" lon="-5.307017">
        <ele>1885.0</ele>
        <time>2018-07-28T11:56:31Z</time>
      </trkpt>
      <trkpt lat="40.422400" lon="-5.307117">
        <ele>1886.0</ele>
        <time>2018-07-28T11:56:32Z</time>
      </trkpt>
      <trkpt lat="40.422417" lon="-5.307217">
        <ele>1886.0</ele>
        <time>2018-07-28T11:56:33Z</time>
      </trkpt>
      <trkpt lat="40.422450" lon="-5.307300">
        <ele>1887.0</ele>
        <time>2018-07-28T11:56:34Z</time>
      </trkpt>
      <trkpt lat="40.422483" lon="-5.307367">
        <ele>1887.0</ele>
        <time>2018-07-28T11:56:35Z</time>
      </trkpt>
      <trkpt lat="40.422500" lon="-5.307467">
        <ele>1886.0</ele>
        <time>2018-07-28T11:56:36Z</time>
      </trkpt>
      <trkpt lat="40.422517" lon="-5.307567">
        <ele>1884.0</ele>
        <time>2018-07-28T11:56:37Z</time>
      </trkpt>
      <trkpt lat="40.422533" lon="-5.307667">
        <ele>1883.0</ele>
        <time>2018-07-28T11:56:38Z</time>
      </trkpt>
      <trkpt lat="40.422550" lon="-5.307783">
        <ele>1882.0</ele>
        <time>2018-07-28T11:56:39Z</time>
      </trkpt>
      <trkpt lat="40.422550" lon="-5.307883">
        <ele>1881.0</ele>
        <time>2018-07-28T11:56:40Z</time>
      </trkpt>
      <trkpt lat="40.422550" lon="-5.308000">
        <ele>1880.0</ele>
        <time>2018-07-28T11:56:41Z</time>
      </trkpt>
      <trkpt lat="40.422567" lon="-5.308100">
        <ele>1879.0</ele>
        <time>2018-07-28T11:56:42Z</time>
      </trkpt>
      <trkpt lat="40.422567" lon="-5.308217">
        <ele>1877.0</ele>
        <time>2018-07-28T11:56:43Z</time>
      </trkpt>
      <trkpt lat="40.422583" lon="-5.308333">
        <ele>1875.0</ele>
        <time>2018-07-28T11:56:44Z</time>
      </trkpt>
      <trkpt lat="40.422617" lon="-5.308450">
        <ele>1873.0</ele>
        <time>2018-07-28T11:56:45Z</time>
      </trkpt>
      <trkpt lat="40.422633" lon="-5.308583">
        <ele>1872.0</ele>
        <time>2018-07-28T11:56:46Z</time>
      </trkpt>
      <trkpt lat="40.422650" lon="-5.308700">
        <ele>1872.0</ele>
        <time>2018-07-28T11:56:47Z</time>
      </trkpt>
      <trkpt lat="40.422633" lon="-5.308817">
        <ele>1873.0</ele>
        <time>2018-07-28T11:56:48Z</time>
      </trkpt>
      <trkpt lat="40.422617" lon="-5.308933">
        <ele>1873.0</ele>
        <time>2018-07-28T11:56:49Z</time>
      </trkpt>
      <trkpt lat="40.422600" lon="-5.309050">
        <ele>1872.0</ele>
        <time>2018-07-28T11:56:50Z</time>
      </trkpt>
      <trkpt lat="40.422600" lon="-5.309183">
        <ele>1871.0</ele>
        <time>2018-07-28T11:56:51Z</time>
      </trkpt>
      <trkpt lat="40.422617" lon="-5.309317">
        <ele>1871.0</ele>
        <time>2018-07-28T11:56:52Z</time>
      </trkpt>
      <trkpt lat="40.422633" lon="-5.309433">
        <ele>1872.0</ele>
        <time>2018-07-28T11:56:53Z</time>
      </trkpt>
      <trkpt lat="40.422650" lon="-5.309550">
        <ele>1874.0</ele>
        <time>2018-07-28T11:56:54Z</time>
      </trkpt>
      <trkpt lat="40.422633" lon="-5.309650">
        <ele>1875.0</ele>
        <time>2018-07-28T11:56:55Z</time>
      </trkpt>
      <trkpt lat="40.422617" lon="-5.309767">
        <ele>1876.0</ele>
        <time>2018-07-28T11:56:56Z</time>
      </trkpt>
      <trkpt lat="40.422583" lon="-5.309867">
        <ele>1877.0</ele>
        <time>2018-07-28T11:56:57Z</time>
      </trkpt>
      <trkpt lat="40.422550" lon="-5.309967">
        <ele>1878.0</ele>
        <time>2018-07-28T11:56:58Z</time>
      </trkpt>
      <trkpt lat="40.422567" lon="-5.310050">
        <ele>1879.0</ele>
        <time>2018-07-28T11:56:59Z</time>
      </trkpt>
      <trkpt lat="40.422583" lon="-5.310117">
        <ele>1879.0</ele>
        <time>2018-07-28T11:57:00Z</time>
      </trkpt>
      <trkpt lat="40.422650" lon="-5.310150">
        <ele>1878.0</ele>
        <time>2018-07-28T11:57:01Z</time>
      </trkpt>
      <trkpt lat="40.422733" lon="-5.310150">
        <ele>1876.0</ele>
        <time>2018-07-28T11:57:02Z</time>
      </trkpt>
      <trkpt lat="40.422833" lon="-5.310083">
        <ele>1875.0</ele>
        <time>2018-07-28T11:57:03Z</time>
      </trkpt>
      <trkpt lat="40.422917" lon="-5.309983">
        <ele>1875.0</ele>
        <time>2018-07-28T11:57:04Z</time>
      </trkpt>
      <trkpt lat="40.422967" lon="-5.309850">
        <ele>1876.0</ele>
        <time>2018-07-28T11:57:05Z</time>
      </trkpt>
      <trkpt lat="40.423000" lon="-5.309717">
        <ele>1879.0</ele>
        <time>2018-07-28T11:57:06Z</time>
      </trkpt>
      <trkpt lat="40.422983" lon="-5.309567">
        <ele>1881.0</ele>
        <time>2018-07-28T11:57:07Z</time>
      </trkpt>
      <trkpt lat="40.422950" lon="-5.309433">
        <ele>1882.0</ele>
        <time>2018-07-28T11:57:08Z</time>
      </trkpt>
      <trkpt lat="40.422867" lon="-5.309317">
        <ele>1883.0</ele>
        <time>2018-07-28T11:57:09Z</time>
      </trkpt>
      <trkpt lat="40.422767" lon="-5.309217">
        <ele>1884.0</ele>
        <time>2018-07-28T11:57:10Z</time>
      </trkpt>
      <trkpt lat="40.422650" lon="-5.309150">
        <ele>1885.0</ele>
        <time>2018-07-28T11:57:11Z</time>
      </trkpt>
      <trkpt lat="40.422550" lon="-5.309083">
        <ele>1888.0</ele>
        <time>2018-07-28T11:57:12Z</time>
      </trkpt>
      <trkpt lat="40.422450" lon="-5.309050">
        <ele>1892.0</ele>
        <time>2018-07-28T11:57:13Z</time>
      </trkpt>
      <trkpt lat="40.422367" lon="-5.309000">
        <ele>1894.0</ele>
        <time>2018-07-28T11:57:14Z</time>
      </trkpt>
      <trkpt lat="40.422300" lon="-5.308933">
        <ele>1895.0</ele>
        <time>2018-07-28T11:57:15Z</time>
      </trkpt>
      <trkpt lat="40.422233" lon="-5.308850">
        <ele>1893.0</ele>
        <time>2018-07-28T11:57:16Z</time>
      </trkpt>
      <trkpt lat="40.422150" lon="-5.308750">
        <ele>1892.0</ele>
        <time>2018-07-28T11:57:17Z</time>
      </trkpt>
      <trkpt lat="40.422083" lon="-5.308633">
        <ele>1892.0</ele>
        <time>2018-07-28T11:57:18Z</time>
      </trkpt>
      <trkpt lat="40.422033" lon="-5.308517">
        <ele>1893.0</ele>
        <time>2018-07-28T11:57:19Z</time>
      </trkpt>
      <trkpt lat="40.422017" lon="-5.308417">
        <ele>1893.0</ele>
        <time>2018-07-28T11:57:20Z</time>
      </trkpt>
      <trkpt lat="40.422050" lon="-5.308317">
        <ele>1891.0</ele>
        <time>2018-07-28T11:57:21Z</time>
      </trkpt>
      <trkpt lat="40.422117" lon="-5.308267">
        <ele>1888.0</ele>
        <time>2018-07-28T11:57:22Z</time>
      </trkpt>
      <trkpt lat="40.422200" lon="-5.308250">
        <ele>1885.0</ele>
        <time>2018-07-28T11:57:23Z</time>
      </trkpt>
      <trkpt lat="40.422300" lon="-5.308300">
        <ele>1883.0</ele>
        <time>2018-07-28T11:57:24Z</time>
      </trkpt>
      <trkpt lat="40.422367" lon="-5.308400">
        <ele>1883.0</ele>
        <time>2018-07-28T11:57:25Z</time>
      </trkpt>
      <trkpt lat="40.422383" lon="-5.308533">
        <ele>1887.0</ele>
        <time>2018-07-28T11:57:26Z</time>
      </trkpt>
      <trkpt lat="40.422383" lon="-5.308633">
        <ele>1891.0</ele>
        <time>2018-07-28T11:57:27Z</time>
      </trkpt>
      <trkpt lat="40.422383" lon="-5.308700">
        <ele>1892.0</ele>
        <time>2018-07-28T11:57:28Z</time>
      </trkpt>
      <trkpt lat="40.422400" lon="-5.308767">
        <ele>1893.0</ele>
        <time>2018-07-28T11:57:29Z</time>
      </trkpt>
      <trkpt lat="40.422417" lon="-5.308817">
        <ele>1891.0</ele>
        <time>2018-07-28T11:57:30Z</time>
      </trkpt>
      <trkpt lat="40.422433" lon="-5.308883">
        <ele>1890.0</ele>
        <time>2018-07-28T11:57:31Z</time>
      </trkpt>
      <trkpt lat="40.422467" lon="-5.308983">
        <ele>1890.0</ele>
        <time>2018-07-28T11:57:32Z</time>
      </trkpt>
      <trkpt lat="40.422467" lon="-5.309100">
        <ele>1891.0</ele>
        <time>2018-07-28T11:57:33Z</time>
      </trkpt>
      <trkpt lat="40.422467" lon="-5.309200">
        <ele>1892.0</ele>
        <time>2018-07-28T11:57:34Z</time>
      </trkpt>
      <trkpt lat="40.422450" lon="-5.309300">
        <ele>1893.0</ele>
        <time>2018-07-28T11:57:35Z</time>
      </trkpt>
      <trkpt lat="40.422467" lon="-5.309383">
        <ele>1894.0</ele>
        <time>2018-07-28T11:57:36Z</time>
      </trkpt>
      <trkpt lat="40.422483" lon="-5.309467">
        <ele>1894.0</ele>
        <time>2018-07-28T11:57:37Z</time>
      </trkpt>
      <trkpt lat="40.422533" lon="-5.309533">
        <ele>1894.0</ele>
        <time>2018-07-28T11:57:38Z</time>
      </trkpt>
      <trkpt lat="40.422600" lon="-5.309617">
        <ele>1895.0</ele>
        <time>2018-07-28T11:57:39Z</time>
      </trkpt>
      <trkpt lat="40.422650" lon="-5.309700">
        <ele>1896.0</ele>
        <time>2018-07-28T11:57:40Z</time>
      </trkpt>
      <trkpt lat="40.422700" lon="-5.309783">
        <ele>1898.0</ele>
        <time>2018-07-28T11:57:41Z</time>
      </trkpt>
      <trkpt lat="40.422733" lon="-5.309867">
        <ele>1899.0</ele>
        <time>2018-07-28T11:57:42Z</time>
      </trkpt>
      <trkpt lat="40.422783" lon="-5.309933">
        <ele>1901.0</ele>
        <time>2018-07-28T11:57:43Z</time>
      </trkpt>
      <trkpt lat="40.422833" lon="-5.310017">
        <ele>1902.0</ele>
        <time>2018-07-28T11:57:44Z</time>
      </trkpt>
      <trkpt lat="40.422867" lon="-5.310100">
        <ele>1904.0</ele>
        <time>2018-07-28T11:57:45Z</time>
      </trkpt>
      <trkpt lat="40.422900" lon="-5.310200">
        <ele>1905.0</ele>
        <time>2018-07-28T11:57:46Z</time>
      </trkpt>
      <trkpt lat="40.422933" lon="-5.310300">
        <ele>1907.0</ele>
        <time>2018-07-28T11:57:47Z</time>
      </trkpt>
      <trkpt lat="40.422983" lon="-5.310350">
        <ele>1907.0</ele>
        <time>2018-07-28T11:57:48Z</time>
      </trkpt>
      <trkpt lat="40.423050" lon="-5.310367">
        <ele>1907.0</ele>
        <time>2018-07-28T11:57:49Z</time>
      </trkpt>
      <trkpt lat="40.423117" lon="-5.310317">
        <ele>1906.0</ele>
        <time>2018-07-28T11:57:50Z</time>
      </trkpt>
      <trkpt lat="40.423167" lon="-5.310233">
        <ele>1906.0</ele>
        <time>2018-07-28T11:57:51Z</time>
      </trkpt>
      <trkpt lat="40.423183" lon="-5.310117">
        <ele>1907.0</ele>
        <time>2018-07-28T11:57:52Z</time>
      </trkpt>
      <trkpt lat="40.423167" lon="-5.310000">
        <ele>1907.0</ele>
        <time>2018-07-28T11:57:53Z</time>
      </trkpt>
      <trkpt lat="40.423117" lon="-5.309900">
        <ele>1908.0</ele>
        <time>2018-07-28T11:57:54Z</time>
      </trkpt>
      <trkpt lat="40.423050" lon="-5.309800">
        <ele>1908.0</ele>
        <time>2018-07-28T11:57:55Z</time>
      </trkpt>
      <trkpt lat="40.422967" lon="-5.309733">
        <ele>1907.0</ele>
        <time>2018-07-28T11:57:56Z</time>
      </trkpt>
      <trkpt lat="40.422850" lon="-5.309700">
        <ele>1906.0</ele>
        <time>2018-07-28T11:57:57Z</time>
      </trkpt>
      <trkpt lat="40.422733" lon="-5.309700">
        <ele>1906.0</ele>
        <time>2018-07-28T11:57:58Z</time>
      </trkpt>
      <trkpt lat="40.422617" lon="-5.309733">
        <ele>1907.0</ele>
        <time>2018-07-28T11:57:59Z</time>
      </trkpt>
      <trkpt lat="40.422517" lon="-5.309800">
        <ele>1910.0</ele>
        <time>2018-07-28T11:58:00Z</time>
      </trkpt>
      <trkpt lat="40.422417" lon="-5.309883">
        <ele>1912.0</ele>
        <time>2018-07-28T11:58:01Z</time>
      </trkpt>
      <trkpt lat="40.422333" lon="-5.309967">
        <ele>1914.0</ele>
        <time>2018-07-28T11:58:02Z</time>
      </trkpt>
      <trkpt lat="40.422267" lon="-5.310033">
        <ele>1915.0</ele>
        <time>2018-07-28T11:58:03Z</time>
      </trkpt>
      <trkpt lat="40.422217" lon="-5.310117">
        <ele>1916.0</ele>
        <time>2018-07-28T11:58:04Z</time>
      </trkpt>
      <trkpt lat="40.422167" lon="-5.310183">
        <ele>1915.0</ele>
        <time>2018-07-28T11:58:05Z</time>
      </trkpt>
      <trkpt lat="40.422133" lon="-5.310267">
        <ele>1914.0</ele>
        <time>2018-07-28T11:58:06Z</time>
      </trkpt>
      <trkpt lat="40.422133" lon="-5.310367">
        <ele>1913.0</ele>
        <time>2018-07-28T11:58:07Z</time>
      </trkpt>
      <trkpt lat="40.422133" lon="-5.310483">
        <ele>1912.0</ele>
        <time>2018-07-28T11:58:08Z</time>
      </trkpt>
      <trkpt lat="40.422150" lon="-5.310583">
        <ele>1911.0</ele>
        <time>2018-07-28T11:58:09Z</time>
      </trkpt>
      <trkpt lat="40.422167" lon="-5.310683">
        <ele>1910.0</ele>
        <time>2018-07-28T11:58:10Z</time>
      </trkpt>
      <trkpt lat="40.422167" lon="-5.310783">
        <ele>1909.0</ele>
        <time>2018-07-28T11:58:11Z</time>
      </trkpt>
      <trkpt lat="40.422183" lon="-5.310900">
        <ele>1908.0</ele>
        <time>2018-07-28T11:58:12Z</time>
      </trkpt>
      <trkpt lat="40.422217" lon="-5.311000">
        <ele>1907.0</ele>
        <time>2018-07-28T11:58:13Z</time>
      </trkpt>
      <trkpt lat="40.422250" lon="-5.311117">
        <ele>1907.0</ele>
        <time>2018-07-28T11:58:14Z</time>
      </trkpt>
      <trkpt lat="40.422283" lon="-5.311233">
        <ele>1909.0</ele>
        <time>2018-07-28T11:58:15Z</time>
      </trkpt>
      <trkpt lat="40.422317" lon="-5.311350">
        <ele>1912.0</ele>
        <time>2018-07-28T11:58:16Z</time>
      </trkpt>
      <trkpt lat="40.422300" lon="-5.311467">
        <ele>1914.0</ele>
        <time>2018-07-28T11:58:17Z</time>
      </trkpt>
      <trkpt lat="40.422283" lon="-5.311550">
        <ele>1915.0</ele>
        <time>2018-07-28T11:58:18Z</time>
      </trkpt>
      <trkpt lat="40.422233" lon="-5.311633">
        <ele>1915.0</ele>
        <time>2018-07-28T11:58:19Z</time>
      </trkpt>
      <trkpt lat="40.422183" lon="-5.311717">
        <ele>1914.0</ele>
        <time>2018-07-28T11:58:20Z</time>
      </trkpt>
      <trkpt lat="40.422150" lon="-5.311817">
        <ele>1912.0</ele>
        <time>2018-07-28T11:58:21Z</time>
      </trkpt>
      <trkpt lat="40.422133" lon="-5.311917">
        <ele>1908.0</ele>
        <time>2018-07-28T11:58:22Z</time>
      </trkpt>
      <trkpt lat="40.422150" lon="-5.312050">
        <ele>1905.0</ele>
        <time>2018-07-28T11:58:23Z</time>
      </trkpt>
      <trkpt lat="40.422200" lon="-5.312167">
        <ele>1903.0</ele>
        <time>2018-07-28T11:58:24Z</time>
      </trkpt>
      <trkpt lat="40.422233" lon="-5.312300">
        <ele>1903.0</ele>
        <time>2018-07-28T11:58:25Z</time>
      </trkpt>
      <trkpt lat="40.422250" lon="-5.312417">
        <ele>1904.0</ele>
        <time>2018-07-28T11:58:26Z</time>
      </trkpt>
      <trkpt lat="40.422250" lon="-5.312550">
        <ele>1904.0</ele>
        <time>2018-07-28T11:58:27Z</time>
      </trkpt>
      <trkpt lat="40.422250" lon="-5.312667">
        <ele>1904.0</ele>
        <time>2018-07-28T11:58:28Z</time>
      </trkpt>
      <trkpt lat="40.422267" lon="-5.312800">
        <ele>1904.0</ele>
        <time>2018-07-28T11:58:29Z</time>
      </trkpt>
      <trkpt lat="40.422283" lon="-5.312917">
        <ele>1905.0</ele>
        <time>2018-07-28T11:58:30Z</time>
      </trkpt>
      <trkpt lat="40.422300" lon="-5.313017">
        <ele>1906.0</ele>
        <time>2018-07-28T11:58:31Z</time>
      </trkpt>
      <trkpt lat="40.422317" lon="-5.313133">
        <ele>1906.0</ele>
        <time>2018-07-28T11:58:32Z</time>
      </trkpt>
      <trkpt lat="40.422333" lon="-5.313267">
        <ele>1906.0</ele>
        <time>2018-07-28T11:58:33Z</time>
      </trkpt>
      <trkpt lat="40.422350" lon="-5.313383">
        <ele>1906.0</ele>
        <time>2018-07-28T11:58:34Z</time>
      </trkpt>
      <trkpt lat="40.422383" lon="-5.313500">
        <ele>1907.0</ele>
        <time>2018-07-28T11:58:35Z</time>
      </trkpt>
      <trkpt lat="40.422417" lon="-5.313600">
        <ele>1908.0</ele>
        <time>2018-07-28T11:58:36Z</time>
      </trkpt>
      <trkpt lat="40.422467" lon="-5.313683">
        <ele>1910.0</ele>
        <time>2018-07-28T11:58:37Z</time>
      </trkpt>
      <trkpt lat="40.422533" lon="-5.313750">
        <ele>1911.0</ele>
        <time>2018-07-28T11:58:38Z</time>
      </trkpt>
      <trkpt lat="40.422583" lon="-5.313783">
        <ele>1913.0</ele>
        <time>2018-07-28T11:58:39Z</time>
      </trkpt>
      <trkpt lat="40.422650" lon="-5.313817">
        <ele>1915.0</ele>
        <time>2018-07-28T11:58:40Z</time>
      </trkpt>
      <trkpt lat="40.422717" lon="-5.313833">
        <ele>1918.0</ele>
        <time>2018-07-28T11:58:41Z</time>
      </trkpt>
      <trkpt lat="40.422783" lon="-5.313817">
        <ele>1921.0</ele>
        <time>2018-07-28T11:58:42Z</time>
      </trkpt>
      <trkpt lat="40.422833" lon="-5.313783">
        <ele>1923.0</ele>
        <time>2018-07-28T11:58:43Z</time>
      </trkpt>
      <trkpt lat="40.422867" lon="-5.313733">
        <ele>1925.0</ele>
        <time>2018-07-28T11:58:44Z</time>
      </trkpt>
      <trkpt lat="40.422883" lon="-5.313650">
        <ele>1925.0</ele>
        <time>2018-07-28T11:58:45Z</time>
      </trkpt>
      <trkpt lat="40.422883" lon="-5.313533">
        <ele>1926.0</ele>
        <time>2018-07-28T11:58:46Z</time>
      </trkpt>
      <trkpt lat="40.422850" lon="-5.313417">
        <ele>1926.0</ele>
        <time>2018-07-28T11:58:47Z</time>
      </trkpt>
      <trkpt lat="40.422783" lon="-5.313300">
        <ele>1928.0</ele>
        <time>2018-07-28T11:58:48Z</time>
      </trkpt>
      <trkpt lat="40.422683" lon="-5.313200">
        <ele>1930.0</ele>
        <time>2018-07-28T11:58:49Z</time>
      </trkpt>
      <trkpt lat="40.422567" lon="-5.313167">
        <ele>1932.0</ele>
        <time>2018-07-28T11:58:50Z</time>
      </trkpt>
      <trkpt lat="40.422433" lon="-5.313183">
        <ele>1933.0</ele>
        <time>2018-07-28T11:58:51Z</time>
      </trkpt>
      <trkpt lat="40.422317" lon="-5.313233">
        <ele>1934.0</ele>
        <time>2018-07-28T11:58:52Z</time>
      </trkpt>
      <trkpt lat="40.422200" lon="-5.313300">
        <ele>1936.0</ele>
        <time>2018-07-28T11:58:53Z</time>
      </trkpt>
      <trkpt lat="40.422117" lon="-5.313383">
        <ele>1938.0</ele>
        <time>2018-07-28T11:58:54Z</time>
      </trkpt>
      <trkpt lat="40.422050" lon="-5.313500">
        <ele>1939.0</ele>
        <time>2018-07-28T11:58:55Z</time>
      </trkpt>
      <trkpt lat="40.422000" lon="-5.313633">
        <ele>1940.0</ele>
        <time>2018-07-28T11:58:56Z</time>
      </trkpt>
      <trkpt lat="40.422000" lon="-5.313767">
        <ele>1942.0</ele>
        <time>2018-07-28T11:58:57Z</time>
      </trkpt>
      <trkpt lat="40.422033" lon="-5.313867">
        <ele>1944.0</ele>
        <time>2018-07-28T11:58:58Z</time>
      </trkpt>
      <trkpt lat="40.422083" lon="-5.313933">
        <ele>1946.0</ele>
        <time>2018-07-28T11:58:59Z</time>
      </trkpt>
      <trkpt lat="40.422117" lon="-5.313983">
        <ele>1949.0</ele>
        <time>2018-07-28T11:59:00Z</time>
      </trkpt>
      <trkpt lat="40.422167" lon="-5.314067">
        <ele>1951.0</ele>
        <time>2018-07-28T11:59:01Z</time>
      </trkpt>
      <trkpt lat="40.422183" lon="-5.314133">
        <ele>1953.0</ele>
        <time>2018-07-28T11:59:02Z</time>
      </trkpt>
      <trkpt lat="40.422217" lon="-5.314217">
        <ele>1954.0</ele>
        <time>2018-07-28T11:59:03Z</time>
      </trkpt>
      <trkpt lat="40.422267" lon="-5.314267">
        <ele>1956.0</ele>
        <time>2018-07-28T11:59:04Z</time>
      </trkpt>
      <trkpt lat="40.422333" lon="-5.314300">
        <ele>1957.0</ele>
        <time>2018-07-28T11:59:05Z</time>
      </trkpt>
      <trkpt lat="40.422400" lon="-5.314267">
        <ele>1958.0</ele>
        <time>2018-07-28T11:59:06Z</time>
      </trkpt>
      <trkpt lat="40.422450" lon="-5.314183">
        <ele>1957.0</ele>
        <time>2018-07-28T11:59:07Z</time>
      </trkpt>
      <trkpt lat="40.422483" lon="-5.314050">
        <ele>1957.0</ele>
        <time>2018-07-28T11:59:08Z</time>
      </trkpt>
      <trkpt lat="40.422483" lon="-5.313900">
        <ele>1958.0</ele>
        <time>2018-07-28T11:59:09Z</time>
      </trkpt>
      <trkpt lat="40.422433" lon="-5.313767">
        <ele>1960.0</ele>
        <time>2018-07-28T11:59:10Z</time>
      </trkpt>
      <trkpt lat="40.422383" lon="-5.313650">
        <ele>1962.0</ele>
        <time>2018-07-28T11:59:11Z</time>
      </trkpt>
      <trkpt lat="40.422317" lon="-5.313533">
        <ele>1964.0</ele>
        <time>2018-07-28T11:59:12Z</time>
      </trkpt>
      <trkpt lat="40.422267" lon="-5.313450">
        <ele>1965.0</ele>
        <time>2018-07-28T11:59:13Z</time>
      </trkpt>
      <trkpt lat="40.422183" lon="-5.313350">
        <ele>1965.0</ele>
        <time>2018-07-28T11:59:14Z</time>
      </trkpt>
      <trkpt lat="40.422083" lon="-5.313267">
        <ele>1965.0</ele>
        <time>2018-07-28T11:59:15Z</time>
      </trkpt>
      <trkpt lat="40.421967" lon="-5.313183">
        <ele>1966.0</ele>
        <time>2018-07-28T11:59:16Z</time>
      </trkpt>
      <trkpt lat="40.421833" lon="-5.313150">
        <ele>1966.0</ele>
        <time>2018-07-28T11:59:17Z</time>
      </trkpt>
      <trkpt lat="40.421700" lon="-5.313150">
        <ele>1968.0</ele>
        <time>2018-07-28T11:59:18Z</time>
      </trkpt>
      <trkpt lat="40.421567" lon="-5.313200">
        <ele>1970.0</ele>
        <time>2018-07-28T11:59:19Z</time>
      </trkpt>
      <trkpt lat="40.421433" lon="-5.313267">
        <ele>1973.0</ele>
        <time>2018-07-28T11:59:20Z</time>
      </trkpt>
      <trkpt lat="40.421333" lon="-5.313367">
        <ele>1975.0</ele>
        <time>2018-07-28T11:59:21Z</time>
      </trkpt>
      <trkpt lat="40.421233" lon="-5.313467">
        <ele>1977.0</ele>
        <time>2018-07-28T11:59:22Z</time>
      </trkpt>
      <trkpt lat="40.421150" lon="-5.313583">
        <ele>1980.0</ele>
        <time>2018-07-28T11:59:23Z</time>
      </trkpt>
      <trkpt lat="40.421083" lon="-5.313700">
        <ele>1983.0</ele>
        <time>2018-07-28T11:59:24Z</time>
      </trkpt>
      <trkpt lat="40.421017" lon="-5.313817">
        <ele>1986.0</ele>
        <time>2018-07-28T11:59:25Z</time>
      </trkpt>
      <trkpt lat="40.420983" lon="-5.313917">
        <ele>1989.0</ele>
        <time>2018-07-28T11:59:26Z</time>
      </trkpt>
      <trkpt lat="40.420950" lon="-5.314033">
        <ele>1991.0</ele>
        <time>2018-07-28T11:59:27Z</time>
      </trkpt>
      <trkpt lat="40.420917" lon="-5.314150">
        <ele>1993.0</ele>
        <time>2018-07-28T11:59:28Z</time>
      </trkpt>
      <trkpt lat="40.420900" lon="-5.314267">
        <ele>1994.0</ele>
        <time>2018-07-28T11:59:29Z</time>
      </trkpt>
      <trkpt lat="40.420900" lon="-5.314367">
        <ele>1995.0</ele>
        <time>2018-07-28T11:59:30Z</time>
      </trkpt>
      <trkpt lat="40.420933" lon="-5.314450">
        <ele>1994.0</ele>
        <time>2018-07-28T11:59:31Z</time>
      </trkpt>
      <trkpt lat="40.420983" lon="-5.314500">
        <ele>1993.0</ele>
        <time>2018-07-28T11:59:32Z</time>
      </trkpt>
      <trkpt lat="40.421050" lon="-5.314533">
        <ele>1992.0</ele>
        <time>2018-07-28T11:59:33Z</time>
      </trkpt>
      <trkpt lat="40.421133" lon="-5.314533">
        <ele>1992.0</ele>
        <time>2018-07-28T11:59:34Z</time>
      </trkpt>
      <trkpt lat="40.421200" lon="-5.314533">
        <ele>1993.0</ele>
        <time>2018-07-28T11:59:35Z</time>
      </trkpt>
      <trkpt lat="40.421250" lon="-5.314500">
        <ele>1994.0</ele>
        <time>2018-07-28T11:59:36Z</time>
      </trkpt>
      <trkpt lat="40.421317" lon="-5.314450">
        <ele>1994.0</ele>
        <time>2018-07-28T11:59:37Z</time>
      </trkpt>
      <trkpt lat="40.421367" lon="-5.314383">
        <ele>1995.0</ele>
        <time>2018-07-28T11:59:38Z</time>
      </trkpt>
      <trkpt lat="40.421417" lon="-5.314317">
        <ele>1995.0</ele>
        <time>2018-07-28T11:59:39Z</time>
      </trkpt>
      <trkpt lat="40.421467" lon="-5.314217">
        <ele>1997.0</ele>
        <time>2018-07-28T11:59:40Z</time>
      </trkpt>
      <trkpt lat="40.421500" lon="-5.314133">
        <ele>1999.0</ele>
        <time>2018-07-28T11:59:41Z</time>
      </trkpt>
      <trkpt lat="40.421533" lon="-5.314050">
        <ele>2001.0</ele>
        <time>2018-07-28T11:59:42Z</time>
      </trkpt>
      <trkpt lat="40.421550" lon="-5.313950">
        <ele>2003.0</ele>
        <time>2018-07-28T11:59:43Z</time>
      </trkpt>
      <trkpt lat="40.421550" lon="-5.313850">
        <ele>2004.0</ele>
        <time>2018-07-28T11:59:44Z</time>
      </trkpt>
      <trkpt lat="40.421533" lon="-5.313717">
        <ele>2004.0</ele>
        <time>2018-07-28T11:59:45Z</time>
      </trkpt>
      <trkpt lat="40.421517" lon="-5.313583">
        <ele>2004.0</ele>
        <time>2018-07-28T11:59:46Z</time>
      </trkpt>
      <trkpt lat="40.421467" lon="-5.313433">
        <ele>2005.0</ele>
        <time>2018-07-28T11:59:47Z</time>
      </trkpt>
      <trkpt lat="40.421433" lon="-5.313317">
        <ele>2006.0</ele>
        <time>2018-07-28T11:59:48Z</time>
      </trkpt>
      <trkpt lat="40.421383" lon="-5.313200">
        <ele>2007.0</ele>
        <time>2018-07-28T11:59:49Z</time>
      </trkpt>
      <trkpt lat="40.421317" lon="-5.313083">
        <ele>2008.0</ele>
        <time>2018-07-28T11:59:50Z</time>
      </trkpt>
      <trkpt lat="40.421233" lon="-5.312967">
        <ele>2008.0</ele>
        <time>2018-07-28T11:59:51Z</time>
      </trkpt>
      <trkpt lat="40.421117" lon="-5.312867">
        <ele>2008.0</ele>
        <time>2018-07-28T11:59:52Z</time>
      </trkpt>
      <trkpt lat="40.421000" lon="-5.312783">
        <ele>2009.0</ele>
        <time>2018-07-28T11:59:53Z</time>
      </trkpt>
      <trkpt lat="40.420867" lon="-5.312733">
        <ele>2010.0</ele>
        <time>2018-07-28T11:59:54Z</time>
      </trkpt>
      <trkpt lat="40.420733" lon="-5.312700">
        <ele>2010.0</ele>
        <time>2018-07-28T11:59:55Z</time>
      </trkpt>
      <trkpt lat="40.420583" lon="-5.312683">
        <ele>2009.0</ele>
        <time>2018-07-28T11:59:56Z</time>
      </trkpt>
      <trkpt lat="40.420450" lon="-5.312700">
        <ele>2009.0</ele>
        <time>2018-07-28T11:59:57Z</time>
      </trkpt>
      <trkpt lat="40.420317" lon="-5.312750">
        <ele>2010.0</ele>
        <time>2018-07-28T11:59:58Z</time>
      </trkpt>
      <trkpt lat="40.420217" lon="-5.312833">
        <ele>2009.0</ele>
        <time>2018-07-28T11:59:59Z</time>
      </trkpt>
      <trkpt lat="40.420117" lon="-5.312933">
        <ele>2008.0</ele>
        <time>2018-07-28T12:00:00Z</time>
      </trkpt>
      <trkpt lat="40.420050" lon="-5.313067">
        <ele>2008.0</ele>
        <time>2018-07-28T12:00:01Z</time>
      </trkpt>
      <trkpt lat="40.419983" lon="-5.313200">
        <ele>2010.0</ele>
        <time>2018-07-28T12:00:02Z</time>
      </trkpt>
      <trkpt lat="40.419967" lon="-5.313333">
        <ele>2013.0</ele>
        <time>2018-07-28T12:00:03Z</time>
      </trkpt>
      <trkpt lat="40.419950" lon="-5.313467">
        <ele>2015.0</ele>
        <time>2018-07-28T12:00:04Z</time>
      </trkpt>
      <trkpt lat="40.419967" lon="-5.313583">
        <ele>2018.0</ele>
        <time>2018-07-28T12:00:05Z</time>
      </trkpt>
      <trkpt lat="40.420000" lon="-5.313683">
        <ele>2021.0</ele>
        <time>2018-07-28T12:00:06Z</time>
      </trkpt>
      <trkpt lat="40.420017" lon="-5.313767">
        <ele>2023.0</ele>
        <time>2018-07-28T12:00:07Z</time>
      </trkpt>
      <trkpt lat="40.420017" lon="-5.313867">
        <ele>2024.0</ele>
        <time>2018-07-28T12:00:08Z</time>
      </trkpt>
      <trkpt lat="40.420033" lon="-5.313967">
        <ele>2025.0</ele>
        <time>2018-07-28T12:00:09Z</time>
      </trkpt>
      <trkpt lat="40.420033" lon="-5.314050">
        <ele>2026.0</ele>
        <time>2018-07-28T12:00:10Z</time>
      </trkpt>
      <trkpt lat="40.420033" lon="-5.314150">
        <ele>2026.0</ele>
        <time>2018-07-28T12:00:11Z</time>
      </trkpt>
      <trkpt lat="40.420033" lon="-5.314233">
        <ele>2027.0</ele>
        <time>2018-07-28T12:00:12Z</time>
      </trkpt>
      <trkpt lat="40.420050" lon="-5.314300">
        <ele>2027.0</ele>
        <time>2018-07-28T12:00:13Z</time>
      </trkpt>
      <trkpt lat="40.420083" lon="-5.314333">
        <ele>2026.0</ele>
        <time>2018-07-28T12:00:14Z</time>
      </trkpt>
      <trkpt lat="40.420133" lon="-5.314350">
        <ele>2025.0</ele>
        <time>2018-07-28T12:00:15Z</time>
      </trkpt>
      <trkpt lat="40.420183" lon="-5.314350">
        <ele>2023.0</ele>
        <time>2018-07-28T12:00:16Z</time>
      </trkpt>
      <trkpt lat="40.420250" lon="-5.314350">
        <ele>2022.0</ele>
        <time>2018-07-28T12:00:17Z</time>
      </trkpt>
      <trkpt lat="40.420317" lon="-5.314300">
        <ele>2022.0</ele>
        <time>2018-07-28T12:00:18Z</time>
      </trkpt>
      <trkpt lat="40.420383" lon="-5.314217">
        <ele>2022.0</ele>
        <time>2018-07-28T12:00:19Z</time>
      </trkpt>
      <trkpt lat="40.420417" lon="-5.314117">
        <ele>2023.0</ele>
        <time>2018-07-28T12:00:20Z</time>
      </trkpt>
      <trkpt lat="40.420450" lon="-5.314017">
        <ele>2024.0</ele>
        <time>2018-07-28T12:00:21Z</time>
      </trkpt>
      <trkpt lat="40.420467" lon="-5.313917">
        <ele>2025.0</ele>
        <time>2018-07-28T12:00:22Z</time>
      </trkpt>
      <trkpt lat="40.420467" lon="-5.313817">
        <ele>2027.0</ele>
        <time>2018-07-28T12:00:23Z</time>
      </trkpt>
      <trkpt lat="40.420450" lon="-5.313683">
        <ele>2027.0</ele>
        <time>2018-07-28T12:00:24Z</time>
      </trkpt>
      <trkpt lat="40.420433" lon="-5.313550">
        <ele>2027.0</ele>
        <time>2018-07-28T12:00:25Z</time>
      </trkpt>
      <trkpt lat="40.420400" lon="-5.313417">
        <ele>2027.0</ele>
        <time>2018-07-28T12:00:26Z</time>
      </trkpt>
      <trkpt lat="40.420350" lon="-5.313283">
        <ele>2028.0</ele>
        <time>2018-07-28T12:00:27Z</time>
      </trkpt>
      <trkpt lat="40.420300" lon="-5.313183">
        <ele>2029.0</ele>
        <time>2018-07-28T12:00:28Z</time>
      </trkpt>
      <trkpt lat="40.420233" lon="-5.313083">
        <ele>2028.0</ele>
        <time>2018-07-28T12:00:29Z</time>
      </trkpt>
      <trkpt lat="40.420150" lon="-5.312967">
        <ele>2027.0</ele>
        <time>2018-07-28T12:00:30Z</time>
      </trkpt>
      <trkpt lat="40.420033" lon="-5.312867">
        <ele>2026.0</ele>
        <time>2018-07-28T12:00:31Z</time>
      </trkpt>
      <trkpt lat="40.419917" lon="-5.312783">
        <ele>2026.0</ele>
        <time>2018-07-28T12:00:32Z</time>
      </trkpt>
      <trkpt lat="40.419767" lon="-5.312717">
        <ele>2028.0</ele>
        <time>2018-07-28T12:00:33Z</time>
      </trkpt>
      <trkpt lat="40.419650" lon="-5.312667">
        <ele>2031.0</ele>
        <time>2018-07-28T12:00:34Z</time>
      </trkpt>
      <trkpt lat="40.419533" lon="-5.312617">
        <ele>2033.0</ele>
        <time>2018-07-28T12:00:35Z</time>
      </trkpt>
      <trkpt lat="40.419417" lon="-5.312583">
        <ele>2035.0</ele>
        <time>2018-07-28T12:00:36Z</time>
      </trkpt>
      <trkpt lat="40.419300" lon="-5.312550">
        <ele>2036.0</ele>
        <time>2018-07-28T12:00:37Z</time>
      </trkpt>
      <trkpt lat="40.419167" lon="-5.312550">
        <ele>2036.0</ele>
        <time>2018-07-28T12:00:38Z</time>
      </trkpt>
      <trkpt lat="40.419033" lon="-5.312567">
        <ele>2036.0</ele>
        <time>2018-07-28T12:00:39Z</time>
      </trkpt>
      <trkpt lat="40.418900" lon="-5.312600">
        <ele>2037.0</ele>
        <time>2018-07-28T12:00:40Z</time>
      </trkpt>
      <trkpt lat="40.418783" lon="-5.312667">
        <ele>2038.0</ele>
        <time>2018-07-28T12:00:41Z</time>
      </trkpt>
      <trkpt lat="40.418700" lon="-5.312767">
        <ele>2038.0</ele>
        <time>2018-07-28T12:00:42Z</time>
      </trkpt>
      <trkpt lat="40.418633" lon="-5.312883">
        <ele>2038.0</ele>
        <time>2018-07-28T12:00:43Z</time>
      </trkpt>
      <trkpt lat="40.418583" lon="-5.313017">
        <ele>2039.0</ele>
        <time>2018-07-28T12:00:44Z</time>
      </trkpt>
      <trkpt lat="40.418550" lon="-5.313133">
        <ele>2040.0</ele>
        <time>2018-07-28T12:00:45Z</time>
      </trkpt>
      <trkpt lat="40.418533" lon="-5.313250">
        <ele>2041.0</ele>
        <time>2018-07-28T12:00:46Z</time>
      </trkpt>
      <trkpt lat="40.418533" lon="-5.313350">
        <ele>2042.0</ele>
        <time>2018-07-28T12:00:47Z</time>
      </trkpt>
      <trkpt lat="40.418550" lon="-5.313450">
        <ele>2043.0</ele>
        <time>2018-07-28T12:00:48Z</time>
      </trkpt>
      <trkpt lat="40.418583" lon="-5.313533">
        <ele>2042.0</ele>
        <time>2018-07-28T12:00:49Z</time>
      </trkpt>
      <trkpt lat="40.418617" lon="-5.313617">
        <ele>2043.0</ele>
        <time>2018-07-28T12:00:50Z</time>
      </trkpt>
      <trkpt lat="40.418650" lon="-5.313683">
        <ele>2043.0</ele>
        <time>2018-07-28T12:00:51Z</time>
      </trkpt>
      <trkpt lat="40.418683" lon="-5.313733">
        <ele>2044.0</ele>
        <time>2018-07-28T12:00:52Z</time>
      </trkpt>
      <trkpt lat="40.418700" lon="-5.313783">
        <ele>2044.0</ele>
        <time>2018-07-28T12:00:53Z</time>
      </trkpt>
      <trkpt lat="40.418750" lon="-5.313800">
        <ele>2043.0</ele>
        <time>2018-07-28T12:00:54Z</time>
      </trkpt>
      <trkpt lat="40.418783" lon="-5.313800">
        <ele>2042.0</ele>
        <time>2018-07-28T12:00:55Z</time>
      </trkpt>
      <trkpt lat="40.418833" lon="-5.313783">
        <ele>2041.0</ele>
        <time>2018-07-28T12:00:56Z</time>
      </trkpt>
      <trkpt lat="40.418883" lon="-5.313783">
        <ele>2040.0</ele>
        <time>2018-07-28T12:00:57Z</time>
      </trkpt>
      <trkpt lat="40.418933" lon="-5.313750">
        <ele>2039.0</ele>
        <time>2018-07-28T12:00:58Z</time>
      </trkpt>
      <trkpt lat="40.418967" lon="-5.313717">
        <ele>2039.0</ele>
        <time>2018-07-28T12:00:59Z</time>
      </trkpt>
      <trkpt lat="40.419017" lon="-5.313650">
        <ele>2038.0</ele>
        <time>2018-07-28T12:01:00Z</time>
      </trkpt>
      <trkpt lat="40.419067" lon="-5.313567">
        <ele>2038.0</ele>
        <time>2018-07-28T12:01:01Z</time>
      </trkpt>
      <trkpt lat="40.419100" lon="-5.313483">
        <ele>2038.0</ele>
        <time>2018-07-28T12:01:02Z</time>
      </trkpt>
      <trkpt lat="40.419133" lon="-5.313383">
        <ele>2038.0</ele>
        <time>2018-07-28T12:01:03Z</time>
      </trkpt>
      <trkpt lat="40.419150" lon="-5.313283">
        <ele>2038.0</ele>
        <time>2018-07-28T12:01:04Z</time>
      </trkpt>
      <trkpt lat="40.419150" lon="-5.313167">
        <ele>2038.0</ele>
        <time>2018-07-28T12:01:05Z</time>
      </trkpt>
      <trkpt lat="40.419133" lon="-5.313050">
        <ele>2039.0</ele>
        <time>2018-07-28T12:01:06Z</time>
      </trkpt>
      <trkpt lat="40.419117" lon="-5.312917">
        <ele>2039.0</ele>
        <time>2018-07-28T12:01:07Z</time>
      </trkpt>
      <trkpt lat="40.419100" lon="-5.312800">
        <ele>2039.0</ele>
        <time>2018-07-28T12:01:08Z</time>
      </trkpt>
      <trkpt lat="40.419050" lon="-5.312667">
        <ele>2041.0</ele>
        <time>2018-07-28T12:01:09Z</time>
      </trkpt>
      <trkpt lat="40.418983" lon="-5.312550">
        <ele>2042.0</ele>
        <time>2018-07-28T12:01:10Z</time>
      </trkpt>
      <trkpt lat="40.418933" lon="-5.312417">
        <ele>2043.0</ele>
        <time>2018-07-28T12:01:11Z</time>
      </trkpt>
      <trkpt lat="40.418917" lon="-5.312283">
        <ele>2043.0</ele>
        <time>2018-07-28T12:01:12Z</time>
      </trkpt>
      <trkpt lat="40.418900" lon="-5.312167">
        <ele>2044.0</ele>
        <time>2018-07-28T12:01:13Z</time>
      </trkpt>
      <trkpt lat="40.418883" lon="-5.312050">
        <ele>2045.0</ele>
        <time>2018-07-28T12:01:14Z</time>
      </trkpt>
      <trkpt lat="40.418850" lon="-5.311950">
        <ele>2045.0</ele>
        <time>2018-07-28T12:01:15Z</time>
      </trkpt>
      <trkpt lat="40.418767" lon="-5.311867">
        <ele>2043.0</ele>
        <time>2018-07-28T12:01:16Z</time>
      </trkpt>
      <trkpt lat="40.418650" lon="-5.311800">
        <ele>2041.0</ele>
        <time>2018-07-28T12:01:17Z</time>
      </trkpt>
      <trkpt lat="40.418517" lon="-5.311767">
        <ele>2039.0</ele>
        <time>2018-07-28T12:01:18Z</time>
      </trkpt>
      <trkpt lat="40.418383" lon="-5.311750">
        <ele>2038.0</ele>
        <time>2018-07-28T12:01:19Z</time>
      </trkpt>
      <trkpt lat="40.418250" lon="-5.311783">
        <ele>2038.0</ele>
        <time>2018-07-28T12:01:20Z</time>
      </trkpt>
      <trkpt lat="40.418133" lon="-5.311850">
        <ele>2038.0</ele>
        <time>2018-07-28T12:01:21Z</time>
      </trkpt>
      <trkpt lat="40.418050" lon="-5.311917">
        <ele>2039.0</ele>
        <time>2018-07-28T12:01:22Z</time>
      </trkpt>
      <trkpt lat="40.417983" lon="-5.312017">
        <ele>2039.0</ele>
        <time>2018-07-28T12:01:23Z</time>
      </trkpt>
      <trkpt lat="40.417917" lon="-5.312117">
        <ele>2038.0</ele>
        <time>2018-07-28T12:01:24Z</time>
      </trkpt>
      <trkpt lat="40.417883" lon="-5.312217">
        <ele>2038.0</ele>
        <time>2018-07-28T12:01:25Z</time>
      </trkpt>
      <trkpt lat="40.417883" lon="-5.312350">
        <ele>2038.0</ele>
        <time>2018-07-28T12:01:26Z</time>
      </trkpt>
      <trkpt lat="40.417900" lon="-5.312450">
        <ele>2038.0</ele>
        <time>2018-07-28T12:01:27Z</time>
      </trkpt>
      <trkpt lat="40.417950" lon="-5.312550">
        <ele>2040.0</ele>
        <time>2018-07-28T12:01:28Z</time>
      </trkpt>
      <trkpt lat="40.417983" lon="-5.312617">
        <ele>2042.0</ele>
        <time>2018-07-28T12:01:29Z</time>
      </trkpt>
      <trkpt lat="40.418017" lon="-5.312667">
        <ele>2043.0</ele>
        <time>2018-07-28T12:01:30Z</time>
      </trkpt>
      <trkpt lat="40.418033" lon="-5.312733">
        <ele>2044.0</ele>
        <time>2018-07-28T12:01:31Z</time>
      </trkpt>
      <trkpt lat="40.418067" lon="-5.312783">
        <ele>2043.0</ele>
        <time>2018-07-28T12:01:32Z</time>
      </trkpt>
      <trkpt lat="40.418117" lon="-5.312850">
        <ele>2042.0</ele>
        <time>2018-07-28T12:01:33Z</time>
      </trkpt>
      <trkpt lat="40.418167" lon="-5.312917">
        <ele>2042.0</ele>
        <time>2018-07-28T12:01:34Z</time>
      </trkpt>
      <trkpt lat="40.418233" lon="-5.312983">
        <ele>2043.0</ele>
        <time>2018-07-28T12:01:35Z</time>
      </trkpt>
      <trkpt lat="40.418283" lon="-5.313017">
        <ele>2044.0</ele>
        <time>2018-07-28T12:01:36Z</time>
      </trkpt>
      <trkpt lat="40.418333" lon="-5.313050">
        <ele>2044.0</ele>
        <time>2018-07-28T12:01:37Z</time>
      </trkpt>
      <trkpt lat="40.418367" lon="-5.313100">
        <ele>2043.0</ele>
        <time>2018-07-28T12:01:38Z</time>
      </trkpt>
      <trkpt lat="40.418417" lon="-5.313133">
        <ele>2041.0</ele>
        <time>2018-07-28T12:01:39Z</time>
      </trkpt>
      <trkpt lat="40.418467" lon="-5.313183">
        <ele>2038.0</ele>
        <time>2018-07-28T12:01:40Z</time>
      </trkpt>
      <trkpt lat="40.418533" lon="-5.313250">
        <ele>2037.0</ele>
        <time>2018-07-28T12:01:41Z</time>
      </trkpt>
      <trkpt lat="40.418600" lon="-5.313300">
        <ele>2036.0</ele>
        <time>2018-07-28T12:01:42Z</time>
      </trkpt>
      <trkpt lat="40.418667" lon="-5.313350">
        <ele>2037.0</ele>
        <time>2018-07-28T12:01:43Z</time>
      </trkpt>
      <trkpt lat="40.418717" lon="-5.313417">
        <ele>2037.0</ele>
        <time>2018-07-28T12:01:44Z</time>
      </trkpt>
      <trkpt lat="40.418767" lon="-5.313467">
        <ele>2038.0</ele>
        <time>2018-07-28T12:01:45Z</time>
      </trkpt>
      <trkpt lat="40.418817" lon="-5.313533">
        <ele>2038.0</ele>
        <time>2018-07-28T12:01:46Z</time>
      </trkpt>
      <trkpt lat="40.418867" lon="-5.313617">
        <ele>2038.0</ele>
        <time>2018-07-28T12:01:47Z</time>
      </trkpt>
      <trkpt lat="40.418917" lon="-5.313700">
        <ele>2039.0</ele>
        <time>2018-07-28T12:01:48Z</time>
      </trkpt>
      <trkpt lat="40.418950" lon="-5.313783">
        <ele>2039.0</ele>
        <time>2018-07-28T12:01:49Z</time>
      </trkpt>
      <trkpt lat="40.418983" lon="-5.313850">
        <ele>2038.0</ele>
        <time>2018-07-28T12:01:50Z</time>
      </trkpt>
      <trkpt lat="40.419017" lon="-5.313933">
        <ele>2037.0</ele>
        <time>2018-07-28T12:01:51Z</time>
      </trkpt>
      <trkpt lat="40.419067" lon="-5.314033">
        <ele>2036.0</ele>
        <time>2018-07-28T12:01:52Z</time>
      </trkpt>
      <trkpt lat="40.419117" lon="-5.314133">
        <ele>2038.0</ele>
        <time>2018-07-28T12:01:53Z</time>
      </trkpt>
      <trkpt lat="40.419133" lon="-5.314233">
        <ele>2041.0</ele>
        <time>2018-07-28T12:01:54Z</time>
      </trkpt>
      <trkpt lat="40.419150" lon="-5.314317">
        <ele>2044.0</ele>
        <time>2018-07-28T12:01:55Z</time>
      </trkpt>
      <trkpt lat="40.419150" lon="-5.314367">
        <ele>2046.0</ele>
        <time>2018-07-28T12:01:56Z</time>
      </trkpt>
      <trkpt lat="40.419167" lon="-5.314433">
        <ele>2046.0</ele>
        <time>2018-07-28T12:01:57Z</time>
      </trkpt>
      <trkpt lat="40.419183" lon="-5.314483">
        <ele>2045.0</ele>
        <time>2018-07-28T12:01:58Z</time>
      </trkpt>
      <trkpt lat="40.419233" lon="-5.314533">
        <ele>2044.0</ele>
        <time>2018-07-28T12:01:59Z</time>
      </trkpt>
      <trkpt lat="40.419300" lon="-5.314567">
        <ele>2044.0</ele>
        <time>2018-07-28T12:02:00Z</time>
      </trkpt>
      <trkpt lat="40.419367" lon="-5.314567">
        <ele>2045.0</ele>
        <time>2018-07-28T12:02:01Z</time>
      </trkpt>
      <trkpt lat="40.419417" lon="-5.314500">
        <ele>2045.0</ele>
        <time>2018-07-28T12:02:02Z</time>
      </trkpt>
      <trkpt lat="40.419450" lon="-5.314400">
        <ele>2045.0</ele>
        <time>2018-07-28T12:02:03Z</time>
      </trkpt>
      <trkpt lat="40.419450" lon="-5.314283">
        <ele>2046.0</ele>
        <time>2018-07-28T12:02:04Z</time>
      </trkpt>
      <trkpt lat="40.419433" lon="-5.314167">
        <ele>2047.0</ele>
        <time>2018-07-28T12:02:05Z</time>
      </trkpt>
      <trkpt lat="40.419383" lon="-5.314050">
        <ele>2047.0</ele>
        <time>2018-07-28T12:02:06Z</time>
      </trkpt>
      <trkpt lat="40.419317" lon="-5.313933">
        <ele>2046.0</ele>
        <time>2018-07-28T12:02:07Z</time>
      </trkpt>
      <trkpt lat="40.419217" lon="-5.313833">
        <ele>2044.0</ele>
        <time>2018-07-28T12:02:08Z</time>
      </trkpt>
      <trkpt lat="40.419100" lon="-5.313733">
        <ele>2043.0</ele>
        <time>2018-07-28T12:02:09Z</time>
      </trkpt>
      <trkpt lat="40.418967" lon="-5.313667">
        <ele>2043.0</ele>
        <time>2018-07-28T12:02:10Z</time>
      </trkpt>
      <trkpt lat="40.418833" lon="-5.313617">
        <ele>2043.0</ele>
        <time>2018-07-28T12:02:11Z</time>
      </trkpt>
      <trkpt lat="40.418683" lon="-5.313617">
        <ele>2044.0</ele>
        <time>2018-07-28T12:02:12Z</time>
      </trkpt>
      <trkpt lat="40.418550" lon="-5.313650">
        <ele>2046.0</ele>
        <time>2018-07-28T12:02:13Z</time>
      </trkpt>
      <trkpt lat="40.418433" lon="-5.313700">
        <ele>2048.0</ele>
        <time>2018-07-28T12:02:14Z</time>
      </trkpt>
      <trkpt lat="40.418317" lon="-5.313750">
        <ele>2050.0</ele>
        <time>2018-07-28T12:02:15Z</time>
      </trkpt>
      <trkpt lat="40.418217" lon="-5.313817">
        <ele>2051.0</ele>
        <time>2018-07-28T12:02:16Z</time>
      </trkpt>
      <trkpt lat="40.418117" lon="-5.313867">
        <ele>2052.0</ele>
        <time>2018-07-28T12:02:17Z</time>
      </trkpt>
      <trkpt lat="40.418050" lon="-5.313950">
        <ele>2052.0</ele>
        <time>2018-07-28T12:02:18Z</time>
      </trkpt>
      <trkpt lat="40.417983" lon="-5.314050">
        <ele>2050.0</ele>
        <time>2018-07-28T12:02:19Z</time>
      </trkpt>
      <trkpt lat="40.417950" lon="-5.314167">
        <ele>2049.0</ele>
        <time>2018-07-28T12:02:20Z</time>
      </trkpt>
      <trkpt lat="40.417933" lon="-5.314300">
        <ele>2048.0</ele>
        <time>2018-07-28T12:02:21Z</time>
      </trkpt>
      <trkpt lat="40.417933" lon="-5.314417">
        <ele>2048.0</ele>
        <time>2018-07-28T12:02:22Z</time>
      </trkpt>
      <trkpt lat="40.417950" lon="-5.314517">
        <ele>2049.0</ele>
        <time>2018-07-28T12:02:23Z</time>
      </trkpt>
      <trkpt lat="40.417983" lon="-5.314600">
        <ele>2049.0</ele>
        <time>2018-07-28T12:02:24Z</time>
      </trkpt>
      <trkpt lat="40.418033" lon="-5.314650">
        <ele>2048.0</ele>
        <time>2018-07-28T12:02:25Z</time>
      </trkpt>
      <trkpt lat="40.418100" lon="-5.314700">
        <ele>2048.0</ele>
        <time>2018-07-28T12:02:26Z</time>
      </trkpt>
      <trkpt lat="40.418150" lon="-5.314750">
        <ele>2049.0</ele>
        <time>2018-07-28T12:02:27Z</time>
      </trkpt>
      <trkpt lat="40.418217" lon="-5.314783">
        <ele>2049.0</ele>
        <time>2018-07-28T12:02:28Z</time>
      </trkpt>
      <trkpt lat="40.418267" lon="-5.314800">
        <ele>2049.0</ele>
        <time>2018-07-28T12:02:29Z</time>
      </trkpt>
      <trkpt lat="40.418317" lon="-5.314833">
        <ele>2049.0</ele>
        <time>2018-07-28T12:02:30Z</time>
      </trkpt>
      <trkpt lat="40.418383" lon="-5.314850">
        <ele>2047.0</ele>
        <time>2018-07-28T12:02:31Z</time>
      </trkpt>
      <trkpt lat="40.418450" lon="-5.314883">
        <ele>2045.0</ele>
        <time>2018-07-28T12:02:32Z</time>
      </trkpt>
      <trkpt lat="40.418533" lon="-5.314900">
        <ele>2043.0</ele>
        <time>2018-07-28T12:02:33Z</time>
      </trkpt>
      <trkpt lat="40.418600" lon="-5.314933">
        <ele>2042.0</ele>
        <time>2018-07-28T12:02:34Z</time>
      </trkpt>
      <trkpt lat="40.418683" lon="-5.314950">
        <ele>2041.0</ele>
        <time>2018-07-28T12:02:35Z</time>
      </trkpt>
      <trkpt lat="40.418750" lon="-5.315000">
        <ele>2042.0</ele>
        <time>2018-07-28T12:02:36Z</time>
      </trkpt>
      <trkpt lat="40.418817" lon="-5.315050">
        <ele>2042.0</ele>
        <time>2018-07-28T12:02:37Z</time>
      </trkpt>
      <trkpt lat="40.418867" lon="-5.315100">
        <ele>2043.0</ele>
        <time>2018-07-28T12:02:38Z</time>
      </trkpt>
      <trkpt lat="40.418917" lon="-5.315133">
        <ele>2042.0</ele>
        <time>2018-07-28T12:02:39Z</time>
      </trkpt>
      <trkpt lat="40.418967" lon="-5.315167">
        <ele>2041.0</ele>
        <time>2018-07-28T12:02:40Z</time>
      </trkpt>
      <trkpt lat="40.419033" lon="-5.315200">
        <ele>2039.0</ele>
        <time>2018-07-28T12:02:41Z</time>
      </trkpt>
      <trkpt lat="40.419083" lon="-5.315233">
        <ele>2037.0</ele>
        <time>2018-07-28T12:02:42Z</time>
      </trkpt>
      <trkpt lat="40.419150" lon="-5.315267">
        <ele>2037.0</ele>
        <time>2018-07-28T12:02:43Z</time>
      </trkpt>
      <trkpt lat="40.419217" lon="-5.315300">
        <ele>2038.0</ele>
        <time>2018-07-28T12:02:44Z</time>
      </trkpt>
      <trkpt lat="40.419267" lon="-5.315333">
        <ele>2040.0</ele>
        <time>2018-07-28T12:02:45Z</time>
      </trkpt>
      <trkpt lat="40.419300" lon="-5.315367">
        <ele>2040.0</ele>
        <time>2018-07-28T12:02:46Z</time>
      </trkpt>
      <trkpt lat="40.419333" lon="-5.315417">
        <ele>2041.0</ele>
        <time>2018-07-28T12:02:47Z</time>
      </trkpt>
      <trkpt lat="40.419367" lon="-5.315450">
        <ele>2040.0</ele>
        <time>2018-07-28T12:02:48Z</time>
      </trkpt>
      <trkpt lat="40.419433" lon="-5.315500">
        <ele>2040.0</ele>
        <time>2018-07-28T12:02:49Z</time>
      </trkpt>
      <trkpt lat="40.419483" lon="-5.315533">
        <ele>2040.0</ele>
        <time>2018-07-28T12:02:50Z</time>
      </trkpt>
      <trkpt lat="40.419550" lon="-5.315567">
        <ele>2042.0</ele>
        <time>2018-07-28T12:02:51Z</time>
      </trkpt>
      <trkpt lat="40.419617" lon="-5.315617">
        <ele>2045.0</ele>
        <time>2018-07-28T12:02:52Z</time>
      </trkpt>
      <trkpt lat="40.419667" lon="-5.315683">
        <ele>2047.0</ele>
        <time>2018-07-28T12:02:53Z</time>
      </trkpt>
      <trkpt lat="40.419700" lon="-5.315750">
        <ele>2050.0</ele>
        <time>2018-07-28T12:02:54Z</time>
      </trkpt>
      <trkpt lat="40.419750" lon="-5.315783">
        <ele>2052.0</ele>
        <time>2018-07-28T12:02:55Z</time>
      </trkpt>
      <trkpt lat="40.419800" lon="-5.315800">
        <ele>2053.0</ele>
        <time>2018-07-28T12:02:56Z</time>
      </trkpt>
      <trkpt lat="40.419850" lon="-5.315783">
        <ele>2054.0</ele>
        <time>2018-07-28T12:02:57Z</time>
      </trkpt>
      <trkpt lat="40.419917" lon="-5.315767">
        <ele>2056.0</ele>
        <time>2018-07-28T12:02:58Z</time>
      </trkpt>
      <trkpt lat="40.419967" lon="-5.315700">
        <ele>2057.0</ele>
        <time>2018-07-28T12:02:59Z</time>
      </trkpt>
      <trkpt lat="40.420000" lon="-5.315583">
        <ele>2058.0</ele>
        <time>2018-07-28T12:03:00Z</time>
      </trkpt>
      <trkpt lat="40.420000" lon="-5.315433">
        <ele>2058.0</ele>
        <time>2018-07-28T12:03:01Z</time>
      </trkpt>
      <trkpt lat="40.419950" lon="-5.315250">
        <ele>2059.0</ele>
        <time>2018-07-28T12:03:02Z</time>
      </trkpt>
      <trkpt lat="40.419883" lon="-5.315100">
        <ele>2061.0</ele>
        <time>2018-07-28T12:03:03Z</time>
      </trkpt>
      <trkpt lat="40.419767" lon="-5.314983">
        <ele>2063.0</ele>
        <time>2018-07-28T12:03:04Z</time>
      </trkpt>
      <trkpt lat="40.419633" lon="-5.314917">
        <ele>2064.0</ele>
        <time>2018-07-28T12:03:05Z</time>
      </trkpt>
      <trkpt lat="40.419500" lon="-5.314883">
        <ele>2064.0</ele>
        <time>2018-07-28T12:03:06Z</time>
      </trkpt>
      <trkpt lat="40.419367" lon="-5.314883">
        <ele>2064.0</ele>
        <time>2018-07-28T12:03:07Z</time>
      </trkpt>
      <trkpt lat="40.419250" lon="-5.314933">
        <ele>2064.0</ele>
        <time>2018-07-28T12:03:08Z</time>
      </trkpt>
      <trkpt lat="40.419133" lon="-5.315000">
        <ele>2065.0</ele>
        <time>2018-07-28T12:03:09Z</time>
      </trkpt>
      <trkpt lat="40.419033" lon="-5.315117">
        <ele>2065.0</ele>
        <time>2018-07-28T12:03:10Z</time>
      </trkpt>
      <trkpt lat="40.418967" lon="-5.315233">
        <ele>2066.0</ele>
        <time>2018-07-28T12:03:11Z</time>
      </trkpt>
      <trkpt lat="40.418933" lon="-5.315383">
        <ele>2066.0</ele>
        <time>2018-07-28T12:03:12Z</time>
      </trkpt>
      <trkpt lat="40.418933" lon="-5.315500">
        <ele>2067.0</ele>
        <time>2018-07-28T12:03:13Z</time>
      </trkpt>
      <trkpt lat="40.418950" lon="-5.315600">
        <ele>2070.0</ele>
        <time>2018-07-28T12:03:14Z</time>
      </trkpt>
      <trkpt lat="40.418983" lon="-5.315667">
        <ele>2071.0</ele>
        <time>2018-07-28T12:03:15Z</time>
      </trkpt>
      <trkpt lat="40.419017" lon="-5.315733">
        <ele>2073.0</ele>
        <time>2018-07-28T12:03:16Z</time>
      </trkpt>
      <trkpt lat="40.419050" lon="-5.315783">
        <ele>2075.0</ele>
        <time>2018-07-28T12:03:17Z</time>
      </trkpt>
      <trkpt lat="40.419083" lon="-5.315867">
        <ele>2076.0</ele>
        <time>2018-07-28T12:03:18Z</time>
      </trkpt>
      <trkpt lat="40.419117" lon="-5.315917">
        <ele>2077.0</ele>
        <time>2018-07-28T12:03:19Z</time>
      </trkpt>
      <trkpt lat="40.419167" lon="-5.315967">
        <ele>2078.0</ele>
        <time>2018-07-28T12:03:20Z</time>
      </trkpt>
      <trkpt lat="40.419200" lon="-5.316017">
        <ele>2078.0</ele>
        <time>2018-07-28T12:03:21Z</time>
      </trkpt>
      <trkpt lat="40.419250" lon="-5.316067">
        <ele>2078.0</ele>
        <time>2018-07-28T12:03:22Z</time>
      </trkpt>
      <trkpt lat="40.419300" lon="-5.316100">
        <ele>2078.0</ele>
        <time>2018-07-28T12:03:23Z</time>
      </trkpt>
      <trkpt lat="40.419350" lon="-5.316133">
        <ele>2078.0</ele>
        <time>2018-07-28T12:03:24Z</time>
      </trkpt>
      <trkpt lat="40.419417" lon="-5.316167">
        <ele>2078.0</ele>
        <time>2018-07-28T12:03:25Z</time>
      </trkpt>
      <trkpt lat="40.419483" lon="-5.316167">
        <ele>2079.0</ele>
        <time>2018-07-28T12:03:26Z</time>
      </trkpt>
      <trkpt lat="40.419550" lon="-5.316167">
        <ele>2079.0</ele>
        <time>2018-07-28T12:03:27Z</time>
      </trkpt>
      <trkpt lat="40.419633" lon="-5.316167">
        <ele>2080.0</ele>
        <time>2018-07-28T12:03:28Z</time>
      </trkpt>
      <trkpt lat="40.419700" lon="-5.316200">
        <ele>2080.0</ele>
        <time>2018-07-28T12:03:29Z</time>
      </trkpt>
      <trkpt lat="40.419750" lon="-5.316217">
        <ele>2080.0</ele>
        <time>2018-07-28T12:03:30Z</time>
      </trkpt>
      <trkpt lat="40.419800" lon="-5.316233">
        <ele>2079.0</ele>
        <time>2018-07-28T12:03:31Z</time>
      </trkpt>
      <trkpt lat="40.419867" lon="-5.316217">
        <ele>2077.0</ele>
        <time>2018-07-28T12:03:32Z</time>
      </trkpt>
      <trkpt lat="40.419917" lon="-5.316200">
        <ele>2074.0</ele>
        <time>2018-07-28T12:03:33Z</time>
      </trkpt>
      <trkpt lat="40.420000" lon="-5.316167">
        <ele>2070.0</ele>
        <time>2018-07-28T12:03:34Z</time>
      </trkpt>
      <trkpt lat="40.420083" lon="-5.316150">
        <ele>2067.0</ele>
        <time>2018-07-28T12:03:35Z</time>
      </trkpt>
      <trkpt lat="40.420167" lon="-5.316133">
        <ele>2065.0</ele>
        <time>2018-07-28T12:03:36Z</time>
      </trkpt>
      <trkpt lat="40.420250" lon="-5.316133">
        <ele>2065.0</ele>
        <time>2018-07-28T12:03:37Z</time>
      </trkpt>
      <trkpt lat="40.420317" lon="-5.316133">
        <ele>2066.0</ele>
        <time>2018-07-28T12:03:38Z</time>
      </trkpt>
      <trkpt lat="40.420367" lon="-5.316133">
        <ele>2067.0</ele>
        <time>2018-07-28T12:03:39Z</time>
      </trkpt>
      <trkpt lat="40.420400" lon="-5.316150">
        <ele>2067.0</ele>
        <time>2018-07-28T12:03:40Z</time>
      </trkpt>
      <trkpt lat="40.420450" lon="-5.316183">
        <ele>2066.0</ele>
        <time>2018-07-28T12:03:41Z</time>
      </trkpt>
      <trkpt lat="40.420500" lon="-5.316217">
        <ele>2065.0</ele>
        <time>2018-07-28T12:03:42Z</time>
      </trkpt>
      <trkpt lat="40.420533" lon="-5.316283">
        <ele>2063.0</ele>
        <time>2018-07-28T12:03:43Z</time>
      </trkpt>
      <trkpt lat="40.420583" lon="-5.316350">
        <ele>2062.0</ele>
        <time>2018-07-28T12:03:44Z</time>
      </trkpt>
      <trkpt lat="40.420633" lon="-5.316417">
        <ele>2061.0</ele>
        <time>2018-07-28T12:03:45Z</time>
      </trkpt>
      <trkpt lat="40.420683" lon="-5.316483">
        <ele>2061.0</ele>
        <time>2018-07-28T12:03:46Z</time>
      </trkpt>
      <trkpt lat="40.420717" lon="-5.316550">
        <ele>2062.0</ele>
        <time>2018-07-28T12:03:47Z</time>
      </trkpt>
      <trkpt lat="40.420733" lon="-5.316633">
        <ele>2063.0</ele>
        <time>2018-07-28T12:03:48Z</time>
      </trkpt>
      <trkpt lat="40.420767" lon="-5.316717">
        <ele>2063.0</ele>
        <time>2018-07-28T12:03:49Z</time>
      </trkpt>
      <trkpt lat="40.420800" lon="-5.316800">
        <ele>2062.0</ele>
        <time>2018-07-28T12:03:50Z</time>
      </trkpt>
      <trkpt lat="40.420850" lon="-5.316900">
        <ele>2062.0</ele>
        <time>2018-07-28T12:03:51Z</time>
      </trkpt>
      <trkpt lat="40.420900" lon="-5.317000">
        <ele>2062.0</ele>
        <time>2018-07-28T12:03:52Z</time>
      </trkpt>
      <trkpt lat="40.420950" lon="-5.317083">
        <ele>2063.0</ele>
        <time>2018-07-28T12:03:53Z</time>
      </trkpt>
      <trkpt lat="40.421000" lon="-5.317167">
        <ele>2065.0</ele>
        <time>2018-07-28T12:03:54Z</time>
      </trkpt>
      <trkpt lat="40.421050" lon="-5.317233">
        <ele>2067.0</ele>
        <time>2018-07-28T12:03:55Z</time>
      </trkpt>
      <trkpt lat="40.421100" lon="-5.317317">
        <ele>2068.0</ele>
        <time>2018-07-28T12:03:56Z</time>
      </trkpt>
      <trkpt lat="40.421150" lon="-5.317417">
        <ele>2069.0</ele>
        <time>2018-07-28T12:03:57Z</time>
      </trkpt>
      <trkpt lat="40.421217" lon="-5.317500">
        <ele>2071.0</ele>
        <time>2018-07-28T12:03:58Z</time>
      </trkpt>
      <trkpt lat="40.421267" lon="-5.317583">
        <ele>2074.0</ele>
        <time>2018-07-28T12:03:59Z</time>
      </trkpt>
      <trkpt lat="40.421317" lon="-5.317633">
        <ele>2079.0</ele>
        <time>2018-07-28T12:04:00Z</time>
      </trkpt>
      <trkpt lat="40.421383" lon="-5.317650">
        <ele>2082.0</ele>
        <time>2018-07-28T12:04:01Z</time>
      </trkpt>
      <trkpt lat="40.421467" lon="-5.317650">
        <ele>2085.0</ele>
        <time>2018-07-28T12:04:02Z</time>
      </trkpt>
      <trkpt lat="40.421533" lon="-5.317600">
        <ele>2086.0</ele>
        <time>2018-07-28T12:04:03Z</time>
      </trkpt>
      <trkpt lat="40.421617" lon="-5.317500">
        <ele>2087.0</ele>
        <time>2018-07-28T12:04:04Z</time>
      </trkpt>
      <trkpt lat="40.421667" lon="-5.317333">
        <ele>2088.0</ele>
        <time>2018-07-28T12:04:05Z</time>
      </trkpt>
      <trkpt lat="40.421683" lon="-5.317150">
        <ele>2089.0</ele>
        <time>2018-07-28T12:04:06Z</time>
      </trkpt>
      <trkpt lat="40.421667" lon="-5.316950">
        <ele>2091.0</ele>
        <time>2018-07-28T12:04:07Z</time>
      </trkpt>
      <trkpt lat="40.421600" lon="-5.316800">
        <ele>2093.0</ele>
        <time>2018-07-28T12:04:08Z</time>
      </trkpt>
      <trkpt lat="40.421500" lon="-5.316683">
        <ele>2094.0</ele>
        <time>2018-07-28T12:04:09Z</time>
      </trkpt>
      <trkpt lat="40.421383" lon="-5.316600">
        <ele>2096.0</ele>
        <time>2018-07-28T12:04:10Z</time>
      </trkpt>
      <trkpt lat="40.421283" lon="-5.316550">
        <ele>2098.0</ele>
        <time>2018-07-28T12:04:11Z</time>
      </trkpt>
      <trkpt lat="40.421167" lon="-5.316517">
        <ele>2099.0</ele>
        <time>2018-07-28T12:04:12Z</time>
      </trkpt>
      <trkpt lat="40.421050" lon="-5.316517">
        <ele>2100.0</ele>
        <time>2018-07-28T12:04:13Z</time>
      </trkpt>
      <trkpt lat="40.420950" lon="-5.316550">
        <ele>2101.0</ele>
        <time>2018-07-28T12:04:14Z</time>
      </trkpt>
      <trkpt lat="40.420850" lon="-5.316617">
        <ele>2103.0</ele>
        <time>2018-07-28T12:04:15Z</time>
      </trkpt>
      <trkpt lat="40.420783" lon="-5.316683">
        <ele>2105.0</ele>
        <time>2018-07-28T12:04:16Z</time>
      </trkpt>
      <trkpt lat="40.420717" lon="-5.316783">
        <ele>2105.0</ele>
        <time>2018-07-28T12:04:17Z</time>
      </trkpt>
      <trkpt lat="40.420683" lon="-5.316883">
        <ele>2105.0</ele>
        <time>2018-07-28T12:04:18Z</time>
      </trkpt>
      <trkpt lat="40.420683" lon="-5.317000">
        <ele>2105.0</ele>
        <time>2018-07-28T12:04:19Z</time>
      </trkpt>
      <trkpt lat="40.420683" lon="-5.317100">
        <ele>2105.0</ele>
        <time>2018-07-28T12:04:20Z</time>
      </trkpt>
      <trkpt lat="40.420700" lon="-5.317200">
        <ele>2105.0</ele>
        <time>2018-07-28T12:04:21Z</time>
      </trkpt>
      <trkpt lat="40.420733" lon="-5.317267">
        <ele>2104.0</ele>
        <time>2018-07-28T12:04:22Z</time>
      </trkpt>
      <trkpt lat="40.420767" lon="-5.317317">
        <ele>2103.0</ele>
        <time>2018-07-28T12:04:23Z</time>
      </trkpt>
      <trkpt lat="40.420817" lon="-5.317350">
        <ele>2101.0</ele>
        <time>2018-07-28T12:04:24Z</time>
      </trkpt>
      <trkpt lat="40.420900" lon="-5.317350">
        <ele>2099.0</ele>
        <time>2018-07-28T12:04:25Z</time>
      </trkpt>
      <trkpt lat="40.421000" lon="-5.317317">
        <ele>2099.0</ele>
        <time>2018-07-28T12:04:26Z</time>
      </trkpt>
      <trkpt lat="40.421117" lon="-5.317267">
        <ele>2100.0</ele>
        <time>2018-07-28T12:04:27Z</time>
      </trkpt>
      <trkpt lat="40.421200" lon="-5.317167">
        <ele>2103.0</ele>
        <time>2018-07-28T12:04:28Z</time>
      </trkpt>
      <trkpt lat="40.421283" lon="-5.317050">
        <ele>2107.0</ele>
        <time>2018-07-28T12:04:29Z</time>
      </trkpt>
      <trkpt lat="40.421350" lon="-5.316933">
        <ele>2112.0</ele>
        <time>2018-07-28T12:04:30Z</time>
      </trkpt>
      <trkpt lat="40.421417" lon="-5.316817">
        <ele>2116.0</ele>
        <time>2018-07-28T12:04:31Z</time>
      </trkpt>
      <trkpt lat="40.421483" lon="-5.316717">
        <ele>2120.0</ele>
        <time>2018-07-28T12:04:32Z</time>
      </trkpt>
      <trkpt lat="40.421533" lon="-5.316617">
        <ele>2122.0</ele>
        <time>2018-07-28T12:04:33Z</time>
      </trkpt>
      <trkpt lat="40.421583" lon="-5.316500">
        <ele>2124.0</ele>
        <time>2018-07-28T12:04:34Z</time>
      </trkpt>
      <trkpt lat="40.421633" lon="-5.316383">
        <ele>2125.0</ele>
        <time>2018-07-28T12:04:35Z</time>
      </trkpt>
      <trkpt lat="40.421700" lon="-5.316283">
        <ele>2126.0</ele>
        <time>2018-07-28T12:04:36Z</time>
      </trkpt>
      <trkpt lat="40.421750" lon="-5.316200">
        <ele>2127.0</ele>
        <time>2018-07-28T12:04:37Z</time>
      </trkpt>
      <trkpt lat="40.421817" lon="-5.316167">
        <ele>2126.0</ele>
        <time>2018-07-28T12:04:38Z</time>
      </trkpt>
      <trkpt lat="40.421883" lon="-5.316167">
        <ele>2124.0</ele>
        <time>2018-07-28T12:04:39Z</time>
      </trkpt>
      <trkpt lat="40.421967" lon="-5.316183">
        <ele>2123.0</ele>
        <time>2018-07-28T12:04:40Z</time>
      </trkpt>
      <trkpt lat="40.422017" lon="-5.316217">
        <ele>2124.0</ele>
        <time>2018-07-28T12:04:41Z</time>
      </trkpt>
      <trkpt lat="40.422067" lon="-5.316267">
        <ele>2125.0</ele>
        <time>2018-07-28T12:04:42Z</time>
      </trkpt>
      <trkpt lat="40.422100" lon="-5.316317">
        <ele>2126.0</ele>
        <time>2018-07-28T12:04:43Z</time>
      </trkpt>
      <trkpt lat="40.422117" lon="-5.316383">
        <ele>2126.0</ele>
        <time>2018-07-28T12:04:44Z</time>
      </trkpt>
      <trkpt lat="40.422133" lon="-5.316467">
        <ele>2127.0</ele>
        <time>2018-07-28T12:04:45Z</time>
      </trkpt>
      <trkpt lat="40.422167" lon="-5.316550">
        <ele>2127.0</ele>
        <time>2018-07-28T12:04:46Z</time>
      </trkpt>
      <trkpt lat="40.422200" lon="-5.316617">
        <ele>2129.0</ele>
        <time>2018-07-28T12:04:47Z</time>
      </trkpt>
      <trkpt lat="40.422233" lon="-5.316700">
        <ele>2130.0</ele>
        <time>2018-07-28T12:04:48Z</time>
      </trkpt>
      <trkpt lat="40.422267" lon="-5.316767">
        <ele>2131.0</ele>
        <time>2018-07-28T12:04:49Z</time>
      </trkpt>
      <trkpt lat="40.422300" lon="-5.316833">
        <ele>2132.0</ele>
        <time>2018-07-28T12:04:50Z</time>
      </trkpt>
      <trkpt lat="40.422333" lon="-5.316917">
        <ele>2132.0</ele>
        <time>2018-07-28T12:04:51Z</time>
      </trkpt>
      <trkpt lat="40.422367" lon="-5.317000">
        <ele>2132.0</ele>
        <time>2018-07-28T12:04:52Z</time>
      </trkpt>
      <trkpt lat="40.422417" lon="-5.317083">
        <ele>2131.0</ele>
        <time>2018-07-28T12:04:53Z</time>
      </trkpt>
      <trkpt lat="40.422467" lon="-5.317167">
        <ele>2130.0</ele>
        <time>2018-07-28T12:04:54Z</time>
      </trkpt>
      <trkpt lat="40.422533" lon="-5.317250">
        <ele>2130.0</ele>
        <time>2018-07-28T12:04:55Z</time>
      </trkpt>
      <trkpt lat="40.422583" lon="-5.317333">
        <ele>2130.0</ele>
        <time>2018-07-28T12:04:56Z</time>
      </trkpt>
      <trkpt lat="40.422633" lon="-5.317433">
        <ele>2130.0</ele>
        <time>2018-07-28T12:04:57Z</time>
      </trkpt>
      <trkpt lat="40.422667" lon="-5.317533">
        <ele>2130.0</ele>
        <time>2018-07-28T12:04:58Z</time>
      </trkpt>
      <trkpt lat="40.422700" lon="-5.317617">
        <ele>2130.0</ele>
        <time>2018-07-28T12:04:59Z</time>
      </trkpt>
      <trkpt lat="40.422750" lon="-5.317700">
        <ele>2129.0</ele>
        <time>2018-07-28T12:05:00Z</time>
      </trkpt>
      <trkpt lat="40.422800" lon="-5.317783">
        <ele>2128.0</ele>
        <time>2018-07-28T12:05:01Z</time>
      </trkpt>
      <trkpt lat="40.422833" lon="-5.317883">
        <ele>2127.0</ele>
        <time>2018-07-28T12:05:02Z</time>
      </trkpt>
      <trkpt lat="40.422867" lon="-5.318000">
        <ele>2126.0</ele>
        <time>2018-07-28T12:05:03Z</time>
      </trkpt>
      <trkpt lat="40.422900" lon="-5.318117">
        <ele>2126.0</ele>
        <time>2018-07-28T12:05:04Z</time>
      </trkpt>
      <trkpt lat="40.422933" lon="-5.318217">
        <ele>2126.0</ele>
        <time>2018-07-28T12:05:05Z</time>
      </trkpt>
      <trkpt lat="40.422967" lon="-5.318300">
        <ele>2126.0</ele>
        <time>2018-07-28T12:05:06Z</time>
      </trkpt>
      <trkpt lat="40.423000" lon="-5.318400">
        <ele>2125.0</ele>
        <time>2018-07-28T12:05:07Z</time>
      </trkpt>
      <trkpt lat="40.423050" lon="-5.318483">
        <ele>2124.0</ele>
        <time>2018-07-28T12:05:08Z</time>
      </trkpt>
      <trkpt lat="40.423083" lon="-5.318567">
        <ele>2123.0</ele>
        <time>2018-07-28T12:05:09Z</time>
      </trkpt>
      <trkpt lat="40.423133" lon="-5.318667">
        <ele>2122.0</ele>
        <time>2018-07-28T12:05:10Z</time>
      </trkpt>
      <trkpt lat="40.423183" lon="-5.318767">
        <ele>2121.0</ele>
        <time>2018-07-28T12:05:11Z</time>
      </trkpt>
      <trkpt lat="40.423217" lon="-5.318850">
        <ele>2121.0</ele>
        <time>2018-07-28T12:05:12Z</time>
      </trkpt>
      <trkpt lat="40.423267" lon="-5.318933">
        <ele>2122.0</ele>
        <time>2018-07-28T12:05:13Z</time>
      </trkpt>
      <trkpt lat="40.423317" lon="-5.319017">
        <ele>2123.0</ele>
        <time>2018-07-28T12:05:14Z</time>
      </trkpt>
      <trkpt lat="40.423367" lon="-5.319083">
        <ele>2124.0</ele>
        <time>2018-07-28T12:05:15Z</time>
      </trkpt>
      <trkpt lat="40.423400" lon="-5.319183">
        <ele>2124.0</ele>
        <time>2018-07-28T12:05:16Z</time>
      </trkpt>
      <trkpt lat="40.423450" lon="-5.319267">
        <ele>2124.0</ele>
        <time>2018-07-28T12:05:17Z</time>
      </trkpt>
      <trkpt lat="40.423483" lon="-5.319367">
        <ele>2124.0</ele>
        <time>2018-07-28T12:05:18Z</time>
      </trkpt>
      <trkpt lat="40.423533" lon="-5.319467">
        <ele>2124.0</ele>
        <time>2018-07-28T12:05:19Z</time>
      </trkpt>
      <trkpt lat="40.423583" lon="-5.319550">
        <ele>2124.0</ele>
        <time>2018-07-28T12:05:20Z</time>
      </trkpt>
      <trkpt lat="40.423650" lon="-5.319650">
        <ele>2123.0</ele>
        <time>2018-07-28T12:05:21Z</time>
      </trkpt>
      <trkpt lat="40.423700" lon="-5.319733">
        <ele>2122.0</ele>
        <time>2018-07-28T12:05:22Z</time>
      </trkpt>
      <trkpt lat="40.423767" lon="-5.319817">
        <ele>2121.0</ele>
        <time>2018-07-28T12:05:23Z</time>
      </trkpt>
      <trkpt lat="40.423850" lon="-5.319900">
        <ele>2121.0</ele>
        <time>2018-07-28T12:05:24Z</time>
      </trkpt>
      <trkpt lat="40.423917" lon="-5.319983">
        <ele>2121.0</ele>
        <time>2018-07-28T12:05:25Z</time>
      </trkpt>
      <trkpt lat="40.423983" lon="-5.320067">
        <ele>2122.0</ele>
        <time>2018-07-28T12:05:26Z</time>
      </trkpt>
      <trkpt lat="40.424017" lon="-5.320150">
        <ele>2123.0</ele>
        <time>2018-07-28T12:05:27Z</time>
      </trkpt>
      <trkpt lat="40.424067" lon="-5.320233">
        <ele>2123.0</ele>
        <time>2018-07-28T12:05:28Z</time>
      </trkpt>
      <trkpt lat="40.424133" lon="-5.320317">
        <ele>2123.0</ele>
        <time>2018-07-28T12:05:29Z</time>
      </trkpt>
      <trkpt lat="40.424200" lon="-5.320383">
        <ele>2122.0</ele>
        <time>2018-07-28T12:05:30Z</time>
      </trkpt>
      <trkpt lat="40.424267" lon="-5.320467">
        <ele>2121.0</ele>
        <time>2018-07-28T12:05:31Z</time>
      </trkpt>
      <trkpt lat="40.424350" lon="-5.320533">
        <ele>2121.0</ele>
        <time>2018-07-28T12:05:32Z</time>
      </trkpt>
      <trkpt lat="40.424433" lon="-5.320617">
        <ele>2123.0</ele>
        <time>2018-07-28T12:05:33Z</time>
      </trkpt>
      <trkpt lat="40.424517" lon="-5.320683">
        <ele>2125.0</ele>
        <time>2018-07-28T12:05:34Z</time>
      </trkpt>
      <trkpt lat="40.424583" lon="-5.320733">
        <ele>2126.0</ele>
        <time>2018-07-28T12:05:35Z</time>
      </trkpt>
      <trkpt lat="40.424650" lon="-5.320767">
        <ele>2127.0</ele>
        <time>2018-07-28T12:05:36Z</time>
      </trkpt>
      <trkpt lat="40.424717" lon="-5.320817">
        <ele>2127.0</ele>
        <time>2018-07-28T12:05:37Z</time>
      </trkpt>
      <trkpt lat="40.424800" lon="-5.320883">
        <ele>2126.0</ele>
        <time>2018-07-28T12:05:38Z</time>
      </trkpt>
      <trkpt lat="40.424867" lon="-5.320950">
        <ele>2126.0</ele>
        <time>2018-07-28T12:05:39Z</time>
      </trkpt>
      <trkpt lat="40.424933" lon="-5.321033">
        <ele>2125.0</ele>
        <time>2018-07-28T12:05:40Z</time>
      </trkpt>
      <trkpt lat="40.425017" lon="-5.321117">
        <ele>2125.0</ele>
        <time>2018-07-28T12:05:41Z</time>
      </trkpt>
      <trkpt lat="40.425083" lon="-5.321183">
        <ele>2126.0</ele>
        <time>2018-07-28T12:05:42Z</time>
      </trkpt>
      <trkpt lat="40.425150" lon="-5.321250">
        <ele>2125.0</ele>
        <time>2018-07-28T12:05:43Z</time>
      </trkpt>
      <trkpt lat="40.425217" lon="-5.321317">
        <ele>2125.0</ele>
        <time>2018-07-28T12:05:44Z</time>
      </trkpt>
      <trkpt lat="40.425300" lon="-5.321383">
        <ele>2124.0</ele>
        <time>2018-07-28T12:05:45Z</time>
      </trkpt>
      <trkpt lat="40.425367" lon="-5.321450">
        <ele>2123.0</ele>
        <time>2018-07-28T12:05:46Z</time>
      </trkpt>
      <trkpt lat="40.425450" lon="-5.321517">
        <ele>2123.0</ele>
        <time>2018-07-28T12:05:47Z</time>
      </trkpt>
      <trkpt lat="40.425533" lon="-5.321567">
        <ele>2124.0</ele>
        <time>2018-07-28T12:05:48Z</time>
      </trkpt>
      <trkpt lat="40.425617" lon="-5.321600">
        <ele>2125.0</ele>
        <time>2018-07-28T12:05:49Z</time>
      </trkpt>
      <trkpt lat="40.425667" lon="-5.321633">
        <ele>2125.0</ele>
        <time>2018-07-28T12:05:50Z</time>
      </trkpt>
      <trkpt lat="40.425717" lon="-5.321683">
        <ele>2125.0</ele>
        <time>2018-07-28T12:05:51Z</time>
      </trkpt>
      <trkpt lat="40.425783" lon="-5.321717">
        <ele>2123.0</ele>
        <time>2018-07-28T12:05:52Z</time>
      </trkpt>
      <trkpt lat="40.425850" lon="-5.321767">
        <ele>2121.0</ele>
        <time>2018-07-28T12:05:53Z</time>
      </trkpt>
      <trkpt lat="40.425933" lon="-5.321817">
        <ele>2119.0</ele>
        <time>2018-07-28T12:05:54Z</time>
      </trkpt>
      <trkpt lat="40.426017" lon="-5.321867">
        <ele>2118.0</ele>
        <time>2018-07-28T12:05:55Z</time>
      </trkpt>
      <trkpt lat="40.426117" lon="-5.321900">
        <ele>2119.0</ele>
        <time>2018-07-28T12:05:56Z</time>
      </trkpt>
      <trkpt lat="40.426217" lon="-5.321933">
        <ele>2122.0</ele>
        <time>2018-07-28T12:05:57Z</time>
      </trkpt>
      <trkpt lat="40.426317" lon="-5.321950">
        <ele>2124.0</ele>
        <time>2018-07-28T12:05:58Z</time>
      </trkpt>
      <trkpt lat="40.426417" lon="-5.321967">
        <ele>2127.0</ele>
        <time>2018-07-28T12:05:59Z</time>
      </trkpt>
      <trkpt lat="40.426500" lon="-5.321983">
        <ele>2129.0</ele>
        <time>2018-07-28T12:06:00Z</time>
      </trkpt>
      <trkpt lat="40.426583" lon="-5.322000">
        <ele>2131.0</ele>
        <time>2018-07-28T12:06:01Z</time>
      </trkpt>
      <trkpt lat="40.426650" lon="-5.322033">
        <ele>2133.0</ele>
        <time>2018-07-28T12:06:02Z</time>
      </trkpt>
      <trkpt lat="40.426717" lon="-5.322083">
        <ele>2134.0</ele>
        <time>2018-07-28T12:06:03Z</time>
      </trkpt>
      <trkpt lat="40.426800" lon="-5.322133">
        <ele>2135.0</ele>
        <time>2018-07-28T12:06:04Z</time>
      </trkpt>
      <trkpt lat="40.426883" lon="-5.322167">
        <ele>2136.0</ele>
        <time>2018-07-28T12:06:05Z</time>
      </trkpt>
      <trkpt lat="40.426950" lon="-5.322217">
        <ele>2138.0</ele>
        <time>2018-07-28T12:06:06Z</time>
      </trkpt>
      <trkpt lat="40.427017" lon="-5.322283">
        <ele>2140.0</ele>
        <time>2018-07-28T12:06:07Z</time>
      </trkpt>
      <trkpt lat="40.427067" lon="-5.322333">
        <ele>2142.0</ele>
        <time>2018-07-28T12:06:08Z</time>
      </trkpt>
      <trkpt lat="40.427117" lon="-5.322383">
        <ele>2144.0</ele>
        <time>2018-07-28T12:06:09Z</time>
      </trkpt>
      <trkpt lat="40.427167" lon="-5.322433">
        <ele>2145.0</ele>
        <time>2018-07-28T12:06:10Z</time>
      </trkpt>
      <trkpt lat="40.427217" lon="-5.322483">
        <ele>2146.0</ele>
        <time>2018-07-28T12:06:11Z</time>
      </trkpt>
      <trkpt lat="40.427267" lon="-5.322550">
        <ele>2148.0</ele>
        <time>2018-07-28T12:06:12Z</time>
      </trkpt>
      <trkpt lat="40.427283" lon="-5.322633">
        <ele>2149.0</ele>
        <time>2018-07-28T12:06:13Z</time>
      </trkpt>
      <trkpt lat="40.427267" lon="-5.322733">
        <ele>2148.0</ele>
        <time>2018-07-28T12:06:14Z</time>
      </trkpt>
      <trkpt lat="40.427217" lon="-5.322800">
        <ele>2148.0</ele>
        <time>2018-07-28T12:06:15Z</time>
      </trkpt>
      <trkpt lat="40.427133" lon="-5.322817">
        <ele>2148.0</ele>
        <time>2018-07-28T12:06:16Z</time>
      </trkpt>
      <trkpt lat="40.427033" lon="-5.322783">
        <ele>2148.0</ele>
        <time>2018-07-28T12:06:17Z</time>
      </trkpt>
      <trkpt lat="40.426917" lon="-5.322733">
        <ele>2149.0</ele>
        <time>2018-07-28T12:06:18Z</time>
      </trkpt>
      <trkpt lat="40.426817" lon="-5.322667">
        <ele>2151.0</ele>
        <time>2018-07-28T12:06:19Z</time>
      </trkpt>
      <trkpt lat="40.426733" lon="-5.322617">
        <ele>2153.0</ele>
        <time>2018-07-28T12:06:20Z</time>
      </trkpt>
      <trkpt lat="40.426633" lon="-5.322567">
        <ele>2155.0</ele>
        <time>2018-07-28T12:06:21Z</time>
      </trkpt>
      <trkpt lat="40.426550" lon="-5.322500">
        <ele>2157.0</ele>
        <time>2018-07-28T12:06:22Z</time>
      </trkpt>
      <trkpt lat="40.426467" lon="-5.322400">
        <ele>2158.0</ele>
        <time>2018-07-28T12:06:23Z</time>
      </trkpt>
      <trkpt lat="40.426383" lon="-5.322283">
        <ele>2160.0</ele>
        <time>2018-07-28T12:06:24Z</time>
      </trkpt>
      <trkpt lat="40.426317" lon="-5.322167">
        <ele>2163.0</ele>
        <time>2018-07-28T12:06:25Z</time>
      </trkpt>
      <trkpt lat="40.426250" lon="-5.322067">
        <ele>2165.0</ele>
        <time>2018-07-28T12:06:26Z</time>
      </trkpt>
      <trkpt lat="40.426200" lon="-5.321950">
        <ele>2167.0</ele>
        <time>2018-07-28T12:06:27Z</time>
      </trkpt>
      <trkpt lat="40.426150" lon="-5.321817">
        <ele>2168.0</ele>
        <time>2018-07-28T12:06:28Z</time>
      </trkpt>
      <trkpt lat="40.426133" lon="-5.321667">
        <ele>2168.0</ele>
        <time>2018-07-28T12:06:29Z</time>
      </trkpt>
      <trkpt lat="40.426133" lon="-5.321500">
        <ele>2168.0</ele>
        <time>2018-07-28T12:06:30Z</time>
      </trkpt>
      <trkpt lat="40.426167" lon="-5.321333">
        <ele>2167.0</ele>
        <time>2018-07-28T12:06:31Z</time>
      </trkpt>
      <trkpt lat="40.426250" lon="-5.321183">
        <ele>2167.0</ele>
        <time>2018-07-28T12:06:32Z</time>
      </trkpt>
      <trkpt lat="40.426350" lon="-5.321083">
        <ele>2167.0</ele>
        <time>2018-07-28T12:06:33Z</time>
      </trkpt>
      <trkpt lat="40.426467" lon="-5.321050">
        <ele>2167.0</ele>
        <time>2018-07-28T12:06:34Z</time>
      </trkpt>
      <trkpt lat="40.426583" lon="-5.321067">
        <ele>2169.0</ele>
        <time>2018-07-28T12:06:35Z</time>
      </trkpt>
      <trkpt lat="40.426667" lon="-5.321117">
        <ele>2173.0</ele>
        <time>2018-07-28T12:06:36Z</time>
      </trkpt>
      <trkpt lat="40.426700" lon="-5.321183">
        <ele>2176.0</ele>
        <time>2018-07-28T12:06:37Z</time>
      </trkpt>
      <trkpt lat="40.426717" lon="-5.321267">
        <ele>2177.0</ele>
        <time>2018-07-28T12:06:38Z</time>
      </trkpt>
      <trkpt lat="40.426717" lon="-5.321350">
        <ele>2178.0</ele>
        <time>2018-07-28T12:06:39Z</time>
      </trkpt>
      <trkpt lat="40.426683" lon="-5.321450">
        <ele>2178.0</ele>
        <time>2018-07-28T12:06:40Z</time>
      </trkpt>
      <trkpt lat="40.426600" lon="-5.321550">
        <ele>2179.0</ele>
        <time>2018-07-28T12:06:41Z</time>
      </trkpt>
      <trkpt lat="40.426517" lon="-5.321600">
        <ele>2181.0</ele>
        <time>2018-07-28T12:06:42Z</time>
      </trkpt>
      <trkpt lat="40.426400" lon="-5.321583">
        <ele>2184.0</ele>
        <time>2018-07-28T12:06:43Z</time>
      </trkpt>
      <trkpt lat="40.426300" lon="-5.321533">
        <ele>2187.0</ele>
        <time>2018-07-28T12:06:44Z</time>
      </trkpt>
      <trkpt lat="40.426217" lon="-5.321433">
        <ele>2190.0</ele>
        <time>2018-07-28T12:06:45Z</time>
      </trkpt>
      <trkpt lat="40.426183" lon="-5.321317">
        <ele>2191.0</ele>
        <time>2018-07-28T12:06:46Z</time>
      </trkpt>
      <trkpt lat="40.426150" lon="-5.321167">
        <ele>2191.0</ele>
        <time>2018-07-28T12:06:47Z</time>
      </trkpt>
      <trkpt lat="40.426133" lon="-5.321000">
        <ele>2190.0</ele>
        <time>2018-07-28T12:06:48Z</time>
      </trkpt>
      <trkpt lat="40.426117" lon="-5.320817">
        <ele>2191.0</ele>
        <time>2018-07-28T12:06:49Z</time>
      </trkpt>
      <trkpt lat="40.426133" lon="-5.320633">
        <ele>2194.0</ele>
        <time>2018-07-28T12:06:50Z</time>
      </trkpt>
      <trkpt lat="40.426200" lon="-5.320483">
        <ele>2195.0</ele>
        <time>2018-07-28T12:06:51Z</time>
      </trkpt>
      <trkpt lat="40.426283" lon="-5.320350">
        <ele>2195.0</ele>
        <time>2018-07-28T12:06:52Z</time>
      </trkpt>
      <trkpt lat="40.426383" lon="-5.320267">
        <ele>2196.0</ele>
        <time>2018-07-28T12:06:53Z</time>
      </trkpt>
      <trkpt lat="40.426483" lon="-5.320217">
        <ele>2198.0</ele>
        <time>2018-07-28T12:06:54Z</time>
      </trkpt>
      <trkpt lat="40.426583" lon="-5.320183">
        <ele>2200.0</ele>
        <time>2018-07-28T12:06:55Z</time>
      </trkpt>
      <trkpt lat="40.426667" lon="-5.320183">
        <ele>2201.0</ele>
        <time>2018-07-28T12:06:56Z</time>
      </trkpt>
      <trkpt lat="40.426750" lon="-5.320217">
        <ele>2202.0</ele>
        <time>2018-07-28T12:06:57Z</time>
      </trkpt>
      <trkpt lat="40.426817" lon="-5.320267">
        <ele>2203.0</ele>
        <time>2018-07-28T12:06:58Z</time>
      </trkpt>
      <trkpt lat="40.426883" lon="-5.320350">
        <ele>2203.0</ele>
        <time>2018-07-28T12:06:59Z</time>
      </trkpt>
      <trkpt lat="40.426917" lon="-5.320450">
        <ele>2204.0</ele>
        <time>2018-07-28T12:07:00Z</time>
      </trkpt>
      <trkpt lat="40.426917" lon="-5.320567">
        <ele>2204.0</ele>
        <time>2018-07-28T12:07:01Z</time>
      </trkpt>
      <trkpt lat="40.426883" lon="-5.320667">
        <ele>2206.0</ele>
        <time>2018-07-28T12:07:02Z</time>
      </trkpt>
      <trkpt lat="40.426833" lon="-5.320767">
        <ele>2208.0</ele>
        <time>2018-07-28T12:07:03Z</time>
      </trkpt>
      <trkpt lat="40.426767" lon="-5.320817">
        <ele>2211.0</ele>
        <time>2018-07-28T12:07:04Z</time>
      </trkpt>
      <trkpt lat="40.426683" lon="-5.320850">
        <ele>2213.0</ele>
        <time>2018-07-28T12:07:05Z</time>
      </trkpt>
      <trkpt lat="40.426583" lon="-5.320850">
        <ele>2214.0</ele>
        <time>2018-07-28T12:07:06Z</time>
      </trkpt>
      <trkpt lat="40.426483" lon="-5.320783">
        <ele>2215.0</ele>
        <time>2018-07-28T12:07:07Z</time>
      </trkpt>
      <trkpt lat="40.426400" lon="-5.320683">
        <ele>2216.0</ele>
        <time>2018-07-28T12:07:08Z</time>
      </trkpt>
      <trkpt lat="40.426333" lon="-5.320550">
        <ele>2218.0</ele>
        <time>2018-07-28T12:07:09Z</time>
      </trkpt>
      <trkpt lat="40.426300" lon="-5.320400">
        <ele>2220.0</ele>
        <time>2018-07-28T12:07:10Z</time>
      </trkpt>
      <trkpt lat="40.426300" lon="-5.320250">
        <ele>2222.0</ele>
        <time>2018-07-28T12:07:11Z</time>
      </trkpt>
      <trkpt lat="40.426333" lon="-5.320100">
        <ele>2223.0</ele>
        <time>2018-07-28T12:07:12Z</time>
      </trkpt>
      <trkpt lat="40.426400" lon="-5.319983">
        <ele>2224.0</ele>
        <time>2018-07-28T12:07:13Z</time>
      </trkpt>
      <trkpt lat="40.426483" lon="-5.319883">
        <ele>2225.0</ele>
        <time>2018-07-28T12:07:14Z</time>
      </trkpt>
      <trkpt lat="40.426600" lon="-5.319833">
        <ele>2227.0</ele>
        <time>2018-07-28T12:07:15Z</time>
      </trkpt>
      <trkpt lat="40.426700" lon="-5.319833">
        <ele>2228.0</ele>
        <time>2018-07-28T12:07:16Z</time>
      </trkpt>
      <trkpt lat="40.426783" lon="-5.319867">
        <ele>2230.0</ele>
        <time>2018-07-28T12:07:17Z</time>
      </trkpt>
      <trkpt lat="40.426850" lon="-5.319933">
        <ele>2231.0</ele>
        <time>2018-07-28T12:07:18Z</time>
      </trkpt>
      <trkpt lat="40.426883" lon="-5.320033">
        <ele>2233.0</ele>
        <time>2018-07-28T12:07:19Z</time>
      </trkpt>
      <trkpt lat="40.426900" lon="-5.320117">
        <ele>2236.0</ele>
        <time>2018-07-28T12:07:20Z</time>
      </trkpt>
      <trkpt lat="40.426883" lon="-5.320200">
        <ele>2237.0</ele>
        <time>2018-07-28T12:07:21Z</time>
      </trkpt>
      <trkpt lat="40.426833" lon="-5.320267">
        <ele>2238.0</ele>
        <time>2018-07-28T12:07:22Z</time>
      </trkpt>
      <trkpt lat="40.426750" lon="-5.320300">
        <ele>2240.0</ele>
        <time>2018-07-28T12:07:23Z</time>
      </trkpt>
      <trkpt lat="40.426667" lon="-5.320317">
        <ele>2242.0</ele>
        <time>2018-07-28T12:07:24Z</time>
      </trkpt>
      <trkpt lat="40.426583" lon="-5.320300">
        <ele>2244.0</ele>
        <time>2018-07-28T12:07:25Z</time>
      </trkpt>
      <trkpt lat="40.426517" lon="-5.320250">
        <ele>2246.0</ele>
        <time>2018-07-28T12:07:26Z</time>
      </trkpt>
      <trkpt lat="40.426433" lon="-5.320167">
        <ele>2245.0</ele>
        <time>2018-07-28T12:07:27Z</time>
      </trkpt>
      <trkpt lat="40.426350" lon="-5.320050">
        <ele>2244.0</ele>
        <time>2018-07-28T12:07:28Z</time>
      </trkpt>
      <trkpt lat="40.426283" lon="-5.319883">
        <ele>2244.0</ele>
        <time>2018-07-28T12:07:29Z</time>
      </trkpt>
      <trkpt lat="40.426250" lon="-5.319700">
        <ele>2246.0</ele>
        <time>2018-07-28T12:07:30Z</time>
      </trkpt>
      <trkpt lat="40.426267" lon="-5.319533">
        <ele>2249.0</ele>
        <time>2018-07-28T12:07:31Z</time>
      </trkpt>
      <trkpt lat="40.426300" lon="-5.319383">
        <ele>2251.0</ele>
        <time>2018-07-28T12:07:32Z</time>
      </trkpt>
      <trkpt lat="40.426367" lon="-5.319250">
        <ele>2253.0</ele>
        <time>2018-07-28T12:07:33Z</time>
      </trkpt>
      <trkpt lat="40.426433" lon="-5.319133">
        <ele>2255.0</ele>
        <time>2018-07-28T12:07:34Z</time>
      </trkpt>
      <trkpt lat="40.426533" lon="-5.319050">
        <ele>2257.0</ele>
        <time>2018-07-28T12:07:35Z</time>
      </trkpt>
      <trkpt lat="40.426617" lon="-5.318967">
        <ele>2258.0</ele>
        <time>2018-07-28T12:07:36Z</time>
      </trkpt>
      <trkpt lat="40.426733" lon="-5.318933">
        <ele>2258.0</ele>
        <time>2018-07-28T12:07:37Z</time>
      </trkpt>
      <trkpt lat="40.426833" lon="-5.318933">
        <ele>2258.0</ele>
        <time>2018-07-28T12:07:38Z</time>
      </trkpt>
      <trkpt lat="40.426950" lon="-5.318983">
        <ele>2258.0</ele>
        <time>2018-07-28T12:07:39Z</time>
      </trkpt>
      <trkpt lat="40.427017" lon="-5.319083">
        <ele>2259.0</ele>
        <time>2018-07-28T12:07:40Z</time>
      </trkpt>
      <trkpt lat="40.427067" lon="-5.319200">
        <ele>2261.0</ele>
        <time>2018-07-28T12:07:41Z</time>
      </trkpt>
      <trkpt lat="40.427067" lon="-5.319317">
        <ele>2262.0</ele>
        <time>2018-07-28T12:07:42Z</time>
      </trkpt>
      <trkpt lat="40.427033" lon="-5.319400">
        <ele>2264.0</ele>
        <time>2018-07-28T12:07:43Z</time>
      </trkpt>
      <trkpt lat="40.427000" lon="-5.319483">
        <ele>2266.0</ele>
        <time>2018-07-28T12:07:44Z</time>
      </trkpt>
      <trkpt lat="40.426950" lon="-5.319533">
        <ele>2269.0</ele>
        <time>2018-07-28T12:07:45Z</time>
      </trkpt>
      <trkpt lat="40.426900" lon="-5.319567">
        <ele>2271.0</ele>
        <time>2018-07-28T12:07:46Z</time>
      </trkpt>
      <trkpt lat="40.426817" lon="-5.319567">
        <ele>2271.0</ele>
        <time>2018-07-28T12:07:47Z</time>
      </trkpt>
      <trkpt lat="40.426717" lon="-5.319533">
        <ele>2270.0</ele>
        <time>2018-07-28T12:07:48Z</time>
      </trkpt>
      <trkpt lat="40.426617" lon="-5.319483">
        <ele>2269.0</ele>
        <time>2018-07-28T12:07:49Z</time>
      </trkpt>
      <trkpt lat="40.426517" lon="-5.319383">
        <ele>2269.0</ele>
        <time>2018-07-28T12:07:50Z</time>
      </trkpt>
      <trkpt lat="40.426417" lon="-5.319250">
        <ele>2271.0</ele>
        <time>2018-07-28T12:07:51Z</time>
      </trkpt>
      <trkpt lat="40.426350" lon="-5.319083">
        <ele>2272.0</ele>
        <time>2018-07-28T12:07:52Z</time>
      </trkpt>
      <trkpt lat="40.426333" lon="-5.318900">
        <ele>2275.0</ele>
        <time>2018-07-28T12:07:53Z</time>
      </trkpt>
      <trkpt lat="40.426333" lon="-5.318733">
        <ele>2278.0</ele>
        <time>2018-07-28T12:07:54Z</time>
      </trkpt>
      <trkpt lat="40.426350" lon="-5.318567">
        <ele>2281.0</ele>
        <time>2018-07-28T12:07:55Z</time>
      </trkpt>
      <trkpt lat="40.426383" lon="-5.318433">
        <ele>2283.0</ele>
        <time>2018-07-28T12:07:56Z</time>
      </trkpt>
      <trkpt lat="40.426433" lon="-5.318300">
        <ele>2284.0</ele>
        <time>2018-07-28T12:07:57Z</time>
      </trkpt>
      <trkpt lat="40.426500" lon="-5.318183">
        <ele>2285.0</ele>
        <time>2018-07-28T12:07:58Z</time>
      </trkpt>
      <trkpt lat="40.426600" lon="-5.318083">
        <ele>2284.0</ele>
        <time>2018-07-28T12:07:59Z</time>
      </trkpt>
      <trkpt lat="40.426717" lon="-5.318033">
        <ele>2284.0</ele>
        <time>2018-07-28T12:08:00Z</time>
      </trkpt>
      <trkpt lat="40.426833" lon="-5.318017">
        <ele>2284.0</ele>
        <time>2018-07-28T12:08:01Z</time>
      </trkpt>
      <trkpt lat="40.426917" lon="-5.318067">
        <ele>2285.0</ele>
        <time>2018-07-28T12:08:02Z</time>
      </trkpt>
      <trkpt lat="40.426983" lon="-5.318133">
        <ele>2287.0</ele>
        <time>2018-07-28T12:08:03Z</time>
      </trkpt>
      <trkpt lat="40.427017" lon="-5.318217">
        <ele>2289.0</ele>
        <time>2018-07-28T12:08:04Z</time>
      </trkpt>
      <trkpt lat="40.427033" lon="-5.318300">
        <ele>2289.0</ele>
        <time>2018-07-28T12:08:05Z</time>
      </trkpt>
      <trkpt lat="40.427000" lon="-5.318383">
        <ele>2290.0</ele>
        <time>2018-07-28T12:08:06Z</time>
      </trkpt>
      <trkpt lat="40.426950" lon="-5.318450">
        <ele>2290.0</ele>
        <time>2018-07-28T12:08:07Z</time>
      </trkpt>
      <trkpt lat="40.426867" lon="-5.318483">
        <ele>2290.0</ele>
        <time>2018-07-28T12:08:08Z</time>
      </trkpt>
      <trkpt lat="40.426767" lon="-5.318483">
        <ele>2290.0</ele>
        <time>2018-07-28T12:08:09Z</time>
      </trkpt>
      <trkpt lat="40.426667" lon="-5.318433">
        <ele>2290.0</ele>
        <time>2018-07-28T12:08:10Z</time>
      </trkpt>
      <trkpt lat="40.426583" lon="-5.318350">
        <ele>2291.0</ele>
        <time>2018-07-28T12:08:11Z</time>
      </trkpt>
      <trkpt lat="40.426500" lon="-5.318217">
        <ele>2293.0</ele>
        <time>2018-07-28T12:08:12Z</time>
      </trkpt>
      <trkpt lat="40.426450" lon="-5.318067">
        <ele>2295.0</ele>
        <time>2018-07-28T12:08:13Z</time>
      </trkpt>
      <trkpt lat="40.426433" lon="-5.317883">
        <ele>2297.0</ele>
        <time>2018-07-28T12:08:14Z</time>
      </trkpt>
      <trkpt lat="40.426450" lon="-5.317717">
        <ele>2300.0</ele>
        <time>2018-07-28T12:08:15Z</time>
      </trkpt>
      <trkpt lat="40.426483" lon="-5.317550">
        <ele>2302.0</ele>
        <time>2018-07-28T12:08:16Z</time>
      </trkpt>
      <trkpt lat="40.426550" lon="-5.317417">
        <ele>2303.0</ele>
        <time>2018-07-28T12:08:17Z</time>
      </trkpt>
      <trkpt lat="40.426617" lon="-5.317317">
        <ele>2302.0</ele>
        <time>2018-07-28T12:08:18Z</time>
      </trkpt>
      <trkpt lat="40.426717" lon="-5.317233">
        <ele>2301.0</ele>
        <time>2018-07-28T12:08:19Z</time>
      </trkpt>
      <trkpt lat="40.426817" lon="-5.317200">
        <ele>2300.0</ele>
        <time>2018-07-28T12:08:20Z</time>
      </trkpt>
      <trkpt lat="40.426917" lon="-5.317200">
        <ele>2298.0</ele>
        <time>2018-07-28T12:08:21Z</time>
      </trkpt>
      <trkpt lat="40.427000" lon="-5.317250">
        <ele>2297.0</ele>
        <time>2018-07-28T12:08:22Z</time>
      </trkpt>
      <trkpt lat="40.427067" lon="-5.317333">
        <ele>2296.0</ele>
        <time>2018-07-28T12:08:23Z</time>
      </trkpt>
      <trkpt lat="40.427117" lon="-5.317433">
        <ele>2296.0</ele>
        <time>2018-07-28T12:08:24Z</time>
      </trkpt>
      <trkpt lat="40.427117" lon="-5.317550">
        <ele>2296.0</ele>
        <time>2018-07-28T12:08:25Z</time>
      </trkpt>
      <trkpt lat="40.427100" lon="-5.317650">
        <ele>2297.0</ele>
        <time>2018-07-28T12:08:26Z</time>
      </trkpt>
      <trkpt lat="40.427050" lon="-5.317733">
        <ele>2300.0</ele>
        <time>2018-07-28T12:08:27Z</time>
      </trkpt>
      <trkpt lat="40.427017" lon="-5.317800">
        <ele>2303.0</ele>
        <time>2018-07-28T12:08:28Z</time>
      </trkpt>
      <trkpt lat="40.426967" lon="-5.317850">
        <ele>2306.0</ele>
        <time>2018-07-28T12:08:29Z</time>
      </trkpt>
      <trkpt lat="40.426917" lon="-5.317900">
        <ele>2307.0</ele>
        <time>2018-07-28T12:08:30Z</time>
      </trkpt>
      <trkpt lat="40.426833" lon="-5.317917">
        <ele>2308.0</ele>
        <time>2018-07-28T12:08:31Z</time>
      </trkpt>
      <trkpt lat="40.426733" lon="-5.317900">
        <ele>2307.0</ele>
        <time>2018-07-28T12:08:32Z</time>
      </trkpt>
      <trkpt lat="40.426633" lon="-5.317817">
        <ele>2307.0</ele>
        <time>2018-07-28T12:08:33Z</time>
      </trkpt>
      <trkpt lat="40.426533" lon="-5.317717">
        <ele>2307.0</ele>
        <time>2018-07-28T12:08:34Z</time>
      </trkpt>
      <trkpt lat="40.426450" lon="-5.317567">
        <ele>2308.0</ele>
        <time>2018-07-28T12:08:35Z</time>
      </trkpt>
      <trkpt lat="40.426400" lon="-5.317400">
        <ele>2309.0</ele>
        <time>2018-07-28T12:08:36Z</time>
      </trkpt>
      <trkpt lat="40.426383" lon="-5.317217">
        <ele>2311.0</ele>
        <time>2018-07-28T12:08:37Z</time>
      </trkpt>
      <trkpt lat="40.426367" lon="-5.317033">
        <ele>2312.0</ele>
        <time>2018-07-28T12:08:38Z</time>
      </trkpt>
      <trkpt lat="40.426400" lon="-5.316850">
        <ele>2313.0</ele>
        <time>2018-07-28T12:08:39Z</time>
      </trkpt>
      <trkpt lat="40.426433" lon="-5.316667">
        <ele>2314.0</ele>
        <time>2018-07-28T12:08:40Z</time>
      </trkpt>
      <trkpt lat="40.426517" lon="-5.316517">
        <ele>2314.0</ele>
        <time>2018-07-28T12:08:41Z</time>
      </trkpt>
      <trkpt lat="40.426600" lon="-5.316417">
        <ele>2314.0</ele>
        <time>2018-07-28T12:08:42Z</time>
      </trkpt>
      <trkpt lat="40.426717" lon="-5.316350">
        <ele>2314.0</ele>
        <time>2018-07-28T12:08:43Z</time>
      </trkpt>
      <trkpt lat="40.426817" lon="-5.316333">
        <ele>2313.0</ele>
        <time>2018-07-28T12:08:44Z</time>
      </trkpt>
      <trkpt lat="40.426900" lon="-5.316350">
        <ele>2312.0</ele>
        <time>2018-07-28T12:08:45Z</time>
      </trkpt>
      <trkpt lat="40.426983" lon="-5.316383">
        <ele>2311.0</ele>
        <time>2018-07-28T12:08:46Z</time>
      </trkpt>
      <trkpt lat="40.427050" lon="-5.316450">
        <ele>2308.0</ele>
        <time>2018-07-28T12:08:47Z</time>
      </trkpt>
      <trkpt lat="40.427117" lon="-5.316533">
        <ele>2306.0</ele>
        <time>2018-07-28T12:08:48Z</time>
      </trkpt>
      <trkpt lat="40.427167" lon="-5.316650">
        <ele>2305.0</ele>
        <time>2018-07-28T12:08:49Z</time>
      </trkpt>
      <trkpt lat="40.427183" lon="-5.316767">
        <ele>2305.0</ele>
        <time>2018-07-28T12:08:50Z</time>
      </trkpt>
      <trkpt lat="40.427167" lon="-5.316900">
        <ele>2306.0</ele>
        <time>2018-07-28T12:08:51Z</time>
      </trkpt>
      <trkpt lat="40.427117" lon="-5.317000">
        <ele>2306.0</ele>
        <time>2018-07-28T12:08:52Z</time>
      </trkpt>
      <trkpt lat="40.427050" lon="-5.317067">
        <ele>2308.0</ele>
        <time>2018-07-28T12:08:53Z</time>
      </trkpt>
      <trkpt lat="40.426967" lon="-5.317083">
        <ele>2310.0</ele>
        <time>2018-07-28T12:08:54Z</time>
      </trkpt>
      <trkpt lat="40.426883" lon="-5.317067">
        <ele>2311.0</ele>
        <time>2018-07-28T12:08:55Z</time>
      </trkpt>
      <trkpt lat="40.426800" lon="-5.317033">
        <ele>2312.0</ele>
        <time>2018-07-28T12:08:56Z</time>
      </trkpt>
      <trkpt lat="40.426717" lon="-5.316983">
        <ele>2313.0</ele>
        <time>2018-07-28T12:08:57Z</time>
      </trkpt>
      <trkpt lat="40.426633" lon="-5.316917">
        <ele>2314.0</ele>
        <time>2018-07-28T12:08:58Z</time>
      </trkpt>
      <trkpt lat="40.426550" lon="-5.316817">
        <ele>2315.0</ele>
        <time>2018-07-28T12:08:59Z</time>
      </trkpt>
      <trkpt lat="40.426483" lon="-5.316717">
        <ele>2316.0</ele>
        <time>2018-07-28T12:09:00Z</time>
      </trkpt>
      <trkpt lat="40.426417" lon="-5.316583">
        <ele>2317.0</ele>
        <time>2018-07-28T12:09:01Z</time>
      </trkpt>
      <trkpt lat="40.426367" lon="-5.316450">
        <ele>2318.0</ele>
        <time>2018-07-28T12:09:02Z</time>
      </trkpt>
      <trkpt lat="40.426300" lon="-5.316317">
        <ele>2319.0</ele>
        <time>2018-07-28T12:09:03Z</time>
      </trkpt>
      <trkpt lat="40.426233" lon="-5.316183">
        <ele>2320.0</ele>
        <time>2018-07-28T12:09:04Z</time>
      </trkpt>
      <trkpt lat="40.426167" lon="-5.316083">
        <ele>2322.0</ele>
        <time>2018-07-28T12:09:05Z</time>
      </trkpt>
      <trkpt lat="40.426117" lon="-5.315950">
        <ele>2324.0</ele>
        <time>2018-07-28T12:09:06Z</time>
      </trkpt>
      <trkpt lat="40.426100" lon="-5.315817">
        <ele>2324.0</ele>
        <time>2018-07-28T12:09:07Z</time>
      </trkpt>
      <trkpt lat="40.426100" lon="-5.315667">
        <ele>2323.0</ele>
        <time>2018-07-28T12:09:08Z</time>
      </trkpt>
      <trkpt lat="40.426117" lon="-5.315517">
        <ele>2322.0</ele>
        <time>2018-07-28T12:09:09Z</time>
      </trkpt>
      <trkpt lat="40.426167" lon="-5.315383">
        <ele>2322.0</ele>
        <time>2018-07-28T12:09:10Z</time>
      </trkpt>
      <trkpt lat="40.426233" lon="-5.315283">
        <ele>2321.0</ele>
        <time>2018-07-28T12:09:11Z</time>
      </trkpt>
      <trkpt lat="40.426317" lon="-5.315217">
        <ele>2320.0</ele>
        <time>2018-07-28T12:09:12Z</time>
      </trkpt>
      <trkpt lat="40.426417" lon="-5.315167">
        <ele>2318.0</ele>
        <time>2018-07-28T12:09:13Z</time>
      </trkpt>
      <trkpt lat="40.426517" lon="-5.315117">
        <ele>2316.0</ele>
        <time>2018-07-28T12:09:14Z</time>
      </trkpt>
      <trkpt lat="40.426633" lon="-5.315117">
        <ele>2315.0</ele>
        <time>2018-07-28T12:09:15Z</time>
      </trkpt>
      <trkpt lat="40.426750" lon="-5.315133">
        <ele>2314.0</ele>
        <time>2018-07-28T12:09:16Z</time>
      </trkpt>
      <trkpt lat="40.426833" lon="-5.315183">
        <ele>2314.0</ele>
        <time>2018-07-28T12:09:17Z</time>
      </trkpt>
      <trkpt lat="40.426917" lon="-5.315250">
        <ele>2314.0</ele>
        <time>2018-07-28T12:09:18Z</time>
      </trkpt>
      <trkpt lat="40.427000" lon="-5.315317">
        <ele>2315.0</ele>
        <time>2018-07-28T12:09:19Z</time>
      </trkpt>
      <trkpt lat="40.427050" lon="-5.315383">
        <ele>2314.0</ele>
        <time>2018-07-28T12:09:20Z</time>
      </trkpt>
      <trkpt lat="40.427117" lon="-5.315467">
        <ele>2313.0</ele>
        <time>2018-07-28T12:09:21Z</time>
      </trkpt>
      <trkpt lat="40.427167" lon="-5.315550">
        <ele>2311.0</ele>
        <time>2018-07-28T12:09:22Z</time>
      </trkpt>
      <trkpt lat="40.427200" lon="-5.315667">
        <ele>2310.0</ele>
        <time>2018-07-28T12:09:23Z</time>
      </trkpt>
      <trkpt lat="40.427233" lon="-5.315800">
        <ele>2309.0</ele>
        <time>2018-07-28T12:09:24Z</time>
      </trkpt>
      <trkpt lat="40.427233" lon="-5.315933">
        <ele>2309.0</ele>
        <time>2018-07-28T12:09:25Z</time>
      </trkpt>
      <trkpt lat="40.427217" lon="-5.316050">
        <ele>2309.0</ele>
        <time>2018-07-28T12:09:26Z</time>
      </trkpt>
      <trkpt lat="40.427183" lon="-5.316150">
        <ele>2311.0</ele>
        <time>2018-07-28T12:09:27Z</time>
      </trkpt>
      <trkpt lat="40.427133" lon="-5.316233">
        <ele>2312.0</ele>
        <time>2018-07-28T12:09:28Z</time>
      </trkpt>
      <trkpt lat="40.427083" lon="-5.316300">
        <ele>2313.0</ele>
        <time>2018-07-28T12:09:29Z</time>
      </trkpt>
      <trkpt lat="40.427017" lon="-5.316367">
        <ele>2314.0</ele>
        <time>2018-07-28T12:09:30Z</time>
      </trkpt>
      <trkpt lat="40.426950" lon="-5.316417">
        <ele>2314.0</ele>
        <time>2018-07-28T12:09:31Z</time>
      </trkpt>
      <trkpt lat="40.426883" lon="-5.316450">
        <ele>2314.0</ele>
        <time>2018-07-28T12:09:32Z</time>
      </trkpt>
      <trkpt lat="40.426800" lon="-5.316483">
        <ele>2314.0</ele>
        <time>2018-07-28T12:09:33Z</time>
      </trkpt>
      <trkpt lat="40.426717" lon="-5.316517">
        <ele>2315.0</ele>
        <time>2018-07-28T12:09:34Z</time>
      </trkpt>
      <trkpt lat="40.426633" lon="-5.316550">
        <ele>2315.0</ele>
        <time>2018-07-28T12:09:35Z</time>
      </trkpt>
      <trkpt lat="40.426550" lon="-5.316550">
        <ele>2316.0</ele>
        <time>2018-07-28T12:09:36Z</time>
      </trkpt>
      <trkpt lat="40.426467" lon="-5.316533">
        <ele>2316.0</ele>
        <time>2018-07-28T12:09:37Z</time>
      </trkpt>
      <trkpt lat="40.426367" lon="-5.316500">
        <ele>2316.0</ele>
        <time>2018-07-28T12:09:38Z</time>
      </trkpt>
      <trkpt lat="40.426267" lon="-5.316450">
        <ele>2316.0</ele>
        <time>2018-07-28T12:09:39Z</time>
      </trkpt>
      <trkpt lat="40.426167" lon="-5.316383">
        <ele>2316.0</ele>
        <time>2018-07-28T12:09:40Z</time>
      </trkpt>
      <trkpt lat="40.426083" lon="-5.316317">
        <ele>2318.0</ele>
        <time>2018-07-28T12:09:41Z</time>
      </trkpt>
      <trkpt lat="40.425983" lon="-5.316233">
        <ele>2319.0</ele>
        <time>2018-07-28T12:09:42Z</time>
      </trkpt>
      <trkpt lat="40.425900" lon="-5.316150">
        <ele>2319.0</ele>
        <time>2018-07-28T12:09:43Z</time>
      </trkpt>
      <trkpt lat="40.425800" lon="-5.316050">
        <ele>2320.0</ele>
        <time>2018-07-28T12:09:44Z</time>
      </trkpt>
      <trkpt lat="40.425700" lon="-5.315967">
        <ele>2321.0</ele>
        <time>2018-07-28T12:09:45Z</time>
      </trkpt>
      <trkpt lat="40.425617" lon="-5.315867">
        <ele>2323.0</ele>
        <time>2018-07-28T12:09:46Z</time>
      </trkpt>
      <trkpt lat="40.425533" lon="-5.315767">
        <ele>2324.0</ele>
        <time>2018-07-28T12:09:47Z</time>
      </trkpt>
      <trkpt lat="40.425483" lon="-5.315633">
        <ele>2324.0</ele>
        <time>2018-07-28T12:09:48Z</time>
      </trkpt>
      <trkpt lat="40.425467" lon="-5.315483">
        <ele>2323.0</ele>
        <time>2018-07-28T12:09:49Z</time>
      </trkpt>
      <trkpt lat="40.425483" lon="-5.315333">
        <ele>2322.0</ele>
        <time>2018-07-28T12:09:50Z</time>
      </trkpt>
      <trkpt lat="40.425517" lon="-5.315183">
        <ele>2322.0</ele>
        <time>2018-07-28T12:09:51Z</time>
      </trkpt>
      <trkpt lat="40.425583" lon="-5.315067">
        <ele>2323.0</ele>
        <time>2018-07-28T12:09:52Z</time>
      </trkpt>
      <trkpt lat="40.425650" lon="-5.314967">
        <ele>2323.0</ele>
        <time>2018-07-28T12:09:53Z</time>
      </trkpt>
      <trkpt lat="40.425733" lon="-5.314883">
        <ele>2323.0</ele>
        <time>2018-07-28T12:09:54Z</time>
      </trkpt>
      <trkpt lat="40.425817" lon="-5.314800">
        <ele>2323.0</ele>
        <time>2018-07-28T12:09:55Z</time>
      </trkpt>
      <trkpt lat="40.425917" lon="-5.314750">
        <ele>2322.0</ele>
        <time>2018-07-28T12:09:56Z</time>
      </trkpt>
      <trkpt lat="40.426017" lon="-5.314717">
        <ele>2322.0</ele>
        <time>2018-07-28T12:09:57Z</time>
      </trkpt>
      <trkpt lat="40.426133" lon="-5.314683">
        <ele>2322.0</ele>
        <time>2018-07-28T12:09:58Z</time>
      </trkpt>
      <trkpt lat="40.426233" lon="-5.314667">
        <ele>2322.0</ele>
        <time>2018-07-28T12:09:59Z</time>
      </trkpt>
      <trkpt lat="40.426333" lon="-5.314650">
        <ele>2321.0</ele>
        <time>2018-07-28T12:10:00Z</time>
      </trkpt>
      <trkpt lat="40.426450" lon="-5.314650">
        <ele>2321.0</ele>
        <time>2018-07-28T12:10:01Z</time>
      </trkpt>
      <trkpt lat="40.426550" lon="-5.314633">
        <ele>2322.0</ele>
        <time>2018-07-28T12:10:02Z</time>
      </trkpt>
      <trkpt lat="40.426667" lon="-5.314633">
        <ele>2323.0</ele>
        <time>2018-07-28T12:10:03Z</time>
      </trkpt>
      <trkpt lat="40.426783" lon="-5.314617">
        <ele>2324.0</ele>
        <time>2018-07-28T12:10:04Z</time>
      </trkpt>
      <trkpt lat="40.426883" lon="-5.314633">
        <ele>2325.0</ele>
        <time>2018-07-28T12:10:05Z</time>
      </trkpt>
      <trkpt lat="40.426983" lon="-5.314650">
        <ele>2326.0</ele>
        <time>2018-07-28T12:10:06Z</time>
      </trkpt>
      <trkpt lat="40.427083" lon="-5.314667">
        <ele>2328.0</ele>
        <time>2018-07-28T12:10:07Z</time>
      </trkpt>
      <trkpt lat="40.427167" lon="-5.314700">
        <ele>2330.0</ele>
        <time>2018-07-28T12:10:08Z</time>
      </trkpt>
      <trkpt lat="40.427233" lon="-5.314733">
        <ele>2331.0</ele>
        <time>2018-07-28T12:10:09Z</time>
      </trkpt>
      <trkpt lat="40.427300" lon="-5.314800">
        <ele>2331.0</ele>
        <time>2018-07-28T12:10:10Z</time>
      </trkpt>
      <trkpt lat="40.427367" lon="-5.314900">
        <ele>2331.0</ele>
        <time>2018-07-28T12:10:11Z</time>
      </trkpt>
      <trkpt lat="40.427383" lon="-5.315017">
        <ele>2332.0</ele>
        <time>2018-07-28T12:10:12Z</time>
      </trkpt>
      <trkpt lat="40.427383" lon="-5.315133">
        <ele>2332.0</ele>
        <time>2018-07-28T12:10:13Z</time>
      </trkpt>
      <trkpt lat="40.427333" lon="-5.315233">
        <ele>2332.0</ele>
        <time>2018-07-28T12:10:14Z</time>
      </trkpt>
      <trkpt lat="40.427267" lon="-5.315300">
        <ele>2331.0</ele>
        <time>2018-07-28T12:10:15Z</time>
      </trkpt>
      <trkpt lat="40.427183" lon="-5.315317">
        <ele>2332.0</ele>
        <time>2018-07-28T12:10:16Z</time>
      </trkpt>
      <trkpt lat="40.427117" lon="-5.315300">
        <ele>2334.0</ele>
        <time>2018-07-28T12:10:17Z</time>
      </trkpt>
      <trkpt lat="40.427050" lon="-5.315250">
        <ele>2335.0</ele>
        <time>2018-07-28T12:10:18Z</time>
      </trkpt>
      <trkpt lat="40.426983" lon="-5.315183">
        <ele>2335.0</ele>
        <time>2018-07-28T12:10:19Z</time>
      </trkpt>
      <trkpt lat="40.426917" lon="-5.315100">
        <ele>2334.0</ele>
        <time>2018-07-28T12:10:20Z</time>
      </trkpt>
      <trkpt lat="40.426850" lon="-5.315000">
        <ele>2333.0</ele>
        <time>2018-07-28T12:10:21Z</time>
      </trkpt>
      <trkpt lat="40.426783" lon="-5.314867">
        <ele>2333.0</ele>
        <time>2018-07-28T12:10:22Z</time>
      </trkpt>
      <trkpt lat="40.426717" lon="-5.314733">
        <ele>2333.0</ele>
        <time>2018-07-28T12:10:23Z</time>
      </trkpt>
      <trkpt lat="40.426667" lon="-5.314600">
        <ele>2333.0</ele>
        <time>2018-07-28T12:10:24Z</time>
      </trkpt>
      <trkpt lat="40.426633" lon="-5.314450">
        <ele>2332.0</ele>
        <time>2018-07-28T12:10:25Z</time>
      </trkpt>
      <trkpt lat="40.426600" lon="-5.314317">
        <ele>2332.0</ele>
        <time>2018-07-28T12:10:26Z</time>
      </trkpt>
      <trkpt lat="40.426583" lon="-5.314167">
        <ele>2331.0</ele>
        <time>2018-07-28T12:10:27Z</time>
      </trkpt>
      <trkpt lat="40.426583" lon="-5.314017">
        <ele>2331.0</ele>
        <time>2018-07-28T12:10:28Z</time>
      </trkpt>
      <trkpt lat="40.426583" lon="-5.313867">
        <ele>2330.0</ele>
        <time>2018-07-28T12:10:29Z</time>
      </trkpt>
      <trkpt lat="40.426600" lon="-5.313717">
        <ele>2329.0</ele>
        <time>2018-07-28T12:10:30Z</time>
      </trkpt>
      <trkpt lat="40.426633" lon="-5.313567">
        <ele>2328.0</ele>
        <time>2018-07-28T12:10:31Z</time>
      </trkpt>
      <trkpt lat="40.426667" lon="-5.313417">
        <ele>2326.0</ele>
        <time>2018-07-28T12:10:32Z</time>
      </trkpt>
      <trkpt lat="40.426733" lon="-5.313283">
        <ele>2325.0</ele>
        <time>2018-07-28T12:10:33Z</time>
      </trkpt>
      <trkpt lat="40.426800" lon="-5.313183">
        <ele>2324.0</ele>
        <time>2018-07-28T12:10:34Z</time>
      </trkpt>
      <trkpt lat="40.426883" lon="-5.313083">
        <ele>2323.0</ele>
        <time>2018-07-28T12:10:35Z</time>
      </trkpt>
      <trkpt lat="40.426967" lon="-5.313017">
        <ele>2322.0</ele>
        <time>2018-07-28T12:10:36Z</time>
      </trkpt>
      <trkpt lat="40.427067" lon="-5.312983">
        <ele>2320.0</ele>
        <time>2018-07-28T12:10:37Z</time>
      </trkpt>
      <trkpt lat="40.427167" lon="-5.312967">
        <ele>2318.0</ele>
        <time>2018-07-28T12:10:38Z</time>
      </trkpt>
      <trkpt lat="40.427283" lon="-5.312967">
        <ele>2316.0</ele>
        <time>2018-07-28T12:10:39Z</time>
      </trkpt>
      <trkpt lat="40.427383" lon="-5.312983">
        <ele>2314.0</ele>
        <time>2018-07-28T12:10:40Z</time>
      </trkpt>
      <trkpt lat="40.427467" lon="-5.313033">
        <ele>2312.0</ele>
        <time>2018-07-28T12:10:41Z</time>
      </trkpt>
      <trkpt lat="40.427567" lon="-5.313100">
        <ele>2310.0</ele>
        <time>2018-07-28T12:10:42Z</time>
      </trkpt>
      <trkpt lat="40.427650" lon="-5.313183">
        <ele>2308.0</ele>
        <time>2018-07-28T12:10:43Z</time>
      </trkpt>
      <trkpt lat="40.427733" lon="-5.313233">
        <ele>2306.0</ele>
        <time>2018-07-28T12:10:44Z</time>
      </trkpt>
      <trkpt lat="40.427850" lon="-5.313283">
        <ele>2304.0</ele>
        <time>2018-07-28T12:10:45Z</time>
      </trkpt>
      <trkpt lat="40.427950" lon="-5.313300">
        <ele>2302.0</ele>
        <time>2018-07-28T12:10:46Z</time>
      </trkpt>
      <trkpt lat="40.428067" lon="-5.313283">
        <ele>2301.0</ele>
        <time>2018-07-28T12:10:47Z</time>
      </trkpt>
      <trkpt lat="40.428167" lon="-5.313250">
        <ele>2299.0</ele>
        <time>2018-07-28T12:10:48Z</time>
      </trkpt>
      <trkpt lat="40.428283" lon="-5.313200">
        <ele>2297.0</ele>
        <time>2018-07-28T12:10:49Z</time>
      </trkpt>
      <trkpt lat="40.428367" lon="-5.313133">
        <ele>2296.0</ele>
        <time>2018-07-28T12:10:50Z</time>
      </trkpt>
      <trkpt lat="40.428467" lon="-5.313050">
        <ele>2294.0</ele>
        <time>2018-07-28T12:10:51Z</time>
      </trkpt>
      <trkpt lat="40.428550" lon="-5.312950">
        <ele>2292.0</ele>
        <time>2018-07-28T12:10:52Z</time>
      </trkpt>
      <trkpt lat="40.428617" lon="-5.312850">
        <ele>2290.0</ele>
        <time>2018-07-28T12:10:53Z</time>
      </trkpt>
      <trkpt lat="40.428683" lon="-5.312733">
        <ele>2288.0</ele>
        <time>2018-07-28T12:10:54Z</time>
      </trkpt>
      <trkpt lat="40.428750" lon="-5.312617">
        <ele>2286.0</ele>
        <time>2018-07-28T12:10:55Z</time>
      </trkpt>
      <trkpt lat="40.428800" lon="-5.312467">
        <ele>2284.0</ele>
        <time>2018-07-28T12:10:56Z</time>
      </trkpt>
      <trkpt lat="40.428833" lon="-5.312333">
        <ele>2283.0</ele>
        <time>2018-07-28T12:10:57Z</time>
      </trkpt>
      <trkpt lat="40.428867" lon="-5.312183">
        <ele>2282.0</ele>
        <time>2018-07-28T12:10:58Z</time>
      </trkpt>
      <trkpt lat="40.428883" lon="-5.312067">
        <ele>2281.0</ele>
        <time>2018-07-28T12:10:59Z</time>
      </trkpt>
      <trkpt lat="40.428917" lon="-5.311933">
        <ele>2279.0</ele>
        <time>2018-07-28T12:11:00Z</time>
      </trkpt>
      <trkpt lat="40.428950" lon="-5.311783">
        <ele>2277.0</ele>
        <time>2018-07-28T12:11:01Z</time>
      </trkpt>
      <trkpt lat="40.429000" lon="-5.311633">
        <ele>2275.0</ele>
        <time>2018-07-28T12:11:02Z</time>
      </trkpt>
      <trkpt lat="40.429017" lon="-5.311483">
        <ele>2274.0</ele>
        <time>2018-07-28T12:11:03Z</time>
      </trkpt>
      <trkpt lat="40.429050" lon="-5.311317">
        <ele>2274.0</ele>
        <time>2018-07-28T12:11:04Z</time>
      </trkpt>
      <trkpt lat="40.429067" lon="-5.311167">
        <ele>2274.0</ele>
        <time>2018-07-28T12:11:05Z</time>
      </trkpt>
      <trkpt lat="40.429083" lon="-5.311033">
        <ele>2273.0</ele>
        <time>2018-07-28T12:11:06Z</time>
      </trkpt>
      <trkpt lat="40.429117" lon="-5.310900">
        <ele>2272.0</ele>
        <time>2018-07-28T12:11:07Z</time>
      </trkpt>
      <trkpt lat="40.429133" lon="-5.310750">
        <ele>2271.0</ele>
        <time>2018-07-28T12:11:08Z</time>
      </trkpt>
      <trkpt lat="40.429167" lon="-5.310617">
        <ele>2269.0</ele>
        <time>2018-07-28T12:11:09Z</time>
      </trkpt>
      <trkpt lat="40.429200" lon="-5.310467">
        <ele>2268.0</ele>
        <time>2018-07-28T12:11:10Z</time>
      </trkpt>
      <trkpt lat="40.429233" lon="-5.310333">
        <ele>2267.0</ele>
        <time>2018-07-28T12:11:11Z</time>
      </trkpt>
      <trkpt lat="40.429267" lon="-5.310200">
        <ele>2267.0</ele>
        <time>2018-07-28T12:11:12Z</time>
      </trkpt>
      <trkpt lat="40.429300" lon="-5.310083">
        <ele>2267.0</ele>
        <time>2018-07-28T12:11:13Z</time>
      </trkpt>
      <trkpt lat="40.429333" lon="-5.309950">
        <ele>2266.0</ele>
        <time>2018-07-28T12:11:14Z</time>
      </trkpt>
      <trkpt lat="40.429350" lon="-5.309817">
        <ele>2265.0</ele>
        <time>2018-07-28T12:11:15Z</time>
      </trkpt>
      <trkpt lat="40.429383" lon="-5.309667">
        <ele>2263.0</ele>
        <time>2018-07-28T12:11:16Z</time>
      </trkpt>
      <trkpt lat="40.429417" lon="-5.309533">
        <ele>2262.0</ele>
        <time>2018-07-28T12:11:17Z</time>
      </trkpt>
      <trkpt lat="40.429450" lon="-5.309383">
        <ele>2261.0</ele>
        <time>2018-07-28T12:11:18Z</time>
      </trkpt>
      <trkpt lat="40.429500" lon="-5.309267">
        <ele>2261.0</ele>
        <time>2018-07-28T12:11:19Z</time>
      </trkpt>
      <trkpt lat="40.429533" lon="-5.309133">
        <ele>2261.0</ele>
        <time>2018-07-28T12:11:20Z</time>
      </trkpt>
      <trkpt lat="40.429583" lon="-5.309000">
        <ele>2261.0</ele>
        <time>2018-07-28T12:11:21Z</time>
      </trkpt>
      <trkpt lat="40.429617" lon="-5.308867">
        <ele>2260.0</ele>
        <time>2018-07-28T12:11:22Z</time>
      </trkpt>
      <trkpt lat="40.429667" lon="-5.308733">
        <ele>2259.0</ele>
        <time>2018-07-28T12:11:23Z</time>
      </trkpt>
      <trkpt lat="40.429717" lon="-5.308600">
        <ele>2258.0</ele>
        <time>2018-07-28T12:11:24Z</time>
      </trkpt>
      <trkpt lat="40.429767" lon="-5.308467">
        <ele>2256.0</ele>
        <time>2018-07-28T12:11:25Z</time>
      </trkpt>
      <trkpt lat="40.429817" lon="-5.308333">
        <ele>2255.0</ele>
        <time>2018-07-28T12:11:26Z</time>
      </trkpt>
      <trkpt lat="40.429883" lon="-5.308200">
        <ele>2254.0</ele>
        <time>2018-07-28T12:11:27Z</time>
      </trkpt>
      <trkpt lat="40.429933" lon="-5.308050">
        <ele>2253.0</ele>
        <time>2018-07-28T12:11:28Z</time>
      </trkpt>
      <trkpt lat="40.429967" lon="-5.307900">
        <ele>2254.0</ele>
        <time>2018-07-28T12:11:29Z</time>
      </trkpt>
      <trkpt lat="40.430000" lon="-5.307750">
        <ele>2255.0</ele>
        <time>2018-07-28T12:11:30Z</time>
      </trkpt>
      <trkpt lat="40.430033" lon="-5.307617">
        <ele>2256.0</ele>
        <time>2018-07-28T12:11:31Z</time>
      </trkpt>
      <trkpt lat="40.430083" lon="-5.307467">
        <ele>2258.0</ele>
        <time>2018-07-28T12:11:32Z</time>
      </trkpt>
      <trkpt lat="40.430117" lon="-5.307350">
        <ele>2260.0</ele>
        <time>2018-07-28T12:11:33Z</time>
      </trkpt>
      <trkpt lat="40.430150" lon="-5.307233">
        <ele>2262.0</ele>
        <time>2018-07-28T12:11:34Z</time>
      </trkpt>
      <trkpt lat="40.430183" lon="-5.307117">
        <ele>2262.0</ele>
        <time>2018-07-28T12:11:35Z</time>
      </trkpt>
      <trkpt lat="40.430233" lon="-5.307017">
        <ele>2262.0</ele>
        <time>2018-07-28T12:11:36Z</time>
      </trkpt>
      <trkpt lat="40.430283" lon="-5.306933">
        <ele>2261.0</ele>
        <time>2018-07-28T12:11:37Z</time>
      </trkpt>
      <trkpt lat="40.430333" lon="-5.306833">
        <ele>2259.0</ele>
        <time>2018-07-28T12:11:38Z</time>
      </trkpt>
      <trkpt lat="40.430383" lon="-5.306717">
        <ele>2259.0</ele>
        <time>2018-07-28T12:11:39Z</time>
      </trkpt>
      <trkpt lat="40.430433" lon="-5.306600">
        <ele>2259.0</ele>
        <time>2018-07-28T12:11:40Z</time>
      </trkpt>
      <trkpt lat="40.430483" lon="-5.306467">
        <ele>2260.0</ele>
        <time>2018-07-28T12:11:41Z</time>
      </trkpt>
      <trkpt lat="40.430517" lon="-5.306333">
        <ele>2262.0</ele>
        <time>2018-07-28T12:11:42Z</time>
      </trkpt>
      <trkpt lat="40.430550" lon="-5.306217">
        <ele>2263.0</ele>
        <time>2018-07-28T12:11:43Z</time>
      </trkpt>
      <trkpt lat="40.430567" lon="-5.306083">
        <ele>2264.0</ele>
        <time>2018-07-28T12:11:44Z</time>
      </trkpt>
      <trkpt lat="40.430600" lon="-5.305983">
        <ele>2264.0</ele>
        <time>2018-07-28T12:11:45Z</time>
      </trkpt>
      <trkpt lat="40.430650" lon="-5.305883">
        <ele>2264.0</ele>
        <time>2018-07-28T12:11:46Z</time>
      </trkpt>
      <trkpt lat="40.430717" lon="-5.305800">
        <ele>2264.0</ele>
        <time>2018-07-28T12:11:47Z</time>
      </trkpt>
      <trkpt lat="40.430800" lon="-5.305733">
        <ele>2263.0</ele>
        <time>2018-07-28T12:11:48Z</time>
      </trkpt>
      <trkpt lat="40.430867" lon="-5.305667">
        <ele>2264.0</ele>
        <time>2018-07-28T12:11:49Z</time>
      </trkpt>
      <trkpt lat="40.430933" lon="-5.305600">
        <ele>2264.0</ele>
        <time>2018-07-28T12:11:50Z</time>
      </trkpt>
      <trkpt lat="40.430983" lon="-5.305500">
        <ele>2264.0</ele>
        <time>2018-07-28T12:11:51Z</time>
      </trkpt>
      <trkpt lat="40.431033" lon="-5.305417">
        <ele>2264.0</ele>
        <time>2018-07-28T12:11:52Z</time>
      </trkpt>
      <trkpt lat="40.431083" lon="-5.305317">
        <ele>2263.0</ele>
        <time>2018-07-28T12:11:53Z</time>
      </trkpt>
      <trkpt lat="40.431150" lon="-5.305233">
        <ele>2262.0</ele>
        <time>2018-07-28T12:11:54Z</time>
      </trkpt>
      <trkpt lat="40.431217" lon="-5.305150">
        <ele>2262.0</ele>
        <time>2018-07-28T12:11:55Z</time>
      </trkpt>
      <trkpt lat="40.431300" lon="-5.305050">
        <ele>2261.0</ele>
        <time>2018-07-28T12:11:56Z</time>
      </trkpt>
      <trkpt lat="40.431383" lon="-5.304983">
        <ele>2261.0</ele>
        <time>2018-07-28T12:11:57Z</time>
      </trkpt>
      <trkpt lat="40.431450" lon="-5.304900">
        <ele>2261.0</ele>
        <time>2018-07-28T12:11:58Z</time>
      </trkpt>
      <trkpt lat="40.431533" lon="-5.304833">
        <ele>2260.0</ele>
        <time>2018-07-28T12:11:59Z</time>
      </trkpt>
      <trkpt lat="40.431617" lon="-5.304767">
        <ele>2260.0</ele>
        <time>2018-07-28T12:12:00Z</time>
      </trkpt>
      <trkpt lat="40.431683" lon="-5.304683">
        <ele>2259.0</ele>
        <time>2018-07-28T12:12:01Z</time>
      </trkpt>
      <trkpt lat="40.431767" lon="-5.304617">
        <ele>2258.0</ele>
        <time>2018-07-28T12:12:02Z</time>
      </trkpt>
      <trkpt lat="40.431833" lon="-5.304550">
        <ele>2257.0</ele>
        <time>2018-07-28T12:12:03Z</time>
      </trkpt>
      <trkpt lat="40.431917" lon="-5.304467">
        <ele>2257.0</ele>
        <time>2018-07-28T12:12:04Z</time>
      </trkpt>
      <trkpt lat="40.431983" lon="-5.304400">
        <ele>2256.0</ele>
        <time>2018-07-28T12:12:05Z</time>
      </trkpt>
      <trkpt lat="40.432033" lon="-5.304333">
        <ele>2256.0</ele>
        <time>2018-07-28T12:12:06Z</time>
      </trkpt>
      <trkpt lat="40.432083" lon="-5.304250">
        <ele>2256.0</ele>
        <time>2018-07-28T12:12:07Z</time>
      </trkpt>
      <trkpt lat="40.432150" lon="-5.304183">
        <ele>2255.0</ele>
        <time>2018-07-28T12:12:08Z</time>
      </trkpt>
      <trkpt lat="40.432217" lon="-5.304100">
        <ele>2253.0</ele>
        <time>2018-07-28T12:12:09Z</time>
      </trkpt>
      <trkpt lat="40.432283" lon="-5.304033">
        <ele>2251.0</ele>
        <time>2018-07-28T12:12:10Z</time>
      </trkpt>
      <trkpt lat="40.432350" lon="-5.303950">
        <ele>2249.0</ele>
        <time>2018-07-28T12:12:11Z</time>
      </trkpt>
      <trkpt lat="40.432400" lon="-5.303867">
        <ele>2248.0</ele>
        <time>2018-07-28T12:12:12Z</time>
      </trkpt>
      <trkpt lat="40.432467" lon="-5.303783">
        <ele>2246.0</ele>
        <time>2018-07-28T12:12:13Z</time>
      </trkpt>
      <trkpt lat="40.432517" lon="-5.303700">
        <ele>2243.0</ele>
        <time>2018-07-28T12:12:14Z</time>
      </trkpt>
      <trkpt lat="40.432567" lon="-5.303583">
        <ele>2241.0</ele>
        <time>2018-07-28T12:12:15Z</time>
      </trkpt>
      <trkpt lat="40.432617" lon="-5.303450">
        <ele>2237.0</ele>
        <time>2018-07-28T12:12:16Z</time>
      </trkpt>
      <trkpt lat="40.432633" lon="-5.303283">
        <ele>2233.0</ele>
        <time>2018-07-28T12:12:17Z</time>
      </trkpt>
      <trkpt lat="40.432650" lon="-5.303117">
        <ele>2230.0</ele>
        <time>2018-07-28T12:12:18Z</time>
      </trkpt>
      <trkpt lat="40.432667" lon="-5.302967">
        <ele>2227.0</ele>
        <time>2018-07-28T12:12:19Z</time>
      </trkpt>
      <trkpt lat="40.432717" lon="-5.302833">
        <ele>2224.0</ele>
        <time>2018-07-28T12:12:20Z</time>
      </trkpt>
      <trkpt lat="40.432767" lon="-5.302717">
        <ele>2221.0</ele>
        <time>2018-07-28T12:12:21Z</time>
      </trkpt>
      <trkpt lat="40.432817" lon="-5.302583">
        <ele>2217.0</ele>
        <time>2018-07-28T12:12:22Z</time>
      </trkpt>
      <trkpt lat="40.432867" lon="-5.302467">
        <ele>2213.0</ele>
        <time>2018-07-28T12:12:23Z</time>
      </trkpt>
      <trkpt lat="40.432917" lon="-5.302333">
        <ele>2209.0</ele>
        <time>2018-07-28T12:12:24Z</time>
      </trkpt>
      <trkpt lat="40.432967" lon="-5.302200">
        <ele>2205.0</ele>
        <time>2018-07-28T12:12:25Z</time>
      </trkpt>
      <trkpt lat="40.433017" lon="-5.302067">
        <ele>2201.0</ele>
        <time>2018-07-28T12:12:26Z</time>
      </trkpt>
      <trkpt lat="40.433067" lon="-5.301933">
        <ele>2197.0</ele>
        <time>2018-07-28T12:12:27Z</time>
      </trkpt>
      <trkpt lat="40.433117" lon="-5.301783">
        <ele>2193.0</ele>
        <time>2018-07-28T12:12:28Z</time>
      </trkpt>
      <trkpt lat="40.433167" lon="-5.301633">
        <ele>2188.0</ele>
        <time>2018-07-28T12:12:29Z</time>
      </trkpt>
      <trkpt lat="40.433217" lon="-5.301483">
        <ele>2184.0</ele>
        <time>2018-07-28T12:12:30Z</time>
      </trkpt>
      <trkpt lat="40.433283" lon="-5.301333">
        <ele>2180.0</ele>
        <time>2018-07-28T12:12:31Z</time>
      </trkpt>
      <trkpt lat="40.433367" lon="-5.301217">
        <ele>2176.0</ele>
        <time>2018-07-28T12:12:32Z</time>
      </trkpt>
      <trkpt lat="40.433433" lon="-5.301083">
        <ele>2172.0</ele>
        <time>2018-07-28T12:12:33Z</time>
      </trkpt>
      <trkpt lat="40.433517" lon="-5.300967">
        <ele>2169.0</ele>
        <time>2018-07-28T12:12:34Z</time>
      </trkpt>
      <trkpt lat="40.433600" lon="-5.300850">
        <ele>2166.0</ele>
        <time>2018-07-28T12:12:35Z</time>
      </trkpt>
      <trkpt lat="40.433667" lon="-5.300733">
        <ele>2162.0</ele>
        <time>2018-07-28T12:12:36Z</time>
      </trkpt>
      <trkpt lat="40.433750" lon="-5.300617">
        <ele>2159.0</ele>
        <time>2018-07-28T12:12:37Z</time>
      </trkpt>
      <trkpt lat="40.433833" lon="-5.300500">
        <ele>2155.0</ele>
        <time>2018-07-28T12:12:38Z</time>
      </trkpt>
      <trkpt lat="40.433917" lon="-5.300383">
        <ele>2151.0</ele>
        <time>2018-07-28T12:12:39Z</time>
      </trkpt>
      <trkpt lat="40.434017" lon="-5.300250">
        <ele>2147.0</ele>
        <time>2018-07-28T12:12:40Z</time>
      </trkpt>
      <trkpt lat="40.434100" lon="-5.300117">
        <ele>2143.0</ele>
        <time>2018-07-28T12:12:41Z</time>
      </trkpt>
      <trkpt lat="40.434183" lon="-5.299983">
        <ele>2140.0</ele>
        <time>2018-07-28T12:12:42Z</time>
      </trkpt>
      <trkpt lat="40.434250" lon="-5.299833">
        <ele>2138.0</ele>
        <time>2018-07-28T12:12:43Z</time>
      </trkpt>
      <trkpt lat="40.434317" lon="-5.299700">
        <ele>2136.0</ele>
        <time>2018-07-28T12:12:44Z</time>
      </trkpt>
      <trkpt lat="40.434383" lon="-5.299567">
        <ele>2134.0</ele>
        <time>2018-07-28T12:12:45Z</time>
      </trkpt>
      <trkpt lat="40.434450" lon="-5.299433">
        <ele>2132.0</ele>
        <time>2018-07-28T12:12:46Z</time>
      </trkpt>
      <trkpt lat="40.434500" lon="-5.299300">
        <ele>2128.0</ele>
        <time>2018-07-28T12:12:47Z</time>
      </trkpt>
      <trkpt lat="40.434550" lon="-5.299133">
        <ele>2124.0</ele>
        <time>2018-07-28T12:12:48Z</time>
      </trkpt>
      <trkpt lat="40.434617" lon="-5.298967">
        <ele>2119.0</ele>
        <time>2018-07-28T12:12:49Z</time>
      </trkpt>
      <trkpt lat="40.434650" lon="-5.298800">
        <ele>2116.0</ele>
        <time>2018-07-28T12:12:50Z</time>
      </trkpt>
      <trkpt lat="40.434683" lon="-5.298617">
        <ele>2113.0</ele>
        <time>2018-07-28T12:12:51Z</time>
      </trkpt>
      <trkpt lat="40.434717" lon="-5.298450">
        <ele>2111.0</ele>
        <time>2018-07-28T12:12:52Z</time>
      </trkpt>
      <trkpt lat="40.434767" lon="-5.298283">
        <ele>2110.0</ele>
        <time>2018-07-28T12:12:53Z</time>
      </trkpt>
      <trkpt lat="40.434800" lon="-5.298133">
        <ele>2108.0</ele>
        <time>2018-07-28T12:12:54Z</time>
      </trkpt>
      <trkpt lat="40.434850" lon="-5.297983">
        <ele>2106.0</ele>
        <time>2018-07-28T12:12:55Z</time>
      </trkpt>
      <trkpt lat="40.434900" lon="-5.297833">
        <ele>2104.0</ele>
        <time>2018-07-28T12:12:56Z</time>
      </trkpt>
      <trkpt lat="40.434950" lon="-5.297683">
        <ele>2101.0</ele>
        <time>2018-07-28T12:12:57Z</time>
      </trkpt>
      <trkpt lat="40.435000" lon="-5.297533">
        <ele>2099.0</ele>
        <time>2018-07-28T12:12:58Z</time>
      </trkpt>
      <trkpt lat="40.435067" lon="-5.297400">
        <ele>2096.0</ele>
        <time>2018-07-28T12:12:59Z</time>
      </trkpt>
      <trkpt lat="40.435150" lon="-5.297267">
        <ele>2094.0</ele>
        <time>2018-07-28T12:13:00Z</time>
      </trkpt>
      <trkpt lat="40.435217" lon="-5.297150">
        <ele>2091.0</ele>
        <time>2018-07-28T12:13:01Z</time>
      </trkpt>
      <trkpt lat="40.435300" lon="-5.297017">
        <ele>2088.0</ele>
        <time>2018-07-28T12:13:02Z</time>
      </trkpt>
      <trkpt lat="40.435383" lon="-5.296883">
        <ele>2086.0</ele>
        <time>2018-07-28T12:13:03Z</time>
      </trkpt>
      <trkpt lat="40.435467" lon="-5.296750">
        <ele>2083.0</ele>
        <time>2018-07-28T12:13:04Z</time>
      </trkpt>
      <trkpt lat="40.435550" lon="-5.296617">
        <ele>2080.0</ele>
        <time>2018-07-28T12:13:05Z</time>
      </trkpt>
      <trkpt lat="40.435633" lon="-5.296467">
        <ele>2078.0</ele>
        <time>2018-07-28T12:13:06Z</time>
      </trkpt>
      <trkpt lat="40.435700" lon="-5.296333">
        <ele>2075.0</ele>
        <time>2018-07-28T12:13:07Z</time>
      </trkpt>
      <trkpt lat="40.435783" lon="-5.296183">
        <ele>2072.0</ele>
        <time>2018-07-28T12:13:08Z</time>
      </trkpt>
      <trkpt lat="40.435850" lon="-5.296033">
        <ele>2070.0</ele>
        <time>2018-07-28T12:13:09Z</time>
      </trkpt>
      <trkpt lat="40.435917" lon="-5.295900">
        <ele>2068.0</ele>
        <time>2018-07-28T12:13:10Z</time>
      </trkpt>
      <trkpt lat="40.435983" lon="-5.295750">
        <ele>2066.0</ele>
        <time>2018-07-28T12:13:11Z</time>
      </trkpt>
      <trkpt lat="40.436050" lon="-5.295617">
        <ele>2064.0</ele>
        <time>2018-07-28T12:13:12Z</time>
      </trkpt>
      <trkpt lat="40.436100" lon="-5.295467">
        <ele>2062.0</ele>
        <time>2018-07-28T12:13:13Z</time>
      </trkpt>
      <trkpt lat="40.436167" lon="-5.295317">
        <ele>2059.0</ele>
        <time>2018-07-28T12:13:14Z</time>
      </trkpt>
      <trkpt lat="40.436233" lon="-5.295183">
        <ele>2056.0</ele>
        <time>2018-07-28T12:13:15Z</time>
      </trkpt>
      <trkpt lat="40.436317" lon="-5.295050">
        <ele>2054.0</ele>
        <time>2018-07-28T12:13:16Z</time>
      </trkpt>
      <trkpt lat="40.436383" lon="-5.294933">
        <ele>2052.0</ele>
        <time>2018-07-28T12:13:17Z</time>
      </trkpt>
      <trkpt lat="40.436467" lon="-5.294817">
        <ele>2050.0</ele>
        <time>2018-07-28T12:13:18Z</time>
      </trkpt>
      <trkpt lat="40.436550" lon="-5.294717">
        <ele>2047.0</ele>
        <time>2018-07-28T12:13:19Z</time>
      </trkpt>
      <trkpt lat="40.436633" lon="-5.294617">
        <ele>2044.0</ele>
        <time>2018-07-28T12:13:20Z</time>
      </trkpt>
      <trkpt lat="40.436733" lon="-5.294517">
        <ele>2041.0</ele>
        <time>2018-07-28T12:13:21Z</time>
      </trkpt>
      <trkpt lat="40.436833" lon="-5.294417">
        <ele>2039.0</ele>
        <time>2018-07-28T12:13:22Z</time>
      </trkpt>
      <trkpt lat="40.436933" lon="-5.294317">
        <ele>2037.0</ele>
        <time>2018-07-28T12:13:23Z</time>
      </trkpt>
      <trkpt lat="40.437033" lon="-5.294233">
        <ele>2034.0</ele>
        <time>2018-07-28T12:13:24Z</time>
      </trkpt>
      <trkpt lat="40.437117" lon="-5.294133">
        <ele>2032.0</ele>
        <time>2018-07-28T12:13:25Z</time>
      </trkpt>
      <trkpt lat="40.437217" lon="-5.294033">
        <ele>2029.0</ele>
        <time>2018-07-28T12:13:26Z</time>
      </trkpt>
      <trkpt lat="40.437317" lon="-5.293950">
        <ele>2026.0</ele>
        <time>2018-07-28T12:13:27Z</time>
      </trkpt>
      <trkpt lat="40.437417" lon="-5.293850">
        <ele>2023.0</ele>
        <time>2018-07-28T12:13:28Z</time>
      </trkpt>
      <trkpt lat="40.437517" lon="-5.293750">
        <ele>2021.0</ele>
        <time>2018-07-28T12:13:29Z</time>
      </trkpt>
      <trkpt lat="40.437617" lon="-5.293667">
        <ele>2018.0</ele>
        <time>2018-07-28T12:13:30Z</time>
      </trkpt>
      <trkpt lat="40.437717" lon="-5.293567">
        <ele>2015.0</ele>
        <time>2018-07-28T12:13:31Z</time>
      </trkpt>
      <trkpt lat="40.437833" lon="-5.293483">
        <ele>2012.0</ele>
        <time>2018-07-28T12:13:32Z</time>
      </trkpt>
      <trkpt lat="40.437933" lon="-5.293400">
        <ele>2010.0</ele>
        <time>2018-07-28T12:13:33Z</time>
      </trkpt>
      <trkpt lat="40.438050" lon="-5.293300">
        <ele>2007.0</ele>
        <time>2018-07-28T12:13:34Z</time>
      </trkpt>
      <trkpt lat="40.438150" lon="-5.293183">
        <ele>2003.0</ele>
        <time>2018-07-28T12:13:35Z</time>
      </trkpt>
      <trkpt lat="40.438250" lon="-5.293033">
        <ele>2000.0</ele>
        <time>2018-07-28T12:13:36Z</time>
      </trkpt>
      <trkpt lat="40.438350" lon="-5.292900">
        <ele>1997.0</ele>
        <time>2018-07-28T12:13:37Z</time>
      </trkpt>
      <trkpt lat="40.438450" lon="-5.292783">
        <ele>1995.0</ele>
        <time>2018-07-28T12:13:38Z</time>
      </trkpt>
      <trkpt lat="40.438533" lon="-5.292667">
        <ele>1993.0</ele>
        <time>2018-07-28T12:13:39Z</time>
      </trkpt>
      <trkpt lat="40.438617" lon="-5.292550">
        <ele>1992.0</ele>
        <time>2018-07-28T12:13:40Z</time>
      </trkpt>
      <trkpt lat="40.438683" lon="-5.292433">
        <ele>1989.0</ele>
        <time>2018-07-28T12:13:41Z</time>
      </trkpt>
      <trkpt lat="40.438767" lon="-5.292317">
        <ele>1985.0</ele>
        <time>2018-07-28T12:13:42Z</time>
      </trkpt>
      <trkpt lat="40.438850" lon="-5.292200">
        <ele>1981.0</ele>
        <time>2018-07-28T12:13:43Z</time>
      </trkpt>
      <trkpt lat="40.438933" lon="-5.292083">
        <ele>1978.0</ele>
        <time>2018-07-28T12:13:44Z</time>
      </trkpt>
      <trkpt lat="40.439017" lon="-5.291967">
        <ele>1974.0</ele>
        <time>2018-07-28T12:13:45Z</time>
      </trkpt>
      <trkpt lat="40.439117" lon="-5.291850">
        <ele>1972.0</ele>
        <time>2018-07-28T12:13:46Z</time>
      </trkpt>
      <trkpt lat="40.439200" lon="-5.291733">
        <ele>1969.0</ele>
        <time>2018-07-28T12:13:47Z</time>
      </trkpt>
      <trkpt lat="40.439283" lon="-5.291617">
        <ele>1967.0</ele>
        <time>2018-07-28T12:13:48Z</time>
      </trkpt>
      <trkpt lat="40.439367" lon="-5.291517">
        <ele>1965.0</ele>
        <time>2018-07-28T12:13:49Z</time>
      </trkpt>
      <trkpt lat="40.439450" lon="-5.291400">
        <ele>1963.0</ele>
        <time>2018-07-28T12:13:50Z</time>
      </trkpt>
      <trkpt lat="40.439533" lon="-5.291283">
        <ele>1960.0</ele>
        <time>2018-07-28T12:13:51Z</time>
      </trkpt>
      <trkpt lat="40.439600" lon="-5.291150">
        <ele>1958.0</ele>
        <time>2018-07-28T12:13:52Z</time>
      </trkpt>
      <trkpt lat="40.439700" lon="-5.291033">
        <ele>1956.0</ele>
        <time>2018-07-28T12:13:53Z</time>
      </trkpt>
      <trkpt lat="40.439767" lon="-5.290917">
        <ele>1954.0</ele>
        <time>2018-07-28T12:13:54Z</time>
      </trkpt>
      <trkpt lat="40.439850" lon="-5.290800">
        <ele>1953.0</ele>
        <time>2018-07-28T12:13:55Z</time>
      </trkpt>
      <trkpt lat="40.439900" lon="-5.290667">
        <ele>1952.0</ele>
        <time>2018-07-28T12:13:56Z</time>
      </trkpt>
      <trkpt lat="40.439933" lon="-5.290517">
        <ele>1951.0</ele>
        <time>2018-07-28T12:13:57Z</time>
      </trkpt>
      <trkpt lat="40.439950" lon="-5.290367">
        <ele>1949.0</ele>
        <time>2018-07-28T12:13:58Z</time>
      </trkpt>
      <trkpt lat="40.439967" lon="-5.290217">
        <ele>1947.0</ele>
        <time>2018-07-28T12:13:59Z</time>
      </trkpt>
      <trkpt lat="40.439983" lon="-5.290050">
        <ele>1945.0</ele>
        <time>2018-07-28T12:14:00Z</time>
      </trkpt>
      <trkpt lat="40.439967" lon="-5.289883">
        <ele>1944.0</ele>
        <time>2018-07-28T12:14:01Z</time>
      </trkpt>
      <trkpt lat="40.439950" lon="-5.289717">
        <ele>1942.0</ele>
        <time>2018-07-28T12:14:02Z</time>
      </trkpt>
      <trkpt lat="40.439933" lon="-5.289550">
        <ele>1941.0</ele>
        <time>2018-07-28T12:14:03Z</time>
      </trkpt>
      <trkpt lat="40.439883" lon="-5.289383">
        <ele>1939.0</ele>
        <time>2018-07-28T12:14:04Z</time>
      </trkpt>
      <trkpt lat="40.439833" lon="-5.289233">
        <ele>1938.0</ele>
        <time>2018-07-28T12:14:05Z</time>
      </trkpt>
      <trkpt lat="40.439783" lon="-5.289067">
        <ele>1937.0</ele>
        <time>2018-07-28T12:14:06Z</time>
      </trkpt>
      <trkpt lat="40.439733" lon="-5.288917">
        <ele>1936.0</ele>
        <time>2018-07-28T12:14:07Z</time>
      </trkpt>
      <trkpt lat="40.439683" lon="-5.288750">
        <ele>1934.0</ele>
        <time>2018-07-28T12:14:08Z</time>
      </trkpt>
      <trkpt lat="40.439650" lon="-5.288583">
        <ele>1933.0</ele>
        <time>2018-07-28T12:14:09Z</time>
      </trkpt>
      <trkpt lat="40.439600" lon="-5.288433">
        <ele>1931.0</ele>
        <time>2018-07-28T12:14:10Z</time>
      </trkpt>
      <trkpt lat="40.439550" lon="-5.288283">
        <ele>1929.0</ele>
        <time>2018-07-28T12:14:11Z</time>
      </trkpt>
      <trkpt lat="40.439483" lon="-5.288133">
        <ele>1927.0</ele>
        <time>2018-07-28T12:14:12Z</time>
      </trkpt>
      <trkpt lat="40.439433" lon="-5.287967">
        <ele>1924.0</ele>
        <time>2018-07-28T12:14:13Z</time>
      </trkpt>
      <trkpt lat="40.439383" lon="-5.287800">
        <ele>1923.0</ele>
        <time>2018-07-28T12:14:14Z</time>
      </trkpt>
      <trkpt lat="40.439350" lon="-5.287633">
        <ele>1921.0</ele>
        <time>2018-07-28T12:14:15Z</time>
      </trkpt>
      <trkpt lat="40.439350" lon="-5.287467">
        <ele>1920.0</ele>
        <time>2018-07-28T12:14:16Z</time>
      </trkpt>
      <trkpt lat="40.439383" lon="-5.287317">
        <ele>1918.0</ele>
        <time>2018-07-28T12:14:17Z</time>
      </trkpt>
      <trkpt lat="40.439400" lon="-5.287167">
        <ele>1917.0</ele>
        <time>2018-07-28T12:14:18Z</time>
      </trkpt>
      <trkpt lat="40.439433" lon="-5.287050">
        <ele>1916.0</ele>
        <time>2018-07-28T12:14:19Z</time>
      </trkpt>
      <trkpt lat="40.439483" lon="-5.286917">
        <ele>1914.0</ele>
        <time>2018-07-28T12:14:20Z</time>
      </trkpt>
      <trkpt lat="40.439533" lon="-5.286800">
        <ele>1911.0</ele>
        <time>2018-07-28T12:14:21Z</time>
      </trkpt>
      <trkpt lat="40.439583" lon="-5.286667">
        <ele>1909.0</ele>
        <time>2018-07-28T12:14:22Z</time>
      </trkpt>
      <trkpt lat="40.439650" lon="-5.286567">
        <ele>1909.0</ele>
        <time>2018-07-28T12:14:23Z</time>
      </trkpt>
      <trkpt lat="40.439717" lon="-5.286467">
        <ele>1909.0</ele>
        <time>2018-07-28T12:14:24Z</time>
      </trkpt>
      <trkpt lat="40.439767" lon="-5.286383">
        <ele>1908.0</ele>
        <time>2018-07-28T12:14:25Z</time>
      </trkpt>
      <trkpt lat="40.439833" lon="-5.286300">
        <ele>1907.0</ele>
        <time>2018-07-28T12:14:26Z</time>
      </trkpt>
      <trkpt lat="40.439917" lon="-5.286233">
        <ele>1906.0</ele>
        <time>2018-07-28T12:14:27Z</time>
      </trkpt>
      <trkpt lat="40.439983" lon="-5.286183">
        <ele>1905.0</ele>
        <time>2018-07-28T12:14:28Z</time>
      </trkpt>
      <trkpt lat="40.440067" lon="-5.286150">
        <ele>1904.0</ele>
        <time>2018-07-28T12:14:29Z</time>
      </trkpt>
      <trkpt lat="40.440133" lon="-5.286133">
        <ele>1904.0</ele>
        <time>2018-07-28T12:14:30Z</time>
      </trkpt>
      <trkpt lat="40.440183" lon="-5.286133">
        <ele>1902.0</ele>
        <time>2018-07-28T12:14:31Z</time>
      </trkpt>
      <trkpt lat="40.440250" lon="-5.286167">
        <ele>1900.0</ele>
        <time>2018-07-28T12:14:32Z</time>
      </trkpt>
      <trkpt lat="40.440317" lon="-5.286217">
        <ele>1899.0</ele>
        <time>2018-07-28T12:14:33Z</time>
      </trkpt>
      <trkpt lat="40.440367" lon="-5.286267">
        <ele>1899.0</ele>
        <time>2018-07-28T12:14:34Z</time>
      </trkpt>
      <trkpt lat="40.440433" lon="-5.286317">
        <ele>1898.0</ele>
        <time>2018-07-28T12:14:35Z</time>
      </trkpt>
      <trkpt lat="40.440500" lon="-5.286333">
        <ele>1898.0</ele>
        <time>2018-07-28T12:14:36Z</time>
      </trkpt>
      <trkpt lat="40.440583" lon="-5.286333">
        <ele>1896.0</ele>
        <time>2018-07-28T12:14:37Z</time>
      </trkpt>
      <trkpt lat="40.440683" lon="-5.286283">
        <ele>1895.0</ele>
        <time>2018-07-28T12:14:38Z</time>
      </trkpt>
      <trkpt lat="40.440767" lon="-5.286217">
        <ele>1896.0</ele>
        <time>2018-07-28T12:14:39Z</time>
      </trkpt>
      <trkpt lat="40.440833" lon="-5.286133">
        <ele>1898.0</ele>
        <time>2018-07-28T12:14:40Z</time>
      </trkpt>
      <trkpt lat="40.440900" lon="-5.286050">
        <ele>1900.0</ele>
        <time>2018-07-28T12:14:41Z</time>
      </trkpt>
      <trkpt lat="40.440933" lon="-5.285950">
        <ele>1901.0</ele>
        <time>2018-07-28T12:14:42Z</time>
      </trkpt>
      <trkpt lat="40.440967" lon="-5.285817">
        <ele>1901.0</ele>
        <time>2018-07-28T12:14:43Z</time>
      </trkpt>
      <trkpt lat="40.440983" lon="-5.285683">
        <ele>1900.0</ele>
        <time>2018-07-28T12:14:44Z</time>
      </trkpt>
      <trkpt lat="40.441000" lon="-5.285533">
        <ele>1900.0</ele>
        <time>2018-07-28T12:14:45Z</time>
      </trkpt>
      <trkpt lat="40.441000" lon="-5.285367">
        <ele>1899.0</ele>
        <time>2018-07-28T12:14:46Z</time>
      </trkpt>
      <trkpt lat="40.441017" lon="-5.285200">
        <ele>1899.0</ele>
        <time>2018-07-28T12:14:47Z</time>
      </trkpt>
      <trkpt lat="40.441033" lon="-5.285050">
        <ele>1899.0</ele>
        <time>2018-07-28T12:14:48Z</time>
      </trkpt>
      <trkpt lat="40.441083" lon="-5.284900">
        <ele>1898.0</ele>
        <time>2018-07-28T12:14:49Z</time>
      </trkpt>
      <trkpt lat="40.441167" lon="-5.284783">
        <ele>1897.0</ele>
        <time>2018-07-28T12:14:50Z</time>
      </trkpt>
      <trkpt lat="40.441267" lon="-5.284700">
        <ele>1896.0</ele>
        <time>2018-07-28T12:14:51Z</time>
      </trkpt>
      <trkpt lat="40.441367" lon="-5.284683">
        <ele>1896.0</ele>
        <time>2018-07-28T12:14:52Z</time>
      </trkpt>
      <trkpt lat="40.441433" lon="-5.284717">
        <ele>1896.0</ele>
        <time>2018-07-28T12:14:53Z</time>
      </trkpt>
      <trkpt lat="40.441483" lon="-5.284783">
        <ele>1896.0</ele>
        <time>2018-07-28T12:14:54Z</time>
      </trkpt>
      <trkpt lat="40.441483" lon="-5.284867">
        <ele>1896.0</ele>
        <time>2018-07-28T12:14:55Z</time>
      </trkpt>
      <trkpt lat="40.441483" lon="-5.284950">
        <ele>1896.0</ele>
        <time>2018-07-28T12:14:56Z</time>
      </trkpt>
      <trkpt lat="40.441450" lon="-5.285033">
        <ele>1899.0</ele>
        <time>2018-07-28T12:14:57Z</time>
      </trkpt>
      <trkpt lat="40.441417" lon="-5.285117">
        <ele>1901.0</ele>
        <time>2018-07-28T12:14:58Z</time>
      </trkpt>
      <trkpt lat="40.441367" lon="-5.285167">
        <ele>1903.0</ele>
        <time>2018-07-28T12:14:59Z</time>
      </trkpt>
      <trkpt lat="40.441300" lon="-5.285200">
        <ele>1904.0</ele>
        <time>2018-07-28T12:15:00Z</time>
      </trkpt>
      <trkpt lat="40.441217" lon="-5.285183">
        <ele>1902.0</ele>
        <time>2018-07-28T12:15:01Z</time>
      </trkpt>
      <trkpt lat="40.441133" lon="-5.285117">
        <ele>1900.0</ele>
        <time>2018-07-28T12:15:02Z</time>
      </trkpt>
      <trkpt lat="40.441050" lon="-5.285050">
        <ele>1898.0</ele>
        <time>2018-07-28T12:15:03Z</time>
      </trkpt>
      <trkpt lat="40.440950" lon="-5.284967">
        <ele>1897.0</ele>
        <time>2018-07-28T12:15:04Z</time>
      </trkpt>
      <trkpt lat="40.440867" lon="-5.284883">
        <ele>1896.0</ele>
        <time>2018-07-28T12:15:05Z</time>
      </trkpt>
      <trkpt lat="40.440767" lon="-5.284817">
        <ele>1895.0</ele>
        <time>2018-07-28T12:15:06Z</time>
      </trkpt>
      <trkpt lat="40.440650" lon="-5.284783">
        <ele>1895.0</ele>
        <time>2018-07-28T12:15:07Z</time>
      </trkpt>
      <trkpt lat="40.440550" lon="-5.284750">
        <ele>1895.0</ele>
        <time>2018-07-28T12:15:08Z</time>
      </trkpt>
      <trkpt lat="40.440450" lon="-5.284717">
        <ele>1895.0</ele>
        <time>2018-07-28T12:15:09Z</time>
      </trkpt>
      <trkpt lat="40.440350" lon="-5.284683">
        <ele>1896.0</ele>
        <time>2018-07-28T12:15:10Z</time>
      </trkpt>
      <trkpt lat="40.440250" lon="-5.284667">
        <ele>1896.0</ele>
        <time>2018-07-28T12:15:11Z</time>
      </trkpt>
      <trkpt lat="40.440150" lon="-5.284650">
        <ele>1897.0</ele>
        <time>2018-07-28T12:15:12Z</time>
      </trkpt>
      <trkpt lat="40.440050" lon="-5.284650">
        <ele>1897.0</ele>
        <time>2018-07-28T12:15:13Z</time>
      </trkpt>
      <trkpt lat="40.439967" lon="-5.284650">
        <ele>1897.0</ele>
        <time>2018-07-28T12:15:14Z</time>
      </trkpt>
      <trkpt lat="40.439867" lon="-5.284667">
        <ele>1897.0</ele>
        <time>2018-07-28T12:15:15Z</time>
      </trkpt>
      <trkpt lat="40.439783" lon="-5.284683">
        <ele>1897.0</ele>
        <time>2018-07-28T12:15:16Z</time>
      </trkpt>
      <trkpt lat="40.439700" lon="-5.284700">
        <ele>1897.0</ele>
        <time>2018-07-28T12:15:17Z</time>
      </trkpt>
      <trkpt lat="40.439633" lon="-5.284750">
        <ele>1897.0</ele>
        <time>2018-07-28T12:15:18Z</time>
      </trkpt>
      <trkpt lat="40.439550" lon="-5.284800">
        <ele>1896.0</ele>
        <time>2018-07-28T12:15:19Z</time>
      </trkpt>
      <trkpt lat="40.439483" lon="-5.284850">
        <ele>1897.0</ele>
        <time>2018-07-28T12:15:20Z</time>
      </trkpt>
      <trkpt lat="40.439400" lon="-5.284883">
        <ele>1898.0</ele>
        <time>2018-07-28T12:15:21Z</time>
      </trkpt>
      <trkpt lat="40.439317" lon="-5.284900">
        <ele>1900.0</ele>
        <time>2018-07-28T12:15:22Z</time>
      </trkpt>
      <trkpt lat="40.439233" lon="-5.284917">
        <ele>1901.0</ele>
        <time>2018-07-28T12:15:23Z</time>
      </trkpt>
      <trkpt lat="40.439167" lon="-5.284933">
        <ele>1902.0</ele>
        <time>2018-07-28T12:15:24Z</time>
      </trkpt>
      <trkpt lat="40.439117" lon="-5.284950">
        <ele>1901.0</ele>
        <time>2018-07-28T12:15:25Z</time>
      </trkpt>
      <trkpt lat="40.439067" lon="-5.285000">
        <ele>1900.0</ele>
        <time>2018-07-28T12:15:26Z</time>
      </trkpt>
      <trkpt lat="40.439017" lon="-5.285067">
        <ele>1899.0</ele>
        <time>2018-07-28T12:15:27Z</time>
      </trkpt>
      <trkpt lat="40.438983" lon="-5.285133">
        <ele>1899.0</ele>
        <time>2018-07-28T12:15:28Z</time>
      </trkpt>
      <trkpt lat="40.438950" lon="-5.285183">
        <ele>1898.0</ele>
        <time>2018-07-28T12:15:29Z</time>
      </trkpt>
      <trkpt lat="40.438883" lon="-5.285233">
        <ele>1897.0</ele>
        <time>2018-07-28T12:15:30Z</time>
      </trkpt>
      <trkpt lat="40.438833" lon="-5.285283">
        <ele>1896.0</ele>
        <time>2018-07-28T12:15:31Z</time>
      </trkpt>
      <trkpt lat="40.438767" lon="-5.285333">
        <ele>1894.0</ele>
        <time>2018-07-28T12:15:32Z</time>
      </trkpt>
      <trkpt lat="40.438717" lon="-5.285400">
        <ele>1892.0</ele>
        <time>2018-07-28T12:15:33Z</time>
      </trkpt>
      <trkpt lat="40.438667" lon="-5.285500">
        <ele>1890.0</ele>
        <time>2018-07-28T12:15:34Z</time>
      </trkpt>
      <trkpt lat="40.438650" lon="-5.285600">
        <ele>1890.0</ele>
        <time>2018-07-28T12:15:35Z</time>
      </trkpt>
      <trkpt lat="40.438667" lon="-5.285700">
        <ele>1891.0</ele>
        <time>2018-07-28T12:15:36Z</time>
      </trkpt>
      <trkpt lat="40.438700" lon="-5.285783">
        <ele>1894.0</ele>
        <time>2018-07-28T12:15:37Z</time>
      </trkpt>
      <trkpt lat="40.438717" lon="-5.285850">
        <ele>1898.0</ele>
        <time>2018-07-28T12:15:38Z</time>
      </trkpt>
      <trkpt lat="40.438717" lon="-5.285883">
        <ele>1901.0</ele>
        <time>2018-07-28T12:15:39Z</time>
      </trkpt>
      <trkpt lat="40.438717" lon="-5.285917">
        <ele>1902.0</ele>
        <time>2018-07-28T12:15:40Z</time>
      </trkpt>
      <trkpt lat="40.438717" lon="-5.285950">
        <ele>1901.0</ele>
        <time>2018-07-28T12:15:41Z</time>
      </trkpt>
      <trkpt lat="40.438750" lon="-5.286000">
        <ele>1900.0</ele>
        <time>2018-07-28T12:15:42Z</time>
      </trkpt>
      <trkpt lat="40.438800" lon="-5.286050">
        <ele>1899.0</ele>
        <time>2018-07-28T12:15:43Z</time>
      </trkpt>
      <trkpt lat="40.438867" lon="-5.286100">
        <ele>1899.0</ele>
        <time>2018-07-28T12:15:44Z</time>
      </trkpt>
      <trkpt lat="40.438917" lon="-5.286133">
        <ele>1900.0</ele>
        <time>2018-07-28T12:15:45Z</time>
      </trkpt>
      <trkpt lat="40.438983" lon="-5.286150">
        <ele>1900.0</ele>
        <time>2018-07-28T12:15:46Z</time>
      </trkpt>
      <trkpt lat="40.439033" lon="-5.286167">
        <ele>1900.0</ele>
        <time>2018-07-28T12:15:47Z</time>
      </trkpt>
      <trkpt lat="40.439117" lon="-5.286167">
        <ele>1900.0</ele>
        <time>2018-07-28T12:15:48Z</time>
      </trkpt>
      <trkpt lat="40.439183" lon="-5.286117">
        <ele>1899.0</ele>
        <time>2018-07-28T12:15:49Z</time>
      </trkpt>
      <trkpt lat="40.439283" lon="-5.286000">
        <ele>1897.0</ele>
        <time>2018-07-28T12:15:50Z</time>
      </trkpt>
      <trkpt lat="40.439350" lon="-5.285850">
        <ele>1896.0</ele>
        <time>2018-07-28T12:15:51Z</time>
      </trkpt>
      <trkpt lat="40.439400" lon="-5.285667">
        <ele>1897.0</ele>
        <time>2018-07-28T12:15:52Z</time>
      </trkpt>
      <trkpt lat="40.439417" lon="-5.285483">
        <ele>1898.0</ele>
        <time>2018-07-28T12:15:53Z</time>
      </trkpt>
      <trkpt lat="40.439417" lon="-5.285300">
        <ele>1900.0</ele>
        <time>2018-07-28T12:15:54Z</time>
      </trkpt>
      <trkpt lat="40.439417" lon="-5.285150">
        <ele>1901.0</ele>
        <time>2018-07-28T12:15:55Z</time>
      </trkpt>
      <trkpt lat="40.439450" lon="-5.284983">
        <ele>1901.0</ele>
        <time>2018-07-28T12:15:56Z</time>
      </trkpt>
      <trkpt lat="40.439483" lon="-5.284817">
        <ele>1900.0</ele>
        <time>2018-07-28T12:15:57Z</time>
      </trkpt>
      <trkpt lat="40.439550" lon="-5.284667">
        <ele>1900.0</ele>
        <time>2018-07-28T12:15:58Z</time>
      </trkpt>
      <trkpt lat="40.439617" lon="-5.284550">
        <ele>1901.0</ele>
        <time>2018-07-28T12:15:59Z</time>
      </trkpt>
      <trkpt lat="40.439683" lon="-5.284450">
        <ele>1902.0</ele>
        <time>2018-07-28T12:16:00Z</time>
      </trkpt>
      <trkpt lat="40.439750" lon="-5.284383">
        <ele>1903.0</ele>
        <time>2018-07-28T12:16:01Z</time>
      </trkpt>
      <trkpt lat="40.439833" lon="-5.284333">
        <ele>1902.0</ele>
        <time>2018-07-28T12:16:02Z</time>
      </trkpt>
      <trkpt lat="40.439900" lon="-5.284317">
        <ele>1901.0</ele>
        <time>2018-07-28T12:16:03Z</time>
      </trkpt>
      <trkpt lat="40.439950" lon="-5.284350">
        <ele>1900.0</ele>
        <time>2018-07-28T12:16:04Z</time>
      </trkpt>
      <trkpt lat="40.439983" lon="-5.284417">
        <ele>1898.0</ele>
        <time>2018-07-28T12:16:05Z</time>
      </trkpt>
      <trkpt lat="40.439950" lon="-5.284500">
        <ele>1897.0</ele>
        <time>2018-07-28T12:16:06Z</time>
      </trkpt>
      <trkpt lat="40.439883" lon="-5.284550">
        <ele>1896.0</ele>
        <time>2018-07-28T12:16:07Z</time>
      </trkpt>
      <trkpt lat="40.439800" lon="-5.284583">
        <ele>1897.0</ele>
        <time>2018-07-28T12:16:08Z</time>
      </trkpt>
      <trkpt lat="40.439700" lon="-5.284583">
        <ele>1900.0</ele>
        <time>2018-07-28T12:16:09Z</time>
      </trkpt>
      <trkpt lat="40.439617" lon="-5.284567">
        <ele>1902.0</ele>
        <time>2018-07-28T12:16:10Z</time>
      </trkpt>
      <trkpt lat="40.439550" lon="-5.284567">
        <ele>1902.0</ele>
        <time>2018-07-28T12:16:11Z</time>
      </trkpt>
      <trkpt lat="40.439467" lon="-5.284567">
        <ele>1902.0</ele>
        <time>2018-07-28T12:16:12Z</time>
      </trkpt>
      <trkpt lat="40.439400" lon="-5.284600">
        <ele>1901.0</ele>
        <time>2018-07-28T12:16:13Z</time>
      </trkpt>
      <trkpt lat="40.439333" lon="-5.284633">
        <ele>1901.0</ele>
        <time>2018-07-28T12:16:14Z</time>
      </trkpt>
      <trkpt lat="40.439267" lon="-5.284683">
        <ele>1902.0</ele>
        <time>2018-07-28T12:16:15Z</time>
      </trkpt>
      <trkpt lat="40.439217" lon="-5.284733">
        <ele>1903.0</ele>
        <time>2018-07-28T12:16:16Z</time>
      </trkpt>
      <trkpt lat="40.439167" lon="-5.284783">
        <ele>1905.0</ele>
        <time>2018-07-28T12:16:17Z</time>
      </trkpt>
      <trkpt lat="40.439117" lon="-5.284817">
        <ele>1905.0</ele>
        <time>2018-07-28T12:16:18Z</time>
      </trkpt>
      <trkpt lat="40.439067" lon="-5.284850">
        <ele>1905.0</ele>
        <time>2018-07-28T12:16:19Z</time>
      </trkpt>
      <trkpt lat="40.439050" lon="-5.284900">
        <ele>1904.0</ele>
        <time>2018-07-28T12:16:20Z</time>
      </trkpt>
      <trkpt lat="40.439033" lon="-5.284967">
        <ele>1903.0</ele>
        <time>2018-07-28T12:16:21Z</time>
      </trkpt>
      <trkpt lat="40.439050" lon="-5.285050">
        <ele>1902.0</ele>
        <time>2018-07-28T12:16:22Z</time>
      </trkpt>
      <trkpt lat="40.439100" lon="-5.285100">
        <ele>1902.0</ele>
        <time>2018-07-28T12:16:23Z</time>
      </trkpt>
      <trkpt lat="40.439150" lon="-5.285133">
        <ele>1902.0</ele>
        <time>2018-07-28T12:16:24Z</time>
      </trkpt>
      <trkpt lat="40.439217" lon="-5.285133">
        <ele>1901.0</ele>
        <time>2018-07-28T12:16:25Z</time>
      </trkpt>
      <trkpt lat="40.439300" lon="-5.285083">
        <ele>1900.0</ele>
        <time>2018-07-28T12:16:26Z</time>
      </trkpt>
      <trkpt lat="40.439383" lon="-5.285000">
        <ele>1900.0</ele>
        <time>2018-07-28T12:16:27Z</time>
      </trkpt>
      <trkpt lat="40.439467" lon="-5.284867">
        <ele>1900.0</ele>
        <time>2018-07-28T12:16:28Z</time>
      </trkpt>
      <trkpt lat="40.439517" lon="-5.284733">
        <ele>1901.0</ele>
        <time>2018-07-28T12:16:29Z</time>
      </trkpt>
      <trkpt lat="40.439583" lon="-5.284583">
        <ele>1902.0</ele>
        <time>2018-07-28T12:16:30Z</time>
      </trkpt>
      <trkpt lat="40.439633" lon="-5.284450">
        <ele>1903.0</ele>
        <time>2018-07-28T12:16:31Z</time>
      </trkpt>
      <trkpt lat="40.439700" lon="-5.284333">
        <ele>1903.0</ele>
        <time>2018-07-28T12:16:32Z</time>
      </trkpt>
      <trkpt lat="40.439783" lon="-5.284250">
        <ele>1902.0</ele>
        <time>2018-07-28T12:16:33Z</time>
      </trkpt>
      <trkpt lat="40.439867" lon="-5.284183">
        <ele>1902.0</ele>
        <time>2018-07-28T12:16:34Z</time>
      </trkpt>
      <trkpt lat="40.439933" lon="-5.284167">
        <ele>1901.0</ele>
        <time>2018-07-28T12:16:35Z</time>
      </trkpt>
      <trkpt lat="40.440017" lon="-5.284167">
        <ele>1901.0</ele>
        <time>2018-07-28T12:16:36Z</time>
      </trkpt>
      <trkpt lat="40.440083" lon="-5.284200">
        <ele>1900.0</ele>
        <time>2018-07-28T12:16:37Z</time>
      </trkpt>
      <trkpt lat="40.440133" lon="-5.284233">
        <ele>1900.0</ele>
        <time>2018-07-28T12:16:38Z</time>
      </trkpt>
      <trkpt lat="40.440200" lon="-5.284267">
        <ele>1900.0</ele>
        <time>2018-07-28T12:16:39Z</time>
      </trkpt>
      <trkpt lat="40.440267" lon="-5.284317">
        <ele>1899.0</ele>
        <time>2018-07-28T12:16:40Z</time>
      </trkpt>
      <trkpt lat="40.440333" lon="-5.284367">
        <ele>1899.0</ele>
        <time>2018-07-28T12:16:41Z</time>
      </trkpt>
      <trkpt lat="40.440400" lon="-5.284400">
        <ele>1899.0</ele>
        <time>2018-07-28T12:16:42Z</time>
      </trkpt>
      <trkpt lat="40.440467" lon="-5.284433">
        <ele>1899.0</ele>
        <time>2018-07-28T12:16:43Z</time>
      </trkpt>
      <trkpt lat="40.440533" lon="-5.284450">
        <ele>1899.0</ele>
        <time>2018-07-28T12:16:44Z</time>
      </trkpt>
      <trkpt lat="40.440617" lon="-5.284450">
        <ele>1899.0</ele>
        <time>2018-07-28T12:16:45Z</time>
      </trkpt>
      <trkpt lat="40.440717" lon="-5.284433">
        <ele>1899.0</ele>
        <time>2018-07-28T12:16:46Z</time>
      </trkpt>
      <trkpt lat="40.440800" lon="-5.284383">
        <ele>1898.0</ele>
        <time>2018-07-28T12:16:47Z</time>
      </trkpt>
      <trkpt lat="40.440900" lon="-5.284317">
        <ele>1898.0</ele>
        <time>2018-07-28T12:16:48Z</time>
      </trkpt>
      <trkpt lat="40.441000" lon="-5.284233">
        <ele>1899.0</ele>
        <time>2018-07-28T12:16:49Z</time>
      </trkpt>
      <trkpt lat="40.441083" lon="-5.284150">
        <ele>1900.0</ele>
        <time>2018-07-28T12:16:50Z</time>
      </trkpt>
      <trkpt lat="40.441183" lon="-5.284100">
        <ele>1900.0</ele>
        <time>2018-07-28T12:16:51Z</time>
      </trkpt>
      <trkpt lat="40.441267" lon="-5.284050">
        <ele>1900.0</ele>
        <time>2018-07-28T12:16:52Z</time>
      </trkpt>
      <trkpt lat="40.441383" lon="-5.284000">
        <ele>1901.0</ele>
        <time>2018-07-28T12:16:53Z</time>
      </trkpt>
      <trkpt lat="40.441483" lon="-5.283950">
        <ele>1901.0</ele>
        <time>2018-07-28T12:16:54Z</time>
      </trkpt>
      <trkpt lat="40.441583" lon="-5.283883">
        <ele>1902.0</ele>
        <time>2018-07-28T12:16:55Z</time>
      </trkpt>
      <trkpt lat="40.441667" lon="-5.283800">
        <ele>1903.0</ele>
        <time>2018-07-28T12:16:56Z</time>
      </trkpt>
      <trkpt lat="40.441767" lon="-5.283733">
        <ele>1904.0</ele>
        <time>2018-07-28T12:16:57Z</time>
      </trkpt>
      <trkpt lat="40.441850" lon="-5.283650">
        <ele>1904.0</ele>
        <time>2018-07-28T12:16:58Z</time>
      </trkpt>
      <trkpt lat="40.441933" lon="-5.283583">
        <ele>1904.0</ele>
        <time>2018-07-28T12:16:59Z</time>
      </trkpt>
      <trkpt lat="40.442033" lon="-5.283517">
        <ele>1903.0</ele>
        <time>2018-07-28T12:17:00Z</time>
      </trkpt>
      <trkpt lat="40.442133" lon="-5.283450">
        <ele>1902.0</ele>
        <time>2018-07-28T12:17:01Z</time>
      </trkpt>
      <trkpt lat="40.442233" lon="-5.283400">
        <ele>1902.0</ele>
        <time>2018-07-28T12:17:02Z</time>
      </trkpt>
      <trkpt lat="40.442333" lon="-5.283350">
        <ele>1901.0</ele>
        <time>2018-07-28T12:17:03Z</time>
      </trkpt>
      <trkpt lat="40.442433" lon="-5.283283">
        <ele>1901.0</ele>
        <time>2018-07-28T12:17:04Z</time>
      </trkpt>
      <trkpt lat="40.442533" lon="-5.283233">
        <ele>1900.0</ele>
        <time>2018-07-28T12:17:05Z</time>
      </trkpt>
      <trkpt lat="40.442633" lon="-5.283167">
        <ele>1900.0</ele>
        <time>2018-07-28T12:17:06Z</time>
      </trkpt>
      <trkpt lat="40.442750" lon="-5.283083">
        <ele>1900.0</ele>
        <time>2018-07-28T12:17:07Z</time>
      </trkpt>
      <trkpt lat="40.442850" lon="-5.283017">
        <ele>1901.0</ele>
        <time>2018-07-28T12:17:08Z</time>
      </trkpt>
      <trkpt lat="40.442950" lon="-5.282917">
        <ele>1903.0</ele>
        <time>2018-07-28T12:17:09Z</time>
      </trkpt>
      <trkpt lat="40.443033" lon="-5.282800">
        <ele>1904.0</ele>
        <time>2018-07-28T12:17:10Z</time>
      </trkpt>
      <trkpt lat="40.443100" lon="-5.282667">
        <ele>1905.0</ele>
        <time>2018-07-28T12:17:11Z</time>
      </trkpt>
      <trkpt lat="40.443183" lon="-5.282533">
        <ele>1905.0</ele>
        <time>2018-07-28T12:17:12Z</time>
      </trkpt>
      <trkpt lat="40.443250" lon="-5.282400">
        <ele>1906.0</ele>
        <time>2018-07-28T12:17:13Z</time>
      </trkpt>
      <trkpt lat="40.443333" lon="-5.282300">
        <ele>1906.0</ele>
        <time>2018-07-28T12:17:14Z</time>
      </trkpt>
      <trkpt lat="40.443417" lon="-5.282200">
        <ele>1905.0</ele>
        <time>2018-07-28T12:17:15Z</time>
      </trkpt>
      <trkpt lat="40.443517" lon="-5.282100">
        <ele>1905.0</ele>
        <time>2018-07-28T12:17:16Z</time>
      </trkpt>
      <trkpt lat="40.443617" lon="-5.282017">
        <ele>1906.0</ele>
        <time>2018-07-28T12:17:17Z</time>
      </trkpt>
      <trkpt lat="40.443700" lon="-5.281950">
        <ele>1906.0</ele>
        <time>2018-07-28T12:17:18Z</time>
      </trkpt>
      <trkpt lat="40.443800" lon="-5.281883">
        <ele>1907.0</ele>
        <time>2018-07-28T12:17:19Z</time>
      </trkpt>
      <trkpt lat="40.443883" lon="-5.281850">
        <ele>1907.0</ele>
        <time>2018-07-28T12:17:20Z</time>
      </trkpt>
      <trkpt lat="40.443983" lon="-5.281833">
        <ele>1906.0</ele>
        <time>2018-07-28T12:17:21Z</time>
      </trkpt>
      <trkpt lat="40.444067" lon="-5.281817">
        <ele>1906.0</ele>
        <time>2018-07-28T12:17:22Z</time>
      </trkpt>
      <trkpt lat="40.444150" lon="-5.281817">
        <ele>1907.0</ele>
        <time>2018-07-28T12:17:23Z</time>
      </trkpt>
      <trkpt lat="40.444233" lon="-5.281817">
        <ele>1907.0</ele>
        <time>2018-07-28T12:17:24Z</time>
      </trkpt>
      <trkpt lat="40.444317" lon="-5.281800">
        <ele>1906.0</ele>
        <time>2018-07-28T12:17:25Z</time>
      </trkpt>
      <trkpt lat="40.444400" lon="-5.281800">
        <ele>1906.0</ele>
        <time>2018-07-28T12:17:26Z</time>
      </trkpt>
      <trkpt lat="40.444483" lon="-5.281800">
        <ele>1906.0</ele>
        <time>2018-07-28T12:17:27Z</time>
      </trkpt>
      <trkpt lat="40.444583" lon="-5.281817">
        <ele>1907.0</ele>
        <time>2018-07-28T12:17:28Z</time>
      </trkpt>
      <trkpt lat="40.444683" lon="-5.281817">
        <ele>1908.0</ele>
        <time>2018-07-28T12:17:29Z</time>
      </trkpt>
      <trkpt lat="40.444767" lon="-5.281817">
        <ele>1909.0</ele>
        <time>2018-07-28T12:17:30Z</time>
      </trkpt>
      <trkpt lat="40.444833" lon="-5.281817">
        <ele>1910.0</ele>
        <time>2018-07-28T12:17:31Z</time>
      </trkpt>
      <trkpt lat="40.444883" lon="-5.281850">
        <ele>1910.0</ele>
        <time>2018-07-28T12:17:32Z</time>
      </trkpt>
      <trkpt lat="40.444933" lon="-5.281917">
        <ele>1909.0</ele>
        <time>2018-07-28T12:17:33Z</time>
      </trkpt>
      <trkpt lat="40.444933" lon="-5.282017">
        <ele>1908.0</ele>
        <time>2018-07-28T12:17:34Z</time>
      </trkpt>
      <trkpt lat="40.444917" lon="-5.282117">
        <ele>1908.0</ele>
        <time>2018-07-28T12:17:35Z</time>
      </trkpt>
      <trkpt lat="40.444850" lon="-5.282183">
        <ele>1908.0</ele>
        <time>2018-07-28T12:17:36Z</time>
      </trkpt>
      <trkpt lat="40.444783" lon="-5.282217">
        <ele>1910.0</ele>
        <time>2018-07-28T12:17:37Z</time>
      </trkpt>
      <trkpt lat="40.444700" lon="-5.282183">
        <ele>1913.0</ele>
        <time>2018-07-28T12:17:38Z</time>
      </trkpt>
      <trkpt lat="40.444633" lon="-5.282100">
        <ele>1916.0</ele>
        <time>2018-07-28T12:17:39Z</time>
      </trkpt>
      <trkpt lat="40.444583" lon="-5.282000">
        <ele>1917.0</ele>
        <time>2018-07-28T12:17:40Z</time>
      </trkpt>
      <trkpt lat="40.444533" lon="-5.281900">
        <ele>1919.0</ele>
        <time>2018-07-28T12:17:41Z</time>
      </trkpt>
      <trkpt lat="40.444483" lon="-5.281783">
        <ele>1919.0</ele>
        <time>2018-07-28T12:17:42Z</time>
      </trkpt>
      <trkpt lat="40.444417" lon="-5.281700">
        <ele>1919.0</ele>
        <time>2018-07-28T12:17:43Z</time>
      </trkpt>
      <trkpt lat="40.444333" lon="-5.281633">
        <ele>1919.0</ele>
        <time>2018-07-28T12:17:44Z</time>
      </trkpt>
      <trkpt lat="40.444250" lon="-5.281600">
        <ele>1918.0</ele>
        <time>2018-07-28T12:17:45Z</time>
      </trkpt>
      <trkpt lat="40.444183" lon="-5.281583">
        <ele>1919.0</ele>
        <time>2018-07-28T12:17:46Z</time>
      </trkpt>
      <trkpt lat="40.444100" lon="-5.281567">
        <ele>1920.0</ele>
        <time>2018-07-28T12:17:47Z</time>
      </trkpt>
      <trkpt lat="40.444050" lon="-5.281583">
        <ele>1920.0</ele>
        <time>2018-07-28T12:17:48Z</time>
      </trkpt>
      <trkpt lat="40.444017" lon="-5.281600">
        <ele>1920.0</ele>
        <time>2018-07-28T12:17:49Z</time>
      </trkpt>
      <trkpt lat="40.444000" lon="-5.281667">
        <ele>1918.0</ele>
        <time>2018-07-28T12:17:50Z</time>
      </trkpt>
      <trkpt lat="40.444000" lon="-5.281733">
        <ele>1916.0</ele>
        <time>2018-07-28T12:17:51Z</time>
      </trkpt>
      <trkpt lat="40.444017" lon="-5.281817">
        <ele>1915.0</ele>
        <time>2018-07-28T12:17:52Z</time>
      </trkpt>
      <trkpt lat="40.444050" lon="-5.281900">
        <ele>1914.0</ele>
        <time>2018-07-28T12:17:53Z</time>
      </trkpt>
      <trkpt lat="40.444083" lon="-5.281983">
        <ele>1915.0</ele>
        <time>2018-07-28T12:17:54Z</time>
      </trkpt>
      <trkpt lat="40.444117" lon="-5.282050">
        <ele>1915.0</ele>
        <time>2018-07-28T12:17:55Z</time>
      </trkpt>
      <trkpt lat="40.444150" lon="-5.282117">
        <ele>1916.0</ele>
        <time>2018-07-28T12:17:56Z</time>
      </trkpt>
      <trkpt lat="40.444183" lon="-5.282183">
        <ele>1916.0</ele>
        <time>2018-07-28T12:17:57Z</time>
      </trkpt>
      <trkpt lat="40.444217" lon="-5.282250">
        <ele>1916.0</ele>
        <time>2018-07-28T12:17:58Z</time>
      </trkpt>
      <trkpt lat="40.444233" lon="-5.282333">
        <ele>1915.0</ele>
        <time>2018-07-28T12:17:59Z</time>
      </trkpt>
      <trkpt lat="40.444250" lon="-5.282417">
        <ele>1915.0</ele>
        <time>2018-07-28T12:18:00Z</time>
      </trkpt>
      <trkpt lat="40.444283" lon="-5.282483">
        <ele>1916.0</ele>
        <time>2018-07-28T12:18:01Z</time>
      </trkpt>
      <trkpt lat="40.444317" lon="-5.282533">
        <ele>1918.0</ele>
        <time>2018-07-28T12:18:02Z</time>
      </trkpt>
      <trkpt lat="40.444350" lon="-5.282567">
        <ele>1919.0</ele>
        <time>2018-07-28T12:18:03Z</time>
      </trkpt>
      <trkpt lat="40.444367" lon="-5.282617">
        <ele>1920.0</ele>
        <time>2018-07-28T12:18:04Z</time>
      </trkpt>
      <trkpt lat="40.444383" lon="-5.282683">
        <ele>1920.0</ele>
        <time>2018-07-28T12:18:05Z</time>
      </trkpt>
      <trkpt lat="40.444400" lon="-5.282750">
        <ele>1919.0</ele>
        <time>2018-07-28T12:18:06Z</time>
      </trkpt>
      <trkpt lat="40.444433" lon="-5.282817">
        <ele>1919.0</ele>
        <time>2018-07-28T12:18:07Z</time>
      </trkpt>
      <trkpt lat="40.444467" lon="-5.282900">
        <ele>1920.0</ele>
        <time>2018-07-28T12:18:08Z</time>
      </trkpt>
      <trkpt lat="40.444483" lon="-5.282983">
        <ele>1922.0</ele>
        <time>2018-07-28T12:18:09Z</time>
      </trkpt>
      <trkpt lat="40.444500" lon="-5.283050">
        <ele>1924.0</ele>
        <time>2018-07-28T12:18:10Z</time>
      </trkpt>
      <trkpt lat="40.444517" lon="-5.283100">
        <ele>1926.0</ele>
        <time>2018-07-28T12:18:11Z</time>
      </trkpt>
      <trkpt lat="40.444567" lon="-5.283150">
        <ele>1926.0</ele>
        <time>2018-07-28T12:18:12Z</time>
      </trkpt>
      <trkpt lat="40.444650" lon="-5.283167">
        <ele>1926.0</ele>
        <time>2018-07-28T12:18:13Z</time>
      </trkpt>
      <trkpt lat="40.444733" lon="-5.283183">
        <ele>1927.0</ele>
        <time>2018-07-28T12:18:14Z</time>
      </trkpt>
      <trkpt lat="40.444850" lon="-5.283167">
        <ele>1929.0</ele>
        <time>2018-07-28T12:18:15Z</time>
      </trkpt>
      <trkpt lat="40.444933" lon="-5.283133">
        <ele>1932.0</ele>
        <time>2018-07-28T12:18:16Z</time>
      </trkpt>
      <trkpt lat="40.445017" lon="-5.283050">
        <ele>1935.0</ele>
        <time>2018-07-28T12:18:17Z</time>
      </trkpt>
      <trkpt lat="40.445083" lon="-5.282950">
        <ele>1936.0</ele>
        <time>2018-07-28T12:18:18Z</time>
      </trkpt>
      <trkpt lat="40.445133" lon="-5.282800">
        <ele>1937.0</ele>
        <time>2018-07-28T12:18:19Z</time>
      </trkpt>
      <trkpt lat="40.445167" lon="-5.282633">
        <ele>1939.0</ele>
        <time>2018-07-28T12:18:20Z</time>
      </trkpt>
      <trkpt lat="40.445167" lon="-5.282483">
        <ele>1942.0</ele>
        <time>2018-07-28T12:18:21Z</time>
      </trkpt>
      <trkpt lat="40.445150" lon="-5.282333">
        <ele>1944.0</ele>
        <time>2018-07-28T12:18:22Z</time>
      </trkpt>
      <trkpt lat="40.445117" lon="-5.282200">
        <ele>1945.0</ele>
        <time>2018-07-28T12:18:23Z</time>
      </trkpt>
      <trkpt lat="40.445033" lon="-5.282117">
        <ele>1946.0</ele>
        <time>2018-07-28T12:18:24Z</time>
      </trkpt>
      <trkpt lat="40.444933" lon="-5.282067">
        <ele>1946.0</ele>
        <time>2018-07-28T12:18:25Z</time>
      </trkpt>
      <trkpt lat="40.444833" lon="-5.282067">
        <ele>1947.0</ele>
        <time>2018-07-28T12:18:26Z</time>
      </trkpt>
      <trkpt lat="40.444717" lon="-5.282100">
        <ele>1949.0</ele>
        <time>2018-07-28T12:18:27Z</time>
      </trkpt>
      <trkpt lat="40.444633" lon="-5.282133">
        <ele>1953.0</ele>
        <time>2018-07-28T12:18:28Z</time>
      </trkpt>
      <trkpt lat="40.444550" lon="-5.282167">
        <ele>1957.0</ele>
        <time>2018-07-28T12:18:29Z</time>
      </trkpt>
      <trkpt lat="40.444500" lon="-5.282200">
        <ele>1961.0</ele>
        <time>2018-07-28T12:18:30Z</time>
      </trkpt>
      <trkpt lat="40.444467" lon="-5.282217">
        <ele>1963.0</ele>
        <time>2018-07-28T12:18:31Z</time>
      </trkpt>
      <trkpt lat="40.444433" lon="-5.282250">
        <ele>1963.0</ele>
        <time>2018-07-28T12:18:32Z</time>
      </trkpt>
      <trkpt lat="40.444400" lon="-5.282283">
        <ele>1962.0</ele>
        <time>2018-07-28T12:18:33Z</time>
      </trkpt>
      <trkpt lat="40.444383" lon="-5.282350">
        <ele>1962.0</ele>
        <time>2018-07-28T12:18:34Z</time>
      </trkpt>
      <trkpt lat="40.444400" lon="-5.282433">
        <ele>1962.0</ele>
        <time>2018-07-28T12:18:35Z</time>
      </trkpt>
      <trkpt lat="40.444467" lon="-5.282517">
        <ele>1963.0</ele>
        <time>2018-07-28T12:18:36Z</time>
      </trkpt>
      <trkpt lat="40.444550" lon="-5.282550">
        <ele>1965.0</ele>
        <time>2018-07-28T12:18:37Z</time>
      </trkpt>
      <trkpt lat="40.444667" lon="-5.282550">
        <ele>1966.0</ele>
        <time>2018-07-28T12:18:38Z</time>
      </trkpt>
      <trkpt lat="40.444767" lon="-5.282500">
        <ele>1968.0</ele>
        <time>2018-07-28T12:18:39Z</time>
      </trkpt>
      <trkpt lat="40.444867" lon="-5.282433">
        <ele>1971.0</ele>
        <time>2018-07-28T12:18:40Z</time>
      </trkpt>
      <trkpt lat="40.444950" lon="-5.282317">
        <ele>1973.0</ele>
        <time>2018-07-28T12:18:41Z</time>
      </trkpt>
      <trkpt lat="40.445017" lon="-5.282183">
        <ele>1974.0</ele>
        <time>2018-07-28T12:18:42Z</time>
      </trkpt>
      <trkpt lat="40.445050" lon="-5.282017">
        <ele>1975.0</ele>
        <time>2018-07-28T12:18:43Z</time>
      </trkpt>
      <trkpt lat="40.445067" lon="-5.281850">
        <ele>1976.0</ele>
        <time>2018-07-28T12:18:44Z</time>
      </trkpt>
      <trkpt lat="40.445050" lon="-5.281667">
        <ele>1977.0</ele>
        <time>2018-07-28T12:18:45Z</time>
      </trkpt>
      <trkpt lat="40.444983" lon="-5.281517">
        <ele>1979.0</ele>
        <time>2018-07-28T12:18:46Z</time>
      </trkpt>
      <trkpt lat="40.444917" lon="-5.281383">
        <ele>1981.0</ele>
        <time>2018-07-28T12:18:47Z</time>
      </trkpt>
      <trkpt lat="40.444833" lon="-5.281300">
        <ele>1983.0</ele>
        <time>2018-07-28T12:18:48Z</time>
      </trkpt>
      <trkpt lat="40.444733" lon="-5.281217">
        <ele>1986.0</ele>
        <time>2018-07-28T12:18:49Z</time>
      </trkpt>
      <trkpt lat="40.444650" lon="-5.281150">
        <ele>1989.0</ele>
        <time>2018-07-28T12:18:50Z</time>
      </trkpt>
      <trkpt lat="40.444550" lon="-5.281067">
        <ele>1991.0</ele>
        <time>2018-07-28T12:18:51Z</time>
      </trkpt>
      <trkpt lat="40.444467" lon="-5.281017">
        <ele>1993.0</ele>
        <time>2018-07-28T12:18:52Z</time>
      </trkpt>
      <trkpt lat="40.444383" lon="-5.280983">
        <ele>1994.0</ele>
        <time>2018-07-28T12:18:53Z</time>
      </trkpt>
      <trkpt lat="40.444317" lon="-5.281000">
        <ele>1994.0</ele>
        <time>2018-07-28T12:18:54Z</time>
      </trkpt>
      <trkpt lat="40.444250" lon="-5.281050">
        <ele>1994.0</ele>
        <time>2018-07-28T12:18:55Z</time>
      </trkpt>
      <trkpt lat="40.444200" lon="-5.281100">
        <ele>1995.0</ele>
        <time>2018-07-28T12:18:56Z</time>
      </trkpt>
      <trkpt lat="40.444183" lon="-5.281150">
        <ele>1996.0</ele>
        <time>2018-07-28T12:18:57Z</time>
      </trkpt>
      <trkpt lat="40.444183" lon="-5.281200">
        <ele>1997.0</ele>
        <time>2018-07-28T12:18:58Z</time>
      </trkpt>
      <trkpt lat="40.444200" lon="-5.281250">
        <ele>1997.0</ele>
        <time>2018-07-28T12:18:59Z</time>
      </trkpt>
      <trkpt lat="40.444233" lon="-5.281317">
        <ele>1996.0</ele>
        <time>2018-07-28T12:19:00Z</time>
      </trkpt>
      <trkpt lat="40.444300" lon="-5.281367">
        <ele>1996.0</ele>
        <time>2018-07-28T12:19:01Z</time>
      </trkpt>
      <trkpt lat="40.444367" lon="-5.281400">
        <ele>1996.0</ele>
        <time>2018-07-28T12:19:02Z</time>
      </trkpt>
      <trkpt lat="40.444450" lon="-5.281433">
        <ele>1996.0</ele>
        <time>2018-07-28T12:19:03Z</time>
      </trkpt>
      <trkpt lat="40.444533" lon="-5.281450">
        <ele>1996.0</ele>
        <time>2018-07-28T12:19:04Z</time>
      </trkpt>
      <trkpt lat="40.444633" lon="-5.281417">
        <ele>1997.0</ele>
        <time>2018-07-28T12:19:05Z</time>
      </trkpt>
      <trkpt lat="40.444733" lon="-5.281383">
        <ele>1998.0</ele>
        <time>2018-07-28T12:19:06Z</time>
      </trkpt>
      <trkpt lat="40.444850" lon="-5.281317">
        <ele>1999.0</ele>
        <time>2018-07-28T12:19:07Z</time>
      </trkpt>
      <trkpt lat="40.444950" lon="-5.281217">
        <ele>2000.0</ele>
        <time>2018-07-28T12:19:08Z</time>
      </trkpt>
      <trkpt lat="40.445033" lon="-5.281117">
        <ele>2001.0</ele>
        <time>2018-07-28T12:19:09Z</time>
      </trkpt>
      <trkpt lat="40.445100" lon="-5.280967">
        <ele>2001.0</ele>
        <time>2018-07-28T12:19:10Z</time>
      </trkpt>
      <trkpt lat="40.445150" lon="-5.280800">
        <ele>2001.0</ele>
        <time>2018-07-28T12:19:11Z</time>
      </trkpt>
      <trkpt lat="40.445167" lon="-5.280617">
        <ele>2002.0</ele>
        <time>2018-07-28T12:19:12Z</time>
      </trkpt>
      <trkpt lat="40.445150" lon="-5.280433">
        <ele>2004.0</ele>
        <time>2018-07-28T12:19:13Z</time>
      </trkpt>
      <trkpt lat="40.445100" lon="-5.280267">
        <ele>2005.0</ele>
        <time>2018-07-28T12:19:14Z</time>
      </trkpt>
      <trkpt lat="40.445033" lon="-5.280133">
        <ele>2007.0</ele>
        <time>2018-07-28T12:19:15Z</time>
      </trkpt>
      <trkpt lat="40.444967" lon="-5.280000">
        <ele>2009.0</ele>
        <time>2018-07-28T12:19:16Z</time>
      </trkpt>
      <trkpt lat="40.444883" lon="-5.279900">
        <ele>2010.0</ele>
        <time>2018-07-28T12:19:17Z</time>
      </trkpt>
      <trkpt lat="40.444800" lon="-5.279817">
        <ele>2011.0</ele>
        <time>2018-07-28T12:19:18Z</time>
      </trkpt>
      <trkpt lat="40.444700" lon="-5.279767">
        <ele>2013.0</ele>
        <time>2018-07-28T12:19:19Z</time>
      </trkpt>
      <trkpt lat="40.444600" lon="-5.279750">
        <ele>2014.0</ele>
        <time>2018-07-28T12:19:20Z</time>
      </trkpt>
      <trkpt lat="40.444517" lon="-5.279750">
        <ele>2016.0</ele>
        <time>2018-07-28T12:19:21Z</time>
      </trkpt>
      <trkpt lat="40.444450" lon="-5.279750">
        <ele>2018.0</ele>
        <time>2018-07-28T12:19:22Z</time>
      </trkpt>
      <trkpt lat="40.444400" lon="-5.279767">
        <ele>2020.0</ele>
        <time>2018-07-28T12:19:23Z</time>
      </trkpt>
      <trkpt lat="40.444367" lon="-5.279800">
        <ele>2020.0</ele>
        <time>2018-07-28T12:19:24Z</time>
      </trkpt>
      <trkpt lat="40.444350" lon="-5.279850">
        <ele>2019.0</ele>
        <time>2018-07-28T12:19:25Z</time>
      </trkpt>
      <trkpt lat="40.444333" lon="-5.279917">
        <ele>2018.0</ele>
        <time>2018-07-28T12:19:26Z</time>
      </trkpt>
      <trkpt lat="40.444317" lon="-5.280000">
        <ele>2018.0</ele>
        <time>2018-07-28T12:19:27Z</time>
      </trkpt>
      <trkpt lat="40.444267" lon="-5.280050">
        <ele>2019.0</ele>
        <time>2018-07-28T12:19:28Z</time>
      </trkpt>
      <trkpt lat="40.444233" lon="-5.280117">
        <ele>2020.0</ele>
        <time>2018-07-28T12:19:29Z</time>
      </trkpt>
      <trkpt lat="40.444200" lon="-5.280167">
        <ele>2020.0</ele>
        <time>2018-07-28T12:19:30Z</time>
      </trkpt>
      <trkpt lat="40.444167" lon="-5.280233">
        <ele>2021.0</ele>
        <time>2018-07-28T12:19:31Z</time>
      </trkpt>
      <trkpt lat="40.444133" lon="-5.280300">
        <ele>2021.0</ele>
        <time>2018-07-28T12:19:32Z</time>
      </trkpt>
      <trkpt lat="40.444083" lon="-5.280367">
        <ele>2023.0</ele>
        <time>2018-07-28T12:19:33Z</time>
      </trkpt>
      <trkpt lat="40.444067" lon="-5.280450">
        <ele>2025.0</ele>
        <time>2018-07-28T12:19:34Z</time>
      </trkpt>
      <trkpt lat="40.444017" lon="-5.280500">
        <ele>2028.0</ele>
        <time>2018-07-28T12:19:35Z</time>
      </trkpt>
      <trkpt lat="40.443967" lon="-5.280550">
        <ele>2030.0</ele>
        <time>2018-07-28T12:19:36Z</time>
      </trkpt>
      <trkpt lat="40.443883" lon="-5.280550">
        <ele>2032.0</ele>
        <time>2018-07-28T12:19:37Z</time>
      </trkpt>
      <trkpt lat="40.443800" lon="-5.280500">
        <ele>2033.0</ele>
        <time>2018-07-28T12:19:38Z</time>
      </trkpt>
      <trkpt lat="40.443733" lon="-5.280383">
        <ele>2034.0</ele>
        <time>2018-07-28T12:19:39Z</time>
      </trkpt>
      <trkpt lat="40.443683" lon="-5.280217">
        <ele>2035.0</ele>
        <time>2018-07-28T12:19:40Z</time>
      </trkpt>
      <trkpt lat="40.443700" lon="-5.280050">
        <ele>2035.0</ele>
        <time>2018-07-28T12:19:41Z</time>
      </trkpt>
      <trkpt lat="40.443750" lon="-5.279867">
        <ele>2035.0</ele>
        <time>2018-07-28T12:19:42Z</time>
      </trkpt>
      <trkpt lat="40.443833" lon="-5.279717">
        <ele>2035.0</ele>
        <time>2018-07-28T12:19:43Z</time>
      </trkpt>
      <trkpt lat="40.443933" lon="-5.279600">
        <ele>2036.0</ele>
        <time>2018-07-28T12:19:44Z</time>
      </trkpt>
      <trkpt lat="40.444050" lon="-5.279533">
        <ele>2037.0</ele>
        <time>2018-07-28T12:19:45Z</time>
      </trkpt>
      <trkpt lat="40.444150" lon="-5.279500">
        <ele>2039.0</ele>
        <time>2018-07-28T12:19:46Z</time>
      </trkpt>
      <trkpt lat="40.444250" lon="-5.279500">
        <ele>2042.0</ele>
        <time>2018-07-28T12:19:47Z</time>
      </trkpt>
      <trkpt lat="40.444333" lon="-5.279517">
        <ele>2045.0</ele>
        <time>2018-07-28T12:19:48Z</time>
      </trkpt>
      <trkpt lat="40.444383" lon="-5.279533">
        <ele>2047.0</ele>
        <time>2018-07-28T12:19:49Z</time>
      </trkpt>
      <trkpt lat="40.444433" lon="-5.279550">
        <ele>2050.0</ele>
        <time>2018-07-28T12:19:50Z</time>
      </trkpt>
      <trkpt lat="40.444483" lon="-5.279583">
        <ele>2051.0</ele>
        <time>2018-07-28T12:19:51Z</time>
      </trkpt>
      <trkpt lat="40.444517" lon="-5.279650">
        <ele>2051.0</ele>
        <time>2018-07-28T12:19:52Z</time>
      </trkpt>
      <trkpt lat="40.444533" lon="-5.279733">
        <ele>2051.0</ele>
        <time>2018-07-28T12:19:53Z</time>
      </trkpt>
      <trkpt lat="40.444500" lon="-5.279817">
        <ele>2051.0</ele>
        <time>2018-07-28T12:19:54Z</time>
      </trkpt>
      <trkpt lat="40.444433" lon="-5.279867">
        <ele>2052.0</ele>
        <time>2018-07-28T12:19:55Z</time>
      </trkpt>
      <trkpt lat="40.444350" lon="-5.279883">
        <ele>2054.0</ele>
        <time>2018-07-28T12:19:56Z</time>
      </trkpt>
      <trkpt lat="40.444267" lon="-5.279833">
        <ele>2056.0</ele>
        <time>2018-07-28T12:19:57Z</time>
      </trkpt>
      <trkpt lat="40.444183" lon="-5.279750">
        <ele>2059.0</ele>
        <time>2018-07-28T12:19:58Z</time>
      </trkpt>
      <trkpt lat="40.444117" lon="-5.279617">
        <ele>2060.0</ele>
        <time>2018-07-28T12:19:59Z</time>
      </trkpt>
      <trkpt lat="40.444083" lon="-5.279467">
        <ele>2061.0</ele>
        <time>2018-07-28T12:20:00Z</time>
      </trkpt>
      <trkpt lat="40.444083" lon="-5.279267">
        <ele>2062.0</ele>
        <time>2018-07-28T12:20:01Z</time>
      </trkpt>
      <trkpt lat="40.444133" lon="-5.279083">
        <ele>2062.0</ele>
        <time>2018-07-28T12:20:02Z</time>
      </trkpt>
      <trkpt lat="40.444217" lon="-5.278917">
        <ele>2063.0</ele>
        <time>2018-07-28T12:20:03Z</time>
      </trkpt>
      <trkpt lat="40.444333" lon="-5.278783">
        <ele>2066.0</ele>
        <time>2018-07-28T12:20:04Z</time>
      </trkpt>
      <trkpt lat="40.444450" lon="-5.278733">
        <ele>2070.0</ele>
        <time>2018-07-28T12:20:05Z</time>
      </trkpt>
      <trkpt lat="40.444550" lon="-5.278700">
        <ele>2075.0</ele>
        <time>2018-07-28T12:20:06Z</time>
      </trkpt>
      <trkpt lat="40.444617" lon="-5.278683">
        <ele>2080.0</ele>
        <time>2018-07-28T12:20:07Z</time>
      </trkpt>
      <trkpt lat="40.444700" lon="-5.278633">
        <ele>2084.0</ele>
        <time>2018-07-28T12:20:08Z</time>
      </trkpt>
      <trkpt lat="40.444767" lon="-5.278567">
        <ele>2086.0</ele>
        <time>2018-07-28T12:20:09Z</time>
      </trkpt>
      <trkpt lat="40.444850" lon="-5.278500">
        <ele>2086.0</ele>
        <time>2018-07-28T12:20:10Z</time>
      </trkpt>
      <trkpt lat="40.444950" lon="-5.278450">
        <ele>2086.0</ele>
        <time>2018-07-28T12:20:11Z</time>
      </trkpt>
      <trkpt lat="40.445050" lon="-5.278467">
        <ele>2086.0</ele>
        <time>2018-07-28T12:20:12Z</time>
      </trkpt>
      <trkpt lat="40.445133" lon="-5.278550">
        <ele>2086.0</ele>
        <time>2018-07-28T12:20:13Z</time>
      </trkpt>
      <trkpt lat="40.445167" lon="-5.278667">
        <ele>2088.0</ele>
        <time>2018-07-28T12:20:14Z</time>
      </trkpt>
      <trkpt lat="40.445150" lon="-5.278783">
        <ele>2091.0</ele>
        <time>2018-07-28T12:20:15Z</time>
      </trkpt>
      <trkpt lat="40.445117" lon="-5.278867">
        <ele>2095.0</ele>
        <time>2018-07-28T12:20:16Z</time>
      </trkpt>
      <trkpt lat="40.445067" lon="-5.278917">
        <ele>2097.0</ele>
        <time>2018-07-28T12:20:17Z</time>
      </trkpt>
      <trkpt lat="40.444983" lon="-5.278933">
        <ele>2098.0</ele>
        <time>2018-07-28T12:20:18Z</time>
      </trkpt>
      <trkpt lat="40.444900" lon="-5.278900">
        <ele>2097.0</ele>
        <time>2018-07-28T12:20:19Z</time>
      </trkpt>
      <trkpt lat="40.444800" lon="-5.278833">
        <ele>2096.0</ele>
        <time>2018-07-28T12:20:20Z</time>
      </trkpt>
      <trkpt lat="40.444717" lon="-5.278717">
        <ele>2096.0</ele>
        <time>2018-07-28T12:20:21Z</time>
      </trkpt>
      <trkpt lat="40.444650" lon="-5.278567">
        <ele>2095.0</ele>
        <time>2018-07-28T12:20:22Z</time>
      </trkpt>
      <trkpt lat="40.444617" lon="-5.278383">
        <ele>2095.0</ele>
        <time>2018-07-28T12:20:23Z</time>
      </trkpt>
      <trkpt lat="40.444633" lon="-5.278183">
        <ele>2096.0</ele>
        <time>2018-07-28T12:20:24Z</time>
      </trkpt>
      <trkpt lat="40.444667" lon="-5.278000">
        <ele>2097.0</ele>
        <time>2018-07-28T12:20:25Z</time>
      </trkpt>
      <trkpt lat="40.444733" lon="-5.277817">
        <ele>2099.0</ele>
        <time>2018-07-28T12:20:26Z</time>
      </trkpt>
      <trkpt lat="40.444800" lon="-5.277667">
        <ele>2101.0</ele>
        <time>2018-07-28T12:20:27Z</time>
      </trkpt>
      <trkpt lat="40.444883" lon="-5.277533">
        <ele>2104.0</ele>
        <time>2018-07-28T12:20:28Z</time>
      </trkpt>
      <trkpt lat="40.444967" lon="-5.277400">
        <ele>2106.0</ele>
        <time>2018-07-28T12:20:29Z</time>
      </trkpt>
      <trkpt lat="40.445050" lon="-5.277300">
        <ele>2110.0</ele>
        <time>2018-07-28T12:20:30Z</time>
      </trkpt>
      <trkpt lat="40.445133" lon="-5.277167">
        <ele>2114.0</ele>
        <time>2018-07-28T12:20:31Z</time>
      </trkpt>
      <trkpt lat="40.445167" lon="-5.277050">
        <ele>2118.0</ele>
        <time>2018-07-28T12:20:32Z</time>
      </trkpt>
      <trkpt lat="40.445217" lon="-5.276917">
        <ele>2121.0</ele>
        <time>2018-07-28T12:20:33Z</time>
      </trkpt>
      <trkpt lat="40.445250" lon="-5.276783">
        <ele>2123.0</ele>
        <time>2018-07-28T12:20:34Z</time>
      </trkpt>
      <trkpt lat="40.445317" lon="-5.276650">
        <ele>2126.0</ele>
        <time>2018-07-28T12:20:35Z</time>
      </trkpt>
      <trkpt lat="40.445417" lon="-5.276567">
        <ele>2128.0</ele>
        <time>2018-07-28T12:20:36Z</time>
      </trkpt>
      <trkpt lat="40.445500" lon="-5.276533">
        <ele>2130.0</ele>
        <time>2018-07-28T12:20:37Z</time>
      </trkpt>
      <trkpt lat="40.445583" lon="-5.276567">
        <ele>2132.0</ele>
        <time>2018-07-28T12:20:38Z</time>
      </trkpt>
      <trkpt lat="40.445633" lon="-5.276650">
        <ele>2135.0</ele>
        <time>2018-07-28T12:20:39Z</time>
      </trkpt>
      <trkpt lat="40.445633" lon="-5.276750">
        <ele>2138.0</ele>
        <time>2018-07-28T12:20:40Z</time>
      </trkpt>
      <trkpt lat="40.445583" lon="-5.276833">
        <ele>2143.0</ele>
        <time>2018-07-28T12:20:41Z</time>
      </trkpt>
      <trkpt lat="40.445517" lon="-5.276883">
        <ele>2148.0</ele>
        <time>2018-07-28T12:20:42Z</time>
      </trkpt>
      <trkpt lat="40.445433" lon="-5.276883">
        <ele>2152.0</ele>
        <time>2018-07-28T12:20:43Z</time>
      </trkpt>
      <trkpt lat="40.445333" lon="-5.276850">
        <ele>2157.0</ele>
        <time>2018-07-28T12:20:44Z</time>
      </trkpt>
      <trkpt lat="40.445250" lon="-5.276750">
        <ele>2160.0</ele>
        <time>2018-07-28T12:20:45Z</time>
      </trkpt>
      <trkpt lat="40.445183" lon="-5.276617">
        <ele>2161.0</ele>
        <time>2018-07-28T12:20:46Z</time>
      </trkpt>
      <trkpt lat="40.445150" lon="-5.276433">
        <ele>2162.0</ele>
        <time>2018-07-28T12:20:47Z</time>
      </trkpt>
      <trkpt lat="40.445150" lon="-5.276217">
        <ele>2163.0</ele>
        <time>2018-07-28T12:20:48Z</time>
      </trkpt>
      <trkpt lat="40.445217" lon="-5.276017">
        <ele>2165.0</ele>
        <time>2018-07-28T12:20:49Z</time>
      </trkpt>
      <trkpt lat="40.445300" lon="-5.275867">
        <ele>2170.0</ele>
        <time>2018-07-28T12:20:50Z</time>
      </trkpt>
      <trkpt lat="40.445400" lon="-5.275800">
        <ele>2173.0</ele>
        <time>2018-07-28T12:20:51Z</time>
      </trkpt>
      <trkpt lat="40.445483" lon="-5.275800">
        <ele>2176.0</ele>
        <time>2018-07-28T12:20:52Z</time>
      </trkpt>
      <trkpt lat="40.445533" lon="-5.275867">
        <ele>2177.0</ele>
        <time>2018-07-28T12:20:53Z</time>
      </trkpt>
      <trkpt lat="40.445567" lon="-5.275950">
        <ele>2179.0</ele>
        <time>2018-07-28T12:20:54Z</time>
      </trkpt>
      <trkpt lat="40.445567" lon="-5.276033">
        <ele>2183.0</ele>
        <time>2018-07-28T12:20:55Z</time>
      </trkpt>
      <trkpt lat="40.445550" lon="-5.276117">
        <ele>2189.0</ele>
        <time>2018-07-28T12:20:56Z</time>
      </trkpt>
      <trkpt lat="40.445517" lon="-5.276167">
        <ele>2192.0</ele>
        <time>2018-07-28T12:20:57Z</time>
      </trkpt>
      <trkpt lat="40.445433" lon="-5.276183">
        <ele>2195.0</ele>
        <time>2018-07-28T12:20:58Z</time>
      </trkpt>
      <trkpt lat="40.445350" lon="-5.276183">
        <ele>2197.0</ele>
        <time>2018-07-28T12:20:59Z</time>
      </trkpt>
      <trkpt lat="40.445267" lon="-5.276167">
        <ele>2200.0</ele>
        <time>2018-07-28T12:21:00Z</time>
      </trkpt>
      <trkpt lat="40.445183" lon="-5.276083">
        <ele>2201.0</ele>
        <time>2018-07-28T12:21:01Z</time>
      </trkpt>
      <trkpt lat="40.445100" lon="-5.275967">
        <ele>2203.0</ele>
        <time>2018-07-28T12:21:02Z</time>
      </trkpt>
      <trkpt lat="40.445033" lon="-5.275800">
        <ele>2204.0</ele>
        <time>2018-07-28T12:21:03Z</time>
      </trkpt>
      <trkpt lat="40.445017" lon="-5.275617">
        <ele>2206.0</ele>
        <time>2018-07-28T12:21:04Z</time>
      </trkpt>
      <trkpt lat="40.445050" lon="-5.275417">
        <ele>2208.0</ele>
        <time>2018-07-28T12:21:05Z</time>
      </trkpt>
      <trkpt lat="40.445117" lon="-5.275250">
        <ele>2210.0</ele>
        <time>2018-07-28T12:21:06Z</time>
      </trkpt>
      <trkpt lat="40.445233" lon="-5.275117">
        <ele>2212.0</ele>
        <time>2018-07-28T12:21:07Z</time>
      </trkpt>
      <trkpt lat="40.445333" lon="-5.275017">
        <ele>2216.0</ele>
        <time>2018-07-28T12:21:08Z</time>
      </trkpt>
      <trkpt lat="40.445433" lon="-5.274967">
        <ele>2222.0</ele>
        <time>2018-07-28T12:21:09Z</time>
      </trkpt>
      <trkpt lat="40.445517" lon="-5.274933">
        <ele>2227.0</ele>
        <time>2018-07-28T12:21:10Z</time>
      </trkpt>
      <trkpt lat="40.445567" lon="-5.274933">
        <ele>2230.0</ele>
        <time>2018-07-28T12:21:11Z</time>
      </trkpt>
      <trkpt lat="40.445617" lon="-5.274950">
        <ele>2232.0</ele>
        <time>2018-07-28T12:21:12Z</time>
      </trkpt>
      <trkpt lat="40.445650" lon="-5.275000">
        <ele>2232.0</ele>
        <time>2018-07-28T12:21:13Z</time>
      </trkpt>
      <trkpt lat="40.445683" lon="-5.275083">
        <ele>2233.0</ele>
        <time>2018-07-28T12:21:14Z</time>
      </trkpt>
      <trkpt lat="40.445683" lon="-5.275167">
        <ele>2234.0</ele>
        <time>2018-07-28T12:21:15Z</time>
      </trkpt>
      <trkpt lat="40.445667" lon="-5.275267">
        <ele>2236.0</ele>
        <time>2018-07-28T12:21:16Z</time>
      </trkpt>
      <trkpt lat="40.445633" lon="-5.275317">
        <ele>2239.0</ele>
        <time>2018-07-28T12:21:17Z</time>
      </trkpt>
      <trkpt lat="40.445567" lon="-5.275333">
        <ele>2241.0</ele>
        <time>2018-07-28T12:21:18Z</time>
      </trkpt>
      <trkpt lat="40.445483" lon="-5.275283">
        <ele>2242.0</ele>
        <time>2018-07-28T12:21:19Z</time>
      </trkpt>
      <trkpt lat="40.445383" lon="-5.275200">
        <ele>2242.0</ele>
        <time>2018-07-28T12:21:20Z</time>
      </trkpt>
      <trkpt lat="40.445283" lon="-5.275067">
        <ele>2242.0</ele>
        <time>2018-07-28T12:21:21Z</time>
      </trkpt>
      <trkpt lat="40.445200" lon="-5.274883">
        <ele>2244.0</ele>
        <time>2018-07-28T12:21:22Z</time>
      </trkpt>
      <trkpt lat="40.445167" lon="-5.274700">
        <ele>2249.0</ele>
        <time>2018-07-28T12:21:23Z</time>
      </trkpt>
      <trkpt lat="40.445183" lon="-5.274500">
        <ele>2254.0</ele>
        <time>2018-07-28T12:21:24Z</time>
      </trkpt>
      <trkpt lat="40.445217" lon="-5.274317">
        <ele>2257.0</ele>
        <time>2018-07-28T12:21:25Z</time>
      </trkpt>
      <trkpt lat="40.445283" lon="-5.274167">
        <ele>2261.0</ele>
        <time>2018-07-28T12:21:26Z</time>
      </trkpt>
      <trkpt lat="40.445333" lon="-5.274033">
        <ele>2263.0</ele>
        <time>2018-07-28T12:21:27Z</time>
      </trkpt>
      <trkpt lat="40.445383" lon="-5.273883">
        <ele>2265.0</ele>
        <time>2018-07-28T12:21:28Z</time>
      </trkpt>
      <trkpt lat="40.445450" lon="-5.273733">
        <ele>2267.0</ele>
        <time>2018-07-28T12:21:29Z</time>
      </trkpt>
      <trkpt lat="40.445567" lon="-5.273617">
        <ele>2268.0</ele>
        <time>2018-07-28T12:21:30Z</time>
      </trkpt>
      <trkpt lat="40.445700" lon="-5.273550">
        <ele>2269.0</ele>
        <time>2018-07-28T12:21:31Z</time>
      </trkpt>
      <trkpt lat="40.445817" lon="-5.273567">
        <ele>2271.0</ele>
        <time>2018-07-28T12:21:32Z</time>
      </trkpt>
      <trkpt lat="40.445917" lon="-5.273617">
        <ele>2273.0</ele>
        <time>2018-07-28T12:21:33Z</time>
      </trkpt>
      <trkpt lat="40.445983" lon="-5.273700">
        <ele>2275.0</ele>
        <time>2018-07-28T12:21:34Z</time>
      </trkpt>
      <trkpt lat="40.446017" lon="-5.273783">
        <ele>2278.0</ele>
        <time>2018-07-28T12:21:35Z</time>
      </trkpt>
      <trkpt lat="40.446033" lon="-5.273867">
        <ele>2282.0</ele>
        <time>2018-07-28T12:21:36Z</time>
      </trkpt>
      <trkpt lat="40.446033" lon="-5.273917">
        <ele>2285.0</ele>
        <time>2018-07-28T12:21:37Z</time>
      </trkpt>
      <trkpt lat="40.446017" lon="-5.273967">
        <ele>2286.0</ele>
        <time>2018-07-28T12:21:38Z</time>
      </trkpt>
      <trkpt lat="40.445983" lon="-5.274000">
        <ele>2286.0</ele>
        <time>2018-07-28T12:21:39Z</time>
      </trkpt>
      <trkpt lat="40.445917" lon="-5.274050">
        <ele>2286.0</ele>
        <time>2018-07-28T12:21:40Z</time>
      </trkpt>
      <trkpt lat="40.445833" lon="-5.274067">
        <ele>2286.0</ele>
        <time>2018-07-28T12:21:41Z</time>
      </trkpt>
      <trkpt lat="40.445733" lon="-5.274050">
        <ele>2286.0</ele>
        <time>2018-07-28T12:21:42Z</time>
      </trkpt>
      <trkpt lat="40.445617" lon="-5.273983">
        <ele>2287.0</ele>
        <time>2018-07-28T12:21:43Z</time>
      </trkpt>
      <trkpt lat="40.445517" lon="-5.273867">
        <ele>2288.0</ele>
        <time>2018-07-28T12:21:44Z</time>
      </trkpt>
      <trkpt lat="40.445450" lon="-5.273717">
        <ele>2289.0</ele>
        <time>2018-07-28T12:21:45Z</time>
      </trkpt>
      <trkpt lat="40.445383" lon="-5.273533">
        <ele>2290.0</ele>
        <time>2018-07-28T12:21:46Z</time>
      </trkpt>
      <trkpt lat="40.445367" lon="-5.273333">
        <ele>2292.0</ele>
        <time>2018-07-28T12:21:47Z</time>
      </trkpt>
      <trkpt lat="40.445383" lon="-5.273133">
        <ele>2293.0</ele>
        <time>2018-07-28T12:21:48Z</time>
      </trkpt>
      <trkpt lat="40.445433" lon="-5.272950">
        <ele>2294.0</ele>
        <time>2018-07-28T12:21:49Z</time>
      </trkpt>
      <trkpt lat="40.445517" lon="-5.272783">
        <ele>2294.0</ele>
        <time>2018-07-28T12:21:50Z</time>
      </trkpt>
      <trkpt lat="40.445617" lon="-5.272650">
        <ele>2294.0</ele>
        <time>2018-07-28T12:21:51Z</time>
      </trkpt>
      <trkpt lat="40.445733" lon="-5.272567">
        <ele>2294.0</ele>
        <time>2018-07-28T12:21:52Z</time>
      </trkpt>
      <trkpt lat="40.445833" lon="-5.272517">
        <ele>2295.0</ele>
        <time>2018-07-28T12:21:53Z</time>
      </trkpt>
      <trkpt lat="40.445933" lon="-5.272533">
        <ele>2297.0</ele>
        <time>2018-07-28T12:21:54Z</time>
      </trkpt>
      <trkpt lat="40.446017" lon="-5.272583">
        <ele>2298.0</ele>
        <time>2018-07-28T12:21:55Z</time>
      </trkpt>
      <trkpt lat="40.446083" lon="-5.272650">
        <ele>2300.0</ele>
        <time>2018-07-28T12:21:56Z</time>
      </trkpt>
      <trkpt lat="40.446150" lon="-5.272717">
        <ele>2302.0</ele>
        <time>2018-07-28T12:21:57Z</time>
      </trkpt>
      <trkpt lat="40.446183" lon="-5.272783">
        <ele>2304.0</ele>
        <time>2018-07-28T12:21:58Z</time>
      </trkpt>
      <trkpt lat="40.446217" lon="-5.272850">
        <ele>2305.0</ele>
        <time>2018-07-28T12:21:59Z</time>
      </trkpt>
      <trkpt lat="40.446233" lon="-5.272917">
        <ele>2305.0</ele>
        <time>2018-07-28T12:22:00Z</time>
      </trkpt>
      <trkpt lat="40.446233" lon="-5.272983">
        <ele>2305.0</ele>
        <time>2018-07-28T12:22:01Z</time>
      </trkpt>
      <trkpt lat="40.446233" lon="-5.273067">
        <ele>2304.0</ele>
        <time>2018-07-28T12:22:02Z</time>
      </trkpt>
      <trkpt lat="40.446233" lon="-5.273150">
        <ele>2303.0</ele>
        <time>2018-07-28T12:22:03Z</time>
      </trkpt>
      <trkpt lat="40.446217" lon="-5.273233">
        <ele>2302.0</ele>
        <time>2018-07-28T12:22:04Z</time>
      </trkpt>
      <trkpt lat="40.446217" lon="-5.273333">
        <ele>2302.0</ele>
        <time>2018-07-28T12:22:05Z</time>
      </trkpt>
      <trkpt lat="40.446233" lon="-5.273417">
        <ele>2304.0</ele>
        <time>2018-07-28T12:22:06Z</time>
      </trkpt>
      <trkpt lat="40.446233" lon="-5.273517">
        <ele>2307.0</ele>
        <time>2018-07-28T12:22:07Z</time>
      </trkpt>
      <trkpt lat="40.446250" lon="-5.273600">
        <ele>2310.0</ele>
        <time>2018-07-28T12:22:08Z</time>
      </trkpt>
      <trkpt lat="40.446267" lon="-5.273650">
        <ele>2313.0</ele>
        <time>2018-07-28T12:22:09Z</time>
      </trkpt>
      <trkpt lat="40.446283" lon="-5.273700">
        <ele>2315.0</ele>
        <time>2018-07-28T12:22:10Z</time>
      </trkpt>
      <trkpt lat="40.446283" lon="-5.273733">
        <ele>2315.0</ele>
        <time>2018-07-28T12:22:11Z</time>
      </trkpt>
      <trkpt lat="40.446300" lon="-5.273783">
        <ele>2314.0</ele>
        <time>2018-07-28T12:22:12Z</time>
      </trkpt>
      <trkpt lat="40.446333" lon="-5.273850">
        <ele>2314.0</ele>
        <time>2018-07-28T12:22:13Z</time>
      </trkpt>
      <trkpt lat="40.446367" lon="-5.273933">
        <ele>2313.0</ele>
        <time>2018-07-28T12:22:14Z</time>
      </trkpt>
      <trkpt lat="40.446400" lon="-5.274033">
        <ele>2313.0</ele>
        <time>2018-07-28T12:22:15Z</time>
      </trkpt>
      <trkpt lat="40.446433" lon="-5.274117">
        <ele>2314.0</ele>
        <time>2018-07-28T12:22:16Z</time>
      </trkpt>
      <trkpt lat="40.446450" lon="-5.274233">
        <ele>2315.0</ele>
        <time>2018-07-28T12:22:17Z</time>
      </trkpt>
      <trkpt lat="40.446467" lon="-5.274333">
        <ele>2316.0</ele>
        <time>2018-07-28T12:22:18Z</time>
      </trkpt>
      <trkpt lat="40.446467" lon="-5.274417">
        <ele>2318.0</ele>
        <time>2018-07-28T12:22:19Z</time>
      </trkpt>
      <trkpt lat="40.446483" lon="-5.274517">
        <ele>2319.0</ele>
        <time>2018-07-28T12:22:20Z</time>
      </trkpt>
      <trkpt lat="40.446517" lon="-5.274583">
        <ele>2320.0</ele>
        <time>2018-07-28T12:22:21Z</time>
      </trkpt>
      <trkpt lat="40.446550" lon="-5.274667">
        <ele>2320.0</ele>
        <time>2018-07-28T12:22:22Z</time>
      </trkpt>
      <trkpt lat="40.446600" lon="-5.274750">
        <ele>2320.0</ele>
        <time>2018-07-28T12:22:23Z</time>
      </trkpt>
      <trkpt lat="40.446667" lon="-5.274833">
        <ele>2320.0</ele>
        <time>2018-07-28T12:22:24Z</time>
      </trkpt>
      <trkpt lat="40.446733" lon="-5.274917">
        <ele>2322.0</ele>
        <time>2018-07-28T12:22:25Z</time>
      </trkpt>
      <trkpt lat="40.446800" lon="-5.274967">
        <ele>2323.0</ele>
        <time>2018-07-28T12:22:26Z</time>
      </trkpt>
      <trkpt lat="40.446850" lon="-5.275033">
        <ele>2324.0</ele>
        <time>2018-07-28T12:22:27Z</time>
      </trkpt>
      <trkpt lat="40.446900" lon="-5.275083">
        <ele>2324.0</ele>
        <time>2018-07-28T12:22:28Z</time>
      </trkpt>
      <trkpt lat="40.446950" lon="-5.275167">
        <ele>2323.0</ele>
        <time>2018-07-28T12:22:29Z</time>
      </trkpt>
      <trkpt lat="40.447017" lon="-5.275250">
        <ele>2322.0</ele>
        <time>2018-07-28T12:22:30Z</time>
      </trkpt>
      <trkpt lat="40.447067" lon="-5.275333">
        <ele>2323.0</ele>
        <time>2018-07-28T12:22:31Z</time>
      </trkpt>
      <trkpt lat="40.447133" lon="-5.275417">
        <ele>2325.0</ele>
        <time>2018-07-28T12:22:32Z</time>
      </trkpt>
      <trkpt lat="40.447183" lon="-5.275483">
        <ele>2327.0</ele>
        <time>2018-07-28T12:22:33Z</time>
      </trkpt>
      <trkpt lat="40.447250" lon="-5.275550">
        <ele>2329.0</ele>
        <time>2018-07-28T12:22:34Z</time>
      </trkpt>
      <trkpt lat="40.447317" lon="-5.275600">
        <ele>2332.0</ele>
        <time>2018-07-28T12:22:35Z</time>
      </trkpt>
      <trkpt lat="40.447400" lon="-5.275633">
        <ele>2335.0</ele>
        <time>2018-07-28T12:22:36Z</time>
      </trkpt>
      <trkpt lat="40.447450" lon="-5.275683">
        <ele>2338.0</ele>
        <time>2018-07-28T12:22:37Z</time>
      </trkpt>
      <trkpt lat="40.447517" lon="-5.275733">
        <ele>2340.0</ele>
        <time>2018-07-28T12:22:38Z</time>
      </trkpt>
      <trkpt lat="40.447583" lon="-5.275767">
        <ele>2342.0</ele>
        <time>2018-07-28T12:22:39Z</time>
      </trkpt>
      <trkpt lat="40.447650" lon="-5.275800">
        <ele>2343.0</ele>
        <time>2018-07-28T12:22:40Z</time>
      </trkpt>
      <trkpt lat="40.447767" lon="-5.275783">
        <ele>2344.0</ele>
        <time>2018-07-28T12:22:41Z</time>
      </trkpt>
      <trkpt lat="40.447883" lon="-5.275733">
        <ele>2344.0</ele>
        <time>2018-07-28T12:22:42Z</time>
      </trkpt>
      <trkpt lat="40.447983" lon="-5.275617">
        <ele>2345.0</ele>
        <time>2018-07-28T12:22:43Z</time>
      </trkpt>
      <trkpt lat="40.448067" lon="-5.275467">
        <ele>2347.0</ele>
        <time>2018-07-28T12:22:44Z</time>
      </trkpt>
      <trkpt lat="40.448117" lon="-5.275283">
        <ele>2350.0</ele>
        <time>2018-07-28T12:22:45Z</time>
      </trkpt>
      <trkpt lat="40.448100" lon="-5.275117">
        <ele>2351.0</ele>
        <time>2018-07-28T12:22:46Z</time>
      </trkpt>
      <trkpt lat="40.448067" lon="-5.274950">
        <ele>2352.0</ele>
        <time>2018-07-28T12:22:47Z</time>
      </trkpt>
      <trkpt lat="40.448000" lon="-5.274833">
        <ele>2353.0</ele>
        <time>2018-07-28T12:22:48Z</time>
      </trkpt>
      <trkpt lat="40.447917" lon="-5.274733">
        <ele>2354.0</ele>
        <time>2018-07-28T12:22:49Z</time>
      </trkpt>
      <trkpt lat="40.447817" lon="-5.274650">
        <ele>2355.0</ele>
        <time>2018-07-28T12:22:50Z</time>
      </trkpt>
      <trkpt lat="40.447733" lon="-5.274600">
        <ele>2357.0</ele>
        <time>2018-07-28T12:22:51Z</time>
      </trkpt>
      <trkpt lat="40.447650" lon="-5.274583">
        <ele>2359.0</ele>
        <time>2018-07-28T12:22:52Z</time>
      </trkpt>
      <trkpt lat="40.447567" lon="-5.274600">
        <ele>2360.0</ele>
        <time>2018-07-28T12:22:53Z</time>
      </trkpt>
      <trkpt lat="40.447517" lon="-5.274650">
        <ele>2360.0</ele>
        <time>2018-07-28T12:22:54Z</time>
      </trkpt>
      <trkpt lat="40.447467" lon="-5.274717">
        <ele>2360.0</ele>
        <time>2018-07-28T12:22:55Z</time>
      </trkpt>
      <trkpt lat="40.447450" lon="-5.274783">
        <ele>2361.0</ele>
        <time>2018-07-28T12:22:56Z</time>
      </trkpt>
      <trkpt lat="40.447467" lon="-5.274883">
        <ele>2362.0</ele>
        <time>2018-07-28T12:22:57Z</time>
      </trkpt>
      <trkpt lat="40.447483" lon="-5.274967">
        <ele>2365.0</ele>
        <time>2018-07-28T12:22:58Z</time>
      </trkpt>
      <trkpt lat="40.447500" lon="-5.275067">
        <ele>2368.0</ele>
        <time>2018-07-28T12:22:59Z</time>
      </trkpt>
      <trkpt lat="40.447550" lon="-5.275133">
        <ele>2372.0</ele>
        <time>2018-07-28T12:23:00Z</time>
      </trkpt>
      <trkpt lat="40.447600" lon="-5.275183">
        <ele>2376.0</ele>
        <time>2018-07-28T12:23:01Z</time>
      </trkpt>
      <trkpt lat="40.447667" lon="-5.275217">
        <ele>2378.0</ele>
        <time>2018-07-28T12:23:02Z</time>
      </trkpt>
      <trkpt lat="40.447750" lon="-5.275233">
        <ele>2379.0</ele>
        <time>2018-07-28T12:23:03Z</time>
      </trkpt>
      <trkpt lat="40.447867" lon="-5.275217">
        <ele>2380.0</ele>
        <time>2018-07-28T12:23:04Z</time>
      </trkpt>
      <trkpt lat="40.447983" lon="-5.275150">
        <ele>2382.0</ele>
        <time>2018-07-28T12:23:05Z</time>
      </trkpt>
      <trkpt lat="40.448100" lon="-5.275033">
        <ele>2384.0</ele>
        <time>2018-07-28T12:23:06Z</time>
      </trkpt>
      <trkpt lat="40.448183" lon="-5.274883">
        <ele>2388.0</ele>
        <time>2018-07-28T12:23:07Z</time>
      </trkpt>
      <trkpt lat="40.448233" lon="-5.274717">
        <ele>2390.0</ele>
        <time>2018-07-28T12:23:08Z</time>
      </trkpt>
      <trkpt lat="40.448250" lon="-5.274550">
        <ele>2391.0</ele>
        <time>2018-07-28T12:23:09Z</time>
      </trkpt>
      <trkpt lat="40.448233" lon="-5.274383">
        <ele>2392.0</ele>
        <time>2018-07-28T12:23:10Z</time>
      </trkpt>
      <trkpt lat="40.448217" lon="-5.274217">
        <ele>2391.0</ele>
        <time>2018-07-28T12:23:11Z</time>
      </trkpt>
      <trkpt lat="40.448150" lon="-5.274067">
        <ele>2392.0</ele>
        <time>2018-07-28T12:23:12Z</time>
      </trkpt>
      <trkpt lat="40.448083" lon="-5.273933">
        <ele>2394.0</ele>
        <time>2018-07-28T12:23:13Z</time>
      </trkpt>
      <trkpt lat="40.448017" lon="-5.273833">
        <ele>2397.0</ele>
        <time>2018-07-28T12:23:14Z</time>
      </trkpt>
      <trkpt lat="40.447933" lon="-5.273800">
        <ele>2401.0</ele>
        <time>2018-07-28T12:23:15Z</time>
      </trkpt>
      <trkpt lat="40.447867" lon="-5.273800">
        <ele>2403.0</ele>
        <time>2018-07-28T12:23:16Z</time>
      </trkpt>
      <trkpt lat="40.447783" lon="-5.273817">
        <ele>2403.0</ele>
        <time>2018-07-28T12:23:17Z</time>
      </trkpt>
      <trkpt lat="40.447717" lon="-5.273867">
        <ele>2404.0</ele>
        <time>2018-07-28T12:23:18Z</time>
      </trkpt>
      <trkpt lat="40.447667" lon="-5.273933">
        <ele>2406.0</ele>
        <time>2018-07-28T12:23:19Z</time>
      </trkpt>
      <trkpt lat="40.447633" lon="-5.274000">
        <ele>2408.0</ele>
        <time>2018-07-28T12:23:20Z</time>
      </trkpt>
      <trkpt lat="40.447617" lon="-5.274083">
        <ele>2409.0</ele>
        <time>2018-07-28T12:23:21Z</time>
      </trkpt>
      <trkpt lat="40.447633" lon="-5.274183">
        <ele>2412.0</ele>
        <time>2018-07-28T12:23:22Z</time>
      </trkpt>
      <trkpt lat="40.447633" lon="-5.274267">
        <ele>2414.0</ele>
        <time>2018-07-28T12:23:23Z</time>
      </trkpt>
      <trkpt lat="40.447667" lon="-5.274350">
        <ele>2416.0</ele>
        <time>2018-07-28T12:23:24Z</time>
      </trkpt>
      <trkpt lat="40.447700" lon="-5.274433">
        <ele>2418.0</ele>
        <time>2018-07-28T12:23:25Z</time>
      </trkpt>
      <trkpt lat="40.447750" lon="-5.274517">
        <ele>2420.0</ele>
        <time>2018-07-28T12:23:26Z</time>
      </trkpt>
      <trkpt lat="40.447817" lon="-5.274583">
        <ele>2421.0</ele>
        <time>2018-07-28T12:23:27Z</time>
      </trkpt>
      <trkpt lat="40.447917" lon="-5.274633">
        <ele>2422.0</ele>
        <time>2018-07-28T12:23:28Z</time>
      </trkpt>
      <trkpt lat="40.448017" lon="-5.274700">
        <ele>2423.0</ele>
        <time>2018-07-28T12:23:29Z</time>
      </trkpt>
      <trkpt lat="40.448117" lon="-5.274717">
        <ele>2426.0</ele>
        <time>2018-07-28T12:23:30Z</time>
      </trkpt>
      <trkpt lat="40.448233" lon="-5.274700">
        <ele>2428.0</ele>
        <time>2018-07-28T12:23:31Z</time>
      </trkpt>
      <trkpt lat="40.448350" lon="-5.274633">
        <ele>2430.0</ele>
        <time>2018-07-28T12:23:32Z</time>
      </trkpt>
      <trkpt lat="40.448450" lon="-5.274517">
        <ele>2431.0</ele>
        <time>2018-07-28T12:23:33Z</time>
      </trkpt>
      <trkpt lat="40.448533" lon="-5.274367">
        <ele>2432.0</ele>
        <time>2018-07-28T12:23:34Z</time>
      </trkpt>
      <trkpt lat="40.448583" lon="-5.274200">
        <ele>2432.0</ele>
        <time>2018-07-28T12:23:35Z</time>
      </trkpt>
      <trkpt lat="40.448617" lon="-5.274033">
        <ele>2432.0</ele>
        <time>2018-07-28T12:23:36Z</time>
      </trkpt>
      <trkpt lat="40.448617" lon="-5.273850">
        <ele>2433.0</ele>
        <time>2018-07-28T12:23:37Z</time>
      </trkpt>
      <trkpt lat="40.448583" lon="-5.273700">
        <ele>2433.0</ele>
        <time>2018-07-28T12:23:38Z</time>
      </trkpt>
      <trkpt lat="40.448533" lon="-5.273567">
        <ele>2432.0</ele>
        <time>2018-07-28T12:23:39Z</time>
      </trkpt>
      <trkpt lat="40.448450" lon="-5.273467">
        <ele>2433.0</ele>
        <time>2018-07-28T12:23:40Z</time>
      </trkpt>
      <trkpt lat="40.448367" lon="-5.273417">
        <ele>2434.0</ele>
        <time>2018-07-28T12:23:41Z</time>
      </trkpt>
      <trkpt lat="40.448283" lon="-5.273400">
        <ele>2436.0</ele>
        <time>2018-07-28T12:23:42Z</time>
      </trkpt>
      <trkpt lat="40.448200" lon="-5.273417">
        <ele>2438.0</ele>
        <time>2018-07-28T12:23:43Z</time>
      </trkpt>
      <trkpt lat="40.448150" lon="-5.273450">
        <ele>2439.0</ele>
        <time>2018-07-28T12:23:44Z</time>
      </trkpt>
      <trkpt lat="40.448083" lon="-5.273500">
        <ele>2440.0</ele>
        <time>2018-07-28T12:23:45Z</time>
      </trkpt>
      <trkpt lat="40.448050" lon="-5.273567">
        <ele>2440.0</ele>
        <time>2018-07-28T12:23:46Z</time>
      </trkpt>
      <trkpt lat="40.448017" lon="-5.273667">
        <ele>2441.0</ele>
        <time>2018-07-28T12:23:47Z</time>
      </trkpt>
      <trkpt lat="40.448017" lon="-5.273767">
        <ele>2441.0</ele>
        <time>2018-07-28T12:23:48Z</time>
      </trkpt>
      <trkpt lat="40.448050" lon="-5.273867">
        <ele>2442.0</ele>
        <time>2018-07-28T12:23:49Z</time>
      </trkpt>
      <trkpt lat="40.448083" lon="-5.273967">
        <ele>2443.0</ele>
        <time>2018-07-28T12:23:50Z</time>
      </trkpt>
      <trkpt lat="40.448133" lon="-5.274050">
        <ele>2445.0</ele>
        <time>2018-07-28T12:23:51Z</time>
      </trkpt>
      <trkpt lat="40.448200" lon="-5.274117">
        <ele>2446.0</ele>
        <time>2018-07-28T12:23:52Z</time>
      </trkpt>
      <trkpt lat="40.448267" lon="-5.274167">
        <ele>2447.0</ele>
        <time>2018-07-28T12:23:53Z</time>
      </trkpt>
      <trkpt lat="40.448367" lon="-5.274200">
        <ele>2447.0</ele>
        <time>2018-07-28T12:23:54Z</time>
      </trkpt>
      <trkpt lat="40.448467" lon="-5.274183">
        <ele>2447.0</ele>
        <time>2018-07-28T12:23:55Z</time>
      </trkpt>
      <trkpt lat="40.448583" lon="-5.274133">
        <ele>2446.0</ele>
        <time>2018-07-28T12:23:56Z</time>
      </trkpt>
      <trkpt lat="40.448683" lon="-5.274050">
        <ele>2445.0</ele>
        <time>2018-07-28T12:23:57Z</time>
      </trkpt>
      <trkpt lat="40.448817" lon="-5.273967">
        <ele>2443.0</ele>
        <time>2018-07-28T12:23:58Z</time>
      </trkpt>
      <trkpt lat="40.448933" lon="-5.273883">
        <ele>2443.0</ele>
        <time>2018-07-28T12:23:59Z</time>
      </trkpt>
      <trkpt lat="40.449033" lon="-5.273833">
        <ele>2443.0</ele>
        <time>2018-07-28T12:24:00Z</time>
      </trkpt>
      <trkpt lat="40.449150" lon="-5.273783">
        <ele>2443.0</ele>
        <time>2018-07-28T12:24:01Z</time>
      </trkpt>
      <trkpt lat="40.449267" lon="-5.273767">
        <ele>2442.0</ele>
        <time>2018-07-28T12:24:02Z</time>
      </trkpt>
      <trkpt lat="40.449367" lon="-5.273767">
        <ele>2441.0</ele>
        <time>2018-07-28T12:24:03Z</time>
      </trkpt>
      <trkpt lat="40.449467" lon="-5.273800">
        <ele>2439.0</ele>
        <time>2018-07-28T12:24:04Z</time>
      </trkpt>
      <trkpt lat="40.449567" lon="-5.273833">
        <ele>2438.0</ele>
        <time>2018-07-28T12:24:05Z</time>
      </trkpt>
      <trkpt lat="40.449633" lon="-5.273900">
        <ele>2436.0</ele>
        <time>2018-07-28T12:24:06Z</time>
      </trkpt>
      <trkpt lat="40.449683" lon="-5.273967">
        <ele>2433.0</ele>
        <time>2018-07-28T12:24:07Z</time>
      </trkpt>
      <trkpt lat="40.449733" lon="-5.274050">
        <ele>2431.0</ele>
        <time>2018-07-28T12:24:08Z</time>
      </trkpt>
      <trkpt lat="40.449783" lon="-5.274150">
        <ele>2427.0</ele>
        <time>2018-07-28T12:24:09Z</time>
      </trkpt>
      <trkpt lat="40.449850" lon="-5.274250">
        <ele>2424.0</ele>
        <time>2018-07-28T12:24:10Z</time>
      </trkpt>
      <trkpt lat="40.449917" lon="-5.274333">
        <ele>2422.0</ele>
        <time>2018-07-28T12:24:11Z</time>
      </trkpt>
      <trkpt lat="40.449950" lon="-5.274417">
        <ele>2420.0</ele>
        <time>2018-07-28T12:24:12Z</time>
      </trkpt>
      <trkpt lat="40.449983" lon="-5.274483">
        <ele>2417.0</ele>
        <time>2018-07-28T12:24:13Z</time>
      </trkpt>
      <trkpt lat="40.450000" lon="-5.274567">
        <ele>2413.0</ele>
        <time>2018-07-28T12:24:14Z</time>
      </trkpt>
      <trkpt lat="40.450017" lon="-5.274650">
        <ele>2409.0</ele>
        <time>2018-07-28T12:24:15Z</time>
      </trkpt>
      <trkpt lat="40.450033" lon="-5.274733">
        <ele>2405.0</ele>
        <time>2018-07-28T12:24:16Z</time>
      </trkpt>
      <trkpt lat="40.450067" lon="-5.274833">
        <ele>2401.0</ele>
        <time>2018-07-28T12:24:17Z</time>
      </trkpt>
      <trkpt lat="40.450100" lon="-5.274917">
        <ele>2397.0</ele>
        <time>2018-07-28T12:24:18Z</time>
      </trkpt>
      <trkpt lat="40.450150" lon="-5.275017">
        <ele>2393.0</ele>
        <time>2018-07-28T12:24:19Z</time>
      </trkpt>
      <trkpt lat="40.450200" lon="-5.275100">
        <ele>2388.0</ele>
        <time>2018-07-28T12:24:20Z</time>
      </trkpt>
      <trkpt lat="40.450250" lon="-5.275200">
        <ele>2383.0</ele>
        <time>2018-07-28T12:24:21Z</time>
      </trkpt>
      <trkpt lat="40.450300" lon="-5.275317">
        <ele>2379.0</ele>
        <time>2018-07-28T12:24:22Z</time>
      </trkpt>
      <trkpt lat="40.450367" lon="-5.275417">
        <ele>2374.0</ele>
        <time>2018-07-28T12:24:23Z</time>
      </trkpt>
      <trkpt lat="40.450433" lon="-5.275533">
        <ele>2370.0</ele>
        <time>2018-07-28T12:24:24Z</time>
      </trkpt>
      <trkpt lat="40.450517" lon="-5.275650">
        <ele>2366.0</ele>
        <time>2018-07-28T12:24:25Z</time>
      </trkpt>
      <trkpt lat="40.450600" lon="-5.275750">
        <ele>2364.0</ele>
        <time>2018-07-28T12:24:26Z</time>
      </trkpt>
      <trkpt lat="40.450667" lon="-5.275850">
        <ele>2363.0</ele>
        <time>2018-07-28T12:24:27Z</time>
      </trkpt>
      <trkpt lat="40.450733" lon="-5.275950">
        <ele>2363.0</ele>
        <time>2018-07-28T12:24:28Z</time>
      </trkpt>
      <trkpt lat="40.450817" lon="-5.276033">
        <ele>2362.0</ele>
        <time>2018-07-28T12:24:29Z</time>
      </trkpt>
      <trkpt lat="40.450883" lon="-5.276083">
        <ele>2361.0</ele>
        <time>2018-07-28T12:24:30Z</time>
      </trkpt>
      <trkpt lat="40.450967" lon="-5.276150">
        <ele>2358.0</ele>
        <time>2018-07-28T12:24:31Z</time>
      </trkpt>
      <trkpt lat="40.451067" lon="-5.276233">
        <ele>2355.0</ele>
        <time>2018-07-28T12:24:32Z</time>
      </trkpt>
      <trkpt lat="40.451150" lon="-5.276317">
        <ele>2353.0</ele>
        <time>2018-07-28T12:24:33Z</time>
      </trkpt>
      <trkpt lat="40.451233" lon="-5.276417">
        <ele>2351.0</ele>
        <time>2018-07-28T12:24:34Z</time>
      </trkpt>
      <trkpt lat="40.451317" lon="-5.276517">
        <ele>2351.0</ele>
        <time>2018-07-28T12:24:35Z</time>
      </trkpt>
      <trkpt lat="40.451400" lon="-5.276600">
        <ele>2352.0</ele>
        <time>2018-07-28T12:24:36Z</time>
      </trkpt>
      <trkpt lat="40.451467" lon="-5.276683">
        <ele>2351.0</ele>
        <time>2018-07-28T12:24:37Z</time>
      </trkpt>
      <trkpt lat="40.451517" lon="-5.276767">
        <ele>2350.0</ele>
        <time>2018-07-28T12:24:38Z</time>
      </trkpt>
      <trkpt lat="40.451583" lon="-5.276867">
        <ele>2348.0</ele>
        <time>2018-07-28T12:24:39Z</time>
      </trkpt>
      <trkpt lat="40.451650" lon="-5.276950">
        <ele>2346.0</ele>
        <time>2018-07-28T12:24:40Z</time>
      </trkpt>
      <trkpt lat="40.451717" lon="-5.277050">
        <ele>2344.0</ele>
        <time>2018-07-28T12:24:41Z</time>
      </trkpt>
      <trkpt lat="40.451783" lon="-5.277150">
        <ele>2344.0</ele>
        <time>2018-07-28T12:24:42Z</time>
      </trkpt>
      <trkpt lat="40.451867" lon="-5.277250">
        <ele>2343.0</ele>
        <time>2018-07-28T12:24:43Z</time>
      </trkpt>
      <trkpt lat="40.451917" lon="-5.277333">
        <ele>2343.0</ele>
        <time>2018-07-28T12:24:44Z</time>
      </trkpt>
      <trkpt lat="40.451983" lon="-5.277417">
        <ele>2342.0</ele>
        <time>2018-07-28T12:24:45Z</time>
      </trkpt>
      <trkpt lat="40.452050" lon="-5.277517">
        <ele>2340.0</ele>
        <time>2018-07-28T12:24:46Z</time>
      </trkpt>
      <trkpt lat="40.452133" lon="-5.277600">
        <ele>2339.0</ele>
        <time>2018-07-28T12:24:47Z</time>
      </trkpt>
      <trkpt lat="40.452200" lon="-5.277700">
        <ele>2338.0</ele>
        <time>2018-07-28T12:24:48Z</time>
      </trkpt>
      <trkpt lat="40.452267" lon="-5.277800">
        <ele>2337.0</ele>
        <time>2018-07-28T12:24:49Z</time>
      </trkpt>
      <trkpt lat="40.452333" lon="-5.277900">
        <ele>2337.0</ele>
        <time>2018-07-28T12:24:50Z</time>
      </trkpt>
      <trkpt lat="40.452400" lon="-5.278000">
        <ele>2336.0</ele>
        <time>2018-07-28T12:24:51Z</time>
      </trkpt>
      <trkpt lat="40.452433" lon="-5.278117">
        <ele>2336.0</ele>
        <time>2018-07-28T12:24:52Z</time>
      </trkpt>
      <trkpt lat="40.452467" lon="-5.278217">
        <ele>2336.0</ele>
        <time>2018-07-28T12:24:53Z</time>
      </trkpt>
      <trkpt lat="40.452500" lon="-5.278317">
        <ele>2335.0</ele>
        <time>2018-07-28T12:24:54Z</time>
      </trkpt>
      <trkpt lat="40.452533" lon="-5.278417">
        <ele>2334.0</ele>
        <time>2018-07-28T12:24:55Z</time>
      </trkpt>
      <trkpt lat="40.452583" lon="-5.278517">
        <ele>2332.0</ele>
        <time>2018-07-28T12:24:56Z</time>
      </trkpt>
      <trkpt lat="40.452633" lon="-5.278633">
        <ele>2331.0</ele>
        <time>2018-07-28T12:24:57Z</time>
      </trkpt>
      <trkpt lat="40.452700" lon="-5.278717">
        <ele>2329.0</ele>
        <time>2018-07-28T12:24:58Z</time>
      </trkpt>
      <trkpt lat="40.452767" lon="-5.278817">
        <ele>2328.0</ele>
        <time>2018-07-28T12:24:59Z</time>
      </trkpt>
      <trkpt lat="40.452833" lon="-5.278900">
        <ele>2327.0</ele>
        <time>2018-07-28T12:25:00Z</time>
      </trkpt>
      <trkpt lat="40.452917" lon="-5.278983">
        <ele>2325.0</ele>
        <time>2018-07-28T12:25:01Z</time>
      </trkpt>
      <trkpt lat="40.452983" lon="-5.279083">
        <ele>2324.0</ele>
        <time>2018-07-28T12:25:02Z</time>
      </trkpt>
      <trkpt lat="40.453050" lon="-5.279183">
        <ele>2324.0</ele>
        <time>2018-07-28T12:25:03Z</time>
      </trkpt>
      <trkpt lat="40.453100" lon="-5.279283">
        <ele>2323.0</ele>
        <time>2018-07-28T12:25:04Z</time>
      </trkpt>
      <trkpt lat="40.453150" lon="-5.279383">
        <ele>2324.0</ele>
        <time>2018-07-28T12:25:05Z</time>
      </trkpt>
      <trkpt lat="40.453200" lon="-5.279467">
        <ele>2323.0</ele>
        <time>2018-07-28T12:25:06Z</time>
      </trkpt>
      <trkpt lat="40.453250" lon="-5.279550">
        <ele>2322.0</ele>
        <time>2018-07-28T12:25:07Z</time>
      </trkpt>
      <trkpt lat="40.453300" lon="-5.279650">
        <ele>2320.0</ele>
        <time>2018-07-28T12:25:08Z</time>
      </trkpt>
      <trkpt lat="40.453350" lon="-5.279733">
        <ele>2318.0</ele>
        <time>2018-07-28T12:25:09Z</time>
      </trkpt>
      <trkpt lat="40.453400" lon="-5.279833">
        <ele>2317.0</ele>
        <time>2018-07-28T12:25:10Z</time>
      </trkpt>
      <trkpt lat="40.453467" lon="-5.279933">
        <ele>2316.0</ele>
        <time>2018-07-28T12:25:11Z</time>
      </trkpt>
      <trkpt lat="40.453500" lon="-5.280033">
        <ele>2316.0</ele>
        <time>2018-07-28T12:25:12Z</time>
      </trkpt>
      <trkpt lat="40.453517" lon="-5.280117">
        <ele>2316.0</ele>
        <time>2018-07-28T12:25:13Z</time>
      </trkpt>
      <trkpt lat="40.453517" lon="-5.280200">
        <ele>2315.0</ele>
        <time>2018-07-28T12:25:14Z</time>
      </trkpt>
      <trkpt lat="40.453483" lon="-5.280283">
        <ele>2314.0</ele>
        <time>2018-07-28T12:25:15Z</time>
      </trkpt>
      <trkpt lat="40.453450" lon="-5.280350">
        <ele>2314.0</ele>
        <time>2018-07-28T12:25:16Z</time>
      </trkpt>
      <trkpt lat="40.453417" lon="-5.280400">
        <ele>2315.0</ele>
        <time>2018-07-28T12:25:17Z</time>
      </trkpt>
      <trkpt lat="40.453367" lon="-5.280433">
        <ele>2314.0</ele>
        <time>2018-07-28T12:25:18Z</time>
      </trkpt>
      <trkpt lat="40.453317" lon="-5.280467">
        <ele>2314.0</ele>
        <time>2018-07-28T12:25:19Z</time>
      </trkpt>
      <trkpt lat="40.453250" lon="-5.280467">
        <ele>2312.0</ele>
        <time>2018-07-28T12:25:20Z</time>
      </trkpt>
      <trkpt lat="40.453167" lon="-5.280483">
        <ele>2311.0</ele>
        <time>2018-07-28T12:25:21Z</time>
      </trkpt>
      <trkpt lat="40.453083" lon="-5.280483">
        <ele>2311.0</ele>
        <time>2018-07-28T12:25:22Z</time>
      </trkpt>
      <trkpt lat="40.453017" lon="-5.280500">
        <ele>2311.0</ele>
        <time>2018-07-28T12:25:23Z</time>
      </trkpt>
      <trkpt lat="40.452950" lon="-5.280517">
        <ele>2311.0</ele>
        <time>2018-07-28T12:25:24Z</time>
      </trkpt>
      <trkpt lat="40.452883" lon="-5.280533">
        <ele>2311.0</ele>
        <time>2018-07-28T12:25:25Z</time>
      </trkpt>
      <trkpt lat="40.452817" lon="-5.280550">
        <ele>2310.0</ele>
        <time>2018-07-28T12:25:26Z</time>
      </trkpt>
      <trkpt lat="40.452750" lon="-5.280600">
        <ele>2310.0</ele>
        <time>2018-07-28T12:25:27Z</time>
      </trkpt>
      <trkpt lat="40.452683" lon="-5.280650">
        <ele>2309.0</ele>
        <time>2018-07-28T12:25:28Z</time>
      </trkpt>
      <trkpt lat="40.452633" lon="-5.280700">
        <ele>2308.0</ele>
        <time>2018-07-28T12:25:29Z</time>
      </trkpt>
      <trkpt lat="40.452583" lon="-5.280767">
        <ele>2308.0</ele>
        <time>2018-07-28T12:25:30Z</time>
      </trkpt>
      <trkpt lat="40.452550" lon="-5.280833">
        <ele>2307.0</ele>
        <time>2018-07-28T12:25:31Z</time>
      </trkpt>
      <trkpt lat="40.452483" lon="-5.280883">
        <ele>2306.0</ele>
        <time>2018-07-28T12:25:32Z</time>
      </trkpt>
      <trkpt lat="40.452433" lon="-5.280917">
        <ele>2306.0</ele>
        <time>2018-07-28T12:25:33Z</time>
      </trkpt>
      <trkpt lat="40.452383" lon="-5.280967">
        <ele>2305.0</ele>
        <time>2018-07-28T12:25:34Z</time>
      </trkpt>
      <trkpt lat="40.452317" lon="-5.281000">
        <ele>2304.0</ele>
        <time>2018-07-28T12:25:35Z</time>
      </trkpt>
      <trkpt lat="40.452250" lon="-5.281033">
        <ele>2304.0</ele>
        <time>2018-07-28T12:25:36Z</time>
      </trkpt>
      <trkpt lat="40.452183" lon="-5.281067">
        <ele>2303.0</ele>
        <time>2018-07-28T12:25:37Z</time>
      </trkpt>
      <trkpt lat="40.452133" lon="-5.281100">
        <ele>2303.0</ele>
        <time>2018-07-28T12:25:38Z</time>
      </trkpt>
      <trkpt lat="40.452067" lon="-5.281133">
        <ele>2303.0</ele>
        <time>2018-07-28T12:25:39Z</time>
      </trkpt>
      <trkpt lat="40.452017" lon="-5.281167">
        <ele>2303.0</ele>
        <time>2018-07-28T12:25:40Z</time>
      </trkpt>
      <trkpt lat="40.451967" lon="-5.281200">
        <ele>2303.0</ele>
        <time>2018-07-28T12:25:41Z</time>
      </trkpt>
      <trkpt lat="40.451900" lon="-5.281233">
        <ele>2302.0</ele>
        <time>2018-07-28T12:25:42Z</time>
      </trkpt>
      <trkpt lat="40.451850" lon="-5.281267">
        <ele>2302.0</ele>
        <time>2018-07-28T12:25:43Z</time>
      </trkpt>
      <trkpt lat="40.451783" lon="-5.281317">
        <ele>2302.0</ele>
        <time>2018-07-28T12:25:44Z</time>
      </trkpt>
      <trkpt lat="40.451733" lon="-5.281350">
        <ele>2301.0</ele>
        <time>2018-07-28T12:25:45Z</time>
      </trkpt>
      <trkpt lat="40.451683" lon="-5.281400">
        <ele>2301.0</ele>
        <time>2018-07-28T12:25:46Z</time>
      </trkpt>
      <trkpt lat="40.451633" lon="-5.281450">
        <ele>2301.0</ele>
        <time>2018-07-28T12:25:47Z</time>
      </trkpt>
      <trkpt lat="40.451583" lon="-5.281500">
        <ele>2301.0</ele>
        <time>2018-07-28T12:25:48Z</time>
      </trkpt>
      <trkpt lat="40.451533" lon="-5.281550">
        <ele>2300.0</ele>
        <time>2018-07-28T12:25:49Z</time>
      </trkpt>
      <trkpt lat="40.451483" lon="-5.281600">
        <ele>2300.0</ele>
        <time>2018-07-28T12:25:50Z</time>
      </trkpt>
      <trkpt lat="40.451450" lon="-5.281667">
        <ele>2299.0</ele>
        <time>2018-07-28T12:25:51Z</time>
      </trkpt>
      <trkpt lat="40.451417" lon="-5.281733">
        <ele>2299.0</ele>
        <time>2018-07-28T12:25:52Z</time>
      </trkpt>
      <trkpt lat="40.451383" lon="-5.281800">
        <ele>2299.0</ele>
        <time>2018-07-28T12:25:53Z</time>
      </trkpt>
      <trkpt lat="40.451367" lon="-5.281883">
        <ele>2299.0</ele>
        <time>2018-07-28T12:25:54Z</time>
      </trkpt>
      <trkpt lat="40.451350" lon="-5.281950">
        <ele>2298.0</ele>
        <time>2018-07-28T12:25:55Z</time>
      </trkpt>
      <trkpt lat="40.451333" lon="-5.282000">
        <ele>2298.0</ele>
        <time>2018-07-28T12:25:56Z</time>
      </trkpt>
      <trkpt lat="40.451317" lon="-5.282067">
        <ele>2296.0</ele>
        <time>2018-07-28T12:25:57Z</time>
      </trkpt>
      <trkpt lat="40.451283" lon="-5.282117">
        <ele>2295.0</ele>
        <time>2018-07-28T12:25:58Z</time>
      </trkpt>
      <trkpt lat="40.451250" lon="-5.282167">
        <ele>2293.0</ele>
        <time>2018-07-28T12:25:59Z</time>
      </trkpt>
      <trkpt lat="40.451200" lon="-5.282217">
        <ele>2292.0</ele>
        <time>2018-07-28T12:26:00Z</time>
      </trkpt>
      <trkpt lat="40.451167" lon="-5.282250">
        <ele>2291.0</ele>
        <time>2018-07-28T12:26:01Z</time>
      </trkpt>
      <trkpt lat="40.451117" lon="-5.282300">
        <ele>2290.0</ele>
        <time>2018-07-28T12:26:02Z</time>
      </trkpt>
      <trkpt lat="40.451067" lon="-5.282333">
        <ele>2288.0</ele>
        <time>2018-07-28T12:26:03Z</time>
      </trkpt>
      <trkpt lat="40.451017" lon="-5.282383">
        <ele>2286.0</ele>
        <time>2018-07-28T12:26:04Z</time>
      </trkpt>
      <trkpt lat="40.450967" lon="-5.282433">
        <ele>2283.0</ele>
        <time>2018-07-28T12:26:05Z</time>
      </trkpt>
      <trkpt lat="40.450917" lon="-5.282483">
        <ele>2282.0</ele>
        <time>2018-07-28T12:26:06Z</time>
      </trkpt>
      <trkpt lat="40.450867" lon="-5.282533">
        <ele>2281.0</ele>
        <time>2018-07-28T12:26:07Z</time>
      </trkpt>
      <trkpt lat="40.450800" lon="-5.282567">
        <ele>2279.0</ele>
        <time>2018-07-28T12:26:08Z</time>
      </trkpt>
      <trkpt lat="40.450750" lon="-5.282600">
        <ele>2278.0</ele>
        <time>2018-07-28T12:26:09Z</time>
      </trkpt>
      <trkpt lat="40.450700" lon="-5.282633">
        <ele>2276.0</ele>
        <time>2018-07-28T12:26:10Z</time>
      </trkpt>
      <trkpt lat="40.450633" lon="-5.282683">
        <ele>2275.0</ele>
        <time>2018-07-28T12:26:11Z</time>
      </trkpt>
      <trkpt lat="40.450583" lon="-5.282733">
        <ele>2273.0</ele>
        <time>2018-07-28T12:26:12Z</time>
      </trkpt>
      <trkpt lat="40.450533" lon="-5.282783">
        <ele>2271.0</ele>
        <time>2018-07-28T12:26:13Z</time>
      </trkpt>
      <trkpt lat="40.450483" lon="-5.282833">
        <ele>2270.0</ele>
        <time>2018-07-28T12:26:14Z</time>
      </trkpt>
      <trkpt lat="40.450433" lon="-5.282883">
        <ele>2268.0</ele>
        <time>2018-07-28T12:26:15Z</time>
      </trkpt>
      <trkpt lat="40.450400" lon="-5.282950">
        <ele>2267.0</ele>
        <time>2018-07-28T12:26:16Z</time>
      </trkpt>
      <trkpt lat="40.450367" lon="-5.283017">
        <ele>2265.0</ele>
        <time>2018-07-28T12:26:17Z</time>
      </trkpt>
      <trkpt lat="40.450317" lon="-5.283083">
        <ele>2263.0</ele>
        <time>2018-07-28T12:26:18Z</time>
      </trkpt>
      <trkpt lat="40.450267" lon="-5.283150">
        <ele>2262.0</ele>
        <time>2018-07-28T12:26:19Z</time>
      </trkpt>
      <trkpt lat="40.450233" lon="-5.283233">
        <ele>2260.0</ele>
        <time>2018-07-28T12:26:20Z</time>
      </trkpt>
      <trkpt lat="40.450200" lon="-5.283300">
        <ele>2259.0</ele>
        <time>2018-07-28T12:26:21Z</time>
      </trkpt>
      <trkpt lat="40.450150" lon="-5.283367">
        <ele>2258.0</ele>
        <time>2018-07-28T12:26:22Z</time>
      </trkpt>
      <trkpt lat="40.450117" lon="-5.283433">
        <ele>2257.0</ele>
        <time>2018-07-28T12:26:23Z</time>
      </trkpt>
      <trkpt lat="40.450067" lon="-5.283500">
        <ele>2255.0</ele>
        <time>2018-07-28T12:26:24Z</time>
      </trkpt>
      <trkpt lat="40.450017" lon="-5.283550">
        <ele>2254.0</ele>
        <time>2018-07-28T12:26:25Z</time>
      </trkpt>
      <trkpt lat="40.449967" lon="-5.283617">
        <ele>2252.0</ele>
        <time>2018-07-28T12:26:26Z</time>
      </trkpt>
      <trkpt lat="40.449917" lon="-5.283650">
        <ele>2251.0</ele>
        <time>2018-07-28T12:26:27Z</time>
      </trkpt>
      <trkpt lat="40.449867" lon="-5.283700">
        <ele>2249.0</ele>
        <time>2018-07-28T12:26:28Z</time>
      </trkpt>
      <trkpt lat="40.449800" lon="-5.283717">
        <ele>2247.0</ele>
        <time>2018-07-28T12:26:29Z</time>
      </trkpt>
      <trkpt lat="40.449733" lon="-5.283750">
        <ele>2245.0</ele>
        <time>2018-07-28T12:26:30Z</time>
      </trkpt>
      <trkpt lat="40.449667" lon="-5.283783">
        <ele>2244.0</ele>
        <time>2018-07-28T12:26:31Z</time>
      </trkpt>
      <trkpt lat="40.449600" lon="-5.283817">
        <ele>2242.0</ele>
        <time>2018-07-28T12:26:32Z</time>
      </trkpt>
      <trkpt lat="40.449533" lon="-5.283850">
        <ele>2241.0</ele>
        <time>2018-07-28T12:26:33Z</time>
      </trkpt>
      <trkpt lat="40.449467" lon="-5.283867">
        <ele>2240.0</ele>
        <time>2018-07-28T12:26:34Z</time>
      </trkpt>
      <trkpt lat="40.449383" lon="-5.283883">
        <ele>2238.0</ele>
        <time>2018-07-28T12:26:35Z</time>
      </trkpt>
      <trkpt lat="40.449317" lon="-5.283900">
        <ele>2237.0</ele>
        <time>2018-07-28T12:26:36Z</time>
      </trkpt>
      <trkpt lat="40.449250" lon="-5.283917">
        <ele>2235.0</ele>
        <time>2018-07-28T12:26:37Z</time>
      </trkpt>
      <trkpt lat="40.449183" lon="-5.283950">
        <ele>2233.0</ele>
        <time>2018-07-28T12:26:38Z</time>
      </trkpt>
      <trkpt lat="40.449117" lon="-5.284000">
        <ele>2231.0</ele>
        <time>2018-07-28T12:26:39Z</time>
      </trkpt>
      <trkpt lat="40.449050" lon="-5.284050">
        <ele>2229.0</ele>
        <time>2018-07-28T12:26:40Z</time>
      </trkpt>
      <trkpt lat="40.448983" lon="-5.284100">
        <ele>2228.0</ele>
        <time>2018-07-28T12:26:41Z</time>
      </trkpt>
      <trkpt lat="40.448933" lon="-5.284150">
        <ele>2226.0</ele>
        <time>2018-07-28T12:26:42Z</time>
      </trkpt>
      <trkpt lat="40.448883" lon="-5.284200">
        <ele>2225.0</ele>
        <time>2018-07-28T12:26:43Z</time>
      </trkpt>
      <trkpt lat="40.448833" lon="-5.284267">
        <ele>2222.0</ele>
        <time>2018-07-28T12:26:44Z</time>
      </trkpt>
      <trkpt lat="40.448800" lon="-5.284333">
        <ele>2220.0</ele>
        <time>2018-07-28T12:26:45Z</time>
      </trkpt>
      <trkpt lat="40.448733" lon="-5.284383">
        <ele>2217.0</ele>
        <time>2018-07-28T12:26:46Z</time>
      </trkpt>
      <trkpt lat="40.448667" lon="-5.284417">
        <ele>2215.0</ele>
        <time>2018-07-28T12:26:47Z</time>
      </trkpt>
      <trkpt lat="40.448600" lon="-5.284450">
        <ele>2212.0</ele>
        <time>2018-07-28T12:26:48Z</time>
      </trkpt>
      <trkpt lat="40.448517" lon="-5.284467">
        <ele>2211.0</ele>
        <time>2018-07-28T12:26:49Z</time>
      </trkpt>
      <trkpt lat="40.448450" lon="-5.284500">
        <ele>2209.0</ele>
        <time>2018-07-28T12:26:50Z</time>
      </trkpt>
      <trkpt lat="40.448383" lon="-5.284517">
        <ele>2207.0</ele>
        <time>2018-07-28T12:26:51Z</time>
      </trkpt>
      <trkpt lat="40.448317" lon="-5.284533">
        <ele>2205.0</ele>
        <time>2018-07-28T12:26:52Z</time>
      </trkpt>
      <trkpt lat="40.448233" lon="-5.284533">
        <ele>2203.0</ele>
        <time>2018-07-28T12:26:53Z</time>
      </trkpt>
      <trkpt lat="40.448150" lon="-5.284567">
        <ele>2202.0</ele>
        <time>2018-07-28T12:26:54Z</time>
      </trkpt>
      <trkpt lat="40.448083" lon="-5.284583">
        <ele>2200.0</ele>
        <time>2018-07-28T12:26:55Z</time>
      </trkpt>
      <trkpt lat="40.448033" lon="-5.284617">
        <ele>2199.0</ele>
        <time>2018-07-28T12:26:56Z</time>
      </trkpt>
      <trkpt lat="40.447983" lon="-5.284650">
        <ele>2198.0</ele>
        <time>2018-07-28T12:26:57Z</time>
      </trkpt>
      <trkpt lat="40.447933" lon="-5.284700">
        <ele>2196.0</ele>
        <time>2018-07-28T12:26:58Z</time>
      </trkpt>
      <trkpt lat="40.447867" lon="-5.284717">
        <ele>2194.0</ele>
        <time>2018-07-28T12:26:59Z</time>
      </trkpt>
      <trkpt lat="40.447800" lon="-5.284750">
        <ele>2192.0</ele>
        <time>2018-07-28T12:27:00Z</time>
      </trkpt>
      <trkpt lat="40.447733" lon="-5.284767">
        <ele>2190.0</ele>
        <time>2018-07-28T12:27:01Z</time>
      </trkpt>
      <trkpt lat="40.447650" lon="-5.284783">
        <ele>2189.0</ele>
        <time>2018-07-28T12:27:02Z</time>
      </trkpt>
      <trkpt lat="40.447583" lon="-5.284783">
        <ele>2188.0</ele>
        <time>2018-07-28T12:27:03Z</time>
      </trkpt>
      <trkpt lat="40.447517" lon="-5.284767">
        <ele>2188.0</ele>
        <time>2018-07-28T12:27:04Z</time>
      </trkpt>
      <trkpt lat="40.447433" lon="-5.284750">
        <ele>2187.0</ele>
        <time>2018-07-28T12:27:05Z</time>
      </trkpt>
      <trkpt lat="40.447350" lon="-5.284750">
        <ele>2185.0</ele>
        <time>2018-07-28T12:27:06Z</time>
      </trkpt>
      <trkpt lat="40.447250" lon="-5.284733">
        <ele>2184.0</ele>
        <time>2018-07-28T12:27:07Z</time>
      </trkpt>
      <trkpt lat="40.447150" lon="-5.284717">
        <ele>2182.0</ele>
        <time>2018-07-28T12:27:08Z</time>
      </trkpt>
      <trkpt lat="40.447050" lon="-5.284717">
        <ele>2182.0</ele>
        <time>2018-07-28T12:27:09Z</time>
      </trkpt>
      <trkpt lat="40.446950" lon="-5.284717">
        <ele>2182.0</ele>
        <time>2018-07-28T12:27:10Z</time>
      </trkpt>
      <trkpt lat="40.446867" lon="-5.284717">
        <ele>2184.0</ele>
        <time>2018-07-28T12:27:11Z</time>
      </trkpt>
      <trkpt lat="40.446783" lon="-5.284717">
        <ele>2185.0</ele>
        <time>2018-07-28T12:27:12Z</time>
      </trkpt>
      <trkpt lat="40.446700" lon="-5.284700">
        <ele>2185.0</ele>
        <time>2018-07-28T12:27:13Z</time>
      </trkpt>
      <trkpt lat="40.446617" lon="-5.284683">
        <ele>2185.0</ele>
        <time>2018-07-28T12:27:14Z</time>
      </trkpt>
      <trkpt lat="40.446517" lon="-5.284667">
        <ele>2185.0</ele>
        <time>2018-07-28T12:27:15Z</time>
      </trkpt>
      <trkpt lat="40.446433" lon="-5.284650">
        <ele>2187.0</ele>
        <time>2018-07-28T12:27:16Z</time>
      </trkpt>
      <trkpt lat="40.446333" lon="-5.284633">
        <ele>2187.0</ele>
        <time>2018-07-28T12:27:17Z</time>
      </trkpt>
      <trkpt lat="40.446233" lon="-5.284600">
        <ele>2187.0</ele>
        <time>2018-07-28T12:27:18Z</time>
      </trkpt>
      <trkpt lat="40.446133" lon="-5.284550">
        <ele>2188.0</ele>
        <time>2018-07-28T12:27:19Z</time>
      </trkpt>
      <trkpt lat="40.446017" lon="-5.284500">
        <ele>2189.0</ele>
        <time>2018-07-28T12:27:20Z</time>
      </trkpt>
      <trkpt lat="40.445917" lon="-5.284467">
        <ele>2190.0</ele>
        <time>2018-07-28T12:27:21Z</time>
      </trkpt>
      <trkpt lat="40.445800" lon="-5.284450">
        <ele>2193.0</ele>
        <time>2018-07-28T12:27:22Z</time>
      </trkpt>
      <trkpt lat="40.445683" lon="-5.284467">
        <ele>2195.0</ele>
        <time>2018-07-28T12:27:23Z</time>
      </trkpt>
      <trkpt lat="40.445583" lon="-5.284483">
        <ele>2198.0</ele>
        <time>2018-07-28T12:27:24Z</time>
      </trkpt>
      <trkpt lat="40.445467" lon="-5.284500">
        <ele>2202.0</ele>
        <time>2018-07-28T12:27:25Z</time>
      </trkpt>
      <trkpt lat="40.445367" lon="-5.284517">
        <ele>2205.0</ele>
        <time>2018-07-28T12:27:26Z</time>
      </trkpt>
      <trkpt lat="40.445283" lon="-5.284533">
        <ele>2208.0</ele>
        <time>2018-07-28T12:27:27Z</time>
      </trkpt>
      <trkpt lat="40.445217" lon="-5.284583">
        <ele>2209.0</ele>
        <time>2018-07-28T12:27:28Z</time>
      </trkpt>
      <trkpt lat="40.445150" lon="-5.284667">
        <ele>2209.0</ele>
        <time>2018-07-28T12:27:29Z</time>
      </trkpt>
      <trkpt lat="40.445133" lon="-5.284783">
        <ele>2210.0</ele>
        <time>2018-07-28T12:27:30Z</time>
      </trkpt>
      <trkpt lat="40.445117" lon="-5.284900">
        <ele>2211.0</ele>
        <time>2018-07-28T12:27:31Z</time>
      </trkpt>
      <trkpt lat="40.445150" lon="-5.285000">
        <ele>2213.0</ele>
        <time>2018-07-28T12:27:32Z</time>
      </trkpt>
      <trkpt lat="40.445217" lon="-5.285083">
        <ele>2215.0</ele>
        <time>2018-07-28T12:27:33Z</time>
      </trkpt>
      <trkpt lat="40.445317" lon="-5.285133">
        <ele>2217.0</ele>
        <time>2018-07-28T12:27:34Z</time>
      </trkpt>
      <trkpt lat="40.445417" lon="-5.285117">
        <ele>2219.0</ele>
        <time>2018-07-28T12:27:35Z</time>
      </trkpt>
      <trkpt lat="40.445483" lon="-5.285083">
        <ele>2221.0</ele>
        <time>2018-07-28T12:27:36Z</time>
      </trkpt>
      <trkpt lat="40.445550" lon="-5.285017">
        <ele>2222.0</ele>
        <time>2018-07-28T12:27:37Z</time>
      </trkpt>
      <trkpt lat="40.445617" lon="-5.284917">
        <ele>2223.0</ele>
        <time>2018-07-28T12:27:38Z</time>
      </trkpt>
      <trkpt lat="40.445667" lon="-5.284817">
        <ele>2223.0</ele>
        <time>2018-07-28T12:27:39Z</time>
      </trkpt>
      <trkpt lat="40.445717" lon="-5.284667">
        <ele>2223.0</ele>
        <time>2018-07-28T12:27:40Z</time>
      </trkpt>
      <trkpt lat="40.445750" lon="-5.284517">
        <ele>2225.0</ele>
        <time>2018-07-28T12:27:41Z</time>
      </trkpt>
      <trkpt lat="40.445767" lon="-5.284350">
        <ele>2227.0</ele>
        <time>2018-07-28T12:27:42Z</time>
      </trkpt>
      <trkpt lat="40.445750" lon="-5.284200">
        <ele>2229.0</ele>
        <time>2018-07-28T12:27:43Z</time>
      </trkpt>
      <trkpt lat="40.445717" lon="-5.284050">
        <ele>2231.0</ele>
        <time>2018-07-28T12:27:44Z</time>
      </trkpt>
      <trkpt lat="40.445650" lon="-5.283917">
        <ele>2233.0</ele>
        <time>2018-07-28T12:27:45Z</time>
      </trkpt>
      <trkpt lat="40.445567" lon="-5.283800">
        <ele>2235.0</ele>
        <time>2018-07-28T12:27:46Z</time>
      </trkpt>
      <trkpt lat="40.445467" lon="-5.283700">
        <ele>2237.0</ele>
        <time>2018-07-28T12:27:47Z</time>
      </trkpt>
      <trkpt lat="40.445350" lon="-5.283650">
        <ele>2239.0</ele>
        <time>2018-07-28T12:27:48Z</time>
      </trkpt>
      <trkpt lat="40.445250" lon="-5.283633">
        <ele>2242.0</ele>
        <time>2018-07-28T12:27:49Z</time>
      </trkpt>
      <trkpt lat="40.445167" lon="-5.283667">
        <ele>2243.0</ele>
        <time>2018-07-28T12:27:50Z</time>
      </trkpt>
      <trkpt lat="40.445083" lon="-5.283717">
        <ele>2244.0</ele>
        <time>2018-07-28T12:27:51Z</time>
      </trkpt>
      <trkpt lat="40.445017" lon="-5.283783">
        <ele>2245.0</ele>
        <time>2018-07-28T12:27:52Z</time>
      </trkpt>
      <trkpt lat="40.444967" lon="-5.283867">
        <ele>2246.0</ele>
        <time>2018-07-28T12:27:53Z</time>
      </trkpt>
      <trkpt lat="40.444950" lon="-5.283967">
        <ele>2246.0</ele>
        <time>2018-07-28T12:27:54Z</time>
      </trkpt>
      <trkpt lat="40.444950" lon="-5.284067">
        <ele>2246.0</ele>
        <time>2018-07-28T12:27:55Z</time>
      </trkpt>
      <trkpt lat="40.444983" lon="-5.284167">
        <ele>2244.0</ele>
        <time>2018-07-28T12:27:56Z</time>
      </trkpt>
      <trkpt lat="40.445033" lon="-5.284267">
        <ele>2244.0</ele>
        <time>2018-07-28T12:27:57Z</time>
      </trkpt>
      <trkpt lat="40.445100" lon="-5.284350">
        <ele>2244.0</ele>
        <time>2018-07-28T12:27:58Z</time>
      </trkpt>
      <trkpt lat="40.445167" lon="-5.284417">
        <ele>2245.0</ele>
        <time>2018-07-28T12:27:59Z</time>
      </trkpt>
      <trkpt lat="40.445250" lon="-5.284467">
        <ele>2247.0</ele>
        <time>2018-07-28T12:28:00Z</time>
      </trkpt>
      <trkpt lat="40.445333" lon="-5.284483">
        <ele>2247.0</ele>
        <time>2018-07-28T12:28:01Z</time>
      </trkpt>
      <trkpt lat="40.445417" lon="-5.284483">
        <ele>2247.0</ele>
        <time>2018-07-28T12:28:02Z</time>
      </trkpt>
      <trkpt lat="40.445500" lon="-5.284450">
        <ele>2247.0</ele>
        <time>2018-07-28T12:28:03Z</time>
      </trkpt>
      <trkpt lat="40.445600" lon="-5.284417">
        <ele>2248.0</ele>
        <time>2018-07-28T12:28:04Z</time>
      </trkpt>
      <trkpt lat="40.445700" lon="-5.284333">
        <ele>2249.0</ele>
        <time>2018-07-28T12:28:05Z</time>
      </trkpt>
      <trkpt lat="40.445800" lon="-5.284233">
        <ele>2250.0</ele>
        <time>2018-07-28T12:28:06Z</time>
      </trkpt>
      <trkpt lat="40.445867" lon="-5.284117">
        <ele>2252.0</ele>
        <time>2018-07-28T12:28:07Z</time>
      </trkpt>
      <trkpt lat="40.445917" lon="-5.283983">
        <ele>2254.0</ele>
        <time>2018-07-28T12:28:08Z</time>
      </trkpt>
      <trkpt lat="40.445933" lon="-5.283850">
        <ele>2255.0</ele>
        <time>2018-07-28T12:28:09Z</time>
      </trkpt>
      <trkpt lat="40.445950" lon="-5.283700">
        <ele>2255.0</ele>
        <time>2018-07-28T12:28:10Z</time>
      </trkpt>
      <trkpt lat="40.445967" lon="-5.283550">
        <ele>2256.0</ele>
        <time>2018-07-28T12:28:11Z</time>
      </trkpt>
      <trkpt lat="40.445967" lon="-5.283383">
        <ele>2257.0</ele>
        <time>2018-07-28T12:28:12Z</time>
      </trkpt>
      <trkpt lat="40.445933" lon="-5.283233">
        <ele>2258.0</ele>
        <time>2018-07-28T12:28:13Z</time>
      </trkpt>
      <trkpt lat="40.445883" lon="-5.283083">
        <ele>2259.0</ele>
        <time>2018-07-28T12:28:14Z</time>
      </trkpt>
      <trkpt lat="40.445800" lon="-5.282950">
        <ele>2261.0</ele>
        <time>2018-07-28T12:28:15Z</time>
      </trkpt>
      <trkpt lat="40.445717" lon="-5.282817">
        <ele>2264.0</ele>
        <time>2018-07-28T12:28:16Z</time>
      </trkpt>
      <trkpt lat="40.445633" lon="-5.282717">
        <ele>2268.0</ele>
        <time>2018-07-28T12:28:17Z</time>
      </trkpt>
      <trkpt lat="40.445550" lon="-5.282650">
        <ele>2271.0</ele>
        <time>2018-07-28T12:28:18Z</time>
      </trkpt>
      <trkpt lat="40.445467" lon="-5.282617">
        <ele>2272.0</ele>
        <time>2018-07-28T12:28:19Z</time>
      </trkpt>
      <trkpt lat="40.445383" lon="-5.282600">
        <ele>2272.0</ele>
        <time>2018-07-28T12:28:20Z</time>
      </trkpt>
      <trkpt lat="40.445300" lon="-5.282617">
        <ele>2272.0</ele>
        <time>2018-07-28T12:28:21Z</time>
      </trkpt>
      <trkpt lat="40.445217" lon="-5.282667">
        <ele>2271.0</ele>
        <time>2018-07-28T12:28:22Z</time>
      </trkpt>
      <trkpt lat="40.445167" lon="-5.282767">
        <ele>2271.0</ele>
        <time>2018-07-28T12:28:23Z</time>
      </trkpt>
      <trkpt lat="40.445133" lon="-5.282867">
        <ele>2271.0</ele>
        <time>2018-07-28T12:28:24Z</time>
      </trkpt>
      <trkpt lat="40.445150" lon="-5.283000">
        <ele>2270.0</ele>
        <time>2018-07-28T12:28:25Z</time>
      </trkpt>
      <trkpt lat="40.445183" lon="-5.283100">
        <ele>2271.0</ele>
        <time>2018-07-28T12:28:26Z</time>
      </trkpt>
      <trkpt lat="40.445233" lon="-5.283200">
        <ele>2272.0</ele>
        <time>2018-07-28T12:28:27Z</time>
      </trkpt>
      <trkpt lat="40.445283" lon="-5.283250">
        <ele>2273.0</ele>
        <time>2018-07-28T12:28:28Z</time>
      </trkpt>
      <trkpt lat="40.445350" lon="-5.283300">
        <ele>2274.0</ele>
        <time>2018-07-28T12:28:29Z</time>
      </trkpt>
      <trkpt lat="40.445433" lon="-5.283333">
        <ele>2274.0</ele>
        <time>2018-07-28T12:28:30Z</time>
      </trkpt>
      <trkpt lat="40.445533" lon="-5.283333">
        <ele>2274.0</ele>
        <time>2018-07-28T12:28:31Z</time>
      </trkpt>
      <trkpt lat="40.445633" lon="-5.283300">
        <ele>2274.0</ele>
        <time>2018-07-28T12:28:32Z</time>
      </trkpt>
      <trkpt lat="40.445750" lon="-5.283267">
        <ele>2276.0</ele>
        <time>2018-07-28T12:28:33Z</time>
      </trkpt>
      <trkpt lat="40.445833" lon="-5.283183">
        <ele>2277.0</ele>
        <time>2018-07-28T12:28:34Z</time>
      </trkpt>
      <trkpt lat="40.445917" lon="-5.283100">
        <ele>2278.0</ele>
        <time>2018-07-28T12:28:35Z</time>
      </trkpt>
      <trkpt lat="40.446000" lon="-5.282967">
        <ele>2278.0</ele>
        <time>2018-07-28T12:28:36Z</time>
      </trkpt>
      <trkpt lat="40.446050" lon="-5.282833">
        <ele>2279.0</ele>
        <time>2018-07-28T12:28:37Z</time>
      </trkpt>
      <trkpt lat="40.446083" lon="-5.282683">
        <ele>2282.0</ele>
        <time>2018-07-28T12:28:38Z</time>
      </trkpt>
      <trkpt lat="40.446117" lon="-5.282533">
        <ele>2284.0</ele>
        <time>2018-07-28T12:28:39Z</time>
      </trkpt>
      <trkpt lat="40.446117" lon="-5.282383">
        <ele>2288.0</ele>
        <time>2018-07-28T12:28:40Z</time>
      </trkpt>
      <trkpt lat="40.446100" lon="-5.282250">
        <ele>2292.0</ele>
        <time>2018-07-28T12:28:41Z</time>
      </trkpt>
      <trkpt lat="40.446083" lon="-5.282117">
        <ele>2296.0</ele>
        <time>2018-07-28T12:28:42Z</time>
      </trkpt>
      <trkpt lat="40.446067" lon="-5.281983">
        <ele>2299.0</ele>
        <time>2018-07-28T12:28:43Z</time>
      </trkpt>
      <trkpt lat="40.446067" lon="-5.281850">
        <ele>2301.0</ele>
        <time>2018-07-28T12:28:44Z</time>
      </trkpt>
      <trkpt lat="40.446067" lon="-5.281700">
        <ele>2302.0</ele>
        <time>2018-07-28T12:28:45Z</time>
      </trkpt>
      <trkpt lat="40.446067" lon="-5.281550">
        <ele>2304.0</ele>
        <time>2018-07-28T12:28:46Z</time>
      </trkpt>
      <trkpt lat="40.446050" lon="-5.281417">
        <ele>2306.0</ele>
        <time>2018-07-28T12:28:47Z</time>
      </trkpt>
      <trkpt lat="40.446000" lon="-5.281283">
        <ele>2307.0</ele>
        <time>2018-07-28T12:28:48Z</time>
      </trkpt>
      <trkpt lat="40.445933" lon="-5.281183">
        <ele>2308.0</ele>
        <time>2018-07-28T12:28:49Z</time>
      </trkpt>
      <trkpt lat="40.445850" lon="-5.281117">
        <ele>2309.0</ele>
        <time>2018-07-28T12:28:50Z</time>
      </trkpt>
      <trkpt lat="40.445750" lon="-5.281067">
        <ele>2310.0</ele>
        <time>2018-07-28T12:28:51Z</time>
      </trkpt>
      <trkpt lat="40.445667" lon="-5.281033">
        <ele>2311.0</ele>
        <time>2018-07-28T12:28:52Z</time>
      </trkpt>
      <trkpt lat="40.445583" lon="-5.281017">
        <ele>2313.0</ele>
        <time>2018-07-28T12:28:53Z</time>
      </trkpt>
      <trkpt lat="40.445500" lon="-5.281050">
        <ele>2313.0</ele>
        <time>2018-07-28T12:28:54Z</time>
      </trkpt>
      <trkpt lat="40.445433" lon="-5.281083">
        <ele>2314.0</ele>
        <time>2018-07-28T12:28:55Z</time>
      </trkpt>
      <trkpt lat="40.445383" lon="-5.281133">
        <ele>2315.0</ele>
        <time>2018-07-28T12:28:56Z</time>
      </trkpt>
      <trkpt lat="40.445333" lon="-5.281183">
        <ele>2315.0</ele>
        <time>2018-07-28T12:28:57Z</time>
      </trkpt>
      <trkpt lat="40.445317" lon="-5.281250">
        <ele>2314.0</ele>
        <time>2018-07-28T12:28:58Z</time>
      </trkpt>
      <trkpt lat="40.445300" lon="-5.281333">
        <ele>2313.0</ele>
        <time>2018-07-28T12:28:59Z</time>
      </trkpt>
      <trkpt lat="40.445300" lon="-5.281417">
        <ele>2310.0</ele>
        <time>2018-07-28T12:29:00Z</time>
      </trkpt>
      <trkpt lat="40.445317" lon="-5.281517">
        <ele>2308.0</ele>
        <time>2018-07-28T12:29:01Z</time>
      </trkpt>
      <trkpt lat="40.445333" lon="-5.281617">
        <ele>2306.0</ele>
        <time>2018-07-28T12:29:02Z</time>
      </trkpt>
      <trkpt lat="40.445367" lon="-5.281733">
        <ele>2305.0</ele>
        <time>2018-07-28T12:29:03Z</time>
      </trkpt>
      <trkpt lat="40.445417" lon="-5.281833">
        <ele>2304.0</ele>
        <time>2018-07-28T12:29:04Z</time>
      </trkpt>
      <trkpt lat="40.445483" lon="-5.281933">
        <ele>2304.0</ele>
        <time>2018-07-28T12:29:05Z</time>
      </trkpt>
      <trkpt lat="40.445583" lon="-5.281983">
        <ele>2303.0</ele>
        <time>2018-07-28T12:29:06Z</time>
      </trkpt>
      <trkpt lat="40.445683" lon="-5.282017">
        <ele>2302.0</ele>
        <time>2018-07-28T12:29:07Z</time>
      </trkpt>
      <trkpt lat="40.445783" lon="-5.282017">
        <ele>2301.0</ele>
        <time>2018-07-28T12:29:08Z</time>
      </trkpt>
      <trkpt lat="40.445900" lon="-5.281983">
        <ele>2301.0</ele>
        <time>2018-07-28T12:29:09Z</time>
      </trkpt>
      <trkpt lat="40.446000" lon="-5.281933">
        <ele>2301.0</ele>
        <time>2018-07-28T12:29:10Z</time>
      </trkpt>
      <trkpt lat="40.446083" lon="-5.281850">
        <ele>2301.0</ele>
        <time>2018-07-28T12:29:11Z</time>
      </trkpt>
      <trkpt lat="40.446167" lon="-5.281750">
        <ele>2300.0</ele>
        <time>2018-07-28T12:29:12Z</time>
      </trkpt>
      <trkpt lat="40.446233" lon="-5.281633">
        <ele>2298.0</ele>
        <time>2018-07-28T12:29:13Z</time>
      </trkpt>
      <trkpt lat="40.446300" lon="-5.281483">
        <ele>2297.0</ele>
        <time>2018-07-28T12:29:14Z</time>
      </trkpt>
      <trkpt lat="40.446333" lon="-5.281317">
        <ele>2297.0</ele>
        <time>2018-07-28T12:29:15Z</time>
      </trkpt>
      <trkpt lat="40.446350" lon="-5.281150">
        <ele>2298.0</ele>
        <time>2018-07-28T12:29:16Z</time>
      </trkpt>
      <trkpt lat="40.446350" lon="-5.280983">
        <ele>2300.0</ele>
        <time>2018-07-28T12:29:17Z</time>
      </trkpt>
      <trkpt lat="40.446350" lon="-5.280833">
        <ele>2303.0</ele>
        <time>2018-07-28T12:29:18Z</time>
      </trkpt>
      <trkpt lat="40.446333" lon="-5.280700">
        <ele>2305.0</ele>
        <time>2018-07-28T12:29:19Z</time>
      </trkpt>
      <trkpt lat="40.446300" lon="-5.280567">
        <ele>2307.0</ele>
        <time>2018-07-28T12:29:20Z</time>
      </trkpt>
      <trkpt lat="40.446283" lon="-5.280433">
        <ele>2309.0</ele>
        <time>2018-07-28T12:29:21Z</time>
      </trkpt>
      <trkpt lat="40.446250" lon="-5.280300">
        <ele>2311.0</ele>
        <time>2018-07-28T12:29:22Z</time>
      </trkpt>
      <trkpt lat="40.446233" lon="-5.280167">
        <ele>2313.0</ele>
        <time>2018-07-28T12:29:23Z</time>
      </trkpt>
      <trkpt lat="40.446217" lon="-5.280033">
        <ele>2315.0</ele>
        <time>2018-07-28T12:29:24Z</time>
      </trkpt>
      <trkpt lat="40.446217" lon="-5.279900">
        <ele>2316.0</ele>
        <time>2018-07-28T12:29:25Z</time>
      </trkpt>
      <trkpt lat="40.446200" lon="-5.279750">
        <ele>2316.0</ele>
        <time>2018-07-28T12:29:26Z</time>
      </trkpt>
      <trkpt lat="40.446167" lon="-5.279600">
        <ele>2316.0</ele>
        <time>2018-07-28T12:29:27Z</time>
      </trkpt>
      <trkpt lat="40.446100" lon="-5.279467">
        <ele>2317.0</ele>
        <time>2018-07-28T12:29:28Z</time>
      </trkpt>
      <trkpt lat="40.446017" lon="-5.279333">
        <ele>2318.0</ele>
        <time>2018-07-28T12:29:29Z</time>
      </trkpt>
      <trkpt lat="40.445917" lon="-5.279217">
        <ele>2321.0</ele>
        <time>2018-07-28T12:29:30Z</time>
      </trkpt>
      <trkpt lat="40.445800" lon="-5.279117">
        <ele>2325.0</ele>
        <time>2018-07-28T12:29:31Z</time>
      </trkpt>
      <trkpt lat="40.445700" lon="-5.279033">
        <ele>2328.0</ele>
        <time>2018-07-28T12:29:32Z</time>
      </trkpt>
      <trkpt lat="40.445600" lon="-5.278933">
        <ele>2331.0</ele>
        <time>2018-07-28T12:29:33Z</time>
      </trkpt>
      <trkpt lat="40.445517" lon="-5.278833">
        <ele>2333.0</ele>
        <time>2018-07-28T12:29:34Z</time>
      </trkpt>
      <trkpt lat="40.445417" lon="-5.278733">
        <ele>2333.0</ele>
        <time>2018-07-28T12:29:35Z</time>
      </trkpt>
      <trkpt lat="40.445317" lon="-5.278633">
        <ele>2332.0</ele>
        <time>2018-07-28T12:29:36Z</time>
      </trkpt>
      <trkpt lat="40.445217" lon="-5.278550">
        <ele>2332.0</ele>
        <time>2018-07-28T12:29:37Z</time>
      </trkpt>
      <trkpt lat="40.445100" lon="-5.278500">
        <ele>2332.0</ele>
        <time>2018-07-28T12:29:38Z</time>
      </trkpt>
      <trkpt lat="40.445017" lon="-5.278500">
        <ele>2331.0</ele>
        <time>2018-07-28T12:29:39Z</time>
      </trkpt>
      <trkpt lat="40.444933" lon="-5.278517">
        <ele>2330.0</ele>
        <time>2018-07-28T12:29:40Z</time>
      </trkpt>
      <trkpt lat="40.444883" lon="-5.278567">
        <ele>2327.0</ele>
        <time>2018-07-28T12:29:41Z</time>
      </trkpt>
      <trkpt lat="40.444867" lon="-5.278633">
        <ele>2323.0</ele>
        <time>2018-07-28T12:29:42Z</time>
      </trkpt>
      <trkpt lat="40.444867" lon="-5.278717">
        <ele>2320.0</ele>
        <time>2018-07-28T12:29:43Z</time>
      </trkpt>
      <trkpt lat="40.444917" lon="-5.278817">
        <ele>2316.0</ele>
        <time>2018-07-28T12:29:44Z</time>
      </trkpt>
      <trkpt lat="40.444983" lon="-5.278900">
        <ele>2315.0</ele>
        <time>2018-07-28T12:29:45Z</time>
      </trkpt>
      <trkpt lat="40.445067" lon="-5.278967">
        <ele>2315.0</ele>
        <time>2018-07-28T12:29:46Z</time>
      </trkpt>
      <trkpt lat="40.445117" lon="-5.279033">
        <ele>2317.0</ele>
        <time>2018-07-28T12:29:47Z</time>
      </trkpt>
      <trkpt lat="40.445167" lon="-5.279083">
        <ele>2318.0</ele>
        <time>2018-07-28T12:29:48Z</time>
      </trkpt>
      <trkpt lat="40.445233" lon="-5.279133">
        <ele>2318.0</ele>
        <time>2018-07-28T12:29:49Z</time>
      </trkpt>
      <trkpt lat="40.445317" lon="-5.279167">
        <ele>2317.0</ele>
        <time>2018-07-28T12:29:50Z</time>
      </trkpt>
      <trkpt lat="40.445400" lon="-5.279217">
        <ele>2315.0</ele>
        <time>2018-07-28T12:29:51Z</time>
      </trkpt>
      <trkpt lat="40.445500" lon="-5.279250">
        <ele>2315.0</ele>
        <time>2018-07-28T12:29:52Z</time>
      </trkpt>
      <trkpt lat="40.445600" lon="-5.279283">
        <ele>2317.0</ele>
        <time>2018-07-28T12:29:53Z</time>
      </trkpt>
      <trkpt lat="40.445683" lon="-5.279300">
        <ele>2318.0</ele>
        <time>2018-07-28T12:29:54Z</time>
      </trkpt>
      <trkpt lat="40.445750" lon="-5.279300">
        <ele>2318.0</ele>
        <time>2018-07-28T12:29:55Z</time>
      </trkpt>
      <trkpt lat="40.445833" lon="-5.279317">
        <ele>2317.0</ele>
        <time>2018-07-28T12:29:56Z</time>
      </trkpt>
      <trkpt lat="40.445933" lon="-5.279317">
        <ele>2314.0</ele>
        <time>2018-07-28T12:29:57Z</time>
      </trkpt>
      <trkpt lat="40.446050" lon="-5.279283">
        <ele>2312.0</ele>
        <time>2018-07-28T12:29:58Z</time>
      </trkpt>
      <trkpt lat="40.446183" lon="-5.279217">
        <ele>2310.0</ele>
        <time>2018-07-28T12:29:59Z</time>
      </trkpt>
      <trkpt lat="40.446317" lon="-5.279100">
        <ele>2310.0</ele>
        <time>2018-07-28T12:30:00Z</time>
      </trkpt>
      <trkpt lat="40.446417" lon="-5.278983">
        <ele>2311.0</ele>
        <time>2018-07-28T12:30:01Z</time>
      </trkpt>
      <trkpt lat="40.446500" lon="-5.278850">
        <ele>2313.0</ele>
        <time>2018-07-28T12:30:02Z</time>
      </trkpt>
      <trkpt lat="40.446567" lon="-5.278700">
        <ele>2314.0</ele>
        <time>2018-07-28T12:30:03Z</time>
      </trkpt>
      <trkpt lat="40.446600" lon="-5.278533">
        <ele>2314.0</ele>
        <time>2018-07-28T12:30:04Z</time>
      </trkpt>
      <trkpt lat="40.446600" lon="-5.278350">
        <ele>2314.0</ele>
        <time>2018-07-28T12:30:05Z</time>
      </trkpt>
      <trkpt lat="40.446600" lon="-5.278167">
        <ele>2315.0</ele>
        <time>2018-07-28T12:30:06Z</time>
      </trkpt>
      <trkpt lat="40.446550" lon="-5.278000">
        <ele>2318.0</ele>
        <time>2018-07-28T12:30:07Z</time>
      </trkpt>
      <trkpt lat="40.446500" lon="-5.277850">
        <ele>2320.0</ele>
        <time>2018-07-28T12:30:08Z</time>
      </trkpt>
      <trkpt lat="40.446417" lon="-5.277750">
        <ele>2321.0</ele>
        <time>2018-07-28T12:30:09Z</time>
      </trkpt>
      <trkpt lat="40.446333" lon="-5.277683">
        <ele>2322.0</ele>
        <time>2018-07-28T12:30:10Z</time>
      </trkpt>
      <trkpt lat="40.446233" lon="-5.277667">
        <ele>2324.0</ele>
        <time>2018-07-28T12:30:11Z</time>
      </trkpt>
      <trkpt lat="40.446133" lon="-5.277700">
        <ele>2324.0</ele>
        <time>2018-07-28T12:30:12Z</time>
      </trkpt>
      <trkpt lat="40.446033" lon="-5.277767">
        <ele>2324.0</ele>
        <time>2018-07-28T12:30:13Z</time>
      </trkpt>
      <trkpt lat="40.445950" lon="-5.277850">
        <ele>2325.0</ele>
        <time>2018-07-28T12:30:14Z</time>
      </trkpt>
      <trkpt lat="40.445883" lon="-5.277967">
        <ele>2327.0</ele>
        <time>2018-07-28T12:30:15Z</time>
      </trkpt>
      <trkpt lat="40.445867" lon="-5.278100">
        <ele>2330.0</ele>
        <time>2018-07-28T12:30:16Z</time>
      </trkpt>
      <trkpt lat="40.445900" lon="-5.278200">
        <ele>2332.0</ele>
        <time>2018-07-28T12:30:17Z</time>
      </trkpt>
      <trkpt lat="40.445950" lon="-5.278250">
        <ele>2335.0</ele>
        <time>2018-07-28T12:30:18Z</time>
      </trkpt>
      <trkpt lat="40.446033" lon="-5.278300">
        <ele>2337.0</ele>
        <time>2018-07-28T12:30:19Z</time>
      </trkpt>
      <trkpt lat="40.446117" lon="-5.278317">
        <ele>2337.0</ele>
        <time>2018-07-28T12:30:20Z</time>
      </trkpt>
      <trkpt lat="40.446217" lon="-5.278317">
        <ele>2336.0</ele>
        <time>2018-07-28T12:30:21Z</time>
      </trkpt>
      <trkpt lat="40.446317" lon="-5.278300">
        <ele>2335.0</ele>
        <time>2018-07-28T12:30:22Z</time>
      </trkpt>
      <trkpt lat="40.446433" lon="-5.278267">
        <ele>2333.0</ele>
        <time>2018-07-28T12:30:23Z</time>
      </trkpt>
      <trkpt lat="40.446550" lon="-5.278183">
        <ele>2333.0</ele>
        <time>2018-07-28T12:30:24Z</time>
      </trkpt>
      <trkpt lat="40.446667" lon="-5.278083">
        <ele>2332.0</ele>
        <time>2018-07-28T12:30:25Z</time>
      </trkpt>
      <trkpt lat="40.446767" lon="-5.277950">
        <ele>2333.0</ele>
        <time>2018-07-28T12:30:26Z</time>
      </trkpt>
      <trkpt lat="40.446833" lon="-5.277783">
        <ele>2333.0</ele>
        <time>2018-07-28T12:30:27Z</time>
      </trkpt>
      <trkpt lat="40.446867" lon="-5.277617">
        <ele>2334.0</ele>
        <time>2018-07-28T12:30:28Z</time>
      </trkpt>
      <trkpt lat="40.446883" lon="-5.277433">
        <ele>2335.0</ele>
        <time>2018-07-28T12:30:29Z</time>
      </trkpt>
      <trkpt lat="40.446867" lon="-5.277267">
        <ele>2336.0</ele>
        <time>2018-07-28T12:30:30Z</time>
      </trkpt>
      <trkpt lat="40.446817" lon="-5.277100">
        <ele>2337.0</ele>
        <time>2018-07-28T12:30:31Z</time>
      </trkpt>
      <trkpt lat="40.446750" lon="-5.276967">
        <ele>2338.0</ele>
        <time>2018-07-28T12:30:32Z</time>
      </trkpt>
      <trkpt lat="40.446667" lon="-5.276850">
        <ele>2339.0</ele>
        <time>2018-07-28T12:30:33Z</time>
      </trkpt>
      <trkpt lat="40.446583" lon="-5.276767">
        <ele>2341.0</ele>
        <time>2018-07-28T12:30:34Z</time>
      </trkpt>
      <trkpt lat="40.446483" lon="-5.276717">
        <ele>2341.0</ele>
        <time>2018-07-28T12:30:35Z</time>
      </trkpt>
      <trkpt lat="40.446367" lon="-5.276700">
        <ele>2342.0</ele>
        <time>2018-07-28T12:30:36Z</time>
      </trkpt>
      <trkpt lat="40.446267" lon="-5.276683">
        <ele>2344.0</ele>
        <time>2018-07-28T12:30:37Z</time>
      </trkpt>
      <trkpt lat="40.446167" lon="-5.276717">
        <ele>2346.0</ele>
        <time>2018-07-28T12:30:38Z</time>
      </trkpt>
      <trkpt lat="40.446067" lon="-5.276750">
        <ele>2348.0</ele>
        <time>2018-07-28T12:30:39Z</time>
      </trkpt>
      <trkpt lat="40.445967" lon="-5.276817">
        <ele>2348.0</ele>
        <time>2018-07-28T12:30:40Z</time>
      </trkpt>
      <trkpt lat="40.445883" lon="-5.276900">
        <ele>2349.0</ele>
        <time>2018-07-28T12:30:41Z</time>
      </trkpt>
      <trkpt lat="40.445833" lon="-5.276983">
        <ele>2351.0</ele>
        <time>2018-07-28T12:30:42Z</time>
      </trkpt>
      <trkpt lat="40.445817" lon="-5.277083">
        <ele>2352.0</ele>
        <time>2018-07-28T12:30:43Z</time>
      </trkpt>
      <trkpt lat="40.445817" lon="-5.277167">
        <ele>2352.0</ele>
        <time>2018-07-28T12:30:44Z</time>
      </trkpt>
      <trkpt lat="40.445833" lon="-5.277250">
        <ele>2352.0</ele>
        <time>2018-07-28T12:30:45Z</time>
      </trkpt>
      <trkpt lat="40.445883" lon="-5.277333">
        <ele>2350.0</ele>
        <time>2018-07-28T12:30:46Z</time>
      </trkpt>
      <trkpt lat="40.445950" lon="-5.277400">
        <ele>2348.0</ele>
        <time>2018-07-28T12:30:47Z</time>
      </trkpt>
      <trkpt lat="40.446050" lon="-5.277450">
        <ele>2346.0</ele>
        <time>2018-07-28T12:30:48Z</time>
      </trkpt>
      <trkpt lat="40.446167" lon="-5.277450">
        <ele>2343.0</ele>
        <time>2018-07-28T12:30:49Z</time>
      </trkpt>
      <trkpt lat="40.446283" lon="-5.277400">
        <ele>2342.0</ele>
        <time>2018-07-28T12:30:50Z</time>
      </trkpt>
      <trkpt lat="40.446383" lon="-5.277317">
        <ele>2342.0</ele>
        <time>2018-07-28T12:30:51Z</time>
      </trkpt>
      <trkpt lat="40.446467" lon="-5.277233">
        <ele>2342.0</ele>
        <time>2018-07-28T12:30:52Z</time>
      </trkpt>
      <trkpt lat="40.446567" lon="-5.277117">
        <ele>2341.0</ele>
        <time>2018-07-28T12:30:53Z</time>
      </trkpt>
      <trkpt lat="40.446650" lon="-5.276983">
        <ele>2341.0</ele>
        <time>2018-07-28T12:30:54Z</time>
      </trkpt>
      <trkpt lat="40.446733" lon="-5.276833">
        <ele>2342.0</ele>
        <time>2018-07-28T12:30:55Z</time>
      </trkpt>
      <trkpt lat="40.446783" lon="-5.276667">
        <ele>2343.0</ele>
        <time>2018-07-28T12:30:56Z</time>
      </trkpt>
      <trkpt lat="40.446817" lon="-5.276500">
        <ele>2344.0</ele>
        <time>2018-07-28T12:30:57Z</time>
      </trkpt>
      <trkpt lat="40.446833" lon="-5.276350">
        <ele>2345.0</ele>
        <time>2018-07-28T12:30:58Z</time>
      </trkpt>
      <trkpt lat="40.446817" lon="-5.276200">
        <ele>2346.0</ele>
        <time>2018-07-28T12:30:59Z</time>
      </trkpt>
      <trkpt lat="40.446800" lon="-5.276033">
        <ele>2345.0</ele>
        <time>2018-07-28T12:31:00Z</time>
      </trkpt>
      <trkpt lat="40.446767" lon="-5.275883">
        <ele>2344.0</ele>
        <time>2018-07-28T12:31:01Z</time>
      </trkpt>
      <trkpt lat="40.446717" lon="-5.275733">
        <ele>2344.0</ele>
        <time>2018-07-28T12:31:02Z</time>
      </trkpt>
      <trkpt lat="40.446633" lon="-5.275600">
        <ele>2344.0</ele>
        <time>2018-07-28T12:31:03Z</time>
      </trkpt>
      <trkpt lat="40.446550" lon="-5.275500">
        <ele>2345.0</ele>
        <time>2018-07-28T12:31:04Z</time>
      </trkpt>
      <trkpt lat="40.446450" lon="-5.275433">
        <ele>2345.0</ele>
        <time>2018-07-28T12:31:05Z</time>
      </trkpt>
      <trkpt lat="40.446350" lon="-5.275433">
        <ele>2345.0</ele>
        <time>2018-07-28T12:31:06Z</time>
      </trkpt>
      <trkpt lat="40.446250" lon="-5.275450">
        <ele>2346.0</ele>
        <time>2018-07-28T12:31:07Z</time>
      </trkpt>
      <trkpt lat="40.446150" lon="-5.275467">
        <ele>2348.0</ele>
        <time>2018-07-28T12:31:08Z</time>
      </trkpt>
      <trkpt lat="40.446067" lon="-5.275483">
        <ele>2350.0</ele>
        <time>2018-07-28T12:31:09Z</time>
      </trkpt>
      <trkpt lat="40.445983" lon="-5.275500">
        <ele>2351.0</ele>
        <time>2018-07-28T12:31:10Z</time>
      </trkpt>
      <trkpt lat="40.445917" lon="-5.275567">
        <ele>2352.0</ele>
        <time>2018-07-28T12:31:11Z</time>
      </trkpt>
      <trkpt lat="40.445883" lon="-5.275633">
        <ele>2352.0</ele>
        <time>2018-07-28T12:31:12Z</time>
      </trkpt>
      <trkpt lat="40.445833" lon="-5.275683">
        <ele>2352.0</ele>
        <time>2018-07-28T12:31:13Z</time>
      </trkpt>
      <trkpt lat="40.445800" lon="-5.275733">
        <ele>2352.0</ele>
        <time>2018-07-28T12:31:14Z</time>
      </trkpt>
      <trkpt lat="40.445767" lon="-5.275800">
        <ele>2350.0</ele>
        <time>2018-07-28T12:31:15Z</time>
      </trkpt>
      <trkpt lat="40.445717" lon="-5.275867">
        <ele>2347.0</ele>
        <time>2018-07-28T12:31:16Z</time>
      </trkpt>
      <trkpt lat="40.445667" lon="-5.275933">
        <ele>2343.0</ele>
        <time>2018-07-28T12:31:17Z</time>
      </trkpt>
      <trkpt lat="40.445600" lon="-5.276017">
        <ele>2340.0</ele>
        <time>2018-07-28T12:31:18Z</time>
      </trkpt>
      <trkpt lat="40.445550" lon="-5.276117">
        <ele>2337.0</ele>
        <time>2018-07-28T12:31:19Z</time>
      </trkpt>
      <trkpt lat="40.445500" lon="-5.276200">
        <ele>2336.0</ele>
        <time>2018-07-28T12:31:20Z</time>
      </trkpt>
      <trkpt lat="40.445450" lon="-5.276300">
        <ele>2334.0</ele>
        <time>2018-07-28T12:31:21Z</time>
      </trkpt>
      <trkpt lat="40.445400" lon="-5.276400">
        <ele>2333.0</ele>
        <time>2018-07-28T12:31:22Z</time>
      </trkpt>
      <trkpt lat="40.445350" lon="-5.276500">
        <ele>2331.0</ele>
        <time>2018-07-28T12:31:23Z</time>
      </trkpt>
      <trkpt lat="40.445283" lon="-5.276583">
        <ele>2330.0</ele>
        <time>2018-07-28T12:31:24Z</time>
      </trkpt>
      <trkpt lat="40.445217" lon="-5.276650">
        <ele>2330.0</ele>
        <time>2018-07-28T12:31:25Z</time>
      </trkpt>
      <trkpt lat="40.445167" lon="-5.276700">
        <ele>2331.0</ele>
        <time>2018-07-28T12:31:26Z</time>
      </trkpt>
      <trkpt lat="40.445100" lon="-5.276750">
        <ele>2331.0</ele>
        <time>2018-07-28T12:31:27Z</time>
      </trkpt>
      <trkpt lat="40.445067" lon="-5.276800">
        <ele>2330.0</ele>
        <time>2018-07-28T12:31:28Z</time>
      </trkpt>
      <trkpt lat="40.445033" lon="-5.276867">
        <ele>2330.0</ele>
        <time>2018-07-28T12:31:29Z</time>
      </trkpt>
      <trkpt lat="40.445000" lon="-5.276950">
        <ele>2328.0</ele>
        <time>2018-07-28T12:31:30Z</time>
      </trkpt>
      <trkpt lat="40.444950" lon="-5.277033">
        <ele>2326.0</ele>
        <time>2018-07-28T12:31:31Z</time>
      </trkpt>
      <trkpt lat="40.444917" lon="-5.277117">
        <ele>2325.0</ele>
        <time>2018-07-28T12:31:32Z</time>
      </trkpt>
      <trkpt lat="40.444850" lon="-5.277183">
        <ele>2324.0</ele>
        <time>2018-07-28T12:31:33Z</time>
      </trkpt>
      <trkpt lat="40.444800" lon="-5.277267">
        <ele>2323.0</ele>
        <time>2018-07-28T12:31:34Z</time>
      </trkpt>
      <trkpt lat="40.444733" lon="-5.277333">
        <ele>2322.0</ele>
        <time>2018-07-28T12:31:35Z</time>
      </trkpt>
      <trkpt lat="40.444683" lon="-5.277383">
        <ele>2322.0</ele>
        <time>2018-07-28T12:31:36Z</time>
      </trkpt>
      <trkpt lat="40.444617" lon="-5.277450">
        <ele>2323.0</ele>
        <time>2018-07-28T12:31:37Z</time>
      </trkpt>
      <trkpt lat="40.444550" lon="-5.277517">
        <ele>2323.0</ele>
        <time>2018-07-28T12:31:38Z</time>
      </trkpt>
      <trkpt lat="40.444483" lon="-5.277567">
        <ele>2325.0</ele>
        <time>2018-07-28T12:31:39Z</time>
      </trkpt>
      <trkpt lat="40.444417" lon="-5.277617">
        <ele>2327.0</ele>
        <time>2018-07-28T12:31:40Z</time>
      </trkpt>
      <trkpt lat="40.444333" lon="-5.277650">
        <ele>2328.0</ele>
        <time>2018-07-28T12:31:41Z</time>
      </trkpt>
      <trkpt lat="40.444267" lon="-5.277683">
        <ele>2329.0</ele>
        <time>2018-07-28T12:31:42Z</time>
      </trkpt>
      <trkpt lat="40.444217" lon="-5.277717">
        <ele>2328.0</ele>
        <time>2018-07-28T12:31:43Z</time>
      </trkpt>
      <trkpt lat="40.444167" lon="-5.277767">
        <ele>2326.0</ele>
        <time>2018-07-28T12:31:44Z</time>
      </trkpt>
      <trkpt lat="40.444117" lon="-5.277850">
        <ele>2324.0</ele>
        <time>2018-07-28T12:31:45Z</time>
      </trkpt>
      <trkpt lat="40.444050" lon="-5.277933">
        <ele>2323.0</ele>
        <time>2018-07-28T12:31:46Z</time>
      </trkpt>
      <trkpt lat="40.444000" lon="-5.278000">
        <ele>2322.0</ele>
        <time>2018-07-28T12:31:47Z</time>
      </trkpt>
      <trkpt lat="40.443950" lon="-5.278083">
        <ele>2321.0</ele>
        <time>2018-07-28T12:31:48Z</time>
      </trkpt>
      <trkpt lat="40.443883" lon="-5.278150">
        <ele>2320.0</ele>
        <time>2018-07-28T12:31:49Z</time>
      </trkpt>
      <trkpt lat="40.443817" lon="-5.278233">
        <ele>2318.0</ele>
        <time>2018-07-28T12:31:50Z</time>
      </trkpt>
      <trkpt lat="40.443750" lon="-5.278300">
        <ele>2317.0</ele>
        <time>2018-07-28T12:31:51Z</time>
      </trkpt>
      <trkpt lat="40.443683" lon="-5.278383">
        <ele>2316.0</ele>
        <time>2018-07-28T12:31:52Z</time>
      </trkpt>
      <trkpt lat="40.443617" lon="-5.278450">
        <ele>2317.0</ele>
        <time>2018-07-28T12:31:53Z</time>
      </trkpt>
      <trkpt lat="40.443550" lon="-5.278533">
        <ele>2317.0</ele>
        <time>2018-07-28T12:31:54Z</time>
      </trkpt>
      <trkpt lat="40.443500" lon="-5.278600">
        <ele>2317.0</ele>
        <time>2018-07-28T12:31:55Z</time>
      </trkpt>
      <trkpt lat="40.443450" lon="-5.278683">
        <ele>2316.0</ele>
        <time>2018-07-28T12:31:56Z</time>
      </trkpt>
      <trkpt lat="40.443383" lon="-5.278767">
        <ele>2316.0</ele>
        <time>2018-07-28T12:31:57Z</time>
      </trkpt>
      <trkpt lat="40.443333" lon="-5.278850">
        <ele>2315.0</ele>
        <time>2018-07-28T12:31:58Z</time>
      </trkpt>
      <trkpt lat="40.443283" lon="-5.278933">
        <ele>2314.0</ele>
        <time>2018-07-28T12:31:59Z</time>
      </trkpt>
      <trkpt lat="40.443233" lon="-5.279017">
        <ele>2312.0</ele>
        <time>2018-07-28T12:32:00Z</time>
      </trkpt>
      <trkpt lat="40.443200" lon="-5.279100">
        <ele>2311.0</ele>
        <time>2018-07-28T12:32:01Z</time>
      </trkpt>
      <trkpt lat="40.443167" lon="-5.279167">
        <ele>2309.0</ele>
        <time>2018-07-28T12:32:02Z</time>
      </trkpt>
      <trkpt lat="40.443117" lon="-5.279217">
        <ele>2308.0</ele>
        <time>2018-07-28T12:32:03Z</time>
      </trkpt>
      <trkpt lat="40.443067" lon="-5.279283">
        <ele>2307.0</ele>
        <time>2018-07-28T12:32:04Z</time>
      </trkpt>
      <trkpt lat="40.443000" lon="-5.279350">
        <ele>2306.0</ele>
        <time>2018-07-28T12:32:05Z</time>
      </trkpt>
      <trkpt lat="40.442950" lon="-5.279417">
        <ele>2307.0</ele>
        <time>2018-07-28T12:32:06Z</time>
      </trkpt>
      <trkpt lat="40.442883" lon="-5.279467">
        <ele>2308.0</ele>
        <time>2018-07-28T12:32:07Z</time>
      </trkpt>
      <trkpt lat="40.442817" lon="-5.279517">
        <ele>2309.0</ele>
        <time>2018-07-28T12:32:08Z</time>
      </trkpt>
      <trkpt lat="40.442750" lon="-5.279550">
        <ele>2309.0</ele>
        <time>2018-07-28T12:32:09Z</time>
      </trkpt>
      <trkpt lat="40.442683" lon="-5.279617">
        <ele>2308.0</ele>
        <time>2018-07-28T12:32:10Z</time>
      </trkpt>
      <trkpt lat="40.442633" lon="-5.279683">
        <ele>2307.0</ele>
        <time>2018-07-28T12:32:11Z</time>
      </trkpt>
      <trkpt lat="40.442567" lon="-5.279767">
        <ele>2305.0</ele>
        <time>2018-07-28T12:32:12Z</time>
      </trkpt>
      <trkpt lat="40.442500" lon="-5.279850">
        <ele>2304.0</ele>
        <time>2018-07-28T12:32:13Z</time>
      </trkpt>
      <trkpt lat="40.442433" lon="-5.279933">
        <ele>2303.0</ele>
        <time>2018-07-28T12:32:14Z</time>
      </trkpt>
      <trkpt lat="40.442367" lon="-5.280000">
        <ele>2301.0</ele>
        <time>2018-07-28T12:32:15Z</time>
      </trkpt>
      <trkpt lat="40.442283" lon="-5.280067">
        <ele>2300.0</ele>
        <time>2018-07-28T12:32:16Z</time>
      </trkpt>
      <trkpt lat="40.442200" lon="-5.280117">
        <ele>2297.0</ele>
        <time>2018-07-28T12:32:17Z</time>
      </trkpt>
      <trkpt lat="40.442117" lon="-5.280167">
        <ele>2295.0</ele>
        <time>2018-07-28T12:32:18Z</time>
      </trkpt>
      <trkpt lat="40.442033" lon="-5.280217">
        <ele>2292.0</ele>
        <time>2018-07-28T12:32:19Z</time>
      </trkpt>
      <trkpt lat="40.441950" lon="-5.280267">
        <ele>2289.0</ele>
        <time>2018-07-28T12:32:20Z</time>
      </trkpt>
      <trkpt lat="40.441867" lon="-5.280317">
        <ele>2287.0</ele>
        <time>2018-07-28T12:32:21Z</time>
      </trkpt>
      <trkpt lat="40.441783" lon="-5.280383">
        <ele>2285.0</ele>
        <time>2018-07-28T12:32:22Z</time>
      </trkpt>
      <trkpt lat="40.441700" lon="-5.280433">
        <ele>2282.0</ele>
        <time>2018-07-28T12:32:23Z</time>
      </trkpt>
      <trkpt lat="40.441633" lon="-5.280500">
        <ele>2279.0</ele>
        <time>2018-07-28T12:32:24Z</time>
      </trkpt>
      <trkpt lat="40.441550" lon="-5.280567">
        <ele>2275.0</ele>
        <time>2018-07-28T12:32:25Z</time>
      </trkpt>
      <trkpt lat="40.441467" lon="-5.280617">
        <ele>2272.0</ele>
        <time>2018-07-28T12:32:26Z</time>
      </trkpt>
      <trkpt lat="40.441367" lon="-5.280667">
        <ele>2271.0</ele>
        <time>2018-07-28T12:32:27Z</time>
      </trkpt>
      <trkpt lat="40.441283" lon="-5.280700">
        <ele>2269.0</ele>
        <time>2018-07-28T12:32:28Z</time>
      </trkpt>
      <trkpt lat="40.441183" lon="-5.280717">
        <ele>2268.0</ele>
        <time>2018-07-28T12:32:29Z</time>
      </trkpt>
      <trkpt lat="40.441100" lon="-5.280750">
        <ele>2267.0</ele>
        <time>2018-07-28T12:32:30Z</time>
      </trkpt>
      <trkpt lat="40.441017" lon="-5.280800">
        <ele>2264.0</ele>
        <time>2018-07-28T12:32:31Z</time>
      </trkpt>
      <trkpt lat="40.440950" lon="-5.280867">
        <ele>2261.0</ele>
        <time>2018-07-28T12:32:32Z</time>
      </trkpt>
      <trkpt lat="40.440900" lon="-5.280950">
        <ele>2258.0</ele>
        <time>2018-07-28T12:32:33Z</time>
      </trkpt>
      <trkpt lat="40.440817" lon="-5.281033">
        <ele>2255.0</ele>
        <time>2018-07-28T12:32:34Z</time>
      </trkpt>
      <trkpt lat="40.440750" lon="-5.281117">
        <ele>2252.0</ele>
        <time>2018-07-28T12:32:35Z</time>
      </trkpt>
      <trkpt lat="40.440667" lon="-5.281200">
        <ele>2250.0</ele>
        <time>2018-07-28T12:32:36Z</time>
      </trkpt>
      <trkpt lat="40.440583" lon="-5.281283">
        <ele>2250.0</ele>
        <time>2018-07-28T12:32:37Z</time>
      </trkpt>
      <trkpt lat="40.440533" lon="-5.281367">
        <ele>2250.0</ele>
        <time>2018-07-28T12:32:38Z</time>
      </trkpt>
      <trkpt lat="40.440483" lon="-5.281433">
        <ele>2250.0</ele>
        <time>2018-07-28T12:32:39Z</time>
      </trkpt>
      <trkpt lat="40.440433" lon="-5.281500">
        <ele>2248.0</ele>
        <time>2018-07-28T12:32:40Z</time>
      </trkpt>
      <trkpt lat="40.440383" lon="-5.281550">
        <ele>2246.0</ele>
        <time>2018-07-28T12:32:41Z</time>
      </trkpt>
      <trkpt lat="40.440317" lon="-5.281600">
        <ele>2243.0</ele>
        <time>2018-07-28T12:32:42Z</time>
      </trkpt>
      <trkpt lat="40.440250" lon="-5.281667">
        <ele>2241.0</ele>
        <time>2018-07-28T12:32:43Z</time>
      </trkpt>
      <trkpt lat="40.440183" lon="-5.281750">
        <ele>2239.0</ele>
        <time>2018-07-28T12:32:44Z</time>
      </trkpt>
      <trkpt lat="40.440133" lon="-5.281817">
        <ele>2237.0</ele>
        <time>2018-07-28T12:32:45Z</time>
      </trkpt>
      <trkpt lat="40.440083" lon="-5.281900">
        <ele>2236.0</ele>
        <time>2018-07-28T12:32:46Z</time>
      </trkpt>
      <trkpt lat="40.440033" lon="-5.281983">
        <ele>2234.0</ele>
        <time>2018-07-28T12:32:47Z</time>
      </trkpt>
      <trkpt lat="40.440000" lon="-5.282050">
        <ele>2233.0</ele>
        <time>2018-07-28T12:32:48Z</time>
      </trkpt>
      <trkpt lat="40.439950" lon="-5.282133">
        <ele>2231.0</ele>
        <time>2018-07-28T12:32:49Z</time>
      </trkpt>
      <trkpt lat="40.439917" lon="-5.282200">
        <ele>2228.0</ele>
        <time>2018-07-28T12:32:50Z</time>
      </trkpt>
      <trkpt lat="40.439867" lon="-5.282283">
        <ele>2226.0</ele>
        <time>2018-07-28T12:32:51Z</time>
      </trkpt>
      <trkpt lat="40.439817" lon="-5.282367">
        <ele>2223.0</ele>
        <time>2018-07-28T12:32:52Z</time>
      </trkpt>
      <trkpt lat="40.439750" lon="-5.282450">
        <ele>2221.0</ele>
        <time>2018-07-28T12:32:53Z</time>
      </trkpt>
      <trkpt lat="40.439683" lon="-5.282517">
        <ele>2219.0</ele>
        <time>2018-07-28T12:32:54Z</time>
      </trkpt>
      <trkpt lat="40.439617" lon="-5.282583">
        <ele>2217.0</ele>
        <time>2018-07-28T12:32:55Z</time>
      </trkpt>
      <trkpt lat="40.439550" lon="-5.282617">
        <ele>2215.0</ele>
        <time>2018-07-28T12:32:56Z</time>
      </trkpt>
      <trkpt lat="40.439467" lon="-5.282667">
        <ele>2214.0</ele>
        <time>2018-07-28T12:32:57Z</time>
      </trkpt>
      <trkpt lat="40.439383" lon="-5.282700">
        <ele>2212.0</ele>
        <time>2018-07-28T12:32:58Z</time>
      </trkpt>
      <trkpt lat="40.439300" lon="-5.282733">
        <ele>2210.0</ele>
        <time>2018-07-28T12:32:59Z</time>
      </trkpt>
      <trkpt lat="40.439217" lon="-5.282767">
        <ele>2208.0</ele>
        <time>2018-07-28T12:33:00Z</time>
      </trkpt>
      <trkpt lat="40.439117" lon="-5.282783">
        <ele>2206.0</ele>
        <time>2018-07-28T12:33:01Z</time>
      </trkpt>
      <trkpt lat="40.439033" lon="-5.282800">
        <ele>2205.0</ele>
        <time>2018-07-28T12:33:02Z</time>
      </trkpt>
      <trkpt lat="40.438950" lon="-5.282817">
        <ele>2204.0</ele>
        <time>2018-07-28T12:33:03Z</time>
      </trkpt>
      <trkpt lat="40.438867" lon="-5.282833">
        <ele>2204.0</ele>
        <time>2018-07-28T12:33:04Z</time>
      </trkpt>
      <trkpt lat="40.438783" lon="-5.282833">
        <ele>2202.0</ele>
        <time>2018-07-28T12:33:05Z</time>
      </trkpt>
      <trkpt lat="40.438700" lon="-5.282833">
        <ele>2200.0</ele>
        <time>2018-07-28T12:33:06Z</time>
      </trkpt>
      <trkpt lat="40.438617" lon="-5.282850">
        <ele>2198.0</ele>
        <time>2018-07-28T12:33:07Z</time>
      </trkpt>
      <trkpt lat="40.438533" lon="-5.282867">
        <ele>2195.0</ele>
        <time>2018-07-28T12:33:08Z</time>
      </trkpt>
      <trkpt lat="40.438450" lon="-5.282900">
        <ele>2194.0</ele>
        <time>2018-07-28T12:33:09Z</time>
      </trkpt>
      <trkpt lat="40.438367" lon="-5.282917">
        <ele>2193.0</ele>
        <time>2018-07-28T12:33:10Z</time>
      </trkpt>
      <trkpt lat="40.438283" lon="-5.282933">
        <ele>2192.0</ele>
        <time>2018-07-28T12:33:11Z</time>
      </trkpt>
      <trkpt lat="40.438217" lon="-5.282950">
        <ele>2190.0</ele>
        <time>2018-07-28T12:33:12Z</time>
      </trkpt>
      <trkpt lat="40.438133" lon="-5.282967">
        <ele>2189.0</ele>
        <time>2018-07-28T12:33:13Z</time>
      </trkpt>
      <trkpt lat="40.438050" lon="-5.282983">
        <ele>2187.0</ele>
        <time>2018-07-28T12:33:14Z</time>
      </trkpt>
      <trkpt lat="40.437950" lon="-5.283017">
        <ele>2185.0</ele>
        <time>2018-07-28T12:33:15Z</time>
      </trkpt>
      <trkpt lat="40.437867" lon="-5.283033">
        <ele>2184.0</ele>
        <time>2018-07-28T12:33:16Z</time>
      </trkpt>
      <trkpt lat="40.437783" lon="-5.283050">
        <ele>2184.0</ele>
        <time>2018-07-28T12:33:17Z</time>
      </trkpt>
      <trkpt lat="40.437700" lon="-5.283033">
        <ele>2184.0</ele>
        <time>2018-07-28T12:33:18Z</time>
      </trkpt>
      <trkpt lat="40.437600" lon="-5.283017">
        <ele>2182.0</ele>
        <time>2018-07-28T12:33:19Z</time>
      </trkpt>
      <trkpt lat="40.437517" lon="-5.283000">
        <ele>2180.0</ele>
        <time>2018-07-28T12:33:20Z</time>
      </trkpt>
      <trkpt lat="40.437433" lon="-5.283017">
        <ele>2177.0</ele>
        <time>2018-07-28T12:33:21Z</time>
      </trkpt>
      <trkpt lat="40.437350" lon="-5.283033">
        <ele>2175.0</ele>
        <time>2018-07-28T12:33:22Z</time>
      </trkpt>
      <trkpt lat="40.437250" lon="-5.283067">
        <ele>2173.0</ele>
        <time>2018-07-28T12:33:23Z</time>
      </trkpt>
      <trkpt lat="40.437183" lon="-5.283100">
        <ele>2171.0</ele>
        <time>2018-07-28T12:33:24Z</time>
      </trkpt>
      <trkpt lat="40.437100" lon="-5.283150">
        <ele>2169.0</ele>
        <time>2018-07-28T12:33:25Z</time>
      </trkpt>
      <trkpt lat="40.437017" lon="-5.283183">
        <ele>2167.0</ele>
        <time>2018-07-28T12:33:26Z</time>
      </trkpt>
      <trkpt lat="40.436933" lon="-5.283233">
        <ele>2165.0</ele>
        <time>2018-07-28T12:33:27Z</time>
      </trkpt>
      <trkpt lat="40.436867" lon="-5.283283">
        <ele>2164.0</ele>
        <time>2018-07-28T12:33:28Z</time>
      </trkpt>
      <trkpt lat="40.436783" lon="-5.283317">
        <ele>2162.0</ele>
        <time>2018-07-28T12:33:29Z</time>
      </trkpt>
      <trkpt lat="40.436683" lon="-5.283350">
        <ele>2159.0</ele>
        <time>2018-07-28T12:33:30Z</time>
      </trkpt>
      <trkpt lat="40.436600" lon="-5.283400">
        <ele>2157.0</ele>
        <time>2018-07-28T12:33:31Z</time>
      </trkpt>
      <trkpt lat="40.436517" lon="-5.283450">
        <ele>2155.0</ele>
        <time>2018-07-28T12:33:32Z</time>
      </trkpt>
      <trkpt lat="40.436450" lon="-5.283517">
        <ele>2153.0</ele>
        <time>2018-07-28T12:33:33Z</time>
      </trkpt>
      <trkpt lat="40.436367" lon="-5.283567">
        <ele>2151.0</ele>
        <time>2018-07-28T12:33:34Z</time>
      </trkpt>
      <trkpt lat="40.436300" lon="-5.283617">
        <ele>2150.0</ele>
        <time>2018-07-28T12:33:35Z</time>
      </trkpt>
      <trkpt lat="40.436233" lon="-5.283667">
        <ele>2148.0</ele>
        <time>2018-07-28T12:33:36Z</time>
      </trkpt>
      <trkpt lat="40.436150" lon="-5.283717">
        <ele>2146.0</ele>
        <time>2018-07-28T12:33:37Z</time>
      </trkpt>
      <trkpt lat="40.436083" lon="-5.283767">
        <ele>2144.0</ele>
        <time>2018-07-28T12:33:38Z</time>
      </trkpt>
      <trkpt lat="40.436017" lon="-5.283817">
        <ele>2143.0</ele>
        <time>2018-07-28T12:33:39Z</time>
      </trkpt>
      <trkpt lat="40.435950" lon="-5.283867">
        <ele>2141.0</ele>
        <time>2018-07-28T12:33:40Z</time>
      </trkpt>
      <trkpt lat="40.435900" lon="-5.283933">
        <ele>2138.0</ele>
        <time>2018-07-28T12:33:41Z</time>
      </trkpt>
      <trkpt lat="40.435833" lon="-5.284000">
        <ele>2136.0</ele>
        <time>2018-07-28T12:33:42Z</time>
      </trkpt>
      <trkpt lat="40.435750" lon="-5.284067">
        <ele>2134.0</ele>
        <time>2018-07-28T12:33:43Z</time>
      </trkpt>
      <trkpt lat="40.435683" lon="-5.284133">
        <ele>2133.0</ele>
        <time>2018-07-28T12:33:44Z</time>
      </trkpt>
      <trkpt lat="40.435617" lon="-5.284183">
        <ele>2132.0</ele>
        <time>2018-07-28T12:33:45Z</time>
      </trkpt>
      <trkpt lat="40.435550" lon="-5.284250">
        <ele>2131.0</ele>
        <time>2018-07-28T12:33:46Z</time>
      </trkpt>
      <trkpt lat="40.435500" lon="-5.284300">
        <ele>2130.0</ele>
        <time>2018-07-28T12:33:47Z</time>
      </trkpt>
      <trkpt lat="40.435433" lon="-5.284350">
        <ele>2129.0</ele>
        <time>2018-07-28T12:33:48Z</time>
      </trkpt>
      <trkpt lat="40.435383" lon="-5.284400">
        <ele>2127.0</ele>
        <time>2018-07-28T12:33:49Z</time>
      </trkpt>
      <trkpt lat="40.435317" lon="-5.284450">
        <ele>2125.0</ele>
        <time>2018-07-28T12:33:50Z</time>
      </trkpt>
      <trkpt lat="40.435267" lon="-5.284517">
        <ele>2123.0</ele>
        <time>2018-07-28T12:33:51Z</time>
      </trkpt>
      <trkpt lat="40.435217" lon="-5.284583">
        <ele>2121.0</ele>
        <time>2018-07-28T12:33:52Z</time>
      </trkpt>
      <trkpt lat="40.435167" lon="-5.284650">
        <ele>2119.0</ele>
        <time>2018-07-28T12:33:53Z</time>
      </trkpt>
      <trkpt lat="40.435133" lon="-5.284717">
        <ele>2118.0</ele>
        <time>2018-07-28T12:33:54Z</time>
      </trkpt>
      <trkpt lat="40.435083" lon="-5.284783">
        <ele>2115.0</ele>
        <time>2018-07-28T12:33:55Z</time>
      </trkpt>
      <trkpt lat="40.435033" lon="-5.284833">
        <ele>2113.0</ele>
        <time>2018-07-28T12:33:56Z</time>
      </trkpt>
      <trkpt lat="40.434983" lon="-5.284900">
        <ele>2111.0</ele>
        <time>2018-07-28T12:33:57Z</time>
      </trkpt>
      <trkpt lat="40.434933" lon="-5.284950">
        <ele>2108.0</ele>
        <time>2018-07-28T12:33:58Z</time>
      </trkpt>
      <trkpt lat="40.434867" lon="-5.285017">
        <ele>2106.0</ele>
        <time>2018-07-28T12:33:59Z</time>
      </trkpt>
      <trkpt lat="40.434817" lon="-5.285083">
        <ele>2105.0</ele>
        <time>2018-07-28T12:34:00Z</time>
      </trkpt>
      <trkpt lat="40.434783" lon="-5.285133">
        <ele>2103.0</ele>
        <time>2018-07-28T12:34:01Z</time>
      </trkpt>
      <trkpt lat="40.434733" lon="-5.285200">
        <ele>2101.0</ele>
        <time>2018-07-28T12:34:02Z</time>
      </trkpt>
      <trkpt lat="40.434683" lon="-5.285250">
        <ele>2099.0</ele>
        <time>2018-07-28T12:34:03Z</time>
      </trkpt>
      <trkpt lat="40.434633" lon="-5.285300">
        <ele>2096.0</ele>
        <time>2018-07-28T12:34:04Z</time>
      </trkpt>
      <trkpt lat="40.434567" lon="-5.285367">
        <ele>2092.0</ele>
        <time>2018-07-28T12:34:05Z</time>
      </trkpt>
      <trkpt lat="40.434517" lon="-5.285433">
        <ele>2090.0</ele>
        <time>2018-07-28T12:34:06Z</time>
      </trkpt>
      <trkpt lat="40.434450" lon="-5.285500">
        <ele>2087.0</ele>
        <time>2018-07-28T12:34:07Z</time>
      </trkpt>
      <trkpt lat="40.434400" lon="-5.285567">
        <ele>2086.0</ele>
        <time>2018-07-28T12:34:08Z</time>
      </trkpt>
      <trkpt lat="40.434350" lon="-5.285633">
        <ele>2084.0</ele>
        <time>2018-07-28T12:34:09Z</time>
      </trkpt>
      <trkpt lat="40.434300" lon="-5.285683">
        <ele>2083.0</ele>
        <time>2018-07-28T12:34:10Z</time>
      </trkpt>
      <trkpt lat="40.434250" lon="-5.285750">
        <ele>2081.0</ele>
        <time>2018-07-28T12:34:11Z</time>
      </trkpt>
      <trkpt lat="40.434183" lon="-5.285817">
        <ele>2079.0</ele>
        <time>2018-07-28T12:34:12Z</time>
      </trkpt>
      <trkpt lat="40.434150" lon="-5.285883">
        <ele>2076.0</ele>
        <time>2018-07-28T12:34:13Z</time>
      </trkpt>
      <trkpt lat="40.434100" lon="-5.285967">
        <ele>2074.0</ele>
        <time>2018-07-28T12:34:14Z</time>
      </trkpt>
      <trkpt lat="40.434050" lon="-5.286050">
        <ele>2073.0</ele>
        <time>2018-07-28T12:34:15Z</time>
      </trkpt>
      <trkpt lat="40.434000" lon="-5.286133">
        <ele>2072.0</ele>
        <time>2018-07-28T12:34:16Z</time>
      </trkpt>
      <trkpt lat="40.433933" lon="-5.286217">
        <ele>2072.0</ele>
        <time>2018-07-28T12:34:17Z</time>
      </trkpt>
      <trkpt lat="40.433883" lon="-5.286300">
        <ele>2071.0</ele>
        <time>2018-07-28T12:34:18Z</time>
      </trkpt>
      <trkpt lat="40.433833" lon="-5.286383">
        <ele>2070.0</ele>
        <time>2018-07-28T12:34:19Z</time>
      </trkpt>
      <trkpt lat="40.433783" lon="-5.286467">
        <ele>2069.0</ele>
        <time>2018-07-28T12:34:20Z</time>
      </trkpt>
      <trkpt lat="40.433717" lon="-5.286567">
        <ele>2068.0</ele>
        <time>2018-07-28T12:34:21Z</time>
      </trkpt>
      <trkpt lat="40.433650" lon="-5.286650">
        <ele>2068.0</ele>
        <time>2018-07-28T12:34:22Z</time>
      </trkpt>
      <trkpt lat="40.433583" lon="-5.286700">
        <ele>2068.0</ele>
        <time>2018-07-28T12:34:23Z</time>
      </trkpt>
      <trkpt lat="40.433533" lon="-5.286767">
        <ele>2067.0</ele>
        <time>2018-07-28T12:34:24Z</time>
      </trkpt>
      <trkpt lat="40.433483" lon="-5.286800">
        <ele>2065.0</ele>
        <time>2018-07-28T12:34:25Z</time>
      </trkpt>
      <trkpt lat="40.433417" lon="-5.286867">
        <ele>2062.0</ele>
        <time>2018-07-28T12:34:26Z</time>
      </trkpt>
      <trkpt lat="40.433333" lon="-5.286917">
        <ele>2058.0</ele>
        <time>2018-07-28T12:34:27Z</time>
      </trkpt>
      <trkpt lat="40.433233" lon="-5.286967">
        <ele>2056.0</ele>
        <time>2018-07-28T12:34:28Z</time>
      </trkpt>
      <trkpt lat="40.433150" lon="-5.287000">
        <ele>2055.0</ele>
        <time>2018-07-28T12:34:29Z</time>
      </trkpt>
      <trkpt lat="40.433083" lon="-5.287050">
        <ele>2053.0</ele>
        <time>2018-07-28T12:34:30Z</time>
      </trkpt>
      <trkpt lat="40.433017" lon="-5.287117">
        <ele>2052.0</ele>
        <time>2018-07-28T12:34:31Z</time>
      </trkpt>
      <trkpt lat="40.432967" lon="-5.287200">
        <ele>2049.0</ele>
        <time>2018-07-28T12:34:32Z</time>
      </trkpt>
      <trkpt lat="40.432917" lon="-5.287267">
        <ele>2048.0</ele>
        <time>2018-07-28T12:34:33Z</time>
      </trkpt>
      <trkpt lat="40.432850" lon="-5.287333">
        <ele>2046.0</ele>
        <time>2018-07-28T12:34:34Z</time>
      </trkpt>
      <trkpt lat="40.432800" lon="-5.287417">
        <ele>2045.0</ele>
        <time>2018-07-28T12:34:35Z</time>
      </trkpt>
      <trkpt lat="40.432733" lon="-5.287483">
        <ele>2045.0</ele>
        <time>2018-07-28T12:34:36Z</time>
      </trkpt>
      <trkpt lat="40.432683" lon="-5.287550">
        <ele>2044.0</ele>
        <time>2018-07-28T12:34:37Z</time>
      </trkpt>
      <trkpt lat="40.432617" lon="-5.287633">
        <ele>2044.0</ele>
        <time>2018-07-28T12:34:38Z</time>
      </trkpt>
      <trkpt lat="40.432567" lon="-5.287700">
        <ele>2043.0</ele>
        <time>2018-07-28T12:34:39Z</time>
      </trkpt>
      <trkpt lat="40.432517" lon="-5.287767">
        <ele>2043.0</ele>
        <time>2018-07-28T12:34:40Z</time>
      </trkpt>
      <trkpt lat="40.432450" lon="-5.287850">
        <ele>2042.0</ele>
        <time>2018-07-28T12:34:41Z</time>
      </trkpt>
      <trkpt lat="40.432400" lon="-5.287933">
        <ele>2040.0</ele>
        <time>2018-07-28T12:34:42Z</time>
      </trkpt>
      <trkpt lat="40.432350" lon="-5.288033">
        <ele>2040.0</ele>
        <time>2018-07-28T12:34:43Z</time>
      </trkpt>
      <trkpt lat="40.432283" lon="-5.288133">
        <ele>2040.0</ele>
        <time>2018-07-28T12:34:44Z</time>
      </trkpt>
      <trkpt lat="40.432217" lon="-5.288217">
        <ele>2041.0</ele>
        <time>2018-07-28T12:34:45Z</time>
      </trkpt>
      <trkpt lat="40.432167" lon="-5.288300">
        <ele>2043.0</ele>
        <time>2018-07-28T12:34:46Z</time>
      </trkpt>
      <trkpt lat="40.432117" lon="-5.288383">
        <ele>2044.0</ele>
        <time>2018-07-28T12:34:47Z</time>
      </trkpt>
      <trkpt lat="40.432083" lon="-5.288450">
        <ele>2045.0</ele>
        <time>2018-07-28T12:34:48Z</time>
      </trkpt>
      <trkpt lat="40.432033" lon="-5.288517">
        <ele>2045.0</ele>
        <time>2018-07-28T12:34:49Z</time>
      </trkpt>
      <trkpt lat="40.432000" lon="-5.288583">
        <ele>2044.0</ele>
        <time>2018-07-28T12:34:50Z</time>
      </trkpt>
      <trkpt lat="40.431950" lon="-5.288650">
        <ele>2043.0</ele>
        <time>2018-07-28T12:34:51Z</time>
      </trkpt>
      <trkpt lat="40.431900" lon="-5.288733">
        <ele>2042.0</ele>
        <time>2018-07-28T12:34:52Z</time>
      </trkpt>
      <trkpt lat="40.431833" lon="-5.288800">
        <ele>2043.0</ele>
        <time>2018-07-28T12:34:53Z</time>
      </trkpt>
      <trkpt lat="40.431767" lon="-5.288883">
        <ele>2044.0</ele>
        <time>2018-07-28T12:34:54Z</time>
      </trkpt>
      <trkpt lat="40.431717" lon="-5.288950">
        <ele>2046.0</ele>
        <time>2018-07-28T12:34:55Z</time>
      </trkpt>
      <trkpt lat="40.431667" lon="-5.289033">
        <ele>2046.0</ele>
        <time>2018-07-28T12:34:56Z</time>
      </trkpt>
      <trkpt lat="40.431617" lon="-5.289100">
        <ele>2047.0</ele>
        <time>2018-07-28T12:34:57Z</time>
      </trkpt>
      <trkpt lat="40.431567" lon="-5.289183">
        <ele>2046.0</ele>
        <time>2018-07-28T12:34:58Z</time>
      </trkpt>
      <trkpt lat="40.431483" lon="-5.289250">
        <ele>2045.0</ele>
        <time>2018-07-28T12:34:59Z</time>
      </trkpt>
      <trkpt lat="40.431417" lon="-5.289333">
        <ele>2043.0</ele>
        <time>2018-07-28T12:35:00Z</time>
      </trkpt>
      <trkpt lat="40.431350" lon="-5.289400">
        <ele>2041.0</ele>
        <time>2018-07-28T12:35:01Z</time>
      </trkpt>
      <trkpt lat="40.431283" lon="-5.289483">
        <ele>2039.0</ele>
        <time>2018-07-28T12:35:02Z</time>
      </trkpt>
      <trkpt lat="40.431217" lon="-5.289583">
        <ele>2037.0</ele>
        <time>2018-07-28T12:35:03Z</time>
      </trkpt>
      <trkpt lat="40.431167" lon="-5.289667">
        <ele>2036.0</ele>
        <time>2018-07-28T12:35:04Z</time>
      </trkpt>
      <trkpt lat="40.431100" lon="-5.289767">
        <ele>2035.0</ele>
        <time>2018-07-28T12:35:05Z</time>
      </trkpt>
      <trkpt lat="40.431033" lon="-5.289833">
        <ele>2035.0</ele>
        <time>2018-07-28T12:35:06Z</time>
      </trkpt>
      <trkpt lat="40.430967" lon="-5.289917">
        <ele>2035.0</ele>
        <time>2018-07-28T12:35:07Z</time>
      </trkpt>
      <trkpt lat="40.430917" lon="-5.289983">
        <ele>2035.0</ele>
        <time>2018-07-28T12:35:08Z</time>
      </trkpt>
      <trkpt lat="40.430850" lon="-5.290067">
        <ele>2034.0</ele>
        <time>2018-07-28T12:35:09Z</time>
      </trkpt>
      <trkpt lat="40.430783" lon="-5.290150">
        <ele>2032.0</ele>
        <time>2018-07-28T12:35:10Z</time>
      </trkpt>
      <trkpt lat="40.430717" lon="-5.290233">
        <ele>2030.0</ele>
        <time>2018-07-28T12:35:11Z</time>
      </trkpt>
      <trkpt lat="40.430633" lon="-5.290317">
        <ele>2028.0</ele>
        <time>2018-07-28T12:35:12Z</time>
      </trkpt>
      <trkpt lat="40.430567" lon="-5.290400">
        <ele>2027.0</ele>
        <time>2018-07-28T12:35:13Z</time>
      </trkpt>
      <trkpt lat="40.430517" lon="-5.290467">
        <ele>2026.0</ele>
        <time>2018-07-28T12:35:14Z</time>
      </trkpt>
      <trkpt lat="40.430467" lon="-5.290550">
        <ele>2024.0</ele>
        <time>2018-07-28T12:35:15Z</time>
      </trkpt>
      <trkpt lat="40.430433" lon="-5.290633">
        <ele>2023.0</ele>
        <time>2018-07-28T12:35:16Z</time>
      </trkpt>
      <trkpt lat="40.430367" lon="-5.290717">
        <ele>2023.0</ele>
        <time>2018-07-28T12:35:17Z</time>
      </trkpt>
      <trkpt lat="40.430317" lon="-5.290800">
        <ele>2023.0</ele>
        <time>2018-07-28T12:35:18Z</time>
      </trkpt>
      <trkpt lat="40.430250" lon="-5.290867">
        <ele>2024.0</ele>
        <time>2018-07-28T12:35:19Z</time>
      </trkpt>
      <trkpt lat="40.430200" lon="-5.290950">
        <ele>2024.0</ele>
        <time>2018-07-28T12:35:20Z</time>
      </trkpt>
      <trkpt lat="40.430150" lon="-5.291017">
        <ele>2024.0</ele>
        <time>2018-07-28T12:35:21Z</time>
      </trkpt>
      <trkpt lat="40.430117" lon="-5.291100">
        <ele>2024.0</ele>
        <time>2018-07-28T12:35:22Z</time>
      </trkpt>
      <trkpt lat="40.430067" lon="-5.291167">
        <ele>2024.0</ele>
        <time>2018-07-28T12:35:23Z</time>
      </trkpt>
      <trkpt lat="40.430000" lon="-5.291233">
        <ele>2022.0</ele>
        <time>2018-07-28T12:35:24Z</time>
      </trkpt>
      <trkpt lat="40.429933" lon="-5.291300">
        <ele>2020.0</ele>
        <time>2018-07-28T12:35:25Z</time>
      </trkpt>
      <trkpt lat="40.429883" lon="-5.291367">
        <ele>2018.0</ele>
        <time>2018-07-28T12:35:26Z</time>
      </trkpt>
      <trkpt lat="40.429817" lon="-5.291433">
        <ele>2016.0</ele>
        <time>2018-07-28T12:35:27Z</time>
      </trkpt>
      <trkpt lat="40.429767" lon="-5.291517">
        <ele>2014.0</ele>
        <time>2018-07-28T12:35:28Z</time>
      </trkpt>
      <trkpt lat="40.429717" lon="-5.291600">
        <ele>2011.0</ele>
        <time>2018-07-28T12:35:29Z</time>
      </trkpt>
      <trkpt lat="40.429667" lon="-5.291700">
        <ele>2009.0</ele>
        <time>2018-07-28T12:35:30Z</time>
      </trkpt>
      <trkpt lat="40.429617" lon="-5.291800">
        <ele>2007.0</ele>
        <time>2018-07-28T12:35:31Z</time>
      </trkpt>
      <trkpt lat="40.429567" lon="-5.291917">
        <ele>2006.0</ele>
        <time>2018-07-28T12:35:32Z</time>
      </trkpt>
      <trkpt lat="40.429517" lon="-5.292017">
        <ele>2006.0</ele>
        <time>2018-07-28T12:35:33Z</time>
      </trkpt>
      <trkpt lat="40.429467" lon="-5.292100">
        <ele>2007.0</ele>
        <time>2018-07-28T12:35:34Z</time>
      </trkpt>
      <trkpt lat="40.429417" lon="-5.292183">
        <ele>2008.0</ele>
        <time>2018-07-28T12:35:35Z</time>
      </trkpt>
      <trkpt lat="40.429350" lon="-5.292267">
        <ele>2008.0</ele>
        <time>2018-07-28T12:35:36Z</time>
      </trkpt>
      <trkpt lat="40.429267" lon="-5.292333">
        <ele>2007.0</ele>
        <time>2018-07-28T12:35:37Z</time>
      </trkpt>
      <trkpt lat="40.429183" lon="-5.292417">
        <ele>2007.0</ele>
        <time>2018-07-28T12:35:38Z</time>
      </trkpt>
      <trkpt lat="40.429100" lon="-5.292500">
        <ele>2006.0</ele>
        <time>2018-07-28T12:35:39Z</time>
      </trkpt>
      <trkpt lat="40.429017" lon="-5.292583">
        <ele>2005.0</ele>
        <time>2018-07-28T12:35:40Z</time>
      </trkpt>
      <trkpt lat="40.428950" lon="-5.292650">
        <ele>2005.0</ele>
        <time>2018-07-28T12:35:41Z</time>
      </trkpt>
      <trkpt lat="40.428900" lon="-5.292733">
        <ele>2003.0</ele>
        <time>2018-07-28T12:35:42Z</time>
      </trkpt>
      <trkpt lat="40.428817" lon="-5.292817">
        <ele>2001.0</ele>
        <time>2018-07-28T12:35:43Z</time>
      </trkpt>
      <trkpt lat="40.428750" lon="-5.292900">
        <ele>1998.0</ele>
        <time>2018-07-28T12:35:44Z</time>
      </trkpt>
      <trkpt lat="40.428667" lon="-5.292967">
        <ele>1996.0</ele>
        <time>2018-07-28T12:35:45Z</time>
      </trkpt>
      <trkpt lat="40.428583" lon="-5.293050">
        <ele>1994.0</ele>
        <time>2018-07-28T12:35:46Z</time>
      </trkpt>
      <trkpt lat="40.428500" lon="-5.293117">
        <ele>1992.0</ele>
        <time>2018-07-28T12:35:47Z</time>
      </trkpt>
      <trkpt lat="40.428400" lon="-5.293167">
        <ele>1991.0</ele>
        <time>2018-07-28T12:35:48Z</time>
      </trkpt>
      <trkpt lat="40.428283" lon="-5.293200">
        <ele>1989.0</ele>
        <time>2018-07-28T12:35:49Z</time>
      </trkpt>
      <trkpt lat="40.428167" lon="-5.293217">
        <ele>1988.0</ele>
        <time>2018-07-28T12:35:50Z</time>
      </trkpt>
      <trkpt lat="40.428050" lon="-5.293250">
        <ele>1987.0</ele>
        <time>2018-07-28T12:35:51Z</time>
      </trkpt>
      <trkpt lat="40.427967" lon="-5.293333">
        <ele>1986.0</ele>
        <time>2018-07-28T12:35:52Z</time>
      </trkpt>
      <trkpt lat="40.427917" lon="-5.293433">
        <ele>1983.0</ele>
        <time>2018-07-28T12:35:53Z</time>
      </trkpt>
      <trkpt lat="40.427883" lon="-5.293550">
        <ele>1980.0</ele>
        <time>2018-07-28T12:35:54Z</time>
      </trkpt>
      <trkpt lat="40.427900" lon="-5.293650">
        <ele>1979.0</ele>
        <time>2018-07-28T12:35:55Z</time>
      </trkpt>
      <trkpt lat="40.427917" lon="-5.293717">
        <ele>1978.0</ele>
        <time>2018-07-28T12:35:56Z</time>
      </trkpt>
      <trkpt lat="40.427967" lon="-5.293767">
        <ele>1978.0</ele>
        <time>2018-07-28T12:35:57Z</time>
      </trkpt>
      <trkpt lat="40.428017" lon="-5.293767">
        <ele>1976.0</ele>
        <time>2018-07-28T12:35:58Z</time>
      </trkpt>
      <trkpt lat="40.428083" lon="-5.293733">
        <ele>1974.0</ele>
        <time>2018-07-28T12:35:59Z</time>
      </trkpt>
      <trkpt lat="40.428150" lon="-5.293700">
        <ele>1972.0</ele>
        <time>2018-07-28T12:36:00Z</time>
      </trkpt>
      <trkpt lat="40.428200" lon="-5.293617">
        <ele>1971.0</ele>
        <time>2018-07-28T12:36:01Z</time>
      </trkpt>
      <trkpt lat="40.428250" lon="-5.293517">
        <ele>1971.0</ele>
        <time>2018-07-28T12:36:02Z</time>
      </trkpt>
      <trkpt lat="40.428300" lon="-5.293400">
        <ele>1973.0</ele>
        <time>2018-07-28T12:36:03Z</time>
      </trkpt>
      <trkpt lat="40.428317" lon="-5.293283">
        <ele>1974.0</ele>
        <time>2018-07-28T12:36:04Z</time>
      </trkpt>
      <trkpt lat="40.428333" lon="-5.293183">
        <ele>1975.0</ele>
        <time>2018-07-28T12:36:05Z</time>
      </trkpt>
      <trkpt lat="40.428350" lon="-5.293083">
        <ele>1974.0</ele>
        <time>2018-07-28T12:36:06Z</time>
      </trkpt>
      <trkpt lat="40.428383" lon="-5.292983">
        <ele>1973.0</ele>
        <time>2018-07-28T12:36:07Z</time>
      </trkpt>
      <trkpt lat="40.428417" lon="-5.292850">
        <ele>1971.0</ele>
        <time>2018-07-28T12:36:08Z</time>
      </trkpt>
      <trkpt lat="40.428450" lon="-5.292700">
        <ele>1970.0</ele>
        <time>2018-07-28T12:36:09Z</time>
      </trkpt>
      <trkpt lat="40.428467" lon="-5.292550">
        <ele>1968.0</ele>
        <time>2018-07-28T12:36:10Z</time>
      </trkpt>
      <trkpt lat="40.428467" lon="-5.292417">
        <ele>1967.0</ele>
        <time>2018-07-28T12:36:11Z</time>
      </trkpt>
      <trkpt lat="40.428500" lon="-5.292283">
        <ele>1965.0</ele>
        <time>2018-07-28T12:36:12Z</time>
      </trkpt>
      <trkpt lat="40.428533" lon="-5.292150">
        <ele>1962.0</ele>
        <time>2018-07-28T12:36:13Z</time>
      </trkpt>
      <trkpt lat="40.428600" lon="-5.292033">
        <ele>1960.0</ele>
        <time>2018-07-28T12:36:14Z</time>
      </trkpt>
      <trkpt lat="40.428650" lon="-5.291917">
        <ele>1959.0</ele>
        <time>2018-07-28T12:36:15Z</time>
      </trkpt>
      <trkpt lat="40.428717" lon="-5.291800">
        <ele>1958.0</ele>
        <time>2018-07-28T12:36:16Z</time>
      </trkpt>
      <trkpt lat="40.428767" lon="-5.291700">
        <ele>1957.0</ele>
        <time>2018-07-28T12:36:17Z</time>
      </trkpt>
      <trkpt lat="40.428817" lon="-5.291567">
        <ele>1955.0</ele>
        <time>2018-07-28T12:36:18Z</time>
      </trkpt>
      <trkpt lat="40.428867" lon="-5.291450">
        <ele>1953.0</ele>
        <time>2018-07-28T12:36:19Z</time>
      </trkpt>
      <trkpt lat="40.428917" lon="-5.291317">
        <ele>1951.0</ele>
        <time>2018-07-28T12:36:20Z</time>
      </trkpt>
      <trkpt lat="40.429000" lon="-5.291200">
        <ele>1949.0</ele>
        <time>2018-07-28T12:36:21Z</time>
      </trkpt>
      <trkpt lat="40.429067" lon="-5.291117">
        <ele>1948.0</ele>
        <time>2018-07-28T12:36:22Z</time>
      </trkpt>
      <trkpt lat="40.429167" lon="-5.291050">
        <ele>1948.0</ele>
        <time>2018-07-28T12:36:23Z</time>
      </trkpt>
      <trkpt lat="40.429250" lon="-5.290983">
        <ele>1950.0</ele>
        <time>2018-07-28T12:36:24Z</time>
      </trkpt>
      <trkpt lat="40.429333" lon="-5.290917">
        <ele>1952.0</ele>
        <time>2018-07-28T12:36:25Z</time>
      </trkpt>
      <trkpt lat="40.429400" lon="-5.290867">
        <ele>1955.0</ele>
        <time>2018-07-28T12:36:26Z</time>
      </trkpt>
      <trkpt lat="40.429450" lon="-5.290817">
        <ele>1958.0</ele>
        <time>2018-07-28T12:36:27Z</time>
      </trkpt>
      <trkpt lat="40.429517" lon="-5.290767">
        <ele>1960.0</ele>
        <time>2018-07-28T12:36:28Z</time>
      </trkpt>
      <trkpt lat="40.429600" lon="-5.290717">
        <ele>1962.0</ele>
        <time>2018-07-28T12:36:29Z</time>
      </trkpt>
      <trkpt lat="40.429667" lon="-5.290700">
        <ele>1963.0</ele>
        <time>2018-07-28T12:36:30Z</time>
      </trkpt>
      <trkpt lat="40.429733" lon="-5.290717">
        <ele>1965.0</ele>
        <time>2018-07-28T12:36:31Z</time>
      </trkpt>
      <trkpt lat="40.429767" lon="-5.290783">
        <ele>1966.0</ele>
        <time>2018-07-28T12:36:32Z</time>
      </trkpt>
      <trkpt lat="40.429767" lon="-5.290883">
        <ele>1968.0</ele>
        <time>2018-07-28T12:36:33Z</time>
      </trkpt>
      <trkpt lat="40.429700" lon="-5.290983">
        <ele>1969.0</ele>
        <time>2018-07-28T12:36:34Z</time>
      </trkpt>
      <trkpt lat="40.429600" lon="-5.291050">
        <ele>1969.0</ele>
        <time>2018-07-28T12:36:35Z</time>
      </trkpt>
      <trkpt lat="40.429483" lon="-5.291067">
        <ele>1970.0</ele>
        <time>2018-07-28T12:36:36Z</time>
      </trkpt>
      <trkpt lat="40.429350" lon="-5.291033">
        <ele>1971.0</ele>
        <time>2018-07-28T12:36:37Z</time>
      </trkpt>
      <trkpt lat="40.429217" lon="-5.290933">
        <ele>1973.0</ele>
        <time>2018-07-28T12:36:38Z</time>
      </trkpt>
      <trkpt lat="40.429133" lon="-5.290800">
        <ele>1975.0</ele>
        <time>2018-07-28T12:36:39Z</time>
      </trkpt>
      <trkpt lat="40.429083" lon="-5.290633">
        <ele>1976.0</ele>
        <time>2018-07-28T12:36:40Z</time>
      </trkpt>
      <trkpt lat="40.429083" lon="-5.290467">
        <ele>1977.0</ele>
        <time>2018-07-28T12:36:41Z</time>
      </trkpt>
      <trkpt lat="40.429117" lon="-5.290317">
        <ele>1978.0</ele>
        <time>2018-07-28T12:36:42Z</time>
      </trkpt>
      <trkpt lat="40.429200" lon="-5.290233">
        <ele>1979.0</ele>
        <time>2018-07-28T12:36:43Z</time>
      </trkpt>
      <trkpt lat="40.429300" lon="-5.290200">
        <ele>1980.0</ele>
        <time>2018-07-28T12:36:44Z</time>
      </trkpt>
      <trkpt lat="40.429367" lon="-5.290217">
        <ele>1982.0</ele>
        <time>2018-07-28T12:36:45Z</time>
      </trkpt>
      <trkpt lat="40.429417" lon="-5.290267">
        <ele>1985.0</ele>
        <time>2018-07-28T12:36:46Z</time>
      </trkpt>
      <trkpt lat="40.429417" lon="-5.290333">
        <ele>1988.0</ele>
        <time>2018-07-28T12:36:47Z</time>
      </trkpt>
      <trkpt lat="40.429400" lon="-5.290400">
        <ele>1991.0</ele>
        <time>2018-07-28T12:36:48Z</time>
      </trkpt>
      <trkpt lat="40.429350" lon="-5.290483">
        <ele>1993.0</ele>
        <time>2018-07-28T12:36:49Z</time>
      </trkpt>
      <trkpt lat="40.429267" lon="-5.290550">
        <ele>1994.0</ele>
        <time>2018-07-28T12:36:50Z</time>
      </trkpt>
      <trkpt lat="40.429150" lon="-5.290583">
        <ele>1994.0</ele>
        <time>2018-07-28T12:36:51Z</time>
      </trkpt>
      <trkpt lat="40.429017" lon="-5.290583">
        <ele>1996.0</ele>
        <time>2018-07-28T12:36:52Z</time>
      </trkpt>
      <trkpt lat="40.428883" lon="-5.290533">
        <ele>1999.0</ele>
        <time>2018-07-28T12:36:53Z</time>
      </trkpt>
      <trkpt lat="40.428783" lon="-5.290417">
        <ele>2002.0</ele>
        <time>2018-07-28T12:36:54Z</time>
      </trkpt>
      <trkpt lat="40.428717" lon="-5.290267">
        <ele>2002.0</ele>
        <time>2018-07-28T12:36:55Z</time>
      </trkpt>
      <trkpt lat="40.428700" lon="-5.290100">
        <ele>2002.0</ele>
        <time>2018-07-28T12:36:56Z</time>
      </trkpt>
      <trkpt lat="40.428717" lon="-5.289933">
        <ele>2004.0</ele>
        <time>2018-07-28T12:36:57Z</time>
      </trkpt>
      <trkpt lat="40.428767" lon="-5.289783">
        <ele>2006.0</ele>
        <time>2018-07-28T12:36:58Z</time>
      </trkpt>
      <trkpt lat="40.428833" lon="-5.289683">
        <ele>2009.0</ele>
        <time>2018-07-28T12:36:59Z</time>
      </trkpt>
      <trkpt lat="40.428917" lon="-5.289633">
        <ele>2011.0</ele>
        <time>2018-07-28T12:37:00Z</time>
      </trkpt>
      <trkpt lat="40.428983" lon="-5.289633">
        <ele>2012.0</ele>
        <time>2018-07-28T12:37:01Z</time>
      </trkpt>
      <trkpt lat="40.429050" lon="-5.289650">
        <ele>2013.0</ele>
        <time>2018-07-28T12:37:02Z</time>
      </trkpt>
      <trkpt lat="40.429067" lon="-5.289717">
        <ele>2015.0</ele>
        <time>2018-07-28T12:37:03Z</time>
      </trkpt>
      <trkpt lat="40.429067" lon="-5.289800">
        <ele>2016.0</ele>
        <time>2018-07-28T12:37:04Z</time>
      </trkpt>
      <trkpt lat="40.429017" lon="-5.289883">
        <ele>2017.0</ele>
        <time>2018-07-28T12:37:05Z</time>
      </trkpt>
      <trkpt lat="40.428950" lon="-5.289950">
        <ele>2018.0</ele>
        <time>2018-07-28T12:37:06Z</time>
      </trkpt>
      <trkpt lat="40.428833" lon="-5.290000">
        <ele>2019.0</ele>
        <time>2018-07-28T12:37:07Z</time>
      </trkpt>
      <trkpt lat="40.428717" lon="-5.290000">
        <ele>2021.0</ele>
        <time>2018-07-28T12:37:08Z</time>
      </trkpt>
      <trkpt lat="40.428583" lon="-5.289950">
        <ele>2023.0</ele>
        <time>2018-07-28T12:37:09Z</time>
      </trkpt>
      <trkpt lat="40.428450" lon="-5.289850">
        <ele>2025.0</ele>
        <time>2018-07-28T12:37:10Z</time>
      </trkpt>
      <trkpt lat="40.428383" lon="-5.289717">
        <ele>2027.0</ele>
        <time>2018-07-28T12:37:11Z</time>
      </trkpt>
      <trkpt lat="40.428350" lon="-5.289550">
        <ele>2028.0</ele>
        <time>2018-07-28T12:37:12Z</time>
      </trkpt>
      <trkpt lat="40.428367" lon="-5.289383">
        <ele>2028.0</ele>
        <time>2018-07-28T12:37:13Z</time>
      </trkpt>
      <trkpt lat="40.428417" lon="-5.289233">
        <ele>2030.0</ele>
        <time>2018-07-28T12:37:14Z</time>
      </trkpt>
      <trkpt lat="40.428483" lon="-5.289117">
        <ele>2032.0</ele>
        <time>2018-07-28T12:37:15Z</time>
      </trkpt>
      <trkpt lat="40.428550" lon="-5.289050">
        <ele>2035.0</ele>
        <time>2018-07-28T12:37:16Z</time>
      </trkpt>
      <trkpt lat="40.428633" lon="-5.289033">
        <ele>2036.0</ele>
        <time>2018-07-28T12:37:17Z</time>
      </trkpt>
      <trkpt lat="40.428683" lon="-5.289067">
        <ele>2036.0</ele>
        <time>2018-07-28T12:37:18Z</time>
      </trkpt>
      <trkpt lat="40.428733" lon="-5.289133">
        <ele>2036.0</ele>
        <time>2018-07-28T12:37:19Z</time>
      </trkpt>
      <trkpt lat="40.428733" lon="-5.289233">
        <ele>2036.0</ele>
        <time>2018-07-28T12:37:20Z</time>
      </trkpt>
      <trkpt lat="40.428700" lon="-5.289333">
        <ele>2037.0</ele>
        <time>2018-07-28T12:37:21Z</time>
      </trkpt>
      <trkpt lat="40.428617" lon="-5.289417">
        <ele>2037.0</ele>
        <time>2018-07-28T12:37:22Z</time>
      </trkpt>
      <trkpt lat="40.428500" lon="-5.289467">
        <ele>2038.0</ele>
        <time>2018-07-28T12:37:23Z</time>
      </trkpt>
      <trkpt lat="40.428367" lon="-5.289483">
        <ele>2040.0</ele>
        <time>2018-07-28T12:37:24Z</time>
      </trkpt>
      <trkpt lat="40.428233" lon="-5.289433">
        <ele>2042.0</ele>
        <time>2018-07-28T12:37:25Z</time>
      </trkpt>
      <trkpt lat="40.428117" lon="-5.289333">
        <ele>2045.0</ele>
        <time>2018-07-28T12:37:26Z</time>
      </trkpt>
      <trkpt lat="40.428033" lon="-5.289200">
        <ele>2048.0</ele>
        <time>2018-07-28T12:37:27Z</time>
      </trkpt>
      <trkpt lat="40.428000" lon="-5.289050">
        <ele>2049.0</ele>
        <time>2018-07-28T12:37:28Z</time>
      </trkpt>
      <trkpt lat="40.427983" lon="-5.288900">
        <ele>2050.0</ele>
        <time>2018-07-28T12:37:29Z</time>
      </trkpt>
      <trkpt lat="40.427967" lon="-5.288750">
        <ele>2051.0</ele>
        <time>2018-07-28T12:37:30Z</time>
      </trkpt>
      <trkpt lat="40.427983" lon="-5.288583">
        <ele>2052.0</ele>
        <time>2018-07-28T12:37:31Z</time>
      </trkpt>
      <trkpt lat="40.428017" lon="-5.288450">
        <ele>2053.0</ele>
        <time>2018-07-28T12:37:32Z</time>
      </trkpt>
      <trkpt lat="40.428083" lon="-5.288333">
        <ele>2054.0</ele>
        <time>2018-07-28T12:37:33Z</time>
      </trkpt>
      <trkpt lat="40.428150" lon="-5.288267">
        <ele>2055.0</ele>
        <time>2018-07-28T12:37:34Z</time>
      </trkpt>
      <trkpt lat="40.428233" lon="-5.288267">
        <ele>2055.0</ele>
        <time>2018-07-28T12:37:35Z</time>
      </trkpt>
      <trkpt lat="40.428300" lon="-5.288300">
        <ele>2054.0</ele>
        <time>2018-07-28T12:37:36Z</time>
      </trkpt>
      <trkpt lat="40.428350" lon="-5.288350">
        <ele>2052.0</ele>
        <time>2018-07-28T12:37:37Z</time>
      </trkpt>
      <trkpt lat="40.428417" lon="-5.288417">
        <ele>2052.0</ele>
        <time>2018-07-28T12:37:38Z</time>
      </trkpt>
      <trkpt lat="40.428483" lon="-5.288483">
        <ele>2051.0</ele>
        <time>2018-07-28T12:37:39Z</time>
      </trkpt>
      <trkpt lat="40.428550" lon="-5.288533">
        <ele>2051.0</ele>
        <time>2018-07-28T12:37:40Z</time>
      </trkpt>
      <trkpt lat="40.428600" lon="-5.288583">
        <ele>2052.0</ele>
        <time>2018-07-28T12:37:41Z</time>
      </trkpt>
      <trkpt lat="40.428650" lon="-5.288650">
        <ele>2052.0</ele>
        <time>2018-07-28T12:37:42Z</time>
      </trkpt>
      <trkpt lat="40.428683" lon="-5.288717">
        <ele>2052.0</ele>
        <time>2018-07-28T12:37:43Z</time>
      </trkpt>
      <trkpt lat="40.428750" lon="-5.288767">
        <ele>2050.0</ele>
        <time>2018-07-28T12:37:44Z</time>
      </trkpt>
      <trkpt lat="40.428817" lon="-5.288783">
        <ele>2049.0</ele>
        <time>2018-07-28T12:37:45Z</time>
      </trkpt>
      <trkpt lat="40.428867" lon="-5.288817">
        <ele>2048.0</ele>
        <time>2018-07-28T12:37:46Z</time>
      </trkpt>
      <trkpt lat="40.428933" lon="-5.288833">
        <ele>2047.0</ele>
        <time>2018-07-28T12:37:47Z</time>
      </trkpt>
      <trkpt lat="40.428983" lon="-5.288867">
        <ele>2047.0</ele>
        <time>2018-07-28T12:37:48Z</time>
      </trkpt>
      <trkpt lat="40.429033" lon="-5.288883">
        <ele>2046.0</ele>
        <time>2018-07-28T12:37:49Z</time>
      </trkpt>
      <trkpt lat="40.429083" lon="-5.288900">
        <ele>2044.0</ele>
        <time>2018-07-28T12:37:50Z</time>
      </trkpt>
      <trkpt lat="40.429150" lon="-5.288917">
        <ele>2042.0</ele>
        <time>2018-07-28T12:37:51Z</time>
      </trkpt>
      <trkpt lat="40.429217" lon="-5.288917">
        <ele>2040.0</ele>
        <time>2018-07-28T12:37:52Z</time>
      </trkpt>
      <trkpt lat="40.429300" lon="-5.288933">
        <ele>2039.0</ele>
        <time>2018-07-28T12:37:53Z</time>
      </trkpt>
      <trkpt lat="40.429383" lon="-5.288933">
        <ele>2039.0</ele>
        <time>2018-07-28T12:37:54Z</time>
      </trkpt>
      <trkpt lat="40.429450" lon="-5.288917">
        <ele>2039.0</ele>
        <time>2018-07-28T12:37:55Z</time>
      </trkpt>
      <trkpt lat="40.429517" lon="-5.288900">
        <ele>2038.0</ele>
        <time>2018-07-28T12:37:56Z</time>
      </trkpt>
      <trkpt lat="40.429583" lon="-5.288867">
        <ele>2037.0</ele>
        <time>2018-07-28T12:37:57Z</time>
      </trkpt>
      <trkpt lat="40.429667" lon="-5.288817">
        <ele>2037.0</ele>
        <time>2018-07-28T12:37:58Z</time>
      </trkpt>
      <trkpt lat="40.429733" lon="-5.288767">
        <ele>2036.0</ele>
        <time>2018-07-28T12:37:59Z</time>
      </trkpt>
      <trkpt lat="40.429817" lon="-5.288733">
        <ele>2036.0</ele>
        <time>2018-07-28T12:38:00Z</time>
      </trkpt>
      <trkpt lat="40.429883" lon="-5.288683">
        <ele>2035.0</ele>
        <time>2018-07-28T12:38:01Z</time>
      </trkpt>
      <trkpt lat="40.429967" lon="-5.288617">
        <ele>2034.0</ele>
        <time>2018-07-28T12:38:02Z</time>
      </trkpt>
      <trkpt lat="40.430033" lon="-5.288567">
        <ele>2033.0</ele>
        <time>2018-07-28T12:38:03Z</time>
      </trkpt>
      <trkpt lat="40.430133" lon="-5.288517">
        <ele>2031.0</ele>
        <time>2018-07-28T12:38:04Z</time>
      </trkpt>
      <trkpt lat="40.430217" lon="-5.288500">
        <ele>2030.0</ele>
        <time>2018-07-28T12:38:05Z</time>
      </trkpt>
      <trkpt lat="40.430317" lon="-5.288483">
        <ele>2029.0</ele>
        <time>2018-07-28T12:38:06Z</time>
      </trkpt>
      <trkpt lat="40.430400" lon="-5.288467">
        <ele>2029.0</ele>
        <time>2018-07-28T12:38:07Z</time>
      </trkpt>
      <trkpt lat="40.430483" lon="-5.288450">
        <ele>2029.0</ele>
        <time>2018-07-28T12:38:08Z</time>
      </trkpt>
      <trkpt lat="40.430567" lon="-5.288433">
        <ele>2029.0</ele>
        <time>2018-07-28T12:38:09Z</time>
      </trkpt>
      <trkpt lat="40.430650" lon="-5.288417">
        <ele>2029.0</ele>
        <time>2018-07-28T12:38:10Z</time>
      </trkpt>
      <trkpt lat="40.430717" lon="-5.288417">
        <ele>2029.0</ele>
        <time>2018-07-28T12:38:11Z</time>
      </trkpt>
      <trkpt lat="40.430800" lon="-5.288417">
        <ele>2028.0</ele>
        <time>2018-07-28T12:38:12Z</time>
      </trkpt>
      <trkpt lat="40.430867" lon="-5.288417">
        <ele>2027.0</ele>
        <time>2018-07-28T12:38:13Z</time>
      </trkpt>
      <trkpt lat="40.430950" lon="-5.288400">
        <ele>2026.0</ele>
        <time>2018-07-28T12:38:14Z</time>
      </trkpt>
      <trkpt lat="40.431050" lon="-5.288383">
        <ele>2026.0</ele>
        <time>2018-07-28T12:38:15Z</time>
      </trkpt>
      <trkpt lat="40.431117" lon="-5.288350">
        <ele>2027.0</ele>
        <time>2018-07-28T12:38:16Z</time>
      </trkpt>
      <trkpt lat="40.431200" lon="-5.288317">
        <ele>2028.0</ele>
        <time>2018-07-28T12:38:17Z</time>
      </trkpt>
      <trkpt lat="40.431267" lon="-5.288267">
        <ele>2029.0</ele>
        <time>2018-07-28T12:38:18Z</time>
      </trkpt>
      <trkpt lat="40.431333" lon="-5.288233">
        <ele>2029.0</ele>
        <time>2018-07-28T12:38:19Z</time>
      </trkpt>
      <trkpt lat="40.431400" lon="-5.288183">
        <ele>2029.0</ele>
        <time>2018-07-28T12:38:20Z</time>
      </trkpt>
      <trkpt lat="40.431483" lon="-5.288150">
        <ele>2028.0</ele>
        <time>2018-07-28T12:38:21Z</time>
      </trkpt>
      <trkpt lat="40.431567" lon="-5.288100">
        <ele>2028.0</ele>
        <time>2018-07-28T12:38:22Z</time>
      </trkpt>
      <trkpt lat="40.431650" lon="-5.288050">
        <ele>2028.0</ele>
        <time>2018-07-28T12:38:23Z</time>
      </trkpt>
      <trkpt lat="40.431717" lon="-5.288000">
        <ele>2028.0</ele>
        <time>2018-07-28T12:38:24Z</time>
      </trkpt>
      <trkpt lat="40.431800" lon="-5.287950">
        <ele>2027.0</ele>
        <time>2018-07-28T12:38:25Z</time>
      </trkpt>
      <trkpt lat="40.431867" lon="-5.287917">
        <ele>2026.0</ele>
        <time>2018-07-28T12:38:26Z</time>
      </trkpt>
      <trkpt lat="40.431950" lon="-5.287883">
        <ele>2024.0</ele>
        <time>2018-07-28T12:38:27Z</time>
      </trkpt>
      <trkpt lat="40.432033" lon="-5.287867">
        <ele>2022.0</ele>
        <time>2018-07-28T12:38:28Z</time>
      </trkpt>
      <trkpt lat="40.432117" lon="-5.287850">
        <ele>2021.0</ele>
        <time>2018-07-28T12:38:29Z</time>
      </trkpt>
      <trkpt lat="40.432183" lon="-5.287817">
        <ele>2021.0</ele>
        <time>2018-07-28T12:38:30Z</time>
      </trkpt>
      <trkpt lat="40.432250" lon="-5.287783">
        <ele>2021.0</ele>
        <time>2018-07-28T12:38:31Z</time>
      </trkpt>
      <trkpt lat="40.432317" lon="-5.287750">
        <ele>2021.0</ele>
        <time>2018-07-28T12:38:32Z</time>
      </trkpt>
      <trkpt lat="40.432383" lon="-5.287717">
        <ele>2020.0</ele>
        <time>2018-07-28T12:38:33Z</time>
      </trkpt>
      <trkpt lat="40.432467" lon="-5.287683">
        <ele>2018.0</ele>
        <time>2018-07-28T12:38:34Z</time>
      </trkpt>
      <trkpt lat="40.432533" lon="-5.287650">
        <ele>2017.0</ele>
        <time>2018-07-28T12:38:35Z</time>
      </trkpt>
      <trkpt lat="40.432617" lon="-5.287617">
        <ele>2016.0</ele>
        <time>2018-07-28T12:38:36Z</time>
      </trkpt>
      <trkpt lat="40.432683" lon="-5.287583">
        <ele>2015.0</ele>
        <time>2018-07-28T12:38:37Z</time>
      </trkpt>
      <trkpt lat="40.432767" lon="-5.287533">
        <ele>2015.0</ele>
        <time>2018-07-28T12:38:38Z</time>
      </trkpt>
      <trkpt lat="40.432833" lon="-5.287500">
        <ele>2014.0</ele>
        <time>2018-07-28T12:38:39Z</time>
      </trkpt>
      <trkpt lat="40.432917" lon="-5.287483">
        <ele>2014.0</ele>
        <time>2018-07-28T12:38:40Z</time>
      </trkpt>
      <trkpt lat="40.433000" lon="-5.287450">
        <ele>2014.0</ele>
        <time>2018-07-28T12:38:41Z</time>
      </trkpt>
      <trkpt lat="40.433083" lon="-5.287450">
        <ele>2013.0</ele>
        <time>2018-07-28T12:38:42Z</time>
      </trkpt>
      <trkpt lat="40.433150" lon="-5.287483">
        <ele>2014.0</ele>
        <time>2018-07-28T12:38:43Z</time>
      </trkpt>
      <trkpt lat="40.433233" lon="-5.287500">
        <ele>2016.0</ele>
        <time>2018-07-28T12:38:44Z</time>
      </trkpt>
      <trkpt lat="40.433317" lon="-5.287517">
        <ele>2018.0</ele>
        <time>2018-07-28T12:38:45Z</time>
      </trkpt>
      <trkpt lat="40.433400" lon="-5.287517">
        <ele>2019.0</ele>
        <time>2018-07-28T12:38:46Z</time>
      </trkpt>
      <trkpt lat="40.433467" lon="-5.287500">
        <ele>2020.0</ele>
        <time>2018-07-28T12:38:47Z</time>
      </trkpt>
      <trkpt lat="40.433550" lon="-5.287467">
        <ele>2020.0</ele>
        <time>2018-07-28T12:38:48Z</time>
      </trkpt>
      <trkpt lat="40.433633" lon="-5.287433">
        <ele>2020.0</ele>
        <time>2018-07-28T12:38:49Z</time>
      </trkpt>
      <trkpt lat="40.433717" lon="-5.287400">
        <ele>2019.0</ele>
        <time>2018-07-28T12:38:50Z</time>
      </trkpt>
      <trkpt lat="40.433800" lon="-5.287333">
        <ele>2019.0</ele>
        <time>2018-07-28T12:38:51Z</time>
      </trkpt>
      <trkpt lat="40.433883" lon="-5.287267">
        <ele>2019.0</ele>
        <time>2018-07-28T12:38:52Z</time>
      </trkpt>
      <trkpt lat="40.433967" lon="-5.287200">
        <ele>2018.0</ele>
        <time>2018-07-28T12:38:53Z</time>
      </trkpt>
      <trkpt lat="40.434050" lon="-5.287150">
        <ele>2017.0</ele>
        <time>2018-07-28T12:38:54Z</time>
      </trkpt>
      <trkpt lat="40.434133" lon="-5.287100">
        <ele>2015.0</ele>
        <time>2018-07-28T12:38:55Z</time>
      </trkpt>
      <trkpt lat="40.434217" lon="-5.287050">
        <ele>2013.0</ele>
        <time>2018-07-28T12:38:56Z</time>
      </trkpt>
      <trkpt lat="40.434300" lon="-5.287017">
        <ele>2011.0</ele>
        <time>2018-07-28T12:38:57Z</time>
      </trkpt>
      <trkpt lat="40.434383" lon="-5.287000">
        <ele>2010.0</ele>
        <time>2018-07-28T12:38:58Z</time>
      </trkpt>
      <trkpt lat="40.434467" lon="-5.286983">
        <ele>2010.0</ele>
        <time>2018-07-28T12:38:59Z</time>
      </trkpt>
      <trkpt lat="40.434533" lon="-5.286967">
        <ele>2009.0</ele>
        <time>2018-07-28T12:39:00Z</time>
      </trkpt>
      <trkpt lat="40.434600" lon="-5.286950">
        <ele>2009.0</ele>
        <time>2018-07-28T12:39:01Z</time>
      </trkpt>
      <trkpt lat="40.434683" lon="-5.286917">
        <ele>2007.0</ele>
        <time>2018-07-28T12:39:02Z</time>
      </trkpt>
      <trkpt lat="40.434767" lon="-5.286850">
        <ele>2005.0</ele>
        <time>2018-07-28T12:39:03Z</time>
      </trkpt>
      <trkpt lat="40.434850" lon="-5.286783">
        <ele>2003.0</ele>
        <time>2018-07-28T12:39:04Z</time>
      </trkpt>
      <trkpt lat="40.434933" lon="-5.286733">
        <ele>2002.0</ele>
        <time>2018-07-28T12:39:05Z</time>
      </trkpt>
      <trkpt lat="40.435017" lon="-5.286683">
        <ele>2002.0</ele>
        <time>2018-07-28T12:39:06Z</time>
      </trkpt>
      <trkpt lat="40.435117" lon="-5.286633">
        <ele>2002.0</ele>
        <time>2018-07-28T12:39:07Z</time>
      </trkpt>
      <trkpt lat="40.435200" lon="-5.286583">
        <ele>2003.0</ele>
        <time>2018-07-28T12:39:08Z</time>
      </trkpt>
      <trkpt lat="40.435283" lon="-5.286533">
        <ele>2005.0</ele>
        <time>2018-07-28T12:39:09Z</time>
      </trkpt>
      <trkpt lat="40.435350" lon="-5.286483">
        <ele>2006.0</ele>
        <time>2018-07-28T12:39:10Z</time>
      </trkpt>
      <trkpt lat="40.435417" lon="-5.286450">
        <ele>2008.0</ele>
        <time>2018-07-28T12:39:11Z</time>
      </trkpt>
      <trkpt lat="40.435483" lon="-5.286417">
        <ele>2010.0</ele>
        <time>2018-07-28T12:39:12Z</time>
      </trkpt>
      <trkpt lat="40.435567" lon="-5.286417">
        <ele>2012.0</ele>
        <time>2018-07-28T12:39:13Z</time>
      </trkpt>
      <trkpt lat="40.435633" lon="-5.286400">
        <ele>2014.0</ele>
        <time>2018-07-28T12:39:14Z</time>
      </trkpt>
      <trkpt lat="40.435683" lon="-5.286400">
        <ele>2015.0</ele>
        <time>2018-07-28T12:39:15Z</time>
      </trkpt>
      <trkpt lat="40.435733" lon="-5.286400">
        <ele>2016.0</ele>
        <time>2018-07-28T12:39:16Z</time>
      </trkpt>
      <trkpt lat="40.435750" lon="-5.286433">
        <ele>2015.0</ele>
        <time>2018-07-28T12:39:17Z</time>
      </trkpt>
      <trkpt lat="40.435750" lon="-5.286483">
        <ele>2014.0</ele>
        <time>2018-07-28T12:39:18Z</time>
      </trkpt>
      <trkpt lat="40.435717" lon="-5.286550">
        <ele>2011.0</ele>
        <time>2018-07-28T12:39:19Z</time>
      </trkpt>
      <trkpt lat="40.435650" lon="-5.286600">
        <ele>2009.0</ele>
        <time>2018-07-28T12:39:20Z</time>
      </trkpt>
      <trkpt lat="40.435533" lon="-5.286617">
        <ele>2008.0</ele>
        <time>2018-07-28T12:39:21Z</time>
      </trkpt>
      <trkpt lat="40.435417" lon="-5.286567">
        <ele>2007.0</ele>
        <time>2018-07-28T12:39:22Z</time>
      </trkpt>
      <trkpt lat="40.435300" lon="-5.286467">
        <ele>2006.0</ele>
        <time>2018-07-28T12:39:23Z</time>
      </trkpt>
      <trkpt lat="40.435217" lon="-5.286317">
        <ele>2006.0</ele>
        <time>2018-07-28T12:39:24Z</time>
      </trkpt>
      <trkpt lat="40.435167" lon="-5.286150">
        <ele>2005.0</ele>
        <time>2018-07-28T12:39:25Z</time>
      </trkpt>
      <trkpt lat="40.435167" lon="-5.285967">
        <ele>2005.0</ele>
        <time>2018-07-28T12:39:26Z</time>
      </trkpt>
      <trkpt lat="40.435200" lon="-5.285800">
        <ele>2005.0</ele>
        <time>2018-07-28T12:39:27Z</time>
      </trkpt>
      <trkpt lat="40.435267" lon="-5.285667">
        <ele>2006.0</ele>
        <time>2018-07-28T12:39:28Z</time>
      </trkpt>
      <trkpt lat="40.435350" lon="-5.285567">
        <ele>2009.0</ele>
        <time>2018-07-28T12:39:29Z</time>
      </trkpt>
      <trkpt lat="40.435400" lon="-5.285433">
        <ele>2013.0</ele>
        <time>2018-07-28T12:39:30Z</time>
      </trkpt>
      <trkpt lat="40.435433" lon="-5.285300">
        <ele>2016.0</ele>
        <time>2018-07-28T12:39:31Z</time>
      </trkpt>
      <trkpt lat="40.435467" lon="-5.285167">
        <ele>2018.0</ele>
        <time>2018-07-28T12:39:32Z</time>
      </trkpt>
      <trkpt lat="40.435500" lon="-5.285050">
        <ele>2018.0</ele>
        <time>2018-07-28T12:39:33Z</time>
      </trkpt>
      <trkpt lat="40.435550" lon="-5.284933">
        <ele>2017.0</ele>
        <time>2018-07-28T12:39:34Z</time>
      </trkpt>
      <trkpt lat="40.435600" lon="-5.284850">
        <ele>2013.0</ele>
        <time>2018-07-28T12:39:35Z</time>
      </trkpt>
      <trkpt lat="40.435683" lon="-5.284783">
        <ele>2010.0</ele>
        <time>2018-07-28T12:39:36Z</time>
      </trkpt>
      <trkpt lat="40.435767" lon="-5.284750">
        <ele>2007.0</ele>
        <time>2018-07-28T12:39:37Z</time>
      </trkpt>
      <trkpt lat="40.435850" lon="-5.284750">
        <ele>2005.0</ele>
        <time>2018-07-28T12:39:38Z</time>
      </trkpt>
      <trkpt lat="40.435917" lon="-5.284750">
        <ele>2003.0</ele>
        <time>2018-07-28T12:39:39Z</time>
      </trkpt>
      <trkpt lat="40.435983" lon="-5.284783">
        <ele>2002.0</ele>
        <time>2018-07-28T12:39:40Z</time>
      </trkpt>
      <trkpt lat="40.436033" lon="-5.284800">
        <ele>2000.0</ele>
        <time>2018-07-28T12:39:41Z</time>
      </trkpt>
      <trkpt lat="40.436100" lon="-5.284817">
        <ele>1998.0</ele>
        <time>2018-07-28T12:39:42Z</time>
      </trkpt>
      <trkpt lat="40.436167" lon="-5.284833">
        <ele>1997.0</ele>
        <time>2018-07-28T12:39:43Z</time>
      </trkpt>
      <trkpt lat="40.436217" lon="-5.284850">
        <ele>1996.0</ele>
        <time>2018-07-28T12:39:44Z</time>
      </trkpt>
      <trkpt lat="40.436283" lon="-5.284867">
        <ele>1995.0</ele>
        <time>2018-07-28T12:39:45Z</time>
      </trkpt>
      <trkpt lat="40.436350" lon="-5.284883">
        <ele>1994.0</ele>
        <time>2018-07-28T12:39:46Z</time>
      </trkpt>
      <trkpt lat="40.436417" lon="-5.284900">
        <ele>1993.0</ele>
        <time>2018-07-28T12:39:47Z</time>
      </trkpt>
      <trkpt lat="40.436483" lon="-5.284900">
        <ele>1992.0</ele>
        <time>2018-07-28T12:39:48Z</time>
      </trkpt>
      <trkpt lat="40.436567" lon="-5.284900">
        <ele>1991.0</ele>
        <time>2018-07-28T12:39:49Z</time>
      </trkpt>
      <trkpt lat="40.436633" lon="-5.284883">
        <ele>1991.0</ele>
        <time>2018-07-28T12:39:50Z</time>
      </trkpt>
      <trkpt lat="40.436700" lon="-5.284883">
        <ele>1990.0</ele>
        <time>2018-07-28T12:39:51Z</time>
      </trkpt>
      <trkpt lat="40.436767" lon="-5.284900">
        <ele>1989.0</ele>
        <time>2018-07-28T12:39:52Z</time>
      </trkpt>
      <trkpt lat="40.436850" lon="-5.284900">
        <ele>1987.0</ele>
        <time>2018-07-28T12:39:53Z</time>
      </trkpt>
      <trkpt lat="40.436917" lon="-5.284900">
        <ele>1986.0</ele>
        <time>2018-07-28T12:39:54Z</time>
      </trkpt>
      <trkpt lat="40.437000" lon="-5.284900">
        <ele>1985.0</ele>
        <time>2018-07-28T12:39:55Z</time>
      </trkpt>
      <trkpt lat="40.437083" lon="-5.284883">
        <ele>1983.0</ele>
        <time>2018-07-28T12:39:56Z</time>
      </trkpt>
      <trkpt lat="40.437150" lon="-5.284850">
        <ele>1982.0</ele>
        <time>2018-07-28T12:39:57Z</time>
      </trkpt>
      <trkpt lat="40.437217" lon="-5.284850">
        <ele>1982.0</ele>
        <time>2018-07-28T12:39:58Z</time>
      </trkpt>
      <trkpt lat="40.437283" lon="-5.284833">
        <ele>1980.0</ele>
        <time>2018-07-28T12:39:59Z</time>
      </trkpt>
      <trkpt lat="40.437367" lon="-5.284833">
        <ele>1979.0</ele>
        <time>2018-07-28T12:40:00Z</time>
      </trkpt>
      <trkpt lat="40.437433" lon="-5.284817">
        <ele>1978.0</ele>
        <time>2018-07-28T12:40:01Z</time>
      </trkpt>
      <trkpt lat="40.437517" lon="-5.284800">
        <ele>1976.0</ele>
        <time>2018-07-28T12:40:02Z</time>
      </trkpt>
      <trkpt lat="40.437617" lon="-5.284767">
        <ele>1976.0</ele>
        <time>2018-07-28T12:40:03Z</time>
      </trkpt>
      <trkpt lat="40.437700" lon="-5.284733">
        <ele>1975.0</ele>
        <time>2018-07-28T12:40:04Z</time>
      </trkpt>
      <trkpt lat="40.437767" lon="-5.284700">
        <ele>1975.0</ele>
        <time>2018-07-28T12:40:05Z</time>
      </trkpt>
      <trkpt lat="40.437850" lon="-5.284667">
        <ele>1973.0</ele>
        <time>2018-07-28T12:40:06Z</time>
      </trkpt>
      <trkpt lat="40.437933" lon="-5.284617">
        <ele>1971.0</ele>
        <time>2018-07-28T12:40:07Z</time>
      </trkpt>
      <trkpt lat="40.438017" lon="-5.284583">
        <ele>1969.0</ele>
        <time>2018-07-28T12:40:08Z</time>
      </trkpt>
      <trkpt lat="40.438100" lon="-5.284550">
        <ele>1967.0</ele>
        <time>2018-07-28T12:40:09Z</time>
      </trkpt>
      <trkpt lat="40.438183" lon="-5.284500">
        <ele>1967.0</ele>
        <time>2018-07-28T12:40:10Z</time>
      </trkpt>
      <trkpt lat="40.438267" lon="-5.284467">
        <ele>1967.0</ele>
        <time>2018-07-28T12:40:11Z</time>
      </trkpt>
      <trkpt lat="40.438333" lon="-5.284433">
        <ele>1966.0</ele>
        <time>2018-07-28T12:40:12Z</time>
      </trkpt>
      <trkpt lat="40.438417" lon="-5.284417">
        <ele>1964.0</ele>
        <time>2018-07-28T12:40:13Z</time>
      </trkpt>
      <trkpt lat="40.438500" lon="-5.284400">
        <ele>1961.0</ele>
        <time>2018-07-28T12:40:14Z</time>
      </trkpt>
      <trkpt lat="40.438600" lon="-5.284367">
        <ele>1959.0</ele>
        <time>2018-07-28T12:40:15Z</time>
      </trkpt>
      <trkpt lat="40.438683" lon="-5.284333">
        <ele>1958.0</ele>
        <time>2018-07-28T12:40:16Z</time>
      </trkpt>
      <trkpt lat="40.438767" lon="-5.284283">
        <ele>1958.0</ele>
        <time>2018-07-28T12:40:17Z</time>
      </trkpt>
      <trkpt lat="40.438850" lon="-5.284233">
        <ele>1957.0</ele>
        <time>2018-07-28T12:40:18Z</time>
      </trkpt>
      <trkpt lat="40.438933" lon="-5.284183">
        <ele>1956.0</ele>
        <time>2018-07-28T12:40:19Z</time>
      </trkpt>
      <trkpt lat="40.439000" lon="-5.284133">
        <ele>1953.0</ele>
        <time>2018-07-28T12:40:20Z</time>
      </trkpt>
      <trkpt lat="40.439100" lon="-5.284083">
        <ele>1950.0</ele>
        <time>2018-07-28T12:40:21Z</time>
      </trkpt>
      <trkpt lat="40.439183" lon="-5.284033">
        <ele>1948.0</ele>
        <time>2018-07-28T12:40:22Z</time>
      </trkpt>
      <trkpt lat="40.439300" lon="-5.283967">
        <ele>1947.0</ele>
        <time>2018-07-28T12:40:23Z</time>
      </trkpt>
      <trkpt lat="40.439400" lon="-5.283900">
        <ele>1947.0</ele>
        <time>2018-07-28T12:40:24Z</time>
      </trkpt>
      <trkpt lat="40.439517" lon="-5.283850">
        <ele>1949.0</ele>
        <time>2018-07-28T12:40:25Z</time>
      </trkpt>
      <trkpt lat="40.439617" lon="-5.283833">
        <ele>1951.0</ele>
        <time>2018-07-28T12:40:26Z</time>
      </trkpt>
      <trkpt lat="40.439700" lon="-5.283833">
        <ele>1951.0</ele>
        <time>2018-07-28T12:40:27Z</time>
      </trkpt>
      <trkpt lat="40.439817" lon="-5.283817">
        <ele>1951.0</ele>
        <time>2018-07-28T12:40:28Z</time>
      </trkpt>
      <trkpt lat="40.439917" lon="-5.283767">
        <ele>1949.0</ele>
        <time>2018-07-28T12:40:29Z</time>
      </trkpt>
      <trkpt lat="40.440033" lon="-5.283717">
        <ele>1947.0</ele>
        <time>2018-07-28T12:40:30Z</time>
      </trkpt>
      <trkpt lat="40.440133" lon="-5.283633">
        <ele>1946.0</ele>
        <time>2018-07-28T12:40:31Z</time>
      </trkpt>
      <trkpt lat="40.440233" lon="-5.283550">
        <ele>1946.0</ele>
        <time>2018-07-28T12:40:32Z</time>
      </trkpt>
      <trkpt lat="40.440333" lon="-5.283483">
        <ele>1946.0</ele>
        <time>2018-07-28T12:40:33Z</time>
      </trkpt>
      <trkpt lat="40.440417" lon="-5.283400">
        <ele>1945.0</ele>
        <time>2018-07-28T12:40:34Z</time>
      </trkpt>
      <trkpt lat="40.440517" lon="-5.283350">
        <ele>1944.0</ele>
        <time>2018-07-28T12:40:35Z</time>
      </trkpt>
      <trkpt lat="40.440600" lon="-5.283300">
        <ele>1944.0</ele>
        <time>2018-07-28T12:40:36Z</time>
      </trkpt>
      <trkpt lat="40.440683" lon="-5.283267">
        <ele>1942.0</ele>
        <time>2018-07-28T12:40:37Z</time>
      </trkpt>
      <trkpt lat="40.440783" lon="-5.283233">
        <ele>1941.0</ele>
        <time>2018-07-28T12:40:38Z</time>
      </trkpt>
      <trkpt lat="40.440867" lon="-5.283217">
        <ele>1939.0</ele>
        <time>2018-07-28T12:40:39Z</time>
      </trkpt>
      <trkpt lat="40.440950" lon="-5.283183">
        <ele>1937.0</ele>
        <time>2018-07-28T12:40:40Z</time>
      </trkpt>
      <trkpt lat="40.441050" lon="-5.283167">
        <ele>1934.0</ele>
        <time>2018-07-28T12:40:41Z</time>
      </trkpt>
      <trkpt lat="40.441150" lon="-5.283133">
        <ele>1931.0</ele>
        <time>2018-07-28T12:40:42Z</time>
      </trkpt>
      <trkpt lat="40.441267" lon="-5.283117">
        <ele>1929.0</ele>
        <time>2018-07-28T12:40:43Z</time>
      </trkpt>
      <trkpt lat="40.441383" lon="-5.283100">
        <ele>1928.0</ele>
        <time>2018-07-28T12:40:44Z</time>
      </trkpt>
      <trkpt lat="40.441500" lon="-5.283083">
        <ele>1928.0</ele>
        <time>2018-07-28T12:40:45Z</time>
      </trkpt>
      <trkpt lat="40.441600" lon="-5.283067">
        <ele>1929.0</ele>
        <time>2018-07-28T12:40:46Z</time>
      </trkpt>
      <trkpt lat="40.441700" lon="-5.283017">
        <ele>1930.0</ele>
        <time>2018-07-28T12:40:47Z</time>
      </trkpt>
      <trkpt lat="40.441800" lon="-5.282983">
        <ele>1931.0</ele>
        <time>2018-07-28T12:40:48Z</time>
      </trkpt>
      <trkpt lat="40.441900" lon="-5.282933">
        <ele>1931.0</ele>
        <time>2018-07-28T12:40:49Z</time>
      </trkpt>
      <trkpt lat="40.441983" lon="-5.282900">
        <ele>1931.0</ele>
        <time>2018-07-28T12:40:50Z</time>
      </trkpt>
      <trkpt lat="40.442067" lon="-5.282867">
        <ele>1931.0</ele>
        <time>2018-07-28T12:40:51Z</time>
      </trkpt>
      <trkpt lat="40.442150" lon="-5.282833">
        <ele>1929.0</ele>
        <time>2018-07-28T12:40:52Z</time>
      </trkpt>
      <trkpt lat="40.442250" lon="-5.282783">
        <ele>1928.0</ele>
        <time>2018-07-28T12:40:53Z</time>
      </trkpt>
      <trkpt lat="40.442333" lon="-5.282733">
        <ele>1926.0</ele>
        <time>2018-07-28T12:40:54Z</time>
      </trkpt>
      <trkpt lat="40.442433" lon="-5.282700">
        <ele>1925.0</ele>
        <time>2018-07-28T12:40:55Z</time>
      </trkpt>
      <trkpt lat="40.442500" lon="-5.282667">
        <ele>1924.0</ele>
        <time>2018-07-28T12:40:56Z</time>
      </trkpt>
      <trkpt lat="40.442583" lon="-5.282633">
        <ele>1923.0</ele>
        <time>2018-07-28T12:40:57Z</time>
      </trkpt>
      <trkpt lat="40.442667" lon="-5.282617">
        <ele>1921.0</ele>
        <time>2018-07-28T12:40:58Z</time>
      </trkpt>
      <trkpt lat="40.442750" lon="-5.282600">
        <ele>1919.0</ele>
        <time>2018-07-28T12:40:59Z</time>
      </trkpt>
      <trkpt lat="40.442867" lon="-5.282567">
        <ele>1917.0</ele>
        <time>2018-07-28T12:41:00Z</time>
      </trkpt>
      <trkpt lat="40.442983" lon="-5.282550">
        <ele>1917.0</ele>
        <time>2018-07-28T12:41:01Z</time>
      </trkpt>
      <trkpt lat="40.443100" lon="-5.282500">
        <ele>1919.0</ele>
        <time>2018-07-28T12:41:02Z</time>
      </trkpt>
      <trkpt lat="40.443183" lon="-5.282450">
        <ele>1923.0</ele>
        <time>2018-07-28T12:41:03Z</time>
      </trkpt>
      <trkpt lat="40.443250" lon="-5.282400">
        <ele>1926.0</ele>
        <time>2018-07-28T12:41:04Z</time>
      </trkpt>
      <trkpt lat="40.443317" lon="-5.282350">
        <ele>1927.0</ele>
        <time>2018-07-28T12:41:05Z</time>
      </trkpt>
      <trkpt lat="40.443367" lon="-5.282300">
        <ele>1927.0</ele>
        <time>2018-07-28T12:41:06Z</time>
      </trkpt>
      <trkpt lat="40.443450" lon="-5.282283">
        <ele>1924.0</ele>
        <time>2018-07-28T12:41:07Z</time>
      </trkpt>
      <trkpt lat="40.443533" lon="-5.282267">
        <ele>1921.0</ele>
        <time>2018-07-28T12:41:08Z</time>
      </trkpt>
      <trkpt lat="40.443633" lon="-5.282250">
        <ele>1918.0</ele>
        <time>2018-07-28T12:41:09Z</time>
      </trkpt>
      <trkpt lat="40.443750" lon="-5.282200">
        <ele>1916.0</ele>
        <time>2018-07-28T12:41:10Z</time>
      </trkpt>
      <trkpt lat="40.443867" lon="-5.282133">
        <ele>1916.0</ele>
        <time>2018-07-28T12:41:11Z</time>
      </trkpt>
      <trkpt lat="40.443950" lon="-5.282050">
        <ele>1918.0</ele>
        <time>2018-07-28T12:41:12Z</time>
      </trkpt>
      <trkpt lat="40.444033" lon="-5.282000">
        <ele>1922.0</ele>
        <time>2018-07-28T12:41:13Z</time>
      </trkpt>
      <trkpt lat="40.444117" lon="-5.281950">
        <ele>1924.0</ele>
        <time>2018-07-28T12:41:14Z</time>
      </trkpt>
      <trkpt lat="40.444183" lon="-5.281917">
        <ele>1925.0</ele>
        <time>2018-07-28T12:41:15Z</time>
      </trkpt>
      <trkpt lat="40.444267" lon="-5.281900">
        <ele>1924.0</ele>
        <time>2018-07-28T12:41:16Z</time>
      </trkpt>
      <trkpt lat="40.444350" lon="-5.281917">
        <ele>1925.0</ele>
        <time>2018-07-28T12:41:17Z</time>
      </trkpt>
      <trkpt lat="40.444417" lon="-5.281983">
        <ele>1926.0</ele>
        <time>2018-07-28T12:41:18Z</time>
      </trkpt>
      <trkpt lat="40.444450" lon="-5.282083">
        <ele>1927.0</ele>
        <time>2018-07-28T12:41:19Z</time>
      </trkpt>
      <trkpt lat="40.444417" lon="-5.282183">
        <ele>1928.0</ele>
        <time>2018-07-28T12:41:20Z</time>
      </trkpt>
      <trkpt lat="40.444317" lon="-5.282267">
        <ele>1928.0</ele>
        <time>2018-07-28T12:41:21Z</time>
      </trkpt>
      <trkpt lat="40.444200" lon="-5.282283">
        <ele>1930.0</ele>
        <time>2018-07-28T12:41:22Z</time>
      </trkpt>
      <trkpt lat="40.444083" lon="-5.282233">
        <ele>1934.0</ele>
        <time>2018-07-28T12:41:23Z</time>
      </trkpt>
      <trkpt lat="40.443983" lon="-5.282133">
        <ele>1937.0</ele>
        <time>2018-07-28T12:41:24Z</time>
      </trkpt>
      <trkpt lat="40.443900" lon="-5.282050">
        <ele>1940.0</ele>
        <time>2018-07-28T12:41:25Z</time>
      </trkpt>
      <trkpt lat="40.443833" lon="-5.281983">
        <ele>1943.0</ele>
        <time>2018-07-28T12:41:26Z</time>
      </trkpt>
      <trkpt lat="40.443750" lon="-5.281950">
        <ele>1944.0</ele>
        <time>2018-07-28T12:41:27Z</time>
      </trkpt>
      <trkpt lat="40.443667" lon="-5.281933">
        <ele>1944.0</ele>
        <time>2018-07-28T12:41:28Z</time>
      </trkpt>
      <trkpt lat="40.443600" lon="-5.281967">
        <ele>1944.0</ele>
        <time>2018-07-28T12:41:29Z</time>
      </trkpt>
      <trkpt lat="40.443550" lon="-5.282033">
        <ele>1944.0</ele>
        <time>2018-07-28T12:41:30Z</time>
      </trkpt>
      <trkpt lat="40.443533" lon="-5.282133">
        <ele>1944.0</ele>
        <time>2018-07-28T12:41:31Z</time>
      </trkpt>
      <trkpt lat="40.443550" lon="-5.282217">
        <ele>1944.0</ele>
        <time>2018-07-28T12:41:32Z</time>
      </trkpt>
      <trkpt lat="40.443617" lon="-5.282267">
        <ele>1945.0</ele>
        <time>2018-07-28T12:41:33Z</time>
      </trkpt>
      <trkpt lat="40.443683" lon="-5.282300">
        <ele>1946.0</ele>
        <time>2018-07-28T12:41:34Z</time>
      </trkpt>
      <trkpt lat="40.443767" lon="-5.282300">
        <ele>1947.0</ele>
        <time>2018-07-28T12:41:35Z</time>
      </trkpt>
      <trkpt lat="40.443850" lon="-5.282267">
        <ele>1948.0</ele>
        <time>2018-07-28T12:41:36Z</time>
      </trkpt>
      <trkpt lat="40.443933" lon="-5.282200">
        <ele>1949.0</ele>
        <time>2018-07-28T12:41:37Z</time>
      </trkpt>
      <trkpt lat="40.444017" lon="-5.282100">
        <ele>1950.0</ele>
        <time>2018-07-28T12:41:38Z</time>
      </trkpt>
      <trkpt lat="40.444067" lon="-5.281983">
        <ele>1952.0</ele>
        <time>2018-07-28T12:41:39Z</time>
      </trkpt>
      <trkpt lat="40.444100" lon="-5.281833">
        <ele>1954.0</ele>
        <time>2018-07-28T12:41:40Z</time>
      </trkpt>
      <trkpt lat="40.444100" lon="-5.281683">
        <ele>1955.0</ele>
        <time>2018-07-28T12:41:41Z</time>
      </trkpt>
      <trkpt lat="40.444067" lon="-5.281500">
        <ele>1955.0</ele>
        <time>2018-07-28T12:41:42Z</time>
      </trkpt>
      <trkpt lat="40.443983" lon="-5.281350">
        <ele>1956.0</ele>
        <time>2018-07-28T12:41:43Z</time>
      </trkpt>
      <trkpt lat="40.443883" lon="-5.281233">
        <ele>1958.0</ele>
        <time>2018-07-28T12:41:44Z</time>
      </trkpt>
      <trkpt lat="40.443767" lon="-5.281167">
        <ele>1960.0</ele>
        <time>2018-07-28T12:41:45Z</time>
      </trkpt>
      <trkpt lat="40.443667" lon="-5.281150">
        <ele>1962.0</ele>
        <time>2018-07-28T12:41:46Z</time>
      </trkpt>
      <trkpt lat="40.443567" lon="-5.281183">
        <ele>1964.0</ele>
        <time>2018-07-28T12:41:47Z</time>
      </trkpt>
      <trkpt lat="40.443500" lon="-5.281233">
        <ele>1966.0</ele>
        <time>2018-07-28T12:41:48Z</time>
      </trkpt>
      <trkpt lat="40.443467" lon="-5.281283">
        <ele>1967.0</ele>
        <time>2018-07-28T12:41:49Z</time>
      </trkpt>
      <trkpt lat="40.443450" lon="-5.281350">
        <ele>1968.0</ele>
        <time>2018-07-28T12:41:50Z</time>
      </trkpt>
      <trkpt lat="40.443450" lon="-5.281433">
        <ele>1966.0</ele>
        <time>2018-07-28T12:41:51Z</time>
      </trkpt>
      <trkpt lat="40.443483" lon="-5.281517">
        <ele>1965.0</ele>
        <time>2018-07-28T12:41:52Z</time>
      </trkpt>
      <trkpt lat="40.443533" lon="-5.281583">
        <ele>1965.0</ele>
        <time>2018-07-28T12:41:53Z</time>
      </trkpt>
      <trkpt lat="40.443617" lon="-5.281617">
        <ele>1965.0</ele>
        <time>2018-07-28T12:41:54Z</time>
      </trkpt>
      <trkpt lat="40.443683" lon="-5.281633">
        <ele>1966.0</ele>
        <time>2018-07-28T12:41:55Z</time>
      </trkpt>
      <trkpt lat="40.443767" lon="-5.281633">
        <ele>1968.0</ele>
        <time>2018-07-28T12:41:56Z</time>
      </trkpt>
      <trkpt lat="40.443850" lon="-5.281600">
        <ele>1971.0</ele>
        <time>2018-07-28T12:41:57Z</time>
      </trkpt>
      <trkpt lat="40.443917" lon="-5.281583">
        <ele>1974.0</ele>
        <time>2018-07-28T12:41:58Z</time>
      </trkpt>
      <trkpt lat="40.443983" lon="-5.281583">
        <ele>1977.0</ele>
        <time>2018-07-28T12:41:59Z</time>
      </trkpt>
      <trkpt lat="40.444050" lon="-5.281600">
        <ele>1978.0</ele>
        <time>2018-07-28T12:42:00Z</time>
      </trkpt>
      <trkpt lat="40.444117" lon="-5.281633">
        <ele>1980.0</ele>
        <time>2018-07-28T12:42:01Z</time>
      </trkpt>
      <trkpt lat="40.444183" lon="-5.281617">
        <ele>1981.0</ele>
        <time>2018-07-28T12:42:02Z</time>
      </trkpt>
      <trkpt lat="40.444250" lon="-5.281567">
        <ele>1981.0</ele>
        <time>2018-07-28T12:42:03Z</time>
      </trkpt>
      <trkpt lat="40.444333" lon="-5.281467">
        <ele>1980.0</ele>
        <time>2018-07-28T12:42:04Z</time>
      </trkpt>
      <trkpt lat="40.444383" lon="-5.281317">
        <ele>1979.0</ele>
        <time>2018-07-28T12:42:05Z</time>
      </trkpt>
      <trkpt lat="40.444417" lon="-5.281133">
        <ele>1979.0</ele>
        <time>2018-07-28T12:42:06Z</time>
      </trkpt>
      <trkpt lat="40.444383" lon="-5.280967">
        <ele>1981.0</ele>
        <time>2018-07-28T12:42:07Z</time>
      </trkpt>
      <trkpt lat="40.444317" lon="-5.280833">
        <ele>1982.0</ele>
        <time>2018-07-28T12:42:08Z</time>
      </trkpt>
      <trkpt lat="40.444233" lon="-5.280750">
        <ele>1982.0</ele>
        <time>2018-07-28T12:42:09Z</time>
      </trkpt>
      <trkpt lat="40.444150" lon="-5.280683">
        <ele>1981.0</ele>
        <time>2018-07-28T12:42:10Z</time>
      </trkpt>
      <trkpt lat="40.444050" lon="-5.280650">
        <ele>1980.0</ele>
        <time>2018-07-28T12:42:11Z</time>
      </trkpt>
      <trkpt lat="40.443933" lon="-5.280633">
        <ele>1979.0</ele>
        <time>2018-07-28T12:42:12Z</time>
      </trkpt>
      <trkpt lat="40.443833" lon="-5.280650">
        <ele>1978.0</ele>
        <time>2018-07-28T12:42:13Z</time>
      </trkpt>
      <trkpt lat="40.443733" lon="-5.280717">
        <ele>1978.0</ele>
        <time>2018-07-28T12:42:14Z</time>
      </trkpt>
      <trkpt lat="40.443650" lon="-5.280800">
        <ele>1978.0</ele>
        <time>2018-07-28T12:42:15Z</time>
      </trkpt>
      <trkpt lat="40.443600" lon="-5.280883">
        <ele>1981.0</ele>
        <time>2018-07-28T12:42:16Z</time>
      </trkpt>
      <trkpt lat="40.443583" lon="-5.280950">
        <ele>1985.0</ele>
        <time>2018-07-28T12:42:17Z</time>
      </trkpt>
      <trkpt lat="40.443583" lon="-5.281017">
        <ele>1988.0</ele>
        <time>2018-07-28T12:42:18Z</time>
      </trkpt>
      <trkpt lat="40.443600" lon="-5.281083">
        <ele>1989.0</ele>
        <time>2018-07-28T12:42:19Z</time>
      </trkpt>
      <trkpt lat="40.443650" lon="-5.281150">
        <ele>1989.0</ele>
        <time>2018-07-28T12:42:20Z</time>
      </trkpt>
      <trkpt lat="40.443717" lon="-5.281200">
        <ele>1990.0</ele>
        <time>2018-07-28T12:42:21Z</time>
      </trkpt>
      <trkpt lat="40.443783" lon="-5.281267">
        <ele>1993.0</ele>
        <time>2018-07-28T12:42:22Z</time>
      </trkpt>
      <trkpt lat="40.443850" lon="-5.281283">
        <ele>1996.0</ele>
        <time>2018-07-28T12:42:23Z</time>
      </trkpt>
      <trkpt lat="40.443933" lon="-5.281283">
        <ele>2000.0</ele>
        <time>2018-07-28T12:42:24Z</time>
      </trkpt>
      <trkpt lat="40.444000" lon="-5.281250">
        <ele>2002.0</ele>
        <time>2018-07-28T12:42:25Z</time>
      </trkpt>
      <trkpt lat="40.444067" lon="-5.281167">
        <ele>2003.0</ele>
        <time>2018-07-28T12:42:26Z</time>
      </trkpt>
      <trkpt lat="40.444133" lon="-5.281050">
        <ele>2004.0</ele>
        <time>2018-07-28T12:42:27Z</time>
      </trkpt>
      <trkpt lat="40.444183" lon="-5.280900">
        <ele>2004.0</ele>
        <time>2018-07-28T12:42:28Z</time>
      </trkpt>
      <trkpt lat="40.444217" lon="-5.280733">
        <ele>2005.0</ele>
        <time>2018-07-28T12:42:29Z</time>
      </trkpt>
      <trkpt lat="40.444250" lon="-5.280583">
        <ele>2006.0</ele>
        <time>2018-07-28T12:42:30Z</time>
      </trkpt>
      <trkpt lat="40.444300" lon="-5.280450">
        <ele>2006.0</ele>
        <time>2018-07-28T12:42:31Z</time>
      </trkpt>
      <trkpt lat="40.444367" lon="-5.280350">
        <ele>2005.0</ele>
        <time>2018-07-28T12:42:32Z</time>
      </trkpt>
      <trkpt lat="40.444450" lon="-5.280300">
        <ele>2004.0</ele>
        <time>2018-07-28T12:42:33Z</time>
      </trkpt>
      <trkpt lat="40.444533" lon="-5.280300">
        <ele>2003.0</ele>
        <time>2018-07-28T12:42:34Z</time>
      </trkpt>
      <trkpt lat="40.444600" lon="-5.280333">
        <ele>2002.0</ele>
        <time>2018-07-28T12:42:35Z</time>
      </trkpt>
      <trkpt lat="40.444650" lon="-5.280400">
        <ele>2002.0</ele>
        <time>2018-07-28T12:42:36Z</time>
      </trkpt>
      <trkpt lat="40.444683" lon="-5.280467">
        <ele>2003.0</ele>
        <time>2018-07-28T12:42:37Z</time>
      </trkpt>
      <trkpt lat="40.444717" lon="-5.280517">
        <ele>2004.0</ele>
        <time>2018-07-28T12:42:38Z</time>
      </trkpt>
      <trkpt lat="40.444750" lon="-5.280567">
        <ele>2005.0</ele>
        <time>2018-07-28T12:42:39Z</time>
      </trkpt>
      <trkpt lat="40.444800" lon="-5.280600">
        <ele>2006.0</ele>
        <time>2018-07-28T12:42:40Z</time>
      </trkpt>
      <trkpt lat="40.444867" lon="-5.280650">
        <ele>2007.0</ele>
        <time>2018-07-28T12:42:41Z</time>
      </trkpt>
      <trkpt lat="40.444917" lon="-5.280683">
        <ele>2008.0</ele>
        <time>2018-07-28T12:42:42Z</time>
      </trkpt>
      <trkpt lat="40.444950" lon="-5.280750">
        <ele>2009.0</ele>
        <time>2018-07-28T12:42:43Z</time>
      </trkpt>
      <trkpt lat="40.444950" lon="-5.280833">
        <ele>2010.0</ele>
        <time>2018-07-28T12:42:44Z</time>
      </trkpt>
      <trkpt lat="40.444917" lon="-5.280917">
        <ele>2010.0</ele>
        <time>2018-07-28T12:42:45Z</time>
      </trkpt>
      <trkpt lat="40.444833" lon="-5.280967">
        <ele>2009.0</ele>
        <time>2018-07-28T12:42:46Z</time>
      </trkpt>
      <trkpt lat="40.444733" lon="-5.280967">
        <ele>2008.0</ele>
        <time>2018-07-28T12:42:47Z</time>
      </trkpt>
      <trkpt lat="40.444617" lon="-5.280900">
        <ele>2007.0</ele>
        <time>2018-07-28T12:42:48Z</time>
      </trkpt>
      <trkpt lat="40.444517" lon="-5.280800">
        <ele>2007.0</ele>
        <time>2018-07-28T12:42:49Z</time>
      </trkpt>
      <trkpt lat="40.444433" lon="-5.280650">
        <ele>2008.0</ele>
        <time>2018-07-28T12:42:50Z</time>
      </trkpt>
      <trkpt lat="40.444400" lon="-5.280483">
        <ele>2009.0</ele>
        <time>2018-07-28T12:42:51Z</time>
      </trkpt>
      <trkpt lat="40.444383" lon="-5.280300">
        <ele>2008.0</ele>
        <time>2018-07-28T12:42:52Z</time>
      </trkpt>
      <trkpt lat="40.444400" lon="-5.280133">
        <ele>2007.0</ele>
        <time>2018-07-28T12:42:53Z</time>
      </trkpt>
      <trkpt lat="40.444450" lon="-5.279983">
        <ele>2006.0</ele>
        <time>2018-07-28T12:42:54Z</time>
      </trkpt>
      <trkpt lat="40.444533" lon="-5.279850">
        <ele>2004.0</ele>
        <time>2018-07-28T12:42:55Z</time>
      </trkpt>
      <trkpt lat="40.444633" lon="-5.279767">
        <ele>2004.0</ele>
        <time>2018-07-28T12:42:56Z</time>
      </trkpt>
      <trkpt lat="40.444717" lon="-5.279717">
        <ele>2004.0</ele>
        <time>2018-07-28T12:42:57Z</time>
      </trkpt>
      <trkpt lat="40.444800" lon="-5.279683">
        <ele>2005.0</ele>
        <time>2018-07-28T12:42:58Z</time>
      </trkpt>
      <trkpt lat="40.444867" lon="-5.279683">
        <ele>2005.0</ele>
        <time>2018-07-28T12:42:59Z</time>
      </trkpt>
      <trkpt lat="40.444933" lon="-5.279717">
        <ele>2004.0</ele>
        <time>2018-07-28T12:43:00Z</time>
      </trkpt>
      <trkpt lat="40.444983" lon="-5.279750">
        <ele>2002.0</ele>
        <time>2018-07-28T12:43:01Z</time>
      </trkpt>
      <trkpt lat="40.445050" lon="-5.279817">
        <ele>2001.0</ele>
        <time>2018-07-28T12:43:02Z</time>
      </trkpt>
      <trkpt lat="40.445117" lon="-5.279867">
        <ele>2000.0</ele>
        <time>2018-07-28T12:43:03Z</time>
      </trkpt>
      <trkpt lat="40.445183" lon="-5.279917">
        <ele>2000.0</ele>
        <time>2018-07-28T12:43:04Z</time>
      </trkpt>
      <trkpt lat="40.445250" lon="-5.279967">
        <ele>2000.0</ele>
        <time>2018-07-28T12:43:05Z</time>
      </trkpt>
      <trkpt lat="40.445317" lon="-5.280000">
        <ele>2001.0</ele>
        <time>2018-07-28T12:43:06Z</time>
      </trkpt>
      <trkpt lat="40.445383" lon="-5.280050">
        <ele>2002.0</ele>
        <time>2018-07-28T12:43:07Z</time>
      </trkpt>
      <trkpt lat="40.445450" lon="-5.280067">
        <ele>2003.0</ele>
        <time>2018-07-28T12:43:08Z</time>
      </trkpt>
      <trkpt lat="40.445517" lon="-5.280100">
        <ele>2005.0</ele>
        <time>2018-07-28T12:43:09Z</time>
      </trkpt>
      <trkpt lat="40.445583" lon="-5.280133">
        <ele>2005.0</ele>
        <time>2018-07-28T12:43:10Z</time>
      </trkpt>
      <trkpt lat="40.445650" lon="-5.280150">
        <ele>2005.0</ele>
        <time>2018-07-28T12:43:11Z</time>
      </trkpt>
      <trkpt lat="40.445717" lon="-5.280183">
        <ele>2004.0</ele>
        <time>2018-07-28T12:43:12Z</time>
      </trkpt>
      <trkpt lat="40.445783" lon="-5.280217">
        <ele>2002.0</ele>
        <time>2018-07-28T12:43:13Z</time>
      </trkpt>
      <trkpt lat="40.445850" lon="-5.280233">
        <ele>1999.0</ele>
        <time>2018-07-28T12:43:14Z</time>
      </trkpt>
      <trkpt lat="40.445950" lon="-5.280267">
        <ele>1996.0</ele>
        <time>2018-07-28T12:43:15Z</time>
      </trkpt>
      <trkpt lat="40.446033" lon="-5.280300">
        <ele>1994.0</ele>
        <time>2018-07-28T12:43:16Z</time>
      </trkpt>
      <trkpt lat="40.446133" lon="-5.280350">
        <ele>1993.0</ele>
        <time>2018-07-28T12:43:17Z</time>
      </trkpt>
      <trkpt lat="40.446217" lon="-5.280383">
        <ele>1991.0</ele>
        <time>2018-07-28T12:43:18Z</time>
      </trkpt>
      <trkpt lat="40.446317" lon="-5.280417">
        <ele>1988.0</ele>
        <time>2018-07-28T12:43:19Z</time>
      </trkpt>
      <trkpt lat="40.446417" lon="-5.280450">
        <ele>1986.0</ele>
        <time>2018-07-28T12:43:20Z</time>
      </trkpt>
      <trkpt lat="40.446517" lon="-5.280500">
        <ele>1984.0</ele>
        <time>2018-07-28T12:43:21Z</time>
      </trkpt>
      <trkpt lat="40.446600" lon="-5.280550">
        <ele>1982.0</ele>
        <time>2018-07-28T12:43:22Z</time>
      </trkpt>
      <trkpt lat="40.446683" lon="-5.280617">
        <ele>1981.0</ele>
        <time>2018-07-28T12:43:23Z</time>
      </trkpt>
      <trkpt lat="40.446767" lon="-5.280683">
        <ele>1980.0</ele>
        <time>2018-07-28T12:43:24Z</time>
      </trkpt>
      <trkpt lat="40.446833" lon="-5.280733">
        <ele>1980.0</ele>
        <time>2018-07-28T12:43:25Z</time>
      </trkpt>
      <trkpt lat="40.446917" lon="-5.280800">
        <ele>1978.0</ele>
        <time>2018-07-28T12:43:26Z</time>
      </trkpt>
      <trkpt lat="40.446983" lon="-5.280867">
        <ele>1976.0</ele>
        <time>2018-07-28T12:43:27Z</time>
      </trkpt>
      <trkpt lat="40.447067" lon="-5.280933">
        <ele>1974.0</ele>
        <time>2018-07-28T12:43:28Z</time>
      </trkpt>
      <trkpt lat="40.447150" lon="-5.281033">
        <ele>1971.0</ele>
        <time>2018-07-28T12:43:29Z</time>
      </trkpt>
      <trkpt lat="40.447233" lon="-5.281117">
        <ele>1970.0</ele>
        <time>2018-07-28T12:43:30Z</time>
      </trkpt>
      <trkpt lat="40.447317" lon="-5.281200">
        <ele>1970.0</ele>
        <time>2018-07-28T12:43:31Z</time>
      </trkpt>
      <trkpt lat="40.447383" lon="-5.281283">
        <ele>1969.0</ele>
        <time>2018-07-28T12:43:32Z</time>
      </trkpt>
      <trkpt lat="40.447450" lon="-5.281333">
        <ele>1969.0</ele>
        <time>2018-07-28T12:43:33Z</time>
      </trkpt>
      <trkpt lat="40.447517" lon="-5.281383">
        <ele>1967.0</ele>
        <time>2018-07-28T12:43:34Z</time>
      </trkpt>
      <trkpt lat="40.447600" lon="-5.281450">
        <ele>1964.0</ele>
        <time>2018-07-28T12:43:35Z</time>
      </trkpt>
      <trkpt lat="40.447667" lon="-5.281517">
        <ele>1962.0</ele>
        <time>2018-07-28T12:43:36Z</time>
      </trkpt>
      <trkpt lat="40.447733" lon="-5.281600">
        <ele>1959.0</ele>
        <time>2018-07-28T12:43:37Z</time>
      </trkpt>
      <trkpt lat="40.447800" lon="-5.281700">
        <ele>1957.0</ele>
        <time>2018-07-28T12:43:38Z</time>
      </trkpt>
      <trkpt lat="40.447850" lon="-5.281800">
        <ele>1956.0</ele>
        <time>2018-07-28T12:43:39Z</time>
      </trkpt>
      <trkpt lat="40.447900" lon="-5.281900">
        <ele>1955.0</ele>
        <time>2018-07-28T12:43:40Z</time>
      </trkpt>
      <trkpt lat="40.447950" lon="-5.282000">
        <ele>1955.0</ele>
        <time>2018-07-28T12:43:41Z</time>
      </trkpt>
      <trkpt lat="40.448000" lon="-5.282100">
        <ele>1954.0</ele>
        <time>2018-07-28T12:43:42Z</time>
      </trkpt>
      <trkpt lat="40.448050" lon="-5.282200">
        <ele>1954.0</ele>
        <time>2018-07-28T12:43:43Z</time>
      </trkpt>
      <trkpt lat="40.448100" lon="-5.282283">
        <ele>1954.0</ele>
        <time>2018-07-28T12:43:44Z</time>
      </trkpt>
      <trkpt lat="40.448150" lon="-5.282367">
        <ele>1955.0</ele>
        <time>2018-07-28T12:43:45Z</time>
      </trkpt>
      <trkpt lat="40.448200" lon="-5.282417">
        <ele>1954.0</ele>
        <time>2018-07-28T12:43:46Z</time>
      </trkpt>
      <trkpt lat="40.448250" lon="-5.282483">
        <ele>1953.0</ele>
        <time>2018-07-28T12:43:47Z</time>
      </trkpt>
      <trkpt lat="40.448283" lon="-5.282567">
        <ele>1950.0</ele>
        <time>2018-07-28T12:43:48Z</time>
      </trkpt>
      <trkpt lat="40.448333" lon="-5.282667">
        <ele>1947.0</ele>
        <time>2018-07-28T12:43:49Z</time>
      </trkpt>
      <trkpt lat="40.448350" lon="-5.282783">
        <ele>1945.0</ele>
        <time>2018-07-28T12:43:50Z</time>
      </trkpt>
      <trkpt lat="40.448383" lon="-5.282900">
        <ele>1945.0</ele>
        <time>2018-07-28T12:43:51Z</time>
      </trkpt>
      <trkpt lat="40.448417" lon="-5.283000">
        <ele>1945.0</ele>
        <time>2018-07-28T12:43:52Z</time>
      </trkpt>
      <trkpt lat="40.448467" lon="-5.283083">
        <ele>1947.0</ele>
        <time>2018-07-28T12:43:53Z</time>
      </trkpt>
      <trkpt lat="40.448500" lon="-5.283167">
        <ele>1948.0</ele>
        <time>2018-07-28T12:43:54Z</time>
      </trkpt>
      <trkpt lat="40.448533" lon="-5.283250">
        <ele>1948.0</ele>
        <time>2018-07-28T12:43:55Z</time>
      </trkpt>
      <trkpt lat="40.448567" lon="-5.283333">
        <ele>1948.0</ele>
        <time>2018-07-28T12:43:56Z</time>
      </trkpt>
      <trkpt lat="40.448617" lon="-5.283417">
        <ele>1947.0</ele>
        <time>2018-07-28T12:43:57Z</time>
      </trkpt>
      <trkpt lat="40.448650" lon="-5.283517">
        <ele>1945.0</ele>
        <time>2018-07-28T12:43:58Z</time>
      </trkpt>
      <trkpt lat="40.448700" lon="-5.283617">
        <ele>1944.0</ele>
        <time>2018-07-28T12:43:59Z</time>
      </trkpt>
      <trkpt lat="40.448733" lon="-5.283733">
        <ele>1943.0</ele>
        <time>2018-07-28T12:44:00Z</time>
      </trkpt>
      <trkpt lat="40.448750" lon="-5.283867">
        <ele>1942.0</ele>
        <time>2018-07-28T12:44:01Z</time>
      </trkpt>
      <trkpt lat="40.448750" lon="-5.283983">
        <ele>1945.0</ele>
        <time>2018-07-28T12:44:02Z</time>
      </trkpt>
      <trkpt lat="40.448733" lon="-5.284083">
        <ele>1948.0</ele>
        <time>2018-07-28T12:44:03Z</time>
      </trkpt>
      <trkpt lat="40.448717" lon="-5.284167">
        <ele>1951.0</ele>
        <time>2018-07-28T12:44:04Z</time>
      </trkpt>
      <trkpt lat="40.448717" lon="-5.284233">
        <ele>1952.0</ele>
        <time>2018-07-28T12:44:05Z</time>
      </trkpt>
      <trkpt lat="40.448717" lon="-5.284317">
        <ele>1953.0</ele>
        <time>2018-07-28T12:44:06Z</time>
      </trkpt>
      <trkpt lat="40.448733" lon="-5.284400">
        <ele>1952.0</ele>
        <time>2018-07-28T12:44:07Z</time>
      </trkpt>
      <trkpt lat="40.448733" lon="-5.284500">
        <ele>1952.0</ele>
        <time>2018-07-28T12:44:08Z</time>
      </trkpt>
      <trkpt lat="40.448733" lon="-5.284600">
        <ele>1954.0</ele>
        <time>2018-07-28T12:44:09Z</time>
      </trkpt>
      <trkpt lat="40.448717" lon="-5.284700">
        <ele>1956.0</ele>
        <time>2018-07-28T12:44:10Z</time>
      </trkpt>
      <trkpt lat="40.448700" lon="-5.284767">
        <ele>1957.0</ele>
        <time>2018-07-28T12:44:11Z</time>
      </trkpt>
      <trkpt lat="40.448700" lon="-5.284850">
        <ele>1958.0</ele>
        <time>2018-07-28T12:44:12Z</time>
      </trkpt>
      <trkpt lat="40.448717" lon="-5.284900">
        <ele>1958.0</ele>
        <time>2018-07-28T12:44:13Z</time>
      </trkpt>
      <trkpt lat="40.448767" lon="-5.284950">
        <ele>1958.0</ele>
        <time>2018-07-28T12:44:14Z</time>
      </trkpt>
      <trkpt lat="40.448817" lon="-5.285000">
        <ele>1959.0</ele>
        <time>2018-07-28T12:44:15Z</time>
      </trkpt>
      <trkpt lat="40.448850" lon="-5.285050">
        <ele>1961.0</ele>
        <time>2018-07-28T12:44:16Z</time>
      </trkpt>
      <trkpt lat="40.448867" lon="-5.285117">
        <ele>1964.0</ele>
        <time>2018-07-28T12:44:17Z</time>
      </trkpt>
      <trkpt lat="40.448867" lon="-5.285200">
        <ele>1967.0</ele>
        <time>2018-07-28T12:44:18Z</time>
      </trkpt>
      <trkpt lat="40.448850" lon="-5.285267">
        <ele>1970.0</ele>
        <time>2018-07-28T12:44:19Z</time>
      </trkpt>
      <trkpt lat="40.448867" lon="-5.285317">
        <ele>1972.0</ele>
        <time>2018-07-28T12:44:20Z</time>
      </trkpt>
      <trkpt lat="40.448900" lon="-5.285367">
        <ele>1973.0</ele>
        <time>2018-07-28T12:44:21Z</time>
      </trkpt>
      <trkpt lat="40.448950" lon="-5.285400">
        <ele>1975.0</ele>
        <time>2018-07-28T12:44:22Z</time>
      </trkpt>
      <trkpt lat="40.449000" lon="-5.285417">
        <ele>1976.0</ele>
        <time>2018-07-28T12:44:23Z</time>
      </trkpt>
      <trkpt lat="40.449067" lon="-5.285433">
        <ele>1979.0</ele>
        <time>2018-07-28T12:44:24Z</time>
      </trkpt>
      <trkpt lat="40.449150" lon="-5.285417">
        <ele>1982.0</ele>
        <time>2018-07-28T12:44:25Z</time>
      </trkpt>
      <trkpt lat="40.449217" lon="-5.285367">
        <ele>1985.0</ele>
        <time>2018-07-28T12:44:26Z</time>
      </trkpt>
      <trkpt lat="40.449300" lon="-5.285283">
        <ele>1988.0</ele>
        <time>2018-07-28T12:44:27Z</time>
      </trkpt>
      <trkpt lat="40.449350" lon="-5.285167">
        <ele>1990.0</ele>
        <time>2018-07-28T12:44:28Z</time>
      </trkpt>
      <trkpt lat="40.449383" lon="-5.285033">
        <ele>1993.0</ele>
        <time>2018-07-28T12:44:29Z</time>
      </trkpt>
      <trkpt lat="40.449400" lon="-5.284900">
        <ele>1995.0</ele>
        <time>2018-07-28T12:44:30Z</time>
      </trkpt>
      <trkpt lat="40.449383" lon="-5.284750">
        <ele>1996.0</ele>
        <time>2018-07-28T12:44:31Z</time>
      </trkpt>
      <trkpt lat="40.449350" lon="-5.284600">
        <ele>1996.0</ele>
        <time>2018-07-28T12:44:32Z</time>
      </trkpt>
      <trkpt lat="40.449317" lon="-5.284433">
        <ele>1996.0</ele>
        <time>2018-07-28T12:44:33Z</time>
      </trkpt>
      <trkpt lat="40.449250" lon="-5.284300">
        <ele>1997.0</ele>
        <time>2018-07-28T12:44:34Z</time>
      </trkpt>
      <trkpt lat="40.449150" lon="-5.284183">
        <ele>1998.0</ele>
        <time>2018-07-28T12:44:35Z</time>
      </trkpt>
      <trkpt lat="40.449050" lon="-5.284117">
        <ele>1999.0</ele>
        <time>2018-07-28T12:44:36Z</time>
      </trkpt>
      <trkpt lat="40.448950" lon="-5.284083">
        <ele>2000.0</ele>
        <time>2018-07-28T12:44:37Z</time>
      </trkpt>
      <trkpt lat="40.448833" lon="-5.284100">
        <ele>2002.0</ele>
        <time>2018-07-28T12:44:38Z</time>
      </trkpt>
      <trkpt lat="40.448733" lon="-5.284133">
        <ele>2003.0</ele>
        <time>2018-07-28T12:44:39Z</time>
      </trkpt>
      <trkpt lat="40.448650" lon="-5.284183">
        <ele>2005.0</ele>
        <time>2018-07-28T12:44:40Z</time>
      </trkpt>
      <trkpt lat="40.448567" lon="-5.284250">
        <ele>2007.0</ele>
        <time>2018-07-28T12:44:41Z</time>
      </trkpt>
      <trkpt lat="40.448500" lon="-5.284333">
        <ele>2009.0</ele>
        <time>2018-07-28T12:44:42Z</time>
      </trkpt>
      <trkpt lat="40.448467" lon="-5.284433">
        <ele>2011.0</ele>
        <time>2018-07-28T12:44:43Z</time>
      </trkpt>
      <trkpt lat="40.448450" lon="-5.284517">
        <ele>2012.0</ele>
        <time>2018-07-28T12:44:44Z</time>
      </trkpt>
      <trkpt lat="40.448467" lon="-5.284583">
        <ele>2014.0</ele>
        <time>2018-07-28T12:44:45Z</time>
      </trkpt>
      <trkpt lat="40.448517" lon="-5.284617">
        <ele>2014.0</ele>
        <time>2018-07-28T12:44:46Z</time>
      </trkpt>
      <trkpt lat="40.448583" lon="-5.284667">
        <ele>2014.0</ele>
        <time>2018-07-28T12:44:47Z</time>
      </trkpt>
      <trkpt lat="40.448667" lon="-5.284700">
        <ele>2015.0</ele>
        <time>2018-07-28T12:44:48Z</time>
      </trkpt>
      <trkpt lat="40.448733" lon="-5.284733">
        <ele>2018.0</ele>
        <time>2018-07-28T12:44:49Z</time>
      </trkpt>
      <trkpt lat="40.448800" lon="-5.284750">
        <ele>2022.0</ele>
        <time>2018-07-28T12:44:50Z</time>
      </trkpt>
      <trkpt lat="40.448883" lon="-5.284733">
        <ele>2025.0</ele>
        <time>2018-07-28T12:44:51Z</time>
      </trkpt>
      <trkpt lat="40.448983" lon="-5.284683">
        <ele>2028.0</ele>
        <time>2018-07-28T12:44:52Z</time>
      </trkpt>
      <trkpt lat="40.449067" lon="-5.284650">
        <ele>2031.0</ele>
        <time>2018-07-28T12:44:53Z</time>
      </trkpt>
      <trkpt lat="40.449150" lon="-5.284600">
        <ele>2033.0</ele>
        <time>2018-07-28T12:44:54Z</time>
      </trkpt>
      <trkpt lat="40.449233" lon="-5.284533">
        <ele>2036.0</ele>
        <time>2018-07-28T12:44:55Z</time>
      </trkpt>
      <trkpt lat="40.449300" lon="-5.284467">
        <ele>2040.0</ele>
        <time>2018-07-28T12:44:56Z</time>
      </trkpt>
      <trkpt lat="40.449367" lon="-5.284383">
        <ele>2042.0</ele>
        <time>2018-07-28T12:44:57Z</time>
      </trkpt>
      <trkpt lat="40.449400" lon="-5.284250">
        <ele>2043.0</ele>
        <time>2018-07-28T12:44:58Z</time>
      </trkpt>
      <trkpt lat="40.449433" lon="-5.284100">
        <ele>2044.0</ele>
        <time>2018-07-28T12:44:59Z</time>
      </trkpt>
      <trkpt lat="40.449433" lon="-5.283917">
        <ele>2044.0</ele>
        <time>2018-07-28T12:45:00Z</time>
      </trkpt>
      <trkpt lat="40.449400" lon="-5.283733">
        <ele>2046.0</ele>
        <time>2018-07-28T12:45:01Z</time>
      </trkpt>
      <trkpt lat="40.449350" lon="-5.283567">
        <ele>2048.0</ele>
        <time>2018-07-28T12:45:02Z</time>
      </trkpt>
      <trkpt lat="40.449283" lon="-5.283433">
        <ele>2050.0</ele>
        <time>2018-07-28T12:45:03Z</time>
      </trkpt>
      <trkpt lat="40.449183" lon="-5.283350">
        <ele>2052.0</ele>
        <time>2018-07-28T12:45:04Z</time>
      </trkpt>
      <trkpt lat="40.449083" lon="-5.283283">
        <ele>2054.0</ele>
        <time>2018-07-28T12:45:05Z</time>
      </trkpt>
      <trkpt lat="40.448983" lon="-5.283233">
        <ele>2055.0</ele>
        <time>2018-07-28T12:45:06Z</time>
      </trkpt>
      <trkpt lat="40.448883" lon="-5.283217">
        <ele>2057.0</ele>
        <time>2018-07-28T12:45:07Z</time>
      </trkpt>
      <trkpt lat="40.448783" lon="-5.283217">
        <ele>2059.0</ele>
        <time>2018-07-28T12:45:08Z</time>
      </trkpt>
      <trkpt lat="40.448683" lon="-5.283250">
        <ele>2060.0</ele>
        <time>2018-07-28T12:45:09Z</time>
      </trkpt>
      <trkpt lat="40.448583" lon="-5.283300">
        <ele>2062.0</ele>
        <time>2018-07-28T12:45:10Z</time>
      </trkpt>
      <trkpt lat="40.448500" lon="-5.283367">
        <ele>2064.0</ele>
        <time>2018-07-28T12:45:11Z</time>
      </trkpt>
      <trkpt lat="40.448450" lon="-5.283450">
        <ele>2066.0</ele>
        <time>2018-07-28T12:45:12Z</time>
      </trkpt>
      <trkpt lat="40.448433" lon="-5.283550">
        <ele>2068.0</ele>
        <time>2018-07-28T12:45:13Z</time>
      </trkpt>
      <trkpt lat="40.448433" lon="-5.283633">
        <ele>2070.0</ele>
        <time>2018-07-28T12:45:14Z</time>
      </trkpt>
      <trkpt lat="40.448467" lon="-5.283700">
        <ele>2072.0</ele>
        <time>2018-07-28T12:45:15Z</time>
      </trkpt>
      <trkpt lat="40.448533" lon="-5.283767">
        <ele>2075.0</ele>
        <time>2018-07-28T12:45:16Z</time>
      </trkpt>
      <trkpt lat="40.448600" lon="-5.283817">
        <ele>2079.0</ele>
        <time>2018-07-28T12:45:17Z</time>
      </trkpt>
      <trkpt lat="40.448667" lon="-5.283833">
        <ele>2083.0</ele>
        <time>2018-07-28T12:45:18Z</time>
      </trkpt>
      <trkpt lat="40.448750" lon="-5.283833">
        <ele>2086.0</ele>
        <time>2018-07-28T12:45:19Z</time>
      </trkpt>
      <trkpt lat="40.448833" lon="-5.283783">
        <ele>2089.0</ele>
        <time>2018-07-28T12:45:20Z</time>
      </trkpt>
      <trkpt lat="40.448933" lon="-5.283717">
        <ele>2091.0</ele>
        <time>2018-07-28T12:45:21Z</time>
      </trkpt>
      <trkpt lat="40.449017" lon="-5.283633">
        <ele>2093.0</ele>
        <time>2018-07-28T12:45:22Z</time>
      </trkpt>
      <trkpt lat="40.449083" lon="-5.283500">
        <ele>2096.0</ele>
        <time>2018-07-28T12:45:23Z</time>
      </trkpt>
      <trkpt lat="40.449133" lon="-5.283333">
        <ele>2098.0</ele>
        <time>2018-07-28T12:45:24Z</time>
      </trkpt>
      <trkpt lat="40.449150" lon="-5.283167">
        <ele>2101.0</ele>
        <time>2018-07-28T12:45:25Z</time>
      </trkpt>
      <trkpt lat="40.449150" lon="-5.283000">
        <ele>2104.0</ele>
        <time>2018-07-28T12:45:26Z</time>
      </trkpt>
      <trkpt lat="40.449117" lon="-5.282833">
        <ele>2107.0</ele>
        <time>2018-07-28T12:45:27Z</time>
      </trkpt>
      <trkpt lat="40.449050" lon="-5.282683">
        <ele>2108.0</ele>
        <time>2018-07-28T12:45:28Z</time>
      </trkpt>
      <trkpt lat="40.448967" lon="-5.282567">
        <ele>2110.0</ele>
        <time>2018-07-28T12:45:29Z</time>
      </trkpt>
      <trkpt lat="40.448883" lon="-5.282467">
        <ele>2112.0</ele>
        <time>2018-07-28T12:45:30Z</time>
      </trkpt>
      <trkpt lat="40.448783" lon="-5.282383">
        <ele>2114.0</ele>
        <time>2018-07-28T12:45:31Z</time>
      </trkpt>
      <trkpt lat="40.448700" lon="-5.282350">
        <ele>2116.0</ele>
        <time>2018-07-28T12:45:32Z</time>
      </trkpt>
      <trkpt lat="40.448600" lon="-5.282333">
        <ele>2117.0</ele>
        <time>2018-07-28T12:45:33Z</time>
      </trkpt>
      <trkpt lat="40.448500" lon="-5.282333">
        <ele>2120.0</ele>
        <time>2018-07-28T12:45:34Z</time>
      </trkpt>
      <trkpt lat="40.448417" lon="-5.282383">
        <ele>2122.0</ele>
        <time>2018-07-28T12:45:35Z</time>
      </trkpt>
      <trkpt lat="40.448350" lon="-5.282433">
        <ele>2125.0</ele>
        <time>2018-07-28T12:45:36Z</time>
      </trkpt>
      <trkpt lat="40.448283" lon="-5.282517">
        <ele>2128.0</ele>
        <time>2018-07-28T12:45:37Z</time>
      </trkpt>
      <trkpt lat="40.448267" lon="-5.282600">
        <ele>2132.0</ele>
        <time>2018-07-28T12:45:38Z</time>
      </trkpt>
      <trkpt lat="40.448250" lon="-5.282667">
        <ele>2136.0</ele>
        <time>2018-07-28T12:45:39Z</time>
      </trkpt>
      <trkpt lat="40.448267" lon="-5.282733">
        <ele>2140.0</ele>
        <time>2018-07-28T12:45:40Z</time>
      </trkpt>
      <trkpt lat="40.448283" lon="-5.282800">
        <ele>2144.0</ele>
        <time>2018-07-28T12:45:41Z</time>
      </trkpt>
      <trkpt lat="40.448317" lon="-5.282867">
        <ele>2147.0</ele>
        <time>2018-07-28T12:45:42Z</time>
      </trkpt>
      <trkpt lat="40.448350" lon="-5.282933">
        <ele>2151.0</ele>
        <time>2018-07-28T12:45:43Z</time>
      </trkpt>
      <trkpt lat="40.448400" lon="-5.283000">
        <ele>2155.0</ele>
        <time>2018-07-28T12:45:44Z</time>
      </trkpt>
      <trkpt lat="40.448467" lon="-5.283050">
        <ele>2159.0</ele>
        <time>2018-07-28T12:45:45Z</time>
      </trkpt>
      <trkpt lat="40.448550" lon="-5.283050">
        <ele>2163.0</ele>
        <time>2018-07-28T12:45:46Z</time>
      </trkpt>
      <trkpt lat="40.448633" lon="-5.283033">
        <ele>2167.0</ele>
        <time>2018-07-28T12:45:47Z</time>
      </trkpt>
      <trkpt lat="40.448700" lon="-5.282950">
        <ele>2170.0</ele>
        <time>2018-07-28T12:45:48Z</time>
      </trkpt>
      <trkpt lat="40.448767" lon="-5.282850">
        <ele>2172.0</ele>
        <time>2018-07-28T12:45:49Z</time>
      </trkpt>
      <trkpt lat="40.448817" lon="-5.282733">
        <ele>2173.0</ele>
        <time>2018-07-28T12:45:50Z</time>
      </trkpt>
      <trkpt lat="40.448850" lon="-5.282583">
        <ele>2175.0</ele>
        <time>2018-07-28T12:45:51Z</time>
      </trkpt>
      <trkpt lat="40.448867" lon="-5.282433">
        <ele>2176.0</ele>
        <time>2018-07-28T12:45:52Z</time>
      </trkpt>
      <trkpt lat="40.448850" lon="-5.282267">
        <ele>2177.0</ele>
        <time>2018-07-28T12:45:53Z</time>
      </trkpt>
      <trkpt lat="40.448800" lon="-5.282100">
        <ele>2179.0</ele>
        <time>2018-07-28T12:45:54Z</time>
      </trkpt>
      <trkpt lat="40.448733" lon="-5.281950">
        <ele>2181.0</ele>
        <time>2018-07-28T12:45:55Z</time>
      </trkpt>
      <trkpt lat="40.448650" lon="-5.281817">
        <ele>2183.0</ele>
        <time>2018-07-28T12:45:56Z</time>
      </trkpt>
      <trkpt lat="40.448550" lon="-5.281717">
        <ele>2185.0</ele>
        <time>2018-07-28T12:45:57Z</time>
      </trkpt>
      <trkpt lat="40.448450" lon="-5.281650">
        <ele>2187.0</ele>
        <time>2018-07-28T12:45:58Z</time>
      </trkpt>
      <trkpt lat="40.448333" lon="-5.281617">
        <ele>2189.0</ele>
        <time>2018-07-28T12:45:59Z</time>
      </trkpt>
      <trkpt lat="40.448233" lon="-5.281633">
        <ele>2191.0</ele>
        <time>2018-07-28T12:46:00Z</time>
      </trkpt>
      <trkpt lat="40.448133" lon="-5.281667">
        <ele>2194.0</ele>
        <time>2018-07-28T12:46:01Z</time>
      </trkpt>
      <trkpt lat="40.448050" lon="-5.281733">
        <ele>2199.0</ele>
        <time>2018-07-28T12:46:02Z</time>
      </trkpt>
      <trkpt lat="40.447983" lon="-5.281800">
        <ele>2205.0</ele>
        <time>2018-07-28T12:46:03Z</time>
      </trkpt>
      <trkpt lat="40.447933" lon="-5.281850">
        <ele>2210.0</ele>
        <time>2018-07-28T12:46:04Z</time>
      </trkpt>
      <trkpt lat="40.447917" lon="-5.281900">
        <ele>2215.0</ele>
        <time>2018-07-28T12:46:05Z</time>
      </trkpt>
      <trkpt lat="40.447883" lon="-5.281950">
        <ele>2218.0</ele>
        <time>2018-07-28T12:46:06Z</time>
      </trkpt>
      <trkpt lat="40.447883" lon="-5.282000">
        <ele>2220.0</ele>
        <time>2018-07-28T12:46:07Z</time>
      </trkpt>
      <trkpt lat="40.447883" lon="-5.282067">
        <ele>2221.0</ele>
        <time>2018-07-28T12:46:08Z</time>
      </trkpt>
      <trkpt lat="40.447917" lon="-5.282133">
        <ele>2222.0</ele>
        <time>2018-07-28T12:46:09Z</time>
      </trkpt>
      <trkpt lat="40.448000" lon="-5.282200">
        <ele>2223.0</ele>
        <time>2018-07-28T12:46:10Z</time>
      </trkpt>
      <trkpt lat="40.448100" lon="-5.282217">
        <ele>2225.0</ele>
        <time>2018-07-28T12:46:11Z</time>
      </trkpt>
      <trkpt lat="40.448217" lon="-5.282167">
        <ele>2228.0</ele>
        <time>2018-07-28T12:46:12Z</time>
      </trkpt>
      <trkpt lat="40.448317" lon="-5.282067">
        <ele>2231.0</ele>
        <time>2018-07-28T12:46:13Z</time>
      </trkpt>
      <trkpt lat="40.448400" lon="-5.281917">
        <ele>2235.0</ele>
        <time>2018-07-28T12:46:14Z</time>
      </trkpt>
      <trkpt lat="40.448433" lon="-5.281767">
        <ele>2238.0</ele>
        <time>2018-07-28T12:46:15Z</time>
      </trkpt>
      <trkpt lat="40.448450" lon="-5.281617">
        <ele>2241.0</ele>
        <time>2018-07-28T12:46:16Z</time>
      </trkpt>
      <trkpt lat="40.448467" lon="-5.281483">
        <ele>2243.0</ele>
        <time>2018-07-28T12:46:17Z</time>
      </trkpt>
      <trkpt lat="40.448483" lon="-5.281333">
        <ele>2245.0</ele>
        <time>2018-07-28T12:46:18Z</time>
      </trkpt>
      <trkpt lat="40.448483" lon="-5.281167">
        <ele>2245.0</ele>
        <time>2018-07-28T12:46:19Z</time>
      </trkpt>
      <trkpt lat="40.448450" lon="-5.280983">
        <ele>2245.0</ele>
        <time>2018-07-28T12:46:20Z</time>
      </trkpt>
      <trkpt lat="40.448383" lon="-5.280817">
        <ele>2246.0</ele>
        <time>2018-07-28T12:46:21Z</time>
      </trkpt>
      <trkpt lat="40.448300" lon="-5.280667">
        <ele>2247.0</ele>
        <time>2018-07-28T12:46:22Z</time>
      </trkpt>
      <trkpt lat="40.448183" lon="-5.280550">
        <ele>2249.0</ele>
        <time>2018-07-28T12:46:23Z</time>
      </trkpt>
      <trkpt lat="40.448067" lon="-5.280467">
        <ele>2251.0</ele>
        <time>2018-07-28T12:46:24Z</time>
      </trkpt>
      <trkpt lat="40.447967" lon="-5.280417">
        <ele>2255.0</ele>
        <time>2018-07-28T12:46:25Z</time>
      </trkpt>
      <trkpt lat="40.447850" lon="-5.280367">
        <ele>2258.0</ele>
        <time>2018-07-28T12:46:26Z</time>
      </trkpt>
      <trkpt lat="40.447750" lon="-5.280333">
        <ele>2262.0</ele>
        <time>2018-07-28T12:46:27Z</time>
      </trkpt>
      <trkpt lat="40.447650" lon="-5.280317">
        <ele>2265.0</ele>
        <time>2018-07-28T12:46:28Z</time>
      </trkpt>
      <trkpt lat="40.447567" lon="-5.280317">
        <ele>2267.0</ele>
        <time>2018-07-28T12:46:29Z</time>
      </trkpt>
      <trkpt lat="40.447500" lon="-5.280367">
        <ele>2269.0</ele>
        <time>2018-07-28T12:46:30Z</time>
      </trkpt>
      <trkpt lat="40.447417" lon="-5.280433">
        <ele>2270.0</ele>
        <time>2018-07-28T12:46:31Z</time>
      </trkpt>
      <trkpt lat="40.447367" lon="-5.280517">
        <ele>2273.0</ele>
        <time>2018-07-28T12:46:32Z</time>
      </trkpt>
      <trkpt lat="40.447317" lon="-5.280600">
        <ele>2277.0</ele>
        <time>2018-07-28T12:46:33Z</time>
      </trkpt>
      <trkpt lat="40.447283" lon="-5.280683">
        <ele>2280.0</ele>
        <time>2018-07-28T12:46:34Z</time>
      </trkpt>
      <trkpt lat="40.447283" lon="-5.280750">
        <ele>2282.0</ele>
        <time>2018-07-28T12:46:35Z</time>
      </trkpt>
      <trkpt lat="40.447317" lon="-5.280833">
        <ele>2282.0</ele>
        <time>2018-07-28T12:46:36Z</time>
      </trkpt>
      <trkpt lat="40.447333" lon="-5.280900">
        <ele>2283.0</ele>
        <time>2018-07-28T12:46:37Z</time>
      </trkpt>
      <trkpt lat="40.447383" lon="-5.280950">
        <ele>2283.0</ele>
        <time>2018-07-28T12:46:38Z</time>
      </trkpt>
      <trkpt lat="40.447433" lon="-5.281000">
        <ele>2283.0</ele>
        <time>2018-07-28T12:46:39Z</time>
      </trkpt>
      <trkpt lat="40.447500" lon="-5.281050">
        <ele>2282.0</ele>
        <time>2018-07-28T12:46:40Z</time>
      </trkpt>
      <trkpt lat="40.447600" lon="-5.281067">
        <ele>2282.0</ele>
        <time>2018-07-28T12:46:41Z</time>
      </trkpt>
      <trkpt lat="40.447700" lon="-5.281083">
        <ele>2282.0</ele>
        <time>2018-07-28T12:46:42Z</time>
      </trkpt>
      <trkpt lat="40.447817" lon="-5.281067">
        <ele>2285.0</ele>
        <time>2018-07-28T12:46:43Z</time>
      </trkpt>
      <trkpt lat="40.447933" lon="-5.281017">
        <ele>2289.0</ele>
        <time>2018-07-28T12:46:44Z</time>
      </trkpt>
      <trkpt lat="40.448017" lon="-5.280967">
        <ele>2294.0</ele>
        <time>2018-07-28T12:46:45Z</time>
      </trkpt>
      <trkpt lat="40.448117" lon="-5.280900">
        <ele>2298.0</ele>
        <time>2018-07-28T12:46:46Z</time>
      </trkpt>
      <trkpt lat="40.448200" lon="-5.280817">
        <ele>2300.0</ele>
        <time>2018-07-28T12:46:47Z</time>
      </trkpt>
      <trkpt lat="40.448267" lon="-5.280717">
        <ele>2301.0</ele>
        <time>2018-07-28T12:46:48Z</time>
      </trkpt>
      <trkpt lat="40.448333" lon="-5.280583">
        <ele>2302.0</ele>
        <time>2018-07-28T12:46:49Z</time>
      </trkpt>
      <trkpt lat="40.448383" lon="-5.280417">
        <ele>2302.0</ele>
        <time>2018-07-28T12:46:50Z</time>
      </trkpt>
      <trkpt lat="40.448400" lon="-5.280250">
        <ele>2302.0</ele>
        <time>2018-07-28T12:46:51Z</time>
      </trkpt>
      <trkpt lat="40.448417" lon="-5.280067">
        <ele>2302.0</ele>
        <time>2018-07-28T12:46:52Z</time>
      </trkpt>
      <trkpt lat="40.448417" lon="-5.279883">
        <ele>2303.0</ele>
        <time>2018-07-28T12:46:53Z</time>
      </trkpt>
      <trkpt lat="40.448417" lon="-5.279717">
        <ele>2304.0</ele>
        <time>2018-07-28T12:46:54Z</time>
      </trkpt>
      <trkpt lat="40.448400" lon="-5.279550">
        <ele>2305.0</ele>
        <time>2018-07-28T12:46:55Z</time>
      </trkpt>
      <trkpt lat="40.448367" lon="-5.279383">
        <ele>2306.0</ele>
        <time>2018-07-28T12:46:56Z</time>
      </trkpt>
      <trkpt lat="40.448333" lon="-5.279200">
        <ele>2307.0</ele>
        <time>2018-07-28T12:46:57Z</time>
      </trkpt>
      <trkpt lat="40.448300" lon="-5.279033">
        <ele>2307.0</ele>
        <time>2018-07-28T12:46:58Z</time>
      </trkpt>
      <trkpt lat="40.448233" lon="-5.278867">
        <ele>2309.0</ele>
        <time>2018-07-28T12:46:59Z</time>
      </trkpt>
      <trkpt lat="40.448167" lon="-5.278717">
        <ele>2310.0</ele>
        <time>2018-07-28T12:47:00Z</time>
      </trkpt>
      <trkpt lat="40.448100" lon="-5.278583">
        <ele>2312.0</ele>
        <time>2018-07-28T12:47:01Z</time>
      </trkpt>
      <trkpt lat="40.448017" lon="-5.278483">
        <ele>2313.0</ele>
        <time>2018-07-28T12:47:02Z</time>
      </trkpt>
      <trkpt lat="40.447917" lon="-5.278400">
        <ele>2314.0</ele>
        <time>2018-07-28T12:47:03Z</time>
      </trkpt>
      <trkpt lat="40.447817" lon="-5.278350">
        <ele>2315.0</ele>
        <time>2018-07-28T12:47:04Z</time>
      </trkpt>
      <trkpt lat="40.447700" lon="-5.278300">
        <ele>2317.0</ele>
        <time>2018-07-28T12:47:05Z</time>
      </trkpt>
      <trkpt lat="40.447583" lon="-5.278283">
        <ele>2320.0</ele>
        <time>2018-07-28T12:47:06Z</time>
      </trkpt>
      <trkpt lat="40.447483" lon="-5.278283">
        <ele>2324.0</ele>
        <time>2018-07-28T12:47:07Z</time>
      </trkpt>
      <trkpt lat="40.447400" lon="-5.278300">
        <ele>2327.0</ele>
        <time>2018-07-28T12:47:08Z</time>
      </trkpt>
      <trkpt lat="40.447333" lon="-5.278317">
        <ele>2329.0</ele>
        <time>2018-07-28T12:47:09Z</time>
      </trkpt>
      <trkpt lat="40.447283" lon="-5.278367">
        <ele>2330.0</ele>
        <time>2018-07-28T12:47:10Z</time>
      </trkpt>
      <trkpt lat="40.447233" lon="-5.278417">
        <ele>2331.0</ele>
        <time>2018-07-28T12:47:11Z</time>
      </trkpt>
      <trkpt lat="40.447200" lon="-5.278483">
        <ele>2332.0</ele>
        <time>2018-07-28T12:47:12Z</time>
      </trkpt>
      <trkpt lat="40.447183" lon="-5.278567">
        <ele>2334.0</ele>
        <time>2018-07-28T12:47:13Z</time>
      </trkpt>
      <trkpt lat="40.447200" lon="-5.278633">
        <ele>2337.0</ele>
        <time>2018-07-28T12:47:14Z</time>
      </trkpt>
      <trkpt lat="40.447217" lon="-5.278700">
        <ele>2338.0</ele>
        <time>2018-07-28T12:47:15Z</time>
      </trkpt>
      <trkpt lat="40.447267" lon="-5.278750">
        <ele>2339.0</ele>
        <time>2018-07-28T12:47:16Z</time>
      </trkpt>
      <trkpt lat="40.447333" lon="-5.278783">
        <ele>2339.0</ele>
        <time>2018-07-28T12:47:17Z</time>
      </trkpt>
      <trkpt lat="40.447417" lon="-5.278783">
        <ele>2341.0</ele>
        <time>2018-07-28T12:47:18Z</time>
      </trkpt>
      <trkpt lat="40.447500" lon="-5.278750">
        <ele>2342.0</ele>
        <time>2018-07-28T12:47:19Z</time>
      </trkpt>
      <trkpt lat="40.447583" lon="-5.278733">
        <ele>2344.0</ele>
        <time>2018-07-28T12:47:20Z</time>
      </trkpt>
      <trkpt lat="40.447683" lon="-5.278683">
        <ele>2346.0</ele>
        <time>2018-07-28T12:47:21Z</time>
      </trkpt>
      <trkpt lat="40.447767" lon="-5.278617">
        <ele>2347.0</ele>
        <time>2018-07-28T12:47:22Z</time>
      </trkpt>
      <trkpt lat="40.447867" lon="-5.278500">
        <ele>2347.0</ele>
        <time>2018-07-28T12:47:23Z</time>
      </trkpt>
      <trkpt lat="40.447950" lon="-5.278367">
        <ele>2348.0</ele>
        <time>2018-07-28T12:47:24Z</time>
      </trkpt>
      <trkpt lat="40.448017" lon="-5.278217">
        <ele>2349.0</ele>
        <time>2018-07-28T12:47:25Z</time>
      </trkpt>
      <trkpt lat="40.448067" lon="-5.278067">
        <ele>2350.0</ele>
        <time>2018-07-28T12:47:26Z</time>
      </trkpt>
      <trkpt lat="40.448100" lon="-5.277883">
        <ele>2350.0</ele>
        <time>2018-07-28T12:47:27Z</time>
      </trkpt>
      <trkpt lat="40.448133" lon="-5.277700">
        <ele>2351.0</ele>
        <time>2018-07-28T12:47:28Z</time>
      </trkpt>
      <trkpt lat="40.448150" lon="-5.277517">
        <ele>2352.0</ele>
        <time>2018-07-28T12:47:29Z</time>
      </trkpt>
      <trkpt lat="40.448167" lon="-5.277333">
        <ele>2354.0</ele>
        <time>2018-07-28T12:47:30Z</time>
      </trkpt>
      <trkpt lat="40.448167" lon="-5.277167">
        <ele>2355.0</ele>
        <time>2018-07-28T12:47:31Z</time>
      </trkpt>
      <trkpt lat="40.448150" lon="-5.277000">
        <ele>2357.0</ele>
        <time>2018-07-28T12:47:32Z</time>
      </trkpt>
      <trkpt lat="40.448117" lon="-5.276833">
        <ele>2358.0</ele>
        <time>2018-07-28T12:47:33Z</time>
      </trkpt>
      <trkpt lat="40.448083" lon="-5.276667">
        <ele>2359.0</ele>
        <time>2018-07-28T12:47:34Z</time>
      </trkpt>
      <trkpt lat="40.448017" lon="-5.276517">
        <ele>2360.0</ele>
        <time>2018-07-28T12:47:35Z</time>
      </trkpt>
      <trkpt lat="40.447950" lon="-5.276383">
        <ele>2363.0</ele>
        <time>2018-07-28T12:47:36Z</time>
      </trkpt>
      <trkpt lat="40.447867" lon="-5.276283">
        <ele>2365.0</ele>
        <time>2018-07-28T12:47:37Z</time>
      </trkpt>
      <trkpt lat="40.447783" lon="-5.276183">
        <ele>2366.0</ele>
        <time>2018-07-28T12:47:38Z</time>
      </trkpt>
      <trkpt lat="40.447683" lon="-5.276117">
        <ele>2366.0</ele>
        <time>2018-07-28T12:47:39Z</time>
      </trkpt>
      <trkpt lat="40.447567" lon="-5.276067">
        <ele>2365.0</ele>
        <time>2018-07-28T12:47:40Z</time>
      </trkpt>
      <trkpt lat="40.447467" lon="-5.276050">
        <ele>2366.0</ele>
        <time>2018-07-28T12:47:41Z</time>
      </trkpt>
      <trkpt lat="40.447350" lon="-5.276083">
        <ele>2367.0</ele>
        <time>2018-07-28T12:47:42Z</time>
      </trkpt>
      <trkpt lat="40.447267" lon="-5.276133">
        <ele>2369.0</ele>
        <time>2018-07-28T12:47:43Z</time>
      </trkpt>
      <trkpt lat="40.447200" lon="-5.276200">
        <ele>2372.0</ele>
        <time>2018-07-28T12:47:44Z</time>
      </trkpt>
      <trkpt lat="40.447150" lon="-5.276250">
        <ele>2376.0</ele>
        <time>2018-07-28T12:47:45Z</time>
      </trkpt>
      <trkpt lat="40.447100" lon="-5.276300">
        <ele>2378.0</ele>
        <time>2018-07-28T12:47:46Z</time>
      </trkpt>
      <trkpt lat="40.447050" lon="-5.276333">
        <ele>2381.0</ele>
        <time>2018-07-28T12:47:47Z</time>
      </trkpt>
      <trkpt lat="40.447017" lon="-5.276383">
        <ele>2382.0</ele>
        <time>2018-07-28T12:47:48Z</time>
      </trkpt>
      <trkpt lat="40.447000" lon="-5.276450">
        <ele>2383.0</ele>
        <time>2018-07-28T12:47:49Z</time>
      </trkpt>
      <trkpt lat="40.446967" lon="-5.276533">
        <ele>2385.0</ele>
        <time>2018-07-28T12:47:50Z</time>
      </trkpt>
      <trkpt lat="40.446967" lon="-5.276600">
        <ele>2388.0</ele>
        <time>2018-07-28T12:47:51Z</time>
      </trkpt>
      <trkpt lat="40.446967" lon="-5.276667">
        <ele>2390.0</ele>
        <time>2018-07-28T12:47:52Z</time>
      </trkpt>
      <trkpt lat="40.446967" lon="-5.276717">
        <ele>2393.0</ele>
        <time>2018-07-28T12:47:53Z</time>
      </trkpt>
      <trkpt lat="40.447000" lon="-5.276767">
        <ele>2395.0</ele>
        <time>2018-07-28T12:47:54Z</time>
      </trkpt>
      <trkpt lat="40.447050" lon="-5.276817">
        <ele>2397.0</ele>
        <time>2018-07-28T12:47:55Z</time>
      </trkpt>
      <trkpt lat="40.447133" lon="-5.276850">
        <ele>2398.0</ele>
        <time>2018-07-28T12:47:56Z</time>
      </trkpt>
      <trkpt lat="40.447217" lon="-5.276833">
        <ele>2400.0</ele>
        <time>2018-07-28T12:47:57Z</time>
      </trkpt>
      <trkpt lat="40.447317" lon="-5.276800">
        <ele>2402.0</ele>
        <time>2018-07-28T12:47:58Z</time>
      </trkpt>
      <trkpt lat="40.447417" lon="-5.276733">
        <ele>2404.0</ele>
        <time>2018-07-28T12:47:59Z</time>
      </trkpt>
      <trkpt lat="40.447500" lon="-5.276633">
        <ele>2406.0</ele>
        <time>2018-07-28T12:48:00Z</time>
      </trkpt>
      <trkpt lat="40.447567" lon="-5.276533">
        <ele>2407.0</ele>
        <time>2018-07-28T12:48:01Z</time>
      </trkpt>
      <trkpt lat="40.447650" lon="-5.276400">
        <ele>2409.0</ele>
        <time>2018-07-28T12:48:02Z</time>
      </trkpt>
      <trkpt lat="40.447700" lon="-5.276250">
        <ele>2409.0</ele>
        <time>2018-07-28T12:48:03Z</time>
      </trkpt>
      <trkpt lat="40.447750" lon="-5.276100">
        <ele>2410.0</ele>
        <time>2018-07-28T12:48:04Z</time>
      </trkpt>
      <trkpt lat="40.447750" lon="-5.275933">
        <ele>2409.0</ele>
        <time>2018-07-28T12:48:05Z</time>
      </trkpt>
      <trkpt lat="40.447733" lon="-5.275750">
        <ele>2408.0</ele>
        <time>2018-07-28T12:48:06Z</time>
      </trkpt>
      <trkpt lat="40.447700" lon="-5.275550">
        <ele>2408.0</ele>
        <time>2018-07-28T12:48:07Z</time>
      </trkpt>
      <trkpt lat="40.447650" lon="-5.275367">
        <ele>2409.0</ele>
        <time>2018-07-28T12:48:08Z</time>
      </trkpt>
      <trkpt lat="40.447567" lon="-5.275200">
        <ele>2411.0</ele>
        <time>2018-07-28T12:48:09Z</time>
      </trkpt>
      <trkpt lat="40.447500" lon="-5.275067">
        <ele>2414.0</ele>
        <time>2018-07-28T12:48:10Z</time>
      </trkpt>
      <trkpt lat="40.447417" lon="-5.274950">
        <ele>2416.0</ele>
        <time>2018-07-28T12:48:11Z</time>
      </trkpt>
      <trkpt lat="40.447333" lon="-5.274850">
        <ele>2418.0</ele>
        <time>2018-07-28T12:48:12Z</time>
      </trkpt>
      <trkpt lat="40.447250" lon="-5.274767">
        <ele>2419.0</ele>
        <time>2018-07-28T12:48:13Z</time>
      </trkpt>
      <trkpt lat="40.447167" lon="-5.274717">
        <ele>2420.0</ele>
        <time>2018-07-28T12:48:14Z</time>
      </trkpt>
      <trkpt lat="40.447083" lon="-5.274683">
        <ele>2420.0</ele>
        <time>2018-07-28T12:48:15Z</time>
      </trkpt>
      <trkpt lat="40.447017" lon="-5.274667">
        <ele>2421.0</ele>
        <time>2018-07-28T12:48:16Z</time>
      </trkpt>
      <trkpt lat="40.446933" lon="-5.274667">
        <ele>2421.0</ele>
        <time>2018-07-28T12:48:17Z</time>
      </trkpt>
      <trkpt lat="40.446883" lon="-5.274683">
        <ele>2421.0</ele>
        <time>2018-07-28T12:48:18Z</time>
      </trkpt>
      <trkpt lat="40.446817" lon="-5.274717">
        <ele>2420.0</ele>
        <time>2018-07-28T12:48:19Z</time>
      </trkpt>
      <trkpt lat="40.446783" lon="-5.274783">
        <ele>2418.0</ele>
        <time>2018-07-28T12:48:20Z</time>
      </trkpt>
      <trkpt lat="40.446750" lon="-5.274850">
        <ele>2418.0</ele>
        <time>2018-07-28T12:48:21Z</time>
      </trkpt>
      <trkpt lat="40.446733" lon="-5.274933">
        <ele>2419.0</ele>
        <time>2018-07-28T12:48:22Z</time>
      </trkpt>
      <trkpt lat="40.446733" lon="-5.275033">
        <ele>2421.0</ele>
        <time>2018-07-28T12:48:23Z</time>
      </trkpt>
      <trkpt lat="40.446767" lon="-5.275100">
        <ele>2424.0</ele>
        <time>2018-07-28T12:48:24Z</time>
      </trkpt>
      <trkpt lat="40.446800" lon="-5.275150">
        <ele>2427.0</ele>
        <time>2018-07-28T12:48:25Z</time>
      </trkpt>
      <trkpt lat="40.446850" lon="-5.275200">
        <ele>2429.0</ele>
        <time>2018-07-28T12:48:26Z</time>
      </trkpt>
      <trkpt lat="40.446900" lon="-5.275233">
        <ele>2430.0</ele>
        <time>2018-07-28T12:48:27Z</time>
      </trkpt>
      <trkpt lat="40.446950" lon="-5.275267">
        <ele>2430.0</ele>
        <time>2018-07-28T12:48:28Z</time>
      </trkpt>
      <trkpt lat="40.447000" lon="-5.275317">
        <ele>2429.0</ele>
        <time>2018-07-28T12:48:29Z</time>
      </trkpt>
      <trkpt lat="40.447067" lon="-5.275350">
        <ele>2429.0</ele>
        <time>2018-07-28T12:48:30Z</time>
      </trkpt>
      <trkpt lat="40.447150" lon="-5.275367">
        <ele>2430.0</ele>
        <time>2018-07-28T12:48:31Z</time>
      </trkpt>
      <trkpt lat="40.447233" lon="-5.275350">
        <ele>2431.0</ele>
        <time>2018-07-28T12:48:32Z</time>
      </trkpt>
      <trkpt lat="40.447317" lon="-5.275283">
        <ele>2431.0</ele>
        <time>2018-07-28T12:48:33Z</time>
      </trkpt>
      <trkpt lat="40.447400" lon="-5.275183">
        <ele>2430.0</ele>
        <time>2018-07-28T12:48:34Z</time>
      </trkpt>
      <trkpt lat="40.447483" lon="-5.275083">
        <ele>2430.0</ele>
        <time>2018-07-28T12:48:35Z</time>
      </trkpt>
      <trkpt lat="40.447567" lon="-5.275000">
        <ele>2430.0</ele>
        <time>2018-07-28T12:48:36Z</time>
      </trkpt>
      <trkpt lat="40.447650" lon="-5.274917">
        <ele>2431.0</ele>
        <time>2018-07-28T12:48:37Z</time>
      </trkpt>
      <trkpt lat="40.447733" lon="-5.274800">
        <ele>2431.0</ele>
        <time>2018-07-28T12:48:38Z</time>
      </trkpt>
      <trkpt lat="40.447800" lon="-5.274667">
        <ele>2430.0</ele>
        <time>2018-07-28T12:48:39Z</time>
      </trkpt>
      <trkpt lat="40.447850" lon="-5.274500">
        <ele>2428.0</ele>
        <time>2018-07-28T12:48:40Z</time>
      </trkpt>
      <trkpt lat="40.447900" lon="-5.274317">
        <ele>2427.0</ele>
        <time>2018-07-28T12:48:41Z</time>
      </trkpt>
      <trkpt lat="40.447917" lon="-5.274133">
        <ele>2427.0</ele>
        <time>2018-07-28T12:48:42Z</time>
      </trkpt>
      <trkpt lat="40.447900" lon="-5.273933">
        <ele>2428.0</ele>
        <time>2018-07-28T12:48:43Z</time>
      </trkpt>
      <trkpt lat="40.447850" lon="-5.273733">
        <ele>2429.0</ele>
        <time>2018-07-28T12:48:44Z</time>
      </trkpt>
      <trkpt lat="40.447800" lon="-5.273567">
        <ele>2431.0</ele>
        <time>2018-07-28T12:48:45Z</time>
      </trkpt>
      <trkpt lat="40.447717" lon="-5.273400">
        <ele>2433.0</ele>
        <time>2018-07-28T12:48:46Z</time>
      </trkpt>
      <trkpt lat="40.447667" lon="-5.273250">
        <ele>2435.0</ele>
        <time>2018-07-28T12:48:47Z</time>
      </trkpt>
      <trkpt lat="40.447600" lon="-5.273100">
        <ele>2437.0</ele>
        <time>2018-07-28T12:48:48Z</time>
      </trkpt>
      <trkpt lat="40.447550" lon="-5.272967">
        <ele>2437.0</ele>
        <time>2018-07-28T12:48:49Z</time>
      </trkpt>
      <trkpt lat="40.447483" lon="-5.272833">
        <ele>2437.0</ele>
        <time>2018-07-28T12:48:50Z</time>
      </trkpt>
      <trkpt lat="40.447400" lon="-5.272733">
        <ele>2436.0</ele>
        <time>2018-07-28T12:48:51Z</time>
      </trkpt>
      <trkpt lat="40.447317" lon="-5.272667">
        <ele>2434.0</ele>
        <time>2018-07-28T12:48:52Z</time>
      </trkpt>
      <trkpt lat="40.447217" lon="-5.272617">
        <ele>2432.0</ele>
        <time>2018-07-28T12:48:53Z</time>
      </trkpt>
      <trkpt lat="40.447133" lon="-5.272617">
        <ele>2429.0</ele>
        <time>2018-07-28T12:48:54Z</time>
      </trkpt>
      <trkpt lat="40.447050" lon="-5.272667">
        <ele>2426.0</ele>
        <time>2018-07-28T12:48:55Z</time>
      </trkpt>
      <trkpt lat="40.447000" lon="-5.272733">
        <ele>2423.0</ele>
        <time>2018-07-28T12:48:56Z</time>
      </trkpt>
      <trkpt lat="40.446983" lon="-5.272817">
        <ele>2423.0</ele>
        <time>2018-07-28T12:48:57Z</time>
      </trkpt>
      <trkpt lat="40.446967" lon="-5.272883">
        <ele>2423.0</ele>
        <time>2018-07-28T12:48:58Z</time>
      </trkpt>
      <trkpt lat="40.446917" lon="-5.272933">
        <ele>2424.0</ele>
        <time>2018-07-28T12:48:59Z</time>
      </trkpt>
      <trkpt lat="40.446867" lon="-5.272983">
        <ele>2424.0</ele>
        <time>2018-07-28T12:49:00Z</time>
      </trkpt>
      <trkpt lat="40.446817" lon="-5.273017">
        <ele>2423.0</ele>
        <time>2018-07-28T12:49:01Z</time>
      </trkpt>
      <trkpt lat="40.446800" lon="-5.273083">
        <ele>2422.0</ele>
        <time>2018-07-28T12:49:02Z</time>
      </trkpt>
      <trkpt lat="40.446800" lon="-5.273167">
        <ele>2421.0</ele>
        <time>2018-07-28T12:49:03Z</time>
      </trkpt>
      <trkpt lat="40.446833" lon="-5.273250">
        <ele>2421.0</ele>
        <time>2018-07-28T12:49:04Z</time>
      </trkpt>
      <trkpt lat="40.446867" lon="-5.273300">
        <ele>2423.0</ele>
        <time>2018-07-28T12:49:05Z</time>
      </trkpt>
      <trkpt lat="40.446900" lon="-5.273350">
        <ele>2424.0</ele>
        <time>2018-07-28T12:49:06Z</time>
      </trkpt>
      <trkpt lat="40.446933" lon="-5.273383">
        <ele>2425.0</ele>
        <time>2018-07-28T12:49:07Z</time>
      </trkpt>
      <trkpt lat="40.446983" lon="-5.273417">
        <ele>2425.0</ele>
        <time>2018-07-28T12:49:08Z</time>
      </trkpt>
      <trkpt lat="40.447033" lon="-5.273467">
        <ele>2425.0</ele>
        <time>2018-07-28T12:49:09Z</time>
      </trkpt>
      <trkpt lat="40.447117" lon="-5.273500">
        <ele>2425.0</ele>
        <time>2018-07-28T12:49:10Z</time>
      </trkpt>
      <trkpt lat="40.447183" lon="-5.273517">
        <ele>2425.0</ele>
        <time>2018-07-28T12:49:11Z</time>
      </trkpt>
      <trkpt lat="40.447267" lon="-5.273533">
        <ele>2426.0</ele>
        <time>2018-07-28T12:49:12Z</time>
      </trkpt>
      <trkpt lat="40.447333" lon="-5.273550">
        <ele>2427.0</ele>
        <time>2018-07-28T12:49:13Z</time>
      </trkpt>
      <trkpt lat="40.447417" lon="-5.273567">
        <ele>2427.0</ele>
        <time>2018-07-28T12:49:14Z</time>
      </trkpt>
      <trkpt lat="40.447500" lon="-5.273583">
        <ele>2426.0</ele>
        <time>2018-07-28T12:49:15Z</time>
      </trkpt>
      <trkpt lat="40.447583" lon="-5.273583">
        <ele>2426.0</ele>
        <time>2018-07-28T12:49:16Z</time>
      </trkpt>
      <trkpt lat="40.447700" lon="-5.273600">
        <ele>2427.0</ele>
        <time>2018-07-28T12:49:17Z</time>
      </trkpt>
      <trkpt lat="40.447800" lon="-5.273617">
        <ele>2429.0</ele>
        <time>2018-07-28T12:49:18Z</time>
      </trkpt>
      <trkpt lat="40.447883" lon="-5.273650">
        <ele>2432.0</ele>
        <time>2018-07-28T12:49:19Z</time>
      </trkpt>
      <trkpt lat="40.447983" lon="-5.273683">
        <ele>2434.0</ele>
        <time>2018-07-28T12:49:20Z</time>
      </trkpt>
      <trkpt lat="40.448067" lon="-5.273717">
        <ele>2435.0</ele>
        <time>2018-07-28T12:49:21Z</time>
      </trkpt>
      <trkpt lat="40.448150" lon="-5.273733">
        <ele>2436.0</ele>
        <time>2018-07-28T12:49:22Z</time>
      </trkpt>
      <trkpt lat="40.448250" lon="-5.273767">
        <ele>2436.0</ele>
        <time>2018-07-28T12:49:23Z</time>
      </trkpt>
      <trkpt lat="40.448350" lon="-5.273783">
        <ele>2437.0</ele>
        <time>2018-07-28T12:49:24Z</time>
      </trkpt>
      <trkpt lat="40.448433" lon="-5.273800">
        <ele>2438.0</ele>
        <time>2018-07-28T12:49:25Z</time>
      </trkpt>
      <trkpt lat="40.448533" lon="-5.273817">
        <ele>2440.0</ele>
        <time>2018-07-28T12:49:26Z</time>
      </trkpt>
      <trkpt lat="40.448633" lon="-5.273817">
        <ele>2441.0</ele>
        <time>2018-07-28T12:49:27Z</time>
      </trkpt>
      <trkpt lat="40.448733" lon="-5.273800">
        <ele>2443.0</ele>
        <time>2018-07-28T12:49:28Z</time>
      </trkpt>
      <trkpt lat="40.448833" lon="-5.273767">
        <ele>2443.0</ele>
        <time>2018-07-28T12:49:29Z</time>
      </trkpt>
      <trkpt lat="40.448917" lon="-5.273733">
        <ele>2443.0</ele>
        <time>2018-07-28T12:49:30Z</time>
      </trkpt>
      <trkpt lat="40.449000" lon="-5.273650">
        <ele>2442.0</ele>
        <time>2018-07-28T12:49:31Z</time>
      </trkpt>
      <trkpt lat="40.449083" lon="-5.273550">
        <ele>2440.0</ele>
        <time>2018-07-28T12:49:32Z</time>
      </trkpt>
      <trkpt lat="40.449183" lon="-5.273400">
        <ele>2438.0</ele>
        <time>2018-07-28T12:49:33Z</time>
      </trkpt>
      <trkpt lat="40.449250" lon="-5.273233">
        <ele>2439.0</ele>
        <time>2018-07-28T12:49:34Z</time>
      </trkpt>
      <trkpt lat="40.449283" lon="-5.273050">
        <ele>2442.0</ele>
        <time>2018-07-28T12:49:35Z</time>
      </trkpt>
      <trkpt lat="40.449300" lon="-5.272883">
        <ele>2444.0</ele>
        <time>2018-07-28T12:49:36Z</time>
      </trkpt>
      <trkpt lat="40.449283" lon="-5.272717">
        <ele>2446.0</ele>
        <time>2018-07-28T12:49:37Z</time>
      </trkpt>
      <trkpt lat="40.449267" lon="-5.272550">
        <ele>2447.0</ele>
        <time>2018-07-28T12:49:38Z</time>
      </trkpt>
      <trkpt lat="40.449250" lon="-5.272400">
        <ele>2447.0</ele>
        <time>2018-07-28T12:49:39Z</time>
      </trkpt>
      <trkpt lat="40.449233" lon="-5.272233">
        <ele>2446.0</ele>
        <time>2018-07-28T12:49:40Z</time>
      </trkpt>
      <trkpt lat="40.449200" lon="-5.272067">
        <ele>2446.0</ele>
        <time>2018-07-28T12:49:41Z</time>
      </trkpt>
      <trkpt lat="40.449133" lon="-5.271900">
        <ele>2446.0</ele>
        <time>2018-07-28T12:49:42Z</time>
      </trkpt>
      <trkpt lat="40.449067" lon="-5.271733">
        <ele>2447.0</ele>
        <time>2018-07-28T12:49:43Z</time>
      </trkpt>
      <trkpt lat="40.448983" lon="-5.271600">
        <ele>2447.0</ele>
        <time>2018-07-28T12:49:44Z</time>
      </trkpt>
      <trkpt lat="40.448883" lon="-5.271483">
        <ele>2447.0</ele>
        <time>2018-07-28T12:49:45Z</time>
      </trkpt>
      <trkpt lat="40.448783" lon="-5.271417">
        <ele>2446.0</ele>
        <time>2018-07-28T12:49:46Z</time>
      </trkpt>
      <trkpt lat="40.448700" lon="-5.271367">
        <ele>2445.0</ele>
        <time>2018-07-28T12:49:47Z</time>
      </trkpt>
      <trkpt lat="40.448600" lon="-5.271350">
        <ele>2444.0</ele>
        <time>2018-07-28T12:49:48Z</time>
      </trkpt>
      <trkpt lat="40.448517" lon="-5.271333">
        <ele>2442.0</ele>
        <time>2018-07-28T12:49:49Z</time>
      </trkpt>
      <trkpt lat="40.448433" lon="-5.271333">
        <ele>2441.0</ele>
        <time>2018-07-28T12:49:50Z</time>
      </trkpt>
      <trkpt lat="40.448350" lon="-5.271333">
        <ele>2440.0</ele>
        <time>2018-07-28T12:49:51Z</time>
      </trkpt>
      <trkpt lat="40.448267" lon="-5.271367">
        <ele>2438.0</ele>
        <time>2018-07-28T12:49:52Z</time>
      </trkpt>
      <trkpt lat="40.448200" lon="-5.271417">
        <ele>2436.0</ele>
        <time>2018-07-28T12:49:53Z</time>
      </trkpt>
      <trkpt lat="40.448133" lon="-5.271483">
        <ele>2436.0</ele>
        <time>2018-07-28T12:49:54Z</time>
      </trkpt>
      <trkpt lat="40.448083" lon="-5.271567">
        <ele>2436.0</ele>
        <time>2018-07-28T12:49:55Z</time>
      </trkpt>
      <trkpt lat="40.448067" lon="-5.271650">
        <ele>2435.0</ele>
        <time>2018-07-28T12:49:56Z</time>
      </trkpt>
      <trkpt lat="40.448050" lon="-5.271733">
        <ele>2435.0</ele>
        <time>2018-07-28T12:49:57Z</time>
      </trkpt>
      <trkpt lat="40.448050" lon="-5.271833">
        <ele>2434.0</ele>
        <time>2018-07-28T12:49:58Z</time>
      </trkpt>
      <trkpt lat="40.448050" lon="-5.271933">
        <ele>2433.0</ele>
        <time>2018-07-28T12:49:59Z</time>
      </trkpt>
      <trkpt lat="40.448050" lon="-5.272033">
        <ele>2434.0</ele>
        <time>2018-07-28T12:50:00Z</time>
      </trkpt>
      <trkpt lat="40.448067" lon="-5.272117">
        <ele>2435.0</ele>
        <time>2018-07-28T12:50:01Z</time>
      </trkpt>
      <trkpt lat="40.448100" lon="-5.272217">
        <ele>2435.0</ele>
        <time>2018-07-28T12:50:02Z</time>
      </trkpt>
      <trkpt lat="40.448150" lon="-5.272300">
        <ele>2436.0</ele>
        <time>2018-07-28T12:50:03Z</time>
      </trkpt>
      <trkpt lat="40.448217" lon="-5.272367">
        <ele>2436.0</ele>
        <time>2018-07-28T12:50:04Z</time>
      </trkpt>
      <trkpt lat="40.448300" lon="-5.272433">
        <ele>2437.0</ele>
        <time>2018-07-28T12:50:05Z</time>
      </trkpt>
      <trkpt lat="40.448383" lon="-5.272483">
        <ele>2437.0</ele>
        <time>2018-07-28T12:50:06Z</time>
      </trkpt>
      <trkpt lat="40.448467" lon="-5.272517">
        <ele>2439.0</ele>
        <time>2018-07-28T12:50:07Z</time>
      </trkpt>
      <trkpt lat="40.448550" lon="-5.272533">
        <ele>2440.0</ele>
        <time>2018-07-28T12:50:08Z</time>
      </trkpt>
      <trkpt lat="40.448633" lon="-5.272550">
        <ele>2440.0</ele>
        <time>2018-07-28T12:50:09Z</time>
      </trkpt>
      <trkpt lat="40.448717" lon="-5.272550">
        <ele>2439.0</ele>
        <time>2018-07-28T12:50:10Z</time>
      </trkpt>
      <trkpt lat="40.448800" lon="-5.272550">
        <ele>2437.0</ele>
        <time>2018-07-28T12:50:11Z</time>
      </trkpt>
      <trkpt lat="40.448900" lon="-5.272550">
        <ele>2436.0</ele>
        <time>2018-07-28T12:50:12Z</time>
      </trkpt>
      <trkpt lat="40.449000" lon="-5.272533">
        <ele>2435.0</ele>
        <time>2018-07-28T12:50:13Z</time>
      </trkpt>
      <trkpt lat="40.449117" lon="-5.272500">
        <ele>2433.0</ele>
        <time>2018-07-28T12:50:14Z</time>
      </trkpt>
      <trkpt lat="40.449217" lon="-5.272433">
        <ele>2433.0</ele>
        <time>2018-07-28T12:50:15Z</time>
      </trkpt>
      <trkpt lat="40.449317" lon="-5.272367">
        <ele>2433.0</ele>
        <time>2018-07-28T12:50:16Z</time>
      </trkpt>
      <trkpt lat="40.449433" lon="-5.272300">
        <ele>2432.0</ele>
        <time>2018-07-28T12:50:17Z</time>
      </trkpt>
      <trkpt lat="40.449533" lon="-5.272233">
        <ele>2433.0</ele>
        <time>2018-07-28T12:50:18Z</time>
      </trkpt>
      <trkpt lat="40.449617" lon="-5.272167">
        <ele>2433.0</ele>
        <time>2018-07-28T12:50:19Z</time>
      </trkpt>
      <trkpt lat="40.449717" lon="-5.272083">
        <ele>2432.0</ele>
        <time>2018-07-28T12:50:20Z</time>
      </trkpt>
      <trkpt lat="40.449800" lon="-5.271967">
        <ele>2431.0</ele>
        <time>2018-07-28T12:50:21Z</time>
      </trkpt>
      <trkpt lat="40.449883" lon="-5.271833">
        <ele>2431.0</ele>
        <time>2018-07-28T12:50:22Z</time>
      </trkpt>
      <trkpt lat="40.449950" lon="-5.271700">
        <ele>2431.0</ele>
        <time>2018-07-28T12:50:23Z</time>
      </trkpt>
      <trkpt lat="40.450000" lon="-5.271533">
        <ele>2432.0</ele>
        <time>2018-07-28T12:50:24Z</time>
      </trkpt>
      <trkpt lat="40.450050" lon="-5.271383">
        <ele>2433.0</ele>
        <time>2018-07-28T12:50:25Z</time>
      </trkpt>
      <trkpt lat="40.450067" lon="-5.271217">
        <ele>2434.0</ele>
        <time>2018-07-28T12:50:26Z</time>
      </trkpt>
      <trkpt lat="40.450100" lon="-5.271050">
        <ele>2435.0</ele>
        <time>2018-07-28T12:50:27Z</time>
      </trkpt>
      <trkpt lat="40.450117" lon="-5.270883">
        <ele>2435.0</ele>
        <time>2018-07-28T12:50:28Z</time>
      </trkpt>
      <trkpt lat="40.450150" lon="-5.270733">
        <ele>2435.0</ele>
        <time>2018-07-28T12:50:29Z</time>
      </trkpt>
      <trkpt lat="40.450183" lon="-5.270567">
        <ele>2434.0</ele>
        <time>2018-07-28T12:50:30Z</time>
      </trkpt>
      <trkpt lat="40.450200" lon="-5.270383">
        <ele>2433.0</ele>
        <time>2018-07-28T12:50:31Z</time>
      </trkpt>
      <trkpt lat="40.450183" lon="-5.270217">
        <ele>2432.0</ele>
        <time>2018-07-28T12:50:32Z</time>
      </trkpt>
      <trkpt lat="40.450150" lon="-5.270033">
        <ele>2430.0</ele>
        <time>2018-07-28T12:50:33Z</time>
      </trkpt>
      <trkpt lat="40.450083" lon="-5.269867">
        <ele>2429.0</ele>
        <time>2018-07-28T12:50:34Z</time>
      </trkpt>
      <trkpt lat="40.450033" lon="-5.269717">
        <ele>2429.0</ele>
        <time>2018-07-28T12:50:35Z</time>
      </trkpt>
      <trkpt lat="40.449950" lon="-5.269583">
        <ele>2428.0</ele>
        <time>2018-07-28T12:50:36Z</time>
      </trkpt>
      <trkpt lat="40.449867" lon="-5.269467">
        <ele>2427.0</ele>
        <time>2018-07-28T12:50:37Z</time>
      </trkpt>
      <trkpt lat="40.449783" lon="-5.269383">
        <ele>2427.0</ele>
        <time>2018-07-28T12:50:38Z</time>
      </trkpt>
      <trkpt lat="40.449683" lon="-5.269333">
        <ele>2425.0</ele>
        <time>2018-07-28T12:50:39Z</time>
      </trkpt>
      <trkpt lat="40.449600" lon="-5.269283">
        <ele>2424.0</ele>
        <time>2018-07-28T12:50:40Z</time>
      </trkpt>
      <trkpt lat="40.449500" lon="-5.269267">
        <ele>2424.0</ele>
        <time>2018-07-28T12:50:41Z</time>
      </trkpt>
      <trkpt lat="40.449417" lon="-5.269267">
        <ele>2423.0</ele>
        <time>2018-07-28T12:50:42Z</time>
      </trkpt>
      <trkpt lat="40.449350" lon="-5.269283">
        <ele>2423.0</ele>
        <time>2018-07-28T12:50:43Z</time>
      </trkpt>
      <trkpt lat="40.449300" lon="-5.269300">
        <ele>2423.0</ele>
        <time>2018-07-28T12:50:44Z</time>
      </trkpt>
      <trkpt lat="40.449250" lon="-5.269333">
        <ele>2421.0</ele>
        <time>2018-07-28T12:50:45Z</time>
      </trkpt>
      <trkpt lat="40.449217" lon="-5.269383">
        <ele>2420.0</ele>
        <time>2018-07-28T12:50:46Z</time>
      </trkpt>
      <trkpt lat="40.449183" lon="-5.269450">
        <ele>2418.0</ele>
        <time>2018-07-28T12:50:47Z</time>
      </trkpt>
      <trkpt lat="40.449167" lon="-5.269533">
        <ele>2416.0</ele>
        <time>2018-07-28T12:50:48Z</time>
      </trkpt>
      <trkpt lat="40.449183" lon="-5.269617">
        <ele>2416.0</ele>
        <time>2018-07-28T12:50:49Z</time>
      </trkpt>
      <trkpt lat="40.449200" lon="-5.269700">
        <ele>2415.0</ele>
        <time>2018-07-28T12:50:50Z</time>
      </trkpt>
      <trkpt lat="40.449217" lon="-5.269783">
        <ele>2415.0</ele>
        <time>2018-07-28T12:50:51Z</time>
      </trkpt>
      <trkpt lat="40.449233" lon="-5.269867">
        <ele>2415.0</ele>
        <time>2018-07-28T12:50:52Z</time>
      </trkpt>
      <trkpt lat="40.449250" lon="-5.269950">
        <ele>2415.0</ele>
        <time>2018-07-28T12:50:53Z</time>
      </trkpt>
      <trkpt lat="40.449283" lon="-5.270017">
        <ele>2415.0</ele>
        <time>2018-07-28T12:50:54Z</time>
      </trkpt>
      <trkpt lat="40.449317" lon="-5.270083">
        <ele>2416.0</ele>
        <time>2018-07-28T12:50:55Z</time>
      </trkpt>
      <trkpt lat="40.449367" lon="-5.270133">
        <ele>2416.0</ele>
        <time>2018-07-28T12:50:56Z</time>
      </trkpt>
      <trkpt lat="40.449417" lon="-5.270183">
        <ele>2417.0</ele>
        <time>2018-07-28T12:50:57Z</time>
      </trkpt>
      <trkpt lat="40.449467" lon="-5.270233">
        <ele>2417.0</ele>
        <time>2018-07-28T12:50:58Z</time>
      </trkpt>
      <trkpt lat="40.449533" lon="-5.270283">
        <ele>2417.0</ele>
        <time>2018-07-28T12:50:59Z</time>
      </trkpt>
      <trkpt lat="40.449600" lon="-5.270317">
        <ele>2415.0</ele>
        <time>2018-07-28T12:51:00Z</time>
      </trkpt>
      <trkpt lat="40.449683" lon="-5.270350">
        <ele>2414.0</ele>
        <time>2018-07-28T12:51:01Z</time>
      </trkpt>
      <trkpt lat="40.449783" lon="-5.270350">
        <ele>2412.0</ele>
        <time>2018-07-28T12:51:02Z</time>
      </trkpt>
      <trkpt lat="40.449900" lon="-5.270317">
        <ele>2411.0</ele>
        <time>2018-07-28T12:51:03Z</time>
      </trkpt>
      <trkpt lat="40.450000" lon="-5.270267">
        <ele>2410.0</ele>
        <time>2018-07-28T12:51:04Z</time>
      </trkpt>
      <trkpt lat="40.450100" lon="-5.270200">
        <ele>2410.0</ele>
        <time>2018-07-28T12:51:05Z</time>
      </trkpt>
      <trkpt lat="40.450217" lon="-5.270117">
        <ele>2409.0</ele>
        <time>2018-07-28T12:51:06Z</time>
      </trkpt>
      <trkpt lat="40.450317" lon="-5.270033">
        <ele>2409.0</ele>
        <time>2018-07-28T12:51:07Z</time>
      </trkpt>
      <trkpt lat="40.450417" lon="-5.269950">
        <ele>2408.0</ele>
        <time>2018-07-28T12:51:08Z</time>
      </trkpt>
      <trkpt lat="40.450517" lon="-5.269867">
        <ele>2407.0</ele>
        <time>2018-07-28T12:51:09Z</time>
      </trkpt>
      <trkpt lat="40.450600" lon="-5.269783">
        <ele>2406.0</ele>
        <time>2018-07-28T12:51:10Z</time>
      </trkpt>
      <trkpt lat="40.450683" lon="-5.269700">
        <ele>2403.0</ele>
        <time>2018-07-28T12:51:11Z</time>
      </trkpt>
      <trkpt lat="40.450767" lon="-5.269600">
        <ele>2400.0</ele>
        <time>2018-07-28T12:51:12Z</time>
      </trkpt>
      <trkpt lat="40.450850" lon="-5.269517">
        <ele>2395.0</ele>
        <time>2018-07-28T12:51:13Z</time>
      </trkpt>
      <trkpt lat="40.450967" lon="-5.269417">
        <ele>2391.0</ele>
        <time>2018-07-28T12:51:14Z</time>
      </trkpt>
      <trkpt lat="40.451083" lon="-5.269350">
        <ele>2388.0</ele>
        <time>2018-07-28T12:51:15Z</time>
      </trkpt>
      <trkpt lat="40.451183" lon="-5.269283">
        <ele>2386.0</ele>
        <time>2018-07-28T12:51:16Z</time>
      </trkpt>
      <trkpt lat="40.451300" lon="-5.269217">
        <ele>2385.0</ele>
        <time>2018-07-28T12:51:17Z</time>
      </trkpt>
      <trkpt lat="40.451417" lon="-5.269150">
        <ele>2384.0</ele>
        <time>2018-07-28T12:51:18Z</time>
      </trkpt>
      <trkpt lat="40.451533" lon="-5.269067">
        <ele>2384.0</ele>
        <time>2018-07-28T12:51:19Z</time>
      </trkpt>
      <trkpt lat="40.451633" lon="-5.268983">
        <ele>2386.0</ele>
        <time>2018-07-28T12:51:20Z</time>
      </trkpt>
      <trkpt lat="40.451733" lon="-5.268917">
        <ele>2386.0</ele>
        <time>2018-07-28T12:51:21Z</time>
      </trkpt>
      <trkpt lat="40.451833" lon="-5.268850">
        <ele>2387.0</ele>
        <time>2018-07-28T12:51:22Z</time>
      </trkpt>
      <trkpt lat="40.451933" lon="-5.268817">
        <ele>2386.0</ele>
        <time>2018-07-28T12:51:23Z</time>
      </trkpt>
      <trkpt lat="40.452017" lon="-5.268750">
        <ele>2386.0</ele>
        <time>2018-07-28T12:51:24Z</time>
      </trkpt>
      <trkpt lat="40.452100" lon="-5.268667">
        <ele>2385.0</ele>
        <time>2018-07-28T12:51:25Z</time>
      </trkpt>
      <trkpt lat="40.452200" lon="-5.268583">
        <ele>2383.0</ele>
        <time>2018-07-28T12:51:26Z</time>
      </trkpt>
      <trkpt lat="40.452283" lon="-5.268500">
        <ele>2382.0</ele>
        <time>2018-07-28T12:51:27Z</time>
      </trkpt>
      <trkpt lat="40.452383" lon="-5.268417">
        <ele>2380.0</ele>
        <time>2018-07-28T12:51:28Z</time>
      </trkpt>
      <trkpt lat="40.452483" lon="-5.268350">
        <ele>2379.0</ele>
        <time>2018-07-28T12:51:29Z</time>
      </trkpt>
      <trkpt lat="40.452583" lon="-5.268267">
        <ele>2378.0</ele>
        <time>2018-07-28T12:51:30Z</time>
      </trkpt>
      <trkpt lat="40.452683" lon="-5.268167">
        <ele>2377.0</ele>
        <time>2018-07-28T12:51:31Z</time>
      </trkpt>
      <trkpt lat="40.452783" lon="-5.268083">
        <ele>2377.0</ele>
        <time>2018-07-28T12:51:32Z</time>
      </trkpt>
      <trkpt lat="40.452867" lon="-5.268033">
        <ele>2377.0</ele>
        <time>2018-07-28T12:51:33Z</time>
      </trkpt>
      <trkpt lat="40.452967" lon="-5.268000">
        <ele>2375.0</ele>
        <time>2018-07-28T12:51:34Z</time>
      </trkpt>
      <trkpt lat="40.453067" lon="-5.267983">
        <ele>2373.0</ele>
        <time>2018-07-28T12:51:35Z</time>
      </trkpt>
      <trkpt lat="40.453183" lon="-5.267967">
        <ele>2371.0</ele>
        <time>2018-07-28T12:51:36Z</time>
      </trkpt>
      <trkpt lat="40.453300" lon="-5.267950">
        <ele>2370.0</ele>
        <time>2018-07-28T12:51:37Z</time>
      </trkpt>
      <trkpt lat="40.453400" lon="-5.267950">
        <ele>2370.0</ele>
        <time>2018-07-28T12:51:38Z</time>
      </trkpt>
      <trkpt lat="40.453500" lon="-5.267933">
        <ele>2369.0</ele>
        <time>2018-07-28T12:51:39Z</time>
      </trkpt>
      <trkpt lat="40.453583" lon="-5.267933">
        <ele>2367.0</ele>
        <time>2018-07-28T12:51:40Z</time>
      </trkpt>
      <trkpt lat="40.453667" lon="-5.267917">
        <ele>2365.0</ele>
        <time>2018-07-28T12:51:41Z</time>
      </trkpt>
      <trkpt lat="40.453767" lon="-5.267900">
        <ele>2363.0</ele>
        <time>2018-07-28T12:51:42Z</time>
      </trkpt>
      <trkpt lat="40.453867" lon="-5.267867">
        <ele>2360.0</ele>
        <time>2018-07-28T12:51:43Z</time>
      </trkpt>
      <trkpt lat="40.453983" lon="-5.267833">
        <ele>2358.0</ele>
        <time>2018-07-28T12:51:44Z</time>
      </trkpt>
      <trkpt lat="40.454083" lon="-5.267800">
        <ele>2356.0</ele>
        <time>2018-07-28T12:51:45Z</time>
      </trkpt>
      <trkpt lat="40.454200" lon="-5.267733">
        <ele>2354.0</ele>
        <time>2018-07-28T12:51:46Z</time>
      </trkpt>
      <trkpt lat="40.454300" lon="-5.267667">
        <ele>2351.0</ele>
        <time>2018-07-28T12:51:47Z</time>
      </trkpt>
      <trkpt lat="40.454400" lon="-5.267567">
        <ele>2347.0</ele>
        <time>2018-07-28T12:51:48Z</time>
      </trkpt>
      <trkpt lat="40.454500" lon="-5.267433">
        <ele>2345.0</ele>
        <time>2018-07-28T12:51:49Z</time>
      </trkpt>
      <trkpt lat="40.454600" lon="-5.267317">
        <ele>2343.0</ele>
        <time>2018-07-28T12:51:50Z</time>
      </trkpt>
      <trkpt lat="40.454700" lon="-5.267183">
        <ele>2340.0</ele>
        <time>2018-07-28T12:51:51Z</time>
      </trkpt>
      <trkpt lat="40.454783" lon="-5.267050">
        <ele>2339.0</ele>
        <time>2018-07-28T12:51:52Z</time>
      </trkpt>
      <trkpt lat="40.454850" lon="-5.266933">
        <ele>2337.0</ele>
        <time>2018-07-28T12:51:53Z</time>
      </trkpt>
      <trkpt lat="40.454933" lon="-5.266783">
        <ele>2334.0</ele>
        <time>2018-07-28T12:51:54Z</time>
      </trkpt>
      <trkpt lat="40.455000" lon="-5.266650">
        <ele>2331.0</ele>
        <time>2018-07-28T12:51:55Z</time>
      </trkpt>
      <trkpt lat="40.455083" lon="-5.266517">
        <ele>2327.0</ele>
        <time>2018-07-28T12:51:56Z</time>
      </trkpt>
      <trkpt lat="40.455167" lon="-5.266383">
        <ele>2323.0</ele>
        <time>2018-07-28T12:51:57Z</time>
      </trkpt>
      <trkpt lat="40.455250" lon="-5.266250">
        <ele>2318.0</ele>
        <time>2018-07-28T12:51:58Z</time>
      </trkpt>
      <trkpt lat="40.455350" lon="-5.266117">
        <ele>2314.0</ele>
        <time>2018-07-28T12:51:59Z</time>
      </trkpt>
      <trkpt lat="40.455433" lon="-5.265983">
        <ele>2311.0</ele>
        <time>2018-07-28T12:52:00Z</time>
      </trkpt>
      <trkpt lat="40.455533" lon="-5.265850">
        <ele>2307.0</ele>
        <time>2018-07-28T12:52:01Z</time>
      </trkpt>
      <trkpt lat="40.455650" lon="-5.265733">
        <ele>2303.0</ele>
        <time>2018-07-28T12:52:02Z</time>
      </trkpt>
      <trkpt lat="40.455767" lon="-5.265617">
        <ele>2300.0</ele>
        <time>2018-07-28T12:52:03Z</time>
      </trkpt>
      <trkpt lat="40.455867" lon="-5.265500">
        <ele>2296.0</ele>
        <time>2018-07-28T12:52:04Z</time>
      </trkpt>
      <trkpt lat="40.455983" lon="-5.265383">
        <ele>2292.0</ele>
        <time>2018-07-28T12:52:05Z</time>
      </trkpt>
      <trkpt lat="40.456117" lon="-5.265267">
        <ele>2287.0</ele>
        <time>2018-07-28T12:52:06Z</time>
      </trkpt>
      <trkpt lat="40.456250" lon="-5.265183">
        <ele>2283.0</ele>
        <time>2018-07-28T12:52:07Z</time>
      </trkpt>
      <trkpt lat="40.456383" lon="-5.265133">
        <ele>2280.0</ele>
        <time>2018-07-28T12:52:08Z</time>
      </trkpt>
      <trkpt lat="40.456533" lon="-5.265083">
        <ele>2277.0</ele>
        <time>2018-07-28T12:52:09Z</time>
      </trkpt>
      <trkpt lat="40.456667" lon="-5.265033">
        <ele>2274.0</ele>
        <time>2018-07-28T12:52:10Z</time>
      </trkpt>
      <trkpt lat="40.456800" lon="-5.264950">
        <ele>2270.0</ele>
        <time>2018-07-28T12:52:11Z</time>
      </trkpt>
      <trkpt lat="40.456950" lon="-5.264867">
        <ele>2266.0</ele>
        <time>2018-07-28T12:52:12Z</time>
      </trkpt>
      <trkpt lat="40.457083" lon="-5.264800">
        <ele>2263.0</ele>
        <time>2018-07-28T12:52:13Z</time>
      </trkpt>
      <trkpt lat="40.457233" lon="-5.264750">
        <ele>2260.0</ele>
        <time>2018-07-28T12:52:14Z</time>
      </trkpt>
      <trkpt lat="40.457367" lon="-5.264717">
        <ele>2257.0</ele>
        <time>2018-07-28T12:52:15Z</time>
      </trkpt>
      <trkpt lat="40.457500" lon="-5.264650">
        <ele>2254.0</ele>
        <time>2018-07-28T12:52:16Z</time>
      </trkpt>
      <trkpt lat="40.457633" lon="-5.264583">
        <ele>2251.0</ele>
        <time>2018-07-28T12:52:17Z</time>
      </trkpt>
      <trkpt lat="40.457767" lon="-5.264483">
        <ele>2248.0</ele>
        <time>2018-07-28T12:52:18Z</time>
      </trkpt>
      <trkpt lat="40.457900" lon="-5.264383">
        <ele>2245.0</ele>
        <time>2018-07-28T12:52:19Z</time>
      </trkpt>
      <trkpt lat="40.458017" lon="-5.264300">
        <ele>2242.0</ele>
        <time>2018-07-28T12:52:20Z</time>
      </trkpt>
      <trkpt lat="40.458150" lon="-5.264200">
        <ele>2239.0</ele>
        <time>2018-07-28T12:52:21Z</time>
      </trkpt>
      <trkpt lat="40.458283" lon="-5.264117">
        <ele>2237.0</ele>
        <time>2018-07-28T12:52:22Z</time>
      </trkpt>
      <trkpt lat="40.458400" lon="-5.264017">
        <ele>2235.0</ele>
        <time>2018-07-28T12:52:23Z</time>
      </trkpt>
      <trkpt lat="40.458533" lon="-5.263917">
        <ele>2232.0</ele>
        <time>2018-07-28T12:52:24Z</time>
      </trkpt>
      <trkpt lat="40.458650" lon="-5.263817">
        <ele>2230.0</ele>
        <time>2018-07-28T12:52:25Z</time>
      </trkpt>
      <trkpt lat="40.458783" lon="-5.263733">
        <ele>2228.0</ele>
        <time>2018-07-28T12:52:26Z</time>
      </trkpt>
      <trkpt lat="40.458900" lon="-5.263633">
        <ele>2226.0</ele>
        <time>2018-07-28T12:52:27Z</time>
      </trkpt>
      <trkpt lat="40.459033" lon="-5.263533">
        <ele>2225.0</ele>
        <time>2018-07-28T12:52:28Z</time>
      </trkpt>
      <trkpt lat="40.459150" lon="-5.263433">
        <ele>2223.0</ele>
        <time>2018-07-28T12:52:29Z</time>
      </trkpt>
      <trkpt lat="40.459283" lon="-5.263333">
        <ele>2222.0</ele>
        <time>2018-07-28T12:52:30Z</time>
      </trkpt>
      <trkpt lat="40.459400" lon="-5.263250">
        <ele>2220.0</ele>
        <time>2018-07-28T12:52:31Z</time>
      </trkpt>
      <trkpt lat="40.459533" lon="-5.263167">
        <ele>2219.0</ele>
        <time>2018-07-28T12:52:32Z</time>
      </trkpt>
      <trkpt lat="40.459650" lon="-5.263083">
        <ele>2218.0</ele>
        <time>2018-07-28T12:52:33Z</time>
      </trkpt>
      <trkpt lat="40.459783" lon="-5.263017">
        <ele>2217.0</ele>
        <time>2018-07-28T12:52:34Z</time>
      </trkpt>
      <trkpt lat="40.459917" lon="-5.262950">
        <ele>2216.0</ele>
        <time>2018-07-28T12:52:35Z</time>
      </trkpt>
      <trkpt lat="40.460050" lon="-5.262867">
        <ele>2216.0</ele>
        <time>2018-07-28T12:52:36Z</time>
      </trkpt>
      <trkpt lat="40.460167" lon="-5.262783">
        <ele>2216.0</ele>
        <time>2018-07-28T12:52:37Z</time>
      </trkpt>
      <trkpt lat="40.460283" lon="-5.262683">
        <ele>2216.0</ele>
        <time>2018-07-28T12:52:38Z</time>
      </trkpt>
      <trkpt lat="40.460400" lon="-5.262583">
        <ele>2215.0</ele>
        <time>2018-07-28T12:52:39Z</time>
      </trkpt>
      <trkpt lat="40.460533" lon="-5.262483">
        <ele>2214.0</ele>
        <time>2018-07-28T12:52:40Z</time>
      </trkpt>
      <trkpt lat="40.460667" lon="-5.262383">
        <ele>2213.0</ele>
        <time>2018-07-28T12:52:41Z</time>
      </trkpt>
      <trkpt lat="40.460800" lon="-5.262300">
        <ele>2214.0</ele>
        <time>2018-07-28T12:52:42Z</time>
      </trkpt>
      <trkpt lat="40.460933" lon="-5.262200">
        <ele>2216.0</ele>
        <time>2018-07-28T12:52:43Z</time>
      </trkpt>
      <trkpt lat="40.461050" lon="-5.262083">
        <ele>2218.0</ele>
        <time>2018-07-28T12:52:44Z</time>
      </trkpt>
      <trkpt lat="40.461133" lon="-5.262000">
        <ele>2220.0</ele>
        <time>2018-07-28T12:52:45Z</time>
      </trkpt>
      <trkpt lat="40.461233" lon="-5.261900">
        <ele>2220.0</ele>
        <time>2018-07-28T12:52:46Z</time>
      </trkpt>
      <trkpt lat="40.461333" lon="-5.261817">
        <ele>2219.0</ele>
        <time>2018-07-28T12:52:47Z</time>
      </trkpt>
      <trkpt lat="40.461433" lon="-5.261717">
        <ele>2218.0</ele>
        <time>2018-07-28T12:52:48Z</time>
      </trkpt>
      <trkpt lat="40.461533" lon="-5.261600">
        <ele>2217.0</ele>
        <time>2018-07-28T12:52:49Z</time>
      </trkpt>
      <trkpt lat="40.461633" lon="-5.261450">
        <ele>2217.0</ele>
        <time>2018-07-28T12:52:50Z</time>
      </trkpt>
      <trkpt lat="40.461717" lon="-5.261317">
        <ele>2218.0</ele>
        <time>2018-07-28T12:52:51Z</time>
      </trkpt>
      <trkpt lat="40.461817" lon="-5.261183">
        <ele>2218.0</ele>
        <time>2018-07-28T12:52:52Z</time>
      </trkpt>
      <trkpt lat="40.461917" lon="-5.261067">
        <ele>2218.0</ele>
        <time>2018-07-28T12:52:53Z</time>
      </trkpt>
      <trkpt lat="40.462033" lon="-5.260950">
        <ele>2218.0</ele>
        <time>2018-07-28T12:52:54Z</time>
      </trkpt>
      <trkpt lat="40.462150" lon="-5.260850">
        <ele>2218.0</ele>
        <time>2018-07-28T12:52:55Z</time>
      </trkpt>
      <trkpt lat="40.462250" lon="-5.260733">
        <ele>2218.0</ele>
        <time>2018-07-28T12:52:56Z</time>
      </trkpt>
      <trkpt lat="40.462333" lon="-5.260617">
        <ele>2219.0</ele>
        <time>2018-07-28T12:52:57Z</time>
      </trkpt>
      <trkpt lat="40.462433" lon="-5.260483">
        <ele>2219.0</ele>
        <time>2018-07-28T12:52:58Z</time>
      </trkpt>
      <trkpt lat="40.462517" lon="-5.260383">
        <ele>2219.0</ele>
        <time>2018-07-28T12:52:59Z</time>
      </trkpt>
      <trkpt lat="40.462617" lon="-5.260283">
        <ele>2218.0</ele>
        <time>2018-07-28T12:53:00Z</time>
      </trkpt>
      <trkpt lat="40.462717" lon="-5.260183">
        <ele>2217.0</ele>
        <time>2018-07-28T12:53:01Z</time>
      </trkpt>
      <trkpt lat="40.462833" lon="-5.260083">
        <ele>2216.0</ele>
        <time>2018-07-28T12:53:02Z</time>
      </trkpt>
      <trkpt lat="40.462950" lon="-5.259967">
        <ele>2215.0</ele>
        <time>2018-07-28T12:53:03Z</time>
      </trkpt>
      <trkpt lat="40.463050" lon="-5.259867">
        <ele>2215.0</ele>
        <time>2018-07-28T12:53:04Z</time>
      </trkpt>
      <trkpt lat="40.463167" lon="-5.259783">
        <ele>2215.0</ele>
        <time>2018-07-28T12:53:05Z</time>
      </trkpt>
      <trkpt lat="40.463283" lon="-5.259700">
        <ele>2214.0</ele>
        <time>2018-07-28T12:53:06Z</time>
      </trkpt>
      <trkpt lat="40.463400" lon="-5.259633">
        <ele>2213.0</ele>
        <time>2018-07-28T12:53:07Z</time>
      </trkpt>
      <trkpt lat="40.463500" lon="-5.259567">
        <ele>2212.0</ele>
        <time>2018-07-28T12:53:08Z</time>
      </trkpt>
      <trkpt lat="40.463617" lon="-5.259483">
        <ele>2211.0</ele>
        <time>2018-07-28T12:53:09Z</time>
      </trkpt>
      <trkpt lat="40.463733" lon="-5.259383">
        <ele>2209.0</ele>
        <time>2018-07-28T12:53:10Z</time>
      </trkpt>
      <trkpt lat="40.463833" lon="-5.259300">
        <ele>2208.0</ele>
        <time>2018-07-28T12:53:11Z</time>
      </trkpt>
      <trkpt lat="40.463950" lon="-5.259217">
        <ele>2207.0</ele>
        <time>2018-07-28T12:53:12Z</time>
      </trkpt>
      <trkpt lat="40.464067" lon="-5.259133">
        <ele>2206.0</ele>
        <time>2018-07-28T12:53:13Z</time>
      </trkpt>
      <trkpt lat="40.464167" lon="-5.259067">
        <ele>2205.0</ele>
        <time>2018-07-28T12:53:14Z</time>
      </trkpt>
      <trkpt lat="40.464283" lon="-5.259000">
        <ele>2204.0</ele>
        <time>2018-07-28T12:53:15Z</time>
      </trkpt>
      <trkpt lat="40.464383" lon="-5.258917">
        <ele>2202.0</ele>
        <time>2018-07-28T12:53:16Z</time>
      </trkpt>
      <trkpt lat="40.464500" lon="-5.258850">
        <ele>2201.0</ele>
        <time>2018-07-28T12:53:17Z</time>
      </trkpt>
      <trkpt lat="40.464617" lon="-5.258767">
        <ele>2199.0</ele>
        <time>2018-07-28T12:53:18Z</time>
      </trkpt>
      <trkpt lat="40.464733" lon="-5.258700">
        <ele>2199.0</ele>
        <time>2018-07-28T12:53:19Z</time>
      </trkpt>
      <trkpt lat="40.464850" lon="-5.258633">
        <ele>2198.0</ele>
        <time>2018-07-28T12:53:20Z</time>
      </trkpt>
      <trkpt lat="40.464950" lon="-5.258567">
        <ele>2198.0</ele>
        <time>2018-07-28T12:53:21Z</time>
      </trkpt>
      <trkpt lat="40.465050" lon="-5.258500">
        <ele>2198.0</ele>
        <time>2018-07-28T12:53:22Z</time>
      </trkpt>
      <trkpt lat="40.465167" lon="-5.258417">
        <ele>2197.0</ele>
        <time>2018-07-28T12:53:23Z</time>
      </trkpt>
      <trkpt lat="40.465267" lon="-5.258350">
        <ele>2194.0</ele>
        <time>2018-07-28T12:53:24Z</time>
      </trkpt>
      <trkpt lat="40.465383" lon="-5.258283">
        <ele>2192.0</ele>
        <time>2018-07-28T12:53:25Z</time>
      </trkpt>
      <trkpt lat="40.465517" lon="-5.258200">
        <ele>2191.0</ele>
        <time>2018-07-28T12:53:26Z</time>
      </trkpt>
      <trkpt lat="40.465633" lon="-5.258117">
        <ele>2190.0</ele>
        <time>2018-07-28T12:53:27Z</time>
      </trkpt>
      <trkpt lat="40.465750" lon="-5.258050">
        <ele>2190.0</ele>
        <time>2018-07-28T12:53:28Z</time>
      </trkpt>
      <trkpt lat="40.465867" lon="-5.257967">
        <ele>2190.0</ele>
        <time>2018-07-28T12:53:29Z</time>
      </trkpt>
      <trkpt lat="40.465967" lon="-5.257900">
        <ele>2189.0</ele>
        <time>2018-07-28T12:53:30Z</time>
      </trkpt>
      <trkpt lat="40.466083" lon="-5.257817">
        <ele>2187.0</ele>
        <time>2018-07-28T12:53:31Z</time>
      </trkpt>
      <trkpt lat="40.466200" lon="-5.257750">
        <ele>2185.0</ele>
        <time>2018-07-28T12:53:32Z</time>
      </trkpt>
      <trkpt lat="40.466317" lon="-5.257667">
        <ele>2184.0</ele>
        <time>2018-07-28T12:53:33Z</time>
      </trkpt>
      <trkpt lat="40.466450" lon="-5.257600">
        <ele>2183.0</ele>
        <time>2018-07-28T12:53:34Z</time>
      </trkpt>
      <trkpt lat="40.466567" lon="-5.257517">
        <ele>2182.0</ele>
        <time>2018-07-28T12:53:35Z</time>
      </trkpt>
      <trkpt lat="40.466683" lon="-5.257450">
        <ele>2181.0</ele>
        <time>2018-07-28T12:53:36Z</time>
      </trkpt>
      <trkpt lat="40.466800" lon="-5.257383">
        <ele>2181.0</ele>
        <time>2018-07-28T12:53:37Z</time>
      </trkpt>
      <trkpt lat="40.466900" lon="-5.257333">
        <ele>2180.0</ele>
        <time>2018-07-28T12:53:38Z</time>
      </trkpt>
      <trkpt lat="40.467017" lon="-5.257267">
        <ele>2178.0</ele>
        <time>2018-07-28T12:53:39Z</time>
      </trkpt>
      <trkpt lat="40.467133" lon="-5.257217">
        <ele>2176.0</ele>
        <time>2018-07-28T12:53:40Z</time>
      </trkpt>
      <trkpt lat="40.467250" lon="-5.257167">
        <ele>2173.0</ele>
        <time>2018-07-28T12:53:41Z</time>
      </trkpt>
      <trkpt lat="40.467367" lon="-5.257117">
        <ele>2170.0</ele>
        <time>2018-07-28T12:53:42Z</time>
      </trkpt>
      <trkpt lat="40.467483" lon="-5.257083">
        <ele>2168.0</ele>
        <time>2018-07-28T12:53:43Z</time>
      </trkpt>
      <trkpt lat="40.467617" lon="-5.257050">
        <ele>2167.0</ele>
        <time>2018-07-28T12:53:44Z</time>
      </trkpt>
      <trkpt lat="40.467717" lon="-5.257017">
        <ele>2165.0</ele>
        <time>2018-07-28T12:53:45Z</time>
      </trkpt>
      <trkpt lat="40.467833" lon="-5.256983">
        <ele>2163.0</ele>
        <time>2018-07-28T12:53:46Z</time>
      </trkpt>
      <trkpt lat="40.467950" lon="-5.256933">
        <ele>2160.0</ele>
        <time>2018-07-28T12:53:47Z</time>
      </trkpt>
      <trkpt lat="40.468067" lon="-5.256883">
        <ele>2158.0</ele>
        <time>2018-07-28T12:53:48Z</time>
      </trkpt>
      <trkpt lat="40.468167" lon="-5.256850">
        <ele>2157.0</ele>
        <time>2018-07-28T12:53:49Z</time>
      </trkpt>
      <trkpt lat="40.468283" lon="-5.256817">
        <ele>2155.0</ele>
        <time>2018-07-28T12:53:50Z</time>
      </trkpt>
      <trkpt lat="40.468383" lon="-5.256783">
        <ele>2154.0</ele>
        <time>2018-07-28T12:53:51Z</time>
      </trkpt>
      <trkpt lat="40.468483" lon="-5.256750">
        <ele>2152.0</ele>
        <time>2018-07-28T12:53:52Z</time>
      </trkpt>
      <trkpt lat="40.468583" lon="-5.256700">
        <ele>2149.0</ele>
        <time>2018-07-28T12:53:53Z</time>
      </trkpt>
      <trkpt lat="40.468683" lon="-5.256667">
        <ele>2147.0</ele>
        <time>2018-07-28T12:53:54Z</time>
      </trkpt>
      <trkpt lat="40.468800" lon="-5.256617">
        <ele>2144.0</ele>
        <time>2018-07-28T12:53:55Z</time>
      </trkpt>
      <trkpt lat="40.468917" lon="-5.256567">
        <ele>2142.0</ele>
        <time>2018-07-28T12:53:56Z</time>
      </trkpt>
      <trkpt lat="40.469033" lon="-5.256533">
        <ele>2141.0</ele>
        <time>2018-07-28T12:53:57Z</time>
      </trkpt>
      <trkpt lat="40.469150" lon="-5.256483">
        <ele>2140.0</ele>
        <time>2018-07-28T12:53:58Z</time>
      </trkpt>
      <trkpt lat="40.469250" lon="-5.256433">
        <ele>2138.0</ele>
        <time>2018-07-28T12:53:59Z</time>
      </trkpt>
      <trkpt lat="40.469367" lon="-5.256400">
        <ele>2136.0</ele>
        <time>2018-07-28T12:54:00Z</time>
      </trkpt>
      <trkpt lat="40.469483" lon="-5.256350">
        <ele>2134.0</ele>
        <time>2018-07-28T12:54:01Z</time>
      </trkpt>
      <trkpt lat="40.469583" lon="-5.256300">
        <ele>2132.0</ele>
        <time>2018-07-28T12:54:02Z</time>
      </trkpt>
      <trkpt lat="40.469700" lon="-5.256250">
        <ele>2131.0</ele>
        <time>2018-07-28T12:54:03Z</time>
      </trkpt>
      <trkpt lat="40.469800" lon="-5.256200">
        <ele>2129.0</ele>
        <time>2018-07-28T12:54:04Z</time>
      </trkpt>
      <trkpt lat="40.469917" lon="-5.256150">
        <ele>2128.0</ele>
        <time>2018-07-28T12:54:05Z</time>
      </trkpt>
      <trkpt lat="40.470017" lon="-5.256100">
        <ele>2126.0</ele>
        <time>2018-07-28T12:54:06Z</time>
      </trkpt>
      <trkpt lat="40.470117" lon="-5.256050">
        <ele>2124.0</ele>
        <time>2018-07-28T12:54:07Z</time>
      </trkpt>
      <trkpt lat="40.470233" lon="-5.256000">
        <ele>2121.0</ele>
        <time>2018-07-28T12:54:08Z</time>
      </trkpt>
      <trkpt lat="40.470350" lon="-5.255933">
        <ele>2119.0</ele>
        <time>2018-07-28T12:54:09Z</time>
      </trkpt>
      <trkpt lat="40.470450" lon="-5.255883">
        <ele>2116.0</ele>
        <time>2018-07-28T12:54:10Z</time>
      </trkpt>
      <trkpt lat="40.470567" lon="-5.255833">
        <ele>2115.0</ele>
        <time>2018-07-28T12:54:11Z</time>
      </trkpt>
      <trkpt lat="40.470683" lon="-5.255800">
        <ele>2113.0</ele>
        <time>2018-07-28T12:54:12Z</time>
      </trkpt>
      <trkpt lat="40.470800" lon="-5.255750">
        <ele>2111.0</ele>
        <time>2018-07-28T12:54:13Z</time>
      </trkpt>
      <trkpt lat="40.470900" lon="-5.255717">
        <ele>2108.0</ele>
        <time>2018-07-28T12:54:14Z</time>
      </trkpt>
      <trkpt lat="40.471017" lon="-5.255667">
        <ele>2106.0</ele>
        <time>2018-07-28T12:54:15Z</time>
      </trkpt>
      <trkpt lat="40.471133" lon="-5.255633">
        <ele>2104.0</ele>
        <time>2018-07-28T12:54:16Z</time>
      </trkpt>
      <trkpt lat="40.471233" lon="-5.255600">
        <ele>2101.0</ele>
        <time>2018-07-28T12:54:17Z</time>
      </trkpt>
      <trkpt lat="40.471350" lon="-5.255583">
        <ele>2099.0</ele>
        <time>2018-07-28T12:54:18Z</time>
      </trkpt>
      <trkpt lat="40.471467" lon="-5.255550">
        <ele>2096.0</ele>
        <time>2018-07-28T12:54:19Z</time>
      </trkpt>
      <trkpt lat="40.471583" lon="-5.255517">
        <ele>2092.0</ele>
        <time>2018-07-28T12:54:20Z</time>
      </trkpt>
      <trkpt lat="40.471700" lon="-5.255450">
        <ele>2089.0</ele>
        <time>2018-07-28T12:54:21Z</time>
      </trkpt>
      <trkpt lat="40.471833" lon="-5.255383">
        <ele>2086.0</ele>
        <time>2018-07-28T12:54:22Z</time>
      </trkpt>
      <trkpt lat="40.471950" lon="-5.255317">
        <ele>2085.0</ele>
        <time>2018-07-28T12:54:23Z</time>
      </trkpt>
      <trkpt lat="40.472083" lon="-5.255267">
        <ele>2083.0</ele>
        <time>2018-07-28T12:54:24Z</time>
      </trkpt>
      <trkpt lat="40.472183" lon="-5.255200">
        <ele>2082.0</ele>
        <time>2018-07-28T12:54:25Z</time>
      </trkpt>
      <trkpt lat="40.472300" lon="-5.255133">
        <ele>2080.0</ele>
        <time>2018-07-28T12:54:26Z</time>
      </trkpt>
      <trkpt lat="40.472417" lon="-5.255067">
        <ele>2078.0</ele>
        <time>2018-07-28T12:54:27Z</time>
      </trkpt>
      <trkpt lat="40.472533" lon="-5.255000">
        <ele>2075.0</ele>
        <time>2018-07-28T12:54:28Z</time>
      </trkpt>
      <trkpt lat="40.472650" lon="-5.254950">
        <ele>2073.0</ele>
        <time>2018-07-28T12:54:29Z</time>
      </trkpt>
      <trkpt lat="40.472767" lon="-5.254900">
        <ele>2071.0</ele>
        <time>2018-07-28T12:54:30Z</time>
      </trkpt>
      <trkpt lat="40.472883" lon="-5.254850">
        <ele>2070.0</ele>
        <time>2018-07-28T12:54:31Z</time>
      </trkpt>
      <trkpt lat="40.473000" lon="-5.254783">
        <ele>2068.0</ele>
        <time>2018-07-28T12:54:32Z</time>
      </trkpt>
      <trkpt lat="40.473117" lon="-5.254733">
        <ele>2067.0</ele>
        <time>2018-07-28T12:54:33Z</time>
      </trkpt>
      <trkpt lat="40.473217" lon="-5.254667">
        <ele>2065.0</ele>
        <time>2018-07-28T12:54:34Z</time>
      </trkpt>
      <trkpt lat="40.473317" lon="-5.254600">
        <ele>2063.0</ele>
        <time>2018-07-28T12:54:35Z</time>
      </trkpt>
      <trkpt lat="40.473433" lon="-5.254533">
        <ele>2059.0</ele>
        <time>2018-07-28T12:54:36Z</time>
      </trkpt>
      <trkpt lat="40.473550" lon="-5.254467">
        <ele>2057.0</ele>
        <time>2018-07-28T12:54:37Z</time>
      </trkpt>
      <trkpt lat="40.473650" lon="-5.254400">
        <ele>2055.0</ele>
        <time>2018-07-28T12:54:38Z</time>
      </trkpt>
      <trkpt lat="40.473767" lon="-5.254350">
        <ele>2053.0</ele>
        <time>2018-07-28T12:54:39Z</time>
      </trkpt>
      <trkpt lat="40.473867" lon="-5.254283">
        <ele>2052.0</ele>
        <time>2018-07-28T12:54:40Z</time>
      </trkpt>
      <trkpt lat="40.473983" lon="-5.254217">
        <ele>2050.0</ele>
        <time>2018-07-28T12:54:41Z</time>
      </trkpt>
      <trkpt lat="40.474083" lon="-5.254150">
        <ele>2048.0</ele>
        <time>2018-07-28T12:54:42Z</time>
      </trkpt>
      <trkpt lat="40.474200" lon="-5.254067">
        <ele>2047.0</ele>
        <time>2018-07-28T12:54:43Z</time>
      </trkpt>
      <trkpt lat="40.474300" lon="-5.253983">
        <ele>2045.0</ele>
        <time>2018-07-28T12:54:44Z</time>
      </trkpt>
      <trkpt lat="40.474417" lon="-5.253900">
        <ele>2043.0</ele>
        <time>2018-07-28T12:54:45Z</time>
      </trkpt>
      <trkpt lat="40.474533" lon="-5.253817">
        <ele>2041.0</ele>
        <time>2018-07-28T12:54:46Z</time>
      </trkpt>
      <trkpt lat="40.474650" lon="-5.253733">
        <ele>2040.0</ele>
        <time>2018-07-28T12:54:47Z</time>
      </trkpt>
      <trkpt lat="40.474750" lon="-5.253633">
        <ele>2039.0</ele>
        <time>2018-07-28T12:54:48Z</time>
      </trkpt>
      <trkpt lat="40.474867" lon="-5.253567">
        <ele>2038.0</ele>
        <time>2018-07-28T12:54:49Z</time>
      </trkpt>
      <trkpt lat="40.474967" lon="-5.253483">
        <ele>2037.0</ele>
        <time>2018-07-28T12:54:50Z</time>
      </trkpt>
      <trkpt lat="40.475067" lon="-5.253417">
        <ele>2036.0</ele>
        <time>2018-07-28T12:54:51Z</time>
      </trkpt>
      <trkpt lat="40.475167" lon="-5.253350">
        <ele>2034.0</ele>
        <time>2018-07-28T12:54:52Z</time>
      </trkpt>
      <trkpt lat="40.475267" lon="-5.253267">
        <ele>2032.0</ele>
        <time>2018-07-28T12:54:53Z</time>
      </trkpt>
      <trkpt lat="40.475367" lon="-5.253183">
        <ele>2031.0</ele>
        <time>2018-07-28T12:54:54Z</time>
      </trkpt>
      <trkpt lat="40.475467" lon="-5.253117">
        <ele>2030.0</ele>
        <time>2018-07-28T12:54:55Z</time>
      </trkpt>
      <trkpt lat="40.475567" lon="-5.253033">
        <ele>2028.0</ele>
        <time>2018-07-28T12:54:56Z</time>
      </trkpt>
      <trkpt lat="40.475650" lon="-5.252967">
        <ele>2026.0</ele>
        <time>2018-07-28T12:54:57Z</time>
      </trkpt>
      <trkpt lat="40.475750" lon="-5.252900">
        <ele>2023.0</ele>
        <time>2018-07-28T12:54:58Z</time>
      </trkpt>
      <trkpt lat="40.475867" lon="-5.252817">
        <ele>2021.0</ele>
        <time>2018-07-28T12:54:59Z</time>
      </trkpt>
      <trkpt lat="40.475967" lon="-5.252733">
        <ele>2019.0</ele>
        <time>2018-07-28T12:55:00Z</time>
      </trkpt>
      <trkpt lat="40.476083" lon="-5.252667">
        <ele>2017.0</ele>
        <time>2018-07-28T12:55:01Z</time>
      </trkpt>
      <trkpt lat="40.476200" lon="-5.252600">
        <ele>2016.0</ele>
        <time>2018-07-28T12:55:02Z</time>
      </trkpt>
      <trkpt lat="40.476317" lon="-5.252533">
        <ele>2016.0</ele>
        <time>2018-07-28T12:55:03Z</time>
      </trkpt>
      <trkpt lat="40.476433" lon="-5.252483">
        <ele>2014.0</ele>
        <time>2018-07-28T12:55:04Z</time>
      </trkpt>
      <trkpt lat="40.476550" lon="-5.252433">
        <ele>2012.0</ele>
        <time>2018-07-28T12:55:05Z</time>
      </trkpt>
      <trkpt lat="40.476667" lon="-5.252400">
        <ele>2010.0</ele>
        <time>2018-07-28T12:55:06Z</time>
      </trkpt>
      <trkpt lat="40.476800" lon="-5.252350">
        <ele>2008.0</ele>
        <time>2018-07-28T12:55:07Z</time>
      </trkpt>
      <trkpt lat="40.476917" lon="-5.252300">
        <ele>2007.0</ele>
        <time>2018-07-28T12:55:08Z</time>
      </trkpt>
      <trkpt lat="40.477033" lon="-5.252250">
        <ele>2005.0</ele>
        <time>2018-07-28T12:55:09Z</time>
      </trkpt>
      <trkpt lat="40.477150" lon="-5.252183">
        <ele>2003.0</ele>
        <time>2018-07-28T12:55:10Z</time>
      </trkpt>
      <trkpt lat="40.477267" lon="-5.252133">
        <ele>2000.0</ele>
        <time>2018-07-28T12:55:11Z</time>
      </trkpt>
      <trkpt lat="40.477383" lon="-5.252083">
        <ele>1999.0</ele>
        <time>2018-07-28T12:55:12Z</time>
      </trkpt>
      <trkpt lat="40.477500" lon="-5.252050">
        <ele>1997.0</ele>
        <time>2018-07-28T12:55:13Z</time>
      </trkpt>
      <trkpt lat="40.477617" lon="-5.251983">
        <ele>1996.0</ele>
        <time>2018-07-28T12:55:14Z</time>
      </trkpt>
      <trkpt lat="40.477717" lon="-5.251917">
        <ele>1995.0</ele>
        <time>2018-07-28T12:55:15Z</time>
      </trkpt>
      <trkpt lat="40.477817" lon="-5.251850">
        <ele>1992.0</ele>
        <time>2018-07-28T12:55:16Z</time>
      </trkpt>
      <trkpt lat="40.477917" lon="-5.251783">
        <ele>1990.0</ele>
        <time>2018-07-28T12:55:17Z</time>
      </trkpt>
      <trkpt lat="40.478033" lon="-5.251700">
        <ele>1986.0</ele>
        <time>2018-07-28T12:55:18Z</time>
      </trkpt>
      <trkpt lat="40.478150" lon="-5.251633">
        <ele>1983.0</ele>
        <time>2018-07-28T12:55:19Z</time>
      </trkpt>
      <trkpt lat="40.478267" lon="-5.251567">
        <ele>1981.0</ele>
        <time>2018-07-28T12:55:20Z</time>
      </trkpt>
      <trkpt lat="40.478367" lon="-5.251483">
        <ele>1978.0</ele>
        <time>2018-07-28T12:55:21Z</time>
      </trkpt>
      <trkpt lat="40.478483" lon="-5.251417">
        <ele>1977.0</ele>
        <time>2018-07-28T12:55:22Z</time>
      </trkpt>
      <trkpt lat="40.478600" lon="-5.251350">
        <ele>1975.0</ele>
        <time>2018-07-28T12:55:23Z</time>
      </trkpt>
      <trkpt lat="40.478700" lon="-5.251283">
        <ele>1973.0</ele>
        <time>2018-07-28T12:55:24Z</time>
      </trkpt>
      <trkpt lat="40.478817" lon="-5.251217">
        <ele>1971.0</ele>
        <time>2018-07-28T12:55:25Z</time>
      </trkpt>
      <trkpt lat="40.478933" lon="-5.251133">
        <ele>1969.0</ele>
        <time>2018-07-28T12:55:26Z</time>
      </trkpt>
      <trkpt lat="40.479050" lon="-5.251050">
        <ele>1968.0</ele>
        <time>2018-07-28T12:55:27Z</time>
      </trkpt>
      <trkpt lat="40.479150" lon="-5.250983">
        <ele>1966.0</ele>
        <time>2018-07-28T12:55:28Z</time>
      </trkpt>
      <trkpt lat="40.479250" lon="-5.250900">
        <ele>1965.0</ele>
        <time>2018-07-28T12:55:29Z</time>
      </trkpt>
      <trkpt lat="40.479367" lon="-5.250817">
        <ele>1963.0</ele>
        <time>2018-07-28T12:55:30Z</time>
      </trkpt>
      <trkpt lat="40.479467" lon="-5.250733">
        <ele>1961.0</ele>
        <time>2018-07-28T12:55:31Z</time>
      </trkpt>
      <trkpt lat="40.479567" lon="-5.250650">
        <ele>1959.0</ele>
        <time>2018-07-28T12:55:32Z</time>
      </trkpt>
      <trkpt lat="40.479667" lon="-5.250550">
        <ele>1957.0</ele>
        <time>2018-07-28T12:55:33Z</time>
      </trkpt>
      <trkpt lat="40.479767" lon="-5.250467">
        <ele>1955.0</ele>
        <time>2018-07-28T12:55:34Z</time>
      </trkpt>
      <trkpt lat="40.479867" lon="-5.250367">
        <ele>1953.0</ele>
        <time>2018-07-28T12:55:35Z</time>
      </trkpt>
      <trkpt lat="40.479967" lon="-5.250267">
        <ele>1951.0</ele>
        <time>2018-07-28T12:55:36Z</time>
      </trkpt>
      <trkpt lat="40.480067" lon="-5.250183">
        <ele>1949.0</ele>
        <time>2018-07-28T12:55:37Z</time>
      </trkpt>
      <trkpt lat="40.480167" lon="-5.250083">
        <ele>1947.0</ele>
        <time>2018-07-28T12:55:38Z</time>
      </trkpt>
      <trkpt lat="40.480283" lon="-5.249983">
        <ele>1945.0</ele>
        <time>2018-07-28T12:55:39Z</time>
      </trkpt>
      <trkpt lat="40.480383" lon="-5.249900">
        <ele>1942.0</ele>
        <time>2018-07-28T12:55:40Z</time>
      </trkpt>
      <trkpt lat="40.480483" lon="-5.249800">
        <ele>1940.0</ele>
        <time>2018-07-28T12:55:41Z</time>
      </trkpt>
      <trkpt lat="40.480600" lon="-5.249700">
        <ele>1937.0</ele>
        <time>2018-07-28T12:55:42Z</time>
      </trkpt>
      <trkpt lat="40.480717" lon="-5.249600">
        <ele>1935.0</ele>
        <time>2018-07-28T12:55:43Z</time>
      </trkpt>
      <trkpt lat="40.480833" lon="-5.249500">
        <ele>1934.0</ele>
        <time>2018-07-28T12:55:44Z</time>
      </trkpt>
      <trkpt lat="40.480933" lon="-5.249417">
        <ele>1933.0</ele>
        <time>2018-07-28T12:55:45Z</time>
      </trkpt>
      <trkpt lat="40.481033" lon="-5.249317">
        <ele>1932.0</ele>
        <time>2018-07-28T12:55:46Z</time>
      </trkpt>
      <trkpt lat="40.481133" lon="-5.249233">
        <ele>1931.0</ele>
        <time>2018-07-28T12:55:47Z</time>
      </trkpt>
      <trkpt lat="40.481233" lon="-5.249117">
        <ele>1929.0</ele>
        <time>2018-07-28T12:55:48Z</time>
      </trkpt>
      <trkpt lat="40.481317" lon="-5.249000">
        <ele>1926.0</ele>
        <time>2018-07-28T12:55:49Z</time>
      </trkpt>
      <trkpt lat="40.481400" lon="-5.248850">
        <ele>1923.0</ele>
        <time>2018-07-28T12:55:50Z</time>
      </trkpt>
      <trkpt lat="40.481483" lon="-5.248700">
        <ele>1920.0</ele>
        <time>2018-07-28T12:55:51Z</time>
      </trkpt>
      <trkpt lat="40.481567" lon="-5.248517">
        <ele>1918.0</ele>
        <time>2018-07-28T12:55:52Z</time>
      </trkpt>
      <trkpt lat="40.481650" lon="-5.248367">
        <ele>1917.0</ele>
        <time>2018-07-28T12:55:53Z</time>
      </trkpt>
      <trkpt lat="40.481733" lon="-5.248217">
        <ele>1917.0</ele>
        <time>2018-07-28T12:55:54Z</time>
      </trkpt>
      <trkpt lat="40.481800" lon="-5.248083">
        <ele>1917.0</ele>
        <time>2018-07-28T12:55:55Z</time>
      </trkpt>
      <trkpt lat="40.481883" lon="-5.247950">
        <ele>1917.0</ele>
        <time>2018-07-28T12:55:56Z</time>
      </trkpt>
      <trkpt lat="40.481950" lon="-5.247817">
        <ele>1915.0</ele>
        <time>2018-07-28T12:55:57Z</time>
      </trkpt>
      <trkpt lat="40.482000" lon="-5.247667">
        <ele>1913.0</ele>
        <time>2018-07-28T12:55:58Z</time>
      </trkpt>
      <trkpt lat="40.482050" lon="-5.247500">
        <ele>1910.0</ele>
        <time>2018-07-28T12:55:59Z</time>
      </trkpt>
      <trkpt lat="40.482133" lon="-5.247333">
        <ele>1908.0</ele>
        <time>2018-07-28T12:56:00Z</time>
      </trkpt>
      <trkpt lat="40.482217" lon="-5.247183">
        <ele>1908.0</ele>
        <time>2018-07-28T12:56:01Z</time>
      </trkpt>
      <trkpt lat="40.482317" lon="-5.247033">
        <ele>1910.0</ele>
        <time>2018-07-28T12:56:02Z</time>
      </trkpt>
      <trkpt lat="40.482400" lon="-5.246900">
        <ele>1913.0</ele>
        <time>2018-07-28T12:56:03Z</time>
      </trkpt>
      <trkpt lat="40.482467" lon="-5.246767">
        <ele>1915.0</ele>
        <time>2018-07-28T12:56:04Z</time>
      </trkpt>
      <trkpt lat="40.482533" lon="-5.246633">
        <ele>1916.0</ele>
        <time>2018-07-28T12:56:05Z</time>
      </trkpt>
      <trkpt lat="40.482617" lon="-5.246500">
        <ele>1915.0</ele>
        <time>2018-07-28T12:56:06Z</time>
      </trkpt>
      <trkpt lat="40.482683" lon="-5.246367">
        <ele>1915.0</ele>
        <time>2018-07-28T12:56:07Z</time>
      </trkpt>
      <trkpt lat="40.482750" lon="-5.246217">
        <ele>1915.0</ele>
        <time>2018-07-28T12:56:08Z</time>
      </trkpt>
      <trkpt lat="40.482800" lon="-5.246050">
        <ele>1914.0</ele>
        <time>2018-07-28T12:56:09Z</time>
      </trkpt>
      <trkpt lat="40.482817" lon="-5.245850">
        <ele>1912.0</ele>
        <time>2018-07-28T12:56:10Z</time>
      </trkpt>
      <trkpt lat="40.482800" lon="-5.245650">
        <ele>1912.0</ele>
        <time>2018-07-28T12:56:11Z</time>
      </trkpt>
      <trkpt lat="40.482783" lon="-5.245450">
        <ele>1913.0</ele>
        <time>2018-07-28T12:56:12Z</time>
      </trkpt>
      <trkpt lat="40.482767" lon="-5.245250">
        <ele>1914.0</ele>
        <time>2018-07-28T12:56:13Z</time>
      </trkpt>
      <trkpt lat="40.482767" lon="-5.245067">
        <ele>1916.0</ele>
        <time>2018-07-28T12:56:14Z</time>
      </trkpt>
      <trkpt lat="40.482750" lon="-5.244883">
        <ele>1917.0</ele>
        <time>2018-07-28T12:56:15Z</time>
      </trkpt>
      <trkpt lat="40.482717" lon="-5.244717">
        <ele>1917.0</ele>
        <time>2018-07-28T12:56:16Z</time>
      </trkpt>
      <trkpt lat="40.482667" lon="-5.244567">
        <ele>1916.0</ele>
        <time>2018-07-28T12:56:17Z</time>
      </trkpt>
      <trkpt lat="40.482583" lon="-5.244433">
        <ele>1914.0</ele>
        <time>2018-07-28T12:56:18Z</time>
      </trkpt>
      <trkpt lat="40.482500" lon="-5.244333">
        <ele>1914.0</ele>
        <time>2018-07-28T12:56:19Z</time>
      </trkpt>
      <trkpt lat="40.482400" lon="-5.244267">
        <ele>1915.0</ele>
        <time>2018-07-28T12:56:20Z</time>
      </trkpt>
      <trkpt lat="40.482300" lon="-5.244250">
        <ele>1917.0</ele>
        <time>2018-07-28T12:56:21Z</time>
      </trkpt>
      <trkpt lat="40.482233" lon="-5.244233">
        <ele>1920.0</ele>
        <time>2018-07-28T12:56:22Z</time>
      </trkpt>
      <trkpt lat="40.482167" lon="-5.244233">
        <ele>1922.0</ele>
        <time>2018-07-28T12:56:23Z</time>
      </trkpt>
      <trkpt lat="40.482117" lon="-5.244250">
        <ele>1923.0</ele>
        <time>2018-07-28T12:56:24Z</time>
      </trkpt>
      <trkpt lat="40.482050" lon="-5.244267">
        <ele>1922.0</ele>
        <time>2018-07-28T12:56:25Z</time>
      </trkpt>
      <trkpt lat="40.482000" lon="-5.244333">
        <ele>1922.0</ele>
        <time>2018-07-28T12:56:26Z</time>
      </trkpt>
      <trkpt lat="40.481967" lon="-5.244417">
        <ele>1923.0</ele>
        <time>2018-07-28T12:56:27Z</time>
      </trkpt>
      <trkpt lat="40.481967" lon="-5.244517">
        <ele>1925.0</ele>
        <time>2018-07-28T12:56:28Z</time>
      </trkpt>
      <trkpt lat="40.481967" lon="-5.244617">
        <ele>1927.0</ele>
        <time>2018-07-28T12:56:29Z</time>
      </trkpt>
      <trkpt lat="40.481983" lon="-5.244700">
        <ele>1929.0</ele>
        <time>2018-07-28T12:56:30Z</time>
      </trkpt>
      <trkpt lat="40.482017" lon="-5.244783">
        <ele>1929.0</ele>
        <time>2018-07-28T12:56:31Z</time>
      </trkpt>
      <trkpt lat="40.482067" lon="-5.244867">
        <ele>1930.0</ele>
        <time>2018-07-28T12:56:32Z</time>
      </trkpt>
      <trkpt lat="40.482117" lon="-5.244933">
        <ele>1930.0</ele>
        <time>2018-07-28T12:56:33Z</time>
      </trkpt>
      <trkpt lat="40.482167" lon="-5.244983">
        <ele>1931.0</ele>
        <time>2018-07-28T12:56:34Z</time>
      </trkpt>
      <trkpt lat="40.482233" lon="-5.245033">
        <ele>1932.0</ele>
        <time>2018-07-28T12:56:35Z</time>
      </trkpt>
      <trkpt lat="40.482333" lon="-5.245067">
        <ele>1934.0</ele>
        <time>2018-07-28T12:56:36Z</time>
      </trkpt>
      <trkpt lat="40.482417" lon="-5.245100">
        <ele>1937.0</ele>
        <time>2018-07-28T12:56:37Z</time>
      </trkpt>
      <trkpt lat="40.482517" lon="-5.245117">
        <ele>1940.0</ele>
        <time>2018-07-28T12:56:38Z</time>
      </trkpt>
      <trkpt lat="40.482583" lon="-5.245133">
        <ele>1943.0</ele>
        <time>2018-07-28T12:56:39Z</time>
      </trkpt>
      <trkpt lat="40.482650" lon="-5.245150">
        <ele>1946.0</ele>
        <time>2018-07-28T12:56:40Z</time>
      </trkpt>
      <trkpt lat="40.482733" lon="-5.245150">
        <ele>1948.0</ele>
        <time>2018-07-28T12:56:41Z</time>
      </trkpt>
      <trkpt lat="40.482817" lon="-5.245117">
        <ele>1948.0</ele>
        <time>2018-07-28T12:56:42Z</time>
      </trkpt>
      <trkpt lat="40.482933" lon="-5.245050">
        <ele>1947.0</ele>
        <time>2018-07-28T12:56:43Z</time>
      </trkpt>
      <trkpt lat="40.483067" lon="-5.244967">
        <ele>1946.0</ele>
        <time>2018-07-28T12:56:44Z</time>
      </trkpt>
      <trkpt lat="40.483183" lon="-5.244833">
        <ele>1947.0</ele>
        <time>2018-07-28T12:56:45Z</time>
      </trkpt>
      <trkpt lat="40.483267" lon="-5.244667">
        <ele>1948.0</ele>
        <time>2018-07-28T12:56:46Z</time>
      </trkpt>
      <trkpt lat="40.483317" lon="-5.244483">
        <ele>1950.0</ele>
        <time>2018-07-28T12:56:47Z</time>
      </trkpt>
      <trkpt lat="40.483350" lon="-5.244317">
        <ele>1952.0</ele>
        <time>2018-07-28T12:56:48Z</time>
      </trkpt>
      <trkpt lat="40.483333" lon="-5.244150">
        <ele>1953.0</ele>
        <time>2018-07-28T12:56:49Z</time>
      </trkpt>
      <trkpt lat="40.483300" lon="-5.243983">
        <ele>1952.0</ele>
        <time>2018-07-28T12:56:50Z</time>
      </trkpt>
      <trkpt lat="40.483233" lon="-5.243833">
        <ele>1950.0</ele>
        <time>2018-07-28T12:56:51Z</time>
      </trkpt>
      <trkpt lat="40.483150" lon="-5.243717">
        <ele>1949.0</ele>
        <time>2018-07-28T12:56:52Z</time>
      </trkpt>
      <trkpt lat="40.483050" lon="-5.243633">
        <ele>1948.0</ele>
        <time>2018-07-28T12:56:53Z</time>
      </trkpt>
      <trkpt lat="40.482950" lon="-5.243583">
        <ele>1948.0</ele>
        <time>2018-07-28T12:56:54Z</time>
      </trkpt>
      <trkpt lat="40.482850" lon="-5.243583">
        <ele>1950.0</ele>
        <time>2018-07-28T12:56:55Z</time>
      </trkpt>
      <trkpt lat="40.482783" lon="-5.243583">
        <ele>1953.0</ele>
        <time>2018-07-28T12:56:56Z</time>
      </trkpt>
      <trkpt lat="40.482717" lon="-5.243600">
        <ele>1956.0</ele>
        <time>2018-07-28T12:56:57Z</time>
      </trkpt>
      <trkpt lat="40.482667" lon="-5.243583">
        <ele>1957.0</ele>
        <time>2018-07-28T12:56:58Z</time>
      </trkpt>
      <trkpt lat="40.482600" lon="-5.243533">
        <ele>1957.0</ele>
        <time>2018-07-28T12:56:59Z</time>
      </trkpt>
      <trkpt lat="40.482517" lon="-5.243483">
        <ele>1956.0</ele>
        <time>2018-07-28T12:57:00Z</time>
      </trkpt>
      <trkpt lat="40.482450" lon="-5.243433">
        <ele>1955.0</ele>
        <time>2018-07-28T12:57:01Z</time>
      </trkpt>
      <trkpt lat="40.482350" lon="-5.243400">
        <ele>1954.0</ele>
        <time>2018-07-28T12:57:02Z</time>
      </trkpt>
      <trkpt lat="40.482250" lon="-5.243367">
        <ele>1955.0</ele>
        <time>2018-07-28T12:57:03Z</time>
      </trkpt>
      <trkpt lat="40.482150" lon="-5.243333">
        <ele>1957.0</ele>
        <time>2018-07-28T12:57:04Z</time>
      </trkpt>
      <trkpt lat="40.482067" lon="-5.243300">
        <ele>1959.0</ele>
        <time>2018-07-28T12:57:05Z</time>
      </trkpt>
      <trkpt lat="40.482000" lon="-5.243267">
        <ele>1962.0</ele>
        <time>2018-07-28T12:57:06Z</time>
      </trkpt>
      <trkpt lat="40.481933" lon="-5.243250">
        <ele>1963.0</ele>
        <time>2018-07-28T12:57:07Z</time>
      </trkpt>
      <trkpt lat="40.481867" lon="-5.243217">
        <ele>1964.0</ele>
        <time>2018-07-28T12:57:08Z</time>
      </trkpt>
      <trkpt lat="40.481800" lon="-5.243183">
        <ele>1965.0</ele>
        <time>2018-07-28T12:57:09Z</time>
      </trkpt>
      <trkpt lat="40.481717" lon="-5.243100">
        <ele>1966.0</ele>
        <time>2018-07-28T12:57:10Z</time>
      </trkpt>
      <trkpt lat="40.481633" lon="-5.243017">
        <ele>1968.0</ele>
        <time>2018-07-28T12:57:11Z</time>
      </trkpt>
      <trkpt lat="40.481567" lon="-5.242917">
        <ele>1971.0</ele>
        <time>2018-07-28T12:57:12Z</time>
      </trkpt>
      <trkpt lat="40.481500" lon="-5.242850">
        <ele>1974.0</ele>
        <time>2018-07-28T12:57:13Z</time>
      </trkpt>
      <trkpt lat="40.481433" lon="-5.242783">
        <ele>1976.0</ele>
        <time>2018-07-28T12:57:14Z</time>
      </trkpt>
      <trkpt lat="40.481350" lon="-5.242733">
        <ele>1978.0</ele>
        <time>2018-07-28T12:57:15Z</time>
      </trkpt>
      <trkpt lat="40.481267" lon="-5.242717">
        <ele>1980.0</ele>
        <time>2018-07-28T12:57:16Z</time>
      </trkpt>
      <trkpt lat="40.481183" lon="-5.242717">
        <ele>1982.0</ele>
        <time>2018-07-28T12:57:17Z</time>
      </trkpt>
      <trkpt lat="40.481117" lon="-5.242750">
        <ele>1984.0</ele>
        <time>2018-07-28T12:57:18Z</time>
      </trkpt>
      <trkpt lat="40.481067" lon="-5.242800">
        <ele>1984.0</ele>
        <time>2018-07-28T12:57:19Z</time>
      </trkpt>
      <trkpt lat="40.481050" lon="-5.242867">
        <ele>1984.0</ele>
        <time>2018-07-28T12:57:20Z</time>
      </trkpt>
      <trkpt lat="40.481050" lon="-5.242950">
        <ele>1983.0</ele>
        <time>2018-07-28T12:57:21Z</time>
      </trkpt>
      <trkpt lat="40.481067" lon="-5.243033">
        <ele>1984.0</ele>
        <time>2018-07-28T12:57:22Z</time>
      </trkpt>
      <trkpt lat="40.481100" lon="-5.243117">
        <ele>1985.0</ele>
        <time>2018-07-28T12:57:23Z</time>
      </trkpt>
      <trkpt lat="40.481133" lon="-5.243200">
        <ele>1986.0</ele>
        <time>2018-07-28T12:57:24Z</time>
      </trkpt>
      <trkpt lat="40.481183" lon="-5.243283">
        <ele>1988.0</ele>
        <time>2018-07-28T12:57:25Z</time>
      </trkpt>
      <trkpt lat="40.481250" lon="-5.243333">
        <ele>1990.0</ele>
        <time>2018-07-28T12:57:26Z</time>
      </trkpt>
      <trkpt lat="40.481317" lon="-5.243350">
        <ele>1993.0</ele>
        <time>2018-07-28T12:57:27Z</time>
      </trkpt>
      <trkpt lat="40.481400" lon="-5.243367">
        <ele>1993.0</ele>
        <time>2018-07-28T12:57:28Z</time>
      </trkpt>
      <trkpt lat="40.481500" lon="-5.243350">
        <ele>1994.0</ele>
        <time>2018-07-28T12:57:29Z</time>
      </trkpt>
      <trkpt lat="40.481600" lon="-5.243333">
        <ele>1993.0</ele>
        <time>2018-07-28T12:57:30Z</time>
      </trkpt>
      <trkpt lat="40.481700" lon="-5.243317">
        <ele>1994.0</ele>
        <time>2018-07-28T12:57:31Z</time>
      </trkpt>
      <trkpt lat="40.481817" lon="-5.243250">
        <ele>1996.0</ele>
        <time>2018-07-28T12:57:32Z</time>
      </trkpt>
      <trkpt lat="40.481900" lon="-5.243183">
        <ele>1998.0</ele>
        <time>2018-07-28T12:57:33Z</time>
      </trkpt>
      <trkpt lat="40.481983" lon="-5.243083">
        <ele>2000.0</ele>
        <time>2018-07-28T12:57:34Z</time>
      </trkpt>
      <trkpt lat="40.482067" lon="-5.242967">
        <ele>2001.0</ele>
        <time>2018-07-28T12:57:35Z</time>
      </trkpt>
      <trkpt lat="40.482167" lon="-5.242867">
        <ele>2001.0</ele>
        <time>2018-07-28T12:57:36Z</time>
      </trkpt>
      <trkpt lat="40.482267" lon="-5.242750">
        <ele>2002.0</ele>
        <time>2018-07-28T12:57:37Z</time>
      </trkpt>
      <trkpt lat="40.482350" lon="-5.242617">
        <ele>2004.0</ele>
        <time>2018-07-28T12:57:38Z</time>
      </trkpt>
      <trkpt lat="40.482417" lon="-5.242450">
        <ele>2004.0</ele>
        <time>2018-07-28T12:57:39Z</time>
      </trkpt>
      <trkpt lat="40.482433" lon="-5.242267">
        <ele>2004.0</ele>
        <time>2018-07-28T12:57:40Z</time>
      </trkpt>
      <trkpt lat="40.482450" lon="-5.242067">
        <ele>2005.0</ele>
        <time>2018-07-28T12:57:41Z</time>
      </trkpt>
      <trkpt lat="40.482450" lon="-5.241883">
        <ele>2008.0</ele>
        <time>2018-07-28T12:57:42Z</time>
      </trkpt>
      <trkpt lat="40.482433" lon="-5.241733">
        <ele>2011.0</ele>
        <time>2018-07-28T12:57:43Z</time>
      </trkpt>
      <trkpt lat="40.482383" lon="-5.241617">
        <ele>2012.0</ele>
        <time>2018-07-28T12:57:44Z</time>
      </trkpt>
      <trkpt lat="40.482300" lon="-5.241500">
        <ele>2012.0</ele>
        <time>2018-07-28T12:57:45Z</time>
      </trkpt>
      <trkpt lat="40.482217" lon="-5.241417">
        <ele>2012.0</ele>
        <time>2018-07-28T12:57:46Z</time>
      </trkpt>
      <trkpt lat="40.482133" lon="-5.241367">
        <ele>2013.0</ele>
        <time>2018-07-28T12:57:47Z</time>
      </trkpt>
      <trkpt lat="40.482033" lon="-5.241300">
        <ele>2016.0</ele>
        <time>2018-07-28T12:57:48Z</time>
      </trkpt>
      <trkpt lat="40.481967" lon="-5.241250">
        <ele>2018.0</ele>
        <time>2018-07-28T12:57:49Z</time>
      </trkpt>
      <trkpt lat="40.481883" lon="-5.241233">
        <ele>2021.0</ele>
        <time>2018-07-28T12:57:50Z</time>
      </trkpt>
      <trkpt lat="40.481833" lon="-5.241233">
        <ele>2023.0</ele>
        <time>2018-07-28T12:57:51Z</time>
      </trkpt>
      <trkpt lat="40.481783" lon="-5.241283">
        <ele>2024.0</ele>
        <time>2018-07-28T12:57:52Z</time>
      </trkpt>
      <trkpt lat="40.481733" lon="-5.241367">
        <ele>2025.0</ele>
        <time>2018-07-28T12:57:53Z</time>
      </trkpt>
      <trkpt lat="40.481717" lon="-5.241450">
        <ele>2026.0</ele>
        <time>2018-07-28T12:57:54Z</time>
      </trkpt>
      <trkpt lat="40.481733" lon="-5.241550">
        <ele>2029.0</ele>
        <time>2018-07-28T12:57:55Z</time>
      </trkpt>
      <trkpt lat="40.481750" lon="-5.241617">
        <ele>2031.0</ele>
        <time>2018-07-28T12:57:56Z</time>
      </trkpt>
      <trkpt lat="40.481800" lon="-5.241683">
        <ele>2033.0</ele>
        <time>2018-07-28T12:57:57Z</time>
      </trkpt>
      <trkpt lat="40.481883" lon="-5.241733">
        <ele>2034.0</ele>
        <time>2018-07-28T12:57:58Z</time>
      </trkpt>
      <trkpt lat="40.481967" lon="-5.241783">
        <ele>2035.0</ele>
        <time>2018-07-28T12:57:59Z</time>
      </trkpt>
      <trkpt lat="40.482067" lon="-5.241800">
        <ele>2036.0</ele>
        <time>2018-07-28T12:58:00Z</time>
      </trkpt>
      <trkpt lat="40.482183" lon="-5.241800">
        <ele>2037.0</ele>
        <time>2018-07-28T12:58:01Z</time>
      </trkpt>
      <trkpt lat="40.482300" lon="-5.241767">
        <ele>2039.0</ele>
        <time>2018-07-28T12:58:02Z</time>
      </trkpt>
      <trkpt lat="40.482417" lon="-5.241717">
        <ele>2041.0</ele>
        <time>2018-07-28T12:58:03Z</time>
      </trkpt>
      <trkpt lat="40.482533" lon="-5.241667">
        <ele>2043.0</ele>
        <time>2018-07-28T12:58:04Z</time>
      </trkpt>
      <trkpt lat="40.482633" lon="-5.241583">
        <ele>2046.0</ele>
        <time>2018-07-28T12:58:05Z</time>
      </trkpt>
      <trkpt lat="40.482717" lon="-5.241467">
        <ele>2047.0</ele>
        <time>2018-07-28T12:58:06Z</time>
      </trkpt>
      <trkpt lat="40.482783" lon="-5.241317">
        <ele>2046.0</ele>
        <time>2018-07-28T12:58:07Z</time>
      </trkpt>
      <trkpt lat="40.482833" lon="-5.241150">
        <ele>2046.0</ele>
        <time>2018-07-28T12:58:08Z</time>
      </trkpt>
      <trkpt lat="40.482850" lon="-5.240967">
        <ele>2047.0</ele>
        <time>2018-07-28T12:58:09Z</time>
      </trkpt>
      <trkpt lat="40.482850" lon="-5.240783">
        <ele>2047.0</ele>
        <time>2018-07-28T12:58:10Z</time>
      </trkpt>
      <trkpt lat="40.482833" lon="-5.240617">
        <ele>2048.0</ele>
        <time>2018-07-28T12:58:11Z</time>
      </trkpt>
      <trkpt lat="40.482783" lon="-5.240467">
        <ele>2048.0</ele>
        <time>2018-07-28T12:58:12Z</time>
      </trkpt>
      <trkpt lat="40.482717" lon="-5.240333">
        <ele>2048.0</ele>
        <time>2018-07-28T12:58:13Z</time>
      </trkpt>
      <trkpt lat="40.482650" lon="-5.240200">
        <ele>2050.0</ele>
        <time>2018-07-28T12:58:14Z</time>
      </trkpt>
      <trkpt lat="40.482583" lon="-5.240100">
        <ele>2050.0</ele>
        <time>2018-07-28T12:58:15Z</time>
      </trkpt>
      <trkpt lat="40.482517" lon="-5.240000">
        <ele>2051.0</ele>
        <time>2018-07-28T12:58:16Z</time>
      </trkpt>
      <trkpt lat="40.482433" lon="-5.239917">
        <ele>2052.0</ele>
        <time>2018-07-28T12:58:17Z</time>
      </trkpt>
      <trkpt lat="40.482333" lon="-5.239850">
        <ele>2052.0</ele>
        <time>2018-07-28T12:58:18Z</time>
      </trkpt>
      <trkpt lat="40.482250" lon="-5.239783">
        <ele>2054.0</ele>
        <time>2018-07-28T12:58:19Z</time>
      </trkpt>
      <trkpt lat="40.482167" lon="-5.239733">
        <ele>2056.0</ele>
        <time>2018-07-28T12:58:20Z</time>
      </trkpt>
      <trkpt lat="40.482083" lon="-5.239667">
        <ele>2059.0</ele>
        <time>2018-07-28T12:58:21Z</time>
      </trkpt>
      <trkpt lat="40.482000" lon="-5.239617">
        <ele>2061.0</ele>
        <time>2018-07-28T12:58:22Z</time>
      </trkpt>
      <trkpt lat="40.481933" lon="-5.239600">
        <ele>2063.0</ele>
        <time>2018-07-28T12:58:23Z</time>
      </trkpt>
      <trkpt lat="40.481850" lon="-5.239617">
        <ele>2064.0</ele>
        <time>2018-07-28T12:58:24Z</time>
      </trkpt>
      <trkpt lat="40.481783" lon="-5.239667">
        <ele>2065.0</ele>
        <time>2018-07-28T12:58:25Z</time>
      </trkpt>
      <trkpt lat="40.481733" lon="-5.239733">
        <ele>2066.0</ele>
        <time>2018-07-28T12:58:26Z</time>
      </trkpt>
      <trkpt lat="40.481700" lon="-5.239817">
        <ele>2068.0</ele>
        <time>2018-07-28T12:58:27Z</time>
      </trkpt>
      <trkpt lat="40.481717" lon="-5.239917">
        <ele>2070.0</ele>
        <time>2018-07-28T12:58:28Z</time>
      </trkpt>
      <trkpt lat="40.481733" lon="-5.240000">
        <ele>2072.0</ele>
        <time>2018-07-28T12:58:29Z</time>
      </trkpt>
      <trkpt lat="40.481783" lon="-5.240083">
        <ele>2074.0</ele>
        <time>2018-07-28T12:58:30Z</time>
      </trkpt>
      <trkpt lat="40.481867" lon="-5.240133">
        <ele>2076.0</ele>
        <time>2018-07-28T12:58:31Z</time>
      </trkpt>
      <trkpt lat="40.481950" lon="-5.240167">
        <ele>2078.0</ele>
        <time>2018-07-28T12:58:32Z</time>
      </trkpt>
      <trkpt lat="40.482050" lon="-5.240167">
        <ele>2079.0</ele>
        <time>2018-07-28T12:58:33Z</time>
      </trkpt>
      <trkpt lat="40.482167" lon="-5.240133">
        <ele>2080.0</ele>
        <time>2018-07-28T12:58:34Z</time>
      </trkpt>
      <trkpt lat="40.482267" lon="-5.240067">
        <ele>2081.0</ele>
        <time>2018-07-28T12:58:35Z</time>
      </trkpt>
      <trkpt lat="40.482367" lon="-5.239967">
        <ele>2081.0</ele>
        <time>2018-07-28T12:58:36Z</time>
      </trkpt>
      <trkpt lat="40.482467" lon="-5.239817">
        <ele>2082.0</ele>
        <time>2018-07-28T12:58:37Z</time>
      </trkpt>
      <trkpt lat="40.482517" lon="-5.239650">
        <ele>2083.0</ele>
        <time>2018-07-28T12:58:38Z</time>
      </trkpt>
      <trkpt lat="40.482550" lon="-5.239483">
        <ele>2085.0</ele>
        <time>2018-07-28T12:58:39Z</time>
      </trkpt>
      <trkpt lat="40.482567" lon="-5.239300">
        <ele>2086.0</ele>
        <time>2018-07-28T12:58:40Z</time>
      </trkpt>
      <trkpt lat="40.482550" lon="-5.239133">
        <ele>2088.0</ele>
        <time>2018-07-28T12:58:41Z</time>
      </trkpt>
      <trkpt lat="40.482500" lon="-5.238967">
        <ele>2089.0</ele>
        <time>2018-07-28T12:58:42Z</time>
      </trkpt>
      <trkpt lat="40.482450" lon="-5.238833">
        <ele>2091.0</ele>
        <time>2018-07-28T12:58:43Z</time>
      </trkpt>
      <trkpt lat="40.482383" lon="-5.238717">
        <ele>2093.0</ele>
        <time>2018-07-28T12:58:44Z</time>
      </trkpt>
      <trkpt lat="40.482300" lon="-5.238617">
        <ele>2094.0</ele>
        <time>2018-07-28T12:58:45Z</time>
      </trkpt>
      <trkpt lat="40.482233" lon="-5.238517">
        <ele>2096.0</ele>
        <time>2018-07-28T12:58:46Z</time>
      </trkpt>
      <trkpt lat="40.482167" lon="-5.238433">
        <ele>2097.0</ele>
        <time>2018-07-28T12:58:47Z</time>
      </trkpt>
      <trkpt lat="40.482083" lon="-5.238383">
        <ele>2097.0</ele>
        <time>2018-07-28T12:58:48Z</time>
      </trkpt>
      <trkpt lat="40.481983" lon="-5.238383">
        <ele>2098.0</ele>
        <time>2018-07-28T12:58:49Z</time>
      </trkpt>
      <trkpt lat="40.481900" lon="-5.238400">
        <ele>2099.0</ele>
        <time>2018-07-28T12:58:50Z</time>
      </trkpt>
      <trkpt lat="40.481817" lon="-5.238450">
        <ele>2100.0</ele>
        <time>2018-07-28T12:58:51Z</time>
      </trkpt>
      <trkpt lat="40.481750" lon="-5.238533">
        <ele>2101.0</ele>
        <time>2018-07-28T12:58:52Z</time>
      </trkpt>
      <trkpt lat="40.481733" lon="-5.238633">
        <ele>2103.0</ele>
        <time>2018-07-28T12:58:53Z</time>
      </trkpt>
      <trkpt lat="40.481717" lon="-5.238733">
        <ele>2104.0</ele>
        <time>2018-07-28T12:58:54Z</time>
      </trkpt>
      <trkpt lat="40.481733" lon="-5.238817">
        <ele>2105.0</ele>
        <time>2018-07-28T12:58:55Z</time>
      </trkpt>
      <trkpt lat="40.481767" lon="-5.238900">
        <ele>2107.0</ele>
        <time>2018-07-28T12:58:56Z</time>
      </trkpt>
      <trkpt lat="40.481833" lon="-5.238967">
        <ele>2107.0</ele>
        <time>2018-07-28T12:58:57Z</time>
      </trkpt>
      <trkpt lat="40.481900" lon="-5.239000">
        <ele>2107.0</ele>
        <time>2018-07-28T12:58:58Z</time>
      </trkpt>
      <trkpt lat="40.482000" lon="-5.239017">
        <ele>2107.0</ele>
        <time>2018-07-28T12:58:59Z</time>
      </trkpt>
      <trkpt lat="40.482117" lon="-5.239017">
        <ele>2108.0</ele>
        <time>2018-07-28T12:59:00Z</time>
      </trkpt>
      <trkpt lat="40.482217" lon="-5.239000">
        <ele>2109.0</ele>
        <time>2018-07-28T12:59:01Z</time>
      </trkpt>
      <trkpt lat="40.482300" lon="-5.238933">
        <ele>2110.0</ele>
        <time>2018-07-28T12:59:02Z</time>
      </trkpt>
      <trkpt lat="40.482400" lon="-5.238867">
        <ele>2111.0</ele>
        <time>2018-07-28T12:59:03Z</time>
      </trkpt>
      <trkpt lat="40.482500" lon="-5.238767">
        <ele>2111.0</ele>
        <time>2018-07-28T12:59:04Z</time>
      </trkpt>
      <trkpt lat="40.482583" lon="-5.238650">
        <ele>2112.0</ele>
        <time>2018-07-28T12:59:05Z</time>
      </trkpt>
      <trkpt lat="40.482650" lon="-5.238500">
        <ele>2113.0</ele>
        <time>2018-07-28T12:59:06Z</time>
      </trkpt>
      <trkpt lat="40.482683" lon="-5.238350">
        <ele>2114.0</ele>
        <time>2018-07-28T12:59:07Z</time>
      </trkpt>
      <trkpt lat="40.482700" lon="-5.238183">
        <ele>2115.0</ele>
        <time>2018-07-28T12:59:08Z</time>
      </trkpt>
      <trkpt lat="40.482683" lon="-5.238017">
        <ele>2116.0</ele>
        <time>2018-07-28T12:59:09Z</time>
      </trkpt>
      <trkpt lat="40.482650" lon="-5.237867">
        <ele>2117.0</ele>
        <time>2018-07-28T12:59:10Z</time>
      </trkpt>
      <trkpt lat="40.482600" lon="-5.237717">
        <ele>2118.0</ele>
        <time>2018-07-28T12:59:11Z</time>
      </trkpt>
      <trkpt lat="40.482533" lon="-5.237583">
        <ele>2119.0</ele>
        <time>2018-07-28T12:59:12Z</time>
      </trkpt>
      <trkpt lat="40.482450" lon="-5.237483">
        <ele>2120.0</ele>
        <time>2018-07-28T12:59:13Z</time>
      </trkpt>
      <trkpt lat="40.482367" lon="-5.237400">
        <ele>2121.0</ele>
        <time>2018-07-28T12:59:14Z</time>
      </trkpt>
      <trkpt lat="40.482267" lon="-5.237333">
        <ele>2122.0</ele>
        <time>2018-07-28T12:59:15Z</time>
      </trkpt>
      <trkpt lat="40.482183" lon="-5.237283">
        <ele>2123.0</ele>
        <time>2018-07-28T12:59:16Z</time>
      </trkpt>
      <trkpt lat="40.482083" lon="-5.237233">
        <ele>2125.0</ele>
        <time>2018-07-28T12:59:17Z</time>
      </trkpt>
      <trkpt lat="40.482000" lon="-5.237183">
        <ele>2127.0</ele>
        <time>2018-07-28T12:59:18Z</time>
      </trkpt>
      <trkpt lat="40.481933" lon="-5.237150">
        <ele>2129.0</ele>
        <time>2018-07-28T12:59:19Z</time>
      </trkpt>
      <trkpt lat="40.481867" lon="-5.237133">
        <ele>2129.0</ele>
        <time>2018-07-28T12:59:20Z</time>
      </trkpt>
      <trkpt lat="40.481783" lon="-5.237117">
        <ele>2129.0</ele>
        <time>2018-07-28T12:59:21Z</time>
      </trkpt>
      <trkpt lat="40.481717" lon="-5.237133">
        <ele>2129.0</ele>
        <time>2018-07-28T12:59:22Z</time>
      </trkpt>
      <trkpt lat="40.481650" lon="-5.237183">
        <ele>2129.0</ele>
        <time>2018-07-28T12:59:23Z</time>
      </trkpt>
      <trkpt lat="40.481583" lon="-5.237217">
        <ele>2130.0</ele>
        <time>2018-07-28T12:59:24Z</time>
      </trkpt>
      <trkpt lat="40.481533" lon="-5.237267">
        <ele>2130.0</ele>
        <time>2018-07-28T12:59:25Z</time>
      </trkpt>
      <trkpt lat="40.481500" lon="-5.237333">
        <ele>2130.0</ele>
        <time>2018-07-28T12:59:26Z</time>
      </trkpt>
      <trkpt lat="40.481467" lon="-5.237417">
        <ele>2130.0</ele>
        <time>2018-07-28T12:59:27Z</time>
      </trkpt>
      <trkpt lat="40.481483" lon="-5.237500">
        <ele>2129.0</ele>
        <time>2018-07-28T12:59:28Z</time>
      </trkpt>
      <trkpt lat="40.481517" lon="-5.237583">
        <ele>2128.0</ele>
        <time>2018-07-28T12:59:29Z</time>
      </trkpt>
      <trkpt lat="40.481567" lon="-5.237667">
        <ele>2127.0</ele>
        <time>2018-07-28T12:59:30Z</time>
      </trkpt>
      <trkpt lat="40.481650" lon="-5.237700">
        <ele>2126.0</ele>
        <time>2018-07-28T12:59:31Z</time>
      </trkpt>
      <trkpt lat="40.481750" lon="-5.237700">
        <ele>2125.0</ele>
        <time>2018-07-28T12:59:32Z</time>
      </trkpt>
      <trkpt lat="40.481850" lon="-5.237650">
        <ele>2124.0</ele>
        <time>2018-07-28T12:59:33Z</time>
      </trkpt>
      <trkpt lat="40.481933" lon="-5.237567">
        <ele>2123.0</ele>
        <time>2018-07-28T12:59:34Z</time>
      </trkpt>
      <trkpt lat="40.482000" lon="-5.237433">
        <ele>2122.0</ele>
        <time>2018-07-28T12:59:35Z</time>
      </trkpt>
      <trkpt lat="40.482033" lon="-5.237267">
        <ele>2121.0</ele>
        <time>2018-07-28T12:59:36Z</time>
      </trkpt>
      <trkpt lat="40.482033" lon="-5.237100">
        <ele>2120.0</ele>
        <time>2018-07-28T12:59:37Z</time>
      </trkpt>
      <trkpt lat="40.482000" lon="-5.236917">
        <ele>2119.0</ele>
        <time>2018-07-28T12:59:38Z</time>
      </trkpt>
      <trkpt lat="40.481950" lon="-5.236767">
        <ele>2119.0</ele>
        <time>2018-07-28T12:59:39Z</time>
      </trkpt>
      <trkpt lat="40.481883" lon="-5.236633">
        <ele>2119.0</ele>
        <time>2018-07-28T12:59:40Z</time>
      </trkpt>
      <trkpt lat="40.481817" lon="-5.236500">
        <ele>2120.0</ele>
        <time>2018-07-28T12:59:41Z</time>
      </trkpt>
      <trkpt lat="40.481750" lon="-5.236367">
        <ele>2119.0</ele>
        <time>2018-07-28T12:59:42Z</time>
      </trkpt>
      <trkpt lat="40.481700" lon="-5.236217">
        <ele>2118.0</ele>
        <time>2018-07-28T12:59:43Z</time>
      </trkpt>
      <trkpt lat="40.481667" lon="-5.236050">
        <ele>2117.0</ele>
        <time>2018-07-28T12:59:44Z</time>
      </trkpt>
      <trkpt lat="40.481633" lon="-5.235883">
        <ele>2117.0</ele>
        <time>2018-07-28T12:59:45Z</time>
      </trkpt>
      <trkpt lat="40.481617" lon="-5.235683">
        <ele>2117.0</ele>
        <time>2018-07-28T12:59:46Z</time>
      </trkpt>
      <trkpt lat="40.481617" lon="-5.235500">
        <ele>2118.0</ele>
        <time>2018-07-28T12:59:47Z</time>
      </trkpt>
      <trkpt lat="40.481633" lon="-5.235333">
        <ele>2119.0</ele>
        <time>2018-07-28T12:59:48Z</time>
      </trkpt>
      <trkpt lat="40.481650" lon="-5.235167">
        <ele>2120.0</ele>
        <time>2018-07-28T12:59:49Z</time>
      </trkpt>
      <trkpt lat="40.481683" lon="-5.235017">
        <ele>2122.0</ele>
        <time>2018-07-28T12:59:50Z</time>
      </trkpt>
      <trkpt lat="40.481733" lon="-5.234883">
        <ele>2122.0</ele>
        <time>2018-07-28T12:59:51Z</time>
      </trkpt>
      <trkpt lat="40.481783" lon="-5.234750">
        <ele>2123.0</ele>
        <time>2018-07-28T12:59:52Z</time>
      </trkpt>
      <trkpt lat="40.481867" lon="-5.234633">
        <ele>2123.0</ele>
        <time>2018-07-28T12:59:53Z</time>
      </trkpt>
      <trkpt lat="40.481950" lon="-5.234517">
        <ele>2123.0</ele>
        <time>2018-07-28T12:59:54Z</time>
      </trkpt>
      <trkpt lat="40.482050" lon="-5.234433">
        <ele>2125.0</ele>
        <time>2018-07-28T12:59:55Z</time>
      </trkpt>
      <trkpt lat="40.482150" lon="-5.234367">
        <ele>2126.0</ele>
        <time>2018-07-28T12:59:56Z</time>
      </trkpt>
      <trkpt lat="40.482250" lon="-5.234333">
        <ele>2127.0</ele>
        <time>2018-07-28T12:59:57Z</time>
      </trkpt>
      <trkpt lat="40.482350" lon="-5.234300">
        <ele>2129.0</ele>
        <time>2018-07-28T12:59:58Z</time>
      </trkpt>
      <trkpt lat="40.482433" lon="-5.234283">
        <ele>2131.0</ele>
        <time>2018-07-28T12:59:59Z</time>
      </trkpt>
      <trkpt lat="40.482533" lon="-5.234283">
        <ele>2133.0</ele>
        <time>2018-07-28T13:00:00Z</time>
      </trkpt>
      <trkpt lat="40.482617" lon="-5.234300">
        <ele>2135.0</ele>
        <time>2018-07-28T13:00:01Z</time>
      </trkpt>
      <trkpt lat="40.482700" lon="-5.234333">
        <ele>2136.0</ele>
        <time>2018-07-28T13:00:02Z</time>
      </trkpt>
      <trkpt lat="40.482767" lon="-5.234383">
        <ele>2136.0</ele>
        <time>2018-07-28T13:00:03Z</time>
      </trkpt>
      <trkpt lat="40.482800" lon="-5.234467">
        <ele>2136.0</ele>
        <time>2018-07-28T13:00:04Z</time>
      </trkpt>
      <trkpt lat="40.482817" lon="-5.234550">
        <ele>2135.0</ele>
        <time>2018-07-28T13:00:05Z</time>
      </trkpt>
      <trkpt lat="40.482800" lon="-5.234650">
        <ele>2134.0</ele>
        <time>2018-07-28T13:00:06Z</time>
      </trkpt>
      <trkpt lat="40.482783" lon="-5.234750">
        <ele>2133.0</ele>
        <time>2018-07-28T13:00:07Z</time>
      </trkpt>
      <trkpt lat="40.482733" lon="-5.234833">
        <ele>2134.0</ele>
        <time>2018-07-28T13:00:08Z</time>
      </trkpt>
      <trkpt lat="40.482667" lon="-5.234883">
        <ele>2134.0</ele>
        <time>2018-07-28T13:00:09Z</time>
      </trkpt>
      <trkpt lat="40.482600" lon="-5.234917">
        <ele>2133.0</ele>
        <time>2018-07-28T13:00:10Z</time>
      </trkpt>
      <trkpt lat="40.482517" lon="-5.234917">
        <ele>2133.0</ele>
        <time>2018-07-28T13:00:11Z</time>
      </trkpt>
      <trkpt lat="40.482417" lon="-5.234917">
        <ele>2131.0</ele>
        <time>2018-07-28T13:00:12Z</time>
      </trkpt>
      <trkpt lat="40.482317" lon="-5.234900">
        <ele>2131.0</ele>
        <time>2018-07-28T13:00:13Z</time>
      </trkpt>
      <trkpt lat="40.482217" lon="-5.234850">
        <ele>2132.0</ele>
        <time>2018-07-28T13:00:14Z</time>
      </trkpt>
      <trkpt lat="40.482117" lon="-5.234767">
        <ele>2132.0</ele>
        <time>2018-07-28T13:00:15Z</time>
      </trkpt>
      <trkpt lat="40.482033" lon="-5.234667">
        <ele>2133.0</ele>
        <time>2018-07-28T13:00:16Z</time>
      </trkpt>
      <trkpt lat="40.481967" lon="-5.234533">
        <ele>2133.0</ele>
        <time>2018-07-28T13:00:17Z</time>
      </trkpt>
      <trkpt lat="40.481900" lon="-5.234400">
        <ele>2133.0</ele>
        <time>2018-07-28T13:00:18Z</time>
      </trkpt>
      <trkpt lat="40.481833" lon="-5.234267">
        <ele>2133.0</ele>
        <time>2018-07-28T13:00:19Z</time>
      </trkpt>
      <trkpt lat="40.481783" lon="-5.234100">
        <ele>2133.0</ele>
        <time>2018-07-28T13:00:20Z</time>
      </trkpt>
      <trkpt lat="40.481750" lon="-5.233933">
        <ele>2134.0</ele>
        <time>2018-07-28T13:00:21Z</time>
      </trkpt>
      <trkpt lat="40.481733" lon="-5.233767">
        <ele>2134.0</ele>
        <time>2018-07-28T13:00:22Z</time>
      </trkpt>
      <trkpt lat="40.481750" lon="-5.233583">
        <ele>2134.0</ele>
        <time>2018-07-28T13:00:23Z</time>
      </trkpt>
      <trkpt lat="40.481767" lon="-5.233400">
        <ele>2134.0</ele>
        <time>2018-07-28T13:00:24Z</time>
      </trkpt>
      <trkpt lat="40.481800" lon="-5.233233">
        <ele>2134.0</ele>
        <time>2018-07-28T13:00:25Z</time>
      </trkpt>
      <trkpt lat="40.481850" lon="-5.233067">
        <ele>2134.0</ele>
        <time>2018-07-28T13:00:26Z</time>
      </trkpt>
      <trkpt lat="40.481917" lon="-5.232917">
        <ele>2133.0</ele>
        <time>2018-07-28T13:00:27Z</time>
      </trkpt>
      <trkpt lat="40.481983" lon="-5.232767">
        <ele>2134.0</ele>
        <time>2018-07-28T13:00:28Z</time>
      </trkpt>
      <trkpt lat="40.482083" lon="-5.232650">
        <ele>2134.0</ele>
        <time>2018-07-28T13:00:29Z</time>
      </trkpt>
      <trkpt lat="40.482183" lon="-5.232533">
        <ele>2135.0</ele>
        <time>2018-07-28T13:00:30Z</time>
      </trkpt>
      <trkpt lat="40.482283" lon="-5.232467">
        <ele>2135.0</ele>
        <time>2018-07-28T13:00:31Z</time>
      </trkpt>
      <trkpt lat="40.482383" lon="-5.232400">
        <ele>2136.0</ele>
        <time>2018-07-28T13:00:32Z</time>
      </trkpt>
      <trkpt lat="40.482467" lon="-5.232350">
        <ele>2138.0</ele>
        <time>2018-07-28T13:00:33Z</time>
      </trkpt>
      <trkpt lat="40.482567" lon="-5.232317">
        <ele>2139.0</ele>
        <time>2018-07-28T13:00:34Z</time>
      </trkpt>
      <trkpt lat="40.482667" lon="-5.232283">
        <ele>2141.0</ele>
        <time>2018-07-28T13:00:35Z</time>
      </trkpt>
      <trkpt lat="40.482767" lon="-5.232267">
        <ele>2142.0</ele>
        <time>2018-07-28T13:00:36Z</time>
      </trkpt>
      <trkpt lat="40.482850" lon="-5.232250">
        <ele>2144.0</ele>
        <time>2018-07-28T13:00:37Z</time>
      </trkpt>
      <trkpt lat="40.482933" lon="-5.232233">
        <ele>2145.0</ele>
        <time>2018-07-28T13:00:38Z</time>
      </trkpt>
      <trkpt lat="40.483017" lon="-5.232233">
        <ele>2146.0</ele>
        <time>2018-07-28T13:00:39Z</time>
      </trkpt>
      <trkpt lat="40.483083" lon="-5.232267">
        <ele>2146.0</ele>
        <time>2018-07-28T13:00:40Z</time>
      </trkpt>
      <trkpt lat="40.483133" lon="-5.232333">
        <ele>2145.0</ele>
        <time>2018-07-28T13:00:41Z</time>
      </trkpt>
      <trkpt lat="40.483183" lon="-5.232417">
        <ele>2144.0</ele>
        <time>2018-07-28T13:00:42Z</time>
      </trkpt>
      <trkpt lat="40.483217" lon="-5.232517">
        <ele>2144.0</ele>
        <time>2018-07-28T13:00:43Z</time>
      </trkpt>
      <trkpt lat="40.483233" lon="-5.232600">
        <ele>2146.0</ele>
        <time>2018-07-28T13:00:44Z</time>
      </trkpt>
      <trkpt lat="40.483233" lon="-5.232667">
        <ele>2147.0</ele>
        <time>2018-07-28T13:00:45Z</time>
      </trkpt>
      <trkpt lat="40.483200" lon="-5.232733">
        <ele>2147.0</ele>
        <time>2018-07-28T13:00:46Z</time>
      </trkpt>
      <trkpt lat="40.483167" lon="-5.232800">
        <ele>2146.0</ele>
        <time>2018-07-28T13:00:47Z</time>
      </trkpt>
      <trkpt lat="40.483117" lon="-5.232867">
        <ele>2145.0</ele>
        <time>2018-07-28T13:00:48Z</time>
      </trkpt>
      <trkpt lat="40.483050" lon="-5.232917">
        <ele>2145.0</ele>
        <time>2018-07-28T13:00:49Z</time>
      </trkpt>
      <trkpt lat="40.482967" lon="-5.232950">
        <ele>2145.0</ele>
        <time>2018-07-28T13:00:50Z</time>
      </trkpt>
      <trkpt lat="40.482883" lon="-5.232950">
        <ele>2145.0</ele>
        <time>2018-07-28T13:00:51Z</time>
      </trkpt>
      <trkpt lat="40.482800" lon="-5.232933">
        <ele>2144.0</ele>
        <time>2018-07-28T13:00:52Z</time>
      </trkpt>
      <trkpt lat="40.482700" lon="-5.232883">
        <ele>2143.0</ele>
        <time>2018-07-28T13:00:53Z</time>
      </trkpt>
      <trkpt lat="40.482617" lon="-5.232817">
        <ele>2143.0</ele>
        <time>2018-07-28T13:00:54Z</time>
      </trkpt>
      <trkpt lat="40.482533" lon="-5.232733">
        <ele>2142.0</ele>
        <time>2018-07-28T13:00:55Z</time>
      </trkpt>
      <trkpt lat="40.482450" lon="-5.232650">
        <ele>2142.0</ele>
        <time>2018-07-28T13:00:56Z</time>
      </trkpt>
      <trkpt lat="40.482367" lon="-5.232533">
        <ele>2143.0</ele>
        <time>2018-07-28T13:00:57Z</time>
      </trkpt>
      <trkpt lat="40.482300" lon="-5.232383">
        <ele>2143.0</ele>
        <time>2018-07-28T13:00:58Z</time>
      </trkpt>
      <trkpt lat="40.482233" lon="-5.232233">
        <ele>2142.0</ele>
        <time>2018-07-28T13:00:59Z</time>
      </trkpt>
      <trkpt lat="40.482200" lon="-5.232050">
        <ele>2142.0</ele>
        <time>2018-07-28T13:01:00Z</time>
      </trkpt>
      <trkpt lat="40.482167" lon="-5.231867">
        <ele>2142.0</ele>
        <time>2018-07-28T13:01:01Z</time>
      </trkpt>
      <trkpt lat="40.482150" lon="-5.231683">
        <ele>2143.0</ele>
        <time>2018-07-28T13:01:02Z</time>
      </trkpt>
      <trkpt lat="40.482133" lon="-5.231500">
        <ele>2143.0</ele>
        <time>2018-07-28T13:01:03Z</time>
      </trkpt>
      <trkpt lat="40.482150" lon="-5.231317">
        <ele>2143.0</ele>
        <time>2018-07-28T13:01:04Z</time>
      </trkpt>
      <trkpt lat="40.482167" lon="-5.231133">
        <ele>2143.0</ele>
        <time>2018-07-28T13:01:05Z</time>
      </trkpt>
      <trkpt lat="40.482183" lon="-5.230933">
        <ele>2143.0</ele>
        <time>2018-07-28T13:01:06Z</time>
      </trkpt>
      <trkpt lat="40.482217" lon="-5.230750">
        <ele>2142.0</ele>
        <time>2018-07-28T13:01:07Z</time>
      </trkpt>
      <trkpt lat="40.482250" lon="-5.230550">
        <ele>2142.0</ele>
        <time>2018-07-28T13:01:08Z</time>
      </trkpt>
      <trkpt lat="40.482283" lon="-5.230350">
        <ele>2143.0</ele>
        <time>2018-07-28T13:01:09Z</time>
      </trkpt>
      <trkpt lat="40.482333" lon="-5.230183">
        <ele>2145.0</ele>
        <time>2018-07-28T13:01:10Z</time>
      </trkpt>
      <trkpt lat="40.482400" lon="-5.230017">
        <ele>2145.0</ele>
        <time>2018-07-28T13:01:11Z</time>
      </trkpt>
      <trkpt lat="40.482467" lon="-5.229867">
        <ele>2145.0</ele>
        <time>2018-07-28T13:01:12Z</time>
      </trkpt>
      <trkpt lat="40.482550" lon="-5.229717">
        <ele>2144.0</ele>
        <time>2018-07-28T13:01:13Z</time>
      </trkpt>
      <trkpt lat="40.482633" lon="-5.229583">
        <ele>2144.0</ele>
        <time>2018-07-28T13:01:14Z</time>
      </trkpt>
      <trkpt lat="40.482733" lon="-5.229483">
        <ele>2144.0</ele>
        <time>2018-07-28T13:01:15Z</time>
      </trkpt>
      <trkpt lat="40.482817" lon="-5.229383">
        <ele>2145.0</ele>
        <time>2018-07-28T13:01:16Z</time>
      </trkpt>
      <trkpt lat="40.482917" lon="-5.229317">
        <ele>2145.0</ele>
        <time>2018-07-28T13:01:17Z</time>
      </trkpt>
      <trkpt lat="40.483017" lon="-5.229250">
        <ele>2146.0</ele>
        <time>2018-07-28T13:01:18Z</time>
      </trkpt>
      <trkpt lat="40.483117" lon="-5.229233">
        <ele>2147.0</ele>
        <time>2018-07-28T13:01:19Z</time>
      </trkpt>
      <trkpt lat="40.483200" lon="-5.229217">
        <ele>2147.0</ele>
        <time>2018-07-28T13:01:20Z</time>
      </trkpt>
      <trkpt lat="40.483267" lon="-5.229233">
        <ele>2148.0</ele>
        <time>2018-07-28T13:01:21Z</time>
      </trkpt>
      <trkpt lat="40.483350" lon="-5.229233">
        <ele>2148.0</ele>
        <time>2018-07-28T13:01:22Z</time>
      </trkpt>
      <trkpt lat="40.483417" lon="-5.229267">
        <ele>2147.0</ele>
        <time>2018-07-28T13:01:23Z</time>
      </trkpt>
      <trkpt lat="40.483483" lon="-5.229300">
        <ele>2146.0</ele>
        <time>2018-07-28T13:01:24Z</time>
      </trkpt>
      <trkpt lat="40.483550" lon="-5.229367">
        <ele>2145.0</ele>
        <time>2018-07-28T13:01:25Z</time>
      </trkpt>
      <trkpt lat="40.483567" lon="-5.229450">
        <ele>2144.0</ele>
        <time>2018-07-28T13:01:26Z</time>
      </trkpt>
      <trkpt lat="40.483583" lon="-5.229517">
        <ele>2144.0</ele>
        <time>2018-07-28T13:01:27Z</time>
      </trkpt>
      <trkpt lat="40.483583" lon="-5.229600">
        <ele>2145.0</ele>
        <time>2018-07-28T13:01:28Z</time>
      </trkpt>
      <trkpt lat="40.483583" lon="-5.229650">
        <ele>2146.0</ele>
        <time>2018-07-28T13:01:29Z</time>
      </trkpt>
      <trkpt lat="40.483567" lon="-5.229717">
        <ele>2146.0</ele>
        <time>2018-07-28T13:01:30Z</time>
      </trkpt>
      <trkpt lat="40.483533" lon="-5.229783">
        <ele>2145.0</ele>
        <time>2018-07-28T13:01:31Z</time>
      </trkpt>
      <trkpt lat="40.483500" lon="-5.229833">
        <ele>2144.0</ele>
        <time>2018-07-28T13:01:32Z</time>
      </trkpt>
      <trkpt lat="40.483433" lon="-5.229883">
        <ele>2143.0</ele>
        <time>2018-07-28T13:01:33Z</time>
      </trkpt>
      <trkpt lat="40.483367" lon="-5.229917">
        <ele>2142.0</ele>
        <time>2018-07-28T13:01:34Z</time>
      </trkpt>
      <trkpt lat="40.483300" lon="-5.229933">
        <ele>2142.0</ele>
        <time>2018-07-28T13:01:35Z</time>
      </trkpt>
      <trkpt lat="40.483217" lon="-5.229917">
        <ele>2142.0</ele>
        <time>2018-07-28T13:01:36Z</time>
      </trkpt>
      <trkpt lat="40.483133" lon="-5.229883">
        <ele>2143.0</ele>
        <time>2018-07-28T13:01:37Z</time>
      </trkpt>
      <trkpt lat="40.483050" lon="-5.229833">
        <ele>2142.0</ele>
        <time>2018-07-28T13:01:38Z</time>
      </trkpt>
      <trkpt lat="40.482967" lon="-5.229767">
        <ele>2141.0</ele>
        <time>2018-07-28T13:01:39Z</time>
      </trkpt>
      <trkpt lat="40.482883" lon="-5.229683">
        <ele>2140.0</ele>
        <time>2018-07-28T13:01:40Z</time>
      </trkpt>
      <trkpt lat="40.482800" lon="-5.229600">
        <ele>2140.0</ele>
        <time>2018-07-28T13:01:41Z</time>
      </trkpt>
      <trkpt lat="40.482683" lon="-5.229533">
        <ele>2140.0</ele>
        <time>2018-07-28T13:01:42Z</time>
      </trkpt>
      <trkpt lat="40.482583" lon="-5.229500">
        <ele>2141.0</ele>
        <time>2018-07-28T13:01:43Z</time>
      </trkpt>
      <trkpt lat="40.482467" lon="-5.229467">
        <ele>2144.0</ele>
        <time>2018-07-28T13:01:44Z</time>
      </trkpt>
      <trkpt lat="40.482383" lon="-5.229433">
        <ele>2147.0</ele>
        <time>2018-07-28T13:01:45Z</time>
      </trkpt>
      <trkpt lat="40.482300" lon="-5.229367">
        <ele>2148.0</ele>
        <time>2018-07-28T13:01:46Z</time>
      </trkpt>
      <trkpt lat="40.482200" lon="-5.229283">
        <ele>2149.0</ele>
        <time>2018-07-28T13:01:47Z</time>
      </trkpt>
      <trkpt lat="40.482117" lon="-5.229150">
        <ele>2149.0</ele>
        <time>2018-07-28T13:01:48Z</time>
      </trkpt>
      <trkpt lat="40.482050" lon="-5.228983">
        <ele>2149.0</ele>
        <time>2018-07-28T13:01:49Z</time>
      </trkpt>
      <trkpt lat="40.482017" lon="-5.228800">
        <ele>2148.0</ele>
        <time>2018-07-28T13:01:50Z</time>
      </trkpt>
      <trkpt lat="40.482000" lon="-5.228600">
        <ele>2147.0</ele>
        <time>2018-07-28T13:01:51Z</time>
      </trkpt>
      <trkpt lat="40.482017" lon="-5.228400">
        <ele>2146.0</ele>
        <time>2018-07-28T13:01:52Z</time>
      </trkpt>
      <trkpt lat="40.482050" lon="-5.228200">
        <ele>2147.0</ele>
        <time>2018-07-28T13:01:53Z</time>
      </trkpt>
      <trkpt lat="40.482100" lon="-5.228033">
        <ele>2148.0</ele>
        <time>2018-07-28T13:01:54Z</time>
      </trkpt>
      <trkpt lat="40.482167" lon="-5.227883">
        <ele>2148.0</ele>
        <time>2018-07-28T13:01:55Z</time>
      </trkpt>
      <trkpt lat="40.482250" lon="-5.227767">
        <ele>2148.0</ele>
        <time>2018-07-28T13:01:56Z</time>
      </trkpt>
      <trkpt lat="40.482350" lon="-5.227683">
        <ele>2148.0</ele>
        <time>2018-07-28T13:01:57Z</time>
      </trkpt>
      <trkpt lat="40.482467" lon="-5.227600">
        <ele>2148.0</ele>
        <time>2018-07-28T13:01:58Z</time>
      </trkpt>
      <trkpt lat="40.482567" lon="-5.227533">
        <ele>2150.0</ele>
        <time>2018-07-28T13:01:59Z</time>
      </trkpt>
      <trkpt lat="40.482683" lon="-5.227450">
        <ele>2152.0</ele>
        <time>2018-07-28T13:02:00Z</time>
      </trkpt>
      <trkpt lat="40.482783" lon="-5.227400">
        <ele>2154.0</ele>
        <time>2018-07-28T13:02:01Z</time>
      </trkpt>
      <trkpt lat="40.482883" lon="-5.227383">
        <ele>2154.0</ele>
        <time>2018-07-28T13:02:02Z</time>
      </trkpt>
      <trkpt lat="40.482983" lon="-5.227383">
        <ele>2155.0</ele>
        <time>2018-07-28T13:02:03Z</time>
      </trkpt>
      <trkpt lat="40.483050" lon="-5.227417">
        <ele>2155.0</ele>
        <time>2018-07-28T13:02:04Z</time>
      </trkpt>
      <trkpt lat="40.483117" lon="-5.227467">
        <ele>2155.0</ele>
        <time>2018-07-28T13:02:05Z</time>
      </trkpt>
      <trkpt lat="40.483133" lon="-5.227517">
        <ele>2155.0</ele>
        <time>2018-07-28T13:02:06Z</time>
      </trkpt>
      <trkpt lat="40.483133" lon="-5.227567">
        <ele>2154.0</ele>
        <time>2018-07-28T13:02:07Z</time>
      </trkpt>
      <trkpt lat="40.483100" lon="-5.227617">
        <ele>2153.0</ele>
        <time>2018-07-28T13:02:08Z</time>
      </trkpt>
      <trkpt lat="40.483050" lon="-5.227667">
        <ele>2151.0</ele>
        <time>2018-07-28T13:02:09Z</time>
      </trkpt>
      <trkpt lat="40.482983" lon="-5.227700">
        <ele>2150.0</ele>
        <time>2018-07-28T13:02:10Z</time>
      </trkpt>
      <trkpt lat="40.482883" lon="-5.227717">
        <ele>2149.0</ele>
        <time>2018-07-28T13:02:11Z</time>
      </trkpt>
      <trkpt lat="40.482783" lon="-5.227683">
        <ele>2149.0</ele>
        <time>2018-07-28T13:02:12Z</time>
      </trkpt>
      <trkpt lat="40.482683" lon="-5.227600">
        <ele>2149.0</ele>
        <time>2018-07-28T13:02:13Z</time>
      </trkpt>
      <trkpt lat="40.482583" lon="-5.227467">
        <ele>2151.0</ele>
        <time>2018-07-28T13:02:14Z</time>
      </trkpt>
      <trkpt lat="40.482533" lon="-5.227300">
        <ele>2153.0</ele>
        <time>2018-07-28T13:02:15Z</time>
      </trkpt>
      <trkpt lat="40.482517" lon="-5.227117">
        <ele>2154.0</ele>
        <time>2018-07-28T13:02:16Z</time>
      </trkpt>
      <trkpt lat="40.482533" lon="-5.226933">
        <ele>2156.0</ele>
        <time>2018-07-28T13:02:17Z</time>
      </trkpt>
      <trkpt lat="40.482583" lon="-5.226767">
        <ele>2156.0</ele>
        <time>2018-07-28T13:02:18Z</time>
      </trkpt>
      <trkpt lat="40.482667" lon="-5.226600">
        <ele>2156.0</ele>
        <time>2018-07-28T13:02:19Z</time>
      </trkpt>
      <trkpt lat="40.482767" lon="-5.226467">
        <ele>2156.0</ele>
        <time>2018-07-28T13:02:20Z</time>
      </trkpt>
      <trkpt lat="40.482883" lon="-5.226350">
        <ele>2157.0</ele>
        <time>2018-07-28T13:02:21Z</time>
      </trkpt>
      <trkpt lat="40.483000" lon="-5.226283">
        <ele>2158.0</ele>
        <time>2018-07-28T13:02:22Z</time>
      </trkpt>
      <trkpt lat="40.483083" lon="-5.226250">
        <ele>2160.0</ele>
        <time>2018-07-28T13:02:23Z</time>
      </trkpt>
      <trkpt lat="40.483167" lon="-5.226250">
        <ele>2160.0</ele>
        <time>2018-07-28T13:02:24Z</time>
      </trkpt>
      <trkpt lat="40.483233" lon="-5.226250">
        <ele>2158.0</ele>
        <time>2018-07-28T13:02:25Z</time>
      </trkpt>
      <trkpt lat="40.483300" lon="-5.226267">
        <ele>2156.0</ele>
        <time>2018-07-28T13:02:26Z</time>
      </trkpt>
      <trkpt lat="40.483350" lon="-5.226317">
        <ele>2153.0</ele>
        <time>2018-07-28T13:02:27Z</time>
      </trkpt>
      <trkpt lat="40.483367" lon="-5.226383">
        <ele>2149.0</ele>
        <time>2018-07-28T13:02:28Z</time>
      </trkpt>
      <trkpt lat="40.483350" lon="-5.226467">
        <ele>2147.0</ele>
        <time>2018-07-28T13:02:29Z</time>
      </trkpt>
      <trkpt lat="40.483317" lon="-5.226533">
        <ele>2146.0</ele>
        <time>2018-07-28T13:02:30Z</time>
      </trkpt>
      <trkpt lat="40.483267" lon="-5.226567">
        <ele>2145.0</ele>
        <time>2018-07-28T13:02:31Z</time>
      </trkpt>
      <trkpt lat="40.483217" lon="-5.226583">
        <ele>2145.0</ele>
        <time>2018-07-28T13:02:32Z</time>
      </trkpt>
      <trkpt lat="40.483133" lon="-5.226583">
        <ele>2143.0</ele>
        <time>2018-07-28T13:02:33Z</time>
      </trkpt>
      <trkpt lat="40.483050" lon="-5.226550">
        <ele>2141.0</ele>
        <time>2018-07-28T13:02:34Z</time>
      </trkpt>
      <trkpt lat="40.482950" lon="-5.226483">
        <ele>2140.0</ele>
        <time>2018-07-28T13:02:35Z</time>
      </trkpt>
      <trkpt lat="40.482850" lon="-5.226367">
        <ele>2139.0</ele>
        <time>2018-07-28T13:02:36Z</time>
      </trkpt>
      <trkpt lat="40.482783" lon="-5.226233">
        <ele>2140.0</ele>
        <time>2018-07-28T13:02:37Z</time>
      </trkpt>
      <trkpt lat="40.482750" lon="-5.226083">
        <ele>2141.0</ele>
        <time>2018-07-28T13:02:38Z</time>
      </trkpt>
      <trkpt lat="40.482733" lon="-5.225900">
        <ele>2142.0</ele>
        <time>2018-07-28T13:02:39Z</time>
      </trkpt>
      <trkpt lat="40.482750" lon="-5.225733">
        <ele>2142.0</ele>
        <time>2018-07-28T13:02:40Z</time>
      </trkpt>
      <trkpt lat="40.482767" lon="-5.225567">
        <ele>2142.0</ele>
        <time>2018-07-28T13:02:41Z</time>
      </trkpt>
      <trkpt lat="40.482833" lon="-5.225400">
        <ele>2141.0</ele>
        <time>2018-07-28T13:02:42Z</time>
      </trkpt>
      <trkpt lat="40.482900" lon="-5.225233">
        <ele>2141.0</ele>
        <time>2018-07-28T13:02:43Z</time>
      </trkpt>
      <trkpt lat="40.482983" lon="-5.225117">
        <ele>2140.0</ele>
        <time>2018-07-28T13:02:44Z</time>
      </trkpt>
      <trkpt lat="40.483083" lon="-5.225000">
        <ele>2139.0</ele>
        <time>2018-07-28T13:02:45Z</time>
      </trkpt>
      <trkpt lat="40.483167" lon="-5.224917">
        <ele>2138.0</ele>
        <time>2018-07-28T13:02:46Z</time>
      </trkpt>
      <trkpt lat="40.483267" lon="-5.224850">
        <ele>2137.0</ele>
        <time>2018-07-28T13:02:47Z</time>
      </trkpt>
      <trkpt lat="40.483367" lon="-5.224800">
        <ele>2135.0</ele>
        <time>2018-07-28T13:02:48Z</time>
      </trkpt>
      <trkpt lat="40.483467" lon="-5.224767">
        <ele>2132.0</ele>
        <time>2018-07-28T13:02:49Z</time>
      </trkpt>
      <trkpt lat="40.483550" lon="-5.224750">
        <ele>2129.0</ele>
        <time>2018-07-28T13:02:50Z</time>
      </trkpt>
      <trkpt lat="40.483633" lon="-5.224750">
        <ele>2126.0</ele>
        <time>2018-07-28T13:02:51Z</time>
      </trkpt>
      <trkpt lat="40.483717" lon="-5.224767">
        <ele>2123.0</ele>
        <time>2018-07-28T13:02:52Z</time>
      </trkpt>
      <trkpt lat="40.483800" lon="-5.224783">
        <ele>2121.0</ele>
        <time>2018-07-28T13:02:53Z</time>
      </trkpt>
      <trkpt lat="40.483883" lon="-5.224817">
        <ele>2119.0</ele>
        <time>2018-07-28T13:02:54Z</time>
      </trkpt>
      <trkpt lat="40.483967" lon="-5.224817">
        <ele>2118.0</ele>
        <time>2018-07-28T13:02:55Z</time>
      </trkpt>
      <trkpt lat="40.484067" lon="-5.224817">
        <ele>2117.0</ele>
        <time>2018-07-28T13:02:56Z</time>
      </trkpt>
      <trkpt lat="40.484167" lon="-5.224783">
        <ele>2115.0</ele>
        <time>2018-07-28T13:02:57Z</time>
      </trkpt>
      <trkpt lat="40.484267" lon="-5.224750">
        <ele>2114.0</ele>
        <time>2018-07-28T13:02:58Z</time>
      </trkpt>
      <trkpt lat="40.484367" lon="-5.224717">
        <ele>2112.0</ele>
        <time>2018-07-28T13:02:59Z</time>
      </trkpt>
      <trkpt lat="40.484450" lon="-5.224683">
        <ele>2109.0</ele>
        <time>2018-07-28T13:03:00Z</time>
      </trkpt>
      <trkpt lat="40.484567" lon="-5.224633">
        <ele>2107.0</ele>
        <time>2018-07-28T13:03:01Z</time>
      </trkpt>
      <trkpt lat="40.484667" lon="-5.224567">
        <ele>2106.0</ele>
        <time>2018-07-28T13:03:02Z</time>
      </trkpt>
      <trkpt lat="40.484783" lon="-5.224467">
        <ele>2105.0</ele>
        <time>2018-07-28T13:03:03Z</time>
      </trkpt>
      <trkpt lat="40.484867" lon="-5.224350">
        <ele>2105.0</ele>
        <time>2018-07-28T13:03:04Z</time>
      </trkpt>
      <trkpt lat="40.484950" lon="-5.224250">
        <ele>2105.0</ele>
        <time>2018-07-28T13:03:05Z</time>
      </trkpt>
      <trkpt lat="40.485033" lon="-5.224167">
        <ele>2105.0</ele>
        <time>2018-07-28T13:03:06Z</time>
      </trkpt>
      <trkpt lat="40.485133" lon="-5.224067">
        <ele>2103.0</ele>
        <time>2018-07-28T13:03:07Z</time>
      </trkpt>
      <trkpt lat="40.485217" lon="-5.224000">
        <ele>2099.0</ele>
        <time>2018-07-28T13:03:08Z</time>
      </trkpt>
      <trkpt lat="40.485333" lon="-5.223933">
        <ele>2097.0</ele>
        <time>2018-07-28T13:03:09Z</time>
      </trkpt>
      <trkpt lat="40.485450" lon="-5.223900">
        <ele>2096.0</ele>
        <time>2018-07-28T13:03:10Z</time>
      </trkpt>
      <trkpt lat="40.485567" lon="-5.223867">
        <ele>2097.0</ele>
        <time>2018-07-28T13:03:11Z</time>
      </trkpt>
      <trkpt lat="40.485667" lon="-5.223833">
        <ele>2097.0</ele>
        <time>2018-07-28T13:03:12Z</time>
      </trkpt>
      <trkpt lat="40.485750" lon="-5.223800">
        <ele>2096.0</ele>
        <time>2018-07-28T13:03:13Z</time>
      </trkpt>
      <trkpt lat="40.485850" lon="-5.223767">
        <ele>2094.0</ele>
        <time>2018-07-28T13:03:14Z</time>
      </trkpt>
      <trkpt lat="40.485950" lon="-5.223733">
        <ele>2091.0</ele>
        <time>2018-07-28T13:03:15Z</time>
      </trkpt>
      <trkpt lat="40.486067" lon="-5.223717">
        <ele>2088.0</ele>
        <time>2018-07-28T13:03:16Z</time>
      </trkpt>
      <trkpt lat="40.486167" lon="-5.223717">
        <ele>2085.0</ele>
        <time>2018-07-28T13:03:17Z</time>
      </trkpt>
      <trkpt lat="40.486283" lon="-5.223717">
        <ele>2084.0</ele>
        <time>2018-07-28T13:03:18Z</time>
      </trkpt>
      <trkpt lat="40.486383" lon="-5.223717">
        <ele>2083.0</ele>
        <time>2018-07-28T13:03:19Z</time>
      </trkpt>
      <trkpt lat="40.486483" lon="-5.223733">
        <ele>2082.0</ele>
        <time>2018-07-28T13:03:20Z</time>
      </trkpt>
      <trkpt lat="40.486583" lon="-5.223733">
        <ele>2080.0</ele>
        <time>2018-07-28T13:03:21Z</time>
      </trkpt>
      <trkpt lat="40.486683" lon="-5.223750">
        <ele>2078.0</ele>
        <time>2018-07-28T13:03:22Z</time>
      </trkpt>
      <trkpt lat="40.486767" lon="-5.223783">
        <ele>2076.0</ele>
        <time>2018-07-28T13:03:23Z</time>
      </trkpt>
      <trkpt lat="40.486867" lon="-5.223783">
        <ele>2073.0</ele>
        <time>2018-07-28T13:03:24Z</time>
      </trkpt>
      <trkpt lat="40.486983" lon="-5.223800">
        <ele>2071.0</ele>
        <time>2018-07-28T13:03:25Z</time>
      </trkpt>
      <trkpt lat="40.487083" lon="-5.223800">
        <ele>2069.0</ele>
        <time>2018-07-28T13:03:26Z</time>
      </trkpt>
      <trkpt lat="40.487200" lon="-5.223783">
        <ele>2067.0</ele>
        <time>2018-07-28T13:03:27Z</time>
      </trkpt>
      <trkpt lat="40.487300" lon="-5.223767">
        <ele>2065.0</ele>
        <time>2018-07-28T13:03:28Z</time>
      </trkpt>
      <trkpt lat="40.487400" lon="-5.223750">
        <ele>2063.0</ele>
        <time>2018-07-28T13:03:29Z</time>
      </trkpt>
      <trkpt lat="40.487500" lon="-5.223717">
        <ele>2060.0</ele>
        <time>2018-07-28T13:03:30Z</time>
      </trkpt>
      <trkpt lat="40.487617" lon="-5.223683">
        <ele>2057.0</ele>
        <time>2018-07-28T13:03:31Z</time>
      </trkpt>
      <trkpt lat="40.487733" lon="-5.223650">
        <ele>2055.0</ele>
        <time>2018-07-28T13:03:32Z</time>
      </trkpt>
      <trkpt lat="40.487850" lon="-5.223650">
        <ele>2054.0</ele>
        <time>2018-07-28T13:03:33Z</time>
      </trkpt>
      <trkpt lat="40.487950" lon="-5.223667">
        <ele>2053.0</ele>
        <time>2018-07-28T13:03:34Z</time>
      </trkpt>
      <trkpt lat="40.488050" lon="-5.223683">
        <ele>2051.0</ele>
        <time>2018-07-28T13:03:35Z</time>
      </trkpt>
      <trkpt lat="40.488133" lon="-5.223683">
        <ele>2049.0</ele>
        <time>2018-07-28T13:03:36Z</time>
      </trkpt>
      <trkpt lat="40.488233" lon="-5.223700">
        <ele>2047.0</ele>
        <time>2018-07-28T13:03:37Z</time>
      </trkpt>
      <trkpt lat="40.488333" lon="-5.223717">
        <ele>2044.0</ele>
        <time>2018-07-28T13:03:38Z</time>
      </trkpt>
      <trkpt lat="40.488450" lon="-5.223733">
        <ele>2041.0</ele>
        <time>2018-07-28T13:03:39Z</time>
      </trkpt>
      <trkpt lat="40.488567" lon="-5.223750">
        <ele>2039.0</ele>
        <time>2018-07-28T13:03:40Z</time>
      </trkpt>
      <trkpt lat="40.488667" lon="-5.223750">
        <ele>2038.0</ele>
        <time>2018-07-28T13:03:41Z</time>
      </trkpt>
      <trkpt lat="40.488783" lon="-5.223750">
        <ele>2036.0</ele>
        <time>2018-07-28T13:03:42Z</time>
      </trkpt>
      <trkpt lat="40.488883" lon="-5.223733">
        <ele>2035.0</ele>
        <time>2018-07-28T13:03:43Z</time>
      </trkpt>
      <trkpt lat="40.488983" lon="-5.223733">
        <ele>2032.0</ele>
        <time>2018-07-28T13:03:44Z</time>
      </trkpt>
      <trkpt lat="40.489100" lon="-5.223733">
        <ele>2029.0</ele>
        <time>2018-07-28T13:03:45Z</time>
      </trkpt>
      <trkpt lat="40.489200" lon="-5.223733">
        <ele>2027.0</ele>
        <time>2018-07-28T13:03:46Z</time>
      </trkpt>
      <trkpt lat="40.489317" lon="-5.223717">
        <ele>2025.0</ele>
        <time>2018-07-28T13:03:47Z</time>
      </trkpt>
      <trkpt lat="40.489417" lon="-5.223700">
        <ele>2023.0</ele>
        <time>2018-07-28T13:03:48Z</time>
      </trkpt>
      <trkpt lat="40.489517" lon="-5.223683">
        <ele>2021.0</ele>
        <time>2018-07-28T13:03:49Z</time>
      </trkpt>
      <trkpt lat="40.489617" lon="-5.223667">
        <ele>2019.0</ele>
        <time>2018-07-28T13:03:50Z</time>
      </trkpt>
      <trkpt lat="40.489717" lon="-5.223650">
        <ele>2017.0</ele>
        <time>2018-07-28T13:03:51Z</time>
      </trkpt>
      <trkpt lat="40.489817" lon="-5.223633">
        <ele>2014.0</ele>
        <time>2018-07-28T13:03:52Z</time>
      </trkpt>
      <trkpt lat="40.489917" lon="-5.223617">
        <ele>2011.0</ele>
        <time>2018-07-28T13:03:53Z</time>
      </trkpt>
      <trkpt lat="40.490000" lon="-5.223617">
        <ele>2008.0</ele>
        <time>2018-07-28T13:03:54Z</time>
      </trkpt>
      <trkpt lat="40.490100" lon="-5.223633">
        <ele>2003.0</ele>
        <time>2018-07-28T13:03:55Z</time>
      </trkpt>
      <trkpt lat="40.490200" lon="-5.223667">
        <ele>1999.0</ele>
        <time>2018-07-28T13:03:56Z</time>
      </trkpt>
      <trkpt lat="40.490283" lon="-5.223700">
        <ele>1996.0</ele>
        <time>2018-07-28T13:03:57Z</time>
      </trkpt>
      <trkpt lat="40.490383" lon="-5.223750">
        <ele>1994.0</ele>
        <time>2018-07-28T13:03:58Z</time>
      </trkpt>
      <trkpt lat="40.490467" lon="-5.223767">
        <ele>1993.0</ele>
        <time>2018-07-28T13:03:59Z</time>
      </trkpt>
      <trkpt lat="40.490533" lon="-5.223783">
        <ele>1991.0</ele>
        <time>2018-07-28T13:04:00Z</time>
      </trkpt>
      <trkpt lat="40.490617" lon="-5.223800">
        <ele>1989.0</ele>
        <time>2018-07-28T13:04:01Z</time>
      </trkpt>
      <trkpt lat="40.490700" lon="-5.223817">
        <ele>1985.0</ele>
        <time>2018-07-28T13:04:02Z</time>
      </trkpt>
      <trkpt lat="40.490783" lon="-5.223850">
        <ele>1982.0</ele>
        <time>2018-07-28T13:04:03Z</time>
      </trkpt>
      <trkpt lat="40.490883" lon="-5.223883">
        <ele>1978.0</ele>
        <time>2018-07-28T13:04:04Z</time>
      </trkpt>
      <trkpt lat="40.490983" lon="-5.223933">
        <ele>1977.0</ele>
        <time>2018-07-28T13:04:05Z</time>
      </trkpt>
      <trkpt lat="40.491067" lon="-5.223967">
        <ele>1976.0</ele>
        <time>2018-07-28T13:04:06Z</time>
      </trkpt>
      <trkpt lat="40.491133" lon="-5.224000">
        <ele>1976.0</ele>
        <time>2018-07-28T13:04:07Z</time>
      </trkpt>
      <trkpt lat="40.491200" lon="-5.224017">
        <ele>1976.0</ele>
        <time>2018-07-28T13:04:08Z</time>
      </trkpt>
      <trkpt lat="40.491267" lon="-5.224033">
        <ele>1974.0</ele>
        <time>2018-07-28T13:04:09Z</time>
      </trkpt>
      <trkpt lat="40.491350" lon="-5.224050">
        <ele>1971.0</ele>
        <time>2018-07-28T13:04:10Z</time>
      </trkpt>
      <trkpt lat="40.491417" lon="-5.224067">
        <ele>1968.0</ele>
        <time>2018-07-28T13:04:11Z</time>
      </trkpt>
      <trkpt lat="40.491500" lon="-5.224100">
        <ele>1966.0</ele>
        <time>2018-07-28T13:04:12Z</time>
      </trkpt>
      <trkpt lat="40.491567" lon="-5.224133">
        <ele>1964.0</ele>
        <time>2018-07-28T13:04:13Z</time>
      </trkpt>
      <trkpt lat="40.491633" lon="-5.224167">
        <ele>1964.0</ele>
        <time>2018-07-28T13:04:14Z</time>
      </trkpt>
      <trkpt lat="40.491700" lon="-5.224217">
        <ele>1963.0</ele>
        <time>2018-07-28T13:04:15Z</time>
      </trkpt>
      <trkpt lat="40.491767" lon="-5.224250">
        <ele>1962.0</ele>
        <time>2018-07-28T13:04:16Z</time>
      </trkpt>
      <trkpt lat="40.491833" lon="-5.224283">
        <ele>1961.0</ele>
        <time>2018-07-28T13:04:17Z</time>
      </trkpt>
      <trkpt lat="40.491900" lon="-5.224300">
        <ele>1960.0</ele>
        <time>2018-07-28T13:04:18Z</time>
      </trkpt>
      <trkpt lat="40.491983" lon="-5.224317">
        <ele>1960.0</ele>
        <time>2018-07-28T13:04:19Z</time>
      </trkpt>
      <trkpt lat="40.492033" lon="-5.224350">
        <ele>1960.0</ele>
        <time>2018-07-28T13:04:20Z</time>
      </trkpt>
      <trkpt lat="40.492100" lon="-5.224383">
        <ele>1959.0</ele>
        <time>2018-07-28T13:04:21Z</time>
      </trkpt>
      <trkpt lat="40.492150" lon="-5.224417">
        <ele>1959.0</ele>
        <time>2018-07-28T13:04:22Z</time>
      </trkpt>
      <trkpt lat="40.492217" lon="-5.224450">
        <ele>1959.0</ele>
        <time>2018-07-28T13:04:23Z</time>
      </trkpt>
      <trkpt lat="40.492283" lon="-5.224483">
        <ele>1960.0</ele>
        <time>2018-07-28T13:04:24Z</time>
      </trkpt>
      <trkpt lat="40.492350" lon="-5.224517">
        <ele>1961.0</ele>
        <time>2018-07-28T13:04:25Z</time>
      </trkpt>
      <trkpt lat="40.492417" lon="-5.224550">
        <ele>1962.0</ele>
        <time>2018-07-28T13:04:26Z</time>
      </trkpt>
      <trkpt lat="40.492467" lon="-5.224567">
        <ele>1962.0</ele>
        <time>2018-07-28T13:04:27Z</time>
      </trkpt>
      <trkpt lat="40.492550" lon="-5.224567">
        <ele>1961.0</ele>
        <time>2018-07-28T13:04:28Z</time>
      </trkpt>
      <trkpt lat="40.492617" lon="-5.224583">
        <ele>1960.0</ele>
        <time>2018-07-28T13:04:29Z</time>
      </trkpt>
      <trkpt lat="40.492700" lon="-5.224600">
        <ele>1958.0</ele>
        <time>2018-07-28T13:04:30Z</time>
      </trkpt>
      <trkpt lat="40.492783" lon="-5.224617">
        <ele>1958.0</ele>
        <time>2018-07-28T13:04:31Z</time>
      </trkpt>
      <trkpt lat="40.492867" lon="-5.224650">
        <ele>1959.0</ele>
        <time>2018-07-28T13:04:32Z</time>
      </trkpt>
      <trkpt lat="40.492933" lon="-5.224650">
        <ele>1960.0</ele>
        <time>2018-07-28T13:04:33Z</time>
      </trkpt>
      <trkpt lat="40.493017" lon="-5.224667">
        <ele>1961.0</ele>
        <time>2018-07-28T13:04:34Z</time>
      </trkpt>
      <trkpt lat="40.493083" lon="-5.224650">
        <ele>1962.0</ele>
        <time>2018-07-28T13:04:35Z</time>
      </trkpt>
      <trkpt lat="40.493167" lon="-5.224650">
        <ele>1963.0</ele>
        <time>2018-07-28T13:04:36Z</time>
      </trkpt>
      <trkpt lat="40.493233" lon="-5.224650">
        <ele>1964.0</ele>
        <time>2018-07-28T13:04:37Z</time>
      </trkpt>
      <trkpt lat="40.493300" lon="-5.224667">
        <ele>1964.0</ele>
        <time>2018-07-28T13:04:38Z</time>
      </trkpt>
      <trkpt lat="40.493367" lon="-5.224683">
        <ele>1964.0</ele>
        <time>2018-07-28T13:04:39Z</time>
      </trkpt>
      <trkpt lat="40.493433" lon="-5.224700">
        <ele>1964.0</ele>
        <time>2018-07-28T13:04:40Z</time>
      </trkpt>
      <trkpt lat="40.493483" lon="-5.224717">
        <ele>1965.0</ele>
        <time>2018-07-28T13:04:41Z</time>
      </trkpt>
      <trkpt lat="40.493533" lon="-5.224750">
        <ele>1965.0</ele>
        <time>2018-07-28T13:04:42Z</time>
      </trkpt>
      <trkpt lat="40.493567" lon="-5.224783">
        <ele>1964.0</ele>
        <time>2018-07-28T13:04:43Z</time>
      </trkpt>
      <trkpt lat="40.493617" lon="-5.224833">
        <ele>1963.0</ele>
        <time>2018-07-28T13:04:44Z</time>
      </trkpt>
      <trkpt lat="40.493650" lon="-5.224883">
        <ele>1963.0</ele>
        <time>2018-07-28T13:04:45Z</time>
      </trkpt>
      <trkpt lat="40.493667" lon="-5.224950">
        <ele>1962.0</ele>
        <time>2018-07-28T13:04:46Z</time>
      </trkpt>
      <trkpt lat="40.493667" lon="-5.225017">
        <ele>1962.0</ele>
        <time>2018-07-28T13:04:47Z</time>
      </trkpt>
      <trkpt lat="40.493667" lon="-5.225100">
        <ele>1961.0</ele>
        <time>2018-07-28T13:04:48Z</time>
      </trkpt>
      <trkpt lat="40.493667" lon="-5.225183">
        <ele>1960.0</ele>
        <time>2018-07-28T13:04:49Z</time>
      </trkpt>
      <trkpt lat="40.493683" lon="-5.225267">
        <ele>1960.0</ele>
        <time>2018-07-28T13:04:50Z</time>
      </trkpt>
      <trkpt lat="40.493700" lon="-5.225333">
        <ele>1960.0</ele>
        <time>2018-07-28T13:04:51Z</time>
      </trkpt>
      <trkpt lat="40.493717" lon="-5.225400">
        <ele>1961.0</ele>
        <time>2018-07-28T13:04:52Z</time>
      </trkpt>
      <trkpt lat="40.493750" lon="-5.225467">
        <ele>1961.0</ele>
        <time>2018-07-28T13:04:53Z</time>
      </trkpt>
      <trkpt lat="40.493783" lon="-5.225517">
        <ele>1961.0</ele>
        <time>2018-07-28T13:04:54Z</time>
      </trkpt>
      <trkpt lat="40.493817" lon="-5.225567">
        <ele>1962.0</ele>
        <time>2018-07-28T13:04:55Z</time>
      </trkpt>
      <trkpt lat="40.493850" lon="-5.225617">
        <ele>1962.0</ele>
        <time>2018-07-28T13:04:56Z</time>
      </trkpt>
      <trkpt lat="40.493883" lon="-5.225650">
        <ele>1962.0</ele>
        <time>2018-07-28T13:04:57Z</time>
      </trkpt>
      <trkpt lat="40.493900" lon="-5.225700">
        <ele>1962.0</ele>
        <time>2018-07-28T13:04:58Z</time>
      </trkpt>
      <trkpt lat="40.493917" lon="-5.225767">
        <ele>1962.0</ele>
        <time>2018-07-28T13:04:59Z</time>
      </trkpt>
      <trkpt lat="40.493917" lon="-5.225833">
        <ele>1961.0</ele>
        <time>2018-07-28T13:05:00Z</time>
      </trkpt>
      <trkpt lat="40.493900" lon="-5.225900">
        <ele>1961.0</ele>
        <time>2018-07-28T13:05:01Z</time>
      </trkpt>
      <trkpt lat="40.493883" lon="-5.225983">
        <ele>1961.0</ele>
        <time>2018-07-28T13:05:02Z</time>
      </trkpt>
      <trkpt lat="40.493867" lon="-5.226067">
        <ele>1961.0</ele>
        <time>2018-07-28T13:05:03Z</time>
      </trkpt>
      <trkpt lat="40.493850" lon="-5.226167">
        <ele>1962.0</ele>
        <time>2018-07-28T13:05:04Z</time>
      </trkpt>
      <trkpt lat="40.493833" lon="-5.226250">
        <ele>1964.0</ele>
        <time>2018-07-28T13:05:05Z</time>
      </trkpt>
      <trkpt lat="40.493800" lon="-5.226350">
        <ele>1966.0</ele>
        <time>2018-07-28T13:05:06Z</time>
      </trkpt>
      <trkpt lat="40.493750" lon="-5.226417">
        <ele>1967.0</ele>
        <time>2018-07-28T13:05:07Z</time>
      </trkpt>
      <trkpt lat="40.493683" lon="-5.226467">
        <ele>1969.0</ele>
        <time>2018-07-28T13:05:08Z</time>
      </trkpt>
      <trkpt lat="40.493617" lon="-5.226500">
        <ele>1970.0</ele>
        <time>2018-07-28T13:05:09Z</time>
      </trkpt>
      <trkpt lat="40.493533" lon="-5.226500">
        <ele>1971.0</ele>
        <time>2018-07-28T13:05:10Z</time>
      </trkpt>
      <trkpt lat="40.493450" lon="-5.226467">
        <ele>1972.0</ele>
        <time>2018-07-28T13:05:11Z</time>
      </trkpt>
      <trkpt lat="40.493367" lon="-5.226433">
        <ele>1971.0</ele>
        <time>2018-07-28T13:05:12Z</time>
      </trkpt>
      <trkpt lat="40.493283" lon="-5.226367">
        <ele>1971.0</ele>
        <time>2018-07-28T13:05:13Z</time>
      </trkpt>
      <trkpt lat="40.493200" lon="-5.226283">
        <ele>1970.0</ele>
        <time>2018-07-28T13:05:14Z</time>
      </trkpt>
      <trkpt lat="40.493100" lon="-5.226167">
        <ele>1969.0</ele>
        <time>2018-07-28T13:05:15Z</time>
      </trkpt>
      <trkpt lat="40.493017" lon="-5.226033">
        <ele>1968.0</ele>
        <time>2018-07-28T13:05:16Z</time>
      </trkpt>
      <trkpt lat="40.492950" lon="-5.225883">
        <ele>1968.0</ele>
        <time>2018-07-28T13:05:17Z</time>
      </trkpt>
      <trkpt lat="40.492900" lon="-5.225733">
        <ele>1966.0</ele>
        <time>2018-07-28T13:05:18Z</time>
      </trkpt>
      <trkpt lat="40.492850" lon="-5.225550">
        <ele>1965.0</ele>
        <time>2018-07-28T13:05:19Z</time>
      </trkpt>
      <trkpt lat="40.492833" lon="-5.225367">
        <ele>1964.0</ele>
        <time>2018-07-28T13:05:20Z</time>
      </trkpt>
      <trkpt lat="40.492817" lon="-5.225167">
        <ele>1963.0</ele>
        <time>2018-07-28T13:05:21Z</time>
      </trkpt>
      <trkpt lat="40.492817" lon="-5.224967">
        <ele>1963.0</ele>
        <time>2018-07-28T13:05:22Z</time>
      </trkpt>
      <trkpt lat="40.492817" lon="-5.224783">
        <ele>1963.0</ele>
        <time>2018-07-28T13:05:23Z</time>
      </trkpt>
      <trkpt lat="40.492800" lon="-5.224600">
        <ele>1963.0</ele>
        <time>2018-07-28T13:05:24Z</time>
      </trkpt>
      <trkpt lat="40.492767" lon="-5.224417">
        <ele>1964.0</ele>
        <time>2018-07-28T13:05:25Z</time>
      </trkpt>
      <trkpt lat="40.492733" lon="-5.224233">
        <ele>1965.0</ele>
        <time>2018-07-28T13:05:26Z</time>
      </trkpt>
      <trkpt lat="40.492700" lon="-5.224050">
        <ele>1966.0</ele>
        <time>2018-07-28T13:05:27Z</time>
      </trkpt>
      <trkpt lat="40.492683" lon="-5.223883">
        <ele>1967.0</ele>
        <time>2018-07-28T13:05:28Z</time>
      </trkpt>
      <trkpt lat="40.492667" lon="-5.223700">
        <ele>1968.0</ele>
        <time>2018-07-28T13:05:29Z</time>
      </trkpt>
      <trkpt lat="40.492633" lon="-5.223500">
        <ele>1969.0</ele>
        <time>2018-07-28T13:05:30Z</time>
      </trkpt>
      <trkpt lat="40.492617" lon="-5.223317">
        <ele>1970.0</ele>
        <time>2018-07-28T13:05:31Z</time>
      </trkpt>
      <trkpt lat="40.492600" lon="-5.223133">
        <ele>1972.0</ele>
        <time>2018-07-28T13:05:32Z</time>
      </trkpt>
      <trkpt lat="40.492600" lon="-5.222950">
        <ele>1973.0</ele>
        <time>2018-07-28T13:05:33Z</time>
      </trkpt>
      <trkpt lat="40.492617" lon="-5.222783">
        <ele>1973.0</ele>
        <time>2018-07-28T13:05:34Z</time>
      </trkpt>
      <trkpt lat="40.492650" lon="-5.222600">
        <ele>1972.0</ele>
        <time>2018-07-28T13:05:35Z</time>
      </trkpt>
      <trkpt lat="40.492717" lon="-5.222450">
        <ele>1972.0</ele>
        <time>2018-07-28T13:05:36Z</time>
      </trkpt>
      <trkpt lat="40.492783" lon="-5.222317">
        <ele>1972.0</ele>
        <time>2018-07-28T13:05:37Z</time>
      </trkpt>
      <trkpt lat="40.492883" lon="-5.222217">
        <ele>1973.0</ele>
        <time>2018-07-28T13:05:38Z</time>
      </trkpt>
      <trkpt lat="40.492967" lon="-5.222150">
        <ele>1974.0</ele>
        <time>2018-07-28T13:05:39Z</time>
      </trkpt>
      <trkpt lat="40.493050" lon="-5.222117">
        <ele>1974.0</ele>
        <time>2018-07-28T13:05:40Z</time>
      </trkpt>
      <trkpt lat="40.493117" lon="-5.222100">
        <ele>1975.0</ele>
        <time>2018-07-28T13:05:41Z</time>
      </trkpt>
      <trkpt lat="40.493200" lon="-5.222100">
        <ele>1975.0</ele>
        <time>2018-07-28T13:05:42Z</time>
      </trkpt>
      <trkpt lat="40.493267" lon="-5.222117">
        <ele>1974.0</ele>
        <time>2018-07-28T13:05:43Z</time>
      </trkpt>
      <trkpt lat="40.493333" lon="-5.222150">
        <ele>1973.0</ele>
        <time>2018-07-28T13:05:44Z</time>
      </trkpt>
      <trkpt lat="40.493400" lon="-5.222183">
        <ele>1972.0</ele>
        <time>2018-07-28T13:05:45Z</time>
      </trkpt>
      <trkpt lat="40.493450" lon="-5.222233">
        <ele>1972.0</ele>
        <time>2018-07-28T13:05:46Z</time>
      </trkpt>
      <trkpt lat="40.493500" lon="-5.222283">
        <ele>1971.0</ele>
        <time>2018-07-28T13:05:47Z</time>
      </trkpt>
      <trkpt lat="40.493550" lon="-5.222333">
        <ele>1972.0</ele>
        <time>2018-07-28T13:05:48Z</time>
      </trkpt>
      <trkpt lat="40.493583" lon="-5.222400">
        <ele>1972.0</ele>
        <time>2018-07-28T13:05:49Z</time>
      </trkpt>
      <trkpt lat="40.493600" lon="-5.222467">
        <ele>1972.0</ele>
        <time>2018-07-28T13:05:50Z</time>
      </trkpt>
      <trkpt lat="40.493600" lon="-5.222533">
        <ele>1973.0</ele>
        <time>2018-07-28T13:05:51Z</time>
      </trkpt>
      <trkpt lat="40.493600" lon="-5.222600">
        <ele>1973.0</ele>
        <time>2018-07-28T13:05:52Z</time>
      </trkpt>
      <trkpt lat="40.493600" lon="-5.222667">
        <ele>1974.0</ele>
        <time>2018-07-28T13:05:53Z</time>
      </trkpt>
      <trkpt lat="40.493567" lon="-5.222733">
        <ele>1975.0</ele>
        <time>2018-07-28T13:05:54Z</time>
      </trkpt>
      <trkpt lat="40.493550" lon="-5.222800">
        <ele>1976.0</ele>
        <time>2018-07-28T13:05:55Z</time>
      </trkpt>
      <trkpt lat="40.493517" lon="-5.222850">
        <ele>1977.0</ele>
        <time>2018-07-28T13:05:56Z</time>
      </trkpt>
      <trkpt lat="40.493483" lon="-5.222900">
        <ele>1978.0</ele>
        <time>2018-07-28T13:05:57Z</time>
      </trkpt>
      <trkpt lat="40.493433" lon="-5.222950">
        <ele>1979.0</ele>
        <time>2018-07-28T13:05:58Z</time>
      </trkpt>
      <trkpt lat="40.493383" lon="-5.222967">
        <ele>1979.0</ele>
        <time>2018-07-28T13:05:59Z</time>
      </trkpt>
      <trkpt lat="40.493317" lon="-5.222983">
        <ele>1979.0</ele>
        <time>2018-07-28T13:06:00Z</time>
      </trkpt>
      <trkpt lat="40.493250" lon="-5.223000">
        <ele>1979.0</ele>
        <time>2018-07-28T13:06:01Z</time>
      </trkpt>
      <trkpt lat="40.493167" lon="-5.222983">
        <ele>1980.0</ele>
        <time>2018-07-28T13:06:02Z</time>
      </trkpt>
      <trkpt lat="40.493067" lon="-5.222967">
        <ele>1980.0</ele>
        <time>2018-07-28T13:06:03Z</time>
      </trkpt>
      <trkpt lat="40.492983" lon="-5.222933">
        <ele>1981.0</ele>
        <time>2018-07-28T13:06:04Z</time>
      </trkpt>
      <trkpt lat="40.492900" lon="-5.222883">
        <ele>1981.0</ele>
        <time>2018-07-28T13:06:05Z</time>
      </trkpt>
      <trkpt lat="40.492800" lon="-5.222817">
        <ele>1980.0</ele>
        <time>2018-07-28T13:06:06Z</time>
      </trkpt>
      <trkpt lat="40.492717" lon="-5.222733">
        <ele>1978.0</ele>
        <time>2018-07-28T13:06:07Z</time>
      </trkpt>
      <trkpt lat="40.492617" lon="-5.222633">
        <ele>1975.0</ele>
        <time>2018-07-28T13:06:08Z</time>
      </trkpt>
      <trkpt lat="40.492533" lon="-5.222500">
        <ele>1973.0</ele>
        <time>2018-07-28T13:06:09Z</time>
      </trkpt>
      <trkpt lat="40.492450" lon="-5.222333">
        <ele>1971.0</ele>
        <time>2018-07-28T13:06:10Z</time>
      </trkpt>
      <trkpt lat="40.492400" lon="-5.222167">
        <ele>1970.0</ele>
        <time>2018-07-28T13:06:11Z</time>
      </trkpt>
      <trkpt lat="40.492350" lon="-5.221983">
        <ele>1969.0</ele>
        <time>2018-07-28T13:06:12Z</time>
      </trkpt>
      <trkpt lat="40.492317" lon="-5.221800">
        <ele>1968.0</ele>
        <time>2018-07-28T13:06:13Z</time>
      </trkpt>
      <trkpt lat="40.492283" lon="-5.221600">
        <ele>1967.0</ele>
        <time>2018-07-28T13:06:14Z</time>
      </trkpt>
      <trkpt lat="40.492267" lon="-5.221417">
        <ele>1966.0</ele>
        <time>2018-07-28T13:06:15Z</time>
      </trkpt>
      <trkpt lat="40.492267" lon="-5.221217">
        <ele>1965.0</ele>
        <time>2018-07-28T13:06:16Z</time>
      </trkpt>
      <trkpt lat="40.492267" lon="-5.221017">
        <ele>1964.0</ele>
        <time>2018-07-28T13:06:17Z</time>
      </trkpt>
      <trkpt lat="40.492300" lon="-5.220833">
        <ele>1964.0</ele>
        <time>2018-07-28T13:06:18Z</time>
      </trkpt>
      <trkpt lat="40.492333" lon="-5.220633">
        <ele>1964.0</ele>
        <time>2018-07-28T13:06:19Z</time>
      </trkpt>
      <trkpt lat="40.492383" lon="-5.220467">
        <ele>1964.0</ele>
        <time>2018-07-28T13:06:20Z</time>
      </trkpt>
      <trkpt lat="40.492417" lon="-5.220300">
        <ele>1965.0</ele>
        <time>2018-07-28T13:06:21Z</time>
      </trkpt>
      <trkpt lat="40.492467" lon="-5.220133">
        <ele>1965.0</ele>
        <time>2018-07-28T13:06:22Z</time>
      </trkpt>
      <trkpt lat="40.492517" lon="-5.219983">
        <ele>1965.0</ele>
        <time>2018-07-28T13:06:23Z</time>
      </trkpt>
      <trkpt lat="40.492567" lon="-5.219800">
        <ele>1965.0</ele>
        <time>2018-07-28T13:06:24Z</time>
      </trkpt>
      <trkpt lat="40.492600" lon="-5.219633">
        <ele>1966.0</ele>
        <time>2018-07-28T13:06:25Z</time>
      </trkpt>
      <trkpt lat="40.492650" lon="-5.219467">
        <ele>1967.0</ele>
        <time>2018-07-28T13:06:26Z</time>
      </trkpt>
      <trkpt lat="40.492683" lon="-5.219300">
        <ele>1968.0</ele>
        <time>2018-07-28T13:06:27Z</time>
      </trkpt>
      <trkpt lat="40.492717" lon="-5.219150">
        <ele>1969.0</ele>
        <time>2018-07-28T13:06:28Z</time>
      </trkpt>
      <trkpt lat="40.492750" lon="-5.219017">
        <ele>1969.0</ele>
        <time>2018-07-28T13:06:29Z</time>
      </trkpt>
      <trkpt lat="40.492800" lon="-5.218867">
        <ele>1969.0</ele>
        <time>2018-07-28T13:06:30Z</time>
      </trkpt>
      <trkpt lat="40.492867" lon="-5.218750">
        <ele>1968.0</ele>
        <time>2018-07-28T13:06:31Z</time>
      </trkpt>
      <trkpt lat="40.492950" lon="-5.218633">
        <ele>1968.0</ele>
        <time>2018-07-28T13:06:32Z</time>
      </trkpt>
      <trkpt lat="40.493033" lon="-5.218533">
        <ele>1967.0</ele>
        <time>2018-07-28T13:06:33Z</time>
      </trkpt>
      <trkpt lat="40.493117" lon="-5.218450">
        <ele>1966.0</ele>
        <time>2018-07-28T13:06:34Z</time>
      </trkpt>
      <trkpt lat="40.493200" lon="-5.218400">
        <ele>1965.0</ele>
        <time>2018-07-28T13:06:35Z</time>
      </trkpt>
      <trkpt lat="40.493283" lon="-5.218383">
        <ele>1963.0</ele>
        <time>2018-07-28T13:06:36Z</time>
      </trkpt>
      <trkpt lat="40.493367" lon="-5.218383">
        <ele>1962.0</ele>
        <time>2018-07-28T13:06:37Z</time>
      </trkpt>
      <trkpt lat="40.493433" lon="-5.218383">
        <ele>1960.0</ele>
        <time>2018-07-28T13:06:38Z</time>
      </trkpt>
      <trkpt lat="40.493500" lon="-5.218400">
        <ele>1959.0</ele>
        <time>2018-07-28T13:06:39Z</time>
      </trkpt>
      <trkpt lat="40.493567" lon="-5.218433">
        <ele>1957.0</ele>
        <time>2018-07-28T13:06:40Z</time>
      </trkpt>
      <trkpt lat="40.493633" lon="-5.218467">
        <ele>1956.0</ele>
        <time>2018-07-28T13:06:41Z</time>
      </trkpt>
      <trkpt lat="40.493683" lon="-5.218517">
        <ele>1955.0</ele>
        <time>2018-07-28T13:06:42Z</time>
      </trkpt>
      <trkpt lat="40.493733" lon="-5.218567">
        <ele>1954.0</ele>
        <time>2018-07-28T13:06:43Z</time>
      </trkpt>
      <trkpt lat="40.493767" lon="-5.218633">
        <ele>1953.0</ele>
        <time>2018-07-28T13:06:44Z</time>
      </trkpt>
      <trkpt lat="40.493800" lon="-5.218700">
        <ele>1953.0</ele>
        <time>2018-07-28T13:06:45Z</time>
      </trkpt>
      <trkpt lat="40.493833" lon="-5.218750">
        <ele>1952.0</ele>
        <time>2018-07-28T13:06:46Z</time>
      </trkpt>
      <trkpt lat="40.493867" lon="-5.218833">
        <ele>1951.0</ele>
        <time>2018-07-28T13:06:47Z</time>
      </trkpt>
      <trkpt lat="40.493900" lon="-5.218900">
        <ele>1950.0</ele>
        <time>2018-07-28T13:06:48Z</time>
      </trkpt>
      <trkpt lat="40.493933" lon="-5.218967">
        <ele>1949.0</ele>
        <time>2018-07-28T13:06:49Z</time>
      </trkpt>
      <trkpt lat="40.493983" lon="-5.219033">
        <ele>1949.0</ele>
        <time>2018-07-28T13:06:50Z</time>
      </trkpt>
      <trkpt lat="40.494050" lon="-5.219083">
        <ele>1948.0</ele>
        <time>2018-07-28T13:06:51Z</time>
      </trkpt>
      <trkpt lat="40.494100" lon="-5.219133">
        <ele>1948.0</ele>
        <time>2018-07-28T13:06:52Z</time>
      </trkpt>
      <trkpt lat="40.494150" lon="-5.219200">
        <ele>1947.0</ele>
        <time>2018-07-28T13:06:53Z</time>
      </trkpt>
      <trkpt lat="40.494200" lon="-5.219267">
        <ele>1947.0</ele>
        <time>2018-07-28T13:06:54Z</time>
      </trkpt>
      <trkpt lat="40.494233" lon="-5.219317">
        <ele>1946.0</ele>
        <time>2018-07-28T13:06:55Z</time>
      </trkpt>
      <trkpt lat="40.494283" lon="-5.219383">
        <ele>1946.0</ele>
        <time>2018-07-28T13:06:56Z</time>
      </trkpt>
      <trkpt lat="40.494317" lon="-5.219467">
        <ele>1945.0</ele>
        <time>2018-07-28T13:06:57Z</time>
      </trkpt>
      <trkpt lat="40.494350" lon="-5.219533">
        <ele>1945.0</ele>
        <time>2018-07-28T13:06:58Z</time>
      </trkpt>
      <trkpt lat="40.494383" lon="-5.219617">
        <ele>1944.0</ele>
        <time>2018-07-28T13:06:59Z</time>
      </trkpt>
      <trkpt lat="40.494400" lon="-5.219700">
        <ele>1944.0</ele>
        <time>2018-07-28T13:07:00Z</time>
      </trkpt>
      <trkpt lat="40.494433" lon="-5.219767">
        <ele>1944.0</ele>
        <time>2018-07-28T13:07:01Z</time>
      </trkpt>
      <trkpt lat="40.494467" lon="-5.219850">
        <ele>1943.0</ele>
        <time>2018-07-28T13:07:02Z</time>
      </trkpt>
      <trkpt lat="40.494500" lon="-5.219933">
        <ele>1942.0</ele>
        <time>2018-07-28T13:07:03Z</time>
      </trkpt>
      <trkpt lat="40.494533" lon="-5.220000">
        <ele>1942.0</ele>
        <time>2018-07-28T13:07:04Z</time>
      </trkpt>
      <trkpt lat="40.494550" lon="-5.220083">
        <ele>1941.0</ele>
        <time>2018-07-28T13:07:05Z</time>
      </trkpt>
      <trkpt lat="40.494567" lon="-5.220167">
        <ele>1941.0</ele>
        <time>2018-07-28T13:07:06Z</time>
      </trkpt>
      <trkpt lat="40.494567" lon="-5.220250">
        <ele>1940.0</ele>
        <time>2018-07-28T13:07:07Z</time>
      </trkpt>
      <trkpt lat="40.494567" lon="-5.220350">
        <ele>1939.0</ele>
        <time>2018-07-28T13:07:08Z</time>
      </trkpt>
      <trkpt lat="40.494567" lon="-5.220450">
        <ele>1940.0</ele>
        <time>2018-07-28T13:07:09Z</time>
      </trkpt>
      <trkpt lat="40.494583" lon="-5.220533">
        <ele>1940.0</ele>
        <time>2018-07-28T13:07:10Z</time>
      </trkpt>
      <trkpt lat="40.494600" lon="-5.220600">
        <ele>1941.0</ele>
        <time>2018-07-28T13:07:11Z</time>
      </trkpt>
      <trkpt lat="40.494617" lon="-5.220683">
        <ele>1942.0</ele>
        <time>2018-07-28T13:07:12Z</time>
      </trkpt>
      <trkpt lat="40.494617" lon="-5.220750">
        <ele>1942.0</ele>
        <time>2018-07-28T13:07:13Z</time>
      </trkpt>
      <trkpt lat="40.494617" lon="-5.220833">
        <ele>1942.0</ele>
        <time>2018-07-28T13:07:14Z</time>
      </trkpt>
      <trkpt lat="40.494617" lon="-5.220917">
        <ele>1944.0</ele>
        <time>2018-07-28T13:07:15Z</time>
      </trkpt>
      <trkpt lat="40.494617" lon="-5.220983">
        <ele>1946.0</ele>
        <time>2018-07-28T13:07:16Z</time>
      </trkpt>
      <trkpt lat="40.494600" lon="-5.221050">
        <ele>1948.0</ele>
        <time>2018-07-28T13:07:17Z</time>
      </trkpt>
      <trkpt lat="40.494600" lon="-5.221117">
        <ele>1949.0</ele>
        <time>2018-07-28T13:07:18Z</time>
      </trkpt>
      <trkpt lat="40.494583" lon="-5.221167">
        <ele>1951.0</ele>
        <time>2018-07-28T13:07:19Z</time>
      </trkpt>
      <trkpt lat="40.494583" lon="-5.221217">
        <ele>1952.0</ele>
        <time>2018-07-28T13:07:20Z</time>
      </trkpt>
      <trkpt lat="40.494600" lon="-5.221267">
        <ele>1953.0</ele>
        <time>2018-07-28T13:07:21Z</time>
      </trkpt>
      <trkpt lat="40.494617" lon="-5.221317">
        <ele>1952.0</ele>
        <time>2018-07-28T13:07:22Z</time>
      </trkpt>
      <trkpt lat="40.494667" lon="-5.221367">
        <ele>1952.0</ele>
        <time>2018-07-28T13:07:23Z</time>
      </trkpt>
      <trkpt lat="40.494733" lon="-5.221383">
        <ele>1952.0</ele>
        <time>2018-07-28T13:07:24Z</time>
      </trkpt>
      <trkpt lat="40.494817" lon="-5.221383">
        <ele>1952.0</ele>
        <time>2018-07-28T13:07:25Z</time>
      </trkpt>
      <trkpt lat="40.494883" lon="-5.221350">
        <ele>1954.0</ele>
        <time>2018-07-28T13:07:26Z</time>
      </trkpt>
      <trkpt lat="40.494967" lon="-5.221283">
        <ele>1955.0</ele>
        <time>2018-07-28T13:07:27Z</time>
      </trkpt>
      <trkpt lat="40.495033" lon="-5.221200">
        <ele>1956.0</ele>
        <time>2018-07-28T13:07:28Z</time>
      </trkpt>
      <trkpt lat="40.495100" lon="-5.221100">
        <ele>1956.0</ele>
        <time>2018-07-28T13:07:29Z</time>
      </trkpt>
      <trkpt lat="40.495167" lon="-5.220967">
        <ele>1957.0</ele>
        <time>2018-07-28T13:07:30Z</time>
      </trkpt>
      <trkpt lat="40.495200" lon="-5.220800">
        <ele>1957.0</ele>
        <time>2018-07-28T13:07:31Z</time>
      </trkpt>
      <trkpt lat="40.495200" lon="-5.220650">
        <ele>1957.0</ele>
        <time>2018-07-28T13:07:32Z</time>
      </trkpt>
      <trkpt lat="40.495167" lon="-5.220483">
        <ele>1957.0</ele>
        <time>2018-07-28T13:07:33Z</time>
      </trkpt>
      <trkpt lat="40.495117" lon="-5.220333">
        <ele>1957.0</ele>
        <time>2018-07-28T13:07:34Z</time>
      </trkpt>
      <trkpt lat="40.495067" lon="-5.220200">
        <ele>1957.0</ele>
        <time>2018-07-28T13:07:35Z</time>
      </trkpt>
      <trkpt lat="40.494983" lon="-5.220100">
        <ele>1956.0</ele>
        <time>2018-07-28T13:07:36Z</time>
      </trkpt>
      <trkpt lat="40.494900" lon="-5.220000">
        <ele>1955.0</ele>
        <time>2018-07-28T13:07:37Z</time>
      </trkpt>
      <trkpt lat="40.494783" lon="-5.219933">
        <ele>1953.0</ele>
        <time>2018-07-28T13:07:38Z</time>
      </trkpt>
      <trkpt lat="40.494667" lon="-5.219867">
        <ele>1952.0</ele>
        <time>2018-07-28T13:07:39Z</time>
      </trkpt>
      <trkpt lat="40.494533" lon="-5.219833">
        <ele>1954.0</ele>
        <time>2018-07-28T13:07:40Z</time>
      </trkpt>
      <trkpt lat="40.494417" lon="-5.219800">
        <ele>1957.0</ele>
        <time>2018-07-28T13:07:41Z</time>
      </trkpt>
      <trkpt lat="40.494317" lon="-5.219767">
        <ele>1960.0</ele>
        <time>2018-07-28T13:07:42Z</time>
      </trkpt>
      <trkpt lat="40.494233" lon="-5.219733">
        <ele>1962.0</ele>
        <time>2018-07-28T13:07:43Z</time>
      </trkpt>
      <trkpt lat="40.494150" lon="-5.219700">
        <ele>1962.0</ele>
        <time>2018-07-28T13:07:44Z</time>
      </trkpt>
      <trkpt lat="40.494050" lon="-5.219700">
        <ele>1961.0</ele>
        <time>2018-07-28T13:07:45Z</time>
      </trkpt>
      <trkpt lat="40.493967" lon="-5.219717">
        <ele>1961.0</ele>
        <time>2018-07-28T13:07:46Z</time>
      </trkpt>
      <trkpt lat="40.493900" lon="-5.219767">
        <ele>1960.0</ele>
        <time>2018-07-28T13:07:47Z</time>
      </trkpt>
      <trkpt lat="40.493850" lon="-5.219850">
        <ele>1959.0</ele>
        <time>2018-07-28T13:07:48Z</time>
      </trkpt>
      <trkpt lat="40.493833" lon="-5.219933">
        <ele>1959.0</ele>
        <time>2018-07-28T13:07:49Z</time>
      </trkpt>
      <trkpt lat="40.493817" lon="-5.220000">
        <ele>1959.0</ele>
        <time>2018-07-28T13:07:50Z</time>
      </trkpt>
      <trkpt lat="40.493817" lon="-5.220083">
        <ele>1959.0</ele>
        <time>2018-07-28T13:07:51Z</time>
      </trkpt>
      <trkpt lat="40.493800" lon="-5.220167">
        <ele>1959.0</ele>
        <time>2018-07-28T13:07:52Z</time>
      </trkpt>
      <trkpt lat="40.493800" lon="-5.220233">
        <ele>1959.0</ele>
        <time>2018-07-28T13:07:53Z</time>
      </trkpt>
      <trkpt lat="40.493800" lon="-5.220300">
        <ele>1959.0</ele>
        <time>2018-07-28T13:07:54Z</time>
      </trkpt>
      <trkpt lat="40.493817" lon="-5.220367">
        <ele>1958.0</ele>
        <time>2018-07-28T13:07:55Z</time>
      </trkpt>
      <trkpt lat="40.493850" lon="-5.220417">
        <ele>1956.0</ele>
        <time>2018-07-28T13:07:56Z</time>
      </trkpt>
      <trkpt lat="40.493883" lon="-5.220483">
        <ele>1954.0</ele>
        <time>2018-07-28T13:07:57Z</time>
      </trkpt>
      <trkpt lat="40.493917" lon="-5.220550">
        <ele>1953.0</ele>
        <time>2018-07-28T13:07:58Z</time>
      </trkpt>
      <trkpt lat="40.493950" lon="-5.220633">
        <ele>1951.0</ele>
        <time>2018-07-28T13:07:59Z</time>
      </trkpt>
      <trkpt lat="40.493983" lon="-5.220717">
        <ele>1950.0</ele>
        <time>2018-07-28T13:08:00Z</time>
      </trkpt>
      <trkpt lat="40.494017" lon="-5.220800">
        <ele>1949.0</ele>
        <time>2018-07-28T13:08:01Z</time>
      </trkpt>
      <trkpt lat="40.494067" lon="-5.220883">
        <ele>1948.0</ele>
        <time>2018-07-28T13:08:02Z</time>
      </trkpt>
      <trkpt lat="40.494100" lon="-5.220967">
        <ele>1948.0</ele>
        <time>2018-07-28T13:08:03Z</time>
      </trkpt>
      <trkpt lat="40.494133" lon="-5.221067">
        <ele>1948.0</ele>
        <time>2018-07-28T13:08:04Z</time>
      </trkpt>
      <trkpt lat="40.494183" lon="-5.221150">
        <ele>1949.0</ele>
        <time>2018-07-28T13:08:05Z</time>
      </trkpt>
      <trkpt lat="40.494217" lon="-5.221233">
        <ele>1950.0</ele>
        <time>2018-07-28T13:08:06Z</time>
      </trkpt>
      <trkpt lat="40.494250" lon="-5.221317">
        <ele>1952.0</ele>
        <time>2018-07-28T13:08:07Z</time>
      </trkpt>
      <trkpt lat="40.494267" lon="-5.221400">
        <ele>1953.0</ele>
        <time>2018-07-28T13:08:08Z</time>
      </trkpt>
      <trkpt lat="40.494300" lon="-5.221483">
        <ele>1955.0</ele>
        <time>2018-07-28T13:08:09Z</time>
      </trkpt>
      <trkpt lat="40.494300" lon="-5.221567">
        <ele>1956.0</ele>
        <time>2018-07-28T13:08:10Z</time>
      </trkpt>
      <trkpt lat="40.494317" lon="-5.221633">
        <ele>1957.0</ele>
        <time>2018-07-28T13:08:11Z</time>
      </trkpt>
      <trkpt lat="40.494333" lon="-5.221700">
        <ele>1957.0</ele>
        <time>2018-07-28T13:08:12Z</time>
      </trkpt>
      <trkpt lat="40.494350" lon="-5.221750">
        <ele>1957.0</ele>
        <time>2018-07-28T13:08:13Z</time>
      </trkpt>
      <trkpt lat="40.494400" lon="-5.221800">
        <ele>1956.0</ele>
        <time>2018-07-28T13:08:14Z</time>
      </trkpt>
      <trkpt lat="40.494467" lon="-5.221833">
        <ele>1955.0</ele>
        <time>2018-07-28T13:08:15Z</time>
      </trkpt>
      <trkpt lat="40.494533" lon="-5.221867">
        <ele>1954.0</ele>
        <time>2018-07-28T13:08:16Z</time>
      </trkpt>
      <trkpt lat="40.494617" lon="-5.221883">
        <ele>1953.0</ele>
        <time>2018-07-28T13:08:17Z</time>
      </trkpt>
      <trkpt lat="40.494700" lon="-5.221917">
        <ele>1953.0</ele>
        <time>2018-07-28T13:08:18Z</time>
      </trkpt>
      <trkpt lat="40.494783" lon="-5.221933">
        <ele>1953.0</ele>
        <time>2018-07-28T13:08:19Z</time>
      </trkpt>
      <trkpt lat="40.494867" lon="-5.221933">
        <ele>1954.0</ele>
        <time>2018-07-28T13:08:20Z</time>
      </trkpt>
      <trkpt lat="40.494967" lon="-5.221900">
        <ele>1955.0</ele>
        <time>2018-07-28T13:08:21Z</time>
      </trkpt>
      <trkpt lat="40.495033" lon="-5.221850">
        <ele>1955.0</ele>
        <time>2018-07-28T13:08:22Z</time>
      </trkpt>
      <trkpt lat="40.495100" lon="-5.221783">
        <ele>1955.0</ele>
        <time>2018-07-28T13:08:23Z</time>
      </trkpt>
      <trkpt lat="40.495167" lon="-5.221717">
        <ele>1954.0</ele>
        <time>2018-07-28T13:08:24Z</time>
      </trkpt>
      <trkpt lat="40.495250" lon="-5.221633">
        <ele>1952.0</ele>
        <time>2018-07-28T13:08:25Z</time>
      </trkpt>
      <trkpt lat="40.495333" lon="-5.221533">
        <ele>1951.0</ele>
        <time>2018-07-28T13:08:26Z</time>
      </trkpt>
      <trkpt lat="40.495400" lon="-5.221417">
        <ele>1951.0</ele>
        <time>2018-07-28T13:08:27Z</time>
      </trkpt>
      <trkpt lat="40.495467" lon="-5.221283">
        <ele>1950.0</ele>
        <time>2018-07-28T13:08:28Z</time>
      </trkpt>
      <trkpt lat="40.495517" lon="-5.221133">
        <ele>1950.0</ele>
        <time>2018-07-28T13:08:29Z</time>
      </trkpt>
      <trkpt lat="40.495567" lon="-5.220967">
        <ele>1950.0</ele>
        <time>2018-07-28T13:08:30Z</time>
      </trkpt>
      <trkpt lat="40.495600" lon="-5.220817">
        <ele>1952.0</ele>
        <time>2018-07-28T13:08:31Z</time>
      </trkpt>
      <trkpt lat="40.495633" lon="-5.220667">
        <ele>1954.0</ele>
        <time>2018-07-28T13:08:32Z</time>
      </trkpt>
      <trkpt lat="40.495650" lon="-5.220533">
        <ele>1956.0</ele>
        <time>2018-07-28T13:08:33Z</time>
      </trkpt>
      <trkpt lat="40.495683" lon="-5.220417">
        <ele>1956.0</ele>
        <time>2018-07-28T13:08:34Z</time>
      </trkpt>
      <trkpt lat="40.495717" lon="-5.220283">
        <ele>1955.0</ele>
        <time>2018-07-28T13:08:35Z</time>
      </trkpt>
      <trkpt lat="40.495767" lon="-5.220133">
        <ele>1954.0</ele>
        <time>2018-07-28T13:08:36Z</time>
      </trkpt>
      <trkpt lat="40.495800" lon="-5.219983">
        <ele>1954.0</ele>
        <time>2018-07-28T13:08:37Z</time>
      </trkpt>
      <trkpt lat="40.495833" lon="-5.219833">
        <ele>1953.0</ele>
        <time>2018-07-28T13:08:38Z</time>
      </trkpt>
      <trkpt lat="40.495817" lon="-5.219683">
        <ele>1952.0</ele>
        <time>2018-07-28T13:08:39Z</time>
      </trkpt>
      <trkpt lat="40.495783" lon="-5.219517">
        <ele>1950.0</ele>
        <time>2018-07-28T13:08:40Z</time>
      </trkpt>
      <trkpt lat="40.495733" lon="-5.219367">
        <ele>1948.0</ele>
        <time>2018-07-28T13:08:41Z</time>
      </trkpt>
      <trkpt lat="40.495667" lon="-5.219233">
        <ele>1948.0</ele>
        <time>2018-07-28T13:08:42Z</time>
      </trkpt>
      <trkpt lat="40.495583" lon="-5.219117">
        <ele>1947.0</ele>
        <time>2018-07-28T13:08:43Z</time>
      </trkpt>
      <trkpt lat="40.495500" lon="-5.219017">
        <ele>1946.0</ele>
        <time>2018-07-28T13:08:44Z</time>
      </trkpt>
      <trkpt lat="40.495400" lon="-5.218967">
        <ele>1945.0</ele>
        <time>2018-07-28T13:08:45Z</time>
      </trkpt>
      <trkpt lat="40.495283" lon="-5.218933">
        <ele>1944.0</ele>
        <time>2018-07-28T13:08:46Z</time>
      </trkpt>
      <trkpt lat="40.495167" lon="-5.218917">
        <ele>1945.0</ele>
        <time>2018-07-28T13:08:47Z</time>
      </trkpt>
      <trkpt lat="40.495067" lon="-5.218917">
        <ele>1947.0</ele>
        <time>2018-07-28T13:08:48Z</time>
      </trkpt>
      <trkpt lat="40.494983" lon="-5.218933">
        <ele>1949.0</ele>
        <time>2018-07-28T13:08:49Z</time>
      </trkpt>
      <trkpt lat="40.494900" lon="-5.218967">
        <ele>1951.0</ele>
        <time>2018-07-28T13:08:50Z</time>
      </trkpt>
      <trkpt lat="40.494833" lon="-5.219000">
        <ele>1952.0</ele>
        <time>2018-07-28T13:08:51Z</time>
      </trkpt>
      <trkpt lat="40.494750" lon="-5.219033">
        <ele>1953.0</ele>
        <time>2018-07-28T13:08:52Z</time>
      </trkpt>
      <trkpt lat="40.494683" lon="-5.219067">
        <ele>1954.0</ele>
        <time>2018-07-28T13:08:53Z</time>
      </trkpt>
      <trkpt lat="40.494617" lon="-5.219117">
        <ele>1956.0</ele>
        <time>2018-07-28T13:08:54Z</time>
      </trkpt>
      <trkpt lat="40.494567" lon="-5.219167">
        <ele>1956.0</ele>
        <time>2018-07-28T13:08:55Z</time>
      </trkpt>
      <trkpt lat="40.494533" lon="-5.219250">
        <ele>1956.0</ele>
        <time>2018-07-28T13:08:56Z</time>
      </trkpt>
      <trkpt lat="40.494500" lon="-5.219333">
        <ele>1956.0</ele>
        <time>2018-07-28T13:08:57Z</time>
      </trkpt>
      <trkpt lat="40.494500" lon="-5.219417">
        <ele>1957.0</ele>
        <time>2018-07-28T13:08:58Z</time>
      </trkpt>
      <trkpt lat="40.494500" lon="-5.219500">
        <ele>1958.0</ele>
        <time>2018-07-28T13:08:59Z</time>
      </trkpt>
      <trkpt lat="40.494483" lon="-5.219583">
        <ele>1959.0</ele>
        <time>2018-07-28T13:09:00Z</time>
      </trkpt>
      <trkpt lat="40.494483" lon="-5.219650">
        <ele>1960.0</ele>
        <time>2018-07-28T13:09:01Z</time>
      </trkpt>
      <trkpt lat="40.494483" lon="-5.219717">
        <ele>1960.0</ele>
        <time>2018-07-28T13:09:02Z</time>
      </trkpt>
      <trkpt lat="40.494483" lon="-5.219783">
        <ele>1960.0</ele>
        <time>2018-07-28T13:09:03Z</time>
      </trkpt>
      <trkpt lat="40.494500" lon="-5.219867">
        <ele>1960.0</ele>
        <time>2018-07-28T13:09:04Z</time>
      </trkpt>
      <trkpt lat="40.494500" lon="-5.219933">
        <ele>1959.0</ele>
        <time>2018-07-28T13:09:05Z</time>
      </trkpt>
      <trkpt lat="40.494533" lon="-5.220000">
        <ele>1958.0</ele>
        <time>2018-07-28T13:09:06Z</time>
      </trkpt>
      <trkpt lat="40.494583" lon="-5.220050">
        <ele>1957.0</ele>
        <time>2018-07-28T13:09:07Z</time>
      </trkpt>
      <trkpt lat="40.494650" lon="-5.220100">
        <ele>1956.0</ele>
        <time>2018-07-28T13:09:08Z</time>
      </trkpt>
      <trkpt lat="40.494700" lon="-5.220150">
        <ele>1955.0</ele>
        <time>2018-07-28T13:09:09Z</time>
      </trkpt>
      <trkpt lat="40.494767" lon="-5.220183">
        <ele>1955.0</ele>
        <time>2018-07-28T13:09:10Z</time>
      </trkpt>
      <trkpt lat="40.494833" lon="-5.220217">
        <ele>1954.0</ele>
        <time>2018-07-28T13:09:11Z</time>
      </trkpt>
      <trkpt lat="40.494900" lon="-5.220250">
        <ele>1953.0</ele>
        <time>2018-07-28T13:09:12Z</time>
      </trkpt>
      <trkpt lat="40.494967" lon="-5.220283">
        <ele>1953.0</ele>
        <time>2018-07-28T13:09:13Z</time>
      </trkpt>
      <trkpt lat="40.495033" lon="-5.220350">
        <ele>1952.0</ele>
        <time>2018-07-28T13:09:14Z</time>
      </trkpt>
      <trkpt lat="40.495100" lon="-5.220417">
        <ele>1952.0</ele>
        <time>2018-07-28T13:09:15Z</time>
      </trkpt>
      <trkpt lat="40.495150" lon="-5.220467">
        <ele>1953.0</ele>
        <time>2018-07-28T13:09:16Z</time>
      </trkpt>
      <trkpt lat="40.495200" lon="-5.220533">
        <ele>1954.0</ele>
        <time>2018-07-28T13:09:17Z</time>
      </trkpt>
      <trkpt lat="40.495267" lon="-5.220583">
        <ele>1955.0</ele>
        <time>2018-07-28T13:09:18Z</time>
      </trkpt>
      <trkpt lat="40.495317" lon="-5.220633">
        <ele>1955.0</ele>
        <time>2018-07-28T13:09:19Z</time>
      </trkpt>
      <trkpt lat="40.495383" lon="-5.220683">
        <ele>1955.0</ele>
        <time>2018-07-28T13:09:20Z</time>
      </trkpt>
      <trkpt lat="40.495450" lon="-5.220717">
        <ele>1954.0</ele>
        <time>2018-07-28T13:09:21Z</time>
      </trkpt>
      <trkpt lat="40.495517" lon="-5.220750">
        <ele>1952.0</ele>
        <time>2018-07-28T13:09:22Z</time>
      </trkpt>
      <trkpt lat="40.495600" lon="-5.220767">
        <ele>1951.0</ele>
        <time>2018-07-28T13:09:23Z</time>
      </trkpt>
      <trkpt lat="40.495683" lon="-5.220767">
        <ele>1950.0</ele>
        <time>2018-07-28T13:09:24Z</time>
      </trkpt>
      <trkpt lat="40.495767" lon="-5.220783">
        <ele>1948.0</ele>
        <time>2018-07-28T13:09:25Z</time>
      </trkpt>
      <trkpt lat="40.495867" lon="-5.220783">
        <ele>1947.0</ele>
        <time>2018-07-28T13:09:26Z</time>
      </trkpt>
      <trkpt lat="40.495950" lon="-5.220783">
        <ele>1946.0</ele>
        <time>2018-07-28T13:09:27Z</time>
      </trkpt>
      <trkpt lat="40.496017" lon="-5.220783">
        <ele>1946.0</ele>
        <time>2018-07-28T13:09:28Z</time>
      </trkpt>
      <trkpt lat="40.496100" lon="-5.220750">
        <ele>1944.0</ele>
        <time>2018-07-28T13:09:29Z</time>
      </trkpt>
      <trkpt lat="40.496183" lon="-5.220717">
        <ele>1942.0</ele>
        <time>2018-07-28T13:09:30Z</time>
      </trkpt>
      <trkpt lat="40.496267" lon="-5.220650">
        <ele>1940.0</ele>
        <time>2018-07-28T13:09:31Z</time>
      </trkpt>
      <trkpt lat="40.496367" lon="-5.220583">
        <ele>1939.0</ele>
        <time>2018-07-28T13:09:32Z</time>
      </trkpt>
      <trkpt lat="40.496450" lon="-5.220500">
        <ele>1938.0</ele>
        <time>2018-07-28T13:09:33Z</time>
      </trkpt>
      <trkpt lat="40.496533" lon="-5.220433">
        <ele>1939.0</ele>
        <time>2018-07-28T13:09:34Z</time>
      </trkpt>
      <trkpt lat="40.496600" lon="-5.220350">
        <ele>1939.0</ele>
        <time>2018-07-28T13:09:35Z</time>
      </trkpt>
      <trkpt lat="40.496650" lon="-5.220267">
        <ele>1939.0</ele>
        <time>2018-07-28T13:09:36Z</time>
      </trkpt>
      <trkpt lat="40.496717" lon="-5.220183">
        <ele>1937.0</ele>
        <time>2018-07-28T13:09:37Z</time>
      </trkpt>
      <trkpt lat="40.496783" lon="-5.220083">
        <ele>1935.0</ele>
        <time>2018-07-28T13:09:38Z</time>
      </trkpt>
      <trkpt lat="40.496867" lon="-5.219983">
        <ele>1933.0</ele>
        <time>2018-07-28T13:09:39Z</time>
      </trkpt>
      <trkpt lat="40.496950" lon="-5.219883">
        <ele>1932.0</ele>
        <time>2018-07-28T13:09:40Z</time>
      </trkpt>
      <trkpt lat="40.497017" lon="-5.219750">
        <ele>1933.0</ele>
        <time>2018-07-28T13:09:41Z</time>
      </trkpt>
      <trkpt lat="40.497083" lon="-5.219617">
        <ele>1933.0</ele>
        <time>2018-07-28T13:09:42Z</time>
      </trkpt>
      <trkpt lat="40.497150" lon="-5.219500">
        <ele>1934.0</ele>
        <time>2018-07-28T13:09:43Z</time>
      </trkpt>
      <trkpt lat="40.497200" lon="-5.219383">
        <ele>1935.0</ele>
        <time>2018-07-28T13:09:44Z</time>
      </trkpt>
      <trkpt lat="40.497283" lon="-5.219300">
        <ele>1936.0</ele>
        <time>2018-07-28T13:09:45Z</time>
      </trkpt>
      <trkpt lat="40.497383" lon="-5.219233">
        <ele>1936.0</ele>
        <time>2018-07-28T13:09:46Z</time>
      </trkpt>
      <trkpt lat="40.497467" lon="-5.219183">
        <ele>1937.0</ele>
        <time>2018-07-28T13:09:47Z</time>
      </trkpt>
      <trkpt lat="40.497550" lon="-5.219150">
        <ele>1939.0</ele>
        <time>2018-07-28T13:09:48Z</time>
      </trkpt>
      <trkpt lat="40.497633" lon="-5.219117">
        <ele>1940.0</ele>
        <time>2018-07-28T13:09:49Z</time>
      </trkpt>
      <trkpt lat="40.497700" lon="-5.219050">
        <ele>1940.0</ele>
        <time>2018-07-28T13:09:50Z</time>
      </trkpt>
      <trkpt lat="40.497750" lon="-5.218967">
        <ele>1939.0</ele>
        <time>2018-07-28T13:09:51Z</time>
      </trkpt>
      <trkpt lat="40.497800" lon="-5.218850">
        <ele>1937.0</ele>
        <time>2018-07-28T13:09:52Z</time>
      </trkpt>
      <trkpt lat="40.497817" lon="-5.218717">
        <ele>1934.0</ele>
        <time>2018-07-28T13:09:53Z</time>
      </trkpt>
      <trkpt lat="40.497800" lon="-5.218567">
        <ele>1932.0</ele>
        <time>2018-07-28T13:09:54Z</time>
      </trkpt>
      <trkpt lat="40.497783" lon="-5.218417">
        <ele>1931.0</ele>
        <time>2018-07-28T13:09:55Z</time>
      </trkpt>
      <trkpt lat="40.497717" lon="-5.218267">
        <ele>1929.0</ele>
        <time>2018-07-28T13:09:56Z</time>
      </trkpt>
      <trkpt lat="40.497633" lon="-5.218133">
        <ele>1928.0</ele>
        <time>2018-07-28T13:09:57Z</time>
      </trkpt>
      <trkpt lat="40.497533" lon="-5.218033">
        <ele>1926.0</ele>
        <time>2018-07-28T13:09:58Z</time>
      </trkpt>
      <trkpt lat="40.497417" lon="-5.217950">
        <ele>1926.0</ele>
        <time>2018-07-28T13:09:59Z</time>
      </trkpt>
      <trkpt lat="40.497300" lon="-5.217900">
        <ele>1926.0</ele>
        <time>2018-07-28T13:10:00Z</time>
      </trkpt>
      <trkpt lat="40.497200" lon="-5.217867">
        <ele>1926.0</ele>
        <time>2018-07-28T13:10:01Z</time>
      </trkpt>
      <trkpt lat="40.497100" lon="-5.217867">
        <ele>1926.0</ele>
        <time>2018-07-28T13:10:02Z</time>
      </trkpt>
      <trkpt lat="40.497000" lon="-5.217883">
        <ele>1925.0</ele>
        <time>2018-07-28T13:10:03Z</time>
      </trkpt>
      <trkpt lat="40.496883" lon="-5.217917">
        <ele>1925.0</ele>
        <time>2018-07-28T13:10:04Z</time>
      </trkpt>
      <trkpt lat="40.496783" lon="-5.217967">
        <ele>1926.0</ele>
        <time>2018-07-28T13:10:05Z</time>
      </trkpt>
      <trkpt lat="40.496717" lon="-5.218033">
        <ele>1927.0</ele>
        <time>2018-07-28T13:10:06Z</time>
      </trkpt>
      <trkpt lat="40.496650" lon="-5.218100">
        <ele>1928.0</ele>
        <time>2018-07-28T13:10:07Z</time>
      </trkpt>
      <trkpt lat="40.496600" lon="-5.218183">
        <ele>1929.0</ele>
        <time>2018-07-28T13:10:08Z</time>
      </trkpt>
      <trkpt lat="40.496550" lon="-5.218233">
        <ele>1930.0</ele>
        <time>2018-07-28T13:10:09Z</time>
      </trkpt>
      <trkpt lat="40.496483" lon="-5.218283">
        <ele>1931.0</ele>
        <time>2018-07-28T13:10:10Z</time>
      </trkpt>
      <trkpt lat="40.496433" lon="-5.218333">
        <ele>1932.0</ele>
        <time>2018-07-28T13:10:11Z</time>
      </trkpt>
      <trkpt lat="40.496383" lon="-5.218400">
        <ele>1931.0</ele>
        <time>2018-07-28T13:10:12Z</time>
      </trkpt>
      <trkpt lat="40.496350" lon="-5.218483">
        <ele>1929.0</ele>
        <time>2018-07-28T13:10:13Z</time>
      </trkpt>
      <trkpt lat="40.496317" lon="-5.218583">
        <ele>1927.0</ele>
        <time>2018-07-28T13:10:14Z</time>
      </trkpt>
      <trkpt lat="40.496283" lon="-5.218667">
        <ele>1926.0</ele>
        <time>2018-07-28T13:10:15Z</time>
      </trkpt>
      <trkpt lat="40.496250" lon="-5.218750">
        <ele>1926.0</ele>
        <time>2018-07-28T13:10:16Z</time>
      </trkpt>
      <trkpt lat="40.496233" lon="-5.218850">
        <ele>1926.0</ele>
        <time>2018-07-28T13:10:17Z</time>
      </trkpt>
      <trkpt lat="40.496217" lon="-5.218933">
        <ele>1926.0</ele>
        <time>2018-07-28T13:10:18Z</time>
      </trkpt>
      <trkpt lat="40.496200" lon="-5.219017">
        <ele>1926.0</ele>
        <time>2018-07-28T13:10:19Z</time>
      </trkpt>
      <trkpt lat="40.496200" lon="-5.219100">
        <ele>1926.0</ele>
        <time>2018-07-28T13:10:20Z</time>
      </trkpt>
      <trkpt lat="40.496200" lon="-5.219167">
        <ele>1926.0</ele>
        <time>2018-07-28T13:10:21Z</time>
      </trkpt>
      <trkpt lat="40.496200" lon="-5.219250">
        <ele>1925.0</ele>
        <time>2018-07-28T13:10:22Z</time>
      </trkpt>
      <trkpt lat="40.496200" lon="-5.219317">
        <ele>1923.0</ele>
        <time>2018-07-28T13:10:23Z</time>
      </trkpt>
      <trkpt lat="40.496233" lon="-5.219400">
        <ele>1922.0</ele>
        <time>2018-07-28T13:10:24Z</time>
      </trkpt>
      <trkpt lat="40.496250" lon="-5.219483">
        <ele>1922.0</ele>
        <time>2018-07-28T13:10:25Z</time>
      </trkpt>
      <trkpt lat="40.496300" lon="-5.219550">
        <ele>1922.0</ele>
        <time>2018-07-28T13:10:26Z</time>
      </trkpt>
      <trkpt lat="40.496350" lon="-5.219600">
        <ele>1922.0</ele>
        <time>2018-07-28T13:10:27Z</time>
      </trkpt>
      <trkpt lat="40.496400" lon="-5.219633">
        <ele>1922.0</ele>
        <time>2018-07-28T13:10:28Z</time>
      </trkpt>
      <trkpt lat="40.496450" lon="-5.219683">
        <ele>1922.0</ele>
        <time>2018-07-28T13:10:29Z</time>
      </trkpt>
      <trkpt lat="40.496517" lon="-5.219700">
        <ele>1922.0</ele>
        <time>2018-07-28T13:10:30Z</time>
      </trkpt>
      <trkpt lat="40.496600" lon="-5.219733">
        <ele>1921.0</ele>
        <time>2018-07-28T13:10:31Z</time>
      </trkpt>
      <trkpt lat="40.496683" lon="-5.219767">
        <ele>1921.0</ele>
        <time>2018-07-28T13:10:32Z</time>
      </trkpt>
      <trkpt lat="40.496783" lon="-5.219800">
        <ele>1920.0</ele>
        <time>2018-07-28T13:10:33Z</time>
      </trkpt>
      <trkpt lat="40.496867" lon="-5.219833">
        <ele>1921.0</ele>
        <time>2018-07-28T13:10:34Z</time>
      </trkpt>
      <trkpt lat="40.496950" lon="-5.219867">
        <ele>1922.0</ele>
        <time>2018-07-28T13:10:35Z</time>
      </trkpt>
      <trkpt lat="40.497050" lon="-5.219900">
        <ele>1924.0</ele>
        <time>2018-07-28T13:10:36Z</time>
      </trkpt>
      <trkpt lat="40.497133" lon="-5.219917">
        <ele>1926.0</ele>
        <time>2018-07-28T13:10:37Z</time>
      </trkpt>
      <trkpt lat="40.497217" lon="-5.219933">
        <ele>1928.0</ele>
        <time>2018-07-28T13:10:38Z</time>
      </trkpt>
      <trkpt lat="40.497283" lon="-5.219950">
        <ele>1929.0</ele>
        <time>2018-07-28T13:10:39Z</time>
      </trkpt>
      <trkpt lat="40.497350" lon="-5.219983">
        <ele>1930.0</ele>
        <time>2018-07-28T13:10:40Z</time>
      </trkpt>
      <trkpt lat="40.497417" lon="-5.220017">
        <ele>1931.0</ele>
        <time>2018-07-28T13:10:41Z</time>
      </trkpt>
      <trkpt lat="40.497500" lon="-5.220033">
        <ele>1932.0</ele>
        <time>2018-07-28T13:10:42Z</time>
      </trkpt>
      <trkpt lat="40.497600" lon="-5.220050">
        <ele>1933.0</ele>
        <time>2018-07-28T13:10:43Z</time>
      </trkpt>
      <trkpt lat="40.497683" lon="-5.220067">
        <ele>1934.0</ele>
        <time>2018-07-28T13:10:44Z</time>
      </trkpt>
      <trkpt lat="40.497783" lon="-5.220067">
        <ele>1935.0</ele>
        <time>2018-07-28T13:10:45Z</time>
      </trkpt>
      <trkpt lat="40.497867" lon="-5.220067">
        <ele>1936.0</ele>
        <time>2018-07-28T13:10:46Z</time>
      </trkpt>
      <trkpt lat="40.497950" lon="-5.220050">
        <ele>1937.0</ele>
        <time>2018-07-28T13:10:47Z</time>
      </trkpt>
      <trkpt lat="40.498067" lon="-5.219983">
        <ele>1936.0</ele>
        <time>2018-07-28T13:10:48Z</time>
      </trkpt>
      <trkpt lat="40.498183" lon="-5.219900">
        <ele>1937.0</ele>
        <time>2018-07-28T13:10:49Z</time>
      </trkpt>
      <trkpt lat="40.498283" lon="-5.219800">
        <ele>1939.0</ele>
        <time>2018-07-28T13:10:50Z</time>
      </trkpt>
      <trkpt lat="40.498367" lon="-5.219700">
        <ele>1942.0</ele>
        <time>2018-07-28T13:10:51Z</time>
      </trkpt>
      <trkpt lat="40.498433" lon="-5.219600">
        <ele>1945.0</ele>
        <time>2018-07-28T13:10:52Z</time>
      </trkpt>
      <trkpt lat="40.498483" lon="-5.219483">
        <ele>1945.0</ele>
        <time>2018-07-28T13:10:53Z</time>
      </trkpt>
      <trkpt lat="40.498533" lon="-5.219367">
        <ele>1944.0</ele>
        <time>2018-07-28T13:10:54Z</time>
      </trkpt>
      <trkpt lat="40.498583" lon="-5.219233">
        <ele>1943.0</ele>
        <time>2018-07-28T13:10:55Z</time>
      </trkpt>
      <trkpt lat="40.498617" lon="-5.219083">
        <ele>1941.0</ele>
        <time>2018-07-28T13:10:56Z</time>
      </trkpt>
      <trkpt lat="40.498633" lon="-5.218933">
        <ele>1940.0</ele>
        <time>2018-07-28T13:10:57Z</time>
      </trkpt>
      <trkpt lat="40.498633" lon="-5.218783">
        <ele>1939.0</ele>
        <time>2018-07-28T13:10:58Z</time>
      </trkpt>
      <trkpt lat="40.498600" lon="-5.218633">
        <ele>1939.0</ele>
        <time>2018-07-28T13:10:59Z</time>
      </trkpt>
      <trkpt lat="40.498567" lon="-5.218500">
        <ele>1938.0</ele>
        <time>2018-07-28T13:11:00Z</time>
      </trkpt>
      <trkpt lat="40.498517" lon="-5.218383">
        <ele>1937.0</ele>
        <time>2018-07-28T13:11:01Z</time>
      </trkpt>
      <trkpt lat="40.498433" lon="-5.218283">
        <ele>1936.0</ele>
        <time>2018-07-28T13:11:02Z</time>
      </trkpt>
      <trkpt lat="40.498350" lon="-5.218217">
        <ele>1935.0</ele>
        <time>2018-07-28T13:11:03Z</time>
      </trkpt>
      <trkpt lat="40.498267" lon="-5.218183">
        <ele>1934.0</ele>
        <time>2018-07-28T13:11:04Z</time>
      </trkpt>
      <trkpt lat="40.498183" lon="-5.218183">
        <ele>1932.0</ele>
        <time>2018-07-28T13:11:05Z</time>
      </trkpt>
      <trkpt lat="40.498100" lon="-5.218200">
        <ele>1932.0</ele>
        <time>2018-07-28T13:11:06Z</time>
      </trkpt>
      <trkpt lat="40.498033" lon="-5.218267">
        <ele>1931.0</ele>
        <time>2018-07-28T13:11:07Z</time>
      </trkpt>
      <trkpt lat="40.498017" lon="-5.218333">
        <ele>1930.0</ele>
        <time>2018-07-28T13:11:08Z</time>
      </trkpt>
      <trkpt lat="40.498000" lon="-5.218433">
        <ele>1929.0</ele>
        <time>2018-07-28T13:11:09Z</time>
      </trkpt>
      <trkpt lat="40.498033" lon="-5.218517">
        <ele>1929.0</ele>
        <time>2018-07-28T13:11:10Z</time>
      </trkpt>
      <trkpt lat="40.498067" lon="-5.218600">
        <ele>1930.0</ele>
        <time>2018-07-28T13:11:11Z</time>
      </trkpt>
      <trkpt lat="40.498133" lon="-5.218650">
        <ele>1930.0</ele>
        <time>2018-07-28T13:11:12Z</time>
      </trkpt>
      <trkpt lat="40.498217" lon="-5.218700">
        <ele>1931.0</ele>
        <time>2018-07-28T13:11:13Z</time>
      </trkpt>
      <trkpt lat="40.498300" lon="-5.218733">
        <ele>1932.0</ele>
        <time>2018-07-28T13:11:14Z</time>
      </trkpt>
      <trkpt lat="40.498400" lon="-5.218750">
        <ele>1933.0</ele>
        <time>2018-07-28T13:11:15Z</time>
      </trkpt>
      <trkpt lat="40.498483" lon="-5.218750">
        <ele>1934.0</ele>
        <time>2018-07-28T13:11:16Z</time>
      </trkpt>
      <trkpt lat="40.498600" lon="-5.218750">
        <ele>1934.0</ele>
        <time>2018-07-28T13:11:17Z</time>
      </trkpt>
      <trkpt lat="40.498700" lon="-5.218750">
        <ele>1935.0</ele>
        <time>2018-07-28T13:11:18Z</time>
      </trkpt>
      <trkpt lat="40.498800" lon="-5.218733">
        <ele>1936.0</ele>
        <time>2018-07-28T13:11:19Z</time>
      </trkpt>
      <trkpt lat="40.498917" lon="-5.218700">
        <ele>1937.0</ele>
        <time>2018-07-28T13:11:20Z</time>
      </trkpt>
      <trkpt lat="40.499017" lon="-5.218667">
        <ele>1937.0</ele>
        <time>2018-07-28T13:11:21Z</time>
      </trkpt>
      <trkpt lat="40.499117" lon="-5.218633">
        <ele>1938.0</ele>
        <time>2018-07-28T13:11:22Z</time>
      </trkpt>
      <trkpt lat="40.499217" lon="-5.218583">
        <ele>1938.0</ele>
        <time>2018-07-28T13:11:23Z</time>
      </trkpt>
      <trkpt lat="40.499333" lon="-5.218550">
        <ele>1939.0</ele>
        <time>2018-07-28T13:11:24Z</time>
      </trkpt>
      <trkpt lat="40.499433" lon="-5.218517">
        <ele>1939.0</ele>
        <time>2018-07-28T13:11:25Z</time>
      </trkpt>
      <trkpt lat="40.499533" lon="-5.218500">
        <ele>1939.0</ele>
        <time>2018-07-28T13:11:26Z</time>
      </trkpt>
      <trkpt lat="40.499633" lon="-5.218483">
        <ele>1940.0</ele>
        <time>2018-07-28T13:11:27Z</time>
      </trkpt>
      <trkpt lat="40.499733" lon="-5.218450">
        <ele>1942.0</ele>
        <time>2018-07-28T13:11:28Z</time>
      </trkpt>
      <trkpt lat="40.499833" lon="-5.218433">
        <ele>1943.0</ele>
        <time>2018-07-28T13:11:29Z</time>
      </trkpt>
      <trkpt lat="40.499917" lon="-5.218400">
        <ele>1943.0</ele>
        <time>2018-07-28T13:11:30Z</time>
      </trkpt>
      <trkpt lat="40.500017" lon="-5.218383">
        <ele>1943.0</ele>
        <time>2018-07-28T13:11:31Z</time>
      </trkpt>
      <trkpt lat="40.500117" lon="-5.218350">
        <ele>1942.0</ele>
        <time>2018-07-28T13:11:32Z</time>
      </trkpt>
      <trkpt lat="40.500217" lon="-5.218317">
        <ele>1941.0</ele>
        <time>2018-07-28T13:11:33Z</time>
      </trkpt>
      <trkpt lat="40.500333" lon="-5.218267">
        <ele>1940.0</ele>
        <time>2018-07-28T13:11:34Z</time>
      </trkpt>
      <trkpt lat="40.500450" lon="-5.218217">
        <ele>1939.0</ele>
        <time>2018-07-28T13:11:35Z</time>
      </trkpt>
      <trkpt lat="40.500567" lon="-5.218133">
        <ele>1940.0</ele>
        <time>2018-07-28T13:11:36Z</time>
      </trkpt>
      <trkpt lat="40.500667" lon="-5.218067">
        <ele>1941.0</ele>
        <time>2018-07-28T13:11:37Z</time>
      </trkpt>
      <trkpt lat="40.500783" lon="-5.218000">
        <ele>1941.0</ele>
        <time>2018-07-28T13:11:38Z</time>
      </trkpt>
      <trkpt lat="40.500883" lon="-5.217950">
        <ele>1941.0</ele>
        <time>2018-07-28T13:11:39Z</time>
      </trkpt>
      <trkpt lat="40.500983" lon="-5.217867">
        <ele>1940.0</ele>
        <time>2018-07-28T13:11:40Z</time>
      </trkpt>
      <trkpt lat="40.501100" lon="-5.217817">
        <ele>1940.0</ele>
        <time>2018-07-28T13:11:41Z</time>
      </trkpt>
      <trkpt lat="40.501217" lon="-5.217750">
        <ele>1940.0</ele>
        <time>2018-07-28T13:11:42Z</time>
      </trkpt>
      <trkpt lat="40.501317" lon="-5.217700">
        <ele>1940.0</ele>
        <time>2018-07-28T13:11:43Z</time>
      </trkpt>
      <trkpt lat="40.501417" lon="-5.217650">
        <ele>1941.0</ele>
        <time>2018-07-28T13:11:44Z</time>
      </trkpt>
      <trkpt lat="40.501517" lon="-5.217600">
        <ele>1940.0</ele>
        <time>2018-07-28T13:11:45Z</time>
      </trkpt>
      <trkpt lat="40.501633" lon="-5.217517">
        <ele>1939.0</ele>
        <time>2018-07-28T13:11:46Z</time>
      </trkpt>
      <trkpt lat="40.501750" lon="-5.217467">
        <ele>1939.0</ele>
        <time>2018-07-28T13:11:47Z</time>
      </trkpt>
      <trkpt lat="40.501867" lon="-5.217400">
        <ele>1938.0</ele>
        <time>2018-07-28T13:11:48Z</time>
      </trkpt>
      <trkpt lat="40.501983" lon="-5.217350">
        <ele>1938.0</ele>
        <time>2018-07-28T13:11:49Z</time>
      </trkpt>
      <trkpt lat="40.502100" lon="-5.217300">
        <ele>1938.0</ele>
        <time>2018-07-28T13:11:50Z</time>
      </trkpt>
      <trkpt lat="40.502200" lon="-5.217250">
        <ele>1937.0</ele>
        <time>2018-07-28T13:11:51Z</time>
      </trkpt>
      <trkpt lat="40.502317" lon="-5.217200">
        <ele>1936.0</ele>
        <time>2018-07-28T13:11:52Z</time>
      </trkpt>
      <trkpt lat="40.502433" lon="-5.217150">
        <ele>1935.0</ele>
        <time>2018-07-28T13:11:53Z</time>
      </trkpt>
      <trkpt lat="40.502567" lon="-5.217083">
        <ele>1934.0</ele>
        <time>2018-07-28T13:11:54Z</time>
      </trkpt>
      <trkpt lat="40.502683" lon="-5.217033">
        <ele>1934.0</ele>
        <time>2018-07-28T13:11:55Z</time>
      </trkpt>
      <trkpt lat="40.502800" lon="-5.216967">
        <ele>1934.0</ele>
        <time>2018-07-28T13:11:56Z</time>
      </trkpt>
      <trkpt lat="40.502933" lon="-5.216883">
        <ele>1933.0</ele>
        <time>2018-07-28T13:11:57Z</time>
      </trkpt>
      <trkpt lat="40.503033" lon="-5.216783">
        <ele>1932.0</ele>
        <time>2018-07-28T13:11:58Z</time>
      </trkpt>
      <trkpt lat="40.503150" lon="-5.216700">
        <ele>1931.0</ele>
        <time>2018-07-28T13:11:59Z</time>
      </trkpt>
      <trkpt lat="40.503267" lon="-5.216617">
        <ele>1930.0</ele>
        <time>2018-07-28T13:12:00Z</time>
      </trkpt>
      <trkpt lat="40.503383" lon="-5.216550">
        <ele>1928.0</ele>
        <time>2018-07-28T13:12:01Z</time>
      </trkpt>
      <trkpt lat="40.503500" lon="-5.216483">
        <ele>1926.0</ele>
        <time>2018-07-28T13:12:02Z</time>
      </trkpt>
      <trkpt lat="40.503617" lon="-5.216383">
        <ele>1925.0</ele>
        <time>2018-07-28T13:12:03Z</time>
      </trkpt>
      <trkpt lat="40.503733" lon="-5.216283">
        <ele>1925.0</ele>
        <time>2018-07-28T13:12:04Z</time>
      </trkpt>
      <trkpt lat="40.503833" lon="-5.216200">
        <ele>1923.0</ele>
        <time>2018-07-28T13:12:05Z</time>
      </trkpt>
      <trkpt lat="40.503950" lon="-5.216117">
        <ele>1922.0</ele>
        <time>2018-07-28T13:12:06Z</time>
      </trkpt>
      <trkpt lat="40.504067" lon="-5.216033">
        <ele>1921.0</ele>
        <time>2018-07-28T13:12:07Z</time>
      </trkpt>
      <trkpt lat="40.504183" lon="-5.215967">
        <ele>1920.0</ele>
        <time>2018-07-28T13:12:08Z</time>
      </trkpt>
      <trkpt lat="40.504283" lon="-5.215883">
        <ele>1918.0</ele>
        <time>2018-07-28T13:12:09Z</time>
      </trkpt>
      <trkpt lat="40.504383" lon="-5.215783">
        <ele>1916.0</ele>
        <time>2018-07-28T13:12:10Z</time>
      </trkpt>
      <trkpt lat="40.504500" lon="-5.215700">
        <ele>1914.0</ele>
        <time>2018-07-28T13:12:11Z</time>
      </trkpt>
      <trkpt lat="40.504600" lon="-5.215617">
        <ele>1911.0</ele>
        <time>2018-07-28T13:12:12Z</time>
      </trkpt>
      <trkpt lat="40.504717" lon="-5.215533">
        <ele>1909.0</ele>
        <time>2018-07-28T13:12:13Z</time>
      </trkpt>
      <trkpt lat="40.504833" lon="-5.215450">
        <ele>1908.0</ele>
        <time>2018-07-28T13:12:14Z</time>
      </trkpt>
      <trkpt lat="40.504933" lon="-5.215367">
        <ele>1906.0</ele>
        <time>2018-07-28T13:12:15Z</time>
      </trkpt>
      <trkpt lat="40.505033" lon="-5.215283">
        <ele>1904.0</ele>
        <time>2018-07-28T13:12:16Z</time>
      </trkpt>
      <trkpt lat="40.505133" lon="-5.215200">
        <ele>1900.0</ele>
        <time>2018-07-28T13:12:17Z</time>
      </trkpt>
      <trkpt lat="40.505250" lon="-5.215150">
        <ele>1897.0</ele>
        <time>2018-07-28T13:12:18Z</time>
      </trkpt>
      <trkpt lat="40.505367" lon="-5.215083">
        <ele>1893.0</ele>
        <time>2018-07-28T13:12:19Z</time>
      </trkpt>
      <trkpt lat="40.505483" lon="-5.215033">
        <ele>1891.0</ele>
        <time>2018-07-28T13:12:20Z</time>
      </trkpt>
      <trkpt lat="40.505600" lon="-5.214967">
        <ele>1890.0</ele>
        <time>2018-07-28T13:12:21Z</time>
      </trkpt>
      <trkpt lat="40.505683" lon="-5.214900">
        <ele>1889.0</ele>
        <time>2018-07-28T13:12:22Z</time>
      </trkpt>
      <trkpt lat="40.505783" lon="-5.214833">
        <ele>1887.0</ele>
        <time>2018-07-28T13:12:23Z</time>
      </trkpt>
      <trkpt lat="40.505867" lon="-5.214783">
        <ele>1885.0</ele>
        <time>2018-07-28T13:12:24Z</time>
      </trkpt>
      <trkpt lat="40.505967" lon="-5.214733">
        <ele>1881.0</ele>
        <time>2018-07-28T13:12:25Z</time>
      </trkpt>
      <trkpt lat="40.506083" lon="-5.214683">
        <ele>1878.0</ele>
        <time>2018-07-28T13:12:26Z</time>
      </trkpt>
      <trkpt lat="40.506183" lon="-5.214650">
        <ele>1875.0</ele>
        <time>2018-07-28T13:12:27Z</time>
      </trkpt>
      <trkpt lat="40.506300" lon="-5.214600">
        <ele>1873.0</ele>
        <time>2018-07-28T13:12:28Z</time>
      </trkpt>
      <trkpt lat="40.506417" lon="-5.214567">
        <ele>1870.0</ele>
        <time>2018-07-28T13:12:29Z</time>
      </trkpt>
      <trkpt lat="40.506517" lon="-5.214533">
        <ele>1869.0</ele>
        <time>2018-07-28T13:12:30Z</time>
      </trkpt>
      <trkpt lat="40.506617" lon="-5.214500">
        <ele>1867.0</ele>
        <time>2018-07-28T13:12:31Z</time>
      </trkpt>
      <trkpt lat="40.506733" lon="-5.214450">
        <ele>1864.0</ele>
        <time>2018-07-28T13:12:32Z</time>
      </trkpt>
      <trkpt lat="40.506833" lon="-5.214400">
        <ele>1861.0</ele>
        <time>2018-07-28T13:12:33Z</time>
      </trkpt>
      <trkpt lat="40.506950" lon="-5.214367">
        <ele>1859.0</ele>
        <time>2018-07-28T13:12:34Z</time>
      </trkpt>
      <trkpt lat="40.507067" lon="-5.214317">
        <ele>1858.0</ele>
        <time>2018-07-28T13:12:35Z</time>
      </trkpt>
      <trkpt lat="40.507183" lon="-5.214267">
        <ele>1857.0</ele>
        <time>2018-07-28T13:12:36Z</time>
      </trkpt>
      <trkpt lat="40.507283" lon="-5.214217">
        <ele>1858.0</ele>
        <time>2018-07-28T13:12:37Z</time>
      </trkpt>
      <trkpt lat="40.507367" lon="-5.214167">
        <ele>1859.0</ele>
        <time>2018-07-28T13:12:38Z</time>
      </trkpt>
      <trkpt lat="40.507467" lon="-5.214133">
        <ele>1861.0</ele>
        <time>2018-07-28T13:12:39Z</time>
      </trkpt>
      <trkpt lat="40.507567" lon="-5.214100">
        <ele>1861.0</ele>
        <time>2018-07-28T13:12:40Z</time>
      </trkpt>
      <trkpt lat="40.507667" lon="-5.214083">
        <ele>1862.0</ele>
        <time>2018-07-28T13:12:41Z</time>
      </trkpt>
      <trkpt lat="40.507767" lon="-5.214067">
        <ele>1863.0</ele>
        <time>2018-07-28T13:12:42Z</time>
      </trkpt>
      <trkpt lat="40.507867" lon="-5.214050">
        <ele>1864.0</ele>
        <time>2018-07-28T13:12:43Z</time>
      </trkpt>
      <trkpt lat="40.507983" lon="-5.214033">
        <ele>1864.0</ele>
        <time>2018-07-28T13:12:44Z</time>
      </trkpt>
      <trkpt lat="40.508083" lon="-5.214000">
        <ele>1864.0</ele>
        <time>2018-07-28T13:12:45Z</time>
      </trkpt>
      <trkpt lat="40.508200" lon="-5.213933">
        <ele>1864.0</ele>
        <time>2018-07-28T13:12:46Z</time>
      </trkpt>
      <trkpt lat="40.508283" lon="-5.213867">
        <ele>1864.0</ele>
        <time>2018-07-28T13:12:47Z</time>
      </trkpt>
      <trkpt lat="40.508367" lon="-5.213767">
        <ele>1864.0</ele>
        <time>2018-07-28T13:12:48Z</time>
      </trkpt>
      <trkpt lat="40.508450" lon="-5.213667">
        <ele>1864.0</ele>
        <time>2018-07-28T13:12:49Z</time>
      </trkpt>
      <trkpt lat="40.508500" lon="-5.213567">
        <ele>1863.0</ele>
        <time>2018-07-28T13:12:50Z</time>
      </trkpt>
      <trkpt lat="40.508567" lon="-5.213450">
        <ele>1861.0</ele>
        <time>2018-07-28T13:12:51Z</time>
      </trkpt>
      <trkpt lat="40.508633" lon="-5.213350">
        <ele>1859.0</ele>
        <time>2018-07-28T13:12:52Z</time>
      </trkpt>
      <trkpt lat="40.508700" lon="-5.213233">
        <ele>1858.0</ele>
        <time>2018-07-28T13:12:53Z</time>
      </trkpt>
      <trkpt lat="40.508783" lon="-5.213133">
        <ele>1856.0</ele>
        <time>2018-07-28T13:12:54Z</time>
      </trkpt>
      <trkpt lat="40.508883" lon="-5.213050">
        <ele>1854.0</ele>
        <time>2018-07-28T13:12:55Z</time>
      </trkpt>
      <trkpt lat="40.508967" lon="-5.212967">
        <ele>1852.0</ele>
        <time>2018-07-28T13:12:56Z</time>
      </trkpt>
      <trkpt lat="40.509067" lon="-5.212883">
        <ele>1850.0</ele>
        <time>2018-07-28T13:12:57Z</time>
      </trkpt>
      <trkpt lat="40.509167" lon="-5.212817">
        <ele>1847.0</ele>
        <time>2018-07-28T13:12:58Z</time>
      </trkpt>
      <trkpt lat="40.509267" lon="-5.212750">
        <ele>1844.0</ele>
        <time>2018-07-28T13:12:59Z</time>
      </trkpt>
      <trkpt lat="40.509383" lon="-5.212667">
        <ele>1842.0</ele>
        <time>2018-07-28T13:13:00Z</time>
      </trkpt>
      <trkpt lat="40.509500" lon="-5.212567">
        <ele>1840.0</ele>
        <time>2018-07-28T13:13:01Z</time>
      </trkpt>
      <trkpt lat="40.509617" lon="-5.212483">
        <ele>1839.0</ele>
        <time>2018-07-28T13:13:02Z</time>
      </trkpt>
      <trkpt lat="40.509750" lon="-5.212417">
        <ele>1838.0</ele>
        <time>2018-07-28T13:13:03Z</time>
      </trkpt>
      <trkpt lat="40.509867" lon="-5.212333">
        <ele>1839.0</ele>
        <time>2018-07-28T13:13:04Z</time>
      </trkpt>
      <trkpt lat="40.509983" lon="-5.212267">
        <ele>1839.0</ele>
        <time>2018-07-28T13:13:05Z</time>
      </trkpt>
      <trkpt lat="40.510083" lon="-5.212200">
        <ele>1840.0</ele>
        <time>2018-07-28T13:13:06Z</time>
      </trkpt>
      <trkpt lat="40.510183" lon="-5.212167">
        <ele>1841.0</ele>
        <time>2018-07-28T13:13:07Z</time>
      </trkpt>
      <trkpt lat="40.510283" lon="-5.212133">
        <ele>1841.0</ele>
        <time>2018-07-28T13:13:08Z</time>
      </trkpt>
      <trkpt lat="40.510400" lon="-5.212100">
        <ele>1841.0</ele>
        <time>2018-07-28T13:13:09Z</time>
      </trkpt>
      <trkpt lat="40.510500" lon="-5.212067">
        <ele>1841.0</ele>
        <time>2018-07-28T13:13:10Z</time>
      </trkpt>
      <trkpt lat="40.510583" lon="-5.212033">
        <ele>1841.0</ele>
        <time>2018-07-28T13:13:11Z</time>
      </trkpt>
      <trkpt lat="40.510683" lon="-5.212017">
        <ele>1839.0</ele>
        <time>2018-07-28T13:13:12Z</time>
      </trkpt>
      <trkpt lat="40.510800" lon="-5.212000">
        <ele>1836.0</ele>
        <time>2018-07-28T13:13:13Z</time>
      </trkpt>
      <trkpt lat="40.510917" lon="-5.211983">
        <ele>1833.0</ele>
        <time>2018-07-28T13:13:14Z</time>
      </trkpt>
      <trkpt lat="40.511033" lon="-5.211950">
        <ele>1831.0</ele>
        <time>2018-07-28T13:13:15Z</time>
      </trkpt>
      <trkpt lat="40.511133" lon="-5.211900">
        <ele>1830.0</ele>
        <time>2018-07-28T13:13:16Z</time>
      </trkpt>
      <trkpt lat="40.511217" lon="-5.211850">
        <ele>1829.0</ele>
        <time>2018-07-28T13:13:17Z</time>
      </trkpt>
      <trkpt lat="40.511300" lon="-5.211800">
        <ele>1828.0</ele>
        <time>2018-07-28T13:13:18Z</time>
      </trkpt>
      <trkpt lat="40.511383" lon="-5.211733">
        <ele>1825.0</ele>
        <time>2018-07-28T13:13:19Z</time>
      </trkpt>
      <trkpt lat="40.511467" lon="-5.211650">
        <ele>1821.0</ele>
        <time>2018-07-28T13:13:20Z</time>
      </trkpt>
      <trkpt lat="40.511550" lon="-5.211550">
        <ele>1818.0</ele>
        <time>2018-07-28T13:13:21Z</time>
      </trkpt>
      <trkpt lat="40.511633" lon="-5.211467">
        <ele>1815.0</ele>
        <time>2018-07-28T13:13:22Z</time>
      </trkpt>
      <trkpt lat="40.511733" lon="-5.211400">
        <ele>1813.0</ele>
        <time>2018-07-28T13:13:23Z</time>
      </trkpt>
      <trkpt lat="40.511817" lon="-5.211317">
        <ele>1810.0</ele>
        <time>2018-07-28T13:13:24Z</time>
      </trkpt>
      <trkpt lat="40.511900" lon="-5.211233">
        <ele>1806.0</ele>
        <time>2018-07-28T13:13:25Z</time>
      </trkpt>
      <trkpt lat="40.511983" lon="-5.211117">
        <ele>1802.0</ele>
        <time>2018-07-28T13:13:26Z</time>
      </trkpt>
      <trkpt lat="40.512083" lon="-5.211000">
        <ele>1798.0</ele>
        <time>2018-07-28T13:13:27Z</time>
      </trkpt>
      <trkpt lat="40.512183" lon="-5.210900">
        <ele>1795.0</ele>
        <time>2018-07-28T13:13:28Z</time>
      </trkpt>
      <trkpt lat="40.512283" lon="-5.210800">
        <ele>1794.0</ele>
        <time>2018-07-28T13:13:29Z</time>
      </trkpt>
      <trkpt lat="40.512367" lon="-5.210717">
        <ele>1792.0</ele>
        <time>2018-07-28T13:13:30Z</time>
      </trkpt>
      <trkpt lat="40.512467" lon="-5.210617">
        <ele>1790.0</ele>
        <time>2018-07-28T13:13:31Z</time>
      </trkpt>
      <trkpt lat="40.512550" lon="-5.210550">
        <ele>1788.0</ele>
        <time>2018-07-28T13:13:32Z</time>
      </trkpt>
      <trkpt lat="40.512650" lon="-5.210467">
        <ele>1785.0</ele>
        <time>2018-07-28T13:13:33Z</time>
      </trkpt>
      <trkpt lat="40.512750" lon="-5.210400">
        <ele>1781.0</ele>
        <time>2018-07-28T13:13:34Z</time>
      </trkpt>
      <trkpt lat="40.512850" lon="-5.210333">
        <ele>1778.0</ele>
        <time>2018-07-28T13:13:35Z</time>
      </trkpt>
      <trkpt lat="40.512933" lon="-5.210233">
        <ele>1775.0</ele>
        <time>2018-07-28T13:13:36Z</time>
      </trkpt>
      <trkpt lat="40.513017" lon="-5.210117">
        <ele>1772.0</ele>
        <time>2018-07-28T13:13:37Z</time>
      </trkpt>
      <trkpt lat="40.513083" lon="-5.209983">
        <ele>1768.0</ele>
        <time>2018-07-28T13:13:38Z</time>
      </trkpt>
      <trkpt lat="40.513117" lon="-5.209833">
        <ele>1765.0</ele>
        <time>2018-07-28T13:13:39Z</time>
      </trkpt>
      <trkpt lat="40.513133" lon="-5.209667">
        <ele>1761.0</ele>
        <time>2018-07-28T13:13:40Z</time>
      </trkpt>
      <trkpt lat="40.513117" lon="-5.209517">
        <ele>1757.0</ele>
        <time>2018-07-28T13:13:41Z</time>
      </trkpt>
      <trkpt lat="40.513067" lon="-5.209367">
        <ele>1753.0</ele>
        <time>2018-07-28T13:13:42Z</time>
      </trkpt>
      <trkpt lat="40.513000" lon="-5.209250">
        <ele>1749.0</ele>
        <time>2018-07-28T13:13:43Z</time>
      </trkpt>
      <trkpt lat="40.512917" lon="-5.209150">
        <ele>1746.0</ele>
        <time>2018-07-28T13:13:44Z</time>
      </trkpt>
      <trkpt lat="40.512817" lon="-5.209117">
        <ele>1743.0</ele>
        <time>2018-07-28T13:13:45Z</time>
      </trkpt>
      <trkpt lat="40.512717" lon="-5.209100">
        <ele>1740.0</ele>
        <time>2018-07-28T13:13:46Z</time>
      </trkpt>
      <trkpt lat="40.512633" lon="-5.209117">
        <ele>1738.0</ele>
        <time>2018-07-28T13:13:47Z</time>
      </trkpt>
      <trkpt lat="40.512550" lon="-5.209133">
        <ele>1736.0</ele>
        <time>2018-07-28T13:13:48Z</time>
      </trkpt>
      <trkpt lat="40.512467" lon="-5.209150">
        <ele>1733.0</ele>
        <time>2018-07-28T13:13:49Z</time>
      </trkpt>
      <trkpt lat="40.512383" lon="-5.209167">
        <ele>1730.0</ele>
        <time>2018-07-28T13:13:50Z</time>
      </trkpt>
      <trkpt lat="40.512300" lon="-5.209183">
        <ele>1726.0</ele>
        <time>2018-07-28T13:13:51Z</time>
      </trkpt>
      <trkpt lat="40.512217" lon="-5.209217">
        <ele>1723.0</ele>
        <time>2018-07-28T13:13:52Z</time>
      </trkpt>
      <trkpt lat="40.512133" lon="-5.209267">
        <ele>1721.0</ele>
        <time>2018-07-28T13:13:53Z</time>
      </trkpt>
      <trkpt lat="40.512050" lon="-5.209300">
        <ele>1720.0</ele>
        <time>2018-07-28T13:13:54Z</time>
      </trkpt>
      <trkpt lat="40.511967" lon="-5.209300">
        <ele>1719.0</ele>
        <time>2018-07-28T13:13:55Z</time>
      </trkpt>
      <trkpt lat="40.511883" lon="-5.209300">
        <ele>1717.0</ele>
        <time>2018-07-28T13:13:56Z</time>
      </trkpt>
      <trkpt lat="40.511800" lon="-5.209300">
        <ele>1715.0</ele>
        <time>2018-07-28T13:13:57Z</time>
      </trkpt>
      <trkpt lat="40.511717" lon="-5.209317">
        <ele>1711.0</ele>
        <time>2018-07-28T13:13:58Z</time>
      </trkpt>
      <trkpt lat="40.511633" lon="-5.209333">
        <ele>1708.0</ele>
        <time>2018-07-28T13:13:59Z</time>
      </trkpt>
      <trkpt lat="40.511550" lon="-5.209350">
        <ele>1704.0</ele>
        <time>2018-07-28T13:14:00Z</time>
      </trkpt>
      <trkpt lat="40.511450" lon="-5.209350">
        <ele>1701.0</ele>
        <time>2018-07-28T13:14:01Z</time>
      </trkpt>
      <trkpt lat="40.511367" lon="-5.209350">
        <ele>1698.0</ele>
        <time>2018-07-28T13:14:02Z</time>
      </trkpt>
      <trkpt lat="40.511267" lon="-5.209333">
        <ele>1695.0</ele>
        <time>2018-07-28T13:14:03Z</time>
      </trkpt>
      <trkpt lat="40.511167" lon="-5.209333">
        <ele>1692.0</ele>
        <time>2018-07-28T13:14:04Z</time>
      </trkpt>
      <trkpt lat="40.511083" lon="-5.209317">
        <ele>1689.0</ele>
        <time>2018-07-28T13:14:05Z</time>
      </trkpt>
      <trkpt lat="40.510983" lon="-5.209317">
        <ele>1686.0</ele>
        <time>2018-07-28T13:14:06Z</time>
      </trkpt>
      <trkpt lat="40.510883" lon="-5.209283">
        <ele>1683.0</ele>
        <time>2018-07-28T13:14:07Z</time>
      </trkpt>
      <trkpt lat="40.510767" lon="-5.209283">
        <ele>1680.0</ele>
        <time>2018-07-28T13:14:08Z</time>
      </trkpt>
      <trkpt lat="40.510667" lon="-5.209283">
        <ele>1676.0</ele>
        <time>2018-07-28T13:14:09Z</time>
      </trkpt>
      <trkpt lat="40.510550" lon="-5.209283">
        <ele>1673.0</ele>
        <time>2018-07-28T13:14:10Z</time>
      </trkpt>
      <trkpt lat="40.510450" lon="-5.209317">
        <ele>1670.0</ele>
        <time>2018-07-28T13:14:11Z</time>
      </trkpt>
      <trkpt lat="40.510333" lon="-5.209350">
        <ele>1668.0</ele>
        <time>2018-07-28T13:14:12Z</time>
      </trkpt>
      <trkpt lat="40.510250" lon="-5.209383">
        <ele>1666.0</ele>
        <time>2018-07-28T13:14:13Z</time>
      </trkpt>
      <trkpt lat="40.510150" lon="-5.209433">
        <ele>1663.0</ele>
        <time>2018-07-28T13:14:14Z</time>
      </trkpt>
      <trkpt lat="40.510067" lon="-5.209483">
        <ele>1660.0</ele>
        <time>2018-07-28T13:14:15Z</time>
      </trkpt>
      <trkpt lat="40.509967" lon="-5.209550">
        <ele>1658.0</ele>
        <time>2018-07-28T13:14:16Z</time>
      </trkpt>
      <trkpt lat="40.509867" lon="-5.209617">
        <ele>1657.0</ele>
        <time>2018-07-28T13:14:17Z</time>
      </trkpt>
      <trkpt lat="40.509783" lon="-5.209650">
        <ele>1657.0</ele>
        <time>2018-07-28T13:14:18Z</time>
      </trkpt>
      <trkpt lat="40.509683" lon="-5.209650">
        <ele>1656.0</ele>
        <time>2018-07-28T13:14:19Z</time>
      </trkpt>
      <trkpt lat="40.509617" lon="-5.209667">
        <ele>1656.0</ele>
        <time>2018-07-28T13:14:20Z</time>
      </trkpt>
      <trkpt lat="40.509533" lon="-5.209683">
        <ele>1654.0</ele>
        <time>2018-07-28T13:14:21Z</time>
      </trkpt>
      <trkpt lat="40.509450" lon="-5.209700">
        <ele>1652.0</ele>
        <time>2018-07-28T13:14:22Z</time>
      </trkpt>
      <trkpt lat="40.509367" lon="-5.209750">
        <ele>1650.0</ele>
        <time>2018-07-28T13:14:23Z</time>
      </trkpt>
      <trkpt lat="40.509283" lon="-5.209783">
        <ele>1650.0</ele>
        <time>2018-07-28T13:14:24Z</time>
      </trkpt>
      <trkpt lat="40.509183" lon="-5.209817">
        <ele>1650.0</ele>
        <time>2018-07-28T13:14:25Z</time>
      </trkpt>
      <trkpt lat="40.509100" lon="-5.209850">
        <ele>1651.0</ele>
        <time>2018-07-28T13:14:26Z</time>
      </trkpt>
      <trkpt lat="40.509033" lon="-5.209850">
        <ele>1652.0</ele>
        <time>2018-07-28T13:14:27Z</time>
      </trkpt>
      <trkpt lat="40.508950" lon="-5.209850">
        <ele>1651.0</ele>
        <time>2018-07-28T13:14:28Z</time>
      </trkpt>
      <trkpt lat="40.508883" lon="-5.209867">
        <ele>1649.0</ele>
        <time>2018-07-28T13:14:29Z</time>
      </trkpt>
      <trkpt lat="40.508800" lon="-5.209867">
        <ele>1647.0</ele>
        <time>2018-07-28T13:14:30Z</time>
      </trkpt>
      <trkpt lat="40.508717" lon="-5.209883">
        <ele>1645.0</ele>
        <time>2018-07-28T13:14:31Z</time>
      </trkpt>
      <trkpt lat="40.508633" lon="-5.209900">
        <ele>1644.0</ele>
        <time>2018-07-28T13:14:32Z</time>
      </trkpt>
      <trkpt lat="40.508550" lon="-5.209917">
        <ele>1644.0</ele>
        <time>2018-07-28T13:14:33Z</time>
      </trkpt>
      <trkpt lat="40.508467" lon="-5.209950">
        <ele>1644.0</ele>
        <time>2018-07-28T13:14:34Z</time>
      </trkpt>
      <trkpt lat="40.508400" lon="-5.210000">
        <ele>1645.0</ele>
        <time>2018-07-28T13:14:35Z</time>
      </trkpt>
      <trkpt lat="40.508350" lon="-5.210050">
        <ele>1646.0</ele>
        <time>2018-07-28T13:14:36Z</time>
      </trkpt>
      <trkpt lat="40.508300" lon="-5.210100">
        <ele>1647.0</ele>
        <time>2018-07-28T13:14:37Z</time>
      </trkpt>
      <trkpt lat="40.508250" lon="-5.210150">
        <ele>1648.0</ele>
        <time>2018-07-28T13:14:38Z</time>
      </trkpt>
      <trkpt lat="40.508200" lon="-5.210183">
        <ele>1649.0</ele>
        <time>2018-07-28T13:14:39Z</time>
      </trkpt>
      <trkpt lat="40.508150" lon="-5.210217">
        <ele>1649.0</ele>
        <time>2018-07-28T13:14:40Z</time>
      </trkpt>
      <trkpt lat="40.508100" lon="-5.210233">
        <ele>1650.0</ele>
        <time>2018-07-28T13:14:41Z</time>
      </trkpt>
      <trkpt lat="40.508050" lon="-5.210267">
        <ele>1650.0</ele>
        <time>2018-07-28T13:14:42Z</time>
      </trkpt>
      <trkpt lat="40.508017" lon="-5.210317">
        <ele>1649.0</ele>
        <time>2018-07-28T13:14:43Z</time>
      </trkpt>
      <trkpt lat="40.508000" lon="-5.210383">
        <ele>1648.0</ele>
        <time>2018-07-28T13:14:44Z</time>
      </trkpt>
      <trkpt lat="40.508017" lon="-5.210467">
        <ele>1647.0</ele>
        <time>2018-07-28T13:14:45Z</time>
      </trkpt>
      <trkpt lat="40.508033" lon="-5.210550">
        <ele>1647.0</ele>
        <time>2018-07-28T13:14:46Z</time>
      </trkpt>
      <trkpt lat="40.508067" lon="-5.210633">
        <ele>1648.0</ele>
        <time>2018-07-28T13:14:47Z</time>
      </trkpt>
      <trkpt lat="40.508100" lon="-5.210700">
        <ele>1648.0</ele>
        <time>2018-07-28T13:14:48Z</time>
      </trkpt>
      <trkpt lat="40.508150" lon="-5.210767">
        <ele>1648.0</ele>
        <time>2018-07-28T13:14:49Z</time>
      </trkpt>
      <trkpt lat="40.508217" lon="-5.210817">
        <ele>1647.0</ele>
        <time>2018-07-28T13:14:50Z</time>
      </trkpt>
      <trkpt lat="40.508300" lon="-5.210867">
        <ele>1645.0</ele>
        <time>2018-07-28T13:14:51Z</time>
      </trkpt>
      <trkpt lat="40.508383" lon="-5.210883">
        <ele>1644.0</ele>
        <time>2018-07-28T13:14:52Z</time>
      </trkpt>
      <trkpt lat="40.508483" lon="-5.210883">
        <ele>1642.0</ele>
        <time>2018-07-28T13:14:53Z</time>
      </trkpt>
      <trkpt lat="40.508583" lon="-5.210883">
        <ele>1641.0</ele>
        <time>2018-07-28T13:14:54Z</time>
      </trkpt>
      <trkpt lat="40.508683" lon="-5.210850">
        <ele>1640.0</ele>
        <time>2018-07-28T13:14:55Z</time>
      </trkpt>
      <trkpt lat="40.508767" lon="-5.210767">
        <ele>1640.0</ele>
        <time>2018-07-28T13:14:56Z</time>
      </trkpt>
      <trkpt lat="40.508850" lon="-5.210667">
        <ele>1637.0</ele>
        <time>2018-07-28T13:14:57Z</time>
      </trkpt>
      <trkpt lat="40.508917" lon="-5.210517">
        <ele>1635.0</ele>
        <time>2018-07-28T13:14:58Z</time>
      </trkpt>
      <trkpt lat="40.508950" lon="-5.210367">
        <ele>1633.0</ele>
        <time>2018-07-28T13:14:59Z</time>
      </trkpt>
      <trkpt lat="40.508950" lon="-5.210200">
        <ele>1631.0</ele>
        <time>2018-07-28T13:15:00Z</time>
      </trkpt>
      <trkpt lat="40.508917" lon="-5.210033">
        <ele>1629.0</ele>
        <time>2018-07-28T13:15:01Z</time>
      </trkpt>
      <trkpt lat="40.508867" lon="-5.209883">
        <ele>1626.0</ele>
        <time>2018-07-28T13:15:02Z</time>
      </trkpt>
      <trkpt lat="40.508783" lon="-5.209717">
        <ele>1624.0</ele>
        <time>2018-07-28T13:15:03Z</time>
      </trkpt>
      <trkpt lat="40.508717" lon="-5.209567">
        <ele>1624.0</ele>
        <time>2018-07-28T13:15:04Z</time>
      </trkpt>
      <trkpt lat="40.508650" lon="-5.209433">
        <ele>1624.0</ele>
        <time>2018-07-28T13:15:05Z</time>
      </trkpt>
      <trkpt lat="40.508583" lon="-5.209300">
        <ele>1625.0</ele>
        <time>2018-07-28T13:15:06Z</time>
      </trkpt>
      <trkpt lat="40.508533" lon="-5.209183">
        <ele>1625.0</ele>
        <time>2018-07-28T13:15:07Z</time>
      </trkpt>
      <trkpt lat="40.508467" lon="-5.209083">
        <ele>1624.0</ele>
        <time>2018-07-28T13:15:08Z</time>
      </trkpt>
      <trkpt lat="40.508400" lon="-5.208967">
        <ele>1623.0</ele>
        <time>2018-07-28T13:15:09Z</time>
      </trkpt>
      <trkpt lat="40.508317" lon="-5.208833">
        <ele>1622.0</ele>
        <time>2018-07-28T13:15:10Z</time>
      </trkpt>
      <trkpt lat="40.508250" lon="-5.208717">
        <ele>1621.0</ele>
        <time>2018-07-28T13:15:11Z</time>
      </trkpt>
      <trkpt lat="40.508167" lon="-5.208583">
        <ele>1622.0</ele>
        <time>2018-07-28T13:15:12Z</time>
      </trkpt>
      <trkpt lat="40.508100" lon="-5.208467">
        <ele>1623.0</ele>
        <time>2018-07-28T13:15:13Z</time>
      </trkpt>
      <trkpt lat="40.508033" lon="-5.208333">
        <ele>1624.0</ele>
        <time>2018-07-28T13:15:14Z</time>
      </trkpt>
      <trkpt lat="40.507967" lon="-5.208217">
        <ele>1624.0</ele>
        <time>2018-07-28T13:15:15Z</time>
      </trkpt>
      <trkpt lat="40.507917" lon="-5.208083">
        <ele>1624.0</ele>
        <time>2018-07-28T13:15:16Z</time>
      </trkpt>
      <trkpt lat="40.507850" lon="-5.207950">
        <ele>1623.0</ele>
        <time>2018-07-28T13:15:17Z</time>
      </trkpt>
      <trkpt lat="40.507767" lon="-5.207817">
        <ele>1621.0</ele>
        <time>2018-07-28T13:15:18Z</time>
      </trkpt>
      <trkpt lat="40.507700" lon="-5.207700">
        <ele>1620.0</ele>
        <time>2018-07-28T13:15:19Z</time>
      </trkpt>
      <trkpt lat="40.507617" lon="-5.207567">
        <ele>1620.0</ele>
        <time>2018-07-28T13:15:20Z</time>
      </trkpt>
      <trkpt lat="40.507567" lon="-5.207433">
        <ele>1620.0</ele>
        <time>2018-07-28T13:15:21Z</time>
      </trkpt>
      <trkpt lat="40.507500" lon="-5.207300">
        <ele>1619.0</ele>
        <time>2018-07-28T13:15:22Z</time>
      </trkpt>
      <trkpt lat="40.507450" lon="-5.207183">
        <ele>1618.0</ele>
        <time>2018-07-28T13:15:23Z</time>
      </trkpt>
      <trkpt lat="40.507383" lon="-5.207050">
        <ele>1617.0</ele>
        <time>2018-07-28T13:15:24Z</time>
      </trkpt>
      <trkpt lat="40.507350" lon="-5.206900">
        <ele>1615.0</ele>
        <time>2018-07-28T13:15:25Z</time>
      </trkpt>
      <trkpt lat="40.507300" lon="-5.206733">
        <ele>1614.0</ele>
        <time>2018-07-28T13:15:26Z</time>
      </trkpt>
      <trkpt lat="40.507283" lon="-5.206567">
        <ele>1615.0</ele>
        <time>2018-07-28T13:15:27Z</time>
      </trkpt>
      <trkpt lat="40.507250" lon="-5.206400">
        <ele>1616.0</ele>
        <time>2018-07-28T13:15:28Z</time>
      </trkpt>
      <trkpt lat="40.507233" lon="-5.206267">
        <ele>1619.0</ele>
        <time>2018-07-28T13:15:29Z</time>
      </trkpt>
      <trkpt lat="40.507200" lon="-5.206150">
        <ele>1619.0</ele>
        <time>2018-07-28T13:15:30Z</time>
      </trkpt>
      <trkpt lat="40.507167" lon="-5.206050">
        <ele>1619.0</ele>
        <time>2018-07-28T13:15:31Z</time>
      </trkpt>
      <trkpt lat="40.507117" lon="-5.205933">
        <ele>1617.0</ele>
        <time>2018-07-28T13:15:32Z</time>
      </trkpt>
      <trkpt lat="40.507050" lon="-5.205833">
        <ele>1616.0</ele>
        <time>2018-07-28T13:15:33Z</time>
      </trkpt>
      <trkpt lat="40.506967" lon="-5.205733">
        <ele>1615.0</ele>
        <time>2018-07-28T13:15:34Z</time>
      </trkpt>
      <trkpt lat="40.506883" lon="-5.205683">
        <ele>1615.0</ele>
        <time>2018-07-28T13:15:35Z</time>
      </trkpt>
      <trkpt lat="40.506783" lon="-5.205650">
        <ele>1615.0</ele>
        <time>2018-07-28T13:15:36Z</time>
      </trkpt>
      <trkpt lat="40.506700" lon="-5.205633">
        <ele>1615.0</ele>
        <time>2018-07-28T13:15:37Z</time>
      </trkpt>
      <trkpt lat="40.506617" lon="-5.205633">
        <ele>1616.0</ele>
        <time>2018-07-28T13:15:38Z</time>
      </trkpt>
      <trkpt lat="40.506533" lon="-5.205650">
        <ele>1616.0</ele>
        <time>2018-07-28T13:15:39Z</time>
      </trkpt>
      <trkpt lat="40.506467" lon="-5.205667">
        <ele>1615.0</ele>
        <time>2018-07-28T13:15:40Z</time>
      </trkpt>
      <trkpt lat="40.506417" lon="-5.205683">
        <ele>1614.0</ele>
        <time>2018-07-28T13:15:41Z</time>
      </trkpt>
      <trkpt lat="40.506350" lon="-5.205733">
        <ele>1611.0</ele>
        <time>2018-07-28T13:15:42Z</time>
      </trkpt>
      <trkpt lat="40.506317" lon="-5.205800">
        <ele>1608.0</ele>
        <time>2018-07-28T13:15:43Z</time>
      </trkpt>
      <trkpt lat="40.506267" lon="-5.205867">
        <ele>1606.0</ele>
        <time>2018-07-28T13:15:44Z</time>
      </trkpt>
      <trkpt lat="40.506233" lon="-5.205967">
        <ele>1604.0</ele>
        <time>2018-07-28T13:15:45Z</time>
      </trkpt>
      <trkpt lat="40.506200" lon="-5.206067">
        <ele>1603.0</ele>
        <time>2018-07-28T13:15:46Z</time>
      </trkpt>
      <trkpt lat="40.506200" lon="-5.206183">
        <ele>1603.0</ele>
        <time>2018-07-28T13:15:47Z</time>
      </trkpt>
      <trkpt lat="40.506217" lon="-5.206283">
        <ele>1602.0</ele>
        <time>2018-07-28T13:15:48Z</time>
      </trkpt>
      <trkpt lat="40.506250" lon="-5.206367">
        <ele>1601.0</ele>
        <time>2018-07-28T13:15:49Z</time>
      </trkpt>
      <trkpt lat="40.506300" lon="-5.206467">
        <ele>1600.0</ele>
        <time>2018-07-28T13:15:50Z</time>
      </trkpt>
      <trkpt lat="40.506333" lon="-5.206550">
        <ele>1599.0</ele>
        <time>2018-07-28T13:15:51Z</time>
      </trkpt>
      <trkpt lat="40.506400" lon="-5.206617">
        <ele>1598.0</ele>
        <time>2018-07-28T13:15:52Z</time>
      </trkpt>
      <trkpt lat="40.506450" lon="-5.206650">
        <ele>1595.0</ele>
        <time>2018-07-28T13:15:53Z</time>
      </trkpt>
      <trkpt lat="40.506533" lon="-5.206683">
        <ele>1591.0</ele>
        <time>2018-07-28T13:15:54Z</time>
      </trkpt>
      <trkpt lat="40.506633" lon="-5.206717">
        <ele>1587.0</ele>
        <time>2018-07-28T13:15:55Z</time>
      </trkpt>
      <trkpt lat="40.506733" lon="-5.206783">
        <ele>1582.0</ele>
        <time>2018-07-28T13:15:56Z</time>
      </trkpt>
      <trkpt lat="40.506833" lon="-5.206850">
        <ele>1579.0</ele>
        <time>2018-07-28T13:15:57Z</time>
      </trkpt>
      <trkpt lat="40.506917" lon="-5.206917">
        <ele>1576.0</ele>
        <time>2018-07-28T13:15:58Z</time>
      </trkpt>
      <trkpt lat="40.507000" lon="-5.206967">
        <ele>1574.0</ele>
        <time>2018-07-28T13:15:59Z</time>
      </trkpt>
      <trkpt lat="40.507067" lon="-5.207017">
        <ele>1571.0</ele>
        <time>2018-07-28T13:16:00Z</time>
      </trkpt>
      <trkpt lat="40.507150" lon="-5.207083">
        <ele>1567.0</ele>
        <time>2018-07-28T13:16:01Z</time>
      </trkpt>
      <trkpt lat="40.507217" lon="-5.207133">
        <ele>1563.0</ele>
        <time>2018-07-28T13:16:02Z</time>
      </trkpt>
      <trkpt lat="40.507283" lon="-5.207200">
        <ele>1560.0</ele>
        <time>2018-07-28T13:16:03Z</time>
      </trkpt>
      <trkpt lat="40.507350" lon="-5.207267">
        <ele>1558.0</ele>
        <time>2018-07-28T13:16:04Z</time>
      </trkpt>
      <trkpt lat="40.507417" lon="-5.207317">
        <ele>1557.0</ele>
        <time>2018-07-28T13:16:05Z</time>
      </trkpt>
      <trkpt lat="40.507467" lon="-5.207367">
        <ele>1557.0</ele>
        <time>2018-07-28T13:16:06Z</time>
      </trkpt>
      <trkpt lat="40.507533" lon="-5.207433">
        <ele>1555.0</ele>
        <time>2018-07-28T13:16:07Z</time>
      </trkpt>
      <trkpt lat="40.507583" lon="-5.207483">
        <ele>1554.0</ele>
        <time>2018-07-28T13:16:08Z</time>
      </trkpt>
      <trkpt lat="40.507633" lon="-5.207550">
        <ele>1552.0</ele>
        <time>2018-07-28T13:16:09Z</time>
      </trkpt>
      <trkpt lat="40.507683" lon="-5.207617">
        <ele>1551.0</ele>
        <time>2018-07-28T13:16:10Z</time>
      </trkpt>
      <trkpt lat="40.507733" lon="-5.207683">
        <ele>1551.0</ele>
        <time>2018-07-28T13:16:11Z</time>
      </trkpt>
      <trkpt lat="40.507783" lon="-5.207750">
        <ele>1550.0</ele>
        <time>2018-07-28T13:16:12Z</time>
      </trkpt>
      <trkpt lat="40.507850" lon="-5.207783">
        <ele>1549.0</ele>
        <time>2018-07-28T13:16:13Z</time>
      </trkpt>
      <trkpt lat="40.507900" lon="-5.207833">
        <ele>1548.0</ele>
        <time>2018-07-28T13:16:14Z</time>
      </trkpt>
      <trkpt lat="40.507950" lon="-5.207883">
        <ele>1546.0</ele>
        <time>2018-07-28T13:16:15Z</time>
      </trkpt>
      <trkpt lat="40.508000" lon="-5.207933">
        <ele>1545.0</ele>
        <time>2018-07-28T13:16:16Z</time>
      </trkpt>
      <trkpt lat="40.508050" lon="-5.207983">
        <ele>1543.0</ele>
        <time>2018-07-28T13:16:17Z</time>
      </trkpt>
      <trkpt lat="40.508100" lon="-5.208017">
        <ele>1541.0</ele>
        <time>2018-07-28T13:16:18Z</time>
      </trkpt>
      <trkpt lat="40.508150" lon="-5.208067">
        <ele>1539.0</ele>
        <time>2018-07-28T13:16:19Z</time>
      </trkpt>
      <trkpt lat="40.508200" lon="-5.208100">
        <ele>1538.0</ele>
        <time>2018-07-28T13:16:20Z</time>
      </trkpt>
      <trkpt lat="40.508250" lon="-5.208133">
        <ele>1536.0</ele>
        <time>2018-07-28T13:16:21Z</time>
      </trkpt>
      <trkpt lat="40.508283" lon="-5.208183">
        <ele>1534.0</ele>
        <time>2018-07-28T13:16:22Z</time>
      </trkpt>
      <trkpt lat="40.508317" lon="-5.208250">
        <ele>1532.0</ele>
        <time>2018-07-28T13:16:23Z</time>
      </trkpt>
      <trkpt lat="40.508367" lon="-5.208300">
        <ele>1530.0</ele>
        <time>2018-07-28T13:16:24Z</time>
      </trkpt>
      <trkpt lat="40.508433" lon="-5.208367">
        <ele>1529.0</ele>
        <time>2018-07-28T13:16:25Z</time>
      </trkpt>
      <trkpt lat="40.508500" lon="-5.208433">
        <ele>1528.0</ele>
        <time>2018-07-28T13:16:26Z</time>
      </trkpt>
      <trkpt lat="40.508550" lon="-5.208533">
        <ele>1528.0</ele>
        <time>2018-07-28T13:16:27Z</time>
      </trkpt>
      <trkpt lat="40.508583" lon="-5.208633">
        <ele>1528.0</ele>
        <time>2018-07-28T13:16:28Z</time>
      </trkpt>
      <trkpt lat="40.508617" lon="-5.208717">
        <ele>1530.0</ele>
        <time>2018-07-28T13:16:29Z</time>
      </trkpt>
      <trkpt lat="40.508667" lon="-5.208800">
        <ele>1532.0</ele>
        <time>2018-07-28T13:16:30Z</time>
      </trkpt>
      <trkpt lat="40.508717" lon="-5.208867">
        <ele>1532.0</ele>
        <time>2018-07-28T13:16:31Z</time>
      </trkpt>
      <trkpt lat="40.508750" lon="-5.208933">
        <ele>1532.0</ele>
        <time>2018-07-28T13:16:32Z</time>
      </trkpt>
      <trkpt lat="40.508783" lon="-5.209000">
        <ele>1531.0</ele>
        <time>2018-07-28T13:16:33Z</time>
      </trkpt>
      <trkpt lat="40.508833" lon="-5.209067">
        <ele>1530.0</ele>
        <time>2018-07-28T13:16:34Z</time>
      </trkpt>
      <trkpt lat="40.508900" lon="-5.209133">
        <ele>1529.0</ele>
        <time>2018-07-28T13:16:35Z</time>
      </trkpt>
      <trkpt lat="40.508983" lon="-5.209183">
        <ele>1528.0</ele>
        <time>2018-07-28T13:16:36Z</time>
      </trkpt>
      <trkpt lat="40.509083" lon="-5.209233">
        <ele>1528.0</ele>
        <time>2018-07-28T13:16:37Z</time>
      </trkpt>
      <trkpt lat="40.509167" lon="-5.209250">
        <ele>1529.0</ele>
        <time>2018-07-28T13:16:38Z</time>
      </trkpt>
      <trkpt lat="40.509250" lon="-5.209283">
        <ele>1528.0</ele>
        <time>2018-07-28T13:16:39Z</time>
      </trkpt>
      <trkpt lat="40.509317" lon="-5.209333">
        <ele>1527.0</ele>
        <time>2018-07-28T13:16:40Z</time>
      </trkpt>
      <trkpt lat="40.509383" lon="-5.209367">
        <ele>1526.0</ele>
        <time>2018-07-28T13:16:41Z</time>
      </trkpt>
      <trkpt lat="40.509450" lon="-5.209417">
        <ele>1524.0</ele>
        <time>2018-07-28T13:16:42Z</time>
      </trkpt>
      <trkpt lat="40.509533" lon="-5.209467">
        <ele>1523.0</ele>
        <time>2018-07-28T13:16:43Z</time>
      </trkpt>
      <trkpt lat="40.509617" lon="-5.209500">
        <ele>1521.0</ele>
        <time>2018-07-28T13:16:44Z</time>
      </trkpt>
      <trkpt lat="40.509683" lon="-5.209533">
        <ele>1519.0</ele>
        <time>2018-07-28T13:16:45Z</time>
      </trkpt>
      <trkpt lat="40.509767" lon="-5.209567">
        <ele>1517.0</ele>
        <time>2018-07-28T13:16:46Z</time>
      </trkpt>
      <trkpt lat="40.509833" lon="-5.209600">
        <ele>1515.0</ele>
        <time>2018-07-28T13:16:47Z</time>
      </trkpt>
      <trkpt lat="40.509917" lon="-5.209617">
        <ele>1512.0</ele>
        <time>2018-07-28T13:16:48Z</time>
      </trkpt>
      <trkpt lat="40.510000" lon="-5.209650">
        <ele>1510.0</ele>
        <time>2018-07-28T13:16:49Z</time>
      </trkpt>
      <trkpt lat="40.510100" lon="-5.209667">
        <ele>1507.0</ele>
        <time>2018-07-28T13:16:50Z</time>
      </trkpt>
      <trkpt lat="40.510200" lon="-5.209700">
        <ele>1505.0</ele>
        <time>2018-07-28T13:16:51Z</time>
      </trkpt>
      <trkpt lat="40.510283" lon="-5.209750">
        <ele>1503.0</ele>
        <time>2018-07-28T13:16:52Z</time>
      </trkpt>
      <trkpt lat="40.510367" lon="-5.209817">
        <ele>1500.0</ele>
        <time>2018-07-28T13:16:53Z</time>
      </trkpt>
      <trkpt lat="40.510450" lon="-5.209917">
        <ele>1499.0</ele>
        <time>2018-07-28T13:16:54Z</time>
      </trkpt>
      <trkpt lat="40.510517" lon="-5.210017">
        <ele>1501.0</ele>
        <time>2018-07-28T13:16:55Z</time>
      </trkpt>
      <trkpt lat="40.510550" lon="-5.210117">
        <ele>1505.0</ele>
        <time>2018-07-28T13:16:56Z</time>
      </trkpt>
      <trkpt lat="40.510583" lon="-5.210200">
        <ele>1507.0</ele>
        <time>2018-07-28T13:16:57Z</time>
      </trkpt>
      <trkpt lat="40.510617" lon="-5.210250">
        <ele>1507.0</ele>
        <time>2018-07-28T13:16:58Z</time>
      </trkpt>
      <trkpt lat="40.510667" lon="-5.210267">
        <ele>1504.0</ele>
        <time>2018-07-28T13:16:59Z</time>
      </trkpt>
      <trkpt lat="40.510717" lon="-5.210300">
        <ele>1499.0</ele>
        <time>2018-07-28T13:17:00Z</time>
      </trkpt>
      <trkpt lat="40.510800" lon="-5.210333">
        <ele>1492.0</ele>
        <time>2018-07-28T13:17:01Z</time>
      </trkpt>
      <trkpt lat="40.510867" lon="-5.210400">
        <ele>1486.0</ele>
        <time>2018-07-28T13:17:02Z</time>
      </trkpt>
      <trkpt lat="40.510917" lon="-5.210483">
        <ele>1481.0</ele>
        <time>2018-07-28T13:17:03Z</time>
      </trkpt>
      <trkpt lat="40.510933" lon="-5.210583">
        <ele>1477.0</ele>
        <time>2018-07-28T13:17:04Z</time>
      </trkpt>
      <trkpt lat="40.510917" lon="-5.210667">
        <ele>1474.0</ele>
        <time>2018-07-28T13:17:05Z</time>
      </trkpt>
      <trkpt lat="40.510850" lon="-5.210733">
        <ele>1472.0</ele>
        <time>2018-07-28T13:17:06Z</time>
      </trkpt>
      <trkpt lat="40.510783" lon="-5.210750">
        <ele>1469.0</ele>
        <time>2018-07-28T13:17:07Z</time>
      </trkpt>
      <trkpt lat="40.510717" lon="-5.210750">
        <ele>1468.0</ele>
        <time>2018-07-28T13:17:08Z</time>
      </trkpt>
      <trkpt lat="40.510633" lon="-5.210717">
        <ele>1466.0</ele>
        <time>2018-07-28T13:17:09Z</time>
      </trkpt>
      <trkpt lat="40.510550" lon="-5.210650">
        <ele>1463.0</ele>
        <time>2018-07-28T13:17:10Z</time>
      </trkpt>
      <trkpt lat="40.510467" lon="-5.210583">
        <ele>1460.0</ele>
        <time>2018-07-28T13:17:11Z</time>
      </trkpt>
      <trkpt lat="40.510383" lon="-5.210483">
        <ele>1457.0</ele>
        <time>2018-07-28T13:17:12Z</time>
      </trkpt>
      <trkpt lat="40.510300" lon="-5.210383">
        <ele>1453.0</ele>
        <time>2018-07-28T13:17:13Z</time>
      </trkpt>
      <trkpt lat="40.510200" lon="-5.210300">
        <ele>1451.0</ele>
        <time>2018-07-28T13:17:14Z</time>
      </trkpt>
      <trkpt lat="40.510117" lon="-5.210233">
        <ele>1449.0</ele>
        <time>2018-07-28T13:17:15Z</time>
      </trkpt>
      <trkpt lat="40.510033" lon="-5.210183">
        <ele>1446.0</ele>
        <time>2018-07-28T13:17:16Z</time>
      </trkpt>
      <trkpt lat="40.509967" lon="-5.210133">
        <ele>1443.0</ele>
        <time>2018-07-28T13:17:17Z</time>
      </trkpt>
      <trkpt lat="40.509883" lon="-5.210100">
        <ele>1439.0</ele>
        <time>2018-07-28T13:17:18Z</time>
      </trkpt>
      <trkpt lat="40.509783" lon="-5.210083">
        <ele>1434.0</ele>
        <time>2018-07-28T13:17:19Z</time>
      </trkpt>
      <trkpt lat="40.509700" lon="-5.210067">
        <ele>1430.0</ele>
        <time>2018-07-28T13:17:20Z</time>
      </trkpt>
      <trkpt lat="40.509600" lon="-5.210083">
        <ele>1426.0</ele>
        <time>2018-07-28T13:17:21Z</time>
      </trkpt>
      <trkpt lat="40.509517" lon="-5.210117">
        <ele>1424.0</ele>
        <time>2018-07-28T13:17:22Z</time>
      </trkpt>
      <trkpt lat="40.509450" lon="-5.210167">
        <ele>1422.0</ele>
        <time>2018-07-28T13:17:23Z</time>
      </trkpt>
      <trkpt lat="40.509400" lon="-5.210233">
        <ele>1420.0</ele>
        <time>2018-07-28T13:17:24Z</time>
      </trkpt>
      <trkpt lat="40.509383" lon="-5.210317">
        <ele>1419.0</ele>
        <time>2018-07-28T13:17:25Z</time>
      </trkpt>
      <trkpt lat="40.509350" lon="-5.210400">
        <ele>1418.0</ele>
        <time>2018-07-28T13:17:26Z</time>
      </trkpt>
      <trkpt lat="40.509333" lon="-5.210483">
        <ele>1416.0</ele>
        <time>2018-07-28T13:17:27Z</time>
      </trkpt>
      <trkpt lat="40.509300" lon="-5.210583">
        <ele>1415.0</ele>
        <time>2018-07-28T13:17:28Z</time>
      </trkpt>
      <trkpt lat="40.509300" lon="-5.210667">
        <ele>1414.0</ele>
        <time>2018-07-28T13:17:29Z</time>
      </trkpt>
      <trkpt lat="40.509283" lon="-5.210750">
        <ele>1414.0</ele>
        <time>2018-07-28T13:17:30Z</time>
      </trkpt>
      <trkpt lat="40.509250" lon="-5.210817">
        <ele>1412.0</ele>
        <time>2018-07-28T13:17:31Z</time>
      </trkpt>
      <trkpt lat="40.509200" lon="-5.210867">
        <ele>1409.0</ele>
        <time>2018-07-28T13:17:32Z</time>
      </trkpt>
      <trkpt lat="40.509117" lon="-5.210900">
        <ele>1406.0</ele>
        <time>2018-07-28T13:17:33Z</time>
      </trkpt>
      <trkpt lat="40.509017" lon="-5.210917">
        <ele>1403.0</ele>
        <time>2018-07-28T13:17:34Z</time>
      </trkpt>
      <trkpt lat="40.508917" lon="-5.210900">
        <ele>1402.0</ele>
        <time>2018-07-28T13:17:35Z</time>
      </trkpt>
      <trkpt lat="40.508833" lon="-5.210867">
        <ele>1400.0</ele>
        <time>2018-07-28T13:17:36Z</time>
      </trkpt>
      <trkpt lat="40.508733" lon="-5.210800">
        <ele>1398.0</ele>
        <time>2018-07-28T13:17:37Z</time>
      </trkpt>
      <trkpt lat="40.508650" lon="-5.210700">
        <ele>1395.0</ele>
        <time>2018-07-28T13:17:38Z</time>
      </trkpt>
      <trkpt lat="40.508567" lon="-5.210600">
        <ele>1392.0</ele>
        <time>2018-07-28T13:17:39Z</time>
      </trkpt>
      <trkpt lat="40.508483" lon="-5.210483">
        <ele>1389.0</ele>
        <time>2018-07-28T13:17:40Z</time>
      </trkpt>
      <trkpt lat="40.508383" lon="-5.210350">
        <ele>1386.0</ele>
        <time>2018-07-28T13:17:41Z</time>
      </trkpt>
      <trkpt lat="40.508317" lon="-5.210217">
        <ele>1384.0</ele>
        <time>2018-07-28T13:17:42Z</time>
      </trkpt>
      <trkpt lat="40.508233" lon="-5.210083">
        <ele>1382.0</ele>
        <time>2018-07-28T13:17:43Z</time>
      </trkpt>
      <trkpt lat="40.508167" lon="-5.209983">
        <ele>1379.0</ele>
        <time>2018-07-28T13:17:44Z</time>
      </trkpt>
      <trkpt lat="40.508083" lon="-5.209867">
        <ele>1377.0</ele>
        <time>2018-07-28T13:17:45Z</time>
      </trkpt>
      <trkpt lat="40.508000" lon="-5.209767">
        <ele>1373.0</ele>
        <time>2018-07-28T13:17:46Z</time>
      </trkpt>
      <trkpt lat="40.507917" lon="-5.209667">
        <ele>1370.0</ele>
        <time>2018-07-28T13:17:47Z</time>
      </trkpt>
      <trkpt lat="40.507833" lon="-5.209550">
        <ele>1366.0</ele>
        <time>2018-07-28T13:17:48Z</time>
      </trkpt>
      <trkpt lat="40.507750" lon="-5.209433">
        <ele>1363.0</ele>
        <time>2018-07-28T13:17:49Z</time>
      </trkpt>
      <trkpt lat="40.507667" lon="-5.209317">
        <ele>1361.0</ele>
        <time>2018-07-28T13:17:50Z</time>
      </trkpt>
      <trkpt lat="40.507567" lon="-5.209217">
        <ele>1358.0</ele>
        <time>2018-07-28T13:17:51Z</time>
      </trkpt>
      <trkpt lat="40.507483" lon="-5.209117">
        <ele>1355.0</ele>
        <time>2018-07-28T13:17:52Z</time>
      </trkpt>
      <trkpt lat="40.507400" lon="-5.209000">
        <ele>1354.0</ele>
        <time>2018-07-28T13:17:53Z</time>
      </trkpt>
      <trkpt lat="40.507317" lon="-5.208867">
        <ele>1353.0</ele>
        <time>2018-07-28T13:17:54Z</time>
      </trkpt>
      <trkpt lat="40.507250" lon="-5.208733">
        <ele>1353.0</ele>
        <time>2018-07-28T13:17:55Z</time>
      </trkpt>
      <trkpt lat="40.507167" lon="-5.208600">
        <ele>1354.0</ele>
        <time>2018-07-28T13:17:56Z</time>
      </trkpt>
      <trkpt lat="40.507083" lon="-5.208500">
        <ele>1354.0</ele>
        <time>2018-07-28T13:17:57Z</time>
      </trkpt>
      <trkpt lat="40.507017" lon="-5.208400">
        <ele>1355.0</ele>
        <time>2018-07-28T13:17:58Z</time>
      </trkpt>
      <trkpt lat="40.506967" lon="-5.208283">
        <ele>1354.0</ele>
        <time>2018-07-28T13:17:59Z</time>
      </trkpt>
      <trkpt lat="40.506883" lon="-5.208183">
        <ele>1353.0</ele>
        <time>2018-07-28T13:18:00Z</time>
      </trkpt>
      <trkpt lat="40.506783" lon="-5.208100">
        <ele>1352.0</ele>
        <time>2018-07-28T13:18:01Z</time>
      </trkpt>
      <trkpt lat="40.506683" lon="-5.208017">
        <ele>1352.0</ele>
        <time>2018-07-28T13:18:02Z</time>
      </trkpt>
      <trkpt lat="40.506583" lon="-5.207950">
        <ele>1353.0</ele>
        <time>2018-07-28T13:18:03Z</time>
      </trkpt>
      <trkpt lat="40.506483" lon="-5.207883">
        <ele>1355.0</ele>
        <time>2018-07-28T13:18:04Z</time>
      </trkpt>
      <trkpt lat="40.506400" lon="-5.207817">
        <ele>1358.0</ele>
        <time>2018-07-28T13:18:05Z</time>
      </trkpt>
      <trkpt lat="40.506317" lon="-5.207733">
        <ele>1361.0</ele>
        <time>2018-07-28T13:18:06Z</time>
      </trkpt>
      <trkpt lat="40.506250" lon="-5.207667">
        <ele>1363.0</ele>
        <time>2018-07-28T13:18:07Z</time>
      </trkpt>
      <trkpt lat="40.506167" lon="-5.207617">
        <ele>1365.0</ele>
        <time>2018-07-28T13:18:08Z</time>
      </trkpt>
      <trkpt lat="40.506083" lon="-5.207600">
        <ele>1365.0</ele>
        <time>2018-07-28T13:18:09Z</time>
      </trkpt>
      <trkpt lat="40.506017" lon="-5.207633">
        <ele>1366.0</ele>
        <time>2018-07-28T13:18:10Z</time>
      </trkpt>
      <trkpt lat="40.505967" lon="-5.207683">
        <ele>1366.0</ele>
        <time>2018-07-28T13:18:11Z</time>
      </trkpt>
      <trkpt lat="40.505967" lon="-5.207767">
        <ele>1366.0</ele>
        <time>2018-07-28T13:18:12Z</time>
      </trkpt>
      <trkpt lat="40.505983" lon="-5.207850">
        <ele>1368.0</ele>
        <time>2018-07-28T13:18:13Z</time>
      </trkpt>
      <trkpt lat="40.506033" lon="-5.207933">
        <ele>1369.0</ele>
        <time>2018-07-28T13:18:14Z</time>
      </trkpt>
      <trkpt lat="40.506100" lon="-5.207967">
        <ele>1371.0</ele>
        <time>2018-07-28T13:18:15Z</time>
      </trkpt>
      <trkpt lat="40.506183" lon="-5.207967">
        <ele>1372.0</ele>
        <time>2018-07-28T13:18:16Z</time>
      </trkpt>
      <trkpt lat="40.506283" lon="-5.207917">
        <ele>1373.0</ele>
        <time>2018-07-28T13:18:17Z</time>
      </trkpt>
      <trkpt lat="40.506383" lon="-5.207833">
        <ele>1373.0</ele>
        <time>2018-07-28T13:18:18Z</time>
      </trkpt>
      <trkpt lat="40.506467" lon="-5.207717">
        <ele>1374.0</ele>
        <time>2018-07-28T13:18:19Z</time>
      </trkpt>
      <trkpt lat="40.506533" lon="-5.207567">
        <ele>1374.0</ele>
        <time>2018-07-28T13:18:20Z</time>
      </trkpt>
      <trkpt lat="40.506567" lon="-5.207400">
        <ele>1375.0</ele>
        <time>2018-07-28T13:18:21Z</time>
      </trkpt>
      <trkpt lat="40.506567" lon="-5.207217">
        <ele>1376.0</ele>
        <time>2018-07-28T13:18:22Z</time>
      </trkpt>
      <trkpt lat="40.506550" lon="-5.207033">
        <ele>1378.0</ele>
        <time>2018-07-28T13:18:23Z</time>
      </trkpt>
      <trkpt lat="40.506483" lon="-5.206883">
        <ele>1381.0</ele>
        <time>2018-07-28T13:18:24Z</time>
      </trkpt>
      <trkpt lat="40.506417" lon="-5.206750">
        <ele>1386.0</ele>
        <time>2018-07-28T13:18:25Z</time>
      </trkpt>
      <trkpt lat="40.506350" lon="-5.206667">
        <ele>1390.0</ele>
        <time>2018-07-28T13:18:26Z</time>
      </trkpt>
      <trkpt lat="40.506283" lon="-5.206583">
        <ele>1394.0</ele>
        <time>2018-07-28T13:18:27Z</time>
      </trkpt>
      <trkpt lat="40.506233" lon="-5.206533">
        <ele>1396.0</ele>
        <time>2018-07-28T13:18:28Z</time>
      </trkpt>
      <trkpt lat="40.506167" lon="-5.206483">
        <ele>1396.0</ele>
        <time>2018-07-28T13:18:29Z</time>
      </trkpt>
      <trkpt lat="40.506100" lon="-5.206467">
        <ele>1396.0</ele>
        <time>2018-07-28T13:18:30Z</time>
      </trkpt>
      <trkpt lat="40.506033" lon="-5.206517">
        <ele>1396.0</ele>
        <time>2018-07-28T13:18:31Z</time>
      </trkpt>
      <trkpt lat="40.505983" lon="-5.206583">
        <ele>1396.0</ele>
        <time>2018-07-28T13:18:32Z</time>
      </trkpt>
      <trkpt lat="40.505967" lon="-5.206683">
        <ele>1398.0</ele>
        <time>2018-07-28T13:18:33Z</time>
      </trkpt>
      <trkpt lat="40.506017" lon="-5.206767">
        <ele>1401.0</ele>
        <time>2018-07-28T13:18:34Z</time>
      </trkpt>
      <trkpt lat="40.506067" lon="-5.206817">
        <ele>1405.0</ele>
        <time>2018-07-28T13:18:35Z</time>
      </trkpt>
      <trkpt lat="40.506133" lon="-5.206833">
        <ele>1407.0</ele>
        <time>2018-07-28T13:18:36Z</time>
      </trkpt>
      <trkpt lat="40.506217" lon="-5.206817">
        <ele>1410.0</ele>
        <time>2018-07-28T13:18:37Z</time>
      </trkpt>
      <trkpt lat="40.506300" lon="-5.206800">
        <ele>1412.0</ele>
        <time>2018-07-28T13:18:38Z</time>
      </trkpt>
      <trkpt lat="40.506383" lon="-5.206750">
        <ele>1414.0</ele>
        <time>2018-07-28T13:18:39Z</time>
      </trkpt>
      <trkpt lat="40.506483" lon="-5.206717">
        <ele>1416.0</ele>
        <time>2018-07-28T13:18:40Z</time>
      </trkpt>
      <trkpt lat="40.506567" lon="-5.206633">
        <ele>1418.0</ele>
        <time>2018-07-28T13:18:41Z</time>
      </trkpt>
      <trkpt lat="40.506650" lon="-5.206533">
        <ele>1420.0</ele>
        <time>2018-07-28T13:18:42Z</time>
      </trkpt>
      <trkpt lat="40.506700" lon="-5.206383">
        <ele>1420.0</ele>
        <time>2018-07-28T13:18:43Z</time>
      </trkpt>
      <trkpt lat="40.506733" lon="-5.206217">
        <ele>1419.0</ele>
        <time>2018-07-28T13:18:44Z</time>
      </trkpt>
      <trkpt lat="40.506733" lon="-5.206017">
        <ele>1419.0</ele>
        <time>2018-07-28T13:18:45Z</time>
      </trkpt>
      <trkpt lat="40.506700" lon="-5.205817">
        <ele>1420.0</ele>
        <time>2018-07-28T13:18:46Z</time>
      </trkpt>
      <trkpt lat="40.506633" lon="-5.205650">
        <ele>1422.0</ele>
        <time>2018-07-28T13:18:47Z</time>
      </trkpt>
      <trkpt lat="40.506550" lon="-5.205517">
        <ele>1425.0</ele>
        <time>2018-07-28T13:18:48Z</time>
      </trkpt>
      <trkpt lat="40.506450" lon="-5.205400">
        <ele>1427.0</ele>
        <time>2018-07-28T13:18:49Z</time>
      </trkpt>
      <trkpt lat="40.506350" lon="-5.205317">
        <ele>1429.0</ele>
        <time>2018-07-28T13:18:50Z</time>
      </trkpt>
      <trkpt lat="40.506267" lon="-5.205233">
        <ele>1430.0</ele>
        <time>2018-07-28T13:18:51Z</time>
      </trkpt>
      <trkpt lat="40.506167" lon="-5.205150">
        <ele>1432.0</ele>
        <time>2018-07-28T13:18:52Z</time>
      </trkpt>
      <trkpt lat="40.506067" lon="-5.205083">
        <ele>1434.0</ele>
        <time>2018-07-28T13:18:53Z</time>
      </trkpt>
      <trkpt lat="40.505983" lon="-5.205050">
        <ele>1437.0</ele>
        <time>2018-07-28T13:18:54Z</time>
      </trkpt>
      <trkpt lat="40.505917" lon="-5.205050">
        <ele>1438.0</ele>
        <time>2018-07-28T13:18:55Z</time>
      </trkpt>
      <trkpt lat="40.505867" lon="-5.205083">
        <ele>1439.0</ele>
        <time>2018-07-28T13:18:56Z</time>
      </trkpt>
      <trkpt lat="40.505817" lon="-5.205117">
        <ele>1439.0</ele>
        <time>2018-07-28T13:18:57Z</time>
      </trkpt>
      <trkpt lat="40.505800" lon="-5.205183">
        <ele>1439.0</ele>
        <time>2018-07-28T13:18:58Z</time>
      </trkpt>
      <trkpt lat="40.505817" lon="-5.205250">
        <ele>1437.0</ele>
        <time>2018-07-28T13:18:59Z</time>
      </trkpt>
      <trkpt lat="40.505850" lon="-5.205333">
        <ele>1436.0</ele>
        <time>2018-07-28T13:19:00Z</time>
      </trkpt>
      <trkpt lat="40.505917" lon="-5.205400">
        <ele>1434.0</ele>
        <time>2018-07-28T13:19:01Z</time>
      </trkpt>
      <trkpt lat="40.506017" lon="-5.205433">
        <ele>1434.0</ele>
        <time>2018-07-28T13:19:02Z</time>
      </trkpt>
      <trkpt lat="40.506133" lon="-5.205433">
        <ele>1434.0</ele>
        <time>2018-07-28T13:19:03Z</time>
      </trkpt>
      <trkpt lat="40.506250" lon="-5.205400">
        <ele>1436.0</ele>
        <time>2018-07-28T13:19:04Z</time>
      </trkpt>
      <trkpt lat="40.506367" lon="-5.205367">
        <ele>1441.0</ele>
        <time>2018-07-28T13:19:05Z</time>
      </trkpt>
      <trkpt lat="40.506450" lon="-5.205350">
        <ele>1446.0</ele>
        <time>2018-07-28T13:19:06Z</time>
      </trkpt>
      <trkpt lat="40.506517" lon="-5.205317">
        <ele>1450.0</ele>
        <time>2018-07-28T13:19:07Z</time>
      </trkpt>
      <trkpt lat="40.506583" lon="-5.205300">
        <ele>1453.0</ele>
        <time>2018-07-28T13:19:08Z</time>
      </trkpt>
      <trkpt lat="40.506650" lon="-5.205300">
        <ele>1455.0</ele>
        <time>2018-07-28T13:19:09Z</time>
      </trkpt>
      <trkpt lat="40.506733" lon="-5.205283">
        <ele>1456.0</ele>
        <time>2018-07-28T13:19:10Z</time>
      </trkpt>
      <trkpt lat="40.506833" lon="-5.205267">
        <ele>1457.0</ele>
        <time>2018-07-28T13:19:11Z</time>
      </trkpt>
      <trkpt lat="40.506933" lon="-5.205233">
        <ele>1459.0</ele>
        <time>2018-07-28T13:19:12Z</time>
      </trkpt>
      <trkpt lat="40.507033" lon="-5.205150">
        <ele>1461.0</ele>
        <time>2018-07-28T13:19:13Z</time>
      </trkpt>
      <trkpt lat="40.507133" lon="-5.205067">
        <ele>1464.0</ele>
        <time>2018-07-28T13:19:14Z</time>
      </trkpt>
      <trkpt lat="40.507217" lon="-5.204950">
        <ele>1468.0</ele>
        <time>2018-07-28T13:19:15Z</time>
      </trkpt>
      <trkpt lat="40.507300" lon="-5.204850">
        <ele>1470.0</ele>
        <time>2018-07-28T13:19:16Z</time>
      </trkpt>
      <trkpt lat="40.507367" lon="-5.204717">
        <ele>1473.0</ele>
        <time>2018-07-28T13:19:17Z</time>
      </trkpt>
      <trkpt lat="40.507417" lon="-5.204583">
        <ele>1475.0</ele>
        <time>2018-07-28T13:19:18Z</time>
      </trkpt>
      <trkpt lat="40.507433" lon="-5.204417">
        <ele>1475.0</ele>
        <time>2018-07-28T13:19:19Z</time>
      </trkpt>
      <trkpt lat="40.507417" lon="-5.204233">
        <ele>1475.0</ele>
        <time>2018-07-28T13:19:20Z</time>
      </trkpt>
      <trkpt lat="40.507367" lon="-5.204067">
        <ele>1476.0</ele>
        <time>2018-07-28T13:19:21Z</time>
      </trkpt>
      <trkpt lat="40.507300" lon="-5.203950">
        <ele>1479.0</ele>
        <time>2018-07-28T13:19:22Z</time>
      </trkpt>
      <trkpt lat="40.507217" lon="-5.203867">
        <ele>1481.0</ele>
        <time>2018-07-28T13:19:23Z</time>
      </trkpt>
      <trkpt lat="40.507133" lon="-5.203817">
        <ele>1484.0</ele>
        <time>2018-07-28T13:19:24Z</time>
      </trkpt>
      <trkpt lat="40.507050" lon="-5.203800">
        <ele>1488.0</ele>
        <time>2018-07-28T13:19:25Z</time>
      </trkpt>
      <trkpt lat="40.506983" lon="-5.203800">
        <ele>1492.0</ele>
        <time>2018-07-28T13:19:26Z</time>
      </trkpt>
      <trkpt lat="40.506933" lon="-5.203817">
        <ele>1496.0</ele>
        <time>2018-07-28T13:19:27Z</time>
      </trkpt>
      <trkpt lat="40.506883" lon="-5.203867">
        <ele>1499.0</ele>
        <time>2018-07-28T13:19:28Z</time>
      </trkpt>
      <trkpt lat="40.506850" lon="-5.203933">
        <ele>1501.0</ele>
        <time>2018-07-28T13:19:29Z</time>
      </trkpt>
      <trkpt lat="40.506850" lon="-5.204017">
        <ele>1503.0</ele>
        <time>2018-07-28T13:19:30Z</time>
      </trkpt>
      <trkpt lat="40.506883" lon="-5.204100">
        <ele>1505.0</ele>
        <time>2018-07-28T13:19:31Z</time>
      </trkpt>
      <trkpt lat="40.506933" lon="-5.204167">
        <ele>1510.0</ele>
        <time>2018-07-28T13:19:32Z</time>
      </trkpt>
      <trkpt lat="40.506983" lon="-5.204183">
        <ele>1514.0</ele>
        <time>2018-07-28T13:19:33Z</time>
      </trkpt>
      <trkpt lat="40.507050" lon="-5.204167">
        <ele>1518.0</ele>
        <time>2018-07-28T13:19:34Z</time>
      </trkpt>
      <trkpt lat="40.507117" lon="-5.204133">
        <ele>1520.0</ele>
        <time>2018-07-28T13:19:35Z</time>
      </trkpt>
      <trkpt lat="40.507200" lon="-5.204067">
        <ele>1520.0</ele>
        <time>2018-07-28T13:19:36Z</time>
      </trkpt>
      <trkpt lat="40.507300" lon="-5.203967">
        <ele>1520.0</ele>
        <time>2018-07-28T13:19:37Z</time>
      </trkpt>
      <trkpt lat="40.507367" lon="-5.203817">
        <ele>1521.0</ele>
        <time>2018-07-28T13:19:38Z</time>
      </trkpt>
      <trkpt lat="40.507417" lon="-5.203633">
        <ele>1522.0</ele>
        <time>2018-07-28T13:19:39Z</time>
      </trkpt>
      <trkpt lat="40.507450" lon="-5.203417">
        <ele>1524.0</ele>
        <time>2018-07-28T13:19:40Z</time>
      </trkpt>
      <trkpt lat="40.507450" lon="-5.203233">
        <ele>1528.0</ele>
        <time>2018-07-28T13:19:41Z</time>
      </trkpt>
      <trkpt lat="40.507433" lon="-5.203067">
        <ele>1533.0</ele>
        <time>2018-07-28T13:19:42Z</time>
      </trkpt>
      <trkpt lat="40.507417" lon="-5.202933">
        <ele>1536.0</ele>
        <time>2018-07-28T13:19:43Z</time>
      </trkpt>
      <trkpt lat="40.507383" lon="-5.202783">
        <ele>1539.0</ele>
        <time>2018-07-28T13:19:44Z</time>
      </trkpt>
      <trkpt lat="40.507367" lon="-5.202650">
        <ele>1541.0</ele>
        <time>2018-07-28T13:19:45Z</time>
      </trkpt>
      <trkpt lat="40.507317" lon="-5.202517">
        <ele>1542.0</ele>
        <time>2018-07-28T13:19:46Z</time>
      </trkpt>
      <trkpt lat="40.507250" lon="-5.202433">
        <ele>1543.0</ele>
        <time>2018-07-28T13:19:47Z</time>
      </trkpt>
      <trkpt lat="40.507167" lon="-5.202350">
        <ele>1543.0</ele>
        <time>2018-07-28T13:19:48Z</time>
      </trkpt>
      <trkpt lat="40.507067" lon="-5.202300">
        <ele>1545.0</ele>
        <time>2018-07-28T13:19:49Z</time>
      </trkpt>
      <trkpt lat="40.506967" lon="-5.202233">
        <ele>1548.0</ele>
        <time>2018-07-28T13:19:50Z</time>
      </trkpt>
      <trkpt lat="40.506900" lon="-5.202150">
        <ele>1551.0</ele>
        <time>2018-07-28T13:19:51Z</time>
      </trkpt>
      <trkpt lat="40.506817" lon="-5.202083">
        <ele>1554.0</ele>
        <time>2018-07-28T13:19:52Z</time>
      </trkpt>
      <trkpt lat="40.506750" lon="-5.202017">
        <ele>1556.0</ele>
        <time>2018-07-28T13:19:53Z</time>
      </trkpt>
      <trkpt lat="40.506650" lon="-5.201967">
        <ele>1558.0</ele>
        <time>2018-07-28T13:19:54Z</time>
      </trkpt>
      <trkpt lat="40.506567" lon="-5.201900">
        <ele>1559.0</ele>
        <time>2018-07-28T13:19:55Z</time>
      </trkpt>
      <trkpt lat="40.506467" lon="-5.201817">
        <ele>1560.0</ele>
        <time>2018-07-28T13:19:56Z</time>
      </trkpt>
      <trkpt lat="40.506383" lon="-5.201733">
        <ele>1561.0</ele>
        <time>2018-07-28T13:19:57Z</time>
      </trkpt>
      <trkpt lat="40.506300" lon="-5.201700">
        <ele>1564.0</ele>
        <time>2018-07-28T13:19:58Z</time>
      </trkpt>
      <trkpt lat="40.506217" lon="-5.201700">
        <ele>1564.0</ele>
        <time>2018-07-28T13:19:59Z</time>
      </trkpt>
      <trkpt lat="40.506167" lon="-5.201733">
        <ele>1563.0</ele>
        <time>2018-07-28T13:20:00Z</time>
      </trkpt>
      <trkpt lat="40.506133" lon="-5.201783">
        <ele>1562.0</ele>
        <time>2018-07-28T13:20:01Z</time>
      </trkpt>
      <trkpt lat="40.506133" lon="-5.201850">
        <ele>1562.0</ele>
        <time>2018-07-28T13:20:02Z</time>
      </trkpt>
      <trkpt lat="40.506167" lon="-5.201933">
        <ele>1561.0</ele>
        <time>2018-07-28T13:20:03Z</time>
      </trkpt>
      <trkpt lat="40.506217" lon="-5.202000">
        <ele>1561.0</ele>
        <time>2018-07-28T13:20:04Z</time>
      </trkpt>
      <trkpt lat="40.506283" lon="-5.202033">
        <ele>1560.0</ele>
        <time>2018-07-28T13:20:05Z</time>
      </trkpt>
      <trkpt lat="40.506383" lon="-5.202050">
        <ele>1561.0</ele>
        <time>2018-07-28T13:20:06Z</time>
      </trkpt>
      <trkpt lat="40.506500" lon="-5.202033">
        <ele>1561.0</ele>
        <time>2018-07-28T13:20:07Z</time>
      </trkpt>
      <trkpt lat="40.506600" lon="-5.201983">
        <ele>1562.0</ele>
        <time>2018-07-28T13:20:08Z</time>
      </trkpt>
      <trkpt lat="40.506717" lon="-5.201917">
        <ele>1562.0</ele>
        <time>2018-07-28T13:20:09Z</time>
      </trkpt>
      <trkpt lat="40.506817" lon="-5.201817">
        <ele>1563.0</ele>
        <time>2018-07-28T13:20:10Z</time>
      </trkpt>
      <trkpt lat="40.506917" lon="-5.201700">
        <ele>1565.0</ele>
        <time>2018-07-28T13:20:11Z</time>
      </trkpt>
      <trkpt lat="40.507000" lon="-5.201567">
        <ele>1566.0</ele>
        <time>2018-07-28T13:20:12Z</time>
      </trkpt>
      <trkpt lat="40.507083" lon="-5.201450">
        <ele>1569.0</ele>
        <time>2018-07-28T13:20:13Z</time>
      </trkpt>
      <trkpt lat="40.507167" lon="-5.201317">
        <ele>1571.0</ele>
        <time>2018-07-28T13:20:14Z</time>
      </trkpt>
      <trkpt lat="40.507267" lon="-5.201200">
        <ele>1573.0</ele>
        <time>2018-07-28T13:20:15Z</time>
      </trkpt>
      <trkpt lat="40.507367" lon="-5.201117">
        <ele>1576.0</ele>
        <time>2018-07-28T13:20:16Z</time>
      </trkpt>
      <trkpt lat="40.507467" lon="-5.201033">
        <ele>1579.0</ele>
        <time>2018-07-28T13:20:17Z</time>
      </trkpt>
      <trkpt lat="40.507567" lon="-5.200967">
        <ele>1581.0</ele>
        <time>2018-07-28T13:20:18Z</time>
      </trkpt>
      <trkpt lat="40.507667" lon="-5.200900">
        <ele>1584.0</ele>
        <time>2018-07-28T13:20:19Z</time>
      </trkpt>
      <trkpt lat="40.507767" lon="-5.200850">
        <ele>1586.0</ele>
        <time>2018-07-28T13:20:20Z</time>
      </trkpt>
      <trkpt lat="40.507867" lon="-5.200800">
        <ele>1588.0</ele>
        <time>2018-07-28T13:20:21Z</time>
      </trkpt>
      <trkpt lat="40.507950" lon="-5.200733">
        <ele>1590.0</ele>
        <time>2018-07-28T13:20:22Z</time>
      </trkpt>
      <trkpt lat="40.508033" lon="-5.200650">
        <ele>1592.0</ele>
        <time>2018-07-28T13:20:23Z</time>
      </trkpt>
      <trkpt lat="40.508100" lon="-5.200550">
        <ele>1592.0</ele>
        <time>2018-07-28T13:20:24Z</time>
      </trkpt>
      <trkpt lat="40.508150" lon="-5.200400">
        <ele>1592.0</ele>
        <time>2018-07-28T13:20:25Z</time>
      </trkpt>
      <trkpt lat="40.508183" lon="-5.200233">
        <ele>1592.0</ele>
        <time>2018-07-28T13:20:26Z</time>
      </trkpt>
      <trkpt lat="40.508183" lon="-5.200067">
        <ele>1592.0</ele>
        <time>2018-07-28T13:20:27Z</time>
      </trkpt>
      <trkpt lat="40.508150" lon="-5.199900">
        <ele>1592.0</ele>
        <time>2018-07-28T13:20:28Z</time>
      </trkpt>
      <trkpt lat="40.508083" lon="-5.199783">
        <ele>1591.0</ele>
        <time>2018-07-28T13:20:29Z</time>
      </trkpt>
      <trkpt lat="40.508000" lon="-5.199683">
        <ele>1589.0</ele>
        <time>2018-07-28T13:20:30Z</time>
      </trkpt>
      <trkpt lat="40.507900" lon="-5.199617">
        <ele>1588.0</ele>
        <time>2018-07-28T13:20:31Z</time>
      </trkpt>
      <trkpt lat="40.507800" lon="-5.199583">
        <ele>1589.0</ele>
        <time>2018-07-28T13:20:32Z</time>
      </trkpt>
      <trkpt lat="40.507700" lon="-5.199567">
        <ele>1592.0</ele>
        <time>2018-07-28T13:20:33Z</time>
      </trkpt>
      <trkpt lat="40.507617" lon="-5.199550">
        <ele>1594.0</ele>
        <time>2018-07-28T13:20:34Z</time>
      </trkpt>
      <trkpt lat="40.507550" lon="-5.199550">
        <ele>1596.0</ele>
        <time>2018-07-28T13:20:35Z</time>
      </trkpt>
      <trkpt lat="40.507467" lon="-5.199550">
        <ele>1595.0</ele>
        <time>2018-07-28T13:20:36Z</time>
      </trkpt>
      <trkpt lat="40.507383" lon="-5.199567">
        <ele>1595.0</ele>
        <time>2018-07-28T13:20:37Z</time>
      </trkpt>
      <trkpt lat="40.507317" lon="-5.199617">
        <ele>1595.0</ele>
        <time>2018-07-28T13:20:38Z</time>
      </trkpt>
      <trkpt lat="40.507267" lon="-5.199683">
        <ele>1595.0</ele>
        <time>2018-07-28T13:20:39Z</time>
      </trkpt>
      <trkpt lat="40.507250" lon="-5.199783">
        <ele>1596.0</ele>
        <time>2018-07-28T13:20:40Z</time>
      </trkpt>
      <trkpt lat="40.507233" lon="-5.199883">
        <ele>1598.0</ele>
        <time>2018-07-28T13:20:41Z</time>
      </trkpt>
      <trkpt lat="40.507217" lon="-5.199967">
        <ele>1601.0</ele>
        <time>2018-07-28T13:20:42Z</time>
      </trkpt>
      <trkpt lat="40.507200" lon="-5.200017">
        <ele>1605.0</ele>
        <time>2018-07-28T13:20:43Z</time>
      </trkpt>
      <trkpt lat="40.507167" lon="-5.200050">
        <ele>1608.0</ele>
        <time>2018-07-28T13:20:44Z</time>
      </trkpt>
      <trkpt lat="40.507133" lon="-5.200083">
        <ele>1610.0</ele>
        <time>2018-07-28T13:20:45Z</time>
      </trkpt>
      <trkpt lat="40.507117" lon="-5.200150">
        <ele>1610.0</ele>
        <time>2018-07-28T13:20:46Z</time>
      </trkpt>
      <trkpt lat="40.507100" lon="-5.200233">
        <ele>1611.0</ele>
        <time>2018-07-28T13:20:47Z</time>
      </trkpt>
      <trkpt lat="40.507100" lon="-5.200317">
        <ele>1611.0</ele>
        <time>2018-07-28T13:20:48Z</time>
      </trkpt>
      <trkpt lat="40.507117" lon="-5.200417">
        <ele>1612.0</ele>
        <time>2018-07-28T13:20:49Z</time>
      </trkpt>
      <trkpt lat="40.507150" lon="-5.200500">
        <ele>1613.0</ele>
        <time>2018-07-28T13:20:50Z</time>
      </trkpt>
      <trkpt lat="40.507200" lon="-5.200583">
        <ele>1614.0</ele>
        <time>2018-07-28T13:20:51Z</time>
      </trkpt>
      <trkpt lat="40.507267" lon="-5.200650">
        <ele>1616.0</ele>
        <time>2018-07-28T13:20:52Z</time>
      </trkpt>
      <trkpt lat="40.507367" lon="-5.200700">
        <ele>1617.0</ele>
        <time>2018-07-28T13:20:53Z</time>
      </trkpt>
      <trkpt lat="40.507467" lon="-5.200717">
        <ele>1620.0</ele>
        <time>2018-07-28T13:20:54Z</time>
      </trkpt>
      <trkpt lat="40.507567" lon="-5.200700">
        <ele>1622.0</ele>
        <time>2018-07-28T13:20:55Z</time>
      </trkpt>
      <trkpt lat="40.507667" lon="-5.200650">
        <ele>1625.0</ele>
        <time>2018-07-28T13:20:56Z</time>
      </trkpt>
      <trkpt lat="40.507783" lon="-5.200567">
        <ele>1627.0</ele>
        <time>2018-07-28T13:20:57Z</time>
      </trkpt>
      <trkpt lat="40.507867" lon="-5.200433">
        <ele>1629.0</ele>
        <time>2018-07-28T13:20:58Z</time>
      </trkpt>
      <trkpt lat="40.507950" lon="-5.200300">
        <ele>1632.0</ele>
        <time>2018-07-28T13:20:59Z</time>
      </trkpt>
      <trkpt lat="40.508000" lon="-5.200117">
        <ele>1634.0</ele>
        <time>2018-07-28T13:21:00Z</time>
      </trkpt>
      <trkpt lat="40.508017" lon="-5.199950">
        <ele>1636.0</ele>
        <time>2018-07-28T13:21:01Z</time>
      </trkpt>
      <trkpt lat="40.507983" lon="-5.199800">
        <ele>1638.0</ele>
        <time>2018-07-28T13:21:02Z</time>
      </trkpt>
      <trkpt lat="40.507900" lon="-5.199700">
        <ele>1641.0</ele>
        <time>2018-07-28T13:21:03Z</time>
      </trkpt>
      <trkpt lat="40.507817" lon="-5.199633">
        <ele>1642.0</ele>
        <time>2018-07-28T13:21:04Z</time>
      </trkpt>
      <trkpt lat="40.507717" lon="-5.199633">
        <ele>1644.0</ele>
        <time>2018-07-28T13:21:05Z</time>
      </trkpt>
      <trkpt lat="40.507633" lon="-5.199650">
        <ele>1645.0</ele>
        <time>2018-07-28T13:21:06Z</time>
      </trkpt>
      <trkpt lat="40.507567" lon="-5.199700">
        <ele>1648.0</ele>
        <time>2018-07-28T13:21:07Z</time>
      </trkpt>
      <trkpt lat="40.507517" lon="-5.199783">
        <ele>1650.0</ele>
        <time>2018-07-28T13:21:08Z</time>
      </trkpt>
      <trkpt lat="40.507500" lon="-5.199867">
        <ele>1654.0</ele>
        <time>2018-07-28T13:21:09Z</time>
      </trkpt>
      <trkpt lat="40.507500" lon="-5.199967">
        <ele>1657.0</ele>
        <time>2018-07-28T13:21:10Z</time>
      </trkpt>
      <trkpt lat="40.507533" lon="-5.200033">
        <ele>1660.0</ele>
        <time>2018-07-28T13:21:11Z</time>
      </trkpt>
      <trkpt lat="40.507600" lon="-5.200100">
        <ele>1662.0</ele>
        <time>2018-07-28T13:21:12Z</time>
      </trkpt>
      <trkpt lat="40.507667" lon="-5.200167">
        <ele>1663.0</ele>
        <time>2018-07-28T13:21:13Z</time>
      </trkpt>
      <trkpt lat="40.507750" lon="-5.200200">
        <ele>1665.0</ele>
        <time>2018-07-28T13:21:14Z</time>
      </trkpt>
      <trkpt lat="40.507850" lon="-5.200200">
        <ele>1666.0</ele>
        <time>2018-07-28T13:21:15Z</time>
      </trkpt>
      <trkpt lat="40.507967" lon="-5.200167">
        <ele>1667.0</ele>
        <time>2018-07-28T13:21:16Z</time>
      </trkpt>
      <trkpt lat="40.508067" lon="-5.200083">
        <ele>1668.0</ele>
        <time>2018-07-28T13:21:17Z</time>
      </trkpt>
      <trkpt lat="40.508183" lon="-5.199967">
        <ele>1670.0</ele>
        <time>2018-07-28T13:21:18Z</time>
      </trkpt>
      <trkpt lat="40.508267" lon="-5.199833">
        <ele>1673.0</ele>
        <time>2018-07-28T13:21:19Z</time>
      </trkpt>
      <trkpt lat="40.508333" lon="-5.199683">
        <ele>1678.0</ele>
        <time>2018-07-28T13:21:20Z</time>
      </trkpt>
      <trkpt lat="40.508367" lon="-5.199550">
        <ele>1682.0</ele>
        <time>2018-07-28T13:21:21Z</time>
      </trkpt>
      <trkpt lat="40.508400" lon="-5.199400">
        <ele>1684.0</ele>
        <time>2018-07-28T13:21:22Z</time>
      </trkpt>
      <trkpt lat="40.508400" lon="-5.199250">
        <ele>1686.0</ele>
        <time>2018-07-28T13:21:23Z</time>
      </trkpt>
      <trkpt lat="40.508383" lon="-5.199100">
        <ele>1688.0</ele>
        <time>2018-07-28T13:21:24Z</time>
      </trkpt>
      <trkpt lat="40.508333" lon="-5.198967">
        <ele>1688.0</ele>
        <time>2018-07-28T13:21:25Z</time>
      </trkpt>
      <trkpt lat="40.508267" lon="-5.198867">
        <ele>1689.0</ele>
        <time>2018-07-28T13:21:26Z</time>
      </trkpt>
      <trkpt lat="40.508167" lon="-5.198783">
        <ele>1690.0</ele>
        <time>2018-07-28T13:21:27Z</time>
      </trkpt>
      <trkpt lat="40.508067" lon="-5.198733">
        <ele>1693.0</ele>
        <time>2018-07-28T13:21:28Z</time>
      </trkpt>
      <trkpt lat="40.507983" lon="-5.198717">
        <ele>1696.0</ele>
        <time>2018-07-28T13:21:29Z</time>
      </trkpt>
      <trkpt lat="40.507900" lon="-5.198717">
        <ele>1700.0</ele>
        <time>2018-07-28T13:21:30Z</time>
      </trkpt>
      <trkpt lat="40.507850" lon="-5.198717">
        <ele>1701.0</ele>
        <time>2018-07-28T13:21:31Z</time>
      </trkpt>
      <trkpt lat="40.507783" lon="-5.198733">
        <ele>1703.0</ele>
        <time>2018-07-28T13:21:32Z</time>
      </trkpt>
      <trkpt lat="40.507733" lon="-5.198767">
        <ele>1703.0</ele>
        <time>2018-07-28T13:21:33Z</time>
      </trkpt>
      <trkpt lat="40.507667" lon="-5.198817">
        <ele>1705.0</ele>
        <time>2018-07-28T13:21:34Z</time>
      </trkpt>
      <trkpt lat="40.507633" lon="-5.198900">
        <ele>1708.0</ele>
        <time>2018-07-28T13:21:35Z</time>
      </trkpt>
      <trkpt lat="40.507600" lon="-5.198967">
        <ele>1711.0</ele>
        <time>2018-07-28T13:21:36Z</time>
      </trkpt>
      <trkpt lat="40.507583" lon="-5.199033">
        <ele>1715.0</ele>
        <time>2018-07-28T13:21:37Z</time>
      </trkpt>
      <trkpt lat="40.507567" lon="-5.199100">
        <ele>1718.0</ele>
        <time>2018-07-28T13:21:38Z</time>
      </trkpt>
      <trkpt lat="40.507550" lon="-5.199167">
        <ele>1721.0</ele>
        <time>2018-07-28T13:21:39Z</time>
      </trkpt>
      <trkpt lat="40.507550" lon="-5.199217">
        <ele>1723.0</ele>
        <time>2018-07-28T13:21:40Z</time>
      </trkpt>
      <trkpt lat="40.507567" lon="-5.199267">
        <ele>1724.0</ele>
        <time>2018-07-28T13:21:41Z</time>
      </trkpt>
      <trkpt lat="40.507617" lon="-5.199300">
        <ele>1724.0</ele>
        <time>2018-07-28T13:21:42Z</time>
      </trkpt>
      <trkpt lat="40.507700" lon="-5.199333">
        <ele>1722.0</ele>
        <time>2018-07-28T13:21:43Z</time>
      </trkpt>
      <trkpt lat="40.507800" lon="-5.199333">
        <ele>1721.0</ele>
        <time>2018-07-28T13:21:44Z</time>
      </trkpt>
      <trkpt lat="40.507933" lon="-5.199317">
        <ele>1721.0</ele>
        <time>2018-07-28T13:21:45Z</time>
      </trkpt>
      <trkpt lat="40.508050" lon="-5.199250">
        <ele>1721.0</ele>
        <time>2018-07-28T13:21:46Z</time>
      </trkpt>
      <trkpt lat="40.508150" lon="-5.199167">
        <ele>1721.0</ele>
        <time>2018-07-28T13:21:47Z</time>
      </trkpt>
      <trkpt lat="40.508250" lon="-5.199033">
        <ele>1721.0</ele>
        <time>2018-07-28T13:21:48Z</time>
      </trkpt>
      <trkpt lat="40.508317" lon="-5.198883">
        <ele>1721.0</ele>
        <time>2018-07-28T13:21:49Z</time>
      </trkpt>
      <trkpt lat="40.508383" lon="-5.198733">
        <ele>1722.0</ele>
        <time>2018-07-28T13:21:50Z</time>
      </trkpt>
      <trkpt lat="40.508450" lon="-5.198550">
        <ele>1725.0</ele>
        <time>2018-07-28T13:21:51Z</time>
      </trkpt>
      <trkpt lat="40.508483" lon="-5.198400">
        <ele>1727.0</ele>
        <time>2018-07-28T13:21:52Z</time>
      </trkpt>
      <trkpt lat="40.508517" lon="-5.198250">
        <ele>1730.0</ele>
        <time>2018-07-28T13:21:53Z</time>
      </trkpt>
      <trkpt lat="40.508550" lon="-5.198100">
        <ele>1732.0</ele>
        <time>2018-07-28T13:21:54Z</time>
      </trkpt>
      <trkpt lat="40.508567" lon="-5.197950">
        <ele>1734.0</ele>
        <time>2018-07-28T13:21:55Z</time>
      </trkpt>
      <trkpt lat="40.508567" lon="-5.197800">
        <ele>1735.0</ele>
        <time>2018-07-28T13:21:56Z</time>
      </trkpt>
      <trkpt lat="40.508550" lon="-5.197633">
        <ele>1736.0</ele>
        <time>2018-07-28T13:21:57Z</time>
      </trkpt>
      <trkpt lat="40.508500" lon="-5.197483">
        <ele>1736.0</ele>
        <time>2018-07-28T13:21:58Z</time>
      </trkpt>
      <trkpt lat="40.508450" lon="-5.197350">
        <ele>1737.0</ele>
        <time>2018-07-28T13:21:59Z</time>
      </trkpt>
      <trkpt lat="40.508400" lon="-5.197200">
        <ele>1738.0</ele>
        <time>2018-07-28T13:22:00Z</time>
      </trkpt>
      <trkpt lat="40.508333" lon="-5.197083">
        <ele>1739.0</ele>
        <time>2018-07-28T13:22:01Z</time>
      </trkpt>
      <trkpt lat="40.508267" lon="-5.196967">
        <ele>1740.0</ele>
        <time>2018-07-28T13:22:02Z</time>
      </trkpt>
      <trkpt lat="40.508200" lon="-5.196867">
        <ele>1741.0</ele>
        <time>2018-07-28T13:22:03Z</time>
      </trkpt>
      <trkpt lat="40.508117" lon="-5.196783">
        <ele>1742.0</ele>
        <time>2018-07-28T13:22:04Z</time>
      </trkpt>
      <trkpt lat="40.508050" lon="-5.196700">
        <ele>1743.0</ele>
        <time>2018-07-28T13:22:05Z</time>
      </trkpt>
      <trkpt lat="40.507967" lon="-5.196617">
        <ele>1743.0</ele>
        <time>2018-07-28T13:22:06Z</time>
      </trkpt>
      <trkpt lat="40.507883" lon="-5.196550">
        <ele>1743.0</ele>
        <time>2018-07-28T13:22:07Z</time>
      </trkpt>
      <trkpt lat="40.507800" lon="-5.196517">
        <ele>1743.0</ele>
        <time>2018-07-28T13:22:08Z</time>
      </trkpt>
      <trkpt lat="40.507717" lon="-5.196500">
        <ele>1742.0</ele>
        <time>2018-07-28T13:22:09Z</time>
      </trkpt>
      <trkpt lat="40.507617" lon="-5.196483">
        <ele>1742.0</ele>
        <time>2018-07-28T13:22:10Z</time>
      </trkpt>
      <trkpt lat="40.507533" lon="-5.196467">
        <ele>1742.0</ele>
        <time>2018-07-28T13:22:11Z</time>
      </trkpt>
      <trkpt lat="40.507450" lon="-5.196433">
        <ele>1743.0</ele>
        <time>2018-07-28T13:22:12Z</time>
      </trkpt>
      <trkpt lat="40.507383" lon="-5.196400">
        <ele>1742.0</ele>
        <time>2018-07-28T13:22:13Z</time>
      </trkpt>
      <trkpt lat="40.507317" lon="-5.196400">
        <ele>1742.0</ele>
        <time>2018-07-28T13:22:14Z</time>
      </trkpt>
      <trkpt lat="40.507250" lon="-5.196417">
        <ele>1740.0</ele>
        <time>2018-07-28T13:22:15Z</time>
      </trkpt>
      <trkpt lat="40.507217" lon="-5.196467">
        <ele>1738.0</ele>
        <time>2018-07-28T13:22:16Z</time>
      </trkpt>
      <trkpt lat="40.507167" lon="-5.196533">
        <ele>1737.0</ele>
        <time>2018-07-28T13:22:17Z</time>
      </trkpt>
      <trkpt lat="40.507150" lon="-5.196617">
        <ele>1738.0</ele>
        <time>2018-07-28T13:22:18Z</time>
      </trkpt>
      <trkpt lat="40.507167" lon="-5.196683">
        <ele>1739.0</ele>
        <time>2018-07-28T13:22:19Z</time>
      </trkpt>
      <trkpt lat="40.507200" lon="-5.196750">
        <ele>1739.0</ele>
        <time>2018-07-28T13:22:20Z</time>
      </trkpt>
      <trkpt lat="40.507267" lon="-5.196800">
        <ele>1739.0</ele>
        <time>2018-07-28T13:22:21Z</time>
      </trkpt>
      <trkpt lat="40.507333" lon="-5.196850">
        <ele>1740.0</ele>
        <time>2018-07-28T13:22:22Z</time>
      </trkpt>
      <trkpt lat="40.507383" lon="-5.196917">
        <ele>1741.0</ele>
        <time>2018-07-28T13:22:23Z</time>
      </trkpt>
      <trkpt lat="40.507450" lon="-5.196967">
        <ele>1743.0</ele>
        <time>2018-07-28T13:22:24Z</time>
      </trkpt>
      <trkpt lat="40.507517" lon="-5.197033">
        <ele>1744.0</ele>
        <time>2018-07-28T13:22:25Z</time>
      </trkpt>
      <trkpt lat="40.507583" lon="-5.197100">
        <ele>1746.0</ele>
        <time>2018-07-28T13:22:26Z</time>
      </trkpt>
      <trkpt lat="40.507633" lon="-5.197150">
        <ele>1748.0</ele>
        <time>2018-07-28T13:22:27Z</time>
      </trkpt>
      <trkpt lat="40.507700" lon="-5.197167">
        <ele>1749.0</ele>
        <time>2018-07-28T13:22:28Z</time>
      </trkpt>
      <trkpt lat="40.507767" lon="-5.197150">
        <ele>1750.0</ele>
        <time>2018-07-28T13:22:29Z</time>
      </trkpt>
      <trkpt lat="40.507883" lon="-5.197117">
        <ele>1750.0</ele>
        <time>2018-07-28T13:22:30Z</time>
      </trkpt>
      <trkpt lat="40.507983" lon="-5.197067">
        <ele>1752.0</ele>
        <time>2018-07-28T13:22:31Z</time>
      </trkpt>
      <trkpt lat="40.508083" lon="-5.197067">
        <ele>1755.0</ele>
        <time>2018-07-28T13:22:32Z</time>
      </trkpt>
      <trkpt lat="40.508183" lon="-5.197083">
        <ele>1757.0</ele>
        <time>2018-07-28T13:22:33Z</time>
      </trkpt>
      <trkpt lat="40.508267" lon="-5.197117">
        <ele>1758.0</ele>
        <time>2018-07-28T13:22:34Z</time>
      </trkpt>
      <trkpt lat="40.508350" lon="-5.197133">
        <ele>1760.0</ele>
        <time>2018-07-28T13:22:35Z</time>
      </trkpt>
      <trkpt lat="40.508450" lon="-5.197150">
        <ele>1760.0</ele>
        <time>2018-07-28T13:22:36Z</time>
      </trkpt>
      <trkpt lat="40.508550" lon="-5.197167">
        <ele>1761.0</ele>
        <time>2018-07-28T13:22:37Z</time>
      </trkpt>
      <trkpt lat="40.508650" lon="-5.197167">
        <ele>1761.0</ele>
        <time>2018-07-28T13:22:38Z</time>
      </trkpt>
      <trkpt lat="40.508767" lon="-5.197167">
        <ele>1763.0</ele>
        <time>2018-07-28T13:22:39Z</time>
      </trkpt>
      <trkpt lat="40.508883" lon="-5.197167">
        <ele>1765.0</ele>
        <time>2018-07-28T13:22:40Z</time>
      </trkpt>
      <trkpt lat="40.509000" lon="-5.197150">
        <ele>1767.0</ele>
        <time>2018-07-28T13:22:41Z</time>
      </trkpt>
      <trkpt lat="40.509100" lon="-5.197117">
        <ele>1768.0</ele>
        <time>2018-07-28T13:22:42Z</time>
      </trkpt>
      <trkpt lat="40.509200" lon="-5.197050">
        <ele>1768.0</ele>
        <time>2018-07-28T13:22:43Z</time>
      </trkpt>
      <trkpt lat="40.509317" lon="-5.196967">
        <ele>1767.0</ele>
        <time>2018-07-28T13:22:44Z</time>
      </trkpt>
      <trkpt lat="40.509417" lon="-5.196850">
        <ele>1766.0</ele>
        <time>2018-07-28T13:22:45Z</time>
      </trkpt>
      <trkpt lat="40.509517" lon="-5.196717">
        <ele>1766.0</ele>
        <time>2018-07-28T13:22:46Z</time>
      </trkpt>
      <trkpt lat="40.509617" lon="-5.196567">
        <ele>1767.0</ele>
        <time>2018-07-28T13:22:47Z</time>
      </trkpt>
      <trkpt lat="40.509700" lon="-5.196433">
        <ele>1768.0</ele>
        <time>2018-07-28T13:22:48Z</time>
      </trkpt>
      <trkpt lat="40.509750" lon="-5.196300">
        <ele>1769.0</ele>
        <time>2018-07-28T13:22:49Z</time>
      </trkpt>
      <trkpt lat="40.509783" lon="-5.196150">
        <ele>1769.0</ele>
        <time>2018-07-28T13:22:50Z</time>
      </trkpt>
      <trkpt lat="40.509800" lon="-5.196017">
        <ele>1768.0</ele>
        <time>2018-07-28T13:22:51Z</time>
      </trkpt>
      <trkpt lat="40.509783" lon="-5.195900">
        <ele>1767.0</ele>
        <time>2018-07-28T13:22:52Z</time>
      </trkpt>
      <trkpt lat="40.509767" lon="-5.195783">
        <ele>1766.0</ele>
        <time>2018-07-28T13:22:53Z</time>
      </trkpt>
      <trkpt lat="40.509717" lon="-5.195667">
        <ele>1764.0</ele>
        <time>2018-07-28T13:22:54Z</time>
      </trkpt>
      <trkpt lat="40.509683" lon="-5.195550">
        <ele>1762.0</ele>
        <time>2018-07-28T13:22:55Z</time>
      </trkpt>
      <trkpt lat="40.509617" lon="-5.195433">
        <ele>1760.0</ele>
        <time>2018-07-28T13:22:56Z</time>
      </trkpt>
      <trkpt lat="40.509567" lon="-5.195317">
        <ele>1757.0</ele>
        <time>2018-07-28T13:22:57Z</time>
      </trkpt>
      <trkpt lat="40.509500" lon="-5.195217">
        <ele>1756.0</ele>
        <time>2018-07-28T13:22:58Z</time>
      </trkpt>
      <trkpt lat="40.509417" lon="-5.195133">
        <ele>1754.0</ele>
        <time>2018-07-28T13:22:59Z</time>
      </trkpt>
      <trkpt lat="40.509333" lon="-5.195067">
        <ele>1751.0</ele>
        <time>2018-07-28T13:23:00Z</time>
      </trkpt>
      <trkpt lat="40.509250" lon="-5.195017">
        <ele>1750.0</ele>
        <time>2018-07-28T13:23:01Z</time>
      </trkpt>
      <trkpt lat="40.509150" lon="-5.195000">
        <ele>1749.0</ele>
        <time>2018-07-28T13:23:02Z</time>
      </trkpt>
      <trkpt lat="40.509067" lon="-5.195000">
        <ele>1750.0</ele>
        <time>2018-07-28T13:23:03Z</time>
      </trkpt>
      <trkpt lat="40.509000" lon="-5.195000">
        <ele>1752.0</ele>
        <time>2018-07-28T13:23:04Z</time>
      </trkpt>
      <trkpt lat="40.508933" lon="-5.194983">
        <ele>1753.0</ele>
        <time>2018-07-28T13:23:05Z</time>
      </trkpt>
      <trkpt lat="40.508867" lon="-5.194950">
        <ele>1754.0</ele>
        <time>2018-07-28T13:23:06Z</time>
      </trkpt>
      <trkpt lat="40.508783" lon="-5.194917">
        <ele>1753.0</ele>
        <time>2018-07-28T13:23:07Z</time>
      </trkpt>
      <trkpt lat="40.508700" lon="-5.194883">
        <ele>1753.0</ele>
        <time>2018-07-28T13:23:08Z</time>
      </trkpt>
      <trkpt lat="40.508617" lon="-5.194817">
        <ele>1753.0</ele>
        <time>2018-07-28T13:23:09Z</time>
      </trkpt>
      <trkpt lat="40.508517" lon="-5.194767">
        <ele>1755.0</ele>
        <time>2018-07-28T13:23:10Z</time>
      </trkpt>
      <trkpt lat="40.508450" lon="-5.194683">
        <ele>1757.0</ele>
        <time>2018-07-28T13:23:11Z</time>
      </trkpt>
      <trkpt lat="40.508367" lon="-5.194617">
        <ele>1758.0</ele>
        <time>2018-07-28T13:23:12Z</time>
      </trkpt>
      <trkpt lat="40.508300" lon="-5.194550">
        <ele>1758.0</ele>
        <time>2018-07-28T13:23:13Z</time>
      </trkpt>
      <trkpt lat="40.508217" lon="-5.194483">
        <ele>1759.0</ele>
        <time>2018-07-28T13:23:14Z</time>
      </trkpt>
      <trkpt lat="40.508133" lon="-5.194417">
        <ele>1759.0</ele>
        <time>2018-07-28T13:23:15Z</time>
      </trkpt>
      <trkpt lat="40.508050" lon="-5.194333">
        <ele>1760.0</ele>
        <time>2018-07-28T13:23:16Z</time>
      </trkpt>
      <trkpt lat="40.507967" lon="-5.194233">
        <ele>1761.0</ele>
        <time>2018-07-28T13:23:17Z</time>
      </trkpt>
      <trkpt lat="40.507883" lon="-5.194150">
        <ele>1762.0</ele>
        <time>2018-07-28T13:23:18Z</time>
      </trkpt>
      <trkpt lat="40.507800" lon="-5.194067">
        <ele>1763.0</ele>
        <time>2018-07-28T13:23:19Z</time>
      </trkpt>
      <trkpt lat="40.507717" lon="-5.194000">
        <ele>1763.0</ele>
        <time>2018-07-28T13:23:20Z</time>
      </trkpt>
      <trkpt lat="40.507633" lon="-5.193950">
        <ele>1763.0</ele>
        <time>2018-07-28T13:23:21Z</time>
      </trkpt>
      <trkpt lat="40.507533" lon="-5.193933">
        <ele>1763.0</ele>
        <time>2018-07-28T13:23:22Z</time>
      </trkpt>
      <trkpt lat="40.507433" lon="-5.193917">
        <ele>1764.0</ele>
        <time>2018-07-28T13:23:23Z</time>
      </trkpt>
      <trkpt lat="40.507333" lon="-5.193883">
        <ele>1766.0</ele>
        <time>2018-07-28T13:23:24Z</time>
      </trkpt>
      <trkpt lat="40.507233" lon="-5.193833">
        <ele>1767.0</ele>
        <time>2018-07-28T13:23:25Z</time>
      </trkpt>
      <trkpt lat="40.507150" lon="-5.193800">
        <ele>1767.0</ele>
        <time>2018-07-28T13:23:26Z</time>
      </trkpt>
      <trkpt lat="40.507050" lon="-5.193767">
        <ele>1766.0</ele>
        <time>2018-07-28T13:23:27Z</time>
      </trkpt>
      <trkpt lat="40.506967" lon="-5.193767">
        <ele>1764.0</ele>
        <time>2018-07-28T13:23:28Z</time>
      </trkpt>
      <trkpt lat="40.506883" lon="-5.193800">
        <ele>1761.0</ele>
        <time>2018-07-28T13:23:29Z</time>
      </trkpt>
      <trkpt lat="40.506817" lon="-5.193867">
        <ele>1758.0</ele>
        <time>2018-07-28T13:23:30Z</time>
      </trkpt>
      <trkpt lat="40.506783" lon="-5.193950">
        <ele>1756.0</ele>
        <time>2018-07-28T13:23:31Z</time>
      </trkpt>
      <trkpt lat="40.506767" lon="-5.194033">
        <ele>1754.0</ele>
        <time>2018-07-28T13:23:32Z</time>
      </trkpt>
      <trkpt lat="40.506750" lon="-5.194100">
        <ele>1752.0</ele>
        <time>2018-07-28T13:23:33Z</time>
      </trkpt>
      <trkpt lat="40.506767" lon="-5.194150">
        <ele>1749.0</ele>
        <time>2018-07-28T13:23:34Z</time>
      </trkpt>
      <trkpt lat="40.506767" lon="-5.194200">
        <ele>1745.0</ele>
        <time>2018-07-28T13:23:35Z</time>
      </trkpt>
      <trkpt lat="40.506817" lon="-5.194250">
        <ele>1740.0</ele>
        <time>2018-07-28T13:23:36Z</time>
      </trkpt>
      <trkpt lat="40.506867" lon="-5.194317">
        <ele>1734.0</ele>
        <time>2018-07-28T13:23:37Z</time>
      </trkpt>
      <trkpt lat="40.506967" lon="-5.194333">
        <ele>1729.0</ele>
        <time>2018-07-28T13:23:38Z</time>
      </trkpt>
      <trkpt lat="40.507067" lon="-5.194317">
        <ele>1725.0</ele>
        <time>2018-07-28T13:23:39Z</time>
      </trkpt>
      <trkpt lat="40.507167" lon="-5.194250">
        <ele>1722.0</ele>
        <time>2018-07-28T13:23:40Z</time>
      </trkpt>
      <trkpt lat="40.507267" lon="-5.194150">
        <ele>1719.0</ele>
        <time>2018-07-28T13:23:41Z</time>
      </trkpt>
      <trkpt lat="40.507333" lon="-5.194017">
        <ele>1715.0</ele>
        <time>2018-07-28T13:23:42Z</time>
      </trkpt>
      <trkpt lat="40.507383" lon="-5.193883">
        <ele>1711.0</ele>
        <time>2018-07-28T13:23:43Z</time>
      </trkpt>
      <trkpt lat="40.507433" lon="-5.193717">
        <ele>1706.0</ele>
        <time>2018-07-28T13:23:44Z</time>
      </trkpt>
      <trkpt lat="40.507467" lon="-5.193533">
        <ele>1702.0</ele>
        <time>2018-07-28T13:23:45Z</time>
      </trkpt>
      <trkpt lat="40.507483" lon="-5.193333">
        <ele>1698.0</ele>
        <time>2018-07-28T13:23:46Z</time>
      </trkpt>
      <trkpt lat="40.507467" lon="-5.193133">
        <ele>1696.0</ele>
        <time>2018-07-28T13:23:47Z</time>
      </trkpt>
      <trkpt lat="40.507417" lon="-5.192933">
        <ele>1696.0</ele>
        <time>2018-07-28T13:23:48Z</time>
      </trkpt>
      <trkpt lat="40.507367" lon="-5.192733">
        <ele>1697.0</ele>
        <time>2018-07-28T13:23:49Z</time>
      </trkpt>
      <trkpt lat="40.507317" lon="-5.192550">
        <ele>1699.0</ele>
        <time>2018-07-28T13:23:50Z</time>
      </trkpt>
      <trkpt lat="40.507267" lon="-5.192383">
        <ele>1700.0</ele>
        <time>2018-07-28T13:23:51Z</time>
      </trkpt>
      <trkpt lat="40.507233" lon="-5.192217">
        <ele>1701.0</ele>
        <time>2018-07-28T13:23:52Z</time>
      </trkpt>
      <trkpt lat="40.507200" lon="-5.192067">
        <ele>1701.0</ele>
        <time>2018-07-28T13:23:53Z</time>
      </trkpt>
      <trkpt lat="40.507167" lon="-5.191883">
        <ele>1701.0</ele>
        <time>2018-07-28T13:23:54Z</time>
      </trkpt>
      <trkpt lat="40.507133" lon="-5.191700">
        <ele>1700.0</ele>
        <time>2018-07-28T13:23:55Z</time>
      </trkpt>
      <trkpt lat="40.507100" lon="-5.191517">
        <ele>1699.0</ele>
        <time>2018-07-28T13:23:56Z</time>
      </trkpt>
      <trkpt lat="40.507050" lon="-5.191350">
        <ele>1699.0</ele>
        <time>2018-07-28T13:23:57Z</time>
      </trkpt>
      <trkpt lat="40.507000" lon="-5.191167">
        <ele>1699.0</ele>
        <time>2018-07-28T13:23:58Z</time>
      </trkpt>
      <trkpt lat="40.506950" lon="-5.191000">
        <ele>1699.0</ele>
        <time>2018-07-28T13:23:59Z</time>
      </trkpt>
      <trkpt lat="40.506883" lon="-5.190850">
        <ele>1698.0</ele>
        <time>2018-07-28T13:24:00Z</time>
      </trkpt>
      <trkpt lat="40.506817" lon="-5.190717">
        <ele>1696.0</ele>
        <time>2018-07-28T13:24:01Z</time>
      </trkpt>
      <trkpt lat="40.506733" lon="-5.190583">
        <ele>1694.0</ele>
        <time>2018-07-28T13:24:02Z</time>
      </trkpt>
      <trkpt lat="40.506633" lon="-5.190483">
        <ele>1692.0</ele>
        <time>2018-07-28T13:24:03Z</time>
      </trkpt>
      <trkpt lat="40.506533" lon="-5.190400">
        <ele>1690.0</ele>
        <time>2018-07-28T13:24:04Z</time>
      </trkpt>
      <trkpt lat="40.506433" lon="-5.190333">
        <ele>1689.0</ele>
        <time>2018-07-28T13:24:05Z</time>
      </trkpt>
      <trkpt lat="40.506367" lon="-5.190283">
        <ele>1688.0</ele>
        <time>2018-07-28T13:24:06Z</time>
      </trkpt>
      <trkpt lat="40.506283" lon="-5.190250">
        <ele>1685.0</ele>
        <time>2018-07-28T13:24:07Z</time>
      </trkpt>
      <trkpt lat="40.506200" lon="-5.190250">
        <ele>1682.0</ele>
        <time>2018-07-28T13:24:08Z</time>
      </trkpt>
      <trkpt lat="40.506133" lon="-5.190300">
        <ele>1678.0</ele>
        <time>2018-07-28T13:24:09Z</time>
      </trkpt>
      <trkpt lat="40.506083" lon="-5.190350">
        <ele>1674.0</ele>
        <time>2018-07-28T13:24:10Z</time>
      </trkpt>
      <trkpt lat="40.506050" lon="-5.190433">
        <ele>1672.0</ele>
        <time>2018-07-28T13:24:11Z</time>
      </trkpt>
      <trkpt lat="40.506033" lon="-5.190517">
        <ele>1669.0</ele>
        <time>2018-07-28T13:24:12Z</time>
      </trkpt>
      <trkpt lat="40.506017" lon="-5.190583">
        <ele>1666.0</ele>
        <time>2018-07-28T13:24:13Z</time>
      </trkpt>
      <trkpt lat="40.506017" lon="-5.190667">
        <ele>1663.0</ele>
        <time>2018-07-28T13:24:14Z</time>
      </trkpt>
      <trkpt lat="40.506017" lon="-5.190733">
        <ele>1660.0</ele>
        <time>2018-07-28T13:24:15Z</time>
      </trkpt>
      <trkpt lat="40.506033" lon="-5.190783">
        <ele>1657.0</ele>
        <time>2018-07-28T13:24:16Z</time>
      </trkpt>
      <trkpt lat="40.506033" lon="-5.190850">
        <ele>1654.0</ele>
        <time>2018-07-28T13:24:17Z</time>
      </trkpt>
      <trkpt lat="40.506067" lon="-5.190933">
        <ele>1650.0</ele>
        <time>2018-07-28T13:24:18Z</time>
      </trkpt>
      <trkpt lat="40.506083" lon="-5.191017">
        <ele>1647.0</ele>
        <time>2018-07-28T13:24:19Z</time>
      </trkpt>
      <trkpt lat="40.506100" lon="-5.191100">
        <ele>1645.0</ele>
        <time>2018-07-28T13:24:20Z</time>
      </trkpt>
      <trkpt lat="40.506100" lon="-5.191183">
        <ele>1644.0</ele>
        <time>2018-07-28T13:24:21Z</time>
      </trkpt>
      <trkpt lat="40.506067" lon="-5.191250">
        <ele>1642.0</ele>
        <time>2018-07-28T13:24:22Z</time>
      </trkpt>
      <trkpt lat="40.506050" lon="-5.191317">
        <ele>1639.0</ele>
        <time>2018-07-28T13:24:23Z</time>
      </trkpt>
      <trkpt lat="40.506050" lon="-5.191383">
        <ele>1636.0</ele>
        <time>2018-07-28T13:24:24Z</time>
      </trkpt>
      <trkpt lat="40.506067" lon="-5.191467">
        <ele>1633.0</ele>
        <time>2018-07-28T13:24:25Z</time>
      </trkpt>
      <trkpt lat="40.506100" lon="-5.191533">
        <ele>1630.0</ele>
        <time>2018-07-28T13:24:26Z</time>
      </trkpt>
      <trkpt lat="40.506117" lon="-5.191600">
        <ele>1628.0</ele>
        <time>2018-07-28T13:24:27Z</time>
      </trkpt>
      <trkpt lat="40.506117" lon="-5.191667">
        <ele>1626.0</ele>
        <time>2018-07-28T13:24:28Z</time>
      </trkpt>
      <trkpt lat="40.506100" lon="-5.191733">
        <ele>1623.0</ele>
        <time>2018-07-28T13:24:29Z</time>
      </trkpt>
      <trkpt lat="40.506067" lon="-5.191800">
        <ele>1620.0</ele>
        <time>2018-07-28T13:24:30Z</time>
      </trkpt>
      <trkpt lat="40.506067" lon="-5.191883">
        <ele>1617.0</ele>
        <time>2018-07-28T13:24:31Z</time>
      </trkpt>
      <trkpt lat="40.506067" lon="-5.191967">
        <ele>1614.0</ele>
        <time>2018-07-28T13:24:32Z</time>
      </trkpt>
      <trkpt lat="40.506067" lon="-5.192050">
        <ele>1612.0</ele>
        <time>2018-07-28T13:24:33Z</time>
      </trkpt>
      <trkpt lat="40.506083" lon="-5.192117">
        <ele>1611.0</ele>
        <time>2018-07-28T13:24:34Z</time>
      </trkpt>
      <trkpt lat="40.506117" lon="-5.192183">
        <ele>1610.0</ele>
        <time>2018-07-28T13:24:35Z</time>
      </trkpt>
      <trkpt lat="40.506167" lon="-5.192267">
        <ele>1608.0</ele>
        <time>2018-07-28T13:24:36Z</time>
      </trkpt>
      <trkpt lat="40.506217" lon="-5.192333">
        <ele>1607.0</ele>
        <time>2018-07-28T13:24:37Z</time>
      </trkpt>
      <trkpt lat="40.506267" lon="-5.192417">
        <ele>1605.0</ele>
        <time>2018-07-28T13:24:38Z</time>
      </trkpt>
      <trkpt lat="40.506317" lon="-5.192467">
        <ele>1605.0</ele>
        <time>2018-07-28T13:24:39Z</time>
      </trkpt>
      <trkpt lat="40.506367" lon="-5.192533">
        <ele>1603.0</ele>
        <time>2018-07-28T13:24:40Z</time>
      </trkpt>
      <trkpt lat="40.506400" lon="-5.192583">
        <ele>1601.0</ele>
        <time>2018-07-28T13:24:41Z</time>
      </trkpt>
      <trkpt lat="40.506450" lon="-5.192633">
        <ele>1598.0</ele>
        <time>2018-07-28T13:24:42Z</time>
      </trkpt>
      <trkpt lat="40.506517" lon="-5.192700">
        <ele>1595.0</ele>
        <time>2018-07-28T13:24:43Z</time>
      </trkpt>
      <trkpt lat="40.506550" lon="-5.192783">
        <ele>1592.0</ele>
        <time>2018-07-28T13:24:44Z</time>
      </trkpt>
      <trkpt lat="40.506600" lon="-5.192867">
        <ele>1590.0</ele>
        <time>2018-07-28T13:24:45Z</time>
      </trkpt>
      <trkpt lat="40.506633" lon="-5.192950">
        <ele>1588.0</ele>
        <time>2018-07-28T13:24:46Z</time>
      </trkpt>
      <trkpt lat="40.506650" lon="-5.193017">
        <ele>1586.0</ele>
        <time>2018-07-28T13:24:47Z</time>
      </trkpt>
      <trkpt lat="40.506683" lon="-5.193100">
        <ele>1584.0</ele>
        <time>2018-07-28T13:24:48Z</time>
      </trkpt>
      <trkpt lat="40.506717" lon="-5.193167">
        <ele>1581.0</ele>
        <time>2018-07-28T13:24:49Z</time>
      </trkpt>
      <trkpt lat="40.506750" lon="-5.193250">
        <ele>1577.0</ele>
        <time>2018-07-28T13:24:50Z</time>
      </trkpt>
      <trkpt lat="40.506783" lon="-5.193333">
        <ele>1574.0</ele>
        <time>2018-07-28T13:24:51Z</time>
      </trkpt>
      <trkpt lat="40.506817" lon="-5.193417">
        <ele>1571.0</ele>
        <time>2018-07-28T13:24:52Z</time>
      </trkpt>
      <trkpt lat="40.506817" lon="-5.193500">
        <ele>1567.0</ele>
        <time>2018-07-28T13:24:53Z</time>
      </trkpt>
      <trkpt lat="40.506817" lon="-5.193600">
        <ele>1564.0</ele>
        <time>2018-07-28T13:24:54Z</time>
      </trkpt>
      <trkpt lat="40.506833" lon="-5.193683">
        <ele>1561.0</ele>
        <time>2018-07-28T13:24:55Z</time>
      </trkpt>
      <trkpt lat="40.506850" lon="-5.193783">
        <ele>1557.0</ele>
        <time>2018-07-28T13:24:56Z</time>
      </trkpt>
      <trkpt lat="40.506883" lon="-5.193883">
        <ele>1554.0</ele>
        <time>2018-07-28T13:24:57Z</time>
      </trkpt>
      <trkpt lat="40.506883" lon="-5.193983">
        <ele>1551.0</ele>
        <time>2018-07-28T13:24:58Z</time>
      </trkpt>
      <trkpt lat="40.506883" lon="-5.194083">
        <ele>1548.0</ele>
        <time>2018-07-28T13:24:59Z</time>
      </trkpt>
      <trkpt lat="40.506883" lon="-5.194183">
        <ele>1545.0</ele>
        <time>2018-07-28T13:25:00Z</time>
      </trkpt>
      <trkpt lat="40.506900" lon="-5.194283">
        <ele>1543.0</ele>
        <time>2018-07-28T13:25:01Z</time>
      </trkpt>
      <trkpt lat="40.506917" lon="-5.194383">
        <ele>1540.0</ele>
        <time>2018-07-28T13:25:02Z</time>
      </trkpt>
      <trkpt lat="40.506933" lon="-5.194483">
        <ele>1540.0</ele>
        <time>2018-07-28T13:25:03Z</time>
      </trkpt>
      <trkpt lat="40.506967" lon="-5.194583">
        <ele>1539.0</ele>
        <time>2018-07-28T13:25:04Z</time>
      </trkpt>
      <trkpt lat="40.506983" lon="-5.194667">
        <ele>1538.0</ele>
        <time>2018-07-28T13:25:05Z</time>
      </trkpt>
      <trkpt lat="40.507017" lon="-5.194750">
        <ele>1536.0</ele>
        <time>2018-07-28T13:25:06Z</time>
      </trkpt>
      <trkpt lat="40.507083" lon="-5.194817">
        <ele>1534.0</ele>
        <time>2018-07-28T13:25:07Z</time>
      </trkpt>
      <trkpt lat="40.507167" lon="-5.194900">
        <ele>1532.0</ele>
        <time>2018-07-28T13:25:08Z</time>
      </trkpt>
      <trkpt lat="40.507250" lon="-5.194950">
        <ele>1532.0</ele>
        <time>2018-07-28T13:25:09Z</time>
      </trkpt>
      <trkpt lat="40.507333" lon="-5.195017">
        <ele>1534.0</ele>
        <time>2018-07-28T13:25:10Z</time>
      </trkpt>
      <trkpt lat="40.507383" lon="-5.195083">
        <ele>1536.0</ele>
        <time>2018-07-28T13:25:11Z</time>
      </trkpt>
      <trkpt lat="40.507417" lon="-5.195133">
        <ele>1536.0</ele>
        <time>2018-07-28T13:25:12Z</time>
      </trkpt>
      <trkpt lat="40.507433" lon="-5.195200">
        <ele>1536.0</ele>
        <time>2018-07-28T13:25:13Z</time>
      </trkpt>
      <trkpt lat="40.507467" lon="-5.195283">
        <ele>1534.0</ele>
        <time>2018-07-28T13:25:14Z</time>
      </trkpt>
      <trkpt lat="40.507517" lon="-5.195350">
        <ele>1533.0</ele>
        <time>2018-07-28T13:25:15Z</time>
      </trkpt>
      <trkpt lat="40.507567" lon="-5.195417">
        <ele>1533.0</ele>
        <time>2018-07-28T13:25:16Z</time>
      </trkpt>
      <trkpt lat="40.507617" lon="-5.195450">
        <ele>1533.0</ele>
        <time>2018-07-28T13:25:17Z</time>
      </trkpt>
      <trkpt lat="40.507650" lon="-5.195500">
        <ele>1532.0</ele>
        <time>2018-07-28T13:25:18Z</time>
      </trkpt>
      <trkpt lat="40.507683" lon="-5.195550">
        <ele>1531.0</ele>
        <time>2018-07-28T13:25:19Z</time>
      </trkpt>
      <trkpt lat="40.507717" lon="-5.195617">
        <ele>1529.0</ele>
        <time>2018-07-28T13:25:20Z</time>
      </trkpt>
      <trkpt lat="40.507750" lon="-5.195700">
        <ele>1527.0</ele>
        <time>2018-07-28T13:25:21Z</time>
      </trkpt>
      <trkpt lat="40.507817" lon="-5.195783">
        <ele>1527.0</ele>
        <time>2018-07-28T13:25:22Z</time>
      </trkpt>
      <trkpt lat="40.507867" lon="-5.195867">
        <ele>1528.0</ele>
        <time>2018-07-28T13:25:23Z</time>
      </trkpt>
      <trkpt lat="40.507933" lon="-5.195933">
        <ele>1530.0</ele>
        <time>2018-07-28T13:25:24Z</time>
      </trkpt>
      <trkpt lat="40.507983" lon="-5.195983">
        <ele>1532.0</ele>
        <time>2018-07-28T13:25:25Z</time>
      </trkpt>
      <trkpt lat="40.508050" lon="-5.196050">
        <ele>1533.0</ele>
        <time>2018-07-28T13:25:26Z</time>
      </trkpt>
      <trkpt lat="40.508100" lon="-5.196133">
        <ele>1533.0</ele>
        <time>2018-07-28T13:25:27Z</time>
      </trkpt>
      <trkpt lat="40.508167" lon="-5.196217">
        <ele>1533.0</ele>
        <time>2018-07-28T13:25:28Z</time>
      </trkpt>
      <trkpt lat="40.508217" lon="-5.196300">
        <ele>1532.0</ele>
        <time>2018-07-28T13:25:29Z</time>
      </trkpt>
      <trkpt lat="40.508267" lon="-5.196383">
        <ele>1533.0</ele>
        <time>2018-07-28T13:25:30Z</time>
      </trkpt>
      <trkpt lat="40.508333" lon="-5.196450">
        <ele>1534.0</ele>
        <time>2018-07-28T13:25:31Z</time>
      </trkpt>
      <trkpt lat="40.508383" lon="-5.196517">
        <ele>1535.0</ele>
        <time>2018-07-28T13:25:32Z</time>
      </trkpt>
      <trkpt lat="40.508450" lon="-5.196567">
        <ele>1535.0</ele>
        <time>2018-07-28T13:25:33Z</time>
      </trkpt>
      <trkpt lat="40.508517" lon="-5.196633">
        <ele>1535.0</ele>
        <time>2018-07-28T13:25:34Z</time>
      </trkpt>
      <trkpt lat="40.508600" lon="-5.196700">
        <ele>1535.0</ele>
        <time>2018-07-28T13:25:35Z</time>
      </trkpt>
      <trkpt lat="40.508683" lon="-5.196783">
        <ele>1535.0</ele>
        <time>2018-07-28T13:25:36Z</time>
      </trkpt>
      <trkpt lat="40.508750" lon="-5.196867">
        <ele>1536.0</ele>
        <time>2018-07-28T13:25:37Z</time>
      </trkpt>
      <trkpt lat="40.508817" lon="-5.196933">
        <ele>1537.0</ele>
        <time>2018-07-28T13:25:38Z</time>
      </trkpt>
      <trkpt lat="40.508883" lon="-5.197000">
        <ele>1538.0</ele>
        <time>2018-07-28T13:25:39Z</time>
      </trkpt>
      <trkpt lat="40.508917" lon="-5.197083">
        <ele>1537.0</ele>
        <time>2018-07-28T13:25:40Z</time>
      </trkpt>
      <trkpt lat="40.508950" lon="-5.197183">
        <ele>1535.0</ele>
        <time>2018-07-28T13:25:41Z</time>
      </trkpt>
      <trkpt lat="40.508967" lon="-5.197317">
        <ele>1535.0</ele>
        <time>2018-07-28T13:25:42Z</time>
      </trkpt>
      <trkpt lat="40.508983" lon="-5.197433">
        <ele>1537.0</ele>
        <time>2018-07-28T13:25:43Z</time>
      </trkpt>
      <trkpt lat="40.509000" lon="-5.197533">
        <ele>1542.0</ele>
        <time>2018-07-28T13:25:44Z</time>
      </trkpt>
      <trkpt lat="40.509000" lon="-5.197600">
        <ele>1546.0</ele>
        <time>2018-07-28T13:25:45Z</time>
      </trkpt>
      <trkpt lat="40.509017" lon="-5.197667">
        <ele>1549.0</ele>
        <time>2018-07-28T13:25:46Z</time>
      </trkpt>
      <trkpt lat="40.509000" lon="-5.197750">
        <ele>1550.0</ele>
        <time>2018-07-28T13:25:47Z</time>
      </trkpt>
      <trkpt lat="40.508983" lon="-5.197833">
        <ele>1551.0</ele>
        <time>2018-07-28T13:25:48Z</time>
      </trkpt>
      <trkpt lat="40.508933" lon="-5.197917">
        <ele>1552.0</ele>
        <time>2018-07-28T13:25:49Z</time>
      </trkpt>
      <trkpt lat="40.508867" lon="-5.197983">
        <ele>1554.0</ele>
        <time>2018-07-28T13:25:50Z</time>
      </trkpt>
      <trkpt lat="40.508800" lon="-5.198017">
        <ele>1554.0</ele>
        <time>2018-07-28T13:25:51Z</time>
      </trkpt>
      <trkpt lat="40.508717" lon="-5.198017">
        <ele>1554.0</ele>
        <time>2018-07-28T13:25:52Z</time>
      </trkpt>
      <trkpt lat="40.508633" lon="-5.198050">
        <ele>1554.0</ele>
        <time>2018-07-28T13:25:53Z</time>
      </trkpt>
      <trkpt lat="40.508567" lon="-5.198083">
        <ele>1553.0</ele>
        <time>2018-07-28T13:25:54Z</time>
      </trkpt>
      <trkpt lat="40.508517" lon="-5.198167">
        <ele>1551.0</ele>
        <time>2018-07-28T13:25:55Z</time>
      </trkpt>
      <trkpt lat="40.508517" lon="-5.198267">
        <ele>1549.0</ele>
        <time>2018-07-28T13:25:56Z</time>
      </trkpt>
      <trkpt lat="40.508533" lon="-5.198383">
        <ele>1546.0</ele>
        <time>2018-07-28T13:25:57Z</time>
      </trkpt>
      <trkpt lat="40.508600" lon="-5.198500">
        <ele>1545.0</ele>
        <time>2018-07-28T13:25:58Z</time>
      </trkpt>
      <trkpt lat="40.508667" lon="-5.198567">
        <ele>1545.0</ele>
        <time>2018-07-28T13:25:59Z</time>
      </trkpt>
      <trkpt lat="40.508750" lon="-5.198600">
        <ele>1545.0</ele>
        <time>2018-07-28T13:26:00Z</time>
      </trkpt>
      <trkpt lat="40.508833" lon="-5.198600">
        <ele>1543.0</ele>
        <time>2018-07-28T13:26:01Z</time>
      </trkpt>
      <trkpt lat="40.508917" lon="-5.198583">
        <ele>1540.0</ele>
        <time>2018-07-28T13:26:02Z</time>
      </trkpt>
      <trkpt lat="40.509017" lon="-5.198517">
        <ele>1536.0</ele>
        <time>2018-07-28T13:26:03Z</time>
      </trkpt>
      <trkpt lat="40.509117" lon="-5.198417">
        <ele>1533.0</ele>
        <time>2018-07-28T13:26:04Z</time>
      </trkpt>
      <trkpt lat="40.509200" lon="-5.198267">
        <ele>1531.0</ele>
        <time>2018-07-28T13:26:05Z</time>
      </trkpt>
      <trkpt lat="40.509250" lon="-5.198067">
        <ele>1530.0</ele>
        <time>2018-07-28T13:26:06Z</time>
      </trkpt>
      <trkpt lat="40.509250" lon="-5.197883">
        <ele>1533.0</ele>
        <time>2018-07-28T13:26:07Z</time>
      </trkpt>
      <trkpt lat="40.509250" lon="-5.197717">
        <ele>1537.0</ele>
        <time>2018-07-28T13:26:08Z</time>
      </trkpt>
      <trkpt lat="40.509267" lon="-5.197583">
        <ele>1541.0</ele>
        <time>2018-07-28T13:26:09Z</time>
      </trkpt>
      <trkpt lat="40.509300" lon="-5.197467">
        <ele>1543.0</ele>
        <time>2018-07-28T13:26:10Z</time>
      </trkpt>
      <trkpt lat="40.509350" lon="-5.197333">
        <ele>1543.0</ele>
        <time>2018-07-28T13:26:11Z</time>
      </trkpt>
      <trkpt lat="40.509433" lon="-5.197217">
        <ele>1544.0</ele>
        <time>2018-07-28T13:26:12Z</time>
      </trkpt>
      <trkpt lat="40.509500" lon="-5.197083">
        <ele>1545.0</ele>
        <time>2018-07-28T13:26:13Z</time>
      </trkpt>
      <trkpt lat="40.509583" lon="-5.196983">
        <ele>1547.0</ele>
        <time>2018-07-28T13:26:14Z</time>
      </trkpt>
      <trkpt lat="40.509650" lon="-5.196867">
        <ele>1550.0</ele>
        <time>2018-07-28T13:26:15Z</time>
      </trkpt>
      <trkpt lat="40.509700" lon="-5.196767">
        <ele>1551.0</ele>
        <time>2018-07-28T13:26:16Z</time>
      </trkpt>
      <trkpt lat="40.509733" lon="-5.196650">
        <ele>1552.0</ele>
        <time>2018-07-28T13:26:17Z</time>
      </trkpt>
      <trkpt lat="40.509750" lon="-5.196533">
        <ele>1552.0</ele>
        <time>2018-07-28T13:26:18Z</time>
      </trkpt>
      <trkpt lat="40.509767" lon="-5.196417">
        <ele>1553.0</ele>
        <time>2018-07-28T13:26:19Z</time>
      </trkpt>
      <trkpt lat="40.509767" lon="-5.196300">
        <ele>1554.0</ele>
        <time>2018-07-28T13:26:20Z</time>
      </trkpt>
      <trkpt lat="40.509750" lon="-5.196200">
        <ele>1555.0</ele>
        <time>2018-07-28T13:26:21Z</time>
      </trkpt>
      <trkpt lat="40.509733" lon="-5.196100">
        <ele>1556.0</ele>
        <time>2018-07-28T13:26:22Z</time>
      </trkpt>
      <trkpt lat="40.509683" lon="-5.196017">
        <ele>1556.0</ele>
        <time>2018-07-28T13:26:23Z</time>
      </trkpt>
      <trkpt lat="40.509617" lon="-5.195917">
        <ele>1556.0</ele>
        <time>2018-07-28T13:26:24Z</time>
      </trkpt>
      <trkpt lat="40.509550" lon="-5.195850">
        <ele>1556.0</ele>
        <time>2018-07-28T13:26:25Z</time>
      </trkpt>
      <trkpt lat="40.509483" lon="-5.195783">
        <ele>1556.0</ele>
        <time>2018-07-28T13:26:26Z</time>
      </trkpt>
      <trkpt lat="40.509400" lon="-5.195733">
        <ele>1557.0</ele>
        <time>2018-07-28T13:26:27Z</time>
      </trkpt>
      <trkpt lat="40.509317" lon="-5.195717">
        <ele>1558.0</ele>
        <time>2018-07-28T13:26:28Z</time>
      </trkpt>
      <trkpt lat="40.509233" lon="-5.195733">
        <ele>1560.0</ele>
        <time>2018-07-28T13:26:29Z</time>
      </trkpt>
      <trkpt lat="40.509133" lon="-5.195750">
        <ele>1562.0</ele>
        <time>2018-07-28T13:26:30Z</time>
      </trkpt>
      <trkpt lat="40.509050" lon="-5.195750">
        <ele>1564.0</ele>
        <time>2018-07-28T13:26:31Z</time>
      </trkpt>
      <trkpt lat="40.508967" lon="-5.195733">
        <ele>1565.0</ele>
        <time>2018-07-28T13:26:32Z</time>
      </trkpt>
      <trkpt lat="40.508883" lon="-5.195700">
        <ele>1566.0</ele>
        <time>2018-07-28T13:26:33Z</time>
      </trkpt>
      <trkpt lat="40.508800" lon="-5.195633">
        <ele>1565.0</ele>
        <time>2018-07-28T13:26:34Z</time>
      </trkpt>
      <trkpt lat="40.508700" lon="-5.195567">
        <ele>1565.0</ele>
        <time>2018-07-28T13:26:35Z</time>
      </trkpt>
      <trkpt lat="40.508600" lon="-5.195550">
        <ele>1564.0</ele>
        <time>2018-07-28T13:26:36Z</time>
      </trkpt>
      <trkpt lat="40.508500" lon="-5.195550">
        <ele>1562.0</ele>
        <time>2018-07-28T13:26:37Z</time>
      </trkpt>
      <trkpt lat="40.508417" lon="-5.195583">
        <ele>1561.0</ele>
        <time>2018-07-28T13:26:38Z</time>
      </trkpt>
      <trkpt lat="40.508333" lon="-5.195633">
        <ele>1561.0</ele>
        <time>2018-07-28T13:26:39Z</time>
      </trkpt>
      <trkpt lat="40.508267" lon="-5.195683">
        <ele>1560.0</ele>
        <time>2018-07-28T13:26:40Z</time>
      </trkpt>
      <trkpt lat="40.508217" lon="-5.195750">
        <ele>1559.0</ele>
        <time>2018-07-28T13:26:41Z</time>
      </trkpt>
      <trkpt lat="40.508167" lon="-5.195800">
        <ele>1557.0</ele>
        <time>2018-07-28T13:26:42Z</time>
      </trkpt>
      <trkpt lat="40.508117" lon="-5.195867">
        <ele>1554.0</ele>
        <time>2018-07-28T13:26:43Z</time>
      </trkpt>
      <trkpt lat="40.508067" lon="-5.195917">
        <ele>1551.0</ele>
        <time>2018-07-28T13:26:44Z</time>
      </trkpt>
      <trkpt lat="40.508033" lon="-5.195983">
        <ele>1548.0</ele>
        <time>2018-07-28T13:26:45Z</time>
      </trkpt>
      <trkpt lat="40.508000" lon="-5.196050">
        <ele>1543.0</ele>
        <time>2018-07-28T13:26:46Z</time>
      </trkpt>
      <trkpt lat="40.507967" lon="-5.196117">
        <ele>1538.0</ele>
        <time>2018-07-28T13:26:47Z</time>
      </trkpt>
      <trkpt lat="40.507950" lon="-5.196217">
        <ele>1534.0</ele>
        <time>2018-07-28T13:26:48Z</time>
      </trkpt>
      <trkpt lat="40.507933" lon="-5.196300">
        <ele>1531.0</ele>
        <time>2018-07-28T13:26:49Z</time>
      </trkpt>
      <trkpt lat="40.507933" lon="-5.196400">
        <ele>1528.0</ele>
        <time>2018-07-28T13:26:50Z</time>
      </trkpt>
      <trkpt lat="40.507917" lon="-5.196467">
        <ele>1526.0</ele>
        <time>2018-07-28T13:26:51Z</time>
      </trkpt>
      <trkpt lat="40.507900" lon="-5.196533">
        <ele>1522.0</ele>
        <time>2018-07-28T13:26:52Z</time>
      </trkpt>
      <trkpt lat="40.507867" lon="-5.196600">
        <ele>1518.0</ele>
        <time>2018-07-28T13:26:53Z</time>
      </trkpt>
      <trkpt lat="40.507850" lon="-5.196683">
        <ele>1514.0</ele>
        <time>2018-07-28T13:26:54Z</time>
      </trkpt>
      <trkpt lat="40.507833" lon="-5.196783">
        <ele>1510.0</ele>
        <time>2018-07-28T13:26:55Z</time>
      </trkpt>
      <trkpt lat="40.507833" lon="-5.196883">
        <ele>1506.0</ele>
        <time>2018-07-28T13:26:56Z</time>
      </trkpt>
      <trkpt lat="40.507817" lon="-5.196983">
        <ele>1503.0</ele>
        <time>2018-07-28T13:26:57Z</time>
      </trkpt>
      <trkpt lat="40.507817" lon="-5.197067">
        <ele>1500.0</ele>
        <time>2018-07-28T13:26:58Z</time>
      </trkpt>
      <trkpt lat="40.507833" lon="-5.197167">
        <ele>1497.0</ele>
        <time>2018-07-28T13:26:59Z</time>
      </trkpt>
      <trkpt lat="40.507850" lon="-5.197250">
        <ele>1494.0</ele>
        <time>2018-07-28T13:27:00Z</time>
      </trkpt>
      <trkpt lat="40.507867" lon="-5.197350">
        <ele>1491.0</ele>
        <time>2018-07-28T13:27:01Z</time>
      </trkpt>
      <trkpt lat="40.507883" lon="-5.197450">
        <ele>1488.0</ele>
        <time>2018-07-28T13:27:02Z</time>
      </trkpt>
      <trkpt lat="40.507883" lon="-5.197550">
        <ele>1485.0</ele>
        <time>2018-07-28T13:27:03Z</time>
      </trkpt>
      <trkpt lat="40.507917" lon="-5.197650">
        <ele>1482.0</ele>
        <time>2018-07-28T13:27:04Z</time>
      </trkpt>
      <trkpt lat="40.507950" lon="-5.197733">
        <ele>1479.0</ele>
        <time>2018-07-28T13:27:05Z</time>
      </trkpt>
      <trkpt lat="40.507983" lon="-5.197833">
        <ele>1477.0</ele>
        <time>2018-07-28T13:27:06Z</time>
      </trkpt>
      <trkpt lat="40.508017" lon="-5.197933">
        <ele>1474.0</ele>
        <time>2018-07-28T13:27:07Z</time>
      </trkpt>
      <trkpt lat="40.508017" lon="-5.198033">
        <ele>1471.0</ele>
        <time>2018-07-28T13:27:08Z</time>
      </trkpt>
      <trkpt lat="40.508033" lon="-5.198133">
        <ele>1467.0</ele>
        <time>2018-07-28T13:27:09Z</time>
      </trkpt>
      <trkpt lat="40.508033" lon="-5.198233">
        <ele>1465.0</ele>
        <time>2018-07-28T13:27:10Z</time>
      </trkpt>
      <trkpt lat="40.508033" lon="-5.198333">
        <ele>1462.0</ele>
        <time>2018-07-28T13:27:11Z</time>
      </trkpt>
      <trkpt lat="40.508033" lon="-5.198433">
        <ele>1460.0</ele>
        <time>2018-07-28T13:27:12Z</time>
      </trkpt>
      <trkpt lat="40.508033" lon="-5.198517">
        <ele>1456.0</ele>
        <time>2018-07-28T13:27:13Z</time>
      </trkpt>
      <trkpt lat="40.508017" lon="-5.198600">
        <ele>1453.0</ele>
        <time>2018-07-28T13:27:14Z</time>
      </trkpt>
      <trkpt lat="40.507983" lon="-5.198683">
        <ele>1449.0</ele>
        <time>2018-07-28T13:27:15Z</time>
      </trkpt>
      <trkpt lat="40.507983" lon="-5.198800">
        <ele>1445.0</ele>
        <time>2018-07-28T13:27:16Z</time>
      </trkpt>
      <trkpt lat="40.507967" lon="-5.198900">
        <ele>1441.0</ele>
        <time>2018-07-28T13:27:17Z</time>
      </trkpt>
      <trkpt lat="40.507950" lon="-5.199017">
        <ele>1439.0</ele>
        <time>2018-07-28T13:27:18Z</time>
      </trkpt>
      <trkpt lat="40.507950" lon="-5.199133">
        <ele>1437.0</ele>
        <time>2018-07-28T13:27:19Z</time>
      </trkpt>
      <trkpt lat="40.507933" lon="-5.199233">
        <ele>1435.0</ele>
        <time>2018-07-28T13:27:20Z</time>
      </trkpt>
      <trkpt lat="40.507933" lon="-5.199350">
        <ele>1433.0</ele>
        <time>2018-07-28T13:27:21Z</time>
      </trkpt>
      <trkpt lat="40.507933" lon="-5.199467">
        <ele>1431.0</ele>
        <time>2018-07-28T13:27:22Z</time>
      </trkpt>
      <trkpt lat="40.507933" lon="-5.199600">
        <ele>1429.0</ele>
        <time>2018-07-28T13:27:23Z</time>
      </trkpt>
      <trkpt lat="40.507933" lon="-5.199717">
        <ele>1427.0</ele>
        <time>2018-07-28T13:27:24Z</time>
      </trkpt>
      <trkpt lat="40.507917" lon="-5.199850">
        <ele>1426.0</ele>
        <time>2018-07-28T13:27:25Z</time>
      </trkpt>
      <trkpt lat="40.507917" lon="-5.199967">
        <ele>1425.0</ele>
        <time>2018-07-28T13:27:26Z</time>
      </trkpt>
      <trkpt lat="40.507917" lon="-5.200083">
        <ele>1423.0</ele>
        <time>2018-07-28T13:27:27Z</time>
      </trkpt>
      <trkpt lat="40.507917" lon="-5.200200">
        <ele>1421.0</ele>
        <time>2018-07-28T13:27:28Z</time>
      </trkpt>
      <trkpt lat="40.507917" lon="-5.200317">
        <ele>1418.0</ele>
        <time>2018-07-28T13:27:29Z</time>
      </trkpt>
      <trkpt lat="40.507900" lon="-5.200450">
        <ele>1416.0</ele>
        <time>2018-07-28T13:27:30Z</time>
      </trkpt>
      <trkpt lat="40.507883" lon="-5.200583">
        <ele>1413.0</ele>
        <time>2018-07-28T13:27:31Z</time>
      </trkpt>
      <trkpt lat="40.507867" lon="-5.200717">
        <ele>1412.0</ele>
        <time>2018-07-28T13:27:32Z</time>
      </trkpt>
      <trkpt lat="40.507833" lon="-5.200850">
        <ele>1411.0</ele>
        <time>2018-07-28T13:27:33Z</time>
      </trkpt>
      <trkpt lat="40.507800" lon="-5.200950">
        <ele>1412.0</ele>
        <time>2018-07-28T13:27:34Z</time>
      </trkpt>
      <trkpt lat="40.507783" lon="-5.201050">
        <ele>1412.0</ele>
        <time>2018-07-28T13:27:35Z</time>
      </trkpt>
      <trkpt lat="40.507767" lon="-5.201150">
        <ele>1412.0</ele>
        <time>2018-07-28T13:27:36Z</time>
      </trkpt>
      <trkpt lat="40.507750" lon="-5.201250">
        <ele>1411.0</ele>
        <time>2018-07-28T13:27:37Z</time>
      </trkpt>
      <trkpt lat="40.507717" lon="-5.201350">
        <ele>1409.0</ele>
        <time>2018-07-28T13:27:38Z</time>
      </trkpt>
      <trkpt lat="40.507700" lon="-5.201467">
        <ele>1407.0</ele>
        <time>2018-07-28T13:27:39Z</time>
      </trkpt>
      <trkpt lat="40.507683" lon="-5.201583">
        <ele>1407.0</ele>
        <time>2018-07-28T13:27:40Z</time>
      </trkpt>
      <trkpt lat="40.507667" lon="-5.201700">
        <ele>1408.0</ele>
        <time>2018-07-28T13:27:41Z</time>
      </trkpt>
      <trkpt lat="40.507650" lon="-5.201783">
        <ele>1409.0</ele>
        <time>2018-07-28T13:27:42Z</time>
      </trkpt>
      <trkpt lat="40.507633" lon="-5.201867">
        <ele>1409.0</ele>
        <time>2018-07-28T13:27:43Z</time>
      </trkpt>
      <trkpt lat="40.507600" lon="-5.201950">
        <ele>1408.0</ele>
        <time>2018-07-28T13:27:44Z</time>
      </trkpt>
      <trkpt lat="40.507567" lon="-5.202033">
        <ele>1406.0</ele>
        <time>2018-07-28T13:27:45Z</time>
      </trkpt>
      <trkpt lat="40.507533" lon="-5.202117">
        <ele>1405.0</ele>
        <time>2018-07-28T13:27:46Z</time>
      </trkpt>
      <trkpt lat="40.507483" lon="-5.202200">
        <ele>1404.0</ele>
        <time>2018-07-28T13:27:47Z</time>
      </trkpt>
      <trkpt lat="40.507433" lon="-5.202283">
        <ele>1403.0</ele>
        <time>2018-07-28T13:27:48Z</time>
      </trkpt>
      <trkpt lat="40.507383" lon="-5.202350">
        <ele>1403.0</ele>
        <time>2018-07-28T13:27:49Z</time>
      </trkpt>
      <trkpt lat="40.507333" lon="-5.202417">
        <ele>1402.0</ele>
        <time>2018-07-28T13:27:50Z</time>
      </trkpt>
      <trkpt lat="40.507300" lon="-5.202483">
        <ele>1401.0</ele>
        <time>2018-07-28T13:27:51Z</time>
      </trkpt>
      <trkpt lat="40.507283" lon="-5.202567">
        <ele>1399.0</ele>
        <time>2018-07-28T13:27:52Z</time>
      </trkpt>
      <trkpt lat="40.507250" lon="-5.202667">
        <ele>1398.0</ele>
        <time>2018-07-28T13:27:53Z</time>
      </trkpt>
      <trkpt lat="40.507217" lon="-5.202767">
        <ele>1396.0</ele>
        <time>2018-07-28T13:27:54Z</time>
      </trkpt>
      <trkpt lat="40.507200" lon="-5.202867">
        <ele>1395.0</ele>
        <time>2018-07-28T13:27:55Z</time>
      </trkpt>
      <trkpt lat="40.507167" lon="-5.202967">
        <ele>1394.0</ele>
        <time>2018-07-28T13:27:56Z</time>
      </trkpt>
      <trkpt lat="40.507117" lon="-5.203050">
        <ele>1393.0</ele>
        <time>2018-07-28T13:27:57Z</time>
      </trkpt>
      <trkpt lat="40.507083" lon="-5.203133">
        <ele>1392.0</ele>
        <time>2018-07-28T13:27:58Z</time>
      </trkpt>
      <trkpt lat="40.507017" lon="-5.203200">
        <ele>1390.0</ele>
        <time>2018-07-28T13:27:59Z</time>
      </trkpt>
      <trkpt lat="40.506967" lon="-5.203283">
        <ele>1389.0</ele>
        <time>2018-07-28T13:28:00Z</time>
      </trkpt>
      <trkpt lat="40.506917" lon="-5.203383">
        <ele>1387.0</ele>
        <time>2018-07-28T13:28:01Z</time>
      </trkpt>
      <trkpt lat="40.506867" lon="-5.203483">
        <ele>1387.0</ele>
        <time>2018-07-28T13:28:02Z</time>
      </trkpt>
      <trkpt lat="40.506833" lon="-5.203567">
        <ele>1386.0</ele>
        <time>2018-07-28T13:28:03Z</time>
      </trkpt>
      <trkpt lat="40.506783" lon="-5.203667">
        <ele>1386.0</ele>
        <time>2018-07-28T13:28:04Z</time>
      </trkpt>
      <trkpt lat="40.506750" lon="-5.203750">
        <ele>1386.0</ele>
        <time>2018-07-28T13:28:05Z</time>
      </trkpt>
      <trkpt lat="40.506717" lon="-5.203833">
        <ele>1385.0</ele>
        <time>2018-07-28T13:28:06Z</time>
      </trkpt>
      <trkpt lat="40.506683" lon="-5.203917">
        <ele>1383.0</ele>
        <time>2018-07-28T13:28:07Z</time>
      </trkpt>
      <trkpt lat="40.506650" lon="-5.204017">
        <ele>1382.0</ele>
        <time>2018-07-28T13:28:08Z</time>
      </trkpt>
      <trkpt lat="40.506617" lon="-5.204117">
        <ele>1381.0</ele>
        <time>2018-07-28T13:28:09Z</time>
      </trkpt>
      <trkpt lat="40.506583" lon="-5.204217">
        <ele>1380.0</ele>
        <time>2018-07-28T13:28:10Z</time>
      </trkpt>
      <trkpt lat="40.506550" lon="-5.204300">
        <ele>1380.0</ele>
        <time>2018-07-28T13:28:11Z</time>
      </trkpt>
      <trkpt lat="40.506500" lon="-5.204383">
        <ele>1380.0</ele>
        <time>2018-07-28T13:28:12Z</time>
      </trkpt>
      <trkpt lat="40.506467" lon="-5.204450">
        <ele>1379.0</ele>
        <time>2018-07-28T13:28:13Z</time>
      </trkpt>
      <trkpt lat="40.506417" lon="-5.204533">
        <ele>1378.0</ele>
        <time>2018-07-28T13:28:14Z</time>
      </trkpt>
      <trkpt lat="40.506383" lon="-5.204617">
        <ele>1376.0</ele>
        <time>2018-07-28T13:28:15Z</time>
      </trkpt>
      <trkpt lat="40.506350" lon="-5.204717">
        <ele>1373.0</ele>
        <time>2018-07-28T13:28:16Z</time>
      </trkpt>
      <trkpt lat="40.506300" lon="-5.204800">
        <ele>1372.0</ele>
        <time>2018-07-28T13:28:17Z</time>
      </trkpt>
      <trkpt lat="40.506250" lon="-5.204883">
        <ele>1371.0</ele>
        <time>2018-07-28T13:28:18Z</time>
      </trkpt>
      <trkpt lat="40.506200" lon="-5.204967">
        <ele>1371.0</ele>
        <time>2018-07-28T13:28:19Z</time>
      </trkpt>
      <trkpt lat="40.506167" lon="-5.205067">
        <ele>1371.0</ele>
        <time>2018-07-28T13:28:20Z</time>
      </trkpt>
      <trkpt lat="40.506150" lon="-5.205133">
        <ele>1371.0</ele>
        <time>2018-07-28T13:28:21Z</time>
      </trkpt>
      <trkpt lat="40.506117" lon="-5.205217">
        <ele>1371.0</ele>
        <time>2018-07-28T13:28:22Z</time>
      </trkpt>
      <trkpt lat="40.506083" lon="-5.205283">
        <ele>1370.0</ele>
        <time>2018-07-28T13:28:23Z</time>
      </trkpt>
      <trkpt lat="40.506050" lon="-5.205367">
        <ele>1369.0</ele>
        <time>2018-07-28T13:28:24Z</time>
      </trkpt>
      <trkpt lat="40.506017" lon="-5.205483">
        <ele>1368.0</ele>
        <time>2018-07-28T13:28:25Z</time>
      </trkpt>
      <trkpt lat="40.505983" lon="-5.205600">
        <ele>1368.0</ele>
        <time>2018-07-28T13:28:26Z</time>
      </trkpt>
      <trkpt lat="40.505950" lon="-5.205700">
        <ele>1370.0</ele>
        <time>2018-07-28T13:28:27Z</time>
      </trkpt>
      <trkpt lat="40.505933" lon="-5.205800">
        <ele>1373.0</ele>
        <time>2018-07-28T13:28:28Z</time>
      </trkpt>
      <trkpt lat="40.505900" lon="-5.205867">
        <ele>1375.0</ele>
        <time>2018-07-28T13:28:29Z</time>
      </trkpt>
      <trkpt lat="40.505883" lon="-5.205933">
        <ele>1376.0</ele>
        <time>2018-07-28T13:28:30Z</time>
      </trkpt>
      <trkpt lat="40.505867" lon="-5.205983">
        <ele>1375.0</ele>
        <time>2018-07-28T13:28:31Z</time>
      </trkpt>
      <trkpt lat="40.505833" lon="-5.206050">
        <ele>1373.0</ele>
        <time>2018-07-28T13:28:32Z</time>
      </trkpt>
      <trkpt lat="40.505800" lon="-5.206150">
        <ele>1371.0</ele>
        <time>2018-07-28T13:28:33Z</time>
      </trkpt>
      <trkpt lat="40.505767" lon="-5.206250">
        <ele>1370.0</ele>
        <time>2018-07-28T13:28:34Z</time>
      </trkpt>
      <trkpt lat="40.505733" lon="-5.206350">
        <ele>1370.0</ele>
        <time>2018-07-28T13:28:35Z</time>
      </trkpt>
      <trkpt lat="40.505700" lon="-5.206433">
        <ele>1372.0</ele>
        <time>2018-07-28T13:28:36Z</time>
      </trkpt>
      <trkpt lat="40.505683" lon="-5.206500">
        <ele>1374.0</ele>
        <time>2018-07-28T13:28:37Z</time>
      </trkpt>
      <trkpt lat="40.505683" lon="-5.206567">
        <ele>1376.0</ele>
        <time>2018-07-28T13:28:38Z</time>
      </trkpt>
      <trkpt lat="40.505667" lon="-5.206633">
        <ele>1377.0</ele>
        <time>2018-07-28T13:28:39Z</time>
      </trkpt>
      <trkpt lat="40.505650" lon="-5.206683">
        <ele>1377.0</ele>
        <time>2018-07-28T13:28:40Z</time>
      </trkpt>
      <trkpt lat="40.505633" lon="-5.206750">
        <ele>1376.0</ele>
        <time>2018-07-28T13:28:41Z</time>
      </trkpt>
      <trkpt lat="40.505600" lon="-5.206833">
        <ele>1376.0</ele>
        <time>2018-07-28T13:28:42Z</time>
      </trkpt>
      <trkpt lat="40.505567" lon="-5.206917">
        <ele>1377.0</ele>
        <time>2018-07-28T13:28:43Z</time>
      </trkpt>
      <trkpt lat="40.505567" lon="-5.207017">
        <ele>1379.0</ele>
        <time>2018-07-28T13:28:44Z</time>
      </trkpt>
      <trkpt lat="40.505567" lon="-5.207100">
        <ele>1380.0</ele>
        <time>2018-07-28T13:28:45Z</time>
      </trkpt>
      <trkpt lat="40.505567" lon="-5.207167">
        <ele>1381.0</ele>
        <time>2018-07-28T13:28:46Z</time>
      </trkpt>
      <trkpt lat="40.505583" lon="-5.207250">
        <ele>1381.0</ele>
        <time>2018-07-28T13:28:47Z</time>
      </trkpt>
      <trkpt lat="40.505600" lon="-5.207333">
        <ele>1380.0</ele>
        <time>2018-07-28T13:28:48Z</time>
      </trkpt>
      <trkpt lat="40.505633" lon="-5.207433">
        <ele>1379.0</ele>
        <time>2018-07-28T13:28:49Z</time>
      </trkpt>
      <trkpt lat="40.505667" lon="-5.207550">
        <ele>1379.0</ele>
        <time>2018-07-28T13:28:50Z</time>
      </trkpt>
      <trkpt lat="40.505700" lon="-5.207650">
        <ele>1381.0</ele>
        <time>2018-07-28T13:28:51Z</time>
      </trkpt>
      <trkpt lat="40.505717" lon="-5.207733">
        <ele>1383.0</ele>
        <time>2018-07-28T13:28:52Z</time>
      </trkpt>
      <trkpt lat="40.505733" lon="-5.207783">
        <ele>1384.0</ele>
        <time>2018-07-28T13:28:53Z</time>
      </trkpt>
      <trkpt lat="40.505717" lon="-5.207833">
        <ele>1385.0</ele>
        <time>2018-07-28T13:28:54Z</time>
      </trkpt>
      <trkpt lat="40.505717" lon="-5.207867">
        <ele>1383.0</ele>
        <time>2018-07-28T13:28:55Z</time>
      </trkpt>
      <trkpt lat="40.505717" lon="-5.207917">
        <ele>1382.0</ele>
        <time>2018-07-28T13:28:56Z</time>
      </trkpt>
      <trkpt lat="40.505717" lon="-5.207983">
        <ele>1380.0</ele>
        <time>2018-07-28T13:28:57Z</time>
      </trkpt>
      <trkpt lat="40.505683" lon="-5.208050">
        <ele>1378.0</ele>
        <time>2018-07-28T13:28:58Z</time>
      </trkpt>
      <trkpt lat="40.505650" lon="-5.208117">
        <ele>1376.0</ele>
        <time>2018-07-28T13:28:59Z</time>
      </trkpt>
      <trkpt lat="40.505600" lon="-5.208183">
        <ele>1374.0</ele>
        <time>2018-07-28T13:29:00Z</time>
      </trkpt>
      <trkpt lat="40.505567" lon="-5.208250">
        <ele>1373.0</ele>
        <time>2018-07-28T13:29:01Z</time>
      </trkpt>
      <trkpt lat="40.505517" lon="-5.208333">
        <ele>1372.0</ele>
        <time>2018-07-28T13:29:02Z</time>
      </trkpt>
      <trkpt lat="40.505483" lon="-5.208417">
        <ele>1372.0</ele>
        <time>2018-07-28T13:29:03Z</time>
      </trkpt>
      <trkpt lat="40.505417" lon="-5.208517">
        <ele>1374.0</ele>
        <time>2018-07-28T13:29:04Z</time>
      </trkpt>
      <trkpt lat="40.505367" lon="-5.208583">
        <ele>1376.0</ele>
        <time>2018-07-28T13:29:05Z</time>
      </trkpt>
      <trkpt lat="40.505317" lon="-5.208650">
        <ele>1378.0</ele>
        <time>2018-07-28T13:29:06Z</time>
      </trkpt>
      <trkpt lat="40.505250" lon="-5.208700">
        <ele>1379.0</ele>
        <time>2018-07-28T13:29:07Z</time>
      </trkpt>
      <trkpt lat="40.505200" lon="-5.208750">
        <ele>1378.0</ele>
        <time>2018-07-28T13:29:08Z</time>
      </trkpt>
      <trkpt lat="40.505133" lon="-5.208800">
        <ele>1376.0</ele>
        <time>2018-07-28T13:29:09Z</time>
      </trkpt>
      <trkpt lat="40.505083" lon="-5.208867">
        <ele>1374.0</ele>
        <time>2018-07-28T13:29:10Z</time>
      </trkpt>
      <trkpt lat="40.505033" lon="-5.208933">
        <ele>1372.0</ele>
        <time>2018-07-28T13:29:11Z</time>
      </trkpt>
      <trkpt lat="40.505000" lon="-5.209017">
        <ele>1369.0</ele>
        <time>2018-07-28T13:29:12Z</time>
      </trkpt>
      <trkpt lat="40.504983" lon="-5.209083">
        <ele>1367.0</ele>
        <time>2018-07-28T13:29:13Z</time>
      </trkpt>
      <trkpt lat="40.504950" lon="-5.209167">
        <ele>1365.0</ele>
        <time>2018-07-28T13:29:14Z</time>
      </trkpt>
      <trkpt lat="40.504917" lon="-5.209233">
        <ele>1363.0</ele>
        <time>2018-07-28T13:29:15Z</time>
      </trkpt>
      <trkpt lat="40.504883" lon="-5.209283">
        <ele>1360.0</ele>
        <time>2018-07-28T13:29:16Z</time>
      </trkpt>
      <trkpt lat="40.504850" lon="-5.209367">
        <ele>1358.0</ele>
        <time>2018-07-28T13:29:17Z</time>
      </trkpt>
      <trkpt lat="40.504817" lon="-5.209433">
        <ele>1355.0</ele>
        <time>2018-07-28T13:29:18Z</time>
      </trkpt>
      <trkpt lat="40.504783" lon="-5.209517">
        <ele>1353.0</ele>
        <time>2018-07-28T13:29:19Z</time>
      </trkpt>
      <trkpt lat="40.504750" lon="-5.209600">
        <ele>1351.0</ele>
        <time>2018-07-28T13:29:20Z</time>
      </trkpt>
      <trkpt lat="40.504717" lon="-5.209683">
        <ele>1349.0</ele>
        <time>2018-07-28T13:29:21Z</time>
      </trkpt>
      <trkpt lat="40.504683" lon="-5.209767">
        <ele>1348.0</ele>
        <time>2018-07-28T13:29:22Z</time>
      </trkpt>
      <trkpt lat="40.504667" lon="-5.209850">
        <ele>1346.0</ele>
        <time>2018-07-28T13:29:23Z</time>
      </trkpt>
      <trkpt lat="40.504633" lon="-5.209933">
        <ele>1344.0</ele>
        <time>2018-07-28T13:29:24Z</time>
      </trkpt>
      <trkpt lat="40.504617" lon="-5.210017">
        <ele>1343.0</ele>
        <time>2018-07-28T13:29:25Z</time>
      </trkpt>
      <trkpt lat="40.504600" lon="-5.210100">
        <ele>1341.0</ele>
        <time>2018-07-28T13:29:26Z</time>
      </trkpt>
      <trkpt lat="40.504567" lon="-5.210167">
        <ele>1339.0</ele>
        <time>2018-07-28T13:29:27Z</time>
      </trkpt>
      <trkpt lat="40.504517" lon="-5.210250">
        <ele>1337.0</ele>
        <time>2018-07-28T13:29:28Z</time>
      </trkpt>
      <trkpt lat="40.504467" lon="-5.210317">
        <ele>1335.0</ele>
        <time>2018-07-28T13:29:29Z</time>
      </trkpt>
      <trkpt lat="40.504433" lon="-5.210383">
        <ele>1333.0</ele>
        <time>2018-07-28T13:29:30Z</time>
      </trkpt>
      <trkpt lat="40.504400" lon="-5.210467">
        <ele>1331.0</ele>
        <time>2018-07-28T13:29:31Z</time>
      </trkpt>
      <trkpt lat="40.504367" lon="-5.210550">
        <ele>1329.0</ele>
        <time>2018-07-28T13:29:32Z</time>
      </trkpt>
      <trkpt lat="40.504333" lon="-5.210633">
        <ele>1327.0</ele>
        <time>2018-07-28T13:29:33Z</time>
      </trkpt>
      <trkpt lat="40.504317" lon="-5.210700">
        <ele>1325.0</ele>
        <time>2018-07-28T13:29:34Z</time>
      </trkpt>
      <trkpt lat="40.504317" lon="-5.210783">
        <ele>1323.0</ele>
        <time>2018-07-28T13:29:35Z</time>
      </trkpt>
      <trkpt lat="40.504300" lon="-5.210867">
        <ele>1321.0</ele>
        <time>2018-07-28T13:29:36Z</time>
      </trkpt>
      <trkpt lat="40.504283" lon="-5.210933">
        <ele>1320.0</ele>
        <time>2018-07-28T13:29:37Z</time>
      </trkpt>
      <trkpt lat="40.504267" lon="-5.211017">
        <ele>1319.0</ele>
        <time>2018-07-28T13:29:38Z</time>
      </trkpt>
      <trkpt lat="40.504217" lon="-5.211083">
        <ele>1317.0</ele>
        <time>2018-07-28T13:29:39Z</time>
      </trkpt>
      <trkpt lat="40.504167" lon="-5.211133">
        <ele>1314.0</ele>
        <time>2018-07-28T13:29:40Z</time>
      </trkpt>
      <trkpt lat="40.504117" lon="-5.211183">
        <ele>1312.0</ele>
        <time>2018-07-28T13:29:41Z</time>
      </trkpt>
      <trkpt lat="40.504050" lon="-5.211233">
        <ele>1311.0</ele>
        <time>2018-07-28T13:29:42Z</time>
      </trkpt>
      <trkpt lat="40.503967" lon="-5.211250">
        <ele>1310.0</ele>
        <time>2018-07-28T13:29:43Z</time>
      </trkpt>
      <trkpt lat="40.503900" lon="-5.211250">
        <ele>1309.0</ele>
        <time>2018-07-28T13:29:44Z</time>
      </trkpt>
      <trkpt lat="40.503833" lon="-5.211250">
        <ele>1308.0</ele>
        <time>2018-07-28T13:29:45Z</time>
      </trkpt>
      <trkpt lat="40.503750" lon="-5.211233">
        <ele>1307.0</ele>
        <time>2018-07-28T13:29:46Z</time>
      </trkpt>
      <trkpt lat="40.503683" lon="-5.211217">
        <ele>1305.0</ele>
        <time>2018-07-28T13:29:47Z</time>
      </trkpt>
      <trkpt lat="40.503600" lon="-5.211233">
        <ele>1302.0</ele>
        <time>2018-07-28T13:29:48Z</time>
      </trkpt>
      <trkpt lat="40.503517" lon="-5.211233">
        <ele>1301.0</ele>
        <time>2018-07-28T13:29:49Z</time>
      </trkpt>
      <trkpt lat="40.503433" lon="-5.211250">
        <ele>1301.0</ele>
        <time>2018-07-28T13:29:50Z</time>
      </trkpt>
      <trkpt lat="40.503367" lon="-5.211267">
        <ele>1301.0</ele>
        <time>2018-07-28T13:29:51Z</time>
      </trkpt>
      <trkpt lat="40.503300" lon="-5.211300">
        <ele>1301.0</ele>
        <time>2018-07-28T13:29:52Z</time>
      </trkpt>
      <trkpt lat="40.503217" lon="-5.211317">
        <ele>1302.0</ele>
        <time>2018-07-28T13:29:53Z</time>
      </trkpt>
      <trkpt lat="40.503150" lon="-5.211350">
        <ele>1303.0</ele>
        <time>2018-07-28T13:29:54Z</time>
      </trkpt>
      <trkpt lat="40.503083" lon="-5.211350">
        <ele>1305.0</ele>
        <time>2018-07-28T13:29:55Z</time>
      </trkpt>
      <trkpt lat="40.503017" lon="-5.211350">
        <ele>1306.0</ele>
        <time>2018-07-28T13:29:56Z</time>
      </trkpt>
      <trkpt lat="40.502950" lon="-5.211367">
        <ele>1306.0</ele>
        <time>2018-07-28T13:29:57Z</time>
      </trkpt>
      <trkpt lat="40.502883" lon="-5.211367">
        <ele>1306.0</ele>
        <time>2018-07-28T13:29:58Z</time>
      </trkpt>
      <trkpt lat="40.502833" lon="-5.211417">
        <ele>1305.0</ele>
        <time>2018-07-28T13:29:59Z</time>
      </trkpt>
      <trkpt lat="40.502783" lon="-5.211467">
        <ele>1304.0</ele>
        <time>2018-07-28T13:30:00Z</time>
      </trkpt>
      <trkpt lat="40.502750" lon="-5.211533">
        <ele>1304.0</ele>
        <time>2018-07-28T13:30:01Z</time>
      </trkpt>
      <trkpt lat="40.502733" lon="-5.211600">
        <ele>1303.0</ele>
        <time>2018-07-28T13:30:02Z</time>
      </trkpt>
      <trkpt lat="40.502717" lon="-5.211683">
        <ele>1302.0</ele>
        <time>2018-07-28T13:30:03Z</time>
      </trkpt>
      <trkpt lat="40.502683" lon="-5.211733">
        <ele>1301.0</ele>
        <time>2018-07-28T13:30:04Z</time>
      </trkpt>
      <trkpt lat="40.502667" lon="-5.211800">
        <ele>1300.0</ele>
        <time>2018-07-28T13:30:05Z</time>
      </trkpt>
      <trkpt lat="40.502633" lon="-5.211850">
        <ele>1299.0</ele>
        <time>2018-07-28T13:30:06Z</time>
      </trkpt>
      <trkpt lat="40.502600" lon="-5.211900">
        <ele>1298.0</ele>
        <time>2018-07-28T13:30:07Z</time>
      </trkpt>
      <trkpt lat="40.502550" lon="-5.211950">
        <ele>1296.0</ele>
        <time>2018-07-28T13:30:08Z</time>
      </trkpt>
      <trkpt lat="40.502500" lon="-5.211967">
        <ele>1295.0</ele>
        <time>2018-07-28T13:30:09Z</time>
      </trkpt>
      <trkpt lat="40.502417" lon="-5.211967">
        <ele>1293.0</ele>
        <time>2018-07-28T13:30:10Z</time>
      </trkpt>
      <trkpt lat="40.502333" lon="-5.211950">
        <ele>1291.0</ele>
        <time>2018-07-28T13:30:11Z</time>
      </trkpt>
      <trkpt lat="40.502250" lon="-5.211933">
        <ele>1289.0</ele>
        <time>2018-07-28T13:30:12Z</time>
      </trkpt>
      <trkpt lat="40.502167" lon="-5.211900">
        <ele>1286.0</ele>
        <time>2018-07-28T13:30:13Z</time>
      </trkpt>
      <trkpt lat="40.502067" lon="-5.211850">
        <ele>1284.0</ele>
        <time>2018-07-28T13:30:14Z</time>
      </trkpt>
      <trkpt lat="40.501967" lon="-5.211800">
        <ele>1282.0</ele>
        <time>2018-07-28T13:30:15Z</time>
      </trkpt>
      <trkpt lat="40.501883" lon="-5.211733">
        <ele>1281.0</ele>
        <time>2018-07-28T13:30:16Z</time>
      </trkpt>
      <trkpt lat="40.501783" lon="-5.211650">
        <ele>1280.0</ele>
        <time>2018-07-28T13:30:17Z</time>
      </trkpt>
      <trkpt lat="40.501700" lon="-5.211567">
        <ele>1278.0</ele>
        <time>2018-07-28T13:30:18Z</time>
      </trkpt>
      <trkpt lat="40.501617" lon="-5.211517">
        <ele>1277.0</ele>
        <time>2018-07-28T13:30:19Z</time>
      </trkpt>
      <trkpt lat="40.501533" lon="-5.211483">
        <ele>1276.0</ele>
        <time>2018-07-28T13:30:20Z</time>
      </trkpt>
      <trkpt lat="40.501450" lon="-5.211433">
        <ele>1274.0</ele>
        <time>2018-07-28T13:30:21Z</time>
      </trkpt>
      <trkpt lat="40.501367" lon="-5.211367">
        <ele>1272.0</ele>
        <time>2018-07-28T13:30:22Z</time>
      </trkpt>
      <trkpt lat="40.501317" lon="-5.211250">
        <ele>1268.0</ele>
        <time>2018-07-28T13:30:23Z</time>
      </trkpt>
      <trkpt lat="40.501250" lon="-5.211117">
        <ele>1265.0</ele>
        <time>2018-07-28T13:30:24Z</time>
      </trkpt>
      <trkpt lat="40.501217" lon="-5.210967">
        <ele>1263.0</ele>
        <time>2018-07-28T13:30:25Z</time>
      </trkpt>
      <trkpt lat="40.501167" lon="-5.210833">
        <ele>1262.0</ele>
        <time>2018-07-28T13:30:26Z</time>
      </trkpt>
      <trkpt lat="40.501117" lon="-5.210700">
        <ele>1261.0</ele>
        <time>2018-07-28T13:30:27Z</time>
      </trkpt>
      <trkpt lat="40.501067" lon="-5.210583">
        <ele>1260.0</ele>
        <time>2018-07-28T13:30:28Z</time>
      </trkpt>
      <trkpt lat="40.501017" lon="-5.210467">
        <ele>1259.0</ele>
        <time>2018-07-28T13:30:29Z</time>
      </trkpt>
      <trkpt lat="40.500983" lon="-5.210333">
        <ele>1257.0</ele>
        <time>2018-07-28T13:30:30Z</time>
      </trkpt>
      <trkpt lat="40.500967" lon="-5.210183">
        <ele>1255.0</ele>
        <time>2018-07-28T13:30:31Z</time>
      </trkpt>
      <trkpt lat="40.500933" lon="-5.210017">
        <ele>1254.0</ele>
        <time>2018-07-28T13:30:32Z</time>
      </trkpt>
      <trkpt lat="40.500900" lon="-5.209883">
        <ele>1254.0</ele>
        <time>2018-07-28T13:30:33Z</time>
      </trkpt>
      <trkpt lat="40.500883" lon="-5.209733">
        <ele>1253.0</ele>
        <time>2018-07-28T13:30:34Z</time>
      </trkpt>
      <trkpt lat="40.500850" lon="-5.209600">
        <ele>1252.0</ele>
        <time>2018-07-28T13:30:35Z</time>
      </trkpt>
      <trkpt lat="40.500833" lon="-5.209467">
        <ele>1250.0</ele>
        <time>2018-07-28T13:30:36Z</time>
      </trkpt>
      <trkpt lat="40.500817" lon="-5.209300">
        <ele>1247.0</ele>
        <time>2018-07-28T13:30:37Z</time>
      </trkpt>
      <trkpt lat="40.500817" lon="-5.209150">
        <ele>1245.0</ele>
        <time>2018-07-28T13:30:38Z</time>
      </trkpt>
      <trkpt lat="40.500800" lon="-5.208983">
        <ele>1243.0</ele>
        <time>2018-07-28T13:30:39Z</time>
      </trkpt>
      <trkpt lat="40.500800" lon="-5.208817">
        <ele>1242.0</ele>
        <time>2018-07-28T13:30:40Z</time>
      </trkpt>
      <trkpt lat="40.500800" lon="-5.208667">
        <ele>1241.0</ele>
        <time>2018-07-28T13:30:41Z</time>
      </trkpt>
      <trkpt lat="40.500817" lon="-5.208517">
        <ele>1239.0</ele>
        <time>2018-07-28T13:30:42Z</time>
      </trkpt>
      <trkpt lat="40.500833" lon="-5.208367">
        <ele>1237.0</ele>
        <time>2018-07-28T13:30:43Z</time>
      </trkpt>
      <trkpt lat="40.500867" lon="-5.208217">
        <ele>1235.0</ele>
        <time>2018-07-28T13:30:44Z</time>
      </trkpt>
      <trkpt lat="40.500900" lon="-5.208067">
        <ele>1233.0</ele>
        <time>2018-07-28T13:30:45Z</time>
      </trkpt>
      <trkpt lat="40.500933" lon="-5.207917">
        <ele>1231.0</ele>
        <time>2018-07-28T13:30:46Z</time>
      </trkpt>
      <trkpt lat="40.500983" lon="-5.207750">
        <ele>1230.0</ele>
        <time>2018-07-28T13:30:47Z</time>
      </trkpt>
      <trkpt lat="40.501017" lon="-5.207583">
        <ele>1229.0</ele>
        <time>2018-07-28T13:30:48Z</time>
      </trkpt>
      <trkpt lat="40.501050" lon="-5.207433">
        <ele>1229.0</ele>
        <time>2018-07-28T13:30:49Z</time>
      </trkpt>
      <trkpt lat="40.501100" lon="-5.207283">
        <ele>1228.0</ele>
        <time>2018-07-28T13:30:50Z</time>
      </trkpt>
      <trkpt lat="40.501167" lon="-5.207150">
        <ele>1226.0</ele>
        <time>2018-07-28T13:30:51Z</time>
      </trkpt>
      <trkpt lat="40.501250" lon="-5.207017">
        <ele>1224.0</ele>
        <time>2018-07-28T13:30:52Z</time>
      </trkpt>
      <trkpt lat="40.501333" lon="-5.206883">
        <ele>1223.0</ele>
        <time>2018-07-28T13:30:53Z</time>
      </trkpt>
      <trkpt lat="40.501433" lon="-5.206767">
        <ele>1223.0</ele>
        <time>2018-07-28T13:30:54Z</time>
      </trkpt>
      <trkpt lat="40.501533" lon="-5.206667">
        <ele>1224.0</ele>
        <time>2018-07-28T13:30:55Z</time>
      </trkpt>
      <trkpt lat="40.501633" lon="-5.206600">
        <ele>1225.0</ele>
        <time>2018-07-28T13:30:56Z</time>
      </trkpt>
      <trkpt lat="40.501750" lon="-5.206533">
        <ele>1226.0</ele>
        <time>2018-07-28T13:30:57Z</time>
      </trkpt>
      <trkpt lat="40.501850" lon="-5.206483">
        <ele>1228.0</ele>
        <time>2018-07-28T13:30:58Z</time>
      </trkpt>
      <trkpt lat="40.501933" lon="-5.206433">
        <ele>1230.0</ele>
        <time>2018-07-28T13:30:59Z</time>
      </trkpt>
      <trkpt lat="40.502000" lon="-5.206367">
        <ele>1231.0</ele>
        <time>2018-07-28T13:31:00Z</time>
      </trkpt>
      <trkpt lat="40.502083" lon="-5.206317">
        <ele>1231.0</ele>
        <time>2018-07-28T13:31:01Z</time>
      </trkpt>
      <trkpt lat="40.502167" lon="-5.206283">
        <ele>1230.0</ele>
        <time>2018-07-28T13:31:02Z</time>
      </trkpt>
      <trkpt lat="40.502250" lon="-5.206250">
        <ele>1229.0</ele>
        <time>2018-07-28T13:31:03Z</time>
      </trkpt>
      <trkpt lat="40.502333" lon="-5.206217">
        <ele>1228.0</ele>
        <time>2018-07-28T13:31:04Z</time>
      </trkpt>
      <trkpt lat="40.502433" lon="-5.206167">
        <ele>1228.0</ele>
        <time>2018-07-28T13:31:05Z</time>
      </trkpt>
      <trkpt lat="40.502500" lon="-5.206083">
        <ele>1226.0</ele>
        <time>2018-07-28T13:31:06Z</time>
      </trkpt>
      <trkpt lat="40.502583" lon="-5.205983">
        <ele>1222.0</ele>
        <time>2018-07-28T13:31:07Z</time>
      </trkpt>
      <trkpt lat="40.502667" lon="-5.205917">
        <ele>1220.0</ele>
        <time>2018-07-28T13:31:08Z</time>
      </trkpt>
      <trkpt lat="40.502767" lon="-5.205883">
        <ele>1216.0</ele>
        <time>2018-07-28T13:31:09Z</time>
      </trkpt>
      <trkpt lat="40.502883" lon="-5.205867">
        <ele>1214.0</ele>
        <time>2018-07-28T13:31:10Z</time>
      </trkpt>
      <trkpt lat="40.502967" lon="-5.205867">
        <ele>1213.0</ele>
        <time>2018-07-28T13:31:11Z</time>
      </trkpt>
      <trkpt lat="40.503067" lon="-5.205867">
        <ele>1212.0</ele>
        <time>2018-07-28T13:31:12Z</time>
      </trkpt>
      <trkpt lat="40.503150" lon="-5.205867">
        <ele>1210.0</ele>
        <time>2018-07-28T13:31:13Z</time>
      </trkpt>
      <trkpt lat="40.503233" lon="-5.205900">
        <ele>1209.0</ele>
        <time>2018-07-28T13:31:14Z</time>
      </trkpt>
      <trkpt lat="40.503317" lon="-5.205967">
        <ele>1206.0</ele>
        <time>2018-07-28T13:31:15Z</time>
      </trkpt>
      <trkpt lat="40.503383" lon="-5.206067">
        <ele>1204.0</ele>
        <time>2018-07-28T13:31:16Z</time>
      </trkpt>
      <trkpt lat="40.503433" lon="-5.206150">
        <ele>1204.0</ele>
        <time>2018-07-28T13:31:17Z</time>
      </trkpt>
      <trkpt lat="40.503450" lon="-5.206233">
        <ele>1204.0</ele>
        <time>2018-07-28T13:31:18Z</time>
      </trkpt>
      <trkpt lat="40.503483" lon="-5.206317">
        <ele>1204.0</ele>
        <time>2018-07-28T13:31:19Z</time>
      </trkpt>
      <trkpt lat="40.503500" lon="-5.206383">
        <ele>1204.0</ele>
        <time>2018-07-28T13:31:20Z</time>
      </trkpt>
      <trkpt lat="40.503483" lon="-5.206450">
        <ele>1202.0</ele>
        <time>2018-07-28T13:31:21Z</time>
      </trkpt>
      <trkpt lat="40.503433" lon="-5.206500">
        <ele>1199.0</ele>
        <time>2018-07-28T13:31:22Z</time>
      </trkpt>
      <trkpt lat="40.503350" lon="-5.206517">
        <ele>1196.0</ele>
        <time>2018-07-28T13:31:23Z</time>
      </trkpt>
      <trkpt lat="40.503267" lon="-5.206467">
        <ele>1194.0</ele>
        <time>2018-07-28T13:31:24Z</time>
      </trkpt>
      <trkpt lat="40.503200" lon="-5.206383">
        <ele>1194.0</ele>
        <time>2018-07-28T13:31:25Z</time>
      </trkpt>
      <trkpt lat="40.503150" lon="-5.206317">
        <ele>1195.0</ele>
        <time>2018-07-28T13:31:26Z</time>
      </trkpt>
      <trkpt lat="40.503100" lon="-5.206300">
        <ele>1193.0</ele>
        <time>2018-07-28T13:31:27Z</time>
      </trkpt>
      <trkpt lat="40.503050" lon="-5.206317">
        <ele>1190.0</ele>
        <time>2018-07-28T13:31:28Z</time>
      </trkpt>
      <trkpt lat="40.503000" lon="-5.206367">
        <ele>1186.0</ele>
        <time>2018-07-28T13:31:29Z</time>
      </trkpt>
      <trkpt lat="40.502950" lon="-5.206433">
        <ele>1186.0</ele>
        <time>2018-07-28T13:31:30Z</time>
      </trkpt>
      <trkpt lat="40.502900" lon="-5.206467">
        <ele>1186.0</ele>
        <time>2018-07-28T13:31:31Z</time>
      </trkpt>
      <trkpt lat="40.502850" lon="-5.206483">
        <ele>1185.0</ele>
        <time>2018-07-28T13:31:32Z</time>
      </trkpt>
      <trkpt lat="40.502817" lon="-5.206500">
        <ele>1184.0</ele>
        <time>2018-07-28T13:31:33Z</time>
      </trkpt>
      <trkpt lat="40.502783" lon="-5.206533">
        <ele>1182.0</ele>
        <time>2018-07-28T13:31:34Z</time>
      </trkpt>
      <trkpt lat="40.502767" lon="-5.206550">
        <ele>1181.0</ele>
        <time>2018-07-28T13:31:35Z</time>
      </trkpt>
      <trkpt lat="40.502750" lon="-5.206567">
        <ele>1180.0</ele>
        <time>2018-07-28T13:31:36Z</time>
      </trkpt>
      <trkpt lat="40.502733" lon="-5.206583">
        <ele>1180.0</ele>
        <time>2018-07-28T13:31:37Z</time>
      </trkpt>
      <trkpt lat="40.502733" lon="-5.206583">
        <ele>1180.0</ele>
        <time>2018-07-28T13:31:38Z</time>
      </trkpt>
      <trkpt lat="40.502733" lon="-5.206583">
        <ele>1180.0</ele>
        <time>2018-07-28T13:31:39Z</time>
      </trkpt>
      <trkpt lat="40.502733" lon="-5.206583">
        <ele>1179.0</ele>
        <time>2018-07-28T13:31:40Z</time>
      </trkpt>
      <trkpt lat="40.502733" lon="-5.206600">
        <ele>1179.0</ele>
        <time>2018-07-28T13:31:41Z</time>
      </trkpt>
      <trkpt lat="40.502733" lon="-5.206583">
        <ele>1179.0</ele>
        <time>2018-07-28T13:31:42Z</time>
      </trkpt>
      <trkpt lat="40.502717" lon="-5.206583">
        <ele>1179.0</ele>
        <time>2018-07-28T13:31:43Z</time>
      </trkpt>
      <trkpt lat="40.502717" lon="-5.206583">
        <ele>1179.0</ele>
        <time>2018-07-28T13:31:44Z</time>
      </trkpt>
      <trkpt lat="40.502717" lon="-5.206583">
        <ele>1179.0</ele>
        <time>2018-07-28T13:31:45Z</time>
      </trkpt>
      <trkpt lat="40.502717" lon="-5.206583">
        <ele>1179.0</ele>
        <time>2018-07-28T13:31:46Z</time>
      </trkpt>
      <trkpt lat="40.502717" lon="-5.206583">
        <ele>1179.0</ele>
        <time>2018-07-28T13:31:47Z</time>
      </trkpt>
      <trkpt lat="40.502717" lon="-5.206583">
        <ele>1179.0</ele>
        <time>2018-07-28T13:31:48Z</time>
      </trkpt>
      <trkpt lat="40.502717" lon="-5.206567">
        <ele>1179.0</ele>
        <time>2018-07-28T13:31:49Z</time>
      </trkpt>
      <trkpt lat="40.502717" lon="-5.206567">
        <ele>1179.0</ele>
        <time>2018-07-28T13:31:50Z</time>
      </trkpt>
      <trkpt lat="40.502717" lon="-5.206583">
        <ele>1179.0</ele>
        <time>2018-07-28T13:31:51Z</time>
      </trkpt>
      <trkpt lat="40.502717" lon="-5.206583">
        <ele>1178.0</ele>
        <time>2018-07-28T13:31:52Z</time>
      </trkpt>
      <trkpt lat="40.502717" lon="-5.206567">
        <ele>1178.0</ele>
        <time>2018-07-28T13:31:53Z</time>
      </trkpt>
      <trkpt lat="40.502717" lon="-5.206567">
        <ele>1178.0</ele>
        <time>2018-07-28T13:31:54Z</time>
      </trkpt>
      <trkpt lat="40.502717" lon="-5.206567">
        <ele>1178.0</ele>
        <time>2018-07-28T13:31:55Z</time>
      </trkpt>
      <trkpt lat="40.502717" lon="-5.206567">
        <ele>1178.0</ele>
        <time>2018-07-28T13:31:56Z</time>
      </trkpt>
      <trkpt lat="40.502717" lon="-5.206567">
        <ele>1178.0</ele>
        <time>2018-07-28T13:31:57Z</time>
      </trkpt>
      <trkpt lat="40.502717" lon="-5.206583">
        <ele>1177.0</ele>
        <time>2018-07-28T13:31:58Z</time>
      </trkpt>
      <trkpt lat="40.502717" lon="-5.206567">
        <ele>1178.0</ele>
        <time>2018-07-28T13:31:59Z</time>
      </trkpt>
      <trkpt lat="40.502717" lon="-5.206567">
        <ele>1177.0</ele>
        <time>2018-07-28T13:32:00Z</time>
      </trkpt>
      <trkpt lat="40.502717" lon="-5.206567">
        <ele>1178.0</ele>
        <time>2018-07-28T13:32:01Z</time>
      </trkpt>
      <trkpt lat="40.502717" lon="-5.206567">
        <ele>1177.0</ele>
        <time>2018-07-28T13:32:02Z</time>
      </trkpt>
      <trkpt lat="40.502717" lon="-5.206567">
        <ele>1176.0</ele>
        <time>2018-07-28T13:32:03Z</time>
      </trkpt>
      <trkpt lat="40.502717" lon="-5.206567">
        <ele>1176.0</ele>
        <time>2018-07-28T13:32:04Z</time>
      </trkpt>
      <trkpt lat="40.502717" lon="-5.206567">
        <ele>1176.0</ele>
        <time>2018-07-28T13:32:05Z</time>
      </trkpt>
      <trkpt lat="40.502717" lon="-5.206567">
        <ele>1175.0</ele>
        <time>2018-07-28T13:32:06Z</time>
      </trkpt>
      <trkpt lat="40.502717" lon="-5.206567">
        <ele>1175.0</ele>
        <time>2018-07-28T13:32:07Z</time>
      </trkpt>
      <trkpt lat="40.502717" lon="-5.206567">
        <ele>1175.0</ele>
        <time>2018-07-28T13:32:08Z</time>
      </trkpt>
      <trkpt lat="40.502717" lon="-5.206583">
        <ele>1175.0</ele>
        <time>2018-07-28T13:32:09Z</time>
      </trkpt>
      <trkpt lat="40.502733" lon="-5.206583">
        <ele>1176.0</ele>
        <time>2018-07-28T13:32:10Z</time>
      </trkpt>
      <trkpt lat="40.502733" lon="-5.206583">
        <ele>1176.0</ele>
        <time>2018-07-28T13:32:11Z</time>
      </trkpt>
      <trkpt lat="40.502733" lon="-5.206567">
        <ele>1177.0</ele>
        <time>2018-07-28T13:32:12Z</time>
      </trkpt>
    </trkseg>
  </trk>
</gpx>
